<?xml version='1.0' encoding='UTF-8'?><gpx version="1.1" creator="JPX - https://github.com/jenetics/jpx" xmlns="http://www.topografix.com/GPX/1/1"><trk><trkseg><trkpt lat="43.40795402623576" lon="-4.7589134181608355"><ele>34.0</ele><time>2026-05-02T07:52:16Z</time></trkpt><trkpt lat="43.407866999249315" lon="-4.758928610131406"><ele>34.0</ele><time>2026-05-02T07:52:19Z</time></trkpt><trkpt lat="43.40780115339906" lon="-4.75885204382227"><ele>34.0</ele><time>2026-05-02T07:52:22Z</time></trkpt><trkpt lat="43.40779424371802" lon="-4.758726044421531"><ele>34.0</ele><time>2026-05-02T07:52:25Z</time></trkpt><trkpt lat="43.40772937672481" lon="-4.758628202324351"><ele>34.0</ele><time>2026-05-02T07:52:28Z</time></trkpt><trkpt lat="43.40765844791105" lon="-4.758566000359176"><ele>34.0</ele><time>2026-05-02T07:52:30Z</time></trkpt><trkpt lat="43.40757810926908" lon="-4.758492377459217"><ele>34.0</ele><time>2026-05-02T07:52:32Z</time></trkpt><trkpt lat="43.40751249554056" lon="-4.758439349609801"><ele>34.0</ele><time>2026-05-02T07:52:34Z</time></trkpt><trkpt lat="43.40743730005747" lon="-4.758415087307807"><ele>34.0</ele><time>2026-05-02T07:52:37Z</time></trkpt><trkpt lat="43.40735676038782" lon="-4.758478823532508"><ele>34.0</ele><time>2026-05-02T07:52:39Z</time></trkpt><trkpt lat="43.40726414124215" lon="-4.758546940810465"><ele>34.0</ele><time>2026-05-02T07:52:41Z</time></trkpt><trkpt lat="43.40715625137149" lon="-4.7586127738868775"><ele>34.5</ele><time>2026-05-02T07:52:43Z</time></trkpt><trkpt lat="43.40704571931581" lon="-4.758693094819622"><ele>35.0</ele><time>2026-05-02T07:52:45Z</time></trkpt><trkpt lat="43.40698299845831" lon="-4.758728770585999"><ele>35.5</ele><time>2026-05-02T07:52:46Z</time></trkpt><trkpt lat="43.40692336659504" lon="-4.75876995406856"><ele>36.0</ele><time>2026-05-02T07:52:47Z</time></trkpt><trkpt lat="43.40685881286997" lon="-4.75881725852121"><ele>36.5</ele><time>2026-05-02T07:52:48Z</time></trkpt><trkpt lat="43.40679675307432" lon="-4.758862125275085"><ele>37.0</ele><time>2026-05-02T07:52:49Z</time></trkpt><trkpt lat="43.40673003788149" lon="-4.758908717416395"><ele>37.0</ele><time>2026-05-02T07:52:50Z</time></trkpt><trkpt lat="43.406666718140215" lon="-4.7589558400998415"><ele>37.0</ele><time>2026-05-02T07:52:51Z</time></trkpt><trkpt lat="43.40660537566342" lon="-4.758998619227567"><ele>37.0</ele><time>2026-05-02T07:52:52Z</time></trkpt><trkpt lat="43.406535977780344" lon="-4.7590422771644185"><ele>37.0</ele><time>2026-05-02T07:52:53Z</time></trkpt><trkpt lat="43.40647142965359" lon="-4.7590925053764055"><ele>37.0</ele><time>2026-05-02T07:52:54Z</time></trkpt><trkpt lat="43.40640650435679" lon="-4.759140746740766"><ele>37.0</ele><time>2026-05-02T07:52:55Z</time></trkpt><trkpt lat="43.40633826328917" lon="-4.759185886548628"><ele>37.0</ele><time>2026-05-02T07:52:56Z</time></trkpt><trkpt lat="43.406271583488454" lon="-4.759231442189861"><ele>37.0</ele><time>2026-05-02T07:52:57Z</time></trkpt><trkpt lat="43.4062066485961" lon="-4.759275507429069"><ele>37.0</ele><time>2026-05-02T07:52:58Z</time></trkpt><trkpt lat="43.40614053526429" lon="-4.75931507747104"><ele>37.0</ele><time>2026-05-02T07:52:59Z</time></trkpt><trkpt lat="43.40607120514101" lon="-4.759357116750802"><ele>37.0</ele><time>2026-05-02T07:53:00Z</time></trkpt><trkpt lat="43.406003063770456" lon="-4.759402591845373"><ele>37.0</ele><time>2026-05-02T07:53:01Z</time></trkpt><trkpt lat="43.405937548178635" lon="-4.759444654380656"><ele>37.0</ele><time>2026-05-02T07:53:02Z</time></trkpt><trkpt lat="43.40587258153231" lon="-4.75949185978086"><ele>37.0</ele><time>2026-05-02T07:53:03Z</time></trkpt><trkpt lat="43.4058153731498" lon="-4.759552250228006"><ele>37.0</ele><time>2026-05-02T07:53:04Z</time></trkpt><trkpt lat="43.40576836422493" lon="-4.7596308766755016"><ele>37.0</ele><time>2026-05-02T07:53:05Z</time></trkpt><trkpt lat="43.40573318794065" lon="-4.759717909466789"><ele>37.0</ele><time>2026-05-02T07:53:06Z</time></trkpt><trkpt lat="43.40569724552576" lon="-4.759797853377212"><ele>37.0</ele><time>2026-05-02T07:53:07Z</time></trkpt><trkpt lat="43.40564882990126" lon="-4.7598589663889825"><ele>37.0</ele><time>2026-05-02T07:53:08Z</time></trkpt><trkpt lat="43.40559028325013" lon="-4.759895974378766"><ele>37.0</ele><time>2026-05-02T07:53:09Z</time></trkpt><trkpt lat="43.405532804483016" lon="-4.759941171243562"><ele>37.0</ele><time>2026-05-02T07:53:10Z</time></trkpt><trkpt lat="43.40545738720949" lon="-4.759945373359852"><ele>36.833333333333336</ele><time>2026-05-02T07:53:11Z</time></trkpt><trkpt lat="43.4053800005605" lon="-4.759904051121851"><ele>36.66666666666667</ele><time>2026-05-02T07:53:12Z</time></trkpt><trkpt lat="43.40530307032688" lon="-4.759895646608938"><ele>36.5</ele><time>2026-05-02T07:53:13Z</time></trkpt><trkpt lat="43.40522583408244" lon="-4.759907488671788"><ele>36.333333333333336</ele><time>2026-05-02T07:53:14Z</time></trkpt><trkpt lat="43.405149777179105" lon="-4.759940450300423"><ele>36.166666666666664</ele><time>2026-05-02T07:53:15Z</time></trkpt><trkpt lat="43.40507767674428" lon="-4.759976618217596"><ele>36.0</ele><time>2026-05-02T07:53:16Z</time></trkpt><trkpt lat="43.405004322673726" lon="-4.760014276068489"><ele>36.00000000000001</ele><time>2026-05-02T07:53:17Z</time></trkpt><trkpt lat="43.40493771539174" lon="-4.760065337049894"><ele>36.0</ele><time>2026-05-02T07:53:18.001Z</time></trkpt><trkpt lat="43.40487453417627" lon="-4.7601210713084825"><ele>36.0</ele><time>2026-05-02T07:53:19.001Z</time></trkpt><trkpt lat="43.40482018682684" lon="-4.760185157306168"><ele>36.0</ele><time>2026-05-02T07:53:20.001Z</time></trkpt><trkpt lat="43.40476860364286" lon="-4.760253451062047"><ele>36.0</ele><time>2026-05-02T07:53:21.001Z</time></trkpt><trkpt lat="43.40471468643787" lon="-4.760301857568231"><ele>36.00000000000001</ele><time>2026-05-02T07:53:22.001Z</time></trkpt><trkpt lat="43.404663993381135" lon="-4.760359153959678"><ele>36.0</ele><time>2026-05-02T07:53:23.001Z</time></trkpt><trkpt lat="43.40459974556239" lon="-4.760375324087998"><ele>36.142857142857146</ele><time>2026-05-02T07:53:24.001Z</time></trkpt><trkpt lat="43.404534218677995" lon="-4.760351041472074"><ele>36.285714285714285</ele><time>2026-05-02T07:53:25.001Z</time></trkpt><trkpt lat="43.40447589678266" lon="-4.760301888124683"><ele>36.42857142857143</ele><time>2026-05-02T07:53:26.001Z</time></trkpt><trkpt lat="43.40445114341424" lon="-4.760185930961855"><ele>36.57142857142857</ele><time>2026-05-02T07:53:27.001Z</time></trkpt><trkpt lat="43.40441199094469" lon="-4.760107420136813"><ele>36.714285714285715</ele><time>2026-05-02T07:53:28.001Z</time></trkpt><trkpt lat="43.40437380769535" lon="-4.760022560079289"><ele>36.85714285714286</ele><time>2026-05-02T07:53:29.001Z</time></trkpt><trkpt lat="43.404333649075724" lon="-4.7599386641423065"><ele>37.0</ele><time>2026-05-02T07:53:30.001Z</time></trkpt><trkpt lat="43.40428796365382" lon="-4.7598411177259745"><ele>37.0</ele><time>2026-05-02T07:53:31.001Z</time></trkpt><trkpt lat="43.404254719245664" lon="-4.759736173037673"><ele>37.0</ele><time>2026-05-02T07:53:32.001Z</time></trkpt><trkpt lat="43.40423410664782" lon="-4.759612840167559"><ele>37.0</ele><time>2026-05-02T07:53:33.001Z</time></trkpt><trkpt lat="43.404218975436706" lon="-4.759484268743851"><ele>37.0</ele><time>2026-05-02T07:53:34.001Z</time></trkpt><trkpt lat="43.40421669776635" lon="-4.759352230323498"><ele>37.0</ele><time>2026-05-02T07:53:35.001Z</time></trkpt><trkpt lat="43.40421527001848" lon="-4.759213234359414"><ele>37.0</ele><time>2026-05-02T07:53:36.001Z</time></trkpt><trkpt lat="43.40422110879295" lon="-4.759079479674918"><ele>37.0</ele><time>2026-05-02T07:53:37.001Z</time></trkpt><trkpt lat="43.40421886157443" lon="-4.758946798363831"><ele>37.0</ele><time>2026-05-02T07:53:38.001Z</time></trkpt><trkpt lat="43.404220439240696" lon="-4.7588158597335015"><ele>37.0</ele><time>2026-05-02T07:53:39.001Z</time></trkpt><trkpt lat="43.40422236373049" lon="-4.758688188622526"><ele>37.0</ele><time>2026-05-02T07:53:40.001Z</time></trkpt><trkpt lat="43.40421574802629" lon="-4.758546967411336"><ele>36.800000000000004</ele><time>2026-05-02T07:53:41.001Z</time></trkpt><trkpt lat="43.40421013482044" lon="-4.758411140727785"><ele>36.6</ele><time>2026-05-02T07:53:42.001Z</time></trkpt><trkpt lat="43.40420320748064" lon="-4.758262893631919"><ele>36.400000000000006</ele><time>2026-05-02T07:53:43.001Z</time></trkpt><trkpt lat="43.40419663769015" lon="-4.758117079045739"><ele>36.2</ele><time>2026-05-02T07:53:44.001Z</time></trkpt><trkpt lat="43.404187888170455" lon="-4.757962244044015"><ele>36.0</ele><time>2026-05-02T07:53:45.001Z</time></trkpt><trkpt lat="43.40417086956052" lon="-4.7578104988330345"><ele>36.4</ele><time>2026-05-02T07:53:46.001Z</time></trkpt><trkpt lat="43.40415553018359" lon="-4.757675782319129"><ele>36.8</ele><time>2026-05-02T07:53:47.001Z</time></trkpt><trkpt lat="43.40414451445567" lon="-4.757527984094419"><ele>37.199999999999996</ele><time>2026-05-02T07:53:48.001Z</time></trkpt><trkpt lat="43.40412605573628" lon="-4.7573825778896435"><ele>37.6</ele><time>2026-05-02T07:53:49.001Z</time></trkpt><trkpt lat="43.4041130678651" lon="-4.757239231771156"><ele>38.0</ele><time>2026-05-02T07:53:50.001Z</time></trkpt><trkpt lat="43.404096678341496" lon="-4.757094389442347"><ele>38.0</ele><time>2026-05-02T07:53:51.001Z</time></trkpt><trkpt lat="43.40407887685578" lon="-4.756952353525709"><ele>38.0</ele><time>2026-05-02T07:53:52.001Z</time></trkpt><trkpt lat="43.404065591733655" lon="-4.75681393545194"><ele>38.0</ele><time>2026-05-02T07:53:53.001Z</time></trkpt><trkpt lat="43.404056671185884" lon="-4.756673843190792"><ele>38.0</ele><time>2026-05-02T07:53:54.001Z</time></trkpt><trkpt lat="43.40404599181596" lon="-4.756534555806299"><ele>38.0</ele><time>2026-05-02T07:53:54.999Z</time></trkpt><trkpt lat="43.40403232312367" lon="-4.756395414564336"><ele>37.8</ele><time>2026-05-02T07:53:55.999Z</time></trkpt><trkpt lat="43.404015306326684" lon="-4.756258520330499"><ele>37.599999999999994</ele><time>2026-05-02T07:53:56.999Z</time></trkpt><trkpt lat="43.40400000472206" lon="-4.756123018235654"><ele>37.400000000000006</ele><time>2026-05-02T07:53:57.999Z</time></trkpt><trkpt lat="43.403990261933515" lon="-4.755984375329822"><ele>37.2</ele><time>2026-05-02T07:53:58.999Z</time></trkpt><trkpt lat="43.40398212155964" lon="-4.755846978592741"><ele>37.0</ele><time>2026-05-02T07:53:59.999Z</time></trkpt><trkpt lat="43.4039703196681" lon="-4.755708487118517"><ele>38.2</ele><time>2026-05-02T07:54:00.999Z</time></trkpt><trkpt lat="43.403959397673624" lon="-4.755571842322063"><ele>39.400000000000006</ele><time>2026-05-02T07:54:01.999Z</time></trkpt><trkpt lat="43.40395062569585" lon="-4.755435233029589"><ele>40.599999999999994</ele><time>2026-05-02T07:54:02.999Z</time></trkpt><trkpt lat="43.40394114957442" lon="-4.755294538880569"><ele>41.8</ele><time>2026-05-02T07:54:03.999Z</time></trkpt><trkpt lat="43.40392879861623" lon="-4.755155123545351"><ele>43.0</ele><time>2026-05-02T07:54:04.999Z</time></trkpt><trkpt lat="43.403922497087244" lon="-4.75501761385773"><ele>43.8</ele><time>2026-05-02T07:54:05.999Z</time></trkpt><trkpt lat="43.403915039664504" lon="-4.754873522182095"><ele>44.599999999999994</ele><time>2026-05-02T07:54:06.999Z</time></trkpt><trkpt lat="43.40390425175003" lon="-4.754735838148371"><ele>45.400000000000006</ele><time>2026-05-02T07:54:07.999Z</time></trkpt><trkpt lat="43.40389825340811" lon="-4.754598183856828"><ele>46.2</ele><time>2026-05-02T07:54:08.999Z</time></trkpt><trkpt lat="43.40389104871809" lon="-4.754458504029823"><ele>47.0</ele><time>2026-05-02T07:54:09.999Z</time></trkpt><trkpt lat="43.403884722293384" lon="-4.7543201520306955"><ele>48.2</ele><time>2026-05-02T07:54:11Z</time></trkpt><trkpt lat="43.40388152114206" lon="-4.754182342096155"><ele>49.400000000000006</ele><time>2026-05-02T07:54:12Z</time></trkpt><trkpt lat="43.40387624386477" lon="-4.754042230889309"><ele>50.599999999999994</ele><time>2026-05-02T07:54:13Z</time></trkpt><trkpt lat="43.40387143055865" lon="-4.753903510242095"><ele>51.8</ele><time>2026-05-02T07:54:14Z</time></trkpt><trkpt lat="43.403868463441945" lon="-4.753765391559014"><ele>53.0</ele><time>2026-05-02T07:54:15Z</time></trkpt><trkpt lat="43.403863805062166" lon="-4.753624620793835"><ele>54.2</ele><time>2026-05-02T07:54:16Z</time></trkpt><trkpt lat="43.40385645638911" lon="-4.753485846896785"><ele>55.4</ele><time>2026-05-02T07:54:17Z</time></trkpt><trkpt lat="43.40385233814089" lon="-4.753343716062762"><ele>56.60000000000001</ele><time>2026-05-02T07:54:18Z</time></trkpt><trkpt lat="43.40385019434139" lon="-4.7532048021593"><ele>57.800000000000004</ele><time>2026-05-02T07:54:19Z</time></trkpt><trkpt lat="43.403848034125" lon="-4.753066143051466"><ele>59.0</ele><time>2026-05-02T07:54:20Z</time></trkpt><trkpt lat="43.4038436549551" lon="-4.7529236355992595"><ele>59.0</ele><time>2026-05-02T07:54:21Z</time></trkpt><trkpt lat="43.40383973175258" lon="-4.752780711635504"><ele>59.00000000000001</ele><time>2026-05-02T07:54:22Z</time></trkpt><trkpt lat="43.40383791174767" lon="-4.752641511010045"><ele>59.00000000000001</ele><time>2026-05-02T07:54:23Z</time></trkpt><trkpt lat="43.4038345202142" lon="-4.752502283875519"><ele>59.0</ele><time>2026-05-02T07:54:24Z</time></trkpt><trkpt lat="43.40383341455646" lon="-4.75236409404593"><ele>59.0</ele><time>2026-05-02T07:54:25Z</time></trkpt><trkpt lat="43.40382902308741" lon="-4.75222080413709"><ele>55.6</ele><time>2026-05-02T07:54:26Z</time></trkpt><trkpt lat="43.403826779198795" lon="-4.7520745534400515"><ele>52.2</ele><time>2026-05-02T07:54:27Z</time></trkpt><trkpt lat="43.40382347572552" lon="-4.751933745517418"><ele>48.800000000000004</ele><time>2026-05-02T07:54:28Z</time></trkpt><trkpt lat="43.403819632423584" lon="-4.751788082026818"><ele>45.400000000000006</ele><time>2026-05-02T07:54:29Z</time></trkpt><trkpt lat="43.403815343066476" lon="-4.751641940192815"><ele>42.0</ele><time>2026-05-02T07:54:30Z</time></trkpt><trkpt lat="43.40381233057115" lon="-4.751497523428594"><ele>42.0</ele><time>2026-05-02T07:54:31Z</time></trkpt><trkpt lat="43.40380807595045" lon="-4.75135011030285"><ele>42.0</ele><time>2026-05-02T07:54:32Z</time></trkpt><trkpt lat="43.40380681818154" lon="-4.751206143381464"><ele>42.0</ele><time>2026-05-02T07:54:33Z</time></trkpt><trkpt lat="43.403805356348364" lon="-4.751060193733694"><ele>42.0</ele><time>2026-05-02T07:54:34Z</time></trkpt><trkpt lat="43.40380257629571" lon="-4.750914542976156"><ele>42.0</ele><time>2026-05-02T07:54:35Z</time></trkpt><trkpt lat="43.40380237901625" lon="-4.750771315716729"><ele>44.0</ele><time>2026-05-02T07:54:36Z</time></trkpt><trkpt lat="43.40380212878299" lon="-4.750622417013186"><ele>46.0</ele><time>2026-05-02T07:54:37Z</time></trkpt><trkpt lat="43.403802885215704" lon="-4.750482729837638"><ele>48.0</ele><time>2026-05-02T07:54:38Z</time></trkpt><trkpt lat="43.40380033517479" lon="-4.750322764804313"><ele>50.0</ele><time>2026-05-02T07:54:39Z</time></trkpt><trkpt lat="43.403794157313335" lon="-4.750171866173496"><ele>52.0</ele><time>2026-05-02T07:54:40Z</time></trkpt><trkpt lat="43.4037914369083" lon="-4.750030413824754"><ele>51.2</ele><time>2026-05-02T07:54:41Z</time></trkpt><trkpt lat="43.40379005159455" lon="-4.749884395921662"><ele>50.400000000000006</ele><time>2026-05-02T07:54:42Z</time></trkpt><trkpt lat="43.40378564806312" lon="-4.749739650635152"><ele>49.599999999999994</ele><time>2026-05-02T07:54:43Z</time></trkpt><trkpt lat="43.40378342222767" lon="-4.749588891995778"><ele>48.8</ele><time>2026-05-02T07:54:44Z</time></trkpt><trkpt lat="43.40378029843674" lon="-4.749431842632181"><ele>48.0</ele><time>2026-05-02T07:54:45Z</time></trkpt><trkpt lat="43.40377909358594" lon="-4.749294334619152"><ele>48.0</ele><time>2026-05-02T07:54:46Z</time></trkpt><trkpt lat="43.40376948368212" lon="-4.749134278368719"><ele>48.0</ele><time>2026-05-02T07:54:47Z</time></trkpt><trkpt lat="43.40376703212705" lon="-4.748982844000976"><ele>48.0</ele><time>2026-05-02T07:54:48Z</time></trkpt><trkpt lat="43.40376228314182" lon="-4.748832885706846"><ele>48.0</ele><time>2026-05-02T07:54:49Z</time></trkpt><trkpt lat="43.403753520555625" lon="-4.748680379976971"><ele>48.0</ele><time>2026-05-02T07:54:50Z</time></trkpt><trkpt lat="43.40374412760618" lon="-4.74852544428315"><ele>47.0</ele><time>2026-05-02T07:54:51Z</time></trkpt><trkpt lat="43.403733507911724" lon="-4.748373040765989"><ele>46.0</ele><time>2026-05-02T07:54:52Z</time></trkpt><trkpt lat="43.40371813939817" lon="-4.748219947676849"><ele>45.0</ele><time>2026-05-02T07:54:53Z</time></trkpt><trkpt lat="43.40369837720887" lon="-4.748072378885638"><ele>44.0</ele><time>2026-05-02T07:54:54Z</time></trkpt><trkpt lat="43.403671784086406" lon="-4.7479262568300085"><ele>43.0</ele><time>2026-05-02T07:54:55Z</time></trkpt><trkpt lat="43.40364452090309" lon="-4.74778047060439"><ele>43.4</ele><time>2026-05-02T07:54:56Z</time></trkpt><trkpt lat="43.40361082001625" lon="-4.747632160698974"><ele>43.8</ele><time>2026-05-02T07:54:57Z</time></trkpt><trkpt lat="43.403574613027" lon="-4.747489052013184"><ele>44.2</ele><time>2026-05-02T07:54:58Z</time></trkpt><trkpt lat="43.40353400944879" lon="-4.747346927585424"><ele>44.6</ele><time>2026-05-02T07:54:59Z</time></trkpt><trkpt lat="43.40348878070845" lon="-4.74720802492872"><ele>45.0</ele><time>2026-05-02T07:55:00Z</time></trkpt><trkpt lat="43.40344094482752" lon="-4.747069630707574"><ele>45.0</ele><time>2026-05-02T07:55:01Z</time></trkpt><trkpt lat="43.40339266160383" lon="-4.746934513171355"><ele>45.0</ele><time>2026-05-02T07:55:02Z</time></trkpt><trkpt lat="43.403344731537416" lon="-4.746795748507268"><ele>45.0</ele><time>2026-05-02T07:55:03Z</time></trkpt><trkpt lat="43.40329984226006" lon="-4.746657213994101"><ele>45.0</ele><time>2026-05-02T07:55:04Z</time></trkpt><trkpt lat="43.403254176820695" lon="-4.746516703799762"><ele>45.0</ele><time>2026-05-02T07:55:05Z</time></trkpt><trkpt lat="43.403213636459995" lon="-4.746374467881991"><ele>46.8</ele><time>2026-05-02T07:55:06Z</time></trkpt><trkpt lat="43.40317327237699" lon="-4.746231198767262"><ele>48.6</ele><time>2026-05-02T07:55:07Z</time></trkpt><trkpt lat="43.40314903755106" lon="-4.746083127609236"><ele>50.400000000000006</ele><time>2026-05-02T07:55:08Z</time></trkpt><trkpt lat="43.403121243243" lon="-4.745929555105078"><ele>52.2</ele><time>2026-05-02T07:55:09Z</time></trkpt><trkpt lat="43.40310196382584" lon="-4.745778338840138"><ele>54.0</ele><time>2026-05-02T07:55:10Z</time></trkpt><trkpt lat="43.40308546405194" lon="-4.745625227703491"><ele>54.800000000000004</ele><time>2026-05-02T07:55:11Z</time></trkpt><trkpt lat="43.4030734386977" lon="-4.745472159249121"><ele>55.60000000000001</ele><time>2026-05-02T07:55:12Z</time></trkpt><trkpt lat="43.40306383296085" lon="-4.745319419223439"><ele>56.4</ele><time>2026-05-02T07:55:13Z</time></trkpt><trkpt lat="43.40305775951636" lon="-4.7451661801481615"><ele>57.2</ele><time>2026-05-02T07:55:14Z</time></trkpt><trkpt lat="43.4030579761281" lon="-4.745016527095463"><ele>58.0</ele><time>2026-05-02T07:55:15Z</time></trkpt><trkpt lat="43.40305824326874" lon="-4.7448630972958545"><ele>58.8</ele><time>2026-05-02T07:55:16Z</time></trkpt><trkpt lat="43.403060869325074" lon="-4.744710679778171"><ele>59.599999999999994</ele><time>2026-05-02T07:55:17Z</time></trkpt><trkpt lat="43.40306373899582" lon="-4.744559696187736"><ele>60.400000000000006</ele><time>2026-05-02T07:55:18Z</time></trkpt><trkpt lat="43.40306473878673" lon="-4.74440536814725"><ele>61.2</ele><time>2026-05-02T07:55:19Z</time></trkpt><trkpt lat="43.4030647143133" lon="-4.744252087894737"><ele>62.0</ele><time>2026-05-02T07:55:20Z</time></trkpt><trkpt lat="43.40306401471512" lon="-4.744097896515087"><ele>62.2</ele><time>2026-05-02T07:55:21Z</time></trkpt><trkpt lat="43.403059595940825" lon="-4.743942053376301"><ele>62.400000000000006</ele><time>2026-05-02T07:55:22Z</time></trkpt><trkpt lat="43.40306098603569" lon="-4.743791209322762"><ele>62.599999999999994</ele><time>2026-05-02T07:55:23.001Z</time></trkpt><trkpt lat="43.403058452657916" lon="-4.743637401357887"><ele>62.8</ele><time>2026-05-02T07:55:24.001Z</time></trkpt><trkpt lat="43.40305669922184" lon="-4.743484011788579"><ele>63.0</ele><time>2026-05-02T07:55:25.001Z</time></trkpt><trkpt lat="43.403048055452516" lon="-4.743329562240393"><ele>63.4</ele><time>2026-05-02T07:55:26.001Z</time></trkpt><trkpt lat="43.40303919260513" lon="-4.7431783557803975"><ele>63.8</ele><time>2026-05-02T07:55:27.001Z</time></trkpt><trkpt lat="43.40302553576787" lon="-4.743027541153175"><ele>64.2</ele><time>2026-05-02T07:55:28.001Z</time></trkpt><trkpt lat="43.403010729003725" lon="-4.742877032866156"><ele>64.6</ele><time>2026-05-02T07:55:29.001Z</time></trkpt><trkpt lat="43.402991055950785" lon="-4.742725184256668"><ele>65.0</ele><time>2026-05-02T07:55:30.001Z</time></trkpt><trkpt lat="43.40296820915823" lon="-4.742575592055814"><ele>62.75</ele><time>2026-05-02T07:55:31.001Z</time></trkpt><trkpt lat="43.40294132021655" lon="-4.742433242696879"><ele>60.5</ele><time>2026-05-02T07:55:32.001Z</time></trkpt><trkpt lat="43.402908378853894" lon="-4.742264778115117"><ele>58.25</ele><time>2026-05-02T07:55:33.001Z</time></trkpt><trkpt lat="43.40284754208452" lon="-4.742054397565589"><ele>56.0</ele><time>2026-05-02T07:55:34.001Z</time></trkpt><trkpt lat="43.4027808880734" lon="-4.741821675378304"><ele>56.0</ele><time>2026-05-02T07:55:35.001Z</time></trkpt><trkpt lat="43.40271332615586" lon="-4.7416682021303025"><ele>55.99999999999999</ele><time>2026-05-02T07:55:38.001Z</time></trkpt><trkpt lat="43.402645780051614" lon="-4.741575623270029"><ele>55.99999999999999</ele><time>2026-05-02T07:55:39.001Z</time></trkpt><trkpt lat="43.40257514776193" lon="-4.7414946286349515"><ele>56.0</ele><time>2026-05-02T07:55:40.001Z</time></trkpt><trkpt lat="43.40251259576217" lon="-4.741403243858278"><ele>56.0</ele><time>2026-05-02T07:55:41.001Z</time></trkpt><trkpt lat="43.40246965437354" lon="-4.741296519046714"><ele>56.0</ele><time>2026-05-02T07:55:42.001Z</time></trkpt><trkpt lat="43.40244583481115" lon="-4.741170756745876"><ele>55.99999999999999</ele><time>2026-05-02T07:55:43.001Z</time></trkpt><trkpt lat="43.40248014658663" lon="-4.741051653674955"><ele>55.99999999999999</ele><time>2026-05-02T07:55:44.001Z</time></trkpt><trkpt lat="43.40242206197084" lon="-4.740910152420575"><ele>56.0</ele><time>2026-05-02T07:55:45.001Z</time></trkpt><trkpt lat="43.402378524894644" lon="-4.740790370807013"><ele>56.0</ele><time>2026-05-02T07:55:46.001Z</time></trkpt><trkpt lat="43.402313464108055" lon="-4.740675577385606"><ele>56.0</ele><time>2026-05-02T07:55:47.001Z</time></trkpt><trkpt lat="43.40224427980932" lon="-4.740568413468748"><ele>55.99999999999999</ele><time>2026-05-02T07:55:48.001Z</time></trkpt><trkpt lat="43.402177456660574" lon="-4.740454395864865"><ele>55.99999999999999</ele><time>2026-05-02T07:55:49.001Z</time></trkpt><trkpt lat="43.40210905280016" lon="-4.740341949530956"><ele>56.0</ele><time>2026-05-02T07:55:50.001Z</time></trkpt><trkpt lat="43.40204263205565" lon="-4.74022871306037"><ele>56.0</ele><time>2026-05-02T07:55:51.001Z</time></trkpt><trkpt lat="43.40197450350962" lon="-4.740113551775917"><ele>55.4</ele><time>2026-05-02T07:55:52.001Z</time></trkpt><trkpt lat="43.401909164649524" lon="-4.740001710156627"><ele>54.8</ele><time>2026-05-02T07:55:53.001Z</time></trkpt><trkpt lat="43.401842588723206" lon="-4.739887633597757"><ele>54.199999999999996</ele><time>2026-05-02T07:55:54.001Z</time></trkpt><trkpt lat="43.40177310710027" lon="-4.739771375837118"><ele>53.599999999999994</ele><time>2026-05-02T07:55:55.001Z</time></trkpt><trkpt lat="43.40170228899697" lon="-4.739658227326837"><ele>53.0</ele><time>2026-05-02T07:55:56.001Z</time></trkpt><trkpt lat="43.40163358862542" lon="-4.739542239685299"><ele>53.0</ele><time>2026-05-02T07:55:57.001Z</time></trkpt><trkpt lat="43.40156238639725" lon="-4.739422189169034"><ele>53.0</ele><time>2026-05-02T07:55:58.001Z</time></trkpt><trkpt lat="43.4014957279371" lon="-4.739307735024565"><ele>53.0</ele><time>2026-05-02T07:55:59.001Z</time></trkpt><trkpt lat="43.401427516852245" lon="-4.73919263156499"><ele>53.0</ele><time>2026-05-02T07:56:00.001Z</time></trkpt><trkpt lat="43.4013564328098" lon="-4.7390796258434476"><ele>53.0</ele><time>2026-05-02T07:56:00.999Z</time></trkpt><trkpt lat="43.40128405486009" lon="-4.738960945403642"><ele>53.0</ele><time>2026-05-02T07:56:01.999Z</time></trkpt><trkpt lat="43.40121425290703" lon="-4.738846119218793"><ele>53.0</ele><time>2026-05-02T07:56:02.999Z</time></trkpt><trkpt lat="43.401143244961816" lon="-4.738726948893676"><ele>53.0</ele><time>2026-05-02T07:56:03.999Z</time></trkpt><trkpt lat="43.401072881606325" lon="-4.738605148452827"><ele>53.0</ele><time>2026-05-02T07:56:04.999Z</time></trkpt><trkpt lat="43.40100242260322" lon="-4.73848568095293"><ele>53.0</ele><time>2026-05-02T07:56:05.999Z</time></trkpt><trkpt lat="43.40093271708168" lon="-4.73836752913742"><ele>52.8</ele><time>2026-05-02T07:56:06.999Z</time></trkpt><trkpt lat="43.40086451199919" lon="-4.738254041081782"><ele>52.599999999999994</ele><time>2026-05-02T07:56:07.999Z</time></trkpt><trkpt lat="43.400797373626105" lon="-4.738138970387846"><ele>52.400000000000006</ele><time>2026-05-02T07:56:08.999Z</time></trkpt><trkpt lat="43.40072881875264" lon="-4.738023754088407"><ele>52.2</ele><time>2026-05-02T07:56:09.999Z</time></trkpt><trkpt lat="43.40065487006647" lon="-4.737906668932816"><ele>52.0</ele><time>2026-05-02T07:56:10.999Z</time></trkpt><trkpt lat="43.40058411381813" lon="-4.737793552667989"><ele>52.2</ele><time>2026-05-02T07:56:11.999Z</time></trkpt><trkpt lat="43.40051493354041" lon="-4.737673561463899"><ele>52.400000000000006</ele><time>2026-05-02T07:56:12.999Z</time></trkpt><trkpt lat="43.40044714606813" lon="-4.737550438072053"><ele>52.599999999999994</ele><time>2026-05-02T07:56:13.999Z</time></trkpt><trkpt lat="43.40037289756193" lon="-4.737439217340226"><ele>52.8</ele><time>2026-05-02T07:56:14.999Z</time></trkpt><trkpt lat="43.40030226637397" lon="-4.737317651913183"><ele>53.0</ele><time>2026-05-02T07:56:15.999Z</time></trkpt><trkpt lat="43.40022983332765" lon="-4.737202221850976"><ele>53.0</ele><time>2026-05-02T07:56:17Z</time></trkpt><trkpt lat="43.40015869363277" lon="-4.7370886984864535"><ele>53.0</ele><time>2026-05-02T07:56:18Z</time></trkpt><trkpt lat="43.40008580828741" lon="-4.736972815923374"><ele>53.0</ele><time>2026-05-02T07:56:19Z</time></trkpt><trkpt lat="43.400016433503886" lon="-4.736854897942208"><ele>53.0</ele><time>2026-05-02T07:56:20Z</time></trkpt><trkpt lat="43.39994564369939" lon="-4.736735102917242"><ele>53.0</ele><time>2026-05-02T07:56:21Z</time></trkpt><trkpt lat="43.399875573420246" lon="-4.736621463647865"><ele>53.0</ele><time>2026-05-02T07:56:22Z</time></trkpt><trkpt lat="43.399808321777485" lon="-4.736507097116561"><ele>53.0</ele><time>2026-05-02T07:56:23Z</time></trkpt><trkpt lat="43.39973955791612" lon="-4.736389443166345"><ele>53.0</ele><time>2026-05-02T07:56:24Z</time></trkpt><trkpt lat="43.39966455497463" lon="-4.736268086406328"><ele>53.0</ele><time>2026-05-02T07:56:25Z</time></trkpt><trkpt lat="43.39959878871251" lon="-4.7361533601643435"><ele>53.0</ele><time>2026-05-02T07:56:26Z</time></trkpt><trkpt lat="43.39952577849307" lon="-4.7360338532280855"><ele>52.599999999999994</ele><time>2026-05-02T07:56:27Z</time></trkpt><trkpt lat="43.399436289494034" lon="-4.73589918988548"><ele>52.199999999999996</ele><time>2026-05-02T07:56:28Z</time></trkpt><trkpt lat="43.39938887172763" lon="-4.735803868050854"><ele>51.8</ele><time>2026-05-02T07:56:29Z</time></trkpt><trkpt lat="43.399318000620575" lon="-4.735682069135681"><ele>51.4</ele><time>2026-05-02T07:56:30Z</time></trkpt><trkpt lat="43.39924617573399" lon="-4.735563900910904"><ele>51.0</ele><time>2026-05-02T07:56:31Z</time></trkpt><trkpt lat="43.39917434875642" lon="-4.735440890149019"><ele>51.0</ele><time>2026-05-02T07:56:32Z</time></trkpt><trkpt lat="43.3991039686855" lon="-4.735323216496357"><ele>51.0</ele><time>2026-05-02T07:56:33Z</time></trkpt><trkpt lat="43.399039876488196" lon="-4.735208621324623"><ele>51.0</ele><time>2026-05-02T07:56:34Z</time></trkpt><trkpt lat="43.398967925845014" lon="-4.735085945138184"><ele>51.0</ele><time>2026-05-02T07:56:35Z</time></trkpt><trkpt lat="43.39889529437554" lon="-4.734963171891848"><ele>51.0</ele><time>2026-05-02T07:56:36Z</time></trkpt><trkpt lat="43.39882385158247" lon="-4.7348440749343546"><ele>50.5</ele><time>2026-05-02T07:56:37Z</time></trkpt><trkpt lat="43.39875357015065" lon="-4.734721355193881"><ele>50.0</ele><time>2026-05-02T07:56:38Z</time></trkpt><trkpt lat="43.398682553957975" lon="-4.734600692232711"><ele>49.5</ele><time>2026-05-02T07:56:39Z</time></trkpt><trkpt lat="43.39861316039854" lon="-4.734481379136377"><ele>49.0</ele><time>2026-05-02T07:56:40Z</time></trkpt><trkpt lat="43.39854108764765" lon="-4.734362649524536"><ele>49.0</ele><time>2026-05-02T07:56:41Z</time></trkpt><trkpt lat="43.39847138495211" lon="-4.734244428797583"><ele>49.0</ele><time>2026-05-02T07:56:42Z</time></trkpt><trkpt lat="43.398402374575774" lon="-4.734126797619696"><ele>49.0</ele><time>2026-05-02T07:56:43Z</time></trkpt><trkpt lat="43.398331394474646" lon="-4.734007929985518"><ele>49.0</ele><time>2026-05-02T07:56:44Z</time></trkpt><trkpt lat="43.398258826448725" lon="-4.73389088738953"><ele>49.0</ele><time>2026-05-02T07:56:45Z</time></trkpt><trkpt lat="43.3981911309147" lon="-4.733772221428566"><ele>49.0</ele><time>2026-05-02T07:56:46Z</time></trkpt><trkpt lat="43.39811720568093" lon="-4.73365812358862"><ele>49.0</ele><time>2026-05-02T07:56:47Z</time></trkpt><trkpt lat="43.398041544998556" lon="-4.733538765980072"><ele>49.0</ele><time>2026-05-02T07:56:48Z</time></trkpt><trkpt lat="43.39797347908216" lon="-4.733421682039083"><ele>49.0</ele><time>2026-05-02T07:56:49Z</time></trkpt><trkpt lat="43.397903433424055" lon="-4.733302987454716"><ele>49.0</ele><time>2026-05-02T07:56:50Z</time></trkpt><trkpt lat="43.397832158244526" lon="-4.733184489971722"><ele>49.0</ele><time>2026-05-02T07:56:51Z</time></trkpt><trkpt lat="43.39776058304868" lon="-4.7330675191016205"><ele>49.0</ele><time>2026-05-02T07:56:52Z</time></trkpt><trkpt lat="43.397688863506005" lon="-4.732948790709469"><ele>49.0</ele><time>2026-05-02T07:56:53Z</time></trkpt><trkpt lat="43.397615722809725" lon="-4.732832078520655"><ele>49.0</ele><time>2026-05-02T07:56:54Z</time></trkpt><trkpt lat="43.39754779107282" lon="-4.732712743175535"><ele>49.0</ele><time>2026-05-02T07:56:55Z</time></trkpt><trkpt lat="43.39747863549865" lon="-4.732596436182401"><ele>48.800000000000004</ele><time>2026-05-02T07:56:56Z</time></trkpt><trkpt lat="43.39740797262958" lon="-4.732480063769893"><ele>48.6</ele><time>2026-05-02T07:56:57Z</time></trkpt><trkpt lat="43.39733697009161" lon="-4.732362532516803"><ele>48.4</ele><time>2026-05-02T07:56:58Z</time></trkpt><trkpt lat="43.39727845377448" lon="-4.732284366762564"><ele>48.2</ele><time>2026-05-02T07:56:59Z</time></trkpt><trkpt lat="43.39720313157902" lon="-4.7321442890766265"><ele>48.0</ele><time>2026-05-02T07:57:00Z</time></trkpt><trkpt lat="43.39713134282799" lon="-4.7320244438388706"><ele>48.8</ele><time>2026-05-02T07:57:01Z</time></trkpt><trkpt lat="43.39705773455404" lon="-4.731906591548268"><ele>49.599999999999994</ele><time>2026-05-02T07:57:02Z</time></trkpt><trkpt lat="43.3969877661941" lon="-4.731787824552119"><ele>50.400000000000006</ele><time>2026-05-02T07:57:03Z</time></trkpt><trkpt lat="43.396919213360405" lon="-4.731667563650694"><ele>51.2</ele><time>2026-05-02T07:57:04Z</time></trkpt><trkpt lat="43.39685350779036" lon="-4.731548682501665"><ele>52.0</ele><time>2026-05-02T07:57:05Z</time></trkpt><trkpt lat="43.39682796965784" lon="-4.731432542495363"><ele>52.0</ele><time>2026-05-02T07:57:06Z</time></trkpt><trkpt lat="43.39681637678346" lon="-4.731305830562138"><ele>52.0</ele><time>2026-05-02T07:57:07Z</time></trkpt><trkpt lat="43.39664194425079" lon="-4.731188625341373"><ele>52.0</ele><time>2026-05-02T07:57:08Z</time></trkpt><trkpt lat="43.396573400294095" lon="-4.731074452667305"><ele>52.0</ele><time>2026-05-02T07:57:09Z</time></trkpt><trkpt lat="43.39650391838282" lon="-4.730957583548745"><ele>52.0</ele><time>2026-05-02T07:57:10Z</time></trkpt><trkpt lat="43.39643410214239" lon="-4.730840900976867"><ele>52.0</ele><time>2026-05-02T07:57:11Z</time></trkpt><trkpt lat="43.39636436994586" lon="-4.730727042771273"><ele>52.0</ele><time>2026-05-02T07:57:12Z</time></trkpt><trkpt lat="43.39629709325601" lon="-4.730613508184668"><ele>52.0</ele><time>2026-05-02T07:57:13Z</time></trkpt><trkpt lat="43.39622834605233" lon="-4.730495937901816"><ele>52.0</ele><time>2026-05-02T07:57:14Z</time></trkpt><trkpt lat="43.39616125989839" lon="-4.730382748090503"><ele>52.0</ele><time>2026-05-02T07:57:15Z</time></trkpt><trkpt lat="43.396091591973835" lon="-4.730266037226264"><ele>52.0</ele><time>2026-05-02T07:57:16Z</time></trkpt><trkpt lat="43.396022427388814" lon="-4.730150256048651"><ele>52.0</ele><time>2026-05-02T07:57:17Z</time></trkpt><trkpt lat="43.39595273668892" lon="-4.730034882616822"><ele>52.0</ele><time>2026-05-02T07:57:18Z</time></trkpt><trkpt lat="43.39588509513235" lon="-4.7299209007772385"><ele>52.0</ele><time>2026-05-02T07:57:19.001Z</time></trkpt><trkpt lat="43.395815567255724" lon="-4.729804470404043"><ele>52.6</ele><time>2026-05-02T07:57:20.001Z</time></trkpt><trkpt lat="43.39574846781785" lon="-4.729686884056216"><ele>53.2</ele><time>2026-05-02T07:57:21.001Z</time></trkpt><trkpt lat="43.39568238927592" lon="-4.729569054927616"><ele>53.8</ele><time>2026-05-02T07:57:22.001Z</time></trkpt><trkpt lat="43.395621538084264" lon="-4.729445922295978"><ele>54.4</ele><time>2026-05-02T07:57:23.001Z</time></trkpt><trkpt lat="43.39556133689453" lon="-4.729321449516876"><ele>55.0</ele><time>2026-05-02T07:57:24.001Z</time></trkpt><trkpt lat="43.395505843352055" lon="-4.729191974633448"><ele>54.8</ele><time>2026-05-02T07:57:25.001Z</time></trkpt><trkpt lat="43.39545567901782" lon="-4.729055937306792"><ele>54.6</ele><time>2026-05-02T07:57:26.001Z</time></trkpt><trkpt lat="43.39540843720153" lon="-4.7289201805970995"><ele>54.400000000000006</ele><time>2026-05-02T07:57:27.001Z</time></trkpt><trkpt lat="43.39536659184736" lon="-4.728784708258311"><ele>54.2</ele><time>2026-05-02T07:57:28.001Z</time></trkpt><trkpt lat="43.395332438561084" lon="-4.728637962206625"><ele>54.0</ele><time>2026-05-02T07:57:29.001Z</time></trkpt><trkpt lat="43.39530099555376" lon="-4.728490766061671"><ele>53.75</ele><time>2026-05-02T07:57:30.001Z</time></trkpt><trkpt lat="43.395273113913575" lon="-4.728336573719926"><ele>53.5</ele><time>2026-05-02T07:57:31.001Z</time></trkpt><trkpt lat="43.39525006859128" lon="-4.728183346122849"><ele>53.25</ele><time>2026-05-02T07:57:32.001Z</time></trkpt><trkpt lat="43.3952220430718" lon="-4.728031489296819"><ele>53.0</ele><time>2026-05-02T07:57:33.001Z</time></trkpt><trkpt lat="43.39520727755139" lon="-4.727877537642212"><ele>52.599999999999994</ele><time>2026-05-02T07:57:34.001Z</time></trkpt><trkpt lat="43.39519817382307" lon="-4.727726091538275"><ele>52.199999999999996</ele><time>2026-05-02T07:57:35.001Z</time></trkpt><trkpt lat="43.395191868131405" lon="-4.727571747556589"><ele>51.8</ele><time>2026-05-02T07:57:36.001Z</time></trkpt><trkpt lat="43.39518671037768" lon="-4.727418373097513"><ele>51.4</ele><time>2026-05-02T07:57:37.001Z</time></trkpt><trkpt lat="43.395189431143145" lon="-4.727264598707419"><ele>51.0</ele><time>2026-05-02T07:57:38.001Z</time></trkpt><trkpt lat="43.39519252636649" lon="-4.727109767841222"><ele>51.0</ele><time>2026-05-02T07:57:39.001Z</time></trkpt><trkpt lat="43.395204260528416" lon="-4.72695675519297"><ele>51.0</ele><time>2026-05-02T07:57:40.001Z</time></trkpt><trkpt lat="43.39522288537988" lon="-4.7268013804675695"><ele>51.0</ele><time>2026-05-02T07:57:41.001Z</time></trkpt><trkpt lat="43.39524094811847" lon="-4.726647968593903"><ele>51.0</ele><time>2026-05-02T07:57:42.001Z</time></trkpt><trkpt lat="43.39526499863083" lon="-4.726496535766825"><ele>51.0</ele><time>2026-05-02T07:57:43.001Z</time></trkpt><trkpt lat="43.395293449930726" lon="-4.7263428575047035"><ele>51.0</ele><time>2026-05-02T07:57:44.001Z</time></trkpt><trkpt lat="43.39532392270223" lon="-4.726193119633643"><ele>51.0</ele><time>2026-05-02T07:57:45.001Z</time></trkpt><trkpt lat="43.395355020326804" lon="-4.726041222700724"><ele>51.0</ele><time>2026-05-02T07:57:46.001Z</time></trkpt><trkpt lat="43.39538380296618" lon="-4.725889217993129"><ele>51.0</ele><time>2026-05-02T07:57:47.001Z</time></trkpt><trkpt lat="43.39541019481162" lon="-4.7257354917426655"><ele>51.0</ele><time>2026-05-02T07:57:48.001Z</time></trkpt><trkpt lat="43.395445079497215" lon="-4.725581857391398"><ele>51.0</ele><time>2026-05-02T07:57:49.001Z</time></trkpt><trkpt lat="43.395470278806215" lon="-4.725430407200913"><ele>51.0</ele><time>2026-05-02T07:57:50.001Z</time></trkpt><trkpt lat="43.395503059315516" lon="-4.725276765801794"><ele>50.0</ele><time>2026-05-02T07:57:51.001Z</time></trkpt><trkpt lat="43.39554264699674" lon="-4.7251244139241875"><ele>49.0</ele><time>2026-05-02T07:57:52.001Z</time></trkpt><trkpt lat="43.39556700251282" lon="-4.724972026568235"><ele>48.0</ele><time>2026-05-02T07:57:53.001Z</time></trkpt><trkpt lat="43.39559605944606" lon="-4.724816614970741"><ele>47.0</ele><time>2026-05-02T07:57:54.001Z</time></trkpt><trkpt lat="43.39562786868928" lon="-4.724665196877111"><ele>47.0</ele><time>2026-05-02T07:57:55.001Z</time></trkpt><trkpt lat="43.395659854008514" lon="-4.7245117900597675"><ele>47.0</ele><time>2026-05-02T07:57:56.001Z</time></trkpt><trkpt lat="43.39568810025999" lon="-4.724357368924908"><ele>47.0</ele><time>2026-05-02T07:57:57.001Z</time></trkpt><trkpt lat="43.39572159470346" lon="-4.724204913318214"><ele>47.0</ele><time>2026-05-02T07:57:58.001Z</time></trkpt><trkpt lat="43.395746286685636" lon="-4.724049392499911"><ele>46.5</ele><time>2026-05-02T07:57:59.001Z</time></trkpt><trkpt lat="43.39577984653254" lon="-4.723897454544886"><ele>46.0</ele><time>2026-05-02T07:58:00.001Z</time></trkpt><trkpt lat="43.39580860136864" lon="-4.7237412104276"><ele>45.5</ele><time>2026-05-02T07:58:01.001Z</time></trkpt><trkpt lat="43.39583814771818" lon="-4.72358749485241"><ele>45.0</ele><time>2026-05-02T07:58:02.001Z</time></trkpt><trkpt lat="43.395868647565926" lon="-4.72343280130773"><ele>44.75</ele><time>2026-05-02T07:58:03.001Z</time></trkpt><trkpt lat="43.39589929331488" lon="-4.723279904738973"><ele>44.5</ele><time>2026-05-02T07:58:04.001Z</time></trkpt><trkpt lat="43.395928539460826" lon="-4.723123225343693"><ele>44.25</ele><time>2026-05-02T07:58:05.001Z</time></trkpt><trkpt lat="43.39596080084599" lon="-4.722965484133202"><ele>44.0</ele><time>2026-05-02T07:58:06.001Z</time></trkpt><trkpt lat="43.395990718947154" lon="-4.722809951675545"><ele>43.75</ele><time>2026-05-02T07:58:07Z</time></trkpt><trkpt lat="43.396016881105886" lon="-4.72265344317661"><ele>43.5</ele><time>2026-05-02T07:58:08Z</time></trkpt><trkpt lat="43.396052609207494" lon="-4.722501762810491"><ele>43.25</ele><time>2026-05-02T07:58:09Z</time></trkpt><trkpt lat="43.39608347355061" lon="-4.722349916315983"><ele>43.0</ele><time>2026-05-02T07:58:10Z</time></trkpt><trkpt lat="43.39611030795451" lon="-4.722191208596839"><ele>43.0</ele><time>2026-05-02T07:58:11Z</time></trkpt><trkpt lat="43.396141130877105" lon="-4.722030580577514"><ele>43.0</ele><time>2026-05-02T07:58:12Z</time></trkpt><trkpt lat="43.3961729000118" lon="-4.721877571341619"><ele>43.0</ele><time>2026-05-02T07:58:13Z</time></trkpt><trkpt lat="43.396206147449966" lon="-4.721721511011166"><ele>43.0</ele><time>2026-05-02T07:58:14Z</time></trkpt><trkpt lat="43.39623491481481" lon="-4.721562914627693"><ele>43.0</ele><time>2026-05-02T07:58:15Z</time></trkpt><trkpt lat="43.396265186951126" lon="-4.72140484326608"><ele>43.0</ele><time>2026-05-02T07:58:16Z</time></trkpt><trkpt lat="43.39629874203578" lon="-4.721251140699541"><ele>43.0</ele><time>2026-05-02T07:58:17Z</time></trkpt><trkpt lat="43.396323631560364" lon="-4.721090808287593"><ele>43.0</ele><time>2026-05-02T07:58:18Z</time></trkpt><trkpt lat="43.39635839111499" lon="-4.720937904568833"><ele>42.25</ele><time>2026-05-02T07:58:19Z</time></trkpt><trkpt lat="43.39638571541627" lon="-4.720779970445509"><ele>41.5</ele><time>2026-05-02T07:58:20Z</time></trkpt><trkpt lat="43.396417947062595" lon="-4.7206253679136125"><ele>40.75</ele><time>2026-05-02T07:58:21Z</time></trkpt><trkpt lat="43.396447388707806" lon="-4.720469285944297"><ele>40.0</ele><time>2026-05-02T07:58:22Z</time></trkpt><trkpt lat="43.39647658540256" lon="-4.720312989018479"><ele>40.0</ele><time>2026-05-02T07:58:23Z</time></trkpt><trkpt lat="43.396507426811475" lon="-4.7201597971496545"><ele>40.0</ele><time>2026-05-02T07:58:24Z</time></trkpt><trkpt lat="43.396539247642025" lon="-4.720004343085844"><ele>40.0</ele><time>2026-05-02T07:58:25Z</time></trkpt><trkpt lat="43.396570948313254" lon="-4.71985354898891"><ele>40.0</ele><time>2026-05-02T07:58:26Z</time></trkpt><trkpt lat="43.39660161578912" lon="-4.719694249022979"><ele>40.0</ele><time>2026-05-02T07:58:27Z</time></trkpt><trkpt lat="43.396633054132515" lon="-4.719536986364492"><ele>40.0</ele><time>2026-05-02T07:58:28Z</time></trkpt><trkpt lat="43.39666231668453" lon="-4.719381584908238"><ele>40.0</ele><time>2026-05-02T07:58:29Z</time></trkpt><trkpt lat="43.396693679721885" lon="-4.719224734881305"><ele>40.0</ele><time>2026-05-02T07:58:30Z</time></trkpt><trkpt lat="43.39672338249828" lon="-4.7190685016642755"><ele>40.0</ele><time>2026-05-02T07:58:31Z</time></trkpt><trkpt lat="43.396755618612715" lon="-4.718910744271073"><ele>40.0</ele><time>2026-05-02T07:58:32Z</time></trkpt><trkpt lat="43.39678660538078" lon="-4.718752496692474"><ele>40.0</ele><time>2026-05-02T07:58:33Z</time></trkpt><trkpt lat="43.39682208035507" lon="-4.718597210241287"><ele>40.0</ele><time>2026-05-02T07:58:34Z</time></trkpt><trkpt lat="43.39684924822494" lon="-4.718437422144702"><ele>39.8</ele><time>2026-05-02T07:58:35Z</time></trkpt><trkpt lat="43.396878778701044" lon="-4.718282638382353"><ele>39.6</ele><time>2026-05-02T07:58:36Z</time></trkpt><trkpt lat="43.39691403061918" lon="-4.718131024022591"><ele>39.4</ele><time>2026-05-02T07:58:37Z</time></trkpt><trkpt lat="43.39694200075415" lon="-4.717991046552271"><ele>39.2</ele><time>2026-05-02T07:58:38Z</time></trkpt><trkpt lat="43.396958585655156" lon="-4.71785954711337"><ele>39.0</ele><time>2026-05-02T07:58:39Z</time></trkpt><trkpt lat="43.396989118263164" lon="-4.717723537730486"><ele>38.6</ele><time>2026-05-02T07:58:40Z</time></trkpt><trkpt lat="43.397010547677894" lon="-4.71758983051016"><ele>38.2</ele><time>2026-05-02T07:58:41Z</time></trkpt><trkpt lat="43.39703557102046" lon="-4.717458570392892"><ele>37.800000000000004</ele><time>2026-05-02T07:58:42Z</time></trkpt><trkpt lat="43.39705988544908" lon="-4.717339189861496"><ele>37.4</ele><time>2026-05-02T07:58:43Z</time></trkpt><trkpt lat="43.3970747277359" lon="-4.717220699446193"><ele>37.0</ele><time>2026-05-02T07:58:44Z</time></trkpt><trkpt lat="43.39707905085319" lon="-4.717101085004948"><ele>37.0</ele><time>2026-05-02T07:58:45Z</time></trkpt><trkpt lat="43.397071514893305" lon="-4.716975504708516"><ele>37.0</ele><time>2026-05-02T07:58:46Z</time></trkpt><trkpt lat="43.39706522544995" lon="-4.716855680643319"><ele>37.0</ele><time>2026-05-02T07:58:47Z</time></trkpt><trkpt lat="43.397077484902766" lon="-4.7167258423509395"><ele>37.0</ele><time>2026-05-02T07:58:48Z</time></trkpt><trkpt lat="43.397113736000925" lon="-4.716604094412499"><ele>37.0</ele><time>2026-05-02T07:58:49Z</time></trkpt><trkpt lat="43.39716781443951" lon="-4.716486153798164"><ele>36.4</ele><time>2026-05-02T07:58:50Z</time></trkpt><trkpt lat="43.39722605656433" lon="-4.716374817696503"><ele>35.800000000000004</ele><time>2026-05-02T07:58:51Z</time></trkpt><trkpt lat="43.397272559106355" lon="-4.716246266841522"><ele>35.2</ele><time>2026-05-02T07:58:52Z</time></trkpt><trkpt lat="43.397301847871574" lon="-4.716109912051685"><ele>34.6</ele><time>2026-05-02T07:58:53Z</time></trkpt><trkpt lat="43.397327445868605" lon="-4.715967738488243"><ele>34.0</ele><time>2026-05-02T07:58:54Z</time></trkpt><trkpt lat="43.39735004867131" lon="-4.715823819984489"><ele>34.0</ele><time>2026-05-02T07:58:55Z</time></trkpt><trkpt lat="43.39737521500631" lon="-4.715666771806596"><ele>34.0</ele><time>2026-05-02T07:58:56Z</time></trkpt><trkpt lat="43.39739856769829" lon="-4.715532181627662"><ele>34.0</ele><time>2026-05-02T07:58:57Z</time></trkpt><trkpt lat="43.39742818090504" lon="-4.7153894991982375"><ele>34.0</ele><time>2026-05-02T07:58:58Z</time></trkpt><trkpt lat="43.39745390425776" lon="-4.7152391744230195"><ele>34.0</ele><time>2026-05-02T07:58:59Z</time></trkpt><trkpt lat="43.39748520056497" lon="-4.715089437426683"><ele>34.0</ele><time>2026-05-02T07:59:00Z</time></trkpt><trkpt lat="43.397510976297205" lon="-4.714942653256503"><ele>34.0</ele><time>2026-05-02T07:59:01Z</time></trkpt><trkpt lat="43.39753457652577" lon="-4.71479311741453"><ele>34.0</ele><time>2026-05-02T07:59:02Z</time></trkpt><trkpt lat="43.39755927693436" lon="-4.714642659674602"><ele>34.0</ele><time>2026-05-02T07:59:03Z</time></trkpt><trkpt lat="43.397578605571404" lon="-4.714496986913512"><ele>34.0</ele><time>2026-05-02T07:59:04Z</time></trkpt><trkpt lat="43.397601219488834" lon="-4.714344057505851"><ele>34.0</ele><time>2026-05-02T07:59:05Z</time></trkpt><trkpt lat="43.39762383231585" lon="-4.714190689601309"><ele>34.0</ele><time>2026-05-02T07:59:06Z</time></trkpt><trkpt lat="43.39764895465127" lon="-4.714037894219999"><ele>34.0</ele><time>2026-05-02T07:59:07Z</time></trkpt><trkpt lat="43.397669540457905" lon="-4.713884191737306"><ele>34.0</ele><time>2026-05-02T07:59:08.001Z</time></trkpt><trkpt lat="43.39769415272081" lon="-4.713733136425532"><ele>34.0</ele><time>2026-05-02T07:59:09.001Z</time></trkpt><trkpt lat="43.39771830351302" lon="-4.713580415975182"><ele>34.0</ele><time>2026-05-02T07:59:10.001Z</time></trkpt><trkpt lat="43.39774188941744" lon="-4.713424260359347"><ele>34.0</ele><time>2026-05-02T07:59:11.001Z</time></trkpt><trkpt lat="43.39775989943696" lon="-4.713269858073644"><ele>34.0</ele><time>2026-05-02T07:59:12.001Z</time></trkpt><trkpt lat="43.397780651500916" lon="-4.713114591328817"><ele>33.5</ele><time>2026-05-02T07:59:13.001Z</time></trkpt><trkpt lat="43.39780268678274" lon="-4.712962286817316"><ele>33.0</ele><time>2026-05-02T07:59:14.001Z</time></trkpt><trkpt lat="43.397827625287995" lon="-4.71280494388137"><ele>32.5</ele><time>2026-05-02T07:59:15.001Z</time></trkpt><trkpt lat="43.39784925712082" lon="-4.712651965975876"><ele>32.0</ele><time>2026-05-02T07:59:16.001Z</time></trkpt><trkpt lat="43.39787073122864" lon="-4.712496745107224"><ele>31.25</ele><time>2026-05-02T07:59:17.001Z</time></trkpt><trkpt lat="43.39789492036279" lon="-4.712341985708079"><ele>30.5</ele><time>2026-05-02T07:59:18.001Z</time></trkpt><trkpt lat="43.397918166302475" lon="-4.712187787196325"><ele>29.75</ele><time>2026-05-02T07:59:19.001Z</time></trkpt><trkpt lat="43.39794421036322" lon="-4.712037576070608"><ele>29.0</ele><time>2026-05-02T07:59:20.001Z</time></trkpt><trkpt lat="43.39796751205207" lon="-4.711882012381047"><ele>28.75</ele><time>2026-05-02T07:59:21.001Z</time></trkpt><trkpt lat="43.397990352690215" lon="-4.711731329366342"><ele>28.5</ele><time>2026-05-02T07:59:22.001Z</time></trkpt><trkpt lat="43.39802040834709" lon="-4.71157670442226"><ele>28.25</ele><time>2026-05-02T07:59:23.001Z</time></trkpt><trkpt lat="43.39804866334991" lon="-4.711427352373706"><ele>28.0</ele><time>2026-05-02T07:59:24.001Z</time></trkpt><trkpt lat="43.398077817674725" lon="-4.711276494511021"><ele>28.0</ele><time>2026-05-02T07:59:25.001Z</time></trkpt><trkpt lat="43.39811048194537" lon="-4.711126184802492"><ele>28.0</ele><time>2026-05-02T07:59:26.001Z</time></trkpt><trkpt lat="43.39814114706756" lon="-4.710977859243341"><ele>28.0</ele><time>2026-05-02T07:59:27.001Z</time></trkpt><trkpt lat="43.398174376970196" lon="-4.710828646970845"><ele>28.0</ele><time>2026-05-02T07:59:28.001Z</time></trkpt><trkpt lat="43.39821049979471" lon="-4.710680195211994"><ele>27.75</ele><time>2026-05-02T07:59:29.001Z</time></trkpt><trkpt lat="43.39824633151927" lon="-4.710531732291352"><ele>27.5</ele><time>2026-05-02T07:59:30.001Z</time></trkpt><trkpt lat="43.39828188981739" lon="-4.710383230851536"><ele>27.25</ele><time>2026-05-02T07:59:31.001Z</time></trkpt><trkpt lat="43.39832013705624" lon="-4.7102374473147535"><ele>27.0</ele><time>2026-05-02T07:59:32.001Z</time></trkpt><trkpt lat="43.39835872853934" lon="-4.710089255655846"><ele>26.0</ele><time>2026-05-02T07:59:33.001Z</time></trkpt><trkpt lat="43.39839799555328" lon="-4.7099454402630885"><ele>25.0</ele><time>2026-05-02T07:59:34.001Z</time></trkpt><trkpt lat="43.39843666482553" lon="-4.709796012143372"><ele>24.0</ele><time>2026-05-02T07:59:35.001Z</time></trkpt><trkpt lat="43.39847605323226" lon="-4.709653307318635"><ele>23.0</ele><time>2026-05-02T07:59:36.001Z</time></trkpt><trkpt lat="43.39851337565804" lon="-4.709506715596768"><ele>22.75</ele><time>2026-05-02T07:59:37.001Z</time></trkpt><trkpt lat="43.39854910462706" lon="-4.709359193216832"><ele>22.5</ele><time>2026-05-02T07:59:38.001Z</time></trkpt><trkpt lat="43.39859117418238" lon="-4.709213710606006"><ele>22.25</ele><time>2026-05-02T07:59:39.001Z</time></trkpt><trkpt lat="43.39862979850049" lon="-4.70906874405026"><ele>22.0</ele><time>2026-05-02T07:59:40.001Z</time></trkpt><trkpt lat="43.39866790465481" lon="-4.7089205130177705"><ele>22.0</ele><time>2026-05-02T07:59:41.001Z</time></trkpt><trkpt lat="43.39870542289135" lon="-4.708776675353399"><ele>22.0</ele><time>2026-05-02T07:59:42.001Z</time></trkpt><trkpt lat="43.398745244375334" lon="-4.708626867846651"><ele>22.0</ele><time>2026-05-02T07:59:43.001Z</time></trkpt><trkpt lat="43.39878176139027" lon="-4.708484644709289"><ele>22.0</ele><time>2026-05-02T07:59:44.001Z</time></trkpt><trkpt lat="43.398818595109155" lon="-4.7083395460388155"><ele>22.0</ele><time>2026-05-02T07:59:45.001Z</time></trkpt><trkpt lat="43.398857787563536" lon="-4.70819263408428"><ele>23.0</ele><time>2026-05-02T07:59:46.001Z</time></trkpt><trkpt lat="43.398898602164074" lon="-4.708043577884633"><ele>24.0</ele><time>2026-05-02T07:59:47.001Z</time></trkpt><trkpt lat="43.398926132076504" lon="-4.707897659211712"><ele>25.0</ele><time>2026-05-02T07:59:48.001Z</time></trkpt><trkpt lat="43.398962132334105" lon="-4.707751189520746"><ele>26.0</ele><time>2026-05-02T07:59:49.001Z</time></trkpt><trkpt lat="43.39898255020669" lon="-4.707599367660789"><ele>26.0</ele><time>2026-05-02T07:59:50.001Z</time></trkpt><trkpt lat="43.399005819379155" lon="-4.707450977020026"><ele>26.0</ele><time>2026-05-02T07:59:51.001Z</time></trkpt><trkpt lat="43.39901424032428" lon="-4.707301426763065"><ele>26.0</ele><time>2026-05-02T07:59:52.001Z</time></trkpt><trkpt lat="43.39902588112792" lon="-4.7071486137980605"><ele>26.0</ele><time>2026-05-02T07:59:53.001Z</time></trkpt><trkpt lat="43.399030297729176" lon="-4.707000024925199"><ele>26.0</ele><time>2026-05-02T07:59:54.001Z</time></trkpt><trkpt lat="43.39902815929661" lon="-4.706844060405654"><ele>25.200000000000003</ele><time>2026-05-02T07:59:55.001Z</time></trkpt><trkpt lat="43.3990280869106" lon="-4.706694615402536"><ele>24.400000000000002</ele><time>2026-05-02T07:59:56.001Z</time></trkpt><trkpt lat="43.399022750918995" lon="-4.706533040392904"><ele>23.6</ele><time>2026-05-02T07:59:57.001Z</time></trkpt><trkpt lat="43.399020036731805" lon="-4.706408792601007"><ele>22.8</ele><time>2026-05-02T07:59:58.001Z</time></trkpt><trkpt lat="43.399014002928546" lon="-4.706254426554883"><ele>22.0</ele><time>2026-05-02T07:59:59.001Z</time></trkpt><trkpt lat="43.3990022405824" lon="-4.706105104675152"><ele>22.0</ele><time>2026-05-02T08:00:00.001Z</time></trkpt><trkpt lat="43.39899168261067" lon="-4.70596943440864"><ele>22.0</ele><time>2026-05-02T08:00:01.001Z</time></trkpt><trkpt lat="43.39898692811649" lon="-4.705789866123321"><ele>22.0</ele><time>2026-05-02T08:00:02.001Z</time></trkpt><trkpt lat="43.398980714951634" lon="-4.705640195556746"><ele>22.0</ele><time>2026-05-02T08:00:03.001Z</time></trkpt><trkpt lat="43.39897797974449" lon="-4.705492238957842"><ele>22.0</ele><time>2026-05-02T08:00:04.001Z</time></trkpt><trkpt lat="43.39897321255024" lon="-4.705341054981126"><ele>23.0</ele><time>2026-05-02T08:00:05.001Z</time></trkpt><trkpt lat="43.39896127460035" lon="-4.705194994165745"><ele>24.0</ele><time>2026-05-02T08:00:06.001Z</time></trkpt><trkpt lat="43.39895590161391" lon="-4.705042477122345"><ele>25.000000000000004</ele><time>2026-05-02T08:00:07.001Z</time></trkpt><trkpt lat="43.398950450121916" lon="-4.704887731523833"><ele>26.0</ele><time>2026-05-02T08:00:08.001Z</time></trkpt><trkpt lat="43.39896159954322" lon="-4.704736467501434"><ele>27.0</ele><time>2026-05-02T08:00:09.001Z</time></trkpt><trkpt lat="43.398956122529086" lon="-4.704585953012014"><ele>27.0</ele><time>2026-05-02T08:00:10.001Z</time></trkpt><trkpt lat="43.39893458844415" lon="-4.704437483382421"><ele>27.000000000000004</ele><time>2026-05-02T08:00:11.001Z</time></trkpt><trkpt lat="43.39892917460249" lon="-4.704283806529661"><ele>27.000000000000004</ele><time>2026-05-02T08:00:12.001Z</time></trkpt><trkpt lat="43.39892385187486" lon="-4.704132716075058"><ele>27.0</ele><time>2026-05-02T08:00:13Z</time></trkpt><trkpt lat="43.39891832879248" lon="-4.70397843545477"><ele>27.0</ele><time>2026-05-02T08:00:14Z</time></trkpt><trkpt lat="43.39891173772104" lon="-4.703828422725856"><ele>27.6</ele><time>2026-05-02T08:00:15Z</time></trkpt><trkpt lat="43.39890498480634" lon="-4.7036747263678205"><ele>28.200000000000003</ele><time>2026-05-02T08:00:16Z</time></trkpt><trkpt lat="43.39889669603517" lon="-4.703525539783636"><ele>28.8</ele><time>2026-05-02T08:00:17Z</time></trkpt><trkpt lat="43.398883115227775" lon="-4.703377916028435"><ele>29.4</ele><time>2026-05-02T08:00:18Z</time></trkpt><trkpt lat="43.39885975483843" lon="-4.703239676222693"><ele>30.0</ele><time>2026-05-02T08:00:19Z</time></trkpt><trkpt lat="43.39882685297304" lon="-4.703093902151235"><ele>27.2</ele><time>2026-05-02T08:00:20Z</time></trkpt><trkpt lat="43.39878816746078" lon="-4.70295382664052"><ele>24.4</ele><time>2026-05-02T08:00:21Z</time></trkpt><trkpt lat="43.3987438015631" lon="-4.702819216186346"><ele>21.6</ele><time>2026-05-02T08:00:22Z</time></trkpt><trkpt lat="43.39869579506441" lon="-4.702683818229215"><ele>18.8</ele><time>2026-05-02T08:00:23Z</time></trkpt><trkpt lat="43.39864632756537" lon="-4.702546741492786"><ele>16.0</ele><time>2026-05-02T08:00:24Z</time></trkpt><trkpt lat="43.39860052104831" lon="-4.702411894261166"><ele>16.0</ele><time>2026-05-02T08:00:25Z</time></trkpt><trkpt lat="43.398554330895436" lon="-4.702275016668367"><ele>16.0</ele><time>2026-05-02T08:00:26Z</time></trkpt><trkpt lat="43.398508752317035" lon="-4.70213514388036"><ele>16.0</ele><time>2026-05-02T08:00:27Z</time></trkpt><trkpt lat="43.39846690585146" lon="-4.7019916651072755"><ele>16.0</ele><time>2026-05-02T08:00:28Z</time></trkpt><trkpt lat="43.39842845835217" lon="-4.7018397733577615"><ele>16.2</ele><time>2026-05-02T08:00:29Z</time></trkpt><trkpt lat="43.39840906850236" lon="-4.701689388982016"><ele>16.400000000000002</ele><time>2026-05-02T08:00:30Z</time></trkpt><trkpt lat="43.398378396402926" lon="-4.701542549721736"><ele>16.6</ele><time>2026-05-02T08:00:31Z</time></trkpt><trkpt lat="43.3983511830682" lon="-4.701396410507962"><ele>16.8</ele><time>2026-05-02T08:00:32Z</time></trkpt><trkpt lat="43.39833349105287" lon="-4.7012473298561"><ele>17.0</ele><time>2026-05-02T08:00:33Z</time></trkpt><trkpt lat="43.398323559751674" lon="-4.7010930995606435"><ele>16.8</ele><time>2026-05-02T08:00:34Z</time></trkpt><trkpt lat="43.39831837363749" lon="-4.700946271843193"><ele>16.6</ele><time>2026-05-02T08:00:35Z</time></trkpt><trkpt lat="43.398322279122176" lon="-4.700798328938261"><ele>16.400000000000002</ele><time>2026-05-02T08:00:36Z</time></trkpt><trkpt lat="43.398330073674515" lon="-4.7006490903672375"><ele>16.2</ele><time>2026-05-02T08:00:37Z</time></trkpt><trkpt lat="43.39833911385347" lon="-4.700496645307039"><ele>16.0</ele><time>2026-05-02T08:00:38Z</time></trkpt><trkpt lat="43.39833210167123" lon="-4.700319451359495"><ele>15.0</ele><time>2026-05-02T08:00:39Z</time></trkpt><trkpt lat="43.39836092659534" lon="-4.700180132743194"><ele>14.000000000000002</ele><time>2026-05-02T08:00:40Z</time></trkpt><trkpt lat="43.39838627996657" lon="-4.700037235722404"><ele>13.0</ele><time>2026-05-02T08:00:41Z</time></trkpt><trkpt lat="43.39841694516972" lon="-4.69989365570087"><ele>12.0</ele><time>2026-05-02T08:00:42Z</time></trkpt><trkpt lat="43.39845047786262" lon="-4.699752238386034"><ele>11.0</ele><time>2026-05-02T08:00:43Z</time></trkpt><trkpt lat="43.39848383301379" lon="-4.69961322234895"><ele>11.0</ele><time>2026-05-02T08:00:44Z</time></trkpt><trkpt lat="43.39853843183" lon="-4.699474623338854"><ele>11.0</ele><time>2026-05-02T08:00:45Z</time></trkpt><trkpt lat="43.398562929260095" lon="-4.699364177465745"><ele>11.0</ele><time>2026-05-02T08:00:46Z</time></trkpt><trkpt lat="43.39860042235851" lon="-4.699213192961886"><ele>11.0</ele><time>2026-05-02T08:00:47Z</time></trkpt><trkpt lat="43.39863441096412" lon="-4.699075750549264"><ele>11.0</ele><time>2026-05-02T08:00:48Z</time></trkpt><trkpt lat="43.39866703658656" lon="-4.698934129659372"><ele>10.600000000000001</ele><time>2026-05-02T08:00:49Z</time></trkpt><trkpt lat="43.39869851548996" lon="-4.69879748635672"><ele>10.200000000000001</ele><time>2026-05-02T08:00:50Z</time></trkpt><trkpt lat="43.39872951784026" lon="-4.698655571136478"><ele>9.8</ele><time>2026-05-02T08:00:51Z</time></trkpt><trkpt lat="43.39875727831649" lon="-4.698520169675753"><ele>9.4</ele><time>2026-05-02T08:00:52Z</time></trkpt><trkpt lat="43.39877846085694" lon="-4.698388381841101"><ele>9.0</ele><time>2026-05-02T08:00:53Z</time></trkpt><trkpt lat="43.3988021064239" lon="-4.698251003632815"><ele>10.6</ele><time>2026-05-02T08:00:54Z</time></trkpt><trkpt lat="43.398819635963484" lon="-4.698113811311962"><ele>12.2</ele><time>2026-05-02T08:00:55Z</time></trkpt><trkpt lat="43.39883238175548" lon="-4.697974826466387"><ele>13.799999999999999</ele><time>2026-05-02T08:00:56Z</time></trkpt><trkpt lat="43.39883982250561" lon="-4.697834505767512"><ele>15.4</ele><time>2026-05-02T08:00:57Z</time></trkpt><trkpt lat="43.398842694254334" lon="-4.697694543110733"><ele>17.0</ele><time>2026-05-02T08:00:58Z</time></trkpt><trkpt lat="43.398846817865625" lon="-4.697556435584135"><ele>19.0</ele><time>2026-05-02T08:00:59Z</time></trkpt><trkpt lat="43.39884939432562" lon="-4.697415614873493"><ele>21.0</ele><time>2026-05-02T08:01:00Z</time></trkpt><trkpt lat="43.39884183410337" lon="-4.697277775333549"><ele>23.000000000000004</ele><time>2026-05-02T08:01:01Z</time></trkpt><trkpt lat="43.39883082337702" lon="-4.697139874372781"><ele>25.0</ele><time>2026-05-02T08:01:02Z</time></trkpt><trkpt lat="43.398814259564006" lon="-4.6969996923627875"><ele>27.0</ele><time>2026-05-02T08:01:03Z</time></trkpt><trkpt lat="43.398796942770986" lon="-4.696863142226845"><ele>27.8</ele><time>2026-05-02T08:01:04Z</time></trkpt><trkpt lat="43.39877400394599" lon="-4.6967241192809155"><ele>28.6</ele><time>2026-05-02T08:01:05.001Z</time></trkpt><trkpt lat="43.398747225062785" lon="-4.696589234659995"><ele>29.400000000000002</ele><time>2026-05-02T08:01:06.001Z</time></trkpt><trkpt lat="43.398710931210886" lon="-4.696459470896252"><ele>30.200000000000003</ele><time>2026-05-02T08:01:07.001Z</time></trkpt><trkpt lat="43.39867557443454" lon="-4.69632847340173"><ele>31.0</ele><time>2026-05-02T08:01:08.001Z</time></trkpt><trkpt lat="43.39863743220876" lon="-4.696201026049444"><ele>30.8</ele><time>2026-05-02T08:01:09.001Z</time></trkpt><trkpt lat="43.3985967732212" lon="-4.696073784511328"><ele>30.6</ele><time>2026-05-02T08:01:10.001Z</time></trkpt><trkpt lat="43.39854761005913" lon="-4.695949384712183"><ele>30.4</ele><time>2026-05-02T08:01:11.001Z</time></trkpt><trkpt lat="43.39850028128417" lon="-4.695827362204854"><ele>30.2</ele><time>2026-05-02T08:01:12.001Z</time></trkpt><trkpt lat="43.398448548449835" lon="-4.695706927514796"><ele>30.0</ele><time>2026-05-02T08:01:13.001Z</time></trkpt><trkpt lat="43.39839175442183" lon="-4.695587542210933"><ele>30.0</ele><time>2026-05-02T08:01:14.001Z</time></trkpt><trkpt lat="43.39832939726209" lon="-4.695476012571114"><ele>30.0</ele><time>2026-05-02T08:01:15.001Z</time></trkpt><trkpt lat="43.39826948663043" lon="-4.6953648686618905"><ele>30.0</ele><time>2026-05-02T08:01:16.001Z</time></trkpt><trkpt lat="43.39820183779408" lon="-4.6952585003951866"><ele>30.0</ele><time>2026-05-02T08:01:17.001Z</time></trkpt><trkpt lat="43.398137220477224" lon="-4.695153859334761"><ele>30.0</ele><time>2026-05-02T08:01:18.001Z</time></trkpt><trkpt lat="43.398069192248556" lon="-4.6950486627761014"><ele>29.2</ele><time>2026-05-02T08:01:19.001Z</time></trkpt><trkpt lat="43.3980035506521" lon="-4.694946983809874"><ele>28.4</ele><time>2026-05-02T08:01:20.001Z</time></trkpt><trkpt lat="43.39793121976351" lon="-4.6948472780002914"><ele>27.6</ele><time>2026-05-02T08:01:21.001Z</time></trkpt><trkpt lat="43.39786203735938" lon="-4.694748761716341"><ele>26.8</ele><time>2026-05-02T08:01:22.001Z</time></trkpt><trkpt lat="43.3977908081025" lon="-4.694649760352113"><ele>26.0</ele><time>2026-05-02T08:01:23.001Z</time></trkpt><trkpt lat="43.39772411446478" lon="-4.694550582409648"><ele>28.0</ele><time>2026-05-02T08:01:24.001Z</time></trkpt><trkpt lat="43.39765115349855" lon="-4.6944500641984"><ele>30.0</ele><time>2026-05-02T08:01:25.001Z</time></trkpt><trkpt lat="43.397580568081764" lon="-4.694350130662885"><ele>32.0</ele><time>2026-05-02T08:01:26.001Z</time></trkpt><trkpt lat="43.39751186187269" lon="-4.694244147500535"><ele>34.0</ele><time>2026-05-02T08:01:27.001Z</time></trkpt><trkpt lat="43.39744031395781" lon="-4.694142714249049"><ele>36.0</ele><time>2026-05-02T08:01:28.001Z</time></trkpt><trkpt lat="43.39737874610316" lon="-4.694029352193428"><ele>36.0</ele><time>2026-05-02T08:01:29.001Z</time></trkpt><trkpt lat="43.39731780319554" lon="-4.693916913040595"><ele>36.0</ele><time>2026-05-02T08:01:30.001Z</time></trkpt><trkpt lat="43.39726055592279" lon="-4.693802743608267"><ele>36.0</ele><time>2026-05-02T08:01:31.001Z</time></trkpt><trkpt lat="43.39720866658155" lon="-4.693683743803357"><ele>36.0</ele><time>2026-05-02T08:01:32.001Z</time></trkpt><trkpt lat="43.39715682968343" lon="-4.693562274121147"><ele>36.0</ele><time>2026-05-02T08:01:33.001Z</time></trkpt><trkpt lat="43.39710834908977" lon="-4.693438141950107"><ele>37.8</ele><time>2026-05-02T08:01:34.001Z</time></trkpt><trkpt lat="43.39706395565026" lon="-4.6933130618118115"><ele>39.6</ele><time>2026-05-02T08:01:35.001Z</time></trkpt><trkpt lat="43.39702890959949" lon="-4.693181373222208"><ele>41.4</ele><time>2026-05-02T08:01:36.001Z</time></trkpt><trkpt lat="43.396995872018245" lon="-4.6930540892268535"><ele>43.2</ele><time>2026-05-02T08:01:37.001Z</time></trkpt><trkpt lat="43.396964971487" lon="-4.692925531653838"><ele>45.0</ele><time>2026-05-02T08:01:38.001Z</time></trkpt><trkpt lat="43.39693912510304" lon="-4.692795603155826"><ele>45.0</ele><time>2026-05-02T08:01:39.001Z</time></trkpt><trkpt lat="43.39691763453201" lon="-4.692662095120783"><ele>45.0</ele><time>2026-05-02T08:01:40.001Z</time></trkpt><trkpt lat="43.396898755320926" lon="-4.692530909881378"><ele>45.0</ele><time>2026-05-02T08:01:41.001Z</time></trkpt><trkpt lat="43.396880007445155" lon="-4.692406496771431"><ele>45.0</ele><time>2026-05-02T08:01:42.001Z</time></trkpt><trkpt lat="43.39686707860798" lon="-4.692272067131783"><ele>45.0</ele><time>2026-05-02T08:01:43.001Z</time></trkpt><trkpt lat="43.39685963280571" lon="-4.692143811779382"><ele>45.0</ele><time>2026-05-02T08:01:44.001Z</time></trkpt><trkpt lat="43.39685037734326" lon="-4.692009180707769"><ele>45.0</ele><time>2026-05-02T08:01:45.001Z</time></trkpt><trkpt lat="43.396850093321774" lon="-4.6918826321827325"><ele>45.0</ele><time>2026-05-02T08:01:46.001Z</time></trkpt><trkpt lat="43.39685121198318" lon="-4.6917481295827645"><ele>45.0</ele><time>2026-05-02T08:01:47.001Z</time></trkpt><trkpt lat="43.39685589615381" lon="-4.691620506691586"><ele>45.0</ele><time>2026-05-02T08:01:48.001Z</time></trkpt><trkpt lat="43.39686117441852" lon="-4.69148874329671"><ele>45.2</ele><time>2026-05-02T08:01:49.001Z</time></trkpt><trkpt lat="43.39686531159063" lon="-4.691357196982402"><ele>45.4</ele><time>2026-05-02T08:01:50.001Z</time></trkpt><trkpt lat="43.39688291235198" lon="-4.691225937569606"><ele>45.599999999999994</ele><time>2026-05-02T08:01:51.001Z</time></trkpt><trkpt lat="43.39689962431513" lon="-4.691095944240896"><ele>45.8</ele><time>2026-05-02T08:01:52.001Z</time></trkpt><trkpt lat="43.39692101142662" lon="-4.690961409122707"><ele>46.0</ele><time>2026-05-02T08:01:53.001Z</time></trkpt><trkpt lat="43.39693512632795" lon="-4.690824366565329"><ele>46.0</ele><time>2026-05-02T08:01:54.001Z</time></trkpt><trkpt lat="43.39695841954581" lon="-4.69069030366276"><ele>46.0</ele><time>2026-05-02T08:01:55.001Z</time></trkpt><trkpt lat="43.396975041671546" lon="-4.690555106153982"><ele>46.0</ele><time>2026-05-02T08:01:56.001Z</time></trkpt><trkpt lat="43.39699775764437" lon="-4.690412625002325"><ele>46.0</ele><time>2026-05-02T08:01:57.001Z</time></trkpt><trkpt lat="43.397017118019825" lon="-4.690277025275553"><ele>46.0</ele><time>2026-05-02T08:01:58.001Z</time></trkpt><trkpt lat="43.39703616877288" lon="-4.690133421102782"><ele>46.4</ele><time>2026-05-02T08:01:59.001Z</time></trkpt><trkpt lat="43.39705726165657" lon="-4.6899939723824335"><ele>46.8</ele><time>2026-05-02T08:02:00.001Z</time></trkpt><trkpt lat="43.397078805810004" lon="-4.689856009200996"><ele>47.199999999999996</ele><time>2026-05-02T08:02:01.001Z</time></trkpt><trkpt lat="43.39709464372725" lon="-4.689712285721675"><ele>47.599999999999994</ele><time>2026-05-02T08:02:02.001Z</time></trkpt><trkpt lat="43.3971168487223" lon="-4.689573441788115"><ele>48.0</ele><time>2026-05-02T08:02:03.001Z</time></trkpt><trkpt lat="43.39714305158248" lon="-4.689434108062009"><ele>48.2</ele><time>2026-05-02T08:02:04.001Z</time></trkpt><trkpt lat="43.39715934013433" lon="-4.68928759221434"><ele>48.4</ele><time>2026-05-02T08:02:05.001Z</time></trkpt><trkpt lat="43.397175994863865" lon="-4.68915058183965"><ele>48.6</ele><time>2026-05-02T08:02:06.001Z</time></trkpt><trkpt lat="43.39719877103474" lon="-4.68900604501666"><ele>48.800000000000004</ele><time>2026-05-02T08:02:07.001Z</time></trkpt><trkpt lat="43.39721583318711" lon="-4.688860094184665"><ele>49.0</ele><time>2026-05-02T08:02:08.001Z</time></trkpt><trkpt lat="43.39723046281254" lon="-4.688719191807761"><ele>46.6</ele><time>2026-05-02T08:02:09.001Z</time></trkpt><trkpt lat="43.3972464638244" lon="-4.688571460669969"><ele>44.2</ele><time>2026-05-02T08:02:10.001Z</time></trkpt><trkpt lat="43.39725937713513" lon="-4.688427991692467"><ele>41.800000000000004</ele><time>2026-05-02T08:02:11.001Z</time></trkpt><trkpt lat="43.39727386383486" lon="-4.6882828276973525"><ele>39.400000000000006</ele><time>2026-05-02T08:02:12.001Z</time></trkpt><trkpt lat="43.39728360116106" lon="-4.688136301891024"><ele>37.0</ele><time>2026-05-02T08:02:13.001Z</time></trkpt><trkpt lat="43.39729335311607" lon="-4.687987280369662"><ele>37.0</ele><time>2026-05-02T08:02:14.001Z</time></trkpt><trkpt lat="43.39730159742369" lon="-4.687842735684194"><ele>37.0</ele><time>2026-05-02T08:02:15.001Z</time></trkpt><trkpt lat="43.3973109062511" lon="-4.687686664008593"><ele>37.0</ele><time>2026-05-02T08:02:16.001Z</time></trkpt><trkpt lat="43.397305923892915" lon="-4.687549405882389"><ele>37.0</ele><time>2026-05-02T08:02:17.001Z</time></trkpt><trkpt lat="43.39730669476085" lon="-4.687408252647718"><ele>37.0</ele><time>2026-05-02T08:02:18.001Z</time></trkpt><trkpt lat="43.39731735531438" lon="-4.687233708808966"><ele>38.0</ele><time>2026-05-02T08:02:19Z</time></trkpt><trkpt lat="43.397305030535435" lon="-4.687095119995051"><ele>39.0</ele><time>2026-05-02T08:02:20Z</time></trkpt><trkpt lat="43.39729952536126" lon="-4.686955815367978"><ele>40.0</ele><time>2026-05-02T08:02:21Z</time></trkpt><trkpt lat="43.39729642309376" lon="-4.686815902915333"><ele>41.0</ele><time>2026-05-02T08:02:22Z</time></trkpt><trkpt lat="43.3972959484747" lon="-4.686670456986247"><ele>42.0</ele><time>2026-05-02T08:02:23Z</time></trkpt><trkpt lat="43.3972964096365" lon="-4.686527313241588"><ele>41.6</ele><time>2026-05-02T08:02:24Z</time></trkpt><trkpt lat="43.39729341728516" lon="-4.6863810942393105"><ele>41.2</ele><time>2026-05-02T08:02:25Z</time></trkpt><trkpt lat="43.39728733656418" lon="-4.686235584281987"><ele>40.8</ele><time>2026-05-02T08:02:26Z</time></trkpt><trkpt lat="43.397277080180785" lon="-4.686088568091792"><ele>40.4</ele><time>2026-05-02T08:02:27Z</time></trkpt><trkpt lat="43.397271019668366" lon="-4.685937900627207"><ele>40.0</ele><time>2026-05-02T08:02:28Z</time></trkpt><trkpt lat="43.397258741990086" lon="-4.685794133526837"><ele>40.0</ele><time>2026-05-02T08:02:29Z</time></trkpt><trkpt lat="43.397244225774216" lon="-4.685649991588818"><ele>40.0</ele><time>2026-05-02T08:02:30Z</time></trkpt><trkpt lat="43.397228933048105" lon="-4.685504024395238"><ele>40.0</ele><time>2026-05-02T08:02:31Z</time></trkpt><trkpt lat="43.39721204766968" lon="-4.685360065890385"><ele>40.0</ele><time>2026-05-02T08:02:32Z</time></trkpt><trkpt lat="43.39719486440154" lon="-4.685214273084648"><ele>40.0</ele><time>2026-05-02T08:02:33Z</time></trkpt><trkpt lat="43.39717882776543" lon="-4.685068952219352"><ele>40.2</ele><time>2026-05-02T08:02:34Z</time></trkpt><trkpt lat="43.39716050483606" lon="-4.6849213896061075"><ele>40.4</ele><time>2026-05-02T08:02:35Z</time></trkpt><trkpt lat="43.397143174913744" lon="-4.68477277881586"><ele>40.599999999999994</ele><time>2026-05-02T08:02:36Z</time></trkpt><trkpt lat="43.397126815576094" lon="-4.684620228420916"><ele>40.8</ele><time>2026-05-02T08:02:37Z</time></trkpt><trkpt lat="43.39710768267315" lon="-4.684470115605476"><ele>41.0</ele><time>2026-05-02T08:02:38Z</time></trkpt><trkpt lat="43.39708640833993" lon="-4.684320242424223"><ele>41.199999999999996</ele><time>2026-05-02T08:02:39Z</time></trkpt><trkpt lat="43.397068273731" lon="-4.68417190213947"><ele>41.4</ele><time>2026-05-02T08:02:40Z</time></trkpt><trkpt lat="43.39705046935722" lon="-4.684025488432776"><ele>41.6</ele><time>2026-05-02T08:02:41Z</time></trkpt><trkpt lat="43.39703351728077" lon="-4.683878881667684"><ele>41.8</ele><time>2026-05-02T08:02:42Z</time></trkpt><trkpt lat="43.397018699316504" lon="-4.683734677674348"><ele>42.0</ele><time>2026-05-02T08:02:43Z</time></trkpt><trkpt lat="43.3970008729721" lon="-4.6835837223594545"><ele>42.0</ele><time>2026-05-02T08:02:44Z</time></trkpt><trkpt lat="43.39698555900912" lon="-4.683434309515745"><ele>42.0</ele><time>2026-05-02T08:02:45Z</time></trkpt><trkpt lat="43.3969691626427" lon="-4.683285067483975"><ele>42.0</ele><time>2026-05-02T08:02:46Z</time></trkpt><trkpt lat="43.396951186530416" lon="-4.683135674150128"><ele>42.0</ele><time>2026-05-02T08:02:47Z</time></trkpt><trkpt lat="43.39693349845068" lon="-4.682991139635754"><ele>42.0</ele><time>2026-05-02T08:02:48Z</time></trkpt><trkpt lat="43.39691454977026" lon="-4.682839567392426"><ele>41.8</ele><time>2026-05-02T08:02:49Z</time></trkpt><trkpt lat="43.39689470753253" lon="-4.6826896781747465"><ele>41.6</ele><time>2026-05-02T08:02:50Z</time></trkpt><trkpt lat="43.396877456512286" lon="-4.682542468309173"><ele>41.4</ele><time>2026-05-02T08:02:51Z</time></trkpt><trkpt lat="43.396861464614915" lon="-4.682395021087179"><ele>41.199999999999996</ele><time>2026-05-02T08:02:52Z</time></trkpt><trkpt lat="43.396843646122505" lon="-4.682247108893539"><ele>41.0</ele><time>2026-05-02T08:02:53Z</time></trkpt><trkpt lat="43.39682703613182" lon="-4.682097153204198"><ele>41.0</ele><time>2026-05-02T08:02:54Z</time></trkpt><trkpt lat="43.39680949049153" lon="-4.681947780935309"><ele>41.0</ele><time>2026-05-02T08:02:55Z</time></trkpt><trkpt lat="43.396792333643546" lon="-4.681801088905245"><ele>41.0</ele><time>2026-05-02T08:02:56Z</time></trkpt><trkpt lat="43.39677636600855" lon="-4.681650068859502"><ele>41.0</ele><time>2026-05-02T08:02:57Z</time></trkpt><trkpt lat="43.39676142660407" lon="-4.68149963235502"><ele>41.0</ele><time>2026-05-02T08:02:58Z</time></trkpt><trkpt lat="43.3967486428864" lon="-4.681347656304023"><ele>40.8</ele><time>2026-05-02T08:02:59Z</time></trkpt><trkpt lat="43.39673239469618" lon="-4.681198263447758"><ele>40.599999999999994</ele><time>2026-05-02T08:03:00Z</time></trkpt><trkpt lat="43.39671836088005" lon="-4.6810465520740046"><ele>40.4</ele><time>2026-05-02T08:03:01Z</time></trkpt><trkpt lat="43.39670583428272" lon="-4.680894653035699"><ele>40.2</ele><time>2026-05-02T08:03:02.001Z</time></trkpt><trkpt lat="43.396684588696566" lon="-4.680748013553867"><ele>40.0</ele><time>2026-05-02T08:03:03.001Z</time></trkpt><trkpt lat="43.396666689395474" lon="-4.680599397450441"><ele>40.0</ele><time>2026-05-02T08:03:04.001Z</time></trkpt><trkpt lat="43.39665130621623" lon="-4.680450603739356"><ele>40.0</ele><time>2026-05-02T08:03:05.001Z</time></trkpt><trkpt lat="43.39663296514924" lon="-4.680301446494947"><ele>40.0</ele><time>2026-05-02T08:03:06.001Z</time></trkpt><trkpt lat="43.396613266639676" lon="-4.680152985530485"><ele>40.0</ele><time>2026-05-02T08:03:07.001Z</time></trkpt><trkpt lat="43.39659687535003" lon="-4.680003548147047"><ele>40.0</ele><time>2026-05-02T08:03:08.001Z</time></trkpt><trkpt lat="43.39657971113461" lon="-4.679853050068145"><ele>39.6</ele><time>2026-05-02T08:03:09.001Z</time></trkpt><trkpt lat="43.39656093379215" lon="-4.679707304295327"><ele>39.2</ele><time>2026-05-02T08:03:10.001Z</time></trkpt><trkpt lat="43.39654525221704" lon="-4.679555749877046"><ele>38.8</ele><time>2026-05-02T08:03:11.001Z</time></trkpt><trkpt lat="43.396527569288445" lon="-4.679404737050697"><ele>38.4</ele><time>2026-05-02T08:03:12.001Z</time></trkpt><trkpt lat="43.396510305249464" lon="-4.679253487806394"><ele>38.0</ele><time>2026-05-02T08:03:13.001Z</time></trkpt><trkpt lat="43.396492991230545" lon="-4.679103829695031"><ele>38.0</ele><time>2026-05-02T08:03:14.001Z</time></trkpt><trkpt lat="43.396475311726874" lon="-4.678953967875551"><ele>38.0</ele><time>2026-05-02T08:03:15.001Z</time></trkpt><trkpt lat="43.39645950749798" lon="-4.678803285217004"><ele>38.0</ele><time>2026-05-02T08:03:16.001Z</time></trkpt><trkpt lat="43.396443900850485" lon="-4.678655632079846"><ele>38.0</ele><time>2026-05-02T08:03:17.001Z</time></trkpt><trkpt lat="43.39642685257046" lon="-4.6785078951787655"><ele>38.0</ele><time>2026-05-02T08:03:18.001Z</time></trkpt><trkpt lat="43.39641080886545" lon="-4.678358099820528"><ele>37.6</ele><time>2026-05-02T08:03:19.001Z</time></trkpt><trkpt lat="43.396391215582135" lon="-4.678210214990715"><ele>37.199999999999996</ele><time>2026-05-02T08:03:20.001Z</time></trkpt><trkpt lat="43.39637473816915" lon="-4.678062383364637"><ele>36.8</ele><time>2026-05-02T08:03:21.001Z</time></trkpt><trkpt lat="43.396357707345956" lon="-4.67791775972465"><ele>36.4</ele><time>2026-05-02T08:03:22.001Z</time></trkpt><trkpt lat="43.396340213838634" lon="-4.6777657754698065"><ele>36.0</ele><time>2026-05-02T08:03:23.001Z</time></trkpt><trkpt lat="43.39632182800461" lon="-4.677617042093521"><ele>36.8</ele><time>2026-05-02T08:03:24.001Z</time></trkpt><trkpt lat="43.39630503681409" lon="-4.677466163095098"><ele>37.6</ele><time>2026-05-02T08:03:25.001Z</time></trkpt><trkpt lat="43.39628666502747" lon="-4.677316946758991"><ele>38.4</ele><time>2026-05-02T08:03:26.001Z</time></trkpt><trkpt lat="43.39626653699384" lon="-4.677167296135958"><ele>39.2</ele><time>2026-05-02T08:03:27.001Z</time></trkpt><trkpt lat="43.39624686264978" lon="-4.677017779450635"><ele>40.0</ele><time>2026-05-02T08:03:28.001Z</time></trkpt><trkpt lat="43.39622857199432" lon="-4.67686798566726"><ele>40.0</ele><time>2026-05-02T08:03:29.001Z</time></trkpt><trkpt lat="43.39620289883023" lon="-4.67672110380026"><ele>40.0</ele><time>2026-05-02T08:03:30.001Z</time></trkpt><trkpt lat="43.39618813075541" lon="-4.67657192592022"><ele>40.0</ele><time>2026-05-02T08:03:31.001Z</time></trkpt><trkpt lat="43.39617376109062" lon="-4.6764244620672955"><ele>40.0</ele><time>2026-05-02T08:03:32.001Z</time></trkpt><trkpt lat="43.3961660508954" lon="-4.676267098689462"><ele>40.0</ele><time>2026-05-02T08:03:33.001Z</time></trkpt><trkpt lat="43.396160634940486" lon="-4.676134228594339"><ele>40.25</ele><time>2026-05-02T08:03:34.001Z</time></trkpt><trkpt lat="43.39614365879083" lon="-4.676027709242223"><ele>40.5</ele><time>2026-05-02T08:03:35.001Z</time></trkpt><trkpt lat="43.39615680481789" lon="-4.675894569437626"><ele>40.75</ele><time>2026-05-02T08:03:36.001Z</time></trkpt><trkpt lat="43.39620200564216" lon="-4.675694174383788"><ele>41.0</ele><time>2026-05-02T08:03:37.001Z</time></trkpt><trkpt lat="43.39623898648891" lon="-4.675520110657582"><ele>41.0</ele><time>2026-05-02T08:03:38.001Z</time></trkpt><trkpt lat="43.396257813178345" lon="-4.675279753968422"><ele>41.0</ele><time>2026-05-02T08:03:39.001Z</time></trkpt><trkpt lat="43.39629465578096" lon="-4.675090654062583"><ele>41.0</ele><time>2026-05-02T08:03:41.001Z</time></trkpt><trkpt lat="43.39632019058221" lon="-4.674948004190303"><ele>41.0</ele><time>2026-05-02T08:03:42.001Z</time></trkpt><trkpt lat="43.396334197628335" lon="-4.674805901581852"><ele>40.8</ele><time>2026-05-02T08:03:43.001Z</time></trkpt><trkpt lat="43.39634594627169" lon="-4.674656686505126"><ele>40.599999999999994</ele><time>2026-05-02T08:03:44.001Z</time></trkpt><trkpt lat="43.39635844627673" lon="-4.6745094948140435"><ele>40.4</ele><time>2026-05-02T08:03:45.001Z</time></trkpt><trkpt lat="43.39635782100479" lon="-4.674363534961303"><ele>40.2</ele><time>2026-05-02T08:03:46.001Z</time></trkpt><trkpt lat="43.39632961852846" lon="-4.6742188880991815"><ele>40.0</ele><time>2026-05-02T08:03:47.001Z</time></trkpt><trkpt lat="43.39631308300472" lon="-4.674074827471145"><ele>40.2</ele><time>2026-05-02T08:03:48.001Z</time></trkpt><trkpt lat="43.396292668858166" lon="-4.673929087513733"><ele>40.4</ele><time>2026-05-02T08:03:49.001Z</time></trkpt><trkpt lat="43.39626953574579" lon="-4.673785645952351"><ele>40.599999999999994</ele><time>2026-05-02T08:03:50.001Z</time></trkpt><trkpt lat="43.3962442247103" lon="-4.673638359776393"><ele>40.8</ele><time>2026-05-02T08:03:51.001Z</time></trkpt><trkpt lat="43.396235431486076" lon="-4.673491101959993"><ele>41.0</ele><time>2026-05-02T08:03:52.001Z</time></trkpt><trkpt lat="43.396210740935295" lon="-4.673345851527924"><ele>41.0</ele><time>2026-05-02T08:03:53.001Z</time></trkpt><trkpt lat="43.396184700441765" lon="-4.673205027001177"><ele>41.0</ele><time>2026-05-02T08:03:54.001Z</time></trkpt><trkpt lat="43.396157669726314" lon="-4.6730611237368445"><ele>41.0</ele><time>2026-05-02T08:03:55.001Z</time></trkpt><trkpt lat="43.39613414598662" lon="-4.672910532620036"><ele>41.0</ele><time>2026-05-02T08:03:56.001Z</time></trkpt><trkpt lat="43.396114736679195" lon="-4.672766441641114"><ele>41.0</ele><time>2026-05-02T08:03:57.001Z</time></trkpt><trkpt lat="43.39609980885397" lon="-4.672619791482639"><ele>41.0</ele><time>2026-05-02T08:03:58.001Z</time></trkpt><trkpt lat="43.39609111773377" lon="-4.67247192451055"><ele>41.0</ele><time>2026-05-02T08:03:59.001Z</time></trkpt><trkpt lat="43.39608775358643" lon="-4.672325389847639"><ele>41.0</ele><time>2026-05-02T08:04:00.001Z</time></trkpt><trkpt lat="43.3960876090967" lon="-4.672175779644485"><ele>41.0</ele><time>2026-05-02T08:04:01.001Z</time></trkpt><trkpt lat="43.39609339188811" lon="-4.672029423181647"><ele>41.0</ele><time>2026-05-02T08:04:02.001Z</time></trkpt><trkpt lat="43.39611399171702" lon="-4.671884048119605"><ele>41.0</ele><time>2026-05-02T08:04:03.001Z</time></trkpt><trkpt lat="43.396140414520495" lon="-4.671733662399624"><ele>41.0</ele><time>2026-05-02T08:04:04.001Z</time></trkpt><trkpt lat="43.396140419230264" lon="-4.67159627598646"><ele>41.0</ele><time>2026-05-02T08:04:05.001Z</time></trkpt><trkpt lat="43.39615241187279" lon="-4.671455288735961"><ele>41.0</ele><time>2026-05-02T08:04:06.001Z</time></trkpt><trkpt lat="43.39617908605016" lon="-4.671300801239996"><ele>41.0</ele><time>2026-05-02T08:04:07.001Z</time></trkpt><trkpt lat="43.396195645339944" lon="-4.671154024046589"><ele>41.599999999999994</ele><time>2026-05-02T08:04:08.001Z</time></trkpt><trkpt lat="43.39621500615984" lon="-4.67101027848653"><ele>42.2</ele><time>2026-05-02T08:04:09.001Z</time></trkpt><trkpt lat="43.39622764497449" lon="-4.670866772291875"><ele>42.8</ele><time>2026-05-02T08:04:10.001Z</time></trkpt><trkpt lat="43.396251100867836" lon="-4.670725790289995"><ele>43.400000000000006</ele><time>2026-05-02T08:04:11.001Z</time></trkpt><trkpt lat="43.39627338081803" lon="-4.6705690725119595"><ele>44.0</ele><time>2026-05-02T08:04:12.001Z</time></trkpt><trkpt lat="43.39629289177635" lon="-4.670376510414136"><ele>44.2</ele><time>2026-05-02T08:04:13.001Z</time></trkpt><trkpt lat="43.39631036052514" lon="-4.67022073307021"><ele>44.400000000000006</ele><time>2026-05-02T08:04:14.001Z</time></trkpt><trkpt lat="43.39632433129341" lon="-4.670131193355532"><ele>44.6</ele><time>2026-05-02T08:04:15.001Z</time></trkpt><trkpt lat="43.396333950277636" lon="-4.669984613442306"><ele>44.8</ele><time>2026-05-02T08:04:16.001Z</time></trkpt><trkpt lat="43.39635433185869" lon="-4.66983382911781"><ele>45.0</ele><time>2026-05-02T08:04:17.001Z</time></trkpt><trkpt lat="43.39635921038503" lon="-4.669685640146057"><ele>43.6</ele><time>2026-05-02T08:04:18.001Z</time></trkpt><trkpt lat="43.39637655402721" lon="-4.669541762870525"><ele>42.2</ele><time>2026-05-02T08:04:19.001Z</time></trkpt><trkpt lat="43.39637760671965" lon="-4.669385897733073"><ele>40.8</ele><time>2026-05-02T08:04:20.001Z</time></trkpt><trkpt lat="43.396381923683364" lon="-4.669236373174014"><ele>39.4</ele><time>2026-05-02T08:04:21.001Z</time></trkpt><trkpt lat="43.39638332575751" lon="-4.669090409992176"><ele>38.0</ele><time>2026-05-02T08:04:22.001Z</time></trkpt><trkpt lat="43.3963805806792" lon="-4.668938523001079"><ele>38.0</ele><time>2026-05-02T08:04:23.001Z</time></trkpt><trkpt lat="43.39637178122891" lon="-4.668788441736617"><ele>38.0</ele><time>2026-05-02T08:04:24.002Z</time></trkpt><trkpt lat="43.39637109268479" lon="-4.668643575881067"><ele>38.0</ele><time>2026-05-02T08:04:25Z</time></trkpt><trkpt lat="43.39637479780735" lon="-4.66850075809646"><ele>38.0</ele><time>2026-05-02T08:04:26Z</time></trkpt><trkpt lat="43.39636325648401" lon="-4.668342555742802"><ele>38.0</ele><time>2026-05-02T08:04:27Z</time></trkpt><trkpt lat="43.396356517895775" lon="-4.66821249135189"><ele>38.4</ele><time>2026-05-02T08:04:28Z</time></trkpt><trkpt lat="43.39634913174765" lon="-4.668053319393896"><ele>38.8</ele><time>2026-05-02T08:04:29Z</time></trkpt><trkpt lat="43.396332132985734" lon="-4.667913730758539"><ele>39.2</ele><time>2026-05-02T08:04:30Z</time></trkpt><trkpt lat="43.39632194049206" lon="-4.667770885243376"><ele>39.6</ele><time>2026-05-02T08:04:31Z</time></trkpt><trkpt lat="43.39631259623987" lon="-4.667630461754351"><ele>40.0</ele><time>2026-05-02T08:04:32Z</time></trkpt><trkpt lat="43.39629462172362" lon="-4.6674887444281445"><ele>41.8</ele><time>2026-05-02T08:04:33Z</time></trkpt><trkpt lat="43.39626955668657" lon="-4.667346889834382"><ele>43.6</ele><time>2026-05-02T08:04:34Z</time></trkpt><trkpt lat="43.39623897167589" lon="-4.667211700249229"><ele>45.400000000000006</ele><time>2026-05-02T08:04:35Z</time></trkpt><trkpt lat="43.396209340119995" lon="-4.667077709361249"><ele>47.2</ele><time>2026-05-02T08:04:36Z</time></trkpt><trkpt lat="43.39617387027726" lon="-4.66694353650648"><ele>49.0</ele><time>2026-05-02T08:04:37Z</time></trkpt><trkpt lat="43.39613218843093" lon="-4.6668175237107805"><ele>49.0</ele><time>2026-05-02T08:04:38Z</time></trkpt><trkpt lat="43.39609347532121" lon="-4.666691358983255"><ele>49.0</ele><time>2026-05-02T08:04:39Z</time></trkpt><trkpt lat="43.396055979287766" lon="-4.666572424664551"><ele>49.0</ele><time>2026-05-02T08:04:40Z</time></trkpt><trkpt lat="43.396017930989444" lon="-4.666448201180761"><ele>49.0</ele><time>2026-05-02T08:04:41Z</time></trkpt><trkpt lat="43.39598123378583" lon="-4.666324453931524"><ele>49.0</ele><time>2026-05-02T08:04:42Z</time></trkpt><trkpt lat="43.3959406483614" lon="-4.666202416419761"><ele>49.800000000000004</ele><time>2026-05-02T08:04:43Z</time></trkpt><trkpt lat="43.395902493231866" lon="-4.666087480579481"><ele>50.6</ele><time>2026-05-02T08:04:44Z</time></trkpt><trkpt lat="43.395862549387346" lon="-4.665969016495192"><ele>51.4</ele><time>2026-05-02T08:04:45Z</time></trkpt><trkpt lat="43.39581927356457" lon="-4.665848162872351"><ele>52.2</ele><time>2026-05-02T08:04:46Z</time></trkpt><trkpt lat="43.39578103109504" lon="-4.665728817388431"><ele>53.0</ele><time>2026-05-02T08:04:47Z</time></trkpt><trkpt lat="43.39574506429283" lon="-4.665613265115674"><ele>53.0</ele><time>2026-05-02T08:04:48Z</time></trkpt><trkpt lat="43.395708147538194" lon="-4.665499770662232"><ele>53.0</ele><time>2026-05-02T08:04:49Z</time></trkpt><trkpt lat="43.39566407629943" lon="-4.665383893840576"><ele>53.0</ele><time>2026-05-02T08:04:50Z</time></trkpt><trkpt lat="43.395628532265114" lon="-4.665267116673707"><ele>53.0</ele><time>2026-05-02T08:04:51Z</time></trkpt><trkpt lat="43.39559834849962" lon="-4.665147715879678"><ele>53.0</ele><time>2026-05-02T08:04:52Z</time></trkpt><trkpt lat="43.39556197876174" lon="-4.665030274775601"><ele>53.4</ele><time>2026-05-02T08:04:53Z</time></trkpt><trkpt lat="43.39553243698883" lon="-4.664905487940544"><ele>53.8</ele><time>2026-05-02T08:04:54Z</time></trkpt><trkpt lat="43.39550252040865" lon="-4.6647817529907485"><ele>54.2</ele><time>2026-05-02T08:04:55Z</time></trkpt><trkpt lat="43.39547619091238" lon="-4.664652186080983"><ele>54.6</ele><time>2026-05-02T08:04:56Z</time></trkpt><trkpt lat="43.39545833192109" lon="-4.664519085993539"><ele>55.0</ele><time>2026-05-02T08:04:57Z</time></trkpt><trkpt lat="43.39544724970565" lon="-4.664382338770263"><ele>57.4</ele><time>2026-05-02T08:04:58Z</time></trkpt><trkpt lat="43.395438543184234" lon="-4.664239263085283"><ele>59.8</ele><time>2026-05-02T08:04:59Z</time></trkpt><trkpt lat="43.39542821745677" lon="-4.664099304679446"><ele>62.2</ele><time>2026-05-02T08:05:00Z</time></trkpt><trkpt lat="43.39542467636218" lon="-4.663953650040761"><ele>64.6</ele><time>2026-05-02T08:05:01Z</time></trkpt><trkpt lat="43.395422075335766" lon="-4.66381009017153"><ele>67.0</ele><time>2026-05-02T08:05:02Z</time></trkpt><trkpt lat="43.395414913443965" lon="-4.663661504470414"><ele>66.4</ele><time>2026-05-02T08:05:03Z</time></trkpt><trkpt lat="43.39541103947175" lon="-4.6635133428291855"><ele>65.80000000000001</ele><time>2026-05-02T08:05:04.001Z</time></trkpt><trkpt lat="43.395418587599366" lon="-4.663374008665662"><ele>65.2</ele><time>2026-05-02T08:05:05.001Z</time></trkpt><trkpt lat="43.3954212947983" lon="-4.663226670086889"><ele>64.60000000000001</ele><time>2026-05-02T08:05:06.001Z</time></trkpt><trkpt lat="43.395413308638105" lon="-4.663048221875543"><ele>64.0</ele><time>2026-05-02T08:05:07.001Z</time></trkpt><trkpt lat="43.395419047750636" lon="-4.662879119532781"><ele>63.6</ele><time>2026-05-02T08:05:08.001Z</time></trkpt><trkpt lat="43.39540879506236" lon="-4.662706333818743"><ele>63.2</ele><time>2026-05-02T08:05:09.001Z</time></trkpt><trkpt lat="43.39540675163453" lon="-4.662610916637852"><ele>62.800000000000004</ele><time>2026-05-02T08:05:10.001Z</time></trkpt><trkpt lat="43.395378164354725" lon="-4.6624929753362085"><ele>62.400000000000006</ele><time>2026-05-02T08:05:11.001Z</time></trkpt><trkpt lat="43.39540977752041" lon="-4.662317423189822"><ele>62.0</ele><time>2026-05-02T08:05:12.001Z</time></trkpt><trkpt lat="43.39540983771219" lon="-4.662169232486883"><ele>62.0</ele><time>2026-05-02T08:05:13.001Z</time></trkpt><trkpt lat="43.39540910773455" lon="-4.662019266390138"><ele>62.0</ele><time>2026-05-02T08:05:14.001Z</time></trkpt><trkpt lat="43.39540756726897" lon="-4.661870645408567"><ele>62.0</ele><time>2026-05-02T08:05:15.001Z</time></trkpt><trkpt lat="43.395407064241105" lon="-4.661720738826556"><ele>62.0</ele><time>2026-05-02T08:05:16.001Z</time></trkpt><trkpt lat="43.39540645869136" lon="-4.661571251357694"><ele>62.0</ele><time>2026-05-02T08:05:17.001Z</time></trkpt><trkpt lat="43.39540735959018" lon="-4.661423952768786"><ele>62.400000000000006</ele><time>2026-05-02T08:05:18.001Z</time></trkpt><trkpt lat="43.39540918362221" lon="-4.661275885373091"><ele>62.800000000000004</ele><time>2026-05-02T08:05:19.001Z</time></trkpt><trkpt lat="43.395408805715206" lon="-4.661124443709611"><ele>63.2</ele><time>2026-05-02T08:05:20.001Z</time></trkpt><trkpt lat="43.395406290425704" lon="-4.6609746559729945"><ele>63.6</ele><time>2026-05-02T08:05:21.001Z</time></trkpt><trkpt lat="43.39541471593092" lon="-4.660826344541076"><ele>64.0</ele><time>2026-05-02T08:05:22.001Z</time></trkpt><trkpt lat="43.39541292818979" lon="-4.660677635454344"><ele>64.0</ele><time>2026-05-02T08:05:23.001Z</time></trkpt><trkpt lat="43.39539810165034" lon="-4.6605319967690555"><ele>64.0</ele><time>2026-05-02T08:05:24.001Z</time></trkpt><trkpt lat="43.39540231017408" lon="-4.660381257833519"><ele>64.0</ele><time>2026-05-02T08:05:25.001Z</time></trkpt><trkpt lat="43.395404064512235" lon="-4.660234000386038"><ele>64.0</ele><time>2026-05-02T08:05:26.001Z</time></trkpt><trkpt lat="43.39540597283142" lon="-4.6600862032541555"><ele>64.0</ele><time>2026-05-02T08:05:27.001Z</time></trkpt><trkpt lat="43.395407558415904" lon="-4.659937470756329"><ele>63.800000000000004</ele><time>2026-05-02T08:05:28.001Z</time></trkpt><trkpt lat="43.395409131096926" lon="-4.65979216135635"><ele>63.60000000000001</ele><time>2026-05-02T08:05:29.001Z</time></trkpt><trkpt lat="43.39540555402073" lon="-4.659643307272106"><ele>63.4</ele><time>2026-05-02T08:05:30.001Z</time></trkpt><trkpt lat="43.39541143583468" lon="-4.659497619281438"><ele>63.2</ele><time>2026-05-02T08:05:31.001Z</time></trkpt><trkpt lat="43.39541672071864" lon="-4.659349609938134"><ele>63.0</ele><time>2026-05-02T08:05:32.001Z</time></trkpt><trkpt lat="43.395424030136816" lon="-4.659199441712491"><ele>63.4</ele><time>2026-05-02T08:05:33.001Z</time></trkpt><trkpt lat="43.395431292787386" lon="-4.659048758719996"><ele>63.8</ele><time>2026-05-02T08:05:34.001Z</time></trkpt><trkpt lat="43.39543903232163" lon="-4.6588985829640075"><ele>64.2</ele><time>2026-05-02T08:05:35.001Z</time></trkpt><trkpt lat="43.3954474949021" lon="-4.6587546719249735"><ele>64.6</ele><time>2026-05-02T08:05:36.001Z</time></trkpt><trkpt lat="43.3954566205037" lon="-4.658605056771827"><ele>65.0</ele><time>2026-05-02T08:05:37.001Z</time></trkpt><trkpt lat="43.395467943240774" lon="-4.658457434740118"><ele>65.0</ele><time>2026-05-02T08:05:38.001Z</time></trkpt><trkpt lat="43.39547252687422" lon="-4.658307926061575"><ele>65.0</ele><time>2026-05-02T08:05:39.001Z</time></trkpt><trkpt lat="43.395485076927905" lon="-4.658159119466581"><ele>65.0</ele><time>2026-05-02T08:05:40.001Z</time></trkpt><trkpt lat="43.39550045200922" lon="-4.658008578398093"><ele>65.0</ele><time>2026-05-02T08:05:41.001Z</time></trkpt><trkpt lat="43.395516803378435" lon="-4.657859228802392"><ele>65.0</ele><time>2026-05-02T08:05:42.001Z</time></trkpt><trkpt lat="43.395532177844935" lon="-4.657717954862855"><ele>62.4</ele><time>2026-05-02T08:05:43.001Z</time></trkpt><trkpt lat="43.39554692702555" lon="-4.657575754677346"><ele>59.8</ele><time>2026-05-02T08:05:44.001Z</time></trkpt><trkpt lat="43.395560363933924" lon="-4.657430650300156"><ele>57.2</ele><time>2026-05-02T08:05:45.001Z</time></trkpt><trkpt lat="43.39557825558746" lon="-4.6572905948623635"><ele>54.6</ele><time>2026-05-02T08:05:46.001Z</time></trkpt><trkpt lat="43.395592567928894" lon="-4.657148215375954"><ele>52.0</ele><time>2026-05-02T08:05:47.001Z</time></trkpt><trkpt lat="43.39559384980478" lon="-4.657008151538187"><ele>52.6</ele><time>2026-05-02T08:05:48.001Z</time></trkpt><trkpt lat="43.3956077446146" lon="-4.656879506397516"><ele>53.2</ele><time>2026-05-02T08:05:49.001Z</time></trkpt><trkpt lat="43.39561639518464" lon="-4.6567521040695965"><ele>53.8</ele><time>2026-05-02T08:05:50.001Z</time></trkpt><trkpt lat="43.39560161507808" lon="-4.656626082528169"><ele>54.4</ele><time>2026-05-02T08:05:51.001Z</time></trkpt><trkpt lat="43.3955677516213" lon="-4.656504911208813"><ele>55.0</ele><time>2026-05-02T08:05:52.001Z</time></trkpt><trkpt lat="43.3955293946119" lon="-4.6563912443619895"><ele>55.0</ele><time>2026-05-02T08:05:53.001Z</time></trkpt><trkpt lat="43.39552984966633" lon="-4.656258484928363"><ele>55.0</ele><time>2026-05-02T08:05:54.001Z</time></trkpt><trkpt lat="43.39555239034003" lon="-4.656136994642517"><ele>55.0</ele><time>2026-05-02T08:05:55.001Z</time></trkpt><trkpt lat="43.39560454603642" lon="-4.656043009926098"><ele>55.0</ele><time>2026-05-02T08:05:56.001Z</time></trkpt><trkpt lat="43.39567179920292" lon="-4.655959646035306"><ele>55.0</ele><time>2026-05-02T08:05:57.001Z</time></trkpt><trkpt lat="43.39574077260839" lon="-4.655883046642675"><ele>55.0</ele><time>2026-05-02T08:05:58.001Z</time></trkpt><trkpt lat="43.39580527598672" lon="-4.655788692444853"><ele>55.0</ele><time>2026-05-02T08:05:59.001Z</time></trkpt><trkpt lat="43.395854399748295" lon="-4.655669315839733"><ele>55.0</ele><time>2026-05-02T08:06:00.001Z</time></trkpt><trkpt lat="43.395885740285756" lon="-4.655530398309654"><ele>55.0</ele><time>2026-05-02T08:06:01.001Z</time></trkpt><trkpt lat="43.395916666583844" lon="-4.6553891169987205"><ele>55.0</ele><time>2026-05-02T08:06:02.001Z</time></trkpt><trkpt lat="43.395943345590844" lon="-4.655247476492174"><ele>55.0</ele><time>2026-05-02T08:06:03.001Z</time></trkpt><trkpt lat="43.39596468342448" lon="-4.65509402797926"><ele>55.0</ele><time>2026-05-02T08:06:04.001Z</time></trkpt><trkpt lat="43.395979156846906" lon="-4.654932051850535"><ele>55.0</ele><time>2026-05-02T08:06:05.001Z</time></trkpt><trkpt lat="43.395993877564294" lon="-4.6547775619725105"><ele>55.0</ele><time>2026-05-02T08:06:06.001Z</time></trkpt><trkpt lat="43.39601018378235" lon="-4.654624833302242"><ele>55.0</ele><time>2026-05-02T08:06:07.001Z</time></trkpt><trkpt lat="43.39602310041947" lon="-4.65446767695979"><ele>55.0</ele><time>2026-05-02T08:06:08.001Z</time></trkpt><trkpt lat="43.396044671042375" lon="-4.654315351690684"><ele>55.0</ele><time>2026-05-02T08:06:09.001Z</time></trkpt><trkpt lat="43.39606538478813" lon="-4.654165739311973"><ele>55.0</ele><time>2026-05-02T08:06:10.001Z</time></trkpt><trkpt lat="43.39608218489145" lon="-4.654015200189728"><ele>55.0</ele><time>2026-05-02T08:06:11.001Z</time></trkpt><trkpt lat="43.396086093033404" lon="-4.6538754428437805"><ele>54.0</ele><time>2026-05-02T08:06:12.001Z</time></trkpt><trkpt lat="43.39610416169626" lon="-4.653718023608057"><ele>53.0</ele><time>2026-05-02T08:06:13.001Z</time></trkpt><trkpt lat="43.39612690498987" lon="-4.6535852526349935"><ele>52.0</ele><time>2026-05-02T08:06:14.001Z</time></trkpt><trkpt lat="43.396140936345056" lon="-4.653426050320139"><ele>51.0</ele><time>2026-05-02T08:06:15.001Z</time></trkpt><trkpt lat="43.3961487359534" lon="-4.653285540156029"><ele>50.0</ele><time>2026-05-02T08:06:16.001Z</time></trkpt><trkpt lat="43.39616702439548" lon="-4.653157398868961"><ele>50.00000000000001</ele><time>2026-05-02T08:06:17.001Z</time></trkpt><trkpt lat="43.39617041405718" lon="-4.6530307657000805"><ele>50.0</ele><time>2026-05-02T08:06:18.001Z</time></trkpt><trkpt lat="43.39616123599836" lon="-4.652909646787663"><ele>50.0</ele><time>2026-05-02T08:06:19.001Z</time></trkpt><trkpt lat="43.39615014197527" lon="-4.652793807533834"><ele>50.0</ele><time>2026-05-02T08:06:20.001Z</time></trkpt><trkpt lat="43.39615442337224" lon="-4.652678018022548"><ele>50.00000000000001</ele><time>2026-05-02T08:06:21.001Z</time></trkpt><trkpt lat="43.396187846370005" lon="-4.652561969931586"><ele>50.0</ele><time>2026-05-02T08:06:22.001Z</time></trkpt><trkpt lat="43.39624180279007" lon="-4.652452838365354"><ele>50.0</ele><time>2026-05-02T08:06:23.001Z</time></trkpt><trkpt lat="43.396309985140824" lon="-4.652364935013537"><ele>50.0</ele><time>2026-05-02T08:06:24.001Z</time></trkpt><trkpt lat="43.396316183081645" lon="-4.652210538026593"><ele>50.0</ele><time>2026-05-02T08:06:25.001Z</time></trkpt><trkpt lat="43.396306951362625" lon="-4.652075474119667"><ele>50.0</ele><time>2026-05-02T08:06:26.001Z</time></trkpt><trkpt lat="43.39626792036829" lon="-4.6519449927932515"><ele>50.0</ele><time>2026-05-02T08:06:27.001Z</time></trkpt><trkpt lat="43.39621799742234" lon="-4.651824679469672"><ele>50.0</ele><time>2026-05-02T08:06:28.001Z</time></trkpt><trkpt lat="43.39616583829771" lon="-4.651710818508629"><ele>50.0</ele><time>2026-05-02T08:06:29.001Z</time></trkpt><trkpt lat="43.39609777975142" lon="-4.651611156360843"><ele>50.0</ele><time>2026-05-02T08:06:30.002Z</time></trkpt><trkpt lat="43.396048590846284" lon="-4.651494587905154"><ele>50.0</ele><time>2026-05-02T08:06:31Z</time></trkpt><trkpt lat="43.395990769386884" lon="-4.65138574971995"><ele>50.0</ele><time>2026-05-02T08:06:32Z</time></trkpt><trkpt lat="43.39593327893841" lon="-4.651272344548272"><ele>50.0</ele><time>2026-05-02T08:06:33Z</time></trkpt><trkpt lat="43.395874123667674" lon="-4.651158026833223"><ele>50.0</ele><time>2026-05-02T08:06:34Z</time></trkpt><trkpt lat="43.39581263263401" lon="-4.651043439834572"><ele>50.0</ele><time>2026-05-02T08:06:35Z</time></trkpt><trkpt lat="43.39575147382021" lon="-4.6509255184069795"><ele>50.0</ele><time>2026-05-02T08:06:36Z</time></trkpt><trkpt lat="43.3956955022774" lon="-4.650804459578865"><ele>50.0</ele><time>2026-05-02T08:06:37Z</time></trkpt><trkpt lat="43.39563877749269" lon="-4.650682890136212"><ele>49.2</ele><time>2026-05-02T08:06:38Z</time></trkpt><trkpt lat="43.395585521528005" lon="-4.650558541280247"><ele>48.4</ele><time>2026-05-02T08:06:39Z</time></trkpt><trkpt lat="43.39553386929829" lon="-4.650432854125497"><ele>47.599999999999994</ele><time>2026-05-02T08:06:40Z</time></trkpt><trkpt lat="43.39548188390681" lon="-4.650307753094016"><ele>46.8</ele><time>2026-05-02T08:06:41Z</time></trkpt><trkpt lat="43.39543251433898" lon="-4.650178812328987"><ele>46.0</ele><time>2026-05-02T08:06:42Z</time></trkpt><trkpt lat="43.39538284915826" lon="-4.650051567861687"><ele>46.0</ele><time>2026-05-02T08:06:43Z</time></trkpt><trkpt lat="43.395336362054174" lon="-4.649915496535299"><ele>46.0</ele><time>2026-05-02T08:06:44Z</time></trkpt><trkpt lat="43.39528713222256" lon="-4.649786912639083"><ele>46.0</ele><time>2026-05-02T08:06:45Z</time></trkpt><trkpt lat="43.395237254473216" lon="-4.649654440124486"><ele>46.0</ele><time>2026-05-02T08:06:46Z</time></trkpt><trkpt lat="43.39519032840368" lon="-4.649525531343025"><ele>46.0</ele><time>2026-05-02T08:06:47Z</time></trkpt><trkpt lat="43.395141790921336" lon="-4.649393102025073"><ele>46.0</ele><time>2026-05-02T08:06:48Z</time></trkpt><trkpt lat="43.395097135622834" lon="-4.649267016955878"><ele>46.0</ele><time>2026-05-02T08:06:49Z</time></trkpt><trkpt lat="43.39504654733723" lon="-4.649123308589692"><ele>46.0</ele><time>2026-05-02T08:06:50Z</time></trkpt><trkpt lat="43.39499991950908" lon="-4.649001809604631"><ele>46.0</ele><time>2026-05-02T08:06:51Z</time></trkpt><trkpt lat="43.394952714250934" lon="-4.648872082355376"><ele>46.0</ele><time>2026-05-02T08:06:52Z</time></trkpt><trkpt lat="43.394907377011364" lon="-4.648733125358464"><ele>45.4</ele><time>2026-05-02T08:06:53Z</time></trkpt><trkpt lat="43.39486362021528" lon="-4.648610758451966"><ele>44.8</ele><time>2026-05-02T08:06:54Z</time></trkpt><trkpt lat="43.39482118682475" lon="-4.648476231519368"><ele>44.199999999999996</ele><time>2026-05-02T08:06:55Z</time></trkpt><trkpt lat="43.39477752087022" lon="-4.6483445092763604"><ele>43.599999999999994</ele><time>2026-05-02T08:06:56Z</time></trkpt><trkpt lat="43.39473728017879" lon="-4.648212592504944"><ele>43.0</ele><time>2026-05-02T08:06:57Z</time></trkpt><trkpt lat="43.394697499914884" lon="-4.648083160152669"><ele>44.4</ele><time>2026-05-02T08:06:58Z</time></trkpt><trkpt lat="43.394658667125626" lon="-4.647953038786041"><ele>45.8</ele><time>2026-05-02T08:06:59Z</time></trkpt><trkpt lat="43.39462396423928" lon="-4.647825895622181"><ele>47.2</ele><time>2026-05-02T08:07:00Z</time></trkpt><trkpt lat="43.394590044302134" lon="-4.647699115900436"><ele>48.6</ele><time>2026-05-02T08:07:01Z</time></trkpt><trkpt lat="43.394558151620636" lon="-4.647572744444728"><ele>50.0</ele><time>2026-05-02T08:07:02Z</time></trkpt><trkpt lat="43.39452751775445" lon="-4.647445055100395"><ele>50.6</ele><time>2026-05-02T08:07:03Z</time></trkpt><trkpt lat="43.39449434055069" lon="-4.647327768748767"><ele>51.2</ele><time>2026-05-02T08:07:04Z</time></trkpt><trkpt lat="43.39446264974619" lon="-4.647201917010821"><ele>51.8</ele><time>2026-05-02T08:07:05Z</time></trkpt><trkpt lat="43.39443121851591" lon="-4.647078439799687"><ele>52.4</ele><time>2026-05-02T08:07:06Z</time></trkpt><trkpt lat="43.394402114176714" lon="-4.646957755036399"><ele>53.0</ele><time>2026-05-02T08:07:07Z</time></trkpt><trkpt lat="43.39437531867017" lon="-4.646835439948867"><ele>54.599999999999994</ele><time>2026-05-02T08:07:08Z</time></trkpt><trkpt lat="43.39434738346733" lon="-4.646714277523456"><ele>56.199999999999996</ele><time>2026-05-02T08:07:09Z</time></trkpt><trkpt lat="43.394316610809476" lon="-4.64659230252053"><ele>57.8</ele><time>2026-05-02T08:07:10Z</time></trkpt><trkpt lat="43.39429230967291" lon="-4.646470941641161"><ele>59.4</ele><time>2026-05-02T08:07:11Z</time></trkpt><trkpt lat="43.394268162869686" lon="-4.646345904959904"><ele>61.0</ele><time>2026-05-02T08:07:12Z</time></trkpt><trkpt lat="43.39423966909834" lon="-4.646219704347661"><ele>61.4</ele><time>2026-05-02T08:07:13Z</time></trkpt><trkpt lat="43.394217695729424" lon="-4.6460964633770105"><ele>61.8</ele><time>2026-05-02T08:07:14Z</time></trkpt><trkpt lat="43.394193363435186" lon="-4.6459698685639825"><ele>62.199999999999996</ele><time>2026-05-02T08:07:15Z</time></trkpt><trkpt lat="43.39417153885772" lon="-4.645845946056192"><ele>62.599999999999994</ele><time>2026-05-02T08:07:16Z</time></trkpt><trkpt lat="43.394149687187834" lon="-4.645715937339157"><ele>63.0</ele><time>2026-05-02T08:07:17Z</time></trkpt><trkpt lat="43.39412868695468" lon="-4.645588065824703"><ele>63.0</ele><time>2026-05-02T08:07:18Z</time></trkpt><trkpt lat="43.39410790396096" lon="-4.6454576890364345"><ele>63.0</ele><time>2026-05-02T08:07:19Z</time></trkpt><trkpt lat="43.394092082519165" lon="-4.645326956309309"><ele>63.0</ele><time>2026-05-02T08:07:20Z</time></trkpt><trkpt lat="43.39406712537541" lon="-4.6451981261592294"><ele>63.0</ele><time>2026-05-02T08:07:21.001Z</time></trkpt><trkpt lat="43.39404999588056" lon="-4.645065406066525"><ele>63.0</ele><time>2026-05-02T08:07:22.001Z</time></trkpt><trkpt lat="43.39403226003893" lon="-4.644932119532572"><ele>63.8</ele><time>2026-05-02T08:07:23.001Z</time></trkpt><trkpt lat="43.39401579079202" lon="-4.644797126025671"><ele>64.6</ele><time>2026-05-02T08:07:24.001Z</time></trkpt><trkpt lat="43.39399699051188" lon="-4.644661367061769"><ele>65.4</ele><time>2026-05-02T08:07:25.001Z</time></trkpt><trkpt lat="43.39398170017482" lon="-4.644516396319116"><ele>66.2</ele><time>2026-05-02T08:07:26.001Z</time></trkpt><trkpt lat="43.39396587639021" lon="-4.644385148582828"><ele>67.0</ele><time>2026-05-02T08:07:27.001Z</time></trkpt><trkpt lat="43.393955358147146" lon="-4.644238635483012"><ele>67.4</ele><time>2026-05-02T08:07:28.001Z</time></trkpt><trkpt lat="43.393945611049894" lon="-4.64409789612635"><ele>67.80000000000001</ele><time>2026-05-02T08:07:29.001Z</time></trkpt><trkpt lat="43.39392980578154" lon="-4.643947060994438"><ele>68.2</ele><time>2026-05-02T08:07:30.001Z</time></trkpt><trkpt lat="43.39391885737809" lon="-4.643810329826447"><ele>68.60000000000001</ele><time>2026-05-02T08:07:31.001Z</time></trkpt><trkpt lat="43.39390078125243" lon="-4.643660081329281"><ele>69.0</ele><time>2026-05-02T08:07:32.001Z</time></trkpt><trkpt lat="43.393901545362944" lon="-4.643529759640127"><ele>68.0</ele><time>2026-05-02T08:07:33.001Z</time></trkpt><trkpt lat="43.393890203896035" lon="-4.643381770846416"><ele>67.0</ele><time>2026-05-02T08:07:34.001Z</time></trkpt><trkpt lat="43.39388237227699" lon="-4.643234155057618"><ele>66.0</ele><time>2026-05-02T08:07:35.001Z</time></trkpt><trkpt lat="43.393879348846546" lon="-4.643086894016171"><ele>65.0</ele><time>2026-05-02T08:07:36.001Z</time></trkpt><trkpt lat="43.39385901257082" lon="-4.642939563726466"><ele>64.0</ele><time>2026-05-02T08:07:37.001Z</time></trkpt><trkpt lat="43.393797185840576" lon="-4.642815356645285"><ele>63.5</ele><time>2026-05-02T08:07:38.001Z</time></trkpt><trkpt lat="43.3938461768975" lon="-4.642643173247068"><ele>63.0</ele><time>2026-05-02T08:07:39.001Z</time></trkpt><trkpt lat="43.39385500775491" lon="-4.642494944619267"><ele>62.5</ele><time>2026-05-02T08:07:40.001Z</time></trkpt><trkpt lat="43.3938478189687" lon="-4.642347477267884"><ele>62.0</ele><time>2026-05-02T08:07:41.001Z</time></trkpt><trkpt lat="43.39383205516815" lon="-4.642196366025501"><ele>65.2</ele><time>2026-05-02T08:07:42.001Z</time></trkpt><trkpt lat="43.39382801347979" lon="-4.642047919800544"><ele>68.4</ele><time>2026-05-02T08:07:43.001Z</time></trkpt><trkpt lat="43.39382253587106" lon="-4.641903431794255"><ele>71.6</ele><time>2026-05-02T08:07:44.001Z</time></trkpt><trkpt lat="43.393819052872075" lon="-4.641750966534425"><ele>74.8</ele><time>2026-05-02T08:07:45.001Z</time></trkpt><trkpt lat="43.39381423342409" lon="-4.641602206071236"><ele>78.0</ele><time>2026-05-02T08:07:46.001Z</time></trkpt><trkpt lat="43.39380887171297" lon="-4.641452716748989"><ele>78.0</ele><time>2026-05-02T08:07:47.001Z</time></trkpt><trkpt lat="43.39380606432055" lon="-4.641304011106748"><ele>78.0</ele><time>2026-05-02T08:07:48.001Z</time></trkpt><trkpt lat="43.39380109653939" lon="-4.641160936039317"><ele>78.0</ele><time>2026-05-02T08:07:49.001Z</time></trkpt><trkpt lat="43.39379720877278" lon="-4.641011357577215"><ele>78.0</ele><time>2026-05-02T08:07:50.001Z</time></trkpt><trkpt lat="43.393791574531704" lon="-4.640862492342103"><ele>78.0</ele><time>2026-05-02T08:07:51.001Z</time></trkpt><trkpt lat="43.39378891295973" lon="-4.64071603634757"><ele>78.0</ele><time>2026-05-02T08:07:52.001Z</time></trkpt><trkpt lat="43.393784460233704" lon="-4.640560900722586"><ele>78.0</ele><time>2026-05-02T08:07:53.001Z</time></trkpt><trkpt lat="43.393779283170076" lon="-4.640409097414"><ele>78.0</ele><time>2026-05-02T08:07:54.001Z</time></trkpt><trkpt lat="43.39376871120577" lon="-4.640259827414894"><ele>78.0</ele><time>2026-05-02T08:07:55.001Z</time></trkpt><trkpt lat="43.39376350276522" lon="-4.64011089050164"><ele>78.0</ele><time>2026-05-02T08:07:56.001Z</time></trkpt><trkpt lat="43.3937572389469" lon="-4.639962958630792"><ele>78.4</ele><time>2026-05-02T08:07:57.001Z</time></trkpt><trkpt lat="43.3937529762385" lon="-4.639814597536866"><ele>78.8</ele><time>2026-05-02T08:07:58.001Z</time></trkpt><trkpt lat="43.39374992425141" lon="-4.639663533706003"><ele>79.2</ele><time>2026-05-02T08:07:59.001Z</time></trkpt><trkpt lat="43.39374847276067" lon="-4.6395136976933085"><ele>79.6</ele><time>2026-05-02T08:08:00.001Z</time></trkpt><trkpt lat="43.39373077185856" lon="-4.639364372379004"><ele>80.0</ele><time>2026-05-02T08:08:01.001Z</time></trkpt><trkpt lat="43.39372400373878" lon="-4.639171174157202"><ele>80.0</ele><time>2026-05-02T08:08:02.001Z</time></trkpt><trkpt lat="43.39372036970105" lon="-4.639067439128596"><ele>80.0</ele><time>2026-05-02T08:08:03.001Z</time></trkpt><trkpt lat="43.39363646689398" lon="-4.638992003891281"><ele>80.0</ele><time>2026-05-02T08:08:04.001Z</time></trkpt><trkpt lat="43.39363773225879" lon="-4.638895928650647"><ele>80.0</ele><time>2026-05-02T08:08:05.001Z</time></trkpt><trkpt lat="43.39364311460974" lon="-4.638765643568209"><ele>80.0</ele><time>2026-05-02T08:08:06.001Z</time></trkpt><trkpt lat="43.393661608595664" lon="-4.638525060719325"><ele>77.0</ele><time>2026-05-02T08:08:07.001Z</time></trkpt><trkpt lat="43.3936934706345" lon="-4.638299595743948"><ele>74.0</ele><time>2026-05-02T08:08:08.001Z</time></trkpt><trkpt lat="43.39369169886434" lon="-4.6381108037112595"><ele>71.0</ele><time>2026-05-02T08:08:09.001Z</time></trkpt><trkpt lat="43.39367774646093" lon="-4.637895472589909"><ele>70.0</ele><time>2026-05-02T08:08:11.001Z</time></trkpt><trkpt lat="43.39367649358734" lon="-4.637746379650165"><ele>69.0</ele><time>2026-05-02T08:08:12.001Z</time></trkpt><trkpt lat="43.3936721396042" lon="-4.637598192828093"><ele>68.0</ele><time>2026-05-02T08:08:13.001Z</time></trkpt><trkpt lat="43.39366890992351" lon="-4.6374494711743175"><ele>67.0</ele><time>2026-05-02T08:08:14.001Z</time></trkpt><trkpt lat="43.393663227148096" lon="-4.637304694194445"><ele>66.0</ele><time>2026-05-02T08:08:15.001Z</time></trkpt><trkpt lat="43.393658115756296" lon="-4.637158908973487"><ele>66.0</ele><time>2026-05-02T08:08:16.001Z</time></trkpt><trkpt lat="43.393655734416846" lon="-4.6370112341821335"><ele>66.0</ele><time>2026-05-02T08:08:17.001Z</time></trkpt><trkpt lat="43.39364752984605" lon="-4.636865871802545"><ele>66.0</ele><time>2026-05-02T08:08:18.001Z</time></trkpt><trkpt lat="43.393650927473786" lon="-4.63671149797766"><ele>66.0</ele><time>2026-05-02T08:08:19.001Z</time></trkpt><trkpt lat="43.39364176521682" lon="-4.636568322629637"><ele>66.0</ele><time>2026-05-02T08:08:20.001Z</time></trkpt><trkpt lat="43.39362797538363" lon="-4.636421658978809"><ele>66.0</ele><time>2026-05-02T08:08:21.001Z</time></trkpt><trkpt lat="43.39362373961191" lon="-4.636278040187757"><ele>66.0</ele><time>2026-05-02T08:08:22.001Z</time></trkpt><trkpt lat="43.39361719581611" lon="-4.636127485377004"><ele>66.0</ele><time>2026-05-02T08:08:23.001Z</time></trkpt><trkpt lat="43.3936015285772" lon="-4.6359858916280565"><ele>66.0</ele><time>2026-05-02T08:08:24.001Z</time></trkpt><trkpt lat="43.393603716294194" lon="-4.635826233309815"><ele>66.0</ele><time>2026-05-02T08:08:25.001Z</time></trkpt><trkpt lat="43.39358892357128" lon="-4.6356850362811475"><ele>65.8</ele><time>2026-05-02T08:08:26.001Z</time></trkpt><trkpt lat="43.39357634347664" lon="-4.635542765799068"><ele>65.6</ele><time>2026-05-02T08:08:27.001Z</time></trkpt><trkpt lat="43.393560756881286" lon="-4.635400006946291"><ele>65.4</ele><time>2026-05-02T08:08:28.001Z</time></trkpt><trkpt lat="43.39354472251994" lon="-4.63525122983051"><ele>65.2</ele><time>2026-05-02T08:08:29.001Z</time></trkpt><trkpt lat="43.39351889909555" lon="-4.6351089422774185"><ele>65.0</ele><time>2026-05-02T08:08:30.001Z</time></trkpt><trkpt lat="43.39349259316937" lon="-4.634968230518807"><ele>65.0</ele><time>2026-05-02T08:08:31.001Z</time></trkpt><trkpt lat="43.39345748609772" lon="-4.6348214300913835"><ele>65.0</ele><time>2026-05-02T08:08:32.001Z</time></trkpt><trkpt lat="43.393427607241094" lon="-4.634677193982303"><ele>65.0</ele><time>2026-05-02T08:08:33.001Z</time></trkpt><trkpt lat="43.393404394724875" lon="-4.634537750247227"><ele>65.0</ele><time>2026-05-02T08:08:34.001Z</time></trkpt><trkpt lat="43.39337783640759" lon="-4.63439444053379"><ele>65.0</ele><time>2026-05-02T08:08:35.001Z</time></trkpt><trkpt lat="43.393338503003875" lon="-4.634254957890688"><ele>62.75</ele><time>2026-05-02T08:08:36.001Z</time></trkpt><trkpt lat="43.393311441527366" lon="-4.634119167992191"><ele>60.5</ele><time>2026-05-02T08:08:37Z</time></trkpt><trkpt lat="43.39326447318695" lon="-4.633974712549524"><ele>58.25</ele><time>2026-05-02T08:08:38Z</time></trkpt><trkpt lat="43.39322491696565" lon="-4.633828578760133"><ele>56.0</ele><time>2026-05-02T08:08:39Z</time></trkpt><trkpt lat="43.393165131369464" lon="-4.633621704183638"><ele>55.0</ele><time>2026-05-02T08:08:40Z</time></trkpt><trkpt lat="43.39307137563853" lon="-4.633473377215755"><ele>54.0</ele><time>2026-05-02T08:08:41Z</time></trkpt><trkpt lat="43.39308118093739" lon="-4.633282752333322"><ele>53.0</ele><time>2026-05-02T08:08:43Z</time></trkpt><trkpt lat="43.39304662417029" lon="-4.633145327796962"><ele>52.0</ele><time>2026-05-02T08:08:44Z</time></trkpt><trkpt lat="43.3930111288368" lon="-4.633004171312402"><ele>57.8</ele><time>2026-05-02T08:08:45Z</time></trkpt><trkpt lat="43.39298669850196" lon="-4.632860546146555"><ele>63.6</ele><time>2026-05-02T08:08:46Z</time></trkpt><trkpt lat="43.392948899203" lon="-4.63271876877608"><ele>69.39999999999999</ele><time>2026-05-02T08:08:47Z</time></trkpt><trkpt lat="43.39291820439792" lon="-4.63257923557357"><ele>75.2</ele><time>2026-05-02T08:08:48Z</time></trkpt><trkpt lat="43.39288627276491" lon="-4.63243660603451"><ele>81.0</ele><time>2026-05-02T08:08:49Z</time></trkpt><trkpt lat="43.39285307005583" lon="-4.632292796293465"><ele>81.0</ele><time>2026-05-02T08:08:50Z</time></trkpt><trkpt lat="43.39281722228842" lon="-4.63215157519072"><ele>81.0</ele><time>2026-05-02T08:08:51Z</time></trkpt><trkpt lat="43.39279137174381" lon="-4.6320096679792915"><ele>81.0</ele><time>2026-05-02T08:08:52Z</time></trkpt><trkpt lat="43.39276452256359" lon="-4.631866213108515"><ele>81.0</ele><time>2026-05-02T08:08:53Z</time></trkpt><trkpt lat="43.39273949824903" lon="-4.631722650586627"><ele>81.0</ele><time>2026-05-02T08:08:54Z</time></trkpt><trkpt lat="43.39271650368477" lon="-4.631582643793781"><ele>79.6</ele><time>2026-05-02T08:08:55Z</time></trkpt><trkpt lat="43.39268599692966" lon="-4.631435445925194"><ele>78.19999999999999</ele><time>2026-05-02T08:08:56Z</time></trkpt><trkpt lat="43.39266498402941" lon="-4.631290818419678"><ele>76.80000000000001</ele><time>2026-05-02T08:08:57Z</time></trkpt><trkpt lat="43.39264463894169" lon="-4.631145503252831"><ele>75.4</ele><time>2026-05-02T08:08:58Z</time></trkpt><trkpt lat="43.39262385573429" lon="-4.631000067602733"><ele>74.0</ele><time>2026-05-02T08:08:59Z</time></trkpt><trkpt lat="43.39260388886373" lon="-4.630854386656161"><ele>72.4</ele><time>2026-05-02T08:09:00Z</time></trkpt><trkpt lat="43.3925878727434" lon="-4.630716175568302"><ele>70.80000000000001</ele><time>2026-05-02T08:09:01Z</time></trkpt><trkpt lat="43.392568468606825" lon="-4.630570639448201"><ele>69.19999999999999</ele><time>2026-05-02T08:09:02Z</time></trkpt><trkpt lat="43.392543963190256" lon="-4.63042462507691"><ele>67.6</ele><time>2026-05-02T08:09:03Z</time></trkpt><trkpt lat="43.39252858444251" lon="-4.630285138696679"><ele>66.0</ele><time>2026-05-02T08:09:04Z</time></trkpt><trkpt lat="43.39251626140654" lon="-4.630137454703453"><ele>64.0</ele><time>2026-05-02T08:09:05Z</time></trkpt><trkpt lat="43.392506279970455" lon="-4.629989525921091"><ele>61.99999999999999</ele><time>2026-05-02T08:09:06Z</time></trkpt><trkpt lat="43.39248375685646" lon="-4.629846577599723"><ele>59.99999999999999</ele><time>2026-05-02T08:09:07Z</time></trkpt><trkpt lat="43.3924695093908" lon="-4.629699659903255"><ele>58.0</ele><time>2026-05-02T08:09:08Z</time></trkpt><trkpt lat="43.39245464853002" lon="-4.629553336590358"><ele>56.0</ele><time>2026-05-02T08:09:09Z</time></trkpt><trkpt lat="43.39244181689128" lon="-4.629404796700563"><ele>54.8</ele><time>2026-05-02T08:09:10Z</time></trkpt><trkpt lat="43.392425315803834" lon="-4.629257929752149"><ele>53.599999999999994</ele><time>2026-05-02T08:09:11Z</time></trkpt><trkpt lat="43.39241138982307" lon="-4.629111223771177"><ele>52.4</ele><time>2026-05-02T08:09:12Z</time></trkpt><trkpt lat="43.39239565130036" lon="-4.628966180581365"><ele>51.2</ele><time>2026-05-02T08:09:13Z</time></trkpt><trkpt lat="43.39238113924871" lon="-4.628822486035307"><ele>50.0</ele><time>2026-05-02T08:09:14Z</time></trkpt><trkpt lat="43.39236389404086" lon="-4.628677210032982"><ele>50.0</ele><time>2026-05-02T08:09:15Z</time></trkpt><trkpt lat="43.39234949735876" lon="-4.6285303682996926"><ele>50.0</ele><time>2026-05-02T08:09:16Z</time></trkpt><trkpt lat="43.39233211463189" lon="-4.628384719569969"><ele>50.0</ele><time>2026-05-02T08:09:17Z</time></trkpt><trkpt lat="43.39231737858171" lon="-4.628239895796645"><ele>50.0</ele><time>2026-05-02T08:09:18Z</time></trkpt><trkpt lat="43.39230275705382" lon="-4.628089776186407"><ele>50.0</ele><time>2026-05-02T08:09:19Z</time></trkpt><trkpt lat="43.39228999146107" lon="-4.627940046284865"><ele>48.8</ele><time>2026-05-02T08:09:20Z</time></trkpt><trkpt lat="43.39227525704289" lon="-4.6277929459564335"><ele>47.6</ele><time>2026-05-02T08:09:21Z</time></trkpt><trkpt lat="43.39226009787907" lon="-4.627641618304139"><ele>46.400000000000006</ele><time>2026-05-02T08:09:22Z</time></trkpt><trkpt lat="43.39224500490149" lon="-4.627495465481307"><ele>45.2</ele><time>2026-05-02T08:09:23Z</time></trkpt><trkpt lat="43.39223170464701" lon="-4.627350964400836"><ele>44.0</ele><time>2026-05-02T08:09:24Z</time></trkpt><trkpt lat="43.39221696245761" lon="-4.62720205887752"><ele>44.0</ele><time>2026-05-02T08:09:25Z</time></trkpt><trkpt lat="43.39220123326093" lon="-4.6270568517626955"><ele>44.0</ele><time>2026-05-02T08:09:26Z</time></trkpt><trkpt lat="43.392188941680956" lon="-4.626909697093213"><ele>44.0</ele><time>2026-05-02T08:09:27.001Z</time></trkpt><trkpt lat="43.392173527549026" lon="-4.626758592818035"><ele>44.0</ele><time>2026-05-02T08:09:28.001Z</time></trkpt><trkpt lat="43.392152297492984" lon="-4.626606694528384"><ele>44.0</ele><time>2026-05-02T08:09:29.001Z</time></trkpt><trkpt lat="43.39213919051539" lon="-4.626458980282325"><ele>49.0</ele><time>2026-05-02T08:09:30.001Z</time></trkpt><trkpt lat="43.39213014860324" lon="-4.626310667351567"><ele>54.0</ele><time>2026-05-02T08:09:31.001Z</time></trkpt><trkpt lat="43.39212361560972" lon="-4.62616155000835"><ele>59.00000000000001</ele><time>2026-05-02T08:09:32.001Z</time></trkpt><trkpt lat="43.39210849526933" lon="-4.626011570882834"><ele>64.0</ele><time>2026-05-02T08:09:33.001Z</time></trkpt><trkpt lat="43.39210130878297" lon="-4.625862970779692"><ele>69.0</ele><time>2026-05-02T08:09:34.001Z</time></trkpt><trkpt lat="43.39209522502196" lon="-4.625714843482553"><ele>69.0</ele><time>2026-05-02T08:09:35.001Z</time></trkpt><trkpt lat="43.39209235471047" lon="-4.625562729296292"><ele>69.0</ele><time>2026-05-02T08:09:36.001Z</time></trkpt><trkpt lat="43.39208529693851" lon="-4.625413425484986"><ele>69.0</ele><time>2026-05-02T08:09:37.001Z</time></trkpt><trkpt lat="43.392081474381165" lon="-4.625262543613462"><ele>69.0</ele><time>2026-05-02T08:09:38.001Z</time></trkpt><trkpt lat="43.39208002950213" lon="-4.625112844291006"><ele>69.0</ele><time>2026-05-02T08:09:39.001Z</time></trkpt><trkpt lat="43.392079151639095" lon="-4.624964169559931"><ele>68.2</ele><time>2026-05-02T08:09:40.001Z</time></trkpt><trkpt lat="43.39207601800466" lon="-4.624814378986383"><ele>67.4</ele><time>2026-05-02T08:09:41.001Z</time></trkpt><trkpt lat="43.392077252821025" lon="-4.624665984267233"><ele>66.6</ele><time>2026-05-02T08:09:42.001Z</time></trkpt><trkpt lat="43.39207615120448" lon="-4.624517816827671"><ele>65.8</ele><time>2026-05-02T08:09:43.001Z</time></trkpt><trkpt lat="43.3920781193699" lon="-4.624366048288421"><ele>65.0</ele><time>2026-05-02T08:09:44.001Z</time></trkpt><trkpt lat="43.39207931926728" lon="-4.624214558193999"><ele>64.6</ele><time>2026-05-02T08:09:45.001Z</time></trkpt><trkpt lat="43.39208205649806" lon="-4.624065673335845"><ele>64.2</ele><time>2026-05-02T08:09:46.001Z</time></trkpt><trkpt lat="43.39208250472476" lon="-4.623918263127049"><ele>63.8</ele><time>2026-05-02T08:09:47.001Z</time></trkpt><trkpt lat="43.39208313861917" lon="-4.623766743833564"><ele>63.4</ele><time>2026-05-02T08:09:48.001Z</time></trkpt><trkpt lat="43.39208424027841" lon="-4.623615137850795"><ele>63.0</ele><time>2026-05-02T08:09:49.001Z</time></trkpt><trkpt lat="43.39208663604086" lon="-4.623465497082913"><ele>63.0</ele><time>2026-05-02T08:09:50.001Z</time></trkpt><trkpt lat="43.392088730334955" lon="-4.623316285531873"><ele>63.0</ele><time>2026-05-02T08:09:51.001Z</time></trkpt><trkpt lat="43.392091718067284" lon="-4.623176996732709"><ele>63.0</ele><time>2026-05-02T08:09:52.001Z</time></trkpt><trkpt lat="43.39208860488852" lon="-4.623015834997332"><ele>63.0</ele><time>2026-05-02T08:09:53.001Z</time></trkpt><trkpt lat="43.39209767541389" lon="-4.622878722190795"><ele>63.0</ele><time>2026-05-02T08:09:54.001Z</time></trkpt><trkpt lat="43.39208421037363" lon="-4.622777488378452"><ele>61.0</ele><time>2026-05-02T08:09:55.001Z</time></trkpt><trkpt lat="43.39208500668437" lon="-4.622570054640999"><ele>59.0</ele><time>2026-05-02T08:09:57.001Z</time></trkpt><trkpt lat="43.392096861641384" lon="-4.622140718475565"><ele>59.0</ele><time>2026-05-02T08:09:59.001Z</time></trkpt><trkpt lat="43.392097828972624" lon="-4.621994392529789"><ele>59.00000000000001</ele><time>2026-05-02T08:10:00.001Z</time></trkpt><trkpt lat="43.392099494638856" lon="-4.621850616563297"><ele>59.00000000000001</ele><time>2026-05-02T08:10:01.001Z</time></trkpt><trkpt lat="43.39209933804399" lon="-4.621706486956858"><ele>59.0</ele><time>2026-05-02T08:10:02.001Z</time></trkpt><trkpt lat="43.39209967339499" lon="-4.6215607462985195"><ele>59.0</ele><time>2026-05-02T08:10:03.001Z</time></trkpt><trkpt lat="43.39210074804455" lon="-4.62141628336205"><ele>58.6</ele><time>2026-05-02T08:10:04.001Z</time></trkpt><trkpt lat="43.39210088816426" lon="-4.62127029692359"><ele>58.2</ele><time>2026-05-02T08:10:05.001Z</time></trkpt><trkpt lat="43.39210231794201" lon="-4.621125947165564"><ele>57.800000000000004</ele><time>2026-05-02T08:10:06.001Z</time></trkpt><trkpt lat="43.39210606667824" lon="-4.62097932450449"><ele>57.400000000000006</ele><time>2026-05-02T08:10:07.001Z</time></trkpt><trkpt lat="43.392105282723456" lon="-4.620832078910874"><ele>57.0</ele><time>2026-05-02T08:10:08.001Z</time></trkpt><trkpt lat="43.392103015078504" lon="-4.6206860628078"><ele>57.6</ele><time>2026-05-02T08:10:09.001Z</time></trkpt><trkpt lat="43.39210455479001" lon="-4.620540532981769"><ele>58.2</ele><time>2026-05-02T08:10:10.001Z</time></trkpt><trkpt lat="43.392101854250996" lon="-4.620390066893518"><ele>58.8</ele><time>2026-05-02T08:10:11.001Z</time></trkpt><trkpt lat="43.39210161601381" lon="-4.620244024192857"><ele>59.4</ele><time>2026-05-02T08:10:12.001Z</time></trkpt><trkpt lat="43.392103027588135" lon="-4.62010006787372"><ele>60.0</ele><time>2026-05-02T08:10:13.001Z</time></trkpt><trkpt lat="43.39210265896721" lon="-4.619949633630919"><ele>60.0</ele><time>2026-05-02T08:10:14.001Z</time></trkpt><trkpt lat="43.39210340142474" lon="-4.6198026565059385"><ele>60.0</ele><time>2026-05-02T08:10:15.001Z</time></trkpt><trkpt lat="43.392104982430986" lon="-4.619657328401726"><ele>60.0</ele><time>2026-05-02T08:10:16.001Z</time></trkpt><trkpt lat="43.392108429086186" lon="-4.619511282542987"><ele>60.0</ele><time>2026-05-02T08:10:17.001Z</time></trkpt><trkpt lat="43.39210954449071" lon="-4.619366869746671"><ele>60.0</ele><time>2026-05-02T08:10:18.001Z</time></trkpt><trkpt lat="43.392108323333076" lon="-4.619221372014532"><ele>60.75</ele><time>2026-05-02T08:10:19.001Z</time></trkpt><trkpt lat="43.392102751843" lon="-4.619074100878737"><ele>61.5</ele><time>2026-05-02T08:10:20.001Z</time></trkpt><trkpt lat="43.39208735810948" lon="-4.61882998644821"><ele>62.25</ele><time>2026-05-02T08:10:21.001Z</time></trkpt><trkpt lat="43.392079653584865" lon="-4.618624401622565"><ele>63.0</ele><time>2026-05-02T08:10:23.001Z</time></trkpt><trkpt lat="43.39206952204435" lon="-4.618478179237994"><ele>62.599999999999994</ele><time>2026-05-02T08:10:24.001Z</time></trkpt><trkpt lat="43.392058233959105" lon="-4.618329515600055"><ele>62.199999999999996</ele><time>2026-05-02T08:10:25.001Z</time></trkpt><trkpt lat="43.39204560953173" lon="-4.618184714583173"><ele>61.8</ele><time>2026-05-02T08:10:26.001Z</time></trkpt><trkpt lat="43.392034754041674" lon="-4.618038093562451"><ele>61.4</ele><time>2026-05-02T08:10:27.001Z</time></trkpt><trkpt lat="43.392022208539956" lon="-4.617894576879177"><ele>61.0</ele><time>2026-05-02T08:10:28.001Z</time></trkpt><trkpt lat="43.392014277184906" lon="-4.617754071996685"><ele>61.0</ele><time>2026-05-02T08:10:29.001Z</time></trkpt><trkpt lat="43.39201341294825" lon="-4.61760936126517"><ele>60.99999999999999</ele><time>2026-05-02T08:10:30.001Z</time></trkpt><trkpt lat="43.39201245500011" lon="-4.617461934757691"><ele>60.99999999999999</ele><time>2026-05-02T08:10:31.001Z</time></trkpt><trkpt lat="43.3920176524853" lon="-4.617317108195986"><ele>61.0</ele><time>2026-05-02T08:10:32.001Z</time></trkpt><trkpt lat="43.39203158732604" lon="-4.617172185854369"><ele>61.0</ele><time>2026-05-02T08:10:33.001Z</time></trkpt><trkpt lat="43.392051805040396" lon="-4.617025064870184"><ele>62.0</ele><time>2026-05-02T08:10:34.001Z</time></trkpt><trkpt lat="43.39207714750499" lon="-4.6168891636235125"><ele>62.99999999999999</ele><time>2026-05-02T08:10:35.001Z</time></trkpt><trkpt lat="43.392101092911965" lon="-4.616748768450833"><ele>63.99999999999999</ele><time>2026-05-02T08:10:36.001Z</time></trkpt><trkpt lat="43.3921245070302" lon="-4.616607883198269"><ele>65.0</ele><time>2026-05-02T08:10:37.001Z</time></trkpt><trkpt lat="43.39214540496157" lon="-4.616464807466239"><ele>66.0</ele><time>2026-05-02T08:10:38.001Z</time></trkpt><trkpt lat="43.3921690042818" lon="-4.616322299678524"><ele>62.599999999999994</ele><time>2026-05-02T08:10:39.001Z</time></trkpt><trkpt lat="43.392187403360865" lon="-4.616179740603093"><ele>59.199999999999996</ele><time>2026-05-02T08:10:40.001Z</time></trkpt><trkpt lat="43.39219950351091" lon="-4.616036750913604"><ele>55.8</ele><time>2026-05-02T08:10:41.001Z</time></trkpt><trkpt lat="43.392201356161785" lon="-4.615891056088155"><ele>52.400000000000006</ele><time>2026-05-02T08:10:42.001Z</time></trkpt><trkpt lat="43.392197562639446" lon="-4.615746404945501"><ele>49.0</ele><time>2026-05-02T08:10:43Z</time></trkpt><trkpt lat="43.39219018801341" lon="-4.615600508431046"><ele>54.2</ele><time>2026-05-02T08:10:44Z</time></trkpt><trkpt lat="43.392166413433955" lon="-4.615457825970111"><ele>59.400000000000006</ele><time>2026-05-02T08:10:45Z</time></trkpt><trkpt lat="43.39214346999486" lon="-4.615315549225754"><ele>64.6</ele><time>2026-05-02T08:10:46Z</time></trkpt><trkpt lat="43.392124584558836" lon="-4.615172976924993"><ele>69.8</ele><time>2026-05-02T08:10:47Z</time></trkpt><trkpt lat="43.39210759780705" lon="-4.615027148029995"><ele>75.0</ele><time>2026-05-02T08:10:48Z</time></trkpt><trkpt lat="43.39209695999848" lon="-4.614863832985292"><ele>75.0</ele><time>2026-05-02T08:10:49Z</time></trkpt><trkpt lat="43.39207300794968" lon="-4.614662453069872"><ele>75.0</ele><time>2026-05-02T08:10:50Z</time></trkpt><trkpt lat="43.39206780423726" lon="-4.614572832973475"><ele>75.0</ele><time>2026-05-02T08:10:51Z</time></trkpt><trkpt lat="43.39206595015677" lon="-4.614423631803152"><ele>75.0</ele><time>2026-05-02T08:10:52Z</time></trkpt><trkpt lat="43.392069730618104" lon="-4.6142663696248745"><ele>75.0</ele><time>2026-05-02T08:10:53Z</time></trkpt><trkpt lat="43.39207626978503" lon="-4.614116766643664"><ele>73.2</ele><time>2026-05-02T08:10:54Z</time></trkpt><trkpt lat="43.39208790916356" lon="-4.613963823117682"><ele>71.4</ele><time>2026-05-02T08:10:55Z</time></trkpt><trkpt lat="43.392100982602074" lon="-4.6138125943983965"><ele>69.6</ele><time>2026-05-02T08:10:56Z</time></trkpt><trkpt lat="43.39212053748195" lon="-4.613663016174901"><ele>67.8</ele><time>2026-05-02T08:10:57Z</time></trkpt><trkpt lat="43.39213505677479" lon="-4.613507924044583"><ele>66.0</ele><time>2026-05-02T08:10:58Z</time></trkpt><trkpt lat="43.3921502402965" lon="-4.613348064676165"><ele>66.0</ele><time>2026-05-02T08:10:59Z</time></trkpt><trkpt lat="43.39216594472735" lon="-4.613193360456711"><ele>66.0</ele><time>2026-05-02T08:11:00Z</time></trkpt><trkpt lat="43.39218191237495" lon="-4.613041712969206"><ele>66.0</ele><time>2026-05-02T08:11:01Z</time></trkpt><trkpt lat="43.39219605630805" lon="-4.612888388008783"><ele>66.0</ele><time>2026-05-02T08:11:02Z</time></trkpt><trkpt lat="43.39220834577715" lon="-4.6127364860578295"><ele>66.0</ele><time>2026-05-02T08:11:03Z</time></trkpt><trkpt lat="43.392222249795005" lon="-4.612586927536389"><ele>60.599999999999994</ele><time>2026-05-02T08:11:04Z</time></trkpt><trkpt lat="43.39223668183599" lon="-4.612437563984482"><ele>55.199999999999996</ele><time>2026-05-02T08:11:05Z</time></trkpt><trkpt lat="43.392250834357476" lon="-4.612285458955844"><ele>49.8</ele><time>2026-05-02T08:11:06Z</time></trkpt><trkpt lat="43.392264479472566" lon="-4.612134334686521"><ele>44.4</ele><time>2026-05-02T08:11:07Z</time></trkpt><trkpt lat="43.3922787303564" lon="-4.611985560338815"><ele>39.0</ele><time>2026-05-02T08:11:08Z</time></trkpt><trkpt lat="43.3922929461016" lon="-4.611834084267628"><ele>38.8</ele><time>2026-05-02T08:11:09Z</time></trkpt><trkpt lat="43.392307496699324" lon="-4.611678555309627"><ele>38.599999999999994</ele><time>2026-05-02T08:11:10Z</time></trkpt><trkpt lat="43.392324630719266" lon="-4.611531768894218"><ele>38.4</ele><time>2026-05-02T08:11:11Z</time></trkpt><trkpt lat="43.392339239383226" lon="-4.611375333215003"><ele>38.199999999999996</ele><time>2026-05-02T08:11:12Z</time></trkpt><trkpt lat="43.39235371478861" lon="-4.6112251222906355"><ele>38.0</ele><time>2026-05-02T08:11:13Z</time></trkpt><trkpt lat="43.39236834916799" lon="-4.611078163307172"><ele>38.8</ele><time>2026-05-02T08:11:14Z</time></trkpt><trkpt lat="43.39238237536091" lon="-4.610922169094721"><ele>39.599999999999994</ele><time>2026-05-02T08:11:15Z</time></trkpt><trkpt lat="43.392398740434864" lon="-4.610775217586113"><ele>40.400000000000006</ele><time>2026-05-02T08:11:16Z</time></trkpt><trkpt lat="43.39241424313701" lon="-4.610624841570882"><ele>41.2</ele><time>2026-05-02T08:11:17Z</time></trkpt><trkpt lat="43.39242886051451" lon="-4.610472872246167"><ele>42.0</ele><time>2026-05-02T08:11:18Z</time></trkpt><trkpt lat="43.39244452530792" lon="-4.6103218154896215"><ele>42.8</ele><time>2026-05-02T08:11:19Z</time></trkpt><trkpt lat="43.392462935248425" lon="-4.6101736140453085"><ele>43.6</ele><time>2026-05-02T08:11:20Z</time></trkpt><trkpt lat="43.39248604824926" lon="-4.610024651585757"><ele>44.4</ele><time>2026-05-02T08:11:21Z</time></trkpt><trkpt lat="43.3925048082019" lon="-4.609874510412632"><ele>45.199999999999996</ele><time>2026-05-02T08:11:22Z</time></trkpt><trkpt lat="43.392530511406186" lon="-4.609727425850617"><ele>46.0</ele><time>2026-05-02T08:11:23Z</time></trkpt><trkpt lat="43.39255776380526" lon="-4.609576695358726"><ele>46.4</ele><time>2026-05-02T08:11:24Z</time></trkpt><trkpt lat="43.392585983786965" lon="-4.609426399135341"><ele>46.8</ele><time>2026-05-02T08:11:25Z</time></trkpt><trkpt lat="43.39261783104077" lon="-4.609280644854954"><ele>47.199999999999996</ele><time>2026-05-02T08:11:26Z</time></trkpt><trkpt lat="43.39264785112263" lon="-4.609135054732506"><ele>47.599999999999994</ele><time>2026-05-02T08:11:27Z</time></trkpt><trkpt lat="43.392679612741084" lon="-4.60899027085314"><ele>48.0</ele><time>2026-05-02T08:11:28Z</time></trkpt><trkpt lat="43.39271421833905" lon="-4.608846275575423"><ele>48.0</ele><time>2026-05-02T08:11:29Z</time></trkpt><trkpt lat="43.39275369682152" lon="-4.608703195358798"><ele>48.0</ele><time>2026-05-02T08:11:30Z</time></trkpt><trkpt lat="43.39278460973873" lon="-4.608558127083245"><ele>48.0</ele><time>2026-05-02T08:11:31Z</time></trkpt><trkpt lat="43.39282310401022" lon="-4.608416297894794"><ele>48.0</ele><time>2026-05-02T08:11:32Z</time></trkpt><trkpt lat="43.39285857038731" lon="-4.60827296949159"><ele>48.0</ele><time>2026-05-02T08:11:33Z</time></trkpt><trkpt lat="43.392890509794746" lon="-4.608125598612631"><ele>49.4</ele><time>2026-05-02T08:11:34.001Z</time></trkpt><trkpt lat="43.392924907381264" lon="-4.607980411230484"><ele>50.8</ele><time>2026-05-02T08:11:35.001Z</time></trkpt><trkpt lat="43.39295429394418" lon="-4.607833672764459"><ele>52.2</ele><time>2026-05-02T08:11:36.001Z</time></trkpt><trkpt lat="43.39298472925862" lon="-4.607684516681009"><ele>53.6</ele><time>2026-05-02T08:11:37.001Z</time></trkpt><trkpt lat="43.39302728811337" lon="-4.607538428742913"><ele>55.0</ele><time>2026-05-02T08:11:38.001Z</time></trkpt><trkpt lat="43.39305059756966" lon="-4.607393162170113"><ele>52.2</ele><time>2026-05-02T08:11:39.001Z</time></trkpt><trkpt lat="43.39309071223459" lon="-4.607248420893587"><ele>49.4</ele><time>2026-05-02T08:11:40.001Z</time></trkpt><trkpt lat="43.393115629235076" lon="-4.607099712876294"><ele>46.599999999999994</ele><time>2026-05-02T08:11:41.001Z</time></trkpt><trkpt lat="43.39315033765646" lon="-4.606951502230221"><ele>43.8</ele><time>2026-05-02T08:11:42.001Z</time></trkpt><trkpt lat="43.39317737135862" lon="-4.606802890977982"><ele>41.0</ele><time>2026-05-02T08:11:43.001Z</time></trkpt><trkpt lat="43.393204223619264" lon="-4.606654111171586"><ele>41.0</ele><time>2026-05-02T08:11:44.001Z</time></trkpt><trkpt lat="43.393227200601274" lon="-4.60650367416774"><ele>41.0</ele><time>2026-05-02T08:11:45.001Z</time></trkpt><trkpt lat="43.39324680172272" lon="-4.6063523515777085"><ele>41.0</ele><time>2026-05-02T08:11:46.001Z</time></trkpt><trkpt lat="43.393259846455514" lon="-4.606200426742625"><ele>41.0</ele><time>2026-05-02T08:11:47.001Z</time></trkpt><trkpt lat="43.393273848100335" lon="-4.606048073523194"><ele>41.0</ele><time>2026-05-02T08:11:48.001Z</time></trkpt><trkpt lat="43.393286864127724" lon="-4.605894227755444"><ele>41.199999999999996</ele><time>2026-05-02T08:11:49.001Z</time></trkpt><trkpt lat="43.3932897284523" lon="-4.605739222531868"><ele>41.4</ele><time>2026-05-02T08:11:50.001Z</time></trkpt><trkpt lat="43.39329332955665" lon="-4.605587665241516"><ele>41.6</ele><time>2026-05-02T08:11:51.001Z</time></trkpt><trkpt lat="43.39329373631496" lon="-4.605434064380541"><ele>41.8</ele><time>2026-05-02T08:11:52.001Z</time></trkpt><trkpt lat="43.39329109379724" lon="-4.605282101008348"><ele>42.0</ele><time>2026-05-02T08:11:53.001Z</time></trkpt><trkpt lat="43.39328398946525" lon="-4.605129390430648"><ele>42.8</ele><time>2026-05-02T08:11:54.001Z</time></trkpt><trkpt lat="43.39327651621847" lon="-4.604978524104012"><ele>43.6</ele><time>2026-05-02T08:11:55.001Z</time></trkpt><trkpt lat="43.39327129524973" lon="-4.604826357788462"><ele>44.4</ele><time>2026-05-02T08:11:56.001Z</time></trkpt><trkpt lat="43.393265021219314" lon="-4.604674801173277"><ele>45.199999999999996</ele><time>2026-05-02T08:11:57.001Z</time></trkpt><trkpt lat="43.393255957630494" lon="-4.6045254460375"><ele>46.0</ele><time>2026-05-02T08:11:58.001Z</time></trkpt><trkpt lat="43.39324746827176" lon="-4.604380523996316"><ele>46.199999999999996</ele><time>2026-05-02T08:11:59.001Z</time></trkpt><trkpt lat="43.393240319181665" lon="-4.604226701276215"><ele>46.4</ele><time>2026-05-02T08:12:00.001Z</time></trkpt><trkpt lat="43.39323558011395" lon="-4.6040790683105834"><ele>46.6</ele><time>2026-05-02T08:12:01.001Z</time></trkpt><trkpt lat="43.39322963158675" lon="-4.603929882749201"><ele>46.8</ele><time>2026-05-02T08:12:02.001Z</time></trkpt><trkpt lat="43.39322784964625" lon="-4.6037814566832544"><ele>47.0</ele><time>2026-05-02T08:12:03.001Z</time></trkpt><trkpt lat="43.39322547116689" lon="-4.603636738805004"><ele>47.0</ele><time>2026-05-02T08:12:04.001Z</time></trkpt><trkpt lat="43.39322303789144" lon="-4.603483574400786"><ele>47.0</ele><time>2026-05-02T08:12:05.001Z</time></trkpt><trkpt lat="43.39322337662556" lon="-4.603338563701717"><ele>47.0</ele><time>2026-05-02T08:12:06.001Z</time></trkpt><trkpt lat="43.39322458598098" lon="-4.603191875618655"><ele>47.0</ele><time>2026-05-02T08:12:07.001Z</time></trkpt><trkpt lat="43.39322188119765" lon="-4.603043646316042"><ele>47.0</ele><time>2026-05-02T08:12:08.001Z</time></trkpt><trkpt lat="43.39322657643246" lon="-4.602895920477896"><ele>47.8</ele><time>2026-05-02T08:12:09.001Z</time></trkpt><trkpt lat="43.39322901165242" lon="-4.602748299270725"><ele>48.6</ele><time>2026-05-02T08:12:10.001Z</time></trkpt><trkpt lat="43.39323434344381" lon="-4.602599277180877"><ele>49.4</ele><time>2026-05-02T08:12:11.001Z</time></trkpt><trkpt lat="43.39324321471616" lon="-4.602427451063576"><ele>50.199999999999996</ele><time>2026-05-02T08:12:12.001Z</time></trkpt><trkpt lat="43.393244967464945" lon="-4.602296893165027"><ele>51.0</ele><time>2026-05-02T08:12:13.001Z</time></trkpt><trkpt lat="43.39325503840928" lon="-4.6021508708217205"><ele>51.0</ele><time>2026-05-02T08:12:14.001Z</time></trkpt><trkpt lat="43.39325568041601" lon="-4.6020011921323025"><ele>51.0</ele><time>2026-05-02T08:12:15.001Z</time></trkpt><trkpt lat="43.393264188140066" lon="-4.6018511437865754"><ele>51.0</ele><time>2026-05-02T08:12:16.001Z</time></trkpt><trkpt lat="43.39327021041307" lon="-4.601701596971723"><ele>51.0</ele><time>2026-05-02T08:12:17.001Z</time></trkpt><trkpt lat="43.39327849975656" lon="-4.6015531931392015"><ele>51.0</ele><time>2026-05-02T08:12:18.001Z</time></trkpt><trkpt lat="43.39329112813125" lon="-4.601406125190163"><ele>50.8</ele><time>2026-05-02T08:12:19.001Z</time></trkpt><trkpt lat="43.39330548452558" lon="-4.60125844417791"><ele>50.599999999999994</ele><time>2026-05-02T08:12:20.001Z</time></trkpt><trkpt lat="43.39331955699079" lon="-4.601109066056451"><ele>50.4</ele><time>2026-05-02T08:12:21.001Z</time></trkpt><trkpt lat="43.39333065201967" lon="-4.600959629298024"><ele>50.2</ele><time>2026-05-02T08:12:22.001Z</time></trkpt><trkpt lat="43.39333832901608" lon="-4.600812157850932"><ele>50.0</ele><time>2026-05-02T08:12:23.001Z</time></trkpt><trkpt lat="43.39336137243329" lon="-4.600665340539821"><ele>50.0</ele><time>2026-05-02T08:12:24.001Z</time></trkpt><trkpt lat="43.39337669443025" lon="-4.600515945473344"><ele>50.0</ele><time>2026-05-02T08:12:25.001Z</time></trkpt><trkpt lat="43.3933931291216" lon="-4.60036527268474"><ele>50.0</ele><time>2026-05-02T08:12:26.001Z</time></trkpt><trkpt lat="43.3934122142366" lon="-4.6002137642802285"><ele>50.0</ele><time>2026-05-02T08:12:27.001Z</time></trkpt><trkpt lat="43.393431963914196" lon="-4.60006499094874"><ele>50.0</ele><time>2026-05-02T08:12:28.001Z</time></trkpt><trkpt lat="43.39344472170124" lon="-4.599908431110915"><ele>50.6</ele><time>2026-05-02T08:12:29.001Z</time></trkpt><trkpt lat="43.39346682333467" lon="-4.599761220559861"><ele>51.2</ele><time>2026-05-02T08:12:30.001Z</time></trkpt><trkpt lat="43.393487975919136" lon="-4.599611702130273"><ele>51.8</ele><time>2026-05-02T08:12:31.001Z</time></trkpt><trkpt lat="43.39351026491416" lon="-4.599460189984293"><ele>52.4</ele><time>2026-05-02T08:12:32.001Z</time></trkpt><trkpt lat="43.39353211322452" lon="-4.59930759333338"><ele>53.0</ele><time>2026-05-02T08:12:33.001Z</time></trkpt><trkpt lat="43.393556046704674" lon="-4.599156716590927"><ele>53.5</ele><time>2026-05-02T08:12:34.001Z</time></trkpt><trkpt lat="43.39357911548683" lon="-4.5990052136748005"><ele>54.0</ele><time>2026-05-02T08:12:35.001Z</time></trkpt><trkpt lat="43.39360199964075" lon="-4.5988534736053115"><ele>54.5</ele><time>2026-05-02T08:12:36.001Z</time></trkpt><trkpt lat="43.39362713254187" lon="-4.598700494163173"><ele>55.0</ele><time>2026-05-02T08:12:37.001Z</time></trkpt><trkpt lat="43.39365265063566" lon="-4.59854856309396"><ele>56.0</ele><time>2026-05-02T08:12:38.001Z</time></trkpt><trkpt lat="43.39367959118972" lon="-4.598396479548835"><ele>57.0</ele><time>2026-05-02T08:12:39.001Z</time></trkpt><trkpt lat="43.393708499237455" lon="-4.5982468919765305"><ele>58.0</ele><time>2026-05-02T08:12:40.001Z</time></trkpt><trkpt lat="43.39373594540366" lon="-4.598095179137171"><ele>59.0</ele><time>2026-05-02T08:12:41.001Z</time></trkpt><trkpt lat="43.393765870861316" lon="-4.597946426032835"><ele>61.0</ele><time>2026-05-02T08:12:42.001Z</time></trkpt><trkpt lat="43.39379798209599" lon="-4.597797896923106"><ele>63.0</ele><time>2026-05-02T08:12:43.001Z</time></trkpt><trkpt lat="43.3938146345595" lon="-4.597632540331844"><ele>65.0</ele><time>2026-05-02T08:12:44.001Z</time></trkpt><trkpt lat="43.393860159599285" lon="-4.59750060170164"><ele>67.0</ele><time>2026-05-02T08:12:45.001Z</time></trkpt><trkpt lat="43.393896032416855" lon="-4.5973505478316"><ele>62.0</ele><time>2026-05-02T08:12:46.001Z</time></trkpt><trkpt lat="43.3939248985533" lon="-4.597197564891618"><ele>57.0</ele><time>2026-05-02T08:12:47.001Z</time></trkpt><trkpt lat="43.39396032472748" lon="-4.597052482560096"><ele>52.0</ele><time>2026-05-02T08:12:48.001Z</time></trkpt><trkpt lat="43.39399854889451" lon="-4.596907737735646"><ele>47.0</ele><time>2026-05-02T08:12:49Z</time></trkpt><trkpt lat="43.394032843843235" lon="-4.596760037935701"><ele>47.0</ele><time>2026-05-02T08:12:50Z</time></trkpt><trkpt lat="43.39406786870015" lon="-4.596617264599871"><ele>47.0</ele><time>2026-05-02T08:12:51Z</time></trkpt><trkpt lat="43.39410700919264" lon="-4.596470680294066"><ele>47.0</ele><time>2026-05-02T08:12:52Z</time></trkpt><trkpt lat="43.39414430900384" lon="-4.596328405386541"><ele>47.0</ele><time>2026-05-02T08:12:53Z</time></trkpt><trkpt lat="43.394182857970314" lon="-4.596181559140912"><ele>47.0</ele><time>2026-05-02T08:12:54Z</time></trkpt><trkpt lat="43.39422143517768" lon="-4.596043014425017"><ele>47.8</ele><time>2026-05-02T08:12:55Z</time></trkpt><trkpt lat="43.394261372404856" lon="-4.595896217770922"><ele>48.6</ele><time>2026-05-02T08:12:56Z</time></trkpt><trkpt lat="43.394299298528836" lon="-4.595753594260192"><ele>49.4</ele><time>2026-05-02T08:12:57Z</time></trkpt><trkpt lat="43.394335824445655" lon="-4.5956104160353295"><ele>50.199999999999996</ele><time>2026-05-02T08:12:58Z</time></trkpt><trkpt lat="43.394374620825104" lon="-4.595464104246703"><ele>51.0</ele><time>2026-05-02T08:12:59Z</time></trkpt><trkpt lat="43.39441306227211" lon="-4.595318747276523"><ele>52.599999999999994</ele><time>2026-05-02T08:13:00Z</time></trkpt><trkpt lat="43.394448802738644" lon="-4.595175178812418"><ele>54.2</ele><time>2026-05-02T08:13:01Z</time></trkpt><trkpt lat="43.39448688224338" lon="-4.595031313151025"><ele>55.800000000000004</ele><time>2026-05-02T08:13:02Z</time></trkpt><trkpt lat="43.394523428939884" lon="-4.59488799347399"><ele>57.400000000000006</ele><time>2026-05-02T08:13:03Z</time></trkpt><trkpt lat="43.3945586000238" lon="-4.594745908467367"><ele>59.0</ele><time>2026-05-02T08:13:04Z</time></trkpt><trkpt lat="43.394592990707096" lon="-4.594599843276439"><ele>60.800000000000004</ele><time>2026-05-02T08:13:05Z</time></trkpt><trkpt lat="43.39462379107846" lon="-4.59445212274933"><ele>62.60000000000001</ele><time>2026-05-02T08:13:06Z</time></trkpt><trkpt lat="43.394653198547374" lon="-4.594305985628339"><ele>64.4</ele><time>2026-05-02T08:13:07Z</time></trkpt><trkpt lat="43.39468291401436" lon="-4.59415694150485"><ele>66.2</ele><time>2026-05-02T08:13:08Z</time></trkpt><trkpt lat="43.3947115732057" lon="-4.59400827144061"><ele>68.0</ele><time>2026-05-02T08:13:09Z</time></trkpt><trkpt lat="43.39473840058388" lon="-4.593861328145383"><ele>64.4</ele><time>2026-05-02T08:13:10Z</time></trkpt><trkpt lat="43.39476383208457" lon="-4.593710969112174"><ele>60.8</ele><time>2026-05-02T08:13:11Z</time></trkpt><trkpt lat="43.39478871425209" lon="-4.593560836938772"><ele>57.2</ele><time>2026-05-02T08:13:12Z</time></trkpt><trkpt lat="43.394810228532464" lon="-4.593411034430767"><ele>53.6</ele><time>2026-05-02T08:13:13Z</time></trkpt><trkpt lat="43.39483585005016" lon="-4.593261084764418"><ele>50.0</ele><time>2026-05-02T08:13:14Z</time></trkpt><trkpt lat="43.39485597059662" lon="-4.593111326463782"><ele>50.0</ele><time>2026-05-02T08:13:15Z</time></trkpt><trkpt lat="43.394882351861405" lon="-4.592964134279249"><ele>50.0</ele><time>2026-05-02T08:13:16Z</time></trkpt><trkpt lat="43.394907124347256" lon="-4.592812768822254"><ele>50.0</ele><time>2026-05-02T08:13:17Z</time></trkpt><trkpt lat="43.39492813936982" lon="-4.5926637278602"><ele>50.0</ele><time>2026-05-02T08:13:18Z</time></trkpt><trkpt lat="43.394952047994295" lon="-4.592512729452929"><ele>50.0</ele><time>2026-05-02T08:13:19Z</time></trkpt><trkpt lat="43.394974321646664" lon="-4.592360703041168"><ele>50.0</ele><time>2026-05-02T08:13:20Z</time></trkpt><trkpt lat="43.39499273740807" lon="-4.592208010595732"><ele>50.0</ele><time>2026-05-02T08:13:21Z</time></trkpt><trkpt lat="43.39501056564722" lon="-4.592054220871434"><ele>50.0</ele><time>2026-05-02T08:13:22Z</time></trkpt><trkpt lat="43.39502624646581" lon="-4.591902456737706"><ele>50.0</ele><time>2026-05-02T08:13:23Z</time></trkpt><trkpt lat="43.39504074787192" lon="-4.591751522540912"><ele>50.0</ele><time>2026-05-02T08:13:24Z</time></trkpt><trkpt lat="43.39504836939905" lon="-4.5915993589876285"><ele>50.0</ele><time>2026-05-02T08:13:25Z</time></trkpt><trkpt lat="43.3950558744271" lon="-4.591445808521651"><ele>50.0</ele><time>2026-05-02T08:13:26Z</time></trkpt><trkpt lat="43.395061846591624" lon="-4.591290375828715"><ele>50.0</ele><time>2026-05-02T08:13:27Z</time></trkpt><trkpt lat="43.39506658801247" lon="-4.591135883612908"><ele>50.0</ele><time>2026-05-02T08:13:28Z</time></trkpt><trkpt lat="43.39506467812798" lon="-4.590984374908848"><ele>50.0</ele><time>2026-05-02T08:13:29Z</time></trkpt><trkpt lat="43.39506375994016" lon="-4.590830780513862"><ele>50.2</ele><time>2026-05-02T08:13:30Z</time></trkpt><trkpt lat="43.39506011059872" lon="-4.590678725480446"><ele>50.4</ele><time>2026-05-02T08:13:31Z</time></trkpt><trkpt lat="43.39505257306844" lon="-4.590524382951933"><ele>50.599999999999994</ele><time>2026-05-02T08:13:32Z</time></trkpt><trkpt lat="43.39504024726012" lon="-4.59037206286208"><ele>50.8</ele><time>2026-05-02T08:13:33Z</time></trkpt><trkpt lat="43.39502386062871" lon="-4.590222193574957"><ele>51.0</ele><time>2026-05-02T08:13:34Z</time></trkpt><trkpt lat="43.395009364348326" lon="-4.590070908188186"><ele>50.4</ele><time>2026-05-02T08:13:35Z</time></trkpt><trkpt lat="43.394988810088236" lon="-4.589926660744158"><ele>49.8</ele><time>2026-05-02T08:13:36Z</time></trkpt><trkpt lat="43.39496064687809" lon="-4.589779826050564"><ele>49.199999999999996</ele><time>2026-05-02T08:13:37Z</time></trkpt><trkpt lat="43.39493573688767" lon="-4.58963533119333"><ele>48.599999999999994</ele><time>2026-05-02T08:13:38Z</time></trkpt><trkpt lat="43.394911285605005" lon="-4.589488974220571"><ele>48.0</ele><time>2026-05-02T08:13:39Z</time></trkpt><trkpt lat="43.39488249952106" lon="-4.5893455466008355"><ele>47.2</ele><time>2026-05-02T08:13:40Z</time></trkpt><trkpt lat="43.39484870293924" lon="-4.589202811390507"><ele>46.4</ele><time>2026-05-02T08:13:41Z</time></trkpt><trkpt lat="43.3948171945652" lon="-4.589059609672744"><ele>45.6</ele><time>2026-05-02T08:13:42Z</time></trkpt><trkpt lat="43.3947800228552" lon="-4.588917442043399"><ele>44.800000000000004</ele><time>2026-05-02T08:13:43Z</time></trkpt><trkpt lat="43.39473805362489" lon="-4.588779711291751"><ele>44.0</ele><time>2026-05-02T08:13:44Z</time></trkpt><trkpt lat="43.39469421327482" lon="-4.588641048460791"><ele>45.800000000000004</ele><time>2026-05-02T08:13:45Z</time></trkpt><trkpt lat="43.39464725988042" lon="-4.588501405446019"><ele>47.6</ele><time>2026-05-02T08:13:46Z</time></trkpt><trkpt lat="43.394598477228904" lon="-4.588367764101228"><ele>49.4</ele><time>2026-05-02T08:13:47.001Z</time></trkpt><trkpt lat="43.39454965152413" lon="-4.588229463086654"><ele>51.2</ele><time>2026-05-02T08:13:48.001Z</time></trkpt><trkpt lat="43.39449608650988" lon="-4.58809638302644"><ele>53.0</ele><time>2026-05-02T08:13:49.001Z</time></trkpt><trkpt lat="43.394442352833" lon="-4.587963648939883"><ele>52.2</ele><time>2026-05-02T08:13:50.001Z</time></trkpt><trkpt lat="43.394387772685256" lon="-4.587831265249975"><ele>51.4</ele><time>2026-05-02T08:13:51.001Z</time></trkpt><trkpt lat="43.394333749358076" lon="-4.587699130764775"><ele>50.6</ele><time>2026-05-02T08:13:52.001Z</time></trkpt><trkpt lat="43.39427787642721" lon="-4.587566444665683"><ele>49.800000000000004</ele><time>2026-05-02T08:13:53.001Z</time></trkpt><trkpt lat="43.39422138168822" lon="-4.587439638098916"><ele>49.0</ele><time>2026-05-02T08:13:54.001Z</time></trkpt><trkpt lat="43.394164978596436" lon="-4.587308226299972"><ele>49.0</ele><time>2026-05-02T08:13:55.001Z</time></trkpt><trkpt lat="43.39410699086706" lon="-4.58717903421087"><ele>49.0</ele><time>2026-05-02T08:13:56.001Z</time></trkpt><trkpt lat="43.394050084948276" lon="-4.587048398600608"><ele>49.0</ele><time>2026-05-02T08:13:57.001Z</time></trkpt><trkpt lat="43.39399477452583" lon="-4.5869178292970885"><ele>49.0</ele><time>2026-05-02T08:13:58.001Z</time></trkpt><trkpt lat="43.39394002237994" lon="-4.586786824557818"><ele>49.0</ele><time>2026-05-02T08:13:59.001Z</time></trkpt><trkpt lat="43.393883435450434" lon="-4.586655241172235"><ele>48.2</ele><time>2026-05-02T08:14:00.001Z</time></trkpt><trkpt lat="43.393829990311794" lon="-4.586523637740338"><ele>47.400000000000006</ele><time>2026-05-02T08:14:01.001Z</time></trkpt><trkpt lat="43.393773269887866" lon="-4.58639312484922"><ele>46.6</ele><time>2026-05-02T08:14:02.001Z</time></trkpt><trkpt lat="43.39371461458182" lon="-4.586264691344655"><ele>45.8</ele><time>2026-05-02T08:14:03.001Z</time></trkpt><trkpt lat="43.393656847196844" lon="-4.586133857389367"><ele>45.0</ele><time>2026-05-02T08:14:04.001Z</time></trkpt><trkpt lat="43.39360088849995" lon="-4.585999375398898"><ele>44.75</ele><time>2026-05-02T08:14:05.001Z</time></trkpt><trkpt lat="43.39354389618628" lon="-4.585865523769205"><ele>44.5</ele><time>2026-05-02T08:14:06.001Z</time></trkpt><trkpt lat="43.39348790033358" lon="-4.5857316223002265"><ele>44.25</ele><time>2026-05-02T08:14:07.001Z</time></trkpt><trkpt lat="43.393430006519694" lon="-4.585598504859147"><ele>44.0</ele><time>2026-05-02T08:14:08.001Z</time></trkpt><trkpt lat="43.393374004052376" lon="-4.585464359963592"><ele>45.0</ele><time>2026-05-02T08:14:09.001Z</time></trkpt><trkpt lat="43.393317691221235" lon="-4.585330502509907"><ele>46.0</ele><time>2026-05-02T08:14:10.001Z</time></trkpt><trkpt lat="43.39326092016776" lon="-4.58519519102096"><ele>47.0</ele><time>2026-05-02T08:14:11.001Z</time></trkpt><trkpt lat="43.393200135002544" lon="-4.585059653691193"><ele>48.0</ele><time>2026-05-02T08:14:12.001Z</time></trkpt><trkpt lat="43.39314189359802" lon="-4.584925965196617"><ele>48.0</ele><time>2026-05-02T08:14:13.001Z</time></trkpt><trkpt lat="43.39308329323756" lon="-4.584787654485999"><ele>48.0</ele><time>2026-05-02T08:14:14.001Z</time></trkpt><trkpt lat="43.39302565120808" lon="-4.584653322591494"><ele>48.0</ele><time>2026-05-02T08:14:15.001Z</time></trkpt><trkpt lat="43.39296961827566" lon="-4.584517658712587"><ele>48.0</ele><time>2026-05-02T08:14:16.001Z</time></trkpt><trkpt lat="43.39291325551298" lon="-4.584378540149012"><ele>46.5</ele><time>2026-05-02T08:14:17.001Z</time></trkpt><trkpt lat="43.392854616532865" lon="-4.584245565922852"><ele>45.0</ele><time>2026-05-02T08:14:18.001Z</time></trkpt><trkpt lat="43.39279441476121" lon="-4.584114246643968"><ele>43.5</ele><time>2026-05-02T08:14:19.001Z</time></trkpt><trkpt lat="43.39273713858087" lon="-4.583982143058898"><ele>42.0</ele><time>2026-05-02T08:14:20.001Z</time></trkpt><trkpt lat="43.3926791729545" lon="-4.583845728111518"><ele>42.0</ele><time>2026-05-02T08:14:21.001Z</time></trkpt><trkpt lat="43.39262076055599" lon="-4.583711905357405"><ele>42.0</ele><time>2026-05-02T08:14:22.001Z</time></trkpt><trkpt lat="43.39256288696226" lon="-4.583575816606441"><ele>42.0</ele><time>2026-05-02T08:14:23.001Z</time></trkpt><trkpt lat="43.39250566518053" lon="-4.583441853655501"><ele>42.0</ele><time>2026-05-02T08:14:24.001Z</time></trkpt><trkpt lat="43.392450011864646" lon="-4.583308043443058"><ele>42.0</ele><time>2026-05-02T08:14:25.001Z</time></trkpt><trkpt lat="43.39239699261715" lon="-4.583169932378379"><ele>42.0</ele><time>2026-05-02T08:14:26.001Z</time></trkpt><trkpt lat="43.392340306371636" lon="-4.5830373501408035"><ele>42.0</ele><time>2026-05-02T08:14:27.001Z</time></trkpt><trkpt lat="43.39227908731809" lon="-4.582904516038332"><ele>42.0</ele><time>2026-05-02T08:14:28.001Z</time></trkpt><trkpt lat="43.3922176659419" lon="-4.582776452187171"><ele>40.25</ele><time>2026-05-02T08:14:29.001Z</time></trkpt><trkpt lat="43.392161431181876" lon="-4.5826470595045565"><ele>38.5</ele><time>2026-05-02T08:14:30.001Z</time></trkpt><trkpt lat="43.39210183545787" lon="-4.582514397301646"><ele>36.75</ele><time>2026-05-02T08:14:31.001Z</time></trkpt><trkpt lat="43.39204038510539" lon="-4.582385027990623"><ele>35.0</ele><time>2026-05-02T08:14:32.001Z</time></trkpt><trkpt lat="43.391970043871424" lon="-4.582260311212413"><ele>35.0</ele><time>2026-05-02T08:14:33.001Z</time></trkpt><trkpt lat="43.391899709601766" lon="-4.582130680336369"><ele>35.0</ele><time>2026-05-02T08:14:34.001Z</time></trkpt><trkpt lat="43.39183105196342" lon="-4.58200232810057"><ele>35.0</ele><time>2026-05-02T08:14:35.001Z</time></trkpt><trkpt lat="43.39176066153831" lon="-4.581882734981803"><ele>35.0</ele><time>2026-05-02T08:14:36.001Z</time></trkpt><trkpt lat="43.391691945955884" lon="-4.581762462810425"><ele>33.8</ele><time>2026-05-02T08:14:37.001Z</time></trkpt><trkpt lat="43.39162407335658" lon="-4.581639973217809"><ele>32.6</ele><time>2026-05-02T08:14:38.001Z</time></trkpt><trkpt lat="43.39155906925623" lon="-4.581520781271973"><ele>31.4</ele><time>2026-05-02T08:14:39.001Z</time></trkpt><trkpt lat="43.391495259693244" lon="-4.581395873890775"><ele>30.2</ele><time>2026-05-02T08:14:40.001Z</time></trkpt><trkpt lat="43.39142198644059" lon="-4.5812857731477035"><ele>29.0</ele><time>2026-05-02T08:14:41.001Z</time></trkpt><trkpt lat="43.39136255929399" lon="-4.581158403368258"><ele>24.5</ele><time>2026-05-02T08:14:42.001Z</time></trkpt><trkpt lat="43.391288739624514" lon="-4.58103668879864"><ele>20.0</ele><time>2026-05-02T08:14:43.001Z</time></trkpt><trkpt lat="43.391220169195776" lon="-4.5809105513837824"><ele>15.5</ele><time>2026-05-02T08:14:44.001Z</time></trkpt><trkpt lat="43.391148397157345" lon="-4.580779203319269"><ele>11.0</ele><time>2026-05-02T08:14:45.001Z</time></trkpt><trkpt lat="43.39107433191948" lon="-4.580652028683453"><ele>11.0</ele><time>2026-05-02T08:14:46.001Z</time></trkpt><trkpt lat="43.3909998153901" lon="-4.58052564319939"><ele>11.0</ele><time>2026-05-02T08:14:47.001Z</time></trkpt><trkpt lat="43.3909346625218" lon="-4.580398418805813"><ele>11.0</ele><time>2026-05-02T08:14:48.001Z</time></trkpt><trkpt lat="43.39086357865602" lon="-4.5802763945956455"><ele>11.0</ele><time>2026-05-02T08:14:49.001Z</time></trkpt><trkpt lat="43.390792177215815" lon="-4.580156723226056"><ele>10.200000000000001</ele><time>2026-05-02T08:14:50.001Z</time></trkpt><trkpt lat="43.39071729995822" lon="-4.580035751833564"><ele>9.4</ele><time>2026-05-02T08:14:51.001Z</time></trkpt><trkpt lat="43.39064714915225" lon="-4.579915835053946"><ele>8.6</ele><time>2026-05-02T08:14:52.001Z</time></trkpt><trkpt lat="43.39057219336043" lon="-4.579797923612173"><ele>7.8</ele><time>2026-05-02T08:14:53.001Z</time></trkpt><trkpt lat="43.390498101495325" lon="-4.5796893141386645"><ele>7.0</ele><time>2026-05-02T08:14:54.001Z</time></trkpt><trkpt lat="43.39041744358405" lon="-4.579586386477761"><ele>8.2</ele><time>2026-05-02T08:14:55Z</time></trkpt><trkpt lat="43.3903320009537" lon="-4.5794890556054675"><ele>9.399999999999999</ele><time>2026-05-02T08:14:56Z</time></trkpt><trkpt lat="43.39023767113057" lon="-4.579404163518373"><ele>10.600000000000001</ele><time>2026-05-02T08:14:57Z</time></trkpt><trkpt lat="43.39014035920967" lon="-4.579325823195586"><ele>11.8</ele><time>2026-05-02T08:14:58Z</time></trkpt><trkpt lat="43.390040578580624" lon="-4.579259074019571"><ele>13.0</ele><time>2026-05-02T08:14:59Z</time></trkpt><trkpt lat="43.38993993829977" lon="-4.579199643904374"><ele>13.0</ele><time>2026-05-02T08:15:00Z</time></trkpt><trkpt lat="43.38983449820293" lon="-4.579141936508078"><ele>13.0</ele><time>2026-05-02T08:15:01Z</time></trkpt><trkpt lat="43.38973929923503" lon="-4.579077695801612"><ele>13.0</ele><time>2026-05-02T08:15:02Z</time></trkpt><trkpt lat="43.389655530034545" lon="-4.5790594786120575"><ele>13.0</ele><time>2026-05-02T08:15:03Z</time></trkpt><trkpt lat="43.389552480862804" lon="-4.5790117361644995"><ele>13.0</ele><time>2026-05-02T08:15:05Z</time></trkpt><trkpt lat="43.389497367360214" lon="-4.578962338943924"><ele>26.0</ele><time>2026-05-02T08:15:07Z</time></trkpt><trkpt lat="43.38906715014815" lon="-4.57875675053935"><ele>26.0</ele><time>2026-05-02T08:15:09Z</time></trkpt><trkpt lat="43.38897484694023" lon="-4.578694265575228"><ele>26.0</ele><time>2026-05-02T08:15:10Z</time></trkpt><trkpt lat="43.38882899570559" lon="-4.578603314732194"><ele>26.0</ele><time>2026-05-02T08:15:11Z</time></trkpt><trkpt lat="43.3887753350897" lon="-4.578539318475317"><ele>26.0</ele><time>2026-05-02T08:15:12Z</time></trkpt><trkpt lat="43.38869893772031" lon="-4.578455457200823"><ele>26.0</ele><time>2026-05-02T08:15:13Z</time></trkpt><trkpt lat="43.388610620943346" lon="-4.578369890897437"><ele>25.8</ele><time>2026-05-02T08:15:14Z</time></trkpt><trkpt lat="43.38853440429256" lon="-4.578282347960905"><ele>25.6</ele><time>2026-05-02T08:15:15Z</time></trkpt><trkpt lat="43.38846087930767" lon="-4.578194549152135"><ele>25.4</ele><time>2026-05-02T08:15:16Z</time></trkpt><trkpt lat="43.3883899814546" lon="-4.578106898427325"><ele>25.2</ele><time>2026-05-02T08:15:17Z</time></trkpt><trkpt lat="43.38831901403502" lon="-4.578005903939284"><ele>25.0</ele><time>2026-05-02T08:15:18Z</time></trkpt><trkpt lat="43.38825761259852" lon="-4.577898391748822"><ele>26.4</ele><time>2026-05-02T08:15:19Z</time></trkpt><trkpt lat="43.38819294796539" lon="-4.577796494563578"><ele>27.8</ele><time>2026-05-02T08:15:20Z</time></trkpt><trkpt lat="43.388122282046865" lon="-4.5776989982806064"><ele>29.200000000000003</ele><time>2026-05-02T08:15:21Z</time></trkpt><trkpt lat="43.388050125578154" lon="-4.577605430567441"><ele>30.6</ele><time>2026-05-02T08:15:22Z</time></trkpt><trkpt lat="43.387980696695955" lon="-4.5775022352792325"><ele>32.0</ele><time>2026-05-02T08:15:23Z</time></trkpt><trkpt lat="43.387911193188714" lon="-4.5774057828639645"><ele>32.6</ele><time>2026-05-02T08:15:24Z</time></trkpt><trkpt lat="43.3878390386467" lon="-4.577301621985887"><ele>33.2</ele><time>2026-05-02T08:15:25Z</time></trkpt><trkpt lat="43.38776807023785" lon="-4.577196909084567"><ele>33.8</ele><time>2026-05-02T08:15:26Z</time></trkpt><trkpt lat="43.387698514290015" lon="-4.577089788834096"><ele>34.4</ele><time>2026-05-02T08:15:27Z</time></trkpt><trkpt lat="43.387631530196344" lon="-4.576979147848056"><ele>35.0</ele><time>2026-05-02T08:15:28Z</time></trkpt><trkpt lat="43.38755476734882" lon="-4.57688597588985"><ele>35.0</ele><time>2026-05-02T08:15:29Z</time></trkpt><trkpt lat="43.38748448712825" lon="-4.576783662408961"><ele>35.0</ele><time>2026-05-02T08:15:30Z</time></trkpt><trkpt lat="43.38741440286904" lon="-4.576675292539387"><ele>35.0</ele><time>2026-05-02T08:15:31Z</time></trkpt><trkpt lat="43.387343236390485" lon="-4.576572551030841"><ele>35.0</ele><time>2026-05-02T08:15:32Z</time></trkpt><trkpt lat="43.387272415303684" lon="-4.576477108756619"><ele>35.0</ele><time>2026-05-02T08:15:33Z</time></trkpt><trkpt lat="43.38719143156463" lon="-4.576397476689865"><ele>34.8</ele><time>2026-05-02T08:15:34Z</time></trkpt><trkpt lat="43.38713680031681" lon="-4.576274207473867"><ele>34.6</ele><time>2026-05-02T08:15:35Z</time></trkpt><trkpt lat="43.38706909576167" lon="-4.576172158934801"><ele>34.4</ele><time>2026-05-02T08:15:36Z</time></trkpt><trkpt lat="43.387003347461906" lon="-4.576070020102067"><ele>34.2</ele><time>2026-05-02T08:15:37Z</time></trkpt><trkpt lat="43.38694994002813" lon="-4.575979492831568"><ele>34.0</ele><time>2026-05-02T08:15:38Z</time></trkpt><trkpt lat="43.38690043048916" lon="-4.575900687037966"><ele>34.0</ele><time>2026-05-02T08:15:39Z</time></trkpt><trkpt lat="43.38683228327094" lon="-4.575795467453511"><ele>34.0</ele><time>2026-05-02T08:15:41Z</time></trkpt><trkpt lat="43.386791139742286" lon="-4.575675597672015"><ele>34.0</ele><time>2026-05-02T08:20:35.001Z</time></trkpt><trkpt lat="43.38674112423894" lon="-4.575589200709784"><ele>34.0</ele><time>2026-05-02T08:20:37.001Z</time></trkpt><trkpt lat="43.386691005281946" lon="-4.5754925475157355"><ele>34.0</ele><time>2026-05-02T08:20:39.001Z</time></trkpt><trkpt lat="43.386630134427946" lon="-4.575369550106968"><ele>34.66666666666667</ele><time>2026-05-02T08:20:41.001Z</time></trkpt><trkpt lat="43.386572241752006" lon="-4.575233169656662"><ele>35.333333333333336</ele><time>2026-05-02T08:20:43.001Z</time></trkpt><trkpt lat="43.3865110357136" lon="-4.575089528829118"><ele>36.0</ele><time>2026-05-02T08:20:45.001Z</time></trkpt><trkpt lat="43.38647892522262" lon="-4.575013433739474"><ele>36.666666666666664</ele><time>2026-05-02T08:20:46.001Z</time></trkpt><trkpt lat="43.386443449633006" lon="-4.574937894214768"><ele>37.33333333333333</ele><time>2026-05-02T08:20:47.001Z</time></trkpt><trkpt lat="43.38640831167124" lon="-4.57486162826097"><ele>38.0</ele><time>2026-05-02T08:20:48.001Z</time></trkpt><trkpt lat="43.38637514148932" lon="-4.574782442441551"><ele>37.83333333333333</ele><time>2026-05-02T08:20:49.001Z</time></trkpt><trkpt lat="43.386344196817554" lon="-4.5746947674733685"><ele>37.666666666666664</ele><time>2026-05-02T08:20:50.001Z</time></trkpt><trkpt lat="43.386312402130386" lon="-4.574604023940159"><ele>37.5</ele><time>2026-05-02T08:20:51.001Z</time></trkpt><trkpt lat="43.386280629225766" lon="-4.5745105359581135"><ele>37.333333333333336</ele><time>2026-05-02T08:20:52.001Z</time></trkpt><trkpt lat="43.38624648758637" lon="-4.574414055180484"><ele>37.16666666666667</ele><time>2026-05-02T08:20:53.001Z</time></trkpt><trkpt lat="43.38620792074857" lon="-4.574316209931689"><ele>37.0</ele><time>2026-05-02T08:20:54.001Z</time></trkpt><trkpt lat="43.386169285705165" lon="-4.574214585405904"><ele>37.0</ele><time>2026-05-02T08:20:55.001Z</time></trkpt><trkpt lat="43.38613404776478" lon="-4.574108774066162"><ele>37.0</ele><time>2026-05-02T08:20:56.001Z</time></trkpt><trkpt lat="43.38609701215832" lon="-4.574004187767742"><ele>37.0</ele><time>2026-05-02T08:20:57.001Z</time></trkpt><trkpt lat="43.38606003738103" lon="-4.5738974953243"><ele>37.0</ele><time>2026-05-02T08:20:58.001Z</time></trkpt><trkpt lat="43.38602473275128" lon="-4.573784985314915"><ele>37.0</ele><time>2026-05-02T08:20:59.001Z</time></trkpt><trkpt lat="43.385987183864856" lon="-4.573674357650438"><ele>37.0</ele><time>2026-05-02T08:21:00.001Z</time></trkpt><trkpt lat="43.385949883252636" lon="-4.573563993731416"><ele>37.4</ele><time>2026-05-02T08:21:01.001Z</time></trkpt><trkpt lat="43.385912823933474" lon="-4.573450723848338"><ele>37.800000000000004</ele><time>2026-05-02T08:21:02.001Z</time></trkpt><trkpt lat="43.38587781796998" lon="-4.573335321240024"><ele>38.2</ele><time>2026-05-02T08:21:03.001Z</time></trkpt><trkpt lat="43.3858414870091" lon="-4.573215699319929"><ele>38.6</ele><time>2026-05-02T08:21:04.001Z</time></trkpt><trkpt lat="43.38580457432903" lon="-4.573094130889687"><ele>39.0</ele><time>2026-05-02T08:21:05.001Z</time></trkpt><trkpt lat="43.385768825394216" lon="-4.572972094557304"><ele>39.4</ele><time>2026-05-02T08:21:06.001Z</time></trkpt><trkpt lat="43.38573547607907" lon="-4.572847733800965"><ele>39.8</ele><time>2026-05-02T08:21:07.001Z</time></trkpt><trkpt lat="43.385700677176764" lon="-4.57272623585189"><ele>40.199999999999996</ele><time>2026-05-02T08:21:08.001Z</time></trkpt><trkpt lat="43.38566558776894" lon="-4.572602297118864"><ele>40.599999999999994</ele><time>2026-05-02T08:21:09.001Z</time></trkpt><trkpt lat="43.38563221470269" lon="-4.572476436839458"><ele>41.0</ele><time>2026-05-02T08:21:10.001Z</time></trkpt><trkpt lat="43.38559770470045" lon="-4.572348116810556"><ele>41.0</ele><time>2026-05-02T08:21:11.001Z</time></trkpt><trkpt lat="43.38556451998229" lon="-4.572219754052619"><ele>41.0</ele><time>2026-05-02T08:21:12.001Z</time></trkpt><trkpt lat="43.38553392895763" lon="-4.572089787811875"><ele>41.0</ele><time>2026-05-02T08:21:13.001Z</time></trkpt><trkpt lat="43.38550279923801" lon="-4.571961935875861"><ele>41.0</ele><time>2026-05-02T08:21:14.001Z</time></trkpt><trkpt lat="43.385471653119595" lon="-4.571833967482135"><ele>41.0</ele><time>2026-05-02T08:21:15.001Z</time></trkpt><trkpt lat="43.38544097127558" lon="-4.571706262889039"><ele>42.4</ele><time>2026-05-02T08:21:16.001Z</time></trkpt><trkpt lat="43.385410241498214" lon="-4.5715786133923"><ele>43.8</ele><time>2026-05-02T08:21:17.001Z</time></trkpt><trkpt lat="43.385378650084476" lon="-4.57145053982012"><ele>45.199999999999996</ele><time>2026-05-02T08:21:18.001Z</time></trkpt><trkpt lat="43.385347578364446" lon="-4.571321897911138"><ele>46.599999999999994</ele><time>2026-05-02T08:21:19Z</time></trkpt><trkpt lat="43.38531462913898" lon="-4.571195411684624"><ele>48.0</ele><time>2026-05-02T08:21:20Z</time></trkpt><trkpt lat="43.38528188660106" lon="-4.571069185793196"><ele>48.0</ele><time>2026-05-02T08:21:21Z</time></trkpt><trkpt lat="43.385248207569994" lon="-4.570944447053107"><ele>48.0</ele><time>2026-05-02T08:21:22Z</time></trkpt><trkpt lat="43.38521039119451" lon="-4.570823119904066"><ele>48.0</ele><time>2026-05-02T08:21:23Z</time></trkpt><trkpt lat="43.38517488623966" lon="-4.570694925746046"><ele>48.0</ele><time>2026-05-02T08:21:24Z</time></trkpt><trkpt lat="43.385138977039944" lon="-4.570568176598097"><ele>48.0</ele><time>2026-05-02T08:21:25Z</time></trkpt><trkpt lat="43.385103675130985" lon="-4.570439959558986"><ele>47.599999999999994</ele><time>2026-05-02T08:21:26Z</time></trkpt><trkpt lat="43.385065894463494" lon="-4.5703119717396605"><ele>47.199999999999996</ele><time>2026-05-02T08:21:27Z</time></trkpt><trkpt lat="43.38502741933534" lon="-4.570184587656593"><ele>46.8</ele><time>2026-05-02T08:21:28Z</time></trkpt><trkpt lat="43.384986972526384" lon="-4.570060278322232"><ele>46.4</ele><time>2026-05-02T08:21:29Z</time></trkpt><trkpt lat="43.38494687479069" lon="-4.569934148806039"><ele>46.0</ele><time>2026-05-02T08:21:30Z</time></trkpt><trkpt lat="43.384904314092175" lon="-4.569811152610017"><ele>46.0</ele><time>2026-05-02T08:21:31Z</time></trkpt><trkpt lat="43.384862576108056" lon="-4.569686594747236"><ele>46.0</ele><time>2026-05-02T08:21:32Z</time></trkpt><trkpt lat="43.38482103688941" lon="-4.569560589704833"><ele>46.0</ele><time>2026-05-02T08:21:33Z</time></trkpt><trkpt lat="43.38477625262877" lon="-4.569434545356987"><ele>46.0</ele><time>2026-05-02T08:21:34Z</time></trkpt><trkpt lat="43.38473031256136" lon="-4.569310911917544"><ele>46.0</ele><time>2026-05-02T08:21:35Z</time></trkpt><trkpt lat="43.3846857924106" lon="-4.569187558365669"><ele>45.8</ele><time>2026-05-02T08:21:36Z</time></trkpt><trkpt lat="43.38463977912662" lon="-4.5690637794600075"><ele>45.599999999999994</ele><time>2026-05-02T08:21:37Z</time></trkpt><trkpt lat="43.38459379314237" lon="-4.568936689072687"><ele>45.4</ele><time>2026-05-02T08:21:38Z</time></trkpt><trkpt lat="43.38454787799089" lon="-4.568813847875529"><ele>45.2</ele><time>2026-05-02T08:21:39Z</time></trkpt><trkpt lat="43.38450391576589" lon="-4.568685512386718"><ele>45.0</ele><time>2026-05-02T08:21:40Z</time></trkpt><trkpt lat="43.38445901503477" lon="-4.568562746090184"><ele>45.0</ele><time>2026-05-02T08:21:41Z</time></trkpt><trkpt lat="43.384412957738" lon="-4.568434809589894"><ele>45.0</ele><time>2026-05-02T08:21:42Z</time></trkpt><trkpt lat="43.38436827015963" lon="-4.568308106605772"><ele>45.0</ele><time>2026-05-02T08:21:43Z</time></trkpt><trkpt lat="43.38432400793219" lon="-4.5681832815754095"><ele>45.0</ele><time>2026-05-02T08:21:44Z</time></trkpt><trkpt lat="43.38427887843003" lon="-4.568057130697114"><ele>45.0</ele><time>2026-05-02T08:21:45Z</time></trkpt><trkpt lat="43.384236035559226" lon="-4.567930182619024"><ele>45.4</ele><time>2026-05-02T08:21:46Z</time></trkpt><trkpt lat="43.3841933585055" lon="-4.567801683980141"><ele>45.8</ele><time>2026-05-02T08:21:47Z</time></trkpt><trkpt lat="43.384148845614014" lon="-4.567679042333456"><ele>46.2</ele><time>2026-05-02T08:21:48Z</time></trkpt><trkpt lat="43.38410723770816" lon="-4.567552116685458"><ele>46.6</ele><time>2026-05-02T08:21:49Z</time></trkpt><trkpt lat="43.384063577622825" lon="-4.567426098076592"><ele>47.0</ele><time>2026-05-02T08:21:50Z</time></trkpt><trkpt lat="43.384023427637366" lon="-4.567304038681538"><ele>47.0</ele><time>2026-05-02T08:21:51Z</time></trkpt><trkpt lat="43.38398580322396" lon="-4.567174152082211"><ele>47.0</ele><time>2026-05-02T08:21:52Z</time></trkpt><trkpt lat="43.38394545328463" lon="-4.567045828864257"><ele>47.0</ele><time>2026-05-02T08:21:53Z</time></trkpt><trkpt lat="43.38390369345962" lon="-4.566921565440672"><ele>47.0</ele><time>2026-05-02T08:21:54Z</time></trkpt><trkpt lat="43.38386510614872" lon="-4.56679683846459"><ele>47.0</ele><time>2026-05-02T08:21:55Z</time></trkpt><trkpt lat="43.38382008561908" lon="-4.566671475944128"><ele>47.5</ele><time>2026-05-02T08:21:56Z</time></trkpt><trkpt lat="43.383760577399045" lon="-4.566562960894495"><ele>48.0</ele><time>2026-05-02T08:21:57Z</time></trkpt><trkpt lat="43.38370274323712" lon="-4.566489486572357"><ele>48.5</ele><time>2026-05-02T08:21:58Z</time></trkpt><trkpt lat="43.38363279890022" lon="-4.5664407625778525"><ele>49.0</ele><time>2026-05-02T08:21:59Z</time></trkpt><trkpt lat="43.38355413312832" lon="-4.566438911044977"><ele>49.50000000000001</ele><time>2026-05-02T08:22:00Z</time></trkpt><trkpt lat="43.38348220082169" lon="-4.566441551446549"><ele>50.0</ele><time>2026-05-02T08:22:01Z</time></trkpt><trkpt lat="43.3834003099731" lon="-4.566433731454664"><ele>50.00000000000001</ele><time>2026-05-02T08:22:02Z</time></trkpt><trkpt lat="43.38332568380096" lon="-4.566406543458235"><ele>50.0</ele><time>2026-05-02T08:22:03Z</time></trkpt><trkpt lat="43.383260037065156" lon="-4.566347004012188"><ele>50.0</ele><time>2026-05-02T08:22:04Z</time></trkpt><trkpt lat="43.38320874135529" lon="-4.566262420760058"><ele>50.0</ele><time>2026-05-02T08:22:05Z</time></trkpt><trkpt lat="43.383171091053924" lon="-4.566160225626577"><ele>50.00000000000001</ele><time>2026-05-02T08:22:06Z</time></trkpt><trkpt lat="43.38316068421049" lon="-4.566057655514805"><ele>50.0</ele><time>2026-05-02T08:22:07Z</time></trkpt><trkpt lat="43.38306972769416" lon="-4.565972771105001"><ele>50.2</ele><time>2026-05-02T08:22:08Z</time></trkpt><trkpt lat="43.382990640648046" lon="-4.56590856067015"><ele>50.4</ele><time>2026-05-02T08:22:09Z</time></trkpt><trkpt lat="43.38290121705378" lon="-4.565865067198276"><ele>50.599999999999994</ele><time>2026-05-02T08:22:10Z</time></trkpt><trkpt lat="43.38280724727529" lon="-4.565827554291607"><ele>50.8</ele><time>2026-05-02T08:22:11Z</time></trkpt><trkpt lat="43.382709740327876" lon="-4.56578817675846"><ele>51.0</ele><time>2026-05-02T08:22:12Z</time></trkpt><trkpt lat="43.38260918405712" lon="-4.565747300593152"><ele>51.0</ele><time>2026-05-02T08:22:13Z</time></trkpt><trkpt lat="43.382513978629184" lon="-4.565698872662103"><ele>51.0</ele><time>2026-05-02T08:22:14Z</time></trkpt><trkpt lat="43.38245105227958" lon="-4.5656476272871025"><ele>51.0</ele><time>2026-05-02T08:22:15Z</time></trkpt><trkpt lat="43.38236759492721" lon="-4.565620064386575"><ele>51.0</ele><time>2026-05-02T08:22:16Z</time></trkpt><trkpt lat="43.38228900616058" lon="-4.56562734244968"><ele>51.0</ele><time>2026-05-02T08:22:17Z</time></trkpt><trkpt lat="43.38221458306385" lon="-4.565666721895102"><ele>51.0</ele><time>2026-05-02T08:22:18Z</time></trkpt><trkpt lat="43.382139895626985" lon="-4.565705676887034"><ele>51.166666666666664</ele><time>2026-05-02T08:22:19Z</time></trkpt><trkpt lat="43.38206108807642" lon="-4.565720557295303"><ele>51.33333333333333</ele><time>2026-05-02T08:22:20Z</time></trkpt><trkpt lat="43.381989195633764" lon="-4.565704349296048"><ele>51.5</ele><time>2026-05-02T08:22:21Z</time></trkpt><trkpt lat="43.38192206305458" lon="-4.565667528065489"><ele>51.666666666666664</ele><time>2026-05-02T08:22:22.001Z</time></trkpt><trkpt lat="43.38183550660449" lon="-4.565511922173059"><ele>51.83333333333333</ele><time>2026-05-02T08:22:24.001Z</time></trkpt><trkpt lat="43.38181921066429" lon="-4.565420905796557"><ele>52.0</ele><time>2026-05-02T08:22:25.001Z</time></trkpt><trkpt lat="43.3818201027059" lon="-4.565328899045332"><ele>52.0</ele><time>2026-05-02T08:22:26.001Z</time></trkpt><trkpt lat="43.38183095339203" lon="-4.565240081629078"><ele>52.0</ele><time>2026-05-02T08:22:27.001Z</time></trkpt><trkpt lat="43.381829419282774" lon="-4.565072375848995"><ele>52.0</ele><time>2026-05-02T08:22:29.001Z</time></trkpt><trkpt lat="43.38189944129016" lon="-4.565111220575408"><ele>52.0</ele><time>2026-05-02T08:22:30.001Z</time></trkpt><trkpt lat="43.38180154644009" lon="-4.564945777851164"><ele>52.0</ele><time>2026-05-02T08:22:31.001Z</time></trkpt><trkpt lat="43.38174434662101" lon="-4.564826657338611"><ele>52.0</ele><time>2026-05-02T08:22:33.001Z</time></trkpt><trkpt lat="43.38169255078679" lon="-4.564723748499774"><ele>52.0</ele><time>2026-05-02T08:22:35.001Z</time></trkpt><trkpt lat="43.38172582626762" lon="-4.564810582705777"><ele>52.0</ele><time>2026-05-02T08:22:41.001Z</time></trkpt><trkpt lat="43.38178508867303" lon="-4.564951109192755"><ele>52.0</ele><time>2026-05-02T08:22:43.001Z</time></trkpt><trkpt lat="43.381823984923514" lon="-4.565022921642111"><ele>52.0</ele><time>2026-05-02T08:22:44.001Z</time></trkpt><trkpt lat="43.382044021770994" lon="-4.565085906311001"><ele>52.0</ele><time>2026-05-02T08:22:46.001Z</time></trkpt><trkpt lat="43.38215310404884" lon="-4.564986091999003"><ele>52.0</ele><time>2026-05-02T08:22:48.001Z</time></trkpt><trkpt lat="43.38220822341667" lon="-4.564916600526903"><ele>52.0</ele><time>2026-05-02T08:22:49.001Z</time></trkpt><trkpt lat="43.38224806550504" lon="-4.564820405581909"><ele>52.0</ele><time>2026-05-02T08:22:50.001Z</time></trkpt><trkpt lat="43.38227432708999" lon="-4.564712303102449"><ele>52.0</ele><time>2026-05-02T08:22:51.001Z</time></trkpt><trkpt lat="43.38229470330936" lon="-4.564600807665871"><ele>53.33333333333333</ele><time>2026-05-02T08:22:52.001Z</time></trkpt><trkpt lat="43.38231643559894" lon="-4.564489488773432"><ele>54.666666666666664</ele><time>2026-05-02T08:22:53.001Z</time></trkpt><trkpt lat="43.38233855564267" lon="-4.564373220628914"><ele>56.0</ele><time>2026-05-02T08:22:54.001Z</time></trkpt><trkpt lat="43.38235868849724" lon="-4.564258106998847"><ele>57.33333333333333</ele><time>2026-05-02T08:22:55.001Z</time></trkpt><trkpt lat="43.38237714767813" lon="-4.56414226041816"><ele>58.666666666666664</ele><time>2026-05-02T08:22:56.001Z</time></trkpt><trkpt lat="43.38239176837284" lon="-4.5640242705343965"><ele>60.0</ele><time>2026-05-02T08:22:57.001Z</time></trkpt><trkpt lat="43.382402545062526" lon="-4.563908037968528"><ele>60.0</ele><time>2026-05-02T08:22:58.001Z</time></trkpt><trkpt lat="43.38241169205418" lon="-4.563789098359969"><ele>60.0</ele><time>2026-05-02T08:22:59.001Z</time></trkpt><trkpt lat="43.38241500369368" lon="-4.563669517223182"><ele>60.0</ele><time>2026-05-02T08:23:00.001Z</time></trkpt><trkpt lat="43.38241400533303" lon="-4.563551709199221"><ele>60.0</ele><time>2026-05-02T08:23:01.001Z</time></trkpt><trkpt lat="43.3824134350457" lon="-4.5634335903562775"><ele>60.0</ele><time>2026-05-02T08:23:02.001Z</time></trkpt><trkpt lat="43.38240299350959" lon="-4.563315955601447"><ele>60.0</ele><time>2026-05-02T08:23:03.001Z</time></trkpt><trkpt lat="43.382396950611216" lon="-4.56319950008928"><ele>60.166666666666664</ele><time>2026-05-02T08:23:04.001Z</time></trkpt><trkpt lat="43.382389662859666" lon="-4.563081833240107"><ele>60.33333333333333</ele><time>2026-05-02T08:23:05.001Z</time></trkpt><trkpt lat="43.38237996908582" lon="-4.562965257078093"><ele>60.5</ele><time>2026-05-02T08:23:06.001Z</time></trkpt><trkpt lat="43.382367531483865" lon="-4.5628438895159835"><ele>60.666666666666664</ele><time>2026-05-02T08:23:07.001Z</time></trkpt><trkpt lat="43.38235377765636" lon="-4.562728079457482"><ele>60.83333333333333</ele><time>2026-05-02T08:23:08.001Z</time></trkpt><trkpt lat="43.38234581870628" lon="-4.562613385174929"><ele>61.0</ele><time>2026-05-02T08:23:09.001Z</time></trkpt><trkpt lat="43.382327241383706" lon="-4.562489980190222"><ele>60.99999999999999</ele><time>2026-05-02T08:23:10.001Z</time></trkpt><trkpt lat="43.382315792940716" lon="-4.562371740640088"><ele>61.0</ele><time>2026-05-02T08:23:11.001Z</time></trkpt><trkpt lat="43.38230314716088" lon="-4.5622553597070485"><ele>61.0</ele><time>2026-05-02T08:23:12.001Z</time></trkpt><trkpt lat="43.38228861174493" lon="-4.562131141806186"><ele>61.0</ele><time>2026-05-02T08:23:13.001Z</time></trkpt><trkpt lat="43.38227546070276" lon="-4.562006521048932"><ele>60.99999999999999</ele><time>2026-05-02T08:23:14.001Z</time></trkpt><trkpt lat="43.38226210750077" lon="-4.561879788455617"><ele>61.0</ele><time>2026-05-02T08:23:15.001Z</time></trkpt><trkpt lat="43.38224828602305" lon="-4.561749487784984"><ele>61.0</ele><time>2026-05-02T08:23:16.001Z</time></trkpt><trkpt lat="43.38223701671434" lon="-4.561618828705714"><ele>60.99999999999999</ele><time>2026-05-02T08:23:17.001Z</time></trkpt><trkpt lat="43.38222349128312" lon="-4.561484332566945"><ele>60.99999999999999</ele><time>2026-05-02T08:23:18.001Z</time></trkpt><trkpt lat="43.38221056682463" lon="-4.561350139239846"><ele>61.0</ele><time>2026-05-02T08:23:19Z</time></trkpt><trkpt lat="43.38220096674404" lon="-4.561211314319823"><ele>61.0</ele><time>2026-05-02T08:23:20Z</time></trkpt><trkpt lat="43.3821820014748" lon="-4.5610744647040145"><ele>62.0</ele><time>2026-05-02T08:23:21Z</time></trkpt><trkpt lat="43.38216298763227" lon="-4.56093339483075"><ele>62.99999999999999</ele><time>2026-05-02T08:23:22Z</time></trkpt><trkpt lat="43.38214779586571" lon="-4.560793947223418"><ele>63.99999999999999</ele><time>2026-05-02T08:23:23Z</time></trkpt><trkpt lat="43.38213372309201" lon="-4.560647520743457"><ele>65.0</ele><time>2026-05-02T08:23:24Z</time></trkpt><trkpt lat="43.382116933400376" lon="-4.560507403862214"><ele>66.0</ele><time>2026-05-02T08:23:25Z</time></trkpt><trkpt lat="43.382105565317936" lon="-4.560364364242175"><ele>66.39999999999999</ele><time>2026-05-02T08:23:26Z</time></trkpt><trkpt lat="43.382090934360065" lon="-4.56022321250619"><ele>66.8</ele><time>2026-05-02T08:23:27Z</time></trkpt><trkpt lat="43.382076867117604" lon="-4.560082452522905"><ele>67.19999999999999</ele><time>2026-05-02T08:23:28Z</time></trkpt><trkpt lat="43.382059918769514" lon="-4.559939692688724"><ele>67.6</ele><time>2026-05-02T08:23:29Z</time></trkpt><trkpt lat="43.38204372139851" lon="-4.559798188855037"><ele>68.0</ele><time>2026-05-02T08:23:30Z</time></trkpt><trkpt lat="43.38202911844765" lon="-4.559656088145914"><ele>68.8</ele><time>2026-05-02T08:23:31Z</time></trkpt><trkpt lat="43.38201353982717" lon="-4.5595120762367785"><ele>69.6</ele><time>2026-05-02T08:23:32Z</time></trkpt><trkpt lat="43.38199924905226" lon="-4.559373873283488"><ele>70.4</ele><time>2026-05-02T08:23:33Z</time></trkpt><trkpt lat="43.381987240432764" lon="-4.559229054549168"><ele>71.2</ele><time>2026-05-02T08:23:34Z</time></trkpt><trkpt lat="43.38197696697262" lon="-4.559086990726922"><ele>72.0</ele><time>2026-05-02T08:23:35Z</time></trkpt><trkpt lat="43.381962794238056" lon="-4.558977055583229"><ele>71.0</ele><time>2026-05-02T08:23:36Z</time></trkpt><trkpt lat="43.38220459715105" lon="-4.558802824017356"><ele>70.0</ele><time>2026-05-02T08:23:38Z</time></trkpt><trkpt lat="43.382356013792595" lon="-4.558733288048422"><ele>69.0</ele><time>2026-05-02T08:23:39Z</time></trkpt><trkpt lat="43.38189467199058" lon="-4.55834861635433"><ele>69.0</ele><time>2026-05-02T08:23:40Z</time></trkpt><trkpt lat="43.381871548083325" lon="-4.55820338434766"><ele>69.0</ele><time>2026-05-02T08:23:41Z</time></trkpt><trkpt lat="43.381849307619014" lon="-4.558055733295905"><ele>69.0</ele><time>2026-05-02T08:23:42Z</time></trkpt><trkpt lat="43.381821191035456" lon="-4.557906739799629"><ele>69.0</ele><time>2026-05-02T08:23:43Z</time></trkpt><trkpt lat="43.381793478466406" lon="-4.557759106861666"><ele>69.0</ele><time>2026-05-02T08:23:44Z</time></trkpt><trkpt lat="43.38176041792757" lon="-4.557619117039993"><ele>68.4</ele><time>2026-05-02T08:23:45Z</time></trkpt><trkpt lat="43.381725851188776" lon="-4.5574813391719635"><ele>67.80000000000001</ele><time>2026-05-02T08:23:46Z</time></trkpt><trkpt lat="43.381685877066424" lon="-4.557338359988428"><ele>67.19999999999999</ele><time>2026-05-02T08:23:47Z</time></trkpt><trkpt lat="43.38164805742417" lon="-4.557198374253822"><ele>66.6</ele><time>2026-05-02T08:23:48Z</time></trkpt><trkpt lat="43.3816102739554" lon="-4.557057087356315"><ele>66.0</ele><time>2026-05-02T08:23:49Z</time></trkpt><trkpt lat="43.38155180458769" lon="-4.556928205667794"><ele>65.2</ele><time>2026-05-02T08:23:50Z</time></trkpt><trkpt lat="43.38150966017132" lon="-4.556788407052485"><ele>64.39999999999999</ele><time>2026-05-02T08:23:51Z</time></trkpt><trkpt lat="43.381464741641885" lon="-4.556642386164182"><ele>63.6</ele><time>2026-05-02T08:23:52Z</time></trkpt><trkpt lat="43.381421211890085" lon="-4.556500787957533"><ele>62.8</ele><time>2026-05-02T08:23:53Z</time></trkpt><trkpt lat="43.3813784293181" lon="-4.556361620241165"><ele>62.0</ele><time>2026-05-02T08:23:54Z</time></trkpt><trkpt lat="43.38133624532542" lon="-4.5562243996900085"><ele>61.400000000000006</ele><time>2026-05-02T08:23:55Z</time></trkpt><trkpt lat="43.38130269710576" lon="-4.5560777151299865"><ele>60.800000000000004</ele><time>2026-05-02T08:23:56Z</time></trkpt><trkpt lat="43.38126168428128" lon="-4.5559432324506535"><ele>60.2</ele><time>2026-05-02T08:23:57Z</time></trkpt><trkpt lat="43.381219216614994" lon="-4.55580733975011"><ele>59.6</ele><time>2026-05-02T08:23:58Z</time></trkpt><trkpt lat="43.3811762212454" lon="-4.555668858581552"><ele>59.0</ele><time>2026-05-02T08:23:59Z</time></trkpt><trkpt lat="43.381132493254924" lon="-4.555534930952621"><ele>59.0</ele><time>2026-05-02T08:24:00Z</time></trkpt><trkpt lat="43.3810891258305" lon="-4.5553977097207685"><ele>59.00000000000001</ele><time>2026-05-02T08:24:01Z</time></trkpt><trkpt lat="43.38104842355842" lon="-4.555259585681654"><ele>59.00000000000001</ele><time>2026-05-02T08:24:02Z</time></trkpt><trkpt lat="43.38100613665761" lon="-4.555124117916291"><ele>59.0</ele><time>2026-05-02T08:24:03Z</time></trkpt><trkpt lat="43.38096116022651" lon="-4.5549885114591335"><ele>59.0</ele><time>2026-05-02T08:24:04Z</time></trkpt><trkpt lat="43.38091709035287" lon="-4.554849496934828"><ele>59.2</ele><time>2026-05-02T08:24:05Z</time></trkpt><trkpt lat="43.38085670995345" lon="-4.554713333473079"><ele>59.400000000000006</ele><time>2026-05-02T08:24:06Z</time></trkpt><trkpt lat="43.380845460874724" lon="-4.554604179563524"><ele>59.6</ele><time>2026-05-02T08:24:07Z</time></trkpt><trkpt lat="43.38080515430225" lon="-4.554476617499743"><ele>59.8</ele><time>2026-05-02T08:24:08Z</time></trkpt><trkpt lat="43.380763439982466" lon="-4.554349781777946"><ele>60.0</ele><time>2026-05-02T08:24:09Z</time></trkpt><trkpt lat="43.38072439462721" lon="-4.554223205996999"><ele>61.4</ele><time>2026-05-02T08:24:10Z</time></trkpt><trkpt lat="43.38068715294726" lon="-4.554096311960014"><ele>62.8</ele><time>2026-05-02T08:24:11Z</time></trkpt><trkpt lat="43.38064998517544" lon="-4.55397194411809"><ele>64.2</ele><time>2026-05-02T08:24:12Z</time></trkpt><trkpt lat="43.380609239267166" lon="-4.553848878936874"><ele>65.6</ele><time>2026-05-02T08:24:13Z</time></trkpt><trkpt lat="43.380573372265" lon="-4.553728105194458"><ele>67.0</ele><time>2026-05-02T08:24:14Z</time></trkpt><trkpt lat="43.380530798956954" lon="-4.553605606248423"><ele>67.0</ele><time>2026-05-02T08:24:15Z</time></trkpt><trkpt lat="43.38049459098202" lon="-4.553484599967728"><ele>67.0</ele><time>2026-05-02T08:24:16Z</time></trkpt><trkpt lat="43.38045795437734" lon="-4.553363875572922"><ele>67.0</ele><time>2026-05-02T08:24:17Z</time></trkpt><trkpt lat="43.38041862685754" lon="-4.553243592691834"><ele>67.0</ele><time>2026-05-02T08:24:18Z</time></trkpt><trkpt lat="43.380381946655106" lon="-4.553121430464067"><ele>67.0</ele><time>2026-05-02T08:24:19Z</time></trkpt><trkpt lat="43.38034390739543" lon="-4.5530038770489005"><ele>67.0</ele><time>2026-05-02T08:24:20Z</time></trkpt><trkpt lat="43.380309757885605" lon="-4.552886177870596"><ele>67.0</ele><time>2026-05-02T08:24:21Z</time></trkpt><trkpt lat="43.38027213530546" lon="-4.552761427250042"><ele>67.0</ele><time>2026-05-02T08:24:22Z</time></trkpt><trkpt lat="43.38023345229619" lon="-4.552642212982573"><ele>67.0</ele><time>2026-05-02T08:24:23Z</time></trkpt><trkpt lat="43.38019618981561" lon="-4.552521382185518"><ele>67.0</ele><time>2026-05-02T08:24:24Z</time></trkpt><trkpt lat="43.380156993634586" lon="-4.5524051925950575"><ele>68.0</ele><time>2026-05-02T08:24:25Z</time></trkpt><trkpt lat="43.38011926345638" lon="-4.552284270949695"><ele>69.0</ele><time>2026-05-02T08:24:26Z</time></trkpt><trkpt lat="43.38008131630744" lon="-4.552161173748438"><ele>70.0</ele><time>2026-05-02T08:24:27Z</time></trkpt><trkpt lat="43.38004466414331" lon="-4.552042923463813"><ele>71.0</ele><time>2026-05-02T08:24:28Z</time></trkpt><trkpt lat="43.380007975385944" lon="-4.551917305226726"><ele>72.0</ele><time>2026-05-02T08:24:29Z</time></trkpt><trkpt lat="43.37997395773104" lon="-4.551792863068331"><ele>72.6</ele><time>2026-05-02T08:24:30Z</time></trkpt><trkpt lat="43.3799419902003" lon="-4.551665371390745"><ele>73.2</ele><time>2026-05-02T08:24:31Z</time></trkpt><trkpt lat="43.37990452491127" lon="-4.551539436768952"><ele>73.8</ele><time>2026-05-02T08:24:32Z</time></trkpt><trkpt lat="43.37987649214532" lon="-4.55140501907887"><ele>74.4</ele><time>2026-05-02T08:24:33Z</time></trkpt><trkpt lat="43.37984617768629" lon="-4.551270161551767"><ele>75.0</ele><time>2026-05-02T08:24:34Z</time></trkpt><trkpt lat="43.379819667519854" lon="-4.551131851443173"><ele>75.0</ele><time>2026-05-02T08:24:35Z</time></trkpt><trkpt lat="43.37979282973869" lon="-4.5509836987838845"><ele>75.0</ele><time>2026-05-02T08:24:36Z</time></trkpt><trkpt lat="43.37976840575301" lon="-4.5508373236508035"><ele>75.0</ele><time>2026-05-02T08:24:37Z</time></trkpt><trkpt lat="43.379745848830574" lon="-4.550698443880345"><ele>75.0</ele><time>2026-05-02T08:24:38Z</time></trkpt><trkpt lat="43.37971782086712" lon="-4.550546325723273"><ele>75.0</ele><time>2026-05-02T08:24:39Z</time></trkpt><trkpt lat="43.379691647670136" lon="-4.550396629185309"><ele>76.25</ele><time>2026-05-02T08:24:40Z</time></trkpt><trkpt lat="43.37966638755164" lon="-4.55024606425062"><ele>77.5</ele><time>2026-05-02T08:24:41Z</time></trkpt><trkpt lat="43.379637495690474" lon="-4.550097074131019"><ele>78.75</ele><time>2026-05-02T08:24:42Z</time></trkpt><trkpt lat="43.37961490588525" lon="-4.549945409135663"><ele>80.0</ele><time>2026-05-02T08:24:43Z</time></trkpt><trkpt lat="43.379586831927746" lon="-4.5497930853928885"><ele>80.0</ele><time>2026-05-02T08:24:44Z</time></trkpt><trkpt lat="43.379561728749046" lon="-4.5496392835332795"><ele>80.0</ele><time>2026-05-02T08:24:45Z</time></trkpt><trkpt lat="43.379532439576224" lon="-4.5494880999439555"><ele>80.0</ele><time>2026-05-02T08:24:46Z</time></trkpt><trkpt lat="43.37950565044496" lon="-4.549335941844958"><ele>80.0</ele><time>2026-05-02T08:24:47Z</time></trkpt><trkpt lat="43.379479483638136" lon="-4.549182057169871"><ele>80.0</ele><time>2026-05-02T08:24:48Z</time></trkpt><trkpt lat="43.37945819291905" lon="-4.549027736330037"><ele>80.0</ele><time>2026-05-02T08:24:49Z</time></trkpt><trkpt lat="43.37942776274393" lon="-4.548876409009518"><ele>80.0</ele><time>2026-05-02T08:24:50Z</time></trkpt><trkpt lat="43.3794003811333" lon="-4.548724887181317"><ele>80.0</ele><time>2026-05-02T08:24:51Z</time></trkpt><trkpt lat="43.37936890859691" lon="-4.54856997162184"><ele>78.5</ele><time>2026-05-02T08:24:52.001Z</time></trkpt><trkpt lat="43.37933900368505" lon="-4.5484201655508345"><ele>77.0</ele><time>2026-05-02T08:24:53.001Z</time></trkpt><trkpt lat="43.37931011847031" lon="-4.5482652214108805"><ele>75.5</ele><time>2026-05-02T08:24:54.001Z</time></trkpt><trkpt lat="43.379278484658315" lon="-4.5481183932936355"><ele>74.0</ele><time>2026-05-02T08:24:55.001Z</time></trkpt><trkpt lat="43.37925145424383" lon="-4.547964149589793"><ele>73.2</ele><time>2026-05-02T08:24:56.001Z</time></trkpt><trkpt lat="43.37921696115686" lon="-4.547816964712854"><ele>72.4</ele><time>2026-05-02T08:24:57.001Z</time></trkpt><trkpt lat="43.37918691157483" lon="-4.547668955968374"><ele>71.6</ele><time>2026-05-02T08:24:58.001Z</time></trkpt><trkpt lat="43.37914988594789" lon="-4.5475233430688995"><ele>70.8</ele><time>2026-05-02T08:24:59.001Z</time></trkpt><trkpt lat="43.37911629549224" lon="-4.547378155633685"><ele>70.0</ele><time>2026-05-02T08:25:00.001Z</time></trkpt><trkpt lat="43.37908423972529" lon="-4.547230476759183"><ele>70.0</ele><time>2026-05-02T08:25:01.001Z</time></trkpt><trkpt lat="43.37905342605752" lon="-4.5470845618217375"><ele>70.0</ele><time>2026-05-02T08:25:02.001Z</time></trkpt><trkpt lat="43.37901705352481" lon="-4.546936872935269"><ele>70.0</ele><time>2026-05-02T08:25:03.001Z</time></trkpt><trkpt lat="43.378981639374835" lon="-4.546795432369602"><ele>70.0</ele><time>2026-05-02T08:25:04.001Z</time></trkpt><trkpt lat="43.37894739044114" lon="-4.546647770853682"><ele>70.0</ele><time>2026-05-02T08:25:05.001Z</time></trkpt><trkpt lat="43.37890794921136" lon="-4.546505284435794"><ele>68.0</ele><time>2026-05-02T08:25:06.001Z</time></trkpt><trkpt lat="43.37887112183884" lon="-4.546357703712008"><ele>66.0</ele><time>2026-05-02T08:25:07.001Z</time></trkpt><trkpt lat="43.378832405787904" lon="-4.546213999958908"><ele>64.0</ele><time>2026-05-02T08:25:08.001Z</time></trkpt><trkpt lat="43.37879399247567" lon="-4.546065677309801"><ele>62.0</ele><time>2026-05-02T08:25:09.001Z</time></trkpt><trkpt lat="43.37875428310619" lon="-4.545920379820356"><ele>64.6</ele><time>2026-05-02T08:25:10.001Z</time></trkpt><trkpt lat="43.37871230321637" lon="-4.5457790343159346"><ele>67.2</ele><time>2026-05-02T08:25:11.001Z</time></trkpt><trkpt lat="43.378673231127294" lon="-4.5456337743943935"><ele>69.8</ele><time>2026-05-02T08:25:12.001Z</time></trkpt><trkpt lat="43.3786310941098" lon="-4.545494372066912"><ele>72.4</ele><time>2026-05-02T08:25:13.001Z</time></trkpt><trkpt lat="43.3785920669976" lon="-4.5453492970454334"><ele>75.0</ele><time>2026-05-02T08:25:14.001Z</time></trkpt><trkpt lat="43.37854843095394" lon="-4.545204083699552"><ele>75.0</ele><time>2026-05-02T08:25:15.001Z</time></trkpt><trkpt lat="43.3785084495333" lon="-4.545065685475686"><ele>75.0</ele><time>2026-05-02T08:25:16.001Z</time></trkpt><trkpt lat="43.378466173777554" lon="-4.544920007811374"><ele>75.0</ele><time>2026-05-02T08:25:17.001Z</time></trkpt><trkpt lat="43.378426396875454" lon="-4.544776938866147"><ele>75.0</ele><time>2026-05-02T08:25:18.001Z</time></trkpt><trkpt lat="43.3783877182991" lon="-4.5446342259913495"><ele>75.0</ele><time>2026-05-02T08:25:19.001Z</time></trkpt><trkpt lat="43.37835023874365" lon="-4.544486673670167"><ele>73.75</ele><time>2026-05-02T08:25:20.001Z</time></trkpt><trkpt lat="43.37831777358446" lon="-4.544339102296027"><ele>72.5</ele><time>2026-05-02T08:25:21.001Z</time></trkpt><trkpt lat="43.37828601005481" lon="-4.544187059059666"><ele>71.25</ele><time>2026-05-02T08:25:22.001Z</time></trkpt><trkpt lat="43.378261508461705" lon="-4.544038040321205"><ele>70.0</ele><time>2026-05-02T08:25:23.001Z</time></trkpt><trkpt lat="43.37824118062047" lon="-4.543884704195363"><ele>70.0</ele><time>2026-05-02T08:25:24.001Z</time></trkpt><trkpt lat="43.3782246280358" lon="-4.543726548834272"><ele>70.0</ele><time>2026-05-02T08:25:25Z</time></trkpt><trkpt lat="43.3782109384592" lon="-4.5435710547106485"><ele>70.0</ele><time>2026-05-02T08:25:26Z</time></trkpt><trkpt lat="43.37819944176535" lon="-4.543418409564198"><ele>70.0</ele><time>2026-05-02T08:25:27Z</time></trkpt><trkpt lat="43.37818600697056" lon="-4.54326114396832"><ele>69.0</ele><time>2026-05-02T08:25:28Z</time></trkpt><trkpt lat="43.378168936435706" lon="-4.54311045198223"><ele>68.0</ele><time>2026-05-02T08:25:29Z</time></trkpt><trkpt lat="43.37815150806431" lon="-4.542954998016968"><ele>67.0</ele><time>2026-05-02T08:25:30Z</time></trkpt><trkpt lat="43.37812906254545" lon="-4.542800524889092"><ele>66.0</ele><time>2026-05-02T08:25:31Z</time></trkpt><trkpt lat="43.3781082984044" lon="-4.542646532060233"><ele>65.6</ele><time>2026-05-02T08:25:32Z</time></trkpt><trkpt lat="43.378083098472956" lon="-4.542497075906528"><ele>65.19999999999999</ele><time>2026-05-02T08:25:33Z</time></trkpt><trkpt lat="43.378056484015985" lon="-4.542349004552049"><ele>64.80000000000001</ele><time>2026-05-02T08:25:34Z</time></trkpt><trkpt lat="43.378024200786996" lon="-4.542202355785229"><ele>64.4</ele><time>2026-05-02T08:25:35Z</time></trkpt><trkpt lat="43.37799559068907" lon="-4.542052688588183"><ele>64.0</ele><time>2026-05-02T08:25:36Z</time></trkpt><trkpt lat="43.377965540307954" lon="-4.541900431766157"><ele>68.4</ele><time>2026-05-02T08:25:37Z</time></trkpt><trkpt lat="43.37793522962877" lon="-4.5417552931884435"><ele>72.80000000000001</ele><time>2026-05-02T08:25:38Z</time></trkpt><trkpt lat="43.37790397926708" lon="-4.5416089633188985"><ele>77.19999999999999</ele><time>2026-05-02T08:25:39Z</time></trkpt><trkpt lat="43.377873933087244" lon="-4.541459583902889"><ele>81.6</ele><time>2026-05-02T08:25:40Z</time></trkpt><trkpt lat="43.37783885127394" lon="-4.5413103484404065"><ele>86.0</ele><time>2026-05-02T08:25:41Z</time></trkpt><trkpt lat="43.377807100536984" lon="-4.5411579903286885"><ele>86.0</ele><time>2026-05-02T08:25:42Z</time></trkpt><trkpt lat="43.377773742051836" lon="-4.541011781724826"><ele>86.0</ele><time>2026-05-02T08:25:43Z</time></trkpt><trkpt lat="43.377744319074786" lon="-4.540859933070218"><ele>86.0</ele><time>2026-05-02T08:25:44Z</time></trkpt><trkpt lat="43.377704834419106" lon="-4.540711078689189"><ele>86.0</ele><time>2026-05-02T08:25:45Z</time></trkpt><trkpt lat="43.37767303468041" lon="-4.540558950226534"><ele>86.0</ele><time>2026-05-02T08:25:46Z</time></trkpt><trkpt lat="43.37763935521836" lon="-4.54040841600898"><ele>86.0</ele><time>2026-05-02T08:25:47Z</time></trkpt><trkpt lat="43.377606449103176" lon="-4.5402559690462585"><ele>86.0</ele><time>2026-05-02T08:25:48Z</time></trkpt><trkpt lat="43.37756930991844" lon="-4.540101323905103"><ele>86.0</ele><time>2026-05-02T08:25:49Z</time></trkpt><trkpt lat="43.377535596587826" lon="-4.539951515893407"><ele>83.75</ele><time>2026-05-02T08:25:50Z</time></trkpt><trkpt lat="43.377499862639226" lon="-4.539800927773528"><ele>81.5</ele><time>2026-05-02T08:25:51Z</time></trkpt><trkpt lat="43.37746566936318" lon="-4.539648479497274"><ele>79.25</ele><time>2026-05-02T08:25:52Z</time></trkpt><trkpt lat="43.37743153052373" lon="-4.539498289949989"><ele>77.0</ele><time>2026-05-02T08:25:53Z</time></trkpt><trkpt lat="43.377397918929304" lon="-4.53934621872844"><ele>73.0</ele><time>2026-05-02T08:25:54Z</time></trkpt><trkpt lat="43.37736136091072" lon="-4.539197572684327"><ele>69.0</ele><time>2026-05-02T08:25:55Z</time></trkpt><trkpt lat="43.37732726597973" lon="-4.539047003538009"><ele>65.0</ele><time>2026-05-02T08:25:56Z</time></trkpt><trkpt lat="43.37728501954527" lon="-4.538902496809325"><ele>61.0</ele><time>2026-05-02T08:25:57Z</time></trkpt><trkpt lat="43.37725148031949" lon="-4.5387560908358555"><ele>57.5</ele><time>2026-05-02T08:25:58Z</time></trkpt><trkpt lat="43.3772149741883" lon="-4.538605678589566"><ele>54.0</ele><time>2026-05-02T08:25:59Z</time></trkpt><trkpt lat="43.377176669625875" lon="-4.538458975211032"><ele>50.5</ele><time>2026-05-02T08:26:00Z</time></trkpt><trkpt lat="43.37714019216634" lon="-4.538310705543337"><ele>47.0</ele><time>2026-05-02T08:26:01Z</time></trkpt><trkpt lat="43.37710516794677" lon="-4.538164708883922"><ele>54.5</ele><time>2026-05-02T08:26:02Z</time></trkpt><trkpt lat="43.37706343495951" lon="-4.538014810152038"><ele>62.0</ele><time>2026-05-02T08:26:03Z</time></trkpt><trkpt lat="43.37702629205596" lon="-4.537869063087193"><ele>69.5</ele><time>2026-05-02T08:26:04Z</time></trkpt><trkpt lat="43.37698966276605" lon="-4.537721878677768"><ele>77.0</ele><time>2026-05-02T08:26:05Z</time></trkpt><trkpt lat="43.37695158213885" lon="-4.537571573267604"><ele>77.0</ele><time>2026-05-02T08:26:06Z</time></trkpt><trkpt lat="43.376914038733005" lon="-4.5374276983805615"><ele>77.0</ele><time>2026-05-02T08:26:07Z</time></trkpt><trkpt lat="43.37687459763953" lon="-4.5372763980598165"><ele>77.0</ele><time>2026-05-02T08:26:08Z</time></trkpt><trkpt lat="43.37683621171031" lon="-4.537128955236223"><ele>77.0</ele><time>2026-05-02T08:26:09Z</time></trkpt><trkpt lat="43.37679962254509" lon="-4.53698423910426"><ele>73.25</ele><time>2026-05-02T08:26:10Z</time></trkpt><trkpt lat="43.376757223795586" lon="-4.536837916027573"><ele>69.5</ele><time>2026-05-02T08:26:11Z</time></trkpt><trkpt lat="43.376722121265885" lon="-4.5366888619306645"><ele>65.75</ele><time>2026-05-02T08:26:12Z</time></trkpt><trkpt lat="43.37668338418837" lon="-4.536540532841305"><ele>62.0</ele><time>2026-05-02T08:26:13Z</time></trkpt><trkpt lat="43.3766489054929" lon="-4.536391362630901"><ele>62.0</ele><time>2026-05-02T08:26:14Z</time></trkpt><trkpt lat="43.37660995103286" lon="-4.536244976688647"><ele>62.0</ele><time>2026-05-02T08:26:15Z</time></trkpt><trkpt lat="43.37657022833827" lon="-4.5360971793265294"><ele>62.0</ele><time>2026-05-02T08:26:16Z</time></trkpt><trkpt lat="43.37653576224018" lon="-4.535949074971025"><ele>62.0</ele><time>2026-05-02T08:26:17Z</time></trkpt><trkpt lat="43.37650132727713" lon="-4.535803728313547"><ele>59.5</ele><time>2026-05-02T08:26:18Z</time></trkpt><trkpt lat="43.37646765129817" lon="-4.535651713441645"><ele>57.0</ele><time>2026-05-02T08:26:19Z</time></trkpt><trkpt lat="43.376435553846754" lon="-4.535500187630459"><ele>54.5</ele><time>2026-05-02T08:26:20Z</time></trkpt><trkpt lat="43.37640195790851" lon="-4.5353500608463895"><ele>52.0</ele><time>2026-05-02T08:26:21Z</time></trkpt><trkpt lat="43.376369046386" lon="-4.535198577610147"><ele>59.75</ele><time>2026-05-02T08:26:22Z</time></trkpt><trkpt lat="43.37633667520392" lon="-4.53504762578613"><ele>67.5</ele><time>2026-05-02T08:26:23Z</time></trkpt><trkpt lat="43.376307321837736" lon="-4.534894873050868"><ele>75.25</ele><time>2026-05-02T08:26:24Z</time></trkpt><trkpt lat="43.376282756868726" lon="-4.53474120205867"><ele>83.0</ele><time>2026-05-02T08:26:25Z</time></trkpt><trkpt lat="43.37624961374494" lon="-4.534585626883595"><ele>80.25</ele><time>2026-05-02T08:26:26Z</time></trkpt><trkpt lat="43.376220943716625" lon="-4.534431902784758"><ele>77.5</ele><time>2026-05-02T08:26:27Z</time></trkpt><trkpt lat="43.37619342043675" lon="-4.534277560189275"><ele>74.75</ele><time>2026-05-02T08:26:28Z</time></trkpt><trkpt lat="43.37616628800497" lon="-4.534122702838537"><ele>72.0</ele><time>2026-05-02T08:26:29Z</time></trkpt><trkpt lat="43.37614053934386" lon="-4.533967526518147"><ele>72.0</ele><time>2026-05-02T08:26:30Z</time></trkpt><trkpt lat="43.37611703846482" lon="-4.533810756861881"><ele>72.0</ele><time>2026-05-02T08:26:31Z</time></trkpt><trkpt lat="43.376093535487016" lon="-4.5336539874940724"><ele>72.0</ele><time>2026-05-02T08:26:32Z</time></trkpt><trkpt lat="43.37607086311627" lon="-4.533497090777991"><ele>72.0</ele><time>2026-05-02T08:26:33Z</time></trkpt><trkpt lat="43.376047875146426" lon="-4.53334065722706"><ele>69.25</ele><time>2026-05-02T08:26:34Z</time></trkpt><trkpt lat="43.37602552184798" lon="-4.533182474919526"><ele>66.5</ele><time>2026-05-02T08:26:35Z</time></trkpt><trkpt lat="43.37600413271322" lon="-4.5330226329998915"><ele>63.75</ele><time>2026-05-02T08:26:36Z</time></trkpt><trkpt lat="43.37598622189084" lon="-4.532862166794021"><ele>61.0</ele><time>2026-05-02T08:26:37Z</time></trkpt><trkpt lat="43.37596872708737" lon="-4.5327029277449284"><ele>58.75</ele><time>2026-05-02T08:26:38Z</time></trkpt><trkpt lat="43.37595028611826" lon="-4.532545169403575"><ele>56.5</ele><time>2026-05-02T08:26:39Z</time></trkpt><trkpt lat="43.37593406957161" lon="-4.532386585785806"><ele>54.25</ele><time>2026-05-02T08:26:40Z</time></trkpt><trkpt lat="43.37592898805298" lon="-4.53222627732115"><ele>52.0</ele><time>2026-05-02T08:26:41Z</time></trkpt><trkpt lat="43.37592592196835" lon="-4.532070480485064"><ele>51.0</ele><time>2026-05-02T08:26:42Z</time></trkpt><trkpt lat="43.3759235847766" lon="-4.53191020064421"><ele>50.0</ele><time>2026-05-02T08:26:43Z</time></trkpt><trkpt lat="43.375919460075146" lon="-4.5317512198821825"><ele>49.0</ele><time>2026-05-02T08:26:44Z</time></trkpt><trkpt lat="43.375914092606045" lon="-4.531597196505019"><ele>48.0</ele><time>2026-05-02T08:26:45Z</time></trkpt><trkpt lat="43.37590218787016" lon="-4.531442283436314"><ele>48.0</ele><time>2026-05-02T08:26:46Z</time></trkpt><trkpt lat="43.37589170034521" lon="-4.531287586052615"><ele>48.0</ele><time>2026-05-02T08:26:47Z</time></trkpt><trkpt lat="43.375879575035405" lon="-4.531130895023806"><ele>48.0</ele><time>2026-05-02T08:26:48Z</time></trkpt><trkpt lat="43.37586776292203" lon="-4.530974783544192"><ele>48.0</ele><time>2026-05-02T08:26:49Z</time></trkpt><trkpt lat="43.3758626762081" lon="-4.530822761004684"><ele>48.5</ele><time>2026-05-02T08:26:50Z</time></trkpt><trkpt lat="43.37585382582926" lon="-4.530664462486277"><ele>49.0</ele><time>2026-05-02T08:26:51Z</time></trkpt><trkpt lat="43.375846077439014" lon="-4.530510548376401"><ele>49.5</ele><time>2026-05-02T08:26:52Z</time></trkpt><trkpt lat="43.37584028322189" lon="-4.530352954424507"><ele>50.0</ele><time>2026-05-02T08:26:53Z</time></trkpt><trkpt lat="43.37583427626734" lon="-4.530196028617375"><ele>50.25</ele><time>2026-05-02T08:26:54Z</time></trkpt><trkpt lat="43.37583247496718" lon="-4.530040004810583"><ele>50.5</ele><time>2026-05-02T08:26:55Z</time></trkpt><trkpt lat="43.375827844461824" lon="-4.52988204269335"><ele>50.75</ele><time>2026-05-02T08:26:56Z</time></trkpt><trkpt lat="43.37582386125157" lon="-4.529722642467955"><ele>51.0</ele><time>2026-05-02T08:26:57Z</time></trkpt><trkpt lat="43.375820014584285" lon="-4.529560523075586"><ele>50.5</ele><time>2026-05-02T08:26:58Z</time></trkpt><trkpt lat="43.37581598780799" lon="-4.5294000639938865"><ele>50.0</ele><time>2026-05-02T08:26:59Z</time></trkpt><trkpt lat="43.375809545634866" lon="-4.529239127675763"><ele>49.5</ele><time>2026-05-02T08:27:00.001Z</time></trkpt><trkpt lat="43.37580008043693" lon="-4.529078127403949"><ele>49.0</ele><time>2026-05-02T08:27:01.001Z</time></trkpt><trkpt lat="43.37578547328159" lon="-4.528918470203132"><ele>49.0</ele><time>2026-05-02T08:27:02.001Z</time></trkpt><trkpt lat="43.375769188784176" lon="-4.528758394726048"><ele>49.0</ele><time>2026-05-02T08:27:03.001Z</time></trkpt><trkpt lat="43.37575285788437" lon="-4.528596738956312"><ele>49.0</ele><time>2026-05-02T08:27:04.001Z</time></trkpt><trkpt lat="43.37573913275999" lon="-4.528435892217805"><ele>49.0</ele><time>2026-05-02T08:27:05.001Z</time></trkpt><trkpt lat="43.37572488503742" lon="-4.5282730098126125"><ele>45.5</ele><time>2026-05-02T08:27:06.001Z</time></trkpt><trkpt lat="43.37571218287151" lon="-4.528112187530969"><ele>42.0</ele><time>2026-05-02T08:27:07.001Z</time></trkpt><trkpt lat="43.37570574184297" lon="-4.5279495549065345"><ele>38.5</ele><time>2026-05-02T08:27:08.001Z</time></trkpt><trkpt lat="43.3757053427766" lon="-4.527788668398105"><ele>35.0</ele><time>2026-05-02T08:27:09.001Z</time></trkpt><trkpt lat="43.3757099534456" lon="-4.527624510902547"><ele>33.5</ele><time>2026-05-02T08:27:10.001Z</time></trkpt><trkpt lat="43.37571943601985" lon="-4.527459863676709"><ele>32.0</ele><time>2026-05-02T08:27:11.001Z</time></trkpt><trkpt lat="43.37573431352017" lon="-4.527298804851446"><ele>30.5</ele><time>2026-05-02T08:27:12.001Z</time></trkpt><trkpt lat="43.37575166793455" lon="-4.52714089693828"><ele>29.0</ele><time>2026-05-02T08:27:13.001Z</time></trkpt><trkpt lat="43.375774329636265" lon="-4.526984284150055"><ele>29.0</ele><time>2026-05-02T08:27:14.001Z</time></trkpt><trkpt lat="43.375803032973465" lon="-4.526827299537348"><ele>29.0</ele><time>2026-05-02T08:27:15.001Z</time></trkpt><trkpt lat="43.37583313542498" lon="-4.5266711142086224"><ele>29.0</ele><time>2026-05-02T08:27:16.001Z</time></trkpt><trkpt lat="43.375865595311524" lon="-4.526517103431114"><ele>29.0</ele><time>2026-05-02T08:27:17.001Z</time></trkpt><trkpt lat="43.375900426771885" lon="-4.526362456775958"><ele>30.5</ele><time>2026-05-02T08:27:18.001Z</time></trkpt><trkpt lat="43.37593571160363" lon="-4.526206544879409"><ele>32.0</ele><time>2026-05-02T08:27:19.001Z</time></trkpt><trkpt lat="43.375969191560515" lon="-4.52605186956902"><ele>33.5</ele><time>2026-05-02T08:27:20.001Z</time></trkpt><trkpt lat="43.37600307506541" lon="-4.525896234119324"><ele>35.0</ele><time>2026-05-02T08:27:21.001Z</time></trkpt><trkpt lat="43.37603403596675" lon="-4.525741512299307"><ele>35.0</ele><time>2026-05-02T08:27:22.001Z</time></trkpt><trkpt lat="43.37606026739188" lon="-4.525584431948716"><ele>35.0</ele><time>2026-05-02T08:27:23.001Z</time></trkpt><trkpt lat="43.37608430145628" lon="-4.525429124807559"><ele>35.0</ele><time>2026-05-02T08:27:24.001Z</time></trkpt><trkpt lat="43.3761052243083" lon="-4.525272613762537"><ele>35.0</ele><time>2026-05-02T08:27:25.001Z</time></trkpt><trkpt lat="43.37612590814377" lon="-4.525116698962244"><ele>35.25</ele><time>2026-05-02T08:27:26.001Z</time></trkpt><trkpt lat="43.37614103030924" lon="-4.524953895376873"><ele>35.5</ele><time>2026-05-02T08:27:27.001Z</time></trkpt><trkpt lat="43.376151487202584" lon="-4.524795588810919"><ele>35.75</ele><time>2026-05-02T08:27:28.001Z</time></trkpt><trkpt lat="43.376161017002836" lon="-4.524636664658757"><ele>36.0</ele><time>2026-05-02T08:27:29.001Z</time></trkpt><trkpt lat="43.376170126707514" lon="-4.5244802672854645"><ele>35.25</ele><time>2026-05-02T08:27:30.001Z</time></trkpt><trkpt lat="43.376180349518144" lon="-4.524322895205528"><ele>34.5</ele><time>2026-05-02T08:27:31Z</time></trkpt><trkpt lat="43.376192146761106" lon="-4.524167490306056"><ele>33.75</ele><time>2026-05-02T08:27:32Z</time></trkpt><trkpt lat="43.37620551475816" lon="-4.524013184041362"><ele>33.0</ele><time>2026-05-02T08:27:33Z</time></trkpt><trkpt lat="43.37622109558018" lon="-4.523857909496619"><ele>32.0</ele><time>2026-05-02T08:27:34Z</time></trkpt><trkpt lat="43.37624103783663" lon="-4.523704616328268"><ele>31.0</ele><time>2026-05-02T08:27:35Z</time></trkpt><trkpt lat="43.37626567518306" lon="-4.523551491907268"><ele>30.0</ele><time>2026-05-02T08:27:36Z</time></trkpt><trkpt lat="43.37629368633488" lon="-4.523398218237778"><ele>29.0</ele><time>2026-05-02T08:27:37Z</time></trkpt><trkpt lat="43.37632619343207" lon="-4.5232460599662145"><ele>25.25</ele><time>2026-05-02T08:27:38Z</time></trkpt><trkpt lat="43.37636206630853" lon="-4.523096090427224"><ele>21.5</ele><time>2026-05-02T08:27:39Z</time></trkpt><trkpt lat="43.37640354886309" lon="-4.522948259595188"><ele>17.75</ele><time>2026-05-02T08:27:40Z</time></trkpt><trkpt lat="43.37645060669174" lon="-4.522803150368352"><ele>14.0</ele><time>2026-05-02T08:27:41Z</time></trkpt><trkpt lat="43.376500057003376" lon="-4.522661835002159"><ele>14.0</ele><time>2026-05-02T08:27:42Z</time></trkpt><trkpt lat="43.376554733908094" lon="-4.52252152141009"><ele>14.0</ele><time>2026-05-02T08:27:43Z</time></trkpt><trkpt lat="43.376611151179524" lon="-4.522385154380732"><ele>14.0</ele><time>2026-05-02T08:27:44Z</time></trkpt><trkpt lat="43.37667127535656" lon="-4.522247056178746"><ele>14.0</ele><time>2026-05-02T08:27:45Z</time></trkpt><trkpt lat="43.37673056302324" lon="-4.522111633417863"><ele>15.0</ele><time>2026-05-02T08:27:46Z</time></trkpt><trkpt lat="43.37679147898331" lon="-4.52197569020469"><ele>16.0</ele><time>2026-05-02T08:27:47Z</time></trkpt><trkpt lat="43.376852393643304" lon="-4.521839630393498"><ele>17.0</ele><time>2026-05-02T08:27:48Z</time></trkpt><trkpt lat="43.376911880936355" lon="-4.521704819678551"><ele>18.0</ele><time>2026-05-02T08:27:49Z</time></trkpt><trkpt lat="43.37697008120821" lon="-4.5215698162422004"><ele>18.0</ele><time>2026-05-02T08:27:50Z</time></trkpt><trkpt lat="43.37702515020427" lon="-4.521429642001914"><ele>18.0</ele><time>2026-05-02T08:27:51Z</time></trkpt><trkpt lat="43.377076101039854" lon="-4.521288085207558"><ele>18.0</ele><time>2026-05-02T08:27:52Z</time></trkpt><trkpt lat="43.37712206767973" lon="-4.521140179133828"><ele>18.0</ele><time>2026-05-02T08:27:53Z</time></trkpt><trkpt lat="43.377162691869216" lon="-4.52099245941636"><ele>16.5</ele><time>2026-05-02T08:27:54Z</time></trkpt><trkpt lat="43.377200784656246" lon="-4.520839895324036"><ele>15.0</ele><time>2026-05-02T08:27:55Z</time></trkpt><trkpt lat="43.37723528902949" lon="-4.520685898582087"><ele>13.5</ele><time>2026-05-02T08:27:56Z</time></trkpt><trkpt lat="43.377264026352705" lon="-4.52053062865213"><ele>12.0</ele><time>2026-05-02T08:27:57Z</time></trkpt><trkpt lat="43.3772857612215" lon="-4.520374497664506"><ele>10.75</ele><time>2026-05-02T08:27:58Z</time></trkpt><trkpt lat="43.3773045349989" lon="-4.520218546318875"><ele>9.5</ele><time>2026-05-02T08:27:59Z</time></trkpt><trkpt lat="43.37731910116414" lon="-4.520063607884156"><ele>8.25</ele><time>2026-05-02T08:28:00Z</time></trkpt><trkpt lat="43.377328918487294" lon="-4.519907477427011"><ele>7.0</ele><time>2026-05-02T08:28:01Z</time></trkpt><trkpt lat="43.37733242273932" lon="-4.5197511371969235"><ele>7.0</ele><time>2026-05-02T08:28:02Z</time></trkpt><trkpt lat="43.37733121341474" lon="-4.519597284017429"><ele>7.0</ele><time>2026-05-02T08:28:03Z</time></trkpt><trkpt lat="43.37732373749729" lon="-4.519440035590175"><ele>7.0</ele><time>2026-05-02T08:28:04Z</time></trkpt><trkpt lat="43.37731196182482" lon="-4.519283874972459"><ele>7.0</ele><time>2026-05-02T08:28:05Z</time></trkpt><trkpt lat="43.37729614587494" lon="-4.519128847521886"><ele>6.25</ele><time>2026-05-02T08:28:06Z</time></trkpt><trkpt lat="43.37727560020057" lon="-4.518976173524325"><ele>5.5</ele><time>2026-05-02T08:28:07Z</time></trkpt><trkpt lat="43.37724830529085" lon="-4.518825048565275"><ele>4.75</ele><time>2026-05-02T08:28:08Z</time></trkpt><trkpt lat="43.37721844498601" lon="-4.518674070348156"><ele>4.0</ele><time>2026-05-02T08:28:09Z</time></trkpt><trkpt lat="43.37718236300209" lon="-4.518526127889977"><ele>4.0</ele><time>2026-05-02T08:28:10Z</time></trkpt><trkpt lat="43.37714329313783" lon="-4.5183815238619465"><ele>4.0</ele><time>2026-05-02T08:28:11Z</time></trkpt><trkpt lat="43.377101872083855" lon="-4.518238495876579"><ele>4.0</ele><time>2026-05-02T08:28:12Z</time></trkpt><trkpt lat="43.37705763163067" lon="-4.518097044340747"><ele>4.0</ele><time>2026-05-02T08:28:13Z</time></trkpt><trkpt lat="43.377008097677574" lon="-4.517955231303522"><ele>3.8000000000000003</ele><time>2026-05-02T08:28:14Z</time></trkpt><trkpt lat="43.37695601620799" lon="-4.517816718289146"><ele>3.6000000000000005</ele><time>2026-05-02T08:28:15Z</time></trkpt><trkpt lat="43.37690294720454" lon="-4.5176819952053995"><ele>3.4</ele><time>2026-05-02T08:28:16Z</time></trkpt><trkpt lat="43.37684802433019" lon="-4.517549310064744"><ele>3.2</ele><time>2026-05-02T08:28:17Z</time></trkpt><trkpt lat="43.37679237823469" lon="-4.517417114002575"><ele>3.0</ele><time>2026-05-02T08:28:18Z</time></trkpt><trkpt lat="43.37673784888461" lon="-4.517286131538948"><ele>3.0</ele><time>2026-05-02T08:28:19Z</time></trkpt><trkpt lat="43.376681305153646" lon="-4.517155298934472"><ele>3.0</ele><time>2026-05-02T08:28:20Z</time></trkpt><trkpt lat="43.37662342903448" lon="-4.517024206913006"><ele>3.0</ele><time>2026-05-02T08:28:21Z</time></trkpt><trkpt lat="43.37656902912469" lon="-4.516893345070602"><ele>3.0</ele><time>2026-05-02T08:28:22Z</time></trkpt><trkpt lat="43.37651289443208" lon="-4.516760744328149"><ele>3.0</ele><time>2026-05-02T08:28:23Z</time></trkpt><trkpt lat="43.376458926247174" lon="-4.516631491574778"><ele>3.0</ele><time>2026-05-02T08:28:24Z</time></trkpt><trkpt lat="43.3764045811603" lon="-4.516500095990554"><ele>3.0</ele><time>2026-05-02T08:28:25Z</time></trkpt><trkpt lat="43.37634896381937" lon="-4.516369207092143"><ele>3.0</ele><time>2026-05-02T08:28:26Z</time></trkpt><trkpt lat="43.376296003549136" lon="-4.516238829430746"><ele>3.0</ele><time>2026-05-02T08:28:27Z</time></trkpt><trkpt lat="43.37624097721655" lon="-4.516105945386581"><ele>3.0</ele><time>2026-05-02T08:28:28Z</time></trkpt><trkpt lat="43.3761863862228" lon="-4.515972066599012"><ele>3.0</ele><time>2026-05-02T08:28:29Z</time></trkpt><trkpt lat="43.376133101839876" lon="-4.515837885549582"><ele>3.0</ele><time>2026-05-02T08:28:30Z</time></trkpt><trkpt lat="43.37608370356927" lon="-4.5157060403331775"><ele>3.0</ele><time>2026-05-02T08:28:31Z</time></trkpt><trkpt lat="43.3760292080302" lon="-4.5155689104906624"><ele>3.0</ele><time>2026-05-02T08:28:32Z</time></trkpt><trkpt lat="43.37597578561842" lon="-4.515433306563695"><ele>3.0</ele><time>2026-05-02T08:28:33Z</time></trkpt><trkpt lat="43.37592544554443" lon="-4.51529755697127"><ele>3.2</ele><time>2026-05-02T08:28:34Z</time></trkpt><trkpt lat="43.375875338577295" lon="-4.515158570824503"><ele>3.4</ele><time>2026-05-02T08:28:35Z</time></trkpt><trkpt lat="43.37582797466815" lon="-4.515021132902842"><ele>3.6000000000000005</ele><time>2026-05-02T08:28:36Z</time></trkpt><trkpt lat="43.37578284642437" lon="-4.514881207629212"><ele>3.8000000000000003</ele><time>2026-05-02T08:28:37Z</time></trkpt><trkpt lat="43.37573904810006" lon="-4.514741289782489"><ele>4.0</ele><time>2026-05-02T08:28:38Z</time></trkpt><trkpt lat="43.37569846346467" lon="-4.514602206992353"><ele>3.6</ele><time>2026-05-02T08:28:39Z</time></trkpt><trkpt lat="43.37565934319251" lon="-4.514460414497452"><ele>3.2</ele><time>2026-05-02T08:28:40Z</time></trkpt><trkpt lat="43.375621556051414" lon="-4.514317305877135"><ele>2.8000000000000003</ele><time>2026-05-02T08:28:41Z</time></trkpt><trkpt lat="43.37558813233325" lon="-4.514174869440647"><ele>2.4000000000000004</ele><time>2026-05-02T08:28:42Z</time></trkpt><trkpt lat="43.37555517529022" lon="-4.51403233710321"><ele>2.0</ele><time>2026-05-02T08:28:43Z</time></trkpt><trkpt lat="43.37552569050753" lon="-4.513886495151047"><ele>2.0</ele><time>2026-05-02T08:28:44Z</time></trkpt><trkpt lat="43.37549774014377" lon="-4.513740156870801"><ele>2.0</ele><time>2026-05-02T08:28:45Z</time></trkpt><trkpt lat="43.37547300864866" lon="-4.513592273424328"><ele>2.0</ele><time>2026-05-02T08:28:46Z</time></trkpt><trkpt lat="43.37545303257351" lon="-4.5134429986865205"><ele>2.0</ele><time>2026-05-02T08:28:47Z</time></trkpt><trkpt lat="43.37543436348053" lon="-4.513292096393889"><ele>2.0</ele><time>2026-05-02T08:28:48Z</time></trkpt><trkpt lat="43.375416613208515" lon="-4.513142718790658"><ele>2.0</ele><time>2026-05-02T08:28:49Z</time></trkpt><trkpt lat="43.37540155265399" lon="-4.512992635690246"><ele>2.0</ele><time>2026-05-02T08:28:50Z</time></trkpt><trkpt lat="43.37538731135088" lon="-4.512841565785101"><ele>2.0</ele><time>2026-05-02T08:28:51Z</time></trkpt><trkpt lat="43.37537707454934" lon="-4.512690774929098"><ele>2.0</ele><time>2026-05-02T08:28:52Z</time></trkpt><trkpt lat="43.37537201390673" lon="-4.512537483090636"><ele>2.0</ele><time>2026-05-02T08:28:53Z</time></trkpt><trkpt lat="43.37536860973482" lon="-4.512386401278331"><ele>2.0</ele><time>2026-05-02T08:28:54Z</time></trkpt><trkpt lat="43.37536599525829" lon="-4.512235667942094"><ele>2.0</ele><time>2026-05-02T08:28:55Z</time></trkpt><trkpt lat="43.37536584583445" lon="-4.512082519450947"><ele>2.0</ele><time>2026-05-02T08:28:56Z</time></trkpt><trkpt lat="43.37536782014267" lon="-4.51192973250954"><ele>2.0</ele><time>2026-05-02T08:28:57.001Z</time></trkpt><trkpt lat="43.375372685123914" lon="-4.5117776922363495"><ele>2.0</ele><time>2026-05-02T08:28:58.001Z</time></trkpt><trkpt lat="43.37537939385557" lon="-4.511625929372219"><ele>2.2</ele><time>2026-05-02T08:28:59.001Z</time></trkpt><trkpt lat="43.37538794684812" lon="-4.511475425385342"><ele>2.4000000000000004</ele><time>2026-05-02T08:29:00.001Z</time></trkpt><trkpt lat="43.37539997885474" lon="-4.511323936906942"><ele>2.5999999999999996</ele><time>2026-05-02T08:29:01.001Z</time></trkpt><trkpt lat="43.3754155230027" lon="-4.511174253477501"><ele>2.8</ele><time>2026-05-02T08:29:02.001Z</time></trkpt><trkpt lat="43.375432383159726" lon="-4.511028275561905"><ele>3.0</ele><time>2026-05-02T08:29:03.001Z</time></trkpt><trkpt lat="43.37545161771082" lon="-4.510880828780594"><ele>3.0</ele><time>2026-05-02T08:29:04.001Z</time></trkpt><trkpt lat="43.375473794750896" lon="-4.510741790331763"><ele>3.0</ele><time>2026-05-02T08:29:05.001Z</time></trkpt><trkpt lat="43.37549221511495" lon="-4.510585227236045"><ele>3.0</ele><time>2026-05-02T08:29:06.001Z</time></trkpt><trkpt lat="43.37551123202879" lon="-4.510418701905014"><ele>3.0</ele><time>2026-05-02T08:29:07.001Z</time></trkpt><trkpt lat="43.37555788526999" lon="-4.5101800104195755"><ele>2.5</ele><time>2026-05-02T08:29:08.001Z</time></trkpt><trkpt lat="43.37559750537382" lon="-4.5099105196101785"><ele>2.0</ele><time>2026-05-02T08:29:09.001Z</time></trkpt><trkpt lat="43.37558412463236" lon="-4.510002184248071"><ele>1.5</ele><time>2026-05-02T08:29:10.001Z</time></trkpt><trkpt lat="43.37561108623586" lon="-4.509854883200071"><ele>1.0</ele><time>2026-05-02T08:29:11.001Z</time></trkpt><trkpt lat="43.37563035456342" lon="-4.509701541630499"><ele>0.8</ele><time>2026-05-02T08:29:12.001Z</time></trkpt><trkpt lat="43.37564621407826" lon="-4.509552835633994"><ele>0.6000000000000001</ele><time>2026-05-02T08:29:13.001Z</time></trkpt><trkpt lat="43.37566949936203" lon="-4.509406834582704"><ele>0.4</ele><time>2026-05-02T08:29:14.001Z</time></trkpt><trkpt lat="43.37568996451159" lon="-4.509258224388031"><ele>0.2</ele><time>2026-05-02T08:29:15.001Z</time></trkpt><trkpt lat="43.375712411978334" lon="-4.509113601179039"><ele>0.0</ele><time>2026-05-02T08:29:16.001Z</time></trkpt><trkpt lat="43.37572987540317" lon="-4.508963258750013"><ele>0.0</ele><time>2026-05-02T08:29:17.001Z</time></trkpt><trkpt lat="43.37574869385499" lon="-4.508814557526794"><ele>0.0</ele><time>2026-05-02T08:29:18.001Z</time></trkpt><trkpt lat="43.37576519178277" lon="-4.5086673321407185"><ele>0.0</ele><time>2026-05-02T08:29:19.001Z</time></trkpt><trkpt lat="43.3757788257222" lon="-4.508517665077823"><ele>0.0</ele><time>2026-05-02T08:29:20.001Z</time></trkpt><trkpt lat="43.37579259036619" lon="-4.508370259025595"><ele>0.0</ele><time>2026-05-02T08:29:21.001Z</time></trkpt><trkpt lat="43.375801866091756" lon="-4.508218908953692"><ele>0.0</ele><time>2026-05-02T08:29:22.001Z</time></trkpt><trkpt lat="43.375812476273815" lon="-4.508067316274418"><ele>0.0</ele><time>2026-05-02T08:29:23.001Z</time></trkpt><trkpt lat="43.37582079725284" lon="-4.507914981669295"><ele>0.0</ele><time>2026-05-02T08:29:24.001Z</time></trkpt><trkpt lat="43.375827499370125" lon="-4.507762820332964"><ele>0.0</ele><time>2026-05-02T08:29:25.001Z</time></trkpt><trkpt lat="43.37583477590012" lon="-4.507614466948409"><ele>0.0</ele><time>2026-05-02T08:29:26.001Z</time></trkpt><trkpt lat="43.37584018580661" lon="-4.507467312543159"><ele>0.0</ele><time>2026-05-02T08:29:27.001Z</time></trkpt><trkpt lat="43.375847792597476" lon="-4.507318795497191"><ele>0.0</ele><time>2026-05-02T08:29:28.001Z</time></trkpt><trkpt lat="43.37585100211288" lon="-4.507173819410257"><ele>0.0</ele><time>2026-05-02T08:29:29.001Z</time></trkpt><trkpt lat="43.37585548024355" lon="-4.507026277500604"><ele>0.0</ele><time>2026-05-02T08:29:30.001Z</time></trkpt><trkpt lat="43.375856335869514" lon="-4.506877983704254"><ele>0.0</ele><time>2026-05-02T08:29:31.001Z</time></trkpt><trkpt lat="43.37585872110198" lon="-4.506732096988303"><ele>0.0</ele><time>2026-05-02T08:29:32.001Z</time></trkpt><trkpt lat="43.375854697706735" lon="-4.506577833688877"><ele>0.0</ele><time>2026-05-02T08:29:33.001Z</time></trkpt><trkpt lat="43.37585148455495" lon="-4.506426125922029"><ele>0.0</ele><time>2026-05-02T08:29:34.001Z</time></trkpt><trkpt lat="43.375845981039696" lon="-4.5062815771180516"><ele>0.0</ele><time>2026-05-02T08:29:35.001Z</time></trkpt><trkpt lat="43.37583877247278" lon="-4.506134547755508"><ele>0.0</ele><time>2026-05-02T08:29:36.001Z</time></trkpt><trkpt lat="43.37582176377756" lon="-4.505986278330325"><ele>0.2</ele><time>2026-05-02T08:29:37Z</time></trkpt><trkpt lat="43.37580148960816" lon="-4.505851012465321"><ele>0.4</ele><time>2026-05-02T08:29:38Z</time></trkpt><trkpt lat="43.37576609560227" lon="-4.505758915981824"><ele>0.6000000000000001</ele><time>2026-05-02T08:29:39Z</time></trkpt><trkpt lat="43.37573228660088" lon="-4.505678035365475"><ele>0.8</ele><time>2026-05-02T08:29:40Z</time></trkpt><trkpt lat="43.37571297398369" lon="-4.505481095311083"><ele>1.0</ele><time>2026-05-02T08:29:41Z</time></trkpt><trkpt lat="43.375705360820746" lon="-4.505270155282728"><ele>1.25</ele><time>2026-05-02T08:29:42Z</time></trkpt><trkpt lat="43.37566625974176" lon="-4.505049442789922"><ele>1.5</ele><time>2026-05-02T08:29:43Z</time></trkpt><trkpt lat="43.37564133829802" lon="-4.504897819387976"><ele>1.75</ele><time>2026-05-02T08:29:44Z</time></trkpt><trkpt lat="43.375625063037376" lon="-4.504746347551325"><ele>2.0</ele><time>2026-05-02T08:29:46Z</time></trkpt><trkpt lat="43.375593502332684" lon="-4.504654621017407"><ele>1.9999999999999998</ele><time>2026-05-02T08:29:47Z</time></trkpt><trkpt lat="43.37554497081307" lon="-4.50458418620535"><ele>2.0</ele><time>2026-05-02T08:29:48Z</time></trkpt><trkpt lat="43.37547724009171" lon="-4.504524256842695"><ele>2.0</ele><time>2026-05-02T08:29:49Z</time></trkpt><trkpt lat="43.375418441048225" lon="-4.504459816232242"><ele>2.0</ele><time>2026-05-02T08:29:50Z</time></trkpt><trkpt lat="43.37537886918516" lon="-4.50437520200226"><ele>1.9999999999999998</ele><time>2026-05-02T08:29:51Z</time></trkpt><trkpt lat="43.37536618236831" lon="-4.504273397029798"><ele>2.0</ele><time>2026-05-02T08:29:52Z</time></trkpt><trkpt lat="43.37536712535789" lon="-4.5041619410606195"><ele>2.4000000000000004</ele><time>2026-05-02T08:29:53Z</time></trkpt><trkpt lat="43.37538371474589" lon="-4.504042382885133"><ele>2.8000000000000003</ele><time>2026-05-02T08:29:54Z</time></trkpt><trkpt lat="43.3754024035145" lon="-4.503920289480355"><ele>3.2</ele><time>2026-05-02T08:29:55Z</time></trkpt><trkpt lat="43.37542071831731" lon="-4.503789993887453"><ele>3.6</ele><time>2026-05-02T08:29:56Z</time></trkpt><trkpt lat="43.37543462415499" lon="-4.5036548992567775"><ele>4.0</ele><time>2026-05-02T08:29:57Z</time></trkpt><trkpt lat="43.37544258106242" lon="-4.503518360087907"><ele>4.0</ele><time>2026-05-02T08:29:58Z</time></trkpt><trkpt lat="43.37544771736988" lon="-4.5033796147437855"><ele>4.0</ele><time>2026-05-02T08:29:59Z</time></trkpt><trkpt lat="43.37545017760895" lon="-4.503239728407656"><ele>4.0</ele><time>2026-05-02T08:30:00Z</time></trkpt><trkpt lat="43.37545237452926" lon="-4.503099025622811"><ele>4.0</ele><time>2026-05-02T08:30:01Z</time></trkpt><trkpt lat="43.37545618688712" lon="-4.502957998895552"><ele>4.0</ele><time>2026-05-02T08:30:02Z</time></trkpt><trkpt lat="43.37545827128442" lon="-4.502816576717873"><ele>4.0</ele><time>2026-05-02T08:30:03Z</time></trkpt><trkpt lat="43.37545135995985" lon="-4.502673599018152"><ele>4.0</ele><time>2026-05-02T08:30:04Z</time></trkpt><trkpt lat="43.37543803265043" lon="-4.502528405904103"><ele>4.0</ele><time>2026-05-02T08:30:05Z</time></trkpt><trkpt lat="43.37542146211822" lon="-4.502383814559806"><ele>4.0</ele><time>2026-05-02T08:30:06Z</time></trkpt><trkpt lat="43.37540710028776" lon="-4.502243251974484"><ele>4.0</ele><time>2026-05-02T08:30:07Z</time></trkpt><trkpt lat="43.375391990507666" lon="-4.502105578132501"><ele>4.4</ele><time>2026-05-02T08:30:08Z</time></trkpt><trkpt lat="43.37537203010281" lon="-4.50196393288218"><ele>4.800000000000001</ele><time>2026-05-02T08:30:09Z</time></trkpt><trkpt lat="43.375353853217945" lon="-4.501821974845027"><ele>5.199999999999999</ele><time>2026-05-02T08:30:10Z</time></trkpt><trkpt lat="43.3753388456038" lon="-4.5016811614811765"><ele>5.6</ele><time>2026-05-02T08:30:11Z</time></trkpt><trkpt lat="43.37532174169267" lon="-4.501539173006693"><ele>6.0</ele><time>2026-05-02T08:30:12Z</time></trkpt><trkpt lat="43.37530430517457" lon="-4.501391635276556"><ele>6.0</ele><time>2026-05-02T08:30:13Z</time></trkpt><trkpt lat="43.37528601375918" lon="-4.501251686647205"><ele>6.0</ele><time>2026-05-02T08:30:14Z</time></trkpt><trkpt lat="43.37526753330483" lon="-4.50111389404709"><ele>6.0</ele><time>2026-05-02T08:30:15Z</time></trkpt><trkpt lat="43.3752472109972" lon="-4.500972652728065"><ele>6.0</ele><time>2026-05-02T08:30:16Z</time></trkpt><trkpt lat="43.375228552007336" lon="-4.500831231280926"><ele>6.0</ele><time>2026-05-02T08:30:17Z</time></trkpt><trkpt lat="43.37521176004871" lon="-4.500693461651568"><ele>6.8</ele><time>2026-05-02T08:30:18Z</time></trkpt><trkpt lat="43.37519338876561" lon="-4.500555356535377"><ele>7.6</ele><time>2026-05-02T08:30:19Z</time></trkpt><trkpt lat="43.375176928815726" lon="-4.500417155754719"><ele>8.4</ele><time>2026-05-02T08:30:20Z</time></trkpt><trkpt lat="43.37516171286033" lon="-4.500279885645975"><ele>9.2</ele><time>2026-05-02T08:30:21Z</time></trkpt><trkpt lat="43.37514653961305" lon="-4.500142967449137"><ele>10.0</ele><time>2026-05-02T08:30:22Z</time></trkpt><trkpt lat="43.37513233913414" lon="-4.500009092815366"><ele>10.4</ele><time>2026-05-02T08:30:23Z</time></trkpt><trkpt lat="43.37512012338205" lon="-4.499874168057174"><ele>10.8</ele><time>2026-05-02T08:30:24Z</time></trkpt><trkpt lat="43.375110814537614" lon="-4.49973704415838"><ele>11.2</ele><time>2026-05-02T08:30:25Z</time></trkpt><trkpt lat="43.37510478421204" lon="-4.4996000606503275"><ele>11.6</ele><time>2026-05-02T08:30:26Z</time></trkpt><trkpt lat="43.37510243991976" lon="-4.499464010470309"><ele>12.0</ele><time>2026-05-02T08:30:27Z</time></trkpt><trkpt lat="43.37510269031589" lon="-4.499325587413816"><ele>12.399999999999999</ele><time>2026-05-02T08:30:28Z</time></trkpt><trkpt lat="43.37510462276794" lon="-4.499191410062684"><ele>12.799999999999999</ele><time>2026-05-02T08:30:29Z</time></trkpt><trkpt lat="43.37510856611602" lon="-4.49905320650188"><ele>13.2</ele><time>2026-05-02T08:30:30Z</time></trkpt><trkpt lat="43.37511206997068" lon="-4.4989129299321915"><ele>13.6</ele><time>2026-05-02T08:30:31Z</time></trkpt><trkpt lat="43.375113241875745" lon="-4.4987726969487625"><ele>14.0</ele><time>2026-05-02T08:30:32Z</time></trkpt><trkpt lat="43.37511757663085" lon="-4.498635267981882"><ele>14.0</ele><time>2026-05-02T08:30:33Z</time></trkpt><trkpt lat="43.37512167637299" lon="-4.49849855899914"><ele>13.999999999999998</ele><time>2026-05-02T08:30:34Z</time></trkpt><trkpt lat="43.37512380328416" lon="-4.49836231439856"><ele>13.999999999999998</ele><time>2026-05-02T08:30:35Z</time></trkpt><trkpt lat="43.37512514258058" lon="-4.4982271686960305"><ele>14.0</ele><time>2026-05-02T08:30:36Z</time></trkpt><trkpt lat="43.37512575285781" lon="-4.498088944167578"><ele>14.0</ele><time>2026-05-02T08:30:37Z</time></trkpt><trkpt lat="43.37512797530862" lon="-4.497952443008332"><ele>14.6</ele><time>2026-05-02T08:30:38Z</time></trkpt><trkpt lat="43.37513193270383" lon="-4.4978161598755815"><ele>15.2</ele><time>2026-05-02T08:30:39Z</time></trkpt><trkpt lat="43.37513468140733" lon="-4.497678282289797"><ele>15.799999999999999</ele><time>2026-05-02T08:30:40Z</time></trkpt><trkpt lat="43.375134656257195" lon="-4.497541765015332"><ele>16.4</ele><time>2026-05-02T08:30:41Z</time></trkpt><trkpt lat="43.375136006287086" lon="-4.497403506993897"><ele>17.0</ele><time>2026-05-02T08:30:42Z</time></trkpt><trkpt lat="43.375137950076265" lon="-4.4972668728046"><ele>17.0</ele><time>2026-05-02T08:30:43Z</time></trkpt><trkpt lat="43.37513841206683" lon="-4.497128071717159"><ele>17.0</ele><time>2026-05-02T08:30:44Z</time></trkpt><trkpt lat="43.37514057494261" lon="-4.496992753868473"><ele>17.0</ele><time>2026-05-02T08:30:45Z</time></trkpt><trkpt lat="43.37514178379491" lon="-4.496855930856181"><ele>17.0</ele><time>2026-05-02T08:30:46Z</time></trkpt><trkpt lat="43.375142921659204" lon="-4.496718681365174"><ele>17.0</ele><time>2026-05-02T08:30:47Z</time></trkpt><trkpt lat="43.37515009326719" lon="-4.496580216397836"><ele>18.0</ele><time>2026-05-02T08:30:48Z</time></trkpt><trkpt lat="43.37515091716122" lon="-4.496436899211399"><ele>19.0</ele><time>2026-05-02T08:30:49Z</time></trkpt><trkpt lat="43.37515194447666" lon="-4.496298763698683"><ele>20.0</ele><time>2026-05-02T08:30:50Z</time></trkpt><trkpt lat="43.375153170314796" lon="-4.496160164507585"><ele>21.0</ele><time>2026-05-02T08:30:51Z</time></trkpt><trkpt lat="43.3751522698031" lon="-4.496022135357294"><ele>22.0</ele><time>2026-05-02T08:30:52.001Z</time></trkpt><trkpt lat="43.37514992456575" lon="-4.495884371607462"><ele>22.200000000000003</ele><time>2026-05-02T08:30:53.001Z</time></trkpt><trkpt lat="43.37514535702027" lon="-4.495749103815265"><ele>22.4</ele><time>2026-05-02T08:30:54.001Z</time></trkpt><trkpt lat="43.375139365837306" lon="-4.495610838715995"><ele>22.6</ele><time>2026-05-02T08:30:55.001Z</time></trkpt><trkpt lat="43.37513468871561" lon="-4.495473034753709"><ele>22.799999999999997</ele><time>2026-05-02T08:30:56.001Z</time></trkpt><trkpt lat="43.37512630989066" lon="-4.495332940467412"><ele>23.0</ele><time>2026-05-02T08:30:57.001Z</time></trkpt><trkpt lat="43.375109960488935" lon="-4.4951928297428"><ele>23.2</ele><time>2026-05-02T08:30:58.001Z</time></trkpt><trkpt lat="43.37508825870606" lon="-4.4950516105779235"><ele>23.4</ele><time>2026-05-02T08:30:59.001Z</time></trkpt><trkpt lat="43.375062526401436" lon="-4.4949133237426215"><ele>23.599999999999998</ele><time>2026-05-02T08:31:00.001Z</time></trkpt><trkpt lat="43.37503456438253" lon="-4.494774095792371"><ele>23.799999999999997</ele><time>2026-05-02T08:31:01.001Z</time></trkpt><trkpt lat="43.375002565464314" lon="-4.494634538769883"><ele>24.0</ele><time>2026-05-02T08:31:02.001Z</time></trkpt><trkpt lat="43.37496734707151" lon="-4.49449604132662"><ele>24.0</ele><time>2026-05-02T08:31:03.001Z</time></trkpt><trkpt lat="43.37492422644325" lon="-4.494342508312842"><ele>24.0</ele><time>2026-05-02T08:31:04.001Z</time></trkpt><trkpt lat="43.374899105476814" lon="-4.494192453566946"><ele>24.0</ele><time>2026-05-02T08:31:05.001Z</time></trkpt><trkpt lat="43.374852877051914" lon="-4.494067397780598"><ele>24.0</ele><time>2026-05-02T08:31:06.001Z</time></trkpt><trkpt lat="43.374816742629974" lon="-4.493923157745233"><ele>24.0</ele><time>2026-05-02T08:31:07.001Z</time></trkpt><trkpt lat="43.37478264674023" lon="-4.493776970341448"><ele>23.799999999999997</ele><time>2026-05-02T08:31:08.001Z</time></trkpt><trkpt lat="43.37474867807476" lon="-4.493633281751296"><ele>23.599999999999998</ele><time>2026-05-02T08:31:09.001Z</time></trkpt><trkpt lat="43.37471947399651" lon="-4.493486753861375"><ele>23.4</ele><time>2026-05-02T08:31:10.001Z</time></trkpt><trkpt lat="43.37469633982679" lon="-4.4933378630877545"><ele>23.2</ele><time>2026-05-02T08:31:11.001Z</time></trkpt><trkpt lat="43.37468004267241" lon="-4.493187867480411"><ele>23.0</ele><time>2026-05-02T08:31:12.001Z</time></trkpt><trkpt lat="43.374669310504956" lon="-4.493040286282266"><ele>23.799999999999997</ele><time>2026-05-02T08:31:13.001Z</time></trkpt><trkpt lat="43.374665660792594" lon="-4.492887425897728"><ele>24.6</ele><time>2026-05-02T08:31:14.001Z</time></trkpt><trkpt lat="43.37466736849853" lon="-4.492739231680778"><ele>25.400000000000002</ele><time>2026-05-02T08:31:15.001Z</time></trkpt><trkpt lat="43.37467041083219" lon="-4.492599938554137"><ele>26.200000000000003</ele><time>2026-05-02T08:31:16.001Z</time></trkpt><trkpt lat="43.37468751700973" lon="-4.492439376510255"><ele>27.0</ele><time>2026-05-02T08:31:17.001Z</time></trkpt><trkpt lat="43.374737534495466" lon="-4.492266526703154"><ele>27.8</ele><time>2026-05-02T08:31:18.001Z</time></trkpt><trkpt lat="43.37476141475686" lon="-4.4920715930416355"><ele>28.6</ele><time>2026-05-02T08:31:19.001Z</time></trkpt><trkpt lat="43.37478512109241" lon="-4.491983677313589"><ele>29.400000000000002</ele><time>2026-05-02T08:31:20.001Z</time></trkpt><trkpt lat="43.37479769895354" lon="-4.491804587000626"><ele>30.200000000000003</ele><time>2026-05-02T08:31:22.001Z</time></trkpt><trkpt lat="43.374834482391" lon="-4.491672448855864"><ele>31.0</ele><time>2026-05-02T08:31:23.001Z</time></trkpt><trkpt lat="43.374869313113315" lon="-4.491541562614978"><ele>31.0</ele><time>2026-05-02T08:31:24.001Z</time></trkpt><trkpt lat="43.37490550505798" lon="-4.491413892688988"><ele>31.0</ele><time>2026-05-02T08:31:25.001Z</time></trkpt><trkpt lat="43.3749359585932" lon="-4.491285196481174"><ele>31.0</ele><time>2026-05-02T08:31:26.001Z</time></trkpt><trkpt lat="43.374972162077476" lon="-4.491160329440777"><ele>31.0</ele><time>2026-05-02T08:31:27.001Z</time></trkpt><trkpt lat="43.37500538210398" lon="-4.491034094324539"><ele>31.0</ele><time>2026-05-02T08:31:28.001Z</time></trkpt><trkpt lat="43.37503804955485" lon="-4.490905562125545"><ele>31.8</ele><time>2026-05-02T08:31:29.001Z</time></trkpt><trkpt lat="43.37506735107594" lon="-4.490782062435942"><ele>32.6</ele><time>2026-05-02T08:31:30.001Z</time></trkpt><trkpt lat="43.37509444627725" lon="-4.490652471670311"><ele>33.4</ele><time>2026-05-02T08:31:31.001Z</time></trkpt><trkpt lat="43.37511904318637" lon="-4.4905235358519375"><ele>34.2</ele><time>2026-05-02T08:31:32.001Z</time></trkpt><trkpt lat="43.37514202629982" lon="-4.490392316747877"><ele>35.0</ele><time>2026-05-02T08:31:33.001Z</time></trkpt><trkpt lat="43.37516096480031" lon="-4.490261624444717"><ele>35.8</ele><time>2026-05-02T08:31:34.001Z</time></trkpt><trkpt lat="43.37517630583338" lon="-4.490127500273258"><ele>36.6</ele><time>2026-05-02T08:31:35.001Z</time></trkpt><trkpt lat="43.3751872061412" lon="-4.489996550529714"><ele>37.4</ele><time>2026-05-02T08:31:36.001Z</time></trkpt><trkpt lat="43.37519212787959" lon="-4.489863877035322"><ele>38.2</ele><time>2026-05-02T08:31:37.001Z</time></trkpt><trkpt lat="43.375192590462284" lon="-4.489732343744945"><ele>39.0</ele><time>2026-05-02T08:31:38.001Z</time></trkpt><trkpt lat="43.37518971477935" lon="-4.489600072624742"><ele>39.2</ele><time>2026-05-02T08:31:39.001Z</time></trkpt><trkpt lat="43.37518569721711" lon="-4.489468071053477"><ele>39.4</ele><time>2026-05-02T08:31:40.001Z</time></trkpt><trkpt lat="43.37517678497065" lon="-4.489338144453982"><ele>39.6</ele><time>2026-05-02T08:31:41.001Z</time></trkpt><trkpt lat="43.3751636089529" lon="-4.489204929389975"><ele>39.8</ele><time>2026-05-02T08:31:42.001Z</time></trkpt><trkpt lat="43.3751453517072" lon="-4.489076425318834"><ele>40.0</ele><time>2026-05-02T08:31:43Z</time></trkpt><trkpt lat="43.37512277426919" lon="-4.488943385913476"><ele>40.0</ele><time>2026-05-02T08:31:44Z</time></trkpt><trkpt lat="43.37510340968579" lon="-4.488813424494458"><ele>40.0</ele><time>2026-05-02T08:31:45Z</time></trkpt><trkpt lat="43.37508278863967" lon="-4.488677715351123"><ele>40.0</ele><time>2026-05-02T08:31:46Z</time></trkpt><trkpt lat="43.375059694022454" lon="-4.488542104954208"><ele>40.0</ele><time>2026-05-02T08:31:47Z</time></trkpt><trkpt lat="43.37503202190374" lon="-4.488409615281272"><ele>40.0</ele><time>2026-05-02T08:31:48Z</time></trkpt><trkpt lat="43.375010807350655" lon="-4.488280737809998"><ele>41.4</ele><time>2026-05-02T08:31:49Z</time></trkpt><trkpt lat="43.374991937031574" lon="-4.488146678143952"><ele>42.8</ele><time>2026-05-02T08:31:50Z</time></trkpt><trkpt lat="43.37497429628583" lon="-4.488012211221405"><ele>44.2</ele><time>2026-05-02T08:31:51Z</time></trkpt><trkpt lat="43.374962924521625" lon="-4.48787650047816"><ele>45.6</ele><time>2026-05-02T08:31:52Z</time></trkpt><trkpt lat="43.37495449242066" lon="-4.4877389095575335"><ele>47.0</ele><time>2026-05-02T08:31:53Z</time></trkpt><trkpt lat="43.37495689831554" lon="-4.487595921796816"><ele>47.2</ele><time>2026-05-02T08:31:54Z</time></trkpt><trkpt lat="43.374964642685676" lon="-4.48745019141121"><ele>47.400000000000006</ele><time>2026-05-02T08:31:55Z</time></trkpt><trkpt lat="43.37497626967722" lon="-4.487307125638044"><ele>47.599999999999994</ele><time>2026-05-02T08:31:56Z</time></trkpt><trkpt lat="43.37499478309271" lon="-4.487173483456758"><ele>47.8</ele><time>2026-05-02T08:31:57Z</time></trkpt><trkpt lat="43.37502577134795" lon="-4.487037978606494"><ele>48.0</ele><time>2026-05-02T08:31:58Z</time></trkpt><trkpt lat="43.37505978102479" lon="-4.486899360743974"><ele>48.0</ele><time>2026-05-02T08:31:59Z</time></trkpt><trkpt lat="43.375090980332246" lon="-4.486763736568842"><ele>48.0</ele><time>2026-05-02T08:32:00Z</time></trkpt><trkpt lat="43.37512414596813" lon="-4.486630540139147"><ele>48.0</ele><time>2026-05-02T08:32:01Z</time></trkpt><trkpt lat="43.375161482055624" lon="-4.486498755422539"><ele>48.0</ele><time>2026-05-02T08:32:02Z</time></trkpt><trkpt lat="43.375190879547596" lon="-4.486363724889801"><ele>48.0</ele><time>2026-05-02T08:32:03Z</time></trkpt><trkpt lat="43.37522295580307" lon="-4.486231995164737"><ele>48.0</ele><time>2026-05-02T08:32:04Z</time></trkpt><trkpt lat="43.375254399053546" lon="-4.486098494402735"><ele>48.0</ele><time>2026-05-02T08:32:05Z</time></trkpt><trkpt lat="43.37528477420738" lon="-4.485955903186855"><ele>48.0</ele><time>2026-05-02T08:32:06Z</time></trkpt><trkpt lat="43.3753179715755" lon="-4.485816802327613"><ele>48.0</ele><time>2026-05-02T08:32:07Z</time></trkpt><trkpt lat="43.37535166162836" lon="-4.485679773132049"><ele>48.0</ele><time>2026-05-02T08:32:08Z</time></trkpt><trkpt lat="43.37538651429969" lon="-4.485542504822947"><ele>47.4</ele><time>2026-05-02T08:32:09Z</time></trkpt><trkpt lat="43.37541647743009" lon="-4.485403237680255"><ele>46.8</ele><time>2026-05-02T08:32:10Z</time></trkpt><trkpt lat="43.375447853730286" lon="-4.485263783929826"><ele>46.2</ele><time>2026-05-02T08:32:11Z</time></trkpt><trkpt lat="43.375481380039076" lon="-4.485126358860282"><ele>45.6</ele><time>2026-05-02T08:32:12Z</time></trkpt><trkpt lat="43.37551263258475" lon="-4.4849860802456565"><ele>45.0</ele><time>2026-05-02T08:32:13Z</time></trkpt><trkpt lat="43.37554551260771" lon="-4.484837643373124"><ele>44.25</ele><time>2026-05-02T08:32:14Z</time></trkpt><trkpt lat="43.37557027541497" lon="-4.4847128780479455"><ele>43.5</ele><time>2026-05-02T08:32:15Z</time></trkpt><trkpt lat="43.37560956888672" lon="-4.484542008581096"><ele>42.75</ele><time>2026-05-02T08:32:17Z</time></trkpt><trkpt lat="43.375653998321496" lon="-4.484291879019881"><ele>42.0</ele><time>2026-05-02T08:32:18Z</time></trkpt><trkpt lat="43.37568328522187" lon="-4.484144067305931"><ele>41.8</ele><time>2026-05-02T08:32:19Z</time></trkpt><trkpt lat="43.37570560135397" lon="-4.483999147959091"><ele>41.6</ele><time>2026-05-02T08:32:20Z</time></trkpt><trkpt lat="43.37573726394885" lon="-4.483862207214397"><ele>41.4</ele><time>2026-05-02T08:32:21Z</time></trkpt><trkpt lat="43.37576101022226" lon="-4.483714989133826"><ele>41.199999999999996</ele><time>2026-05-02T08:32:22Z</time></trkpt><trkpt lat="43.375792728334304" lon="-4.483571284915772"><ele>41.0</ele><time>2026-05-02T08:32:23Z</time></trkpt><trkpt lat="43.37582540729883" lon="-4.483432781030208"><ele>40.599999999999994</ele><time>2026-05-02T08:32:24Z</time></trkpt><trkpt lat="43.37585638843861" lon="-4.483289055786798"><ele>40.199999999999996</ele><time>2026-05-02T08:32:25Z</time></trkpt><trkpt lat="43.375891083993565" lon="-4.483137545062045"><ele>39.8</ele><time>2026-05-02T08:32:26Z</time></trkpt><trkpt lat="43.375926397501104" lon="-4.482999386933802"><ele>39.4</ele><time>2026-05-02T08:32:27Z</time></trkpt><trkpt lat="43.375960968534535" lon="-4.482861344262485"><ele>39.0</ele><time>2026-05-02T08:32:28Z</time></trkpt><trkpt lat="43.37600282851731" lon="-4.482732222244171"><ele>39.0</ele><time>2026-05-02T08:32:29Z</time></trkpt><trkpt lat="43.376041262730766" lon="-4.4825973595233"><ele>39.0</ele><time>2026-05-02T08:32:30Z</time></trkpt><trkpt lat="43.376081686835875" lon="-4.482458781785938"><ele>39.0</ele><time>2026-05-02T08:32:31Z</time></trkpt><trkpt lat="43.37610934104428" lon="-4.482318727673642"><ele>39.0</ele><time>2026-05-02T08:32:32Z</time></trkpt><trkpt lat="43.37613721301644" lon="-4.482178820457962"><ele>39.0</ele><time>2026-05-02T08:32:33Z</time></trkpt><trkpt lat="43.37615579342193" lon="-4.4820324724648986"><ele>38.0</ele><time>2026-05-02T08:32:34Z</time></trkpt><trkpt lat="43.37616261384628" lon="-4.481884933876014"><ele>37.0</ele><time>2026-05-02T08:32:35Z</time></trkpt><trkpt lat="43.37616226126672" lon="-4.481735921404879"><ele>36.0</ele><time>2026-05-02T08:32:36Z</time></trkpt><trkpt lat="43.37614876064625" lon="-4.481590006733897"><ele>35.0</ele><time>2026-05-02T08:32:37Z</time></trkpt><trkpt lat="43.3761198584348" lon="-4.481449807603006"><ele>34.0</ele><time>2026-05-02T08:32:38Z</time></trkpt><trkpt lat="43.376074127101575" lon="-4.481315459266006"><ele>31.6</ele><time>2026-05-02T08:32:39Z</time></trkpt><trkpt lat="43.37601544569002" lon="-4.48119460576185"><ele>29.2</ele><time>2026-05-02T08:32:40Z</time></trkpt><trkpt lat="43.37594855493335" lon="-4.48108352856791"><ele>26.8</ele><time>2026-05-02T08:32:41Z</time></trkpt><trkpt lat="43.37587332379589" lon="-4.4809850866432885"><ele>24.400000000000002</ele><time>2026-05-02T08:32:42Z</time></trkpt><trkpt lat="43.37578622079696" lon="-4.480902473776466"><ele>22.0</ele><time>2026-05-02T08:32:43Z</time></trkpt><trkpt lat="43.375693167439685" lon="-4.480831795617081"><ele>22.0</ele><time>2026-05-02T08:32:44Z</time></trkpt><trkpt lat="43.375593619459416" lon="-4.480766696285128"><ele>22.0</ele><time>2026-05-02T08:32:45Z</time></trkpt><trkpt lat="43.375488325452835" lon="-4.480710988480086"><ele>22.0</ele><time>2026-05-02T08:32:46Z</time></trkpt><trkpt lat="43.375391115561015" lon="-4.480669699797622"><ele>22.0</ele><time>2026-05-02T08:32:47Z</time></trkpt><trkpt lat="43.375289597330784" lon="-4.480629239968926"><ele>22.0</ele><time>2026-05-02T08:32:48Z</time></trkpt><trkpt lat="43.375178966968726" lon="-4.480588754697888"><ele>23.0</ele><time>2026-05-02T08:32:49Z</time></trkpt><trkpt lat="43.37507737803816" lon="-4.480544795108442"><ele>24.0</ele><time>2026-05-02T08:32:50Z</time></trkpt><trkpt lat="43.37497536070956" lon="-4.480497444574097"><ele>25.000000000000004</ele><time>2026-05-02T08:32:51Z</time></trkpt><trkpt lat="43.37487566706616" lon="-4.480453982175632"><ele>26.0</ele><time>2026-05-02T08:32:52Z</time></trkpt><trkpt lat="43.374773061151195" lon="-4.480411166084874"><ele>27.0</ele><time>2026-05-02T08:32:53Z</time></trkpt><trkpt lat="43.37467015623969" lon="-4.4803679750373675"><ele>24.6</ele><time>2026-05-02T08:32:54Z</time></trkpt><trkpt lat="43.37456698692024" lon="-4.480324072505711"><ele>22.200000000000003</ele><time>2026-05-02T08:32:55Z</time></trkpt><trkpt lat="43.37446672212232" lon="-4.480282200837342"><ele>19.8</ele><time>2026-05-02T08:32:56Z</time></trkpt><trkpt lat="43.37435865583838" lon="-4.480238302948389"><ele>17.4</ele><time>2026-05-02T08:32:57Z</time></trkpt><trkpt lat="43.37425850754257" lon="-4.4801928182931"><ele>15.0</ele><time>2026-05-02T08:32:58Z</time></trkpt><trkpt lat="43.374158283673566" lon="-4.480144567228049"><ele>15.0</ele><time>2026-05-02T08:32:59Z</time></trkpt><trkpt lat="43.37405820565805" lon="-4.480101778345646"><ele>15.0</ele><time>2026-05-02T08:33:00Z</time></trkpt><trkpt lat="43.37395606976304" lon="-4.480049807846022"><ele>15.0</ele><time>2026-05-02T08:33:01Z</time></trkpt><trkpt lat="43.37385539031036" lon="-4.479995189312084"><ele>15.0</ele><time>2026-05-02T08:33:02.001Z</time></trkpt><trkpt lat="43.37375860381595" lon="-4.479936304220649"><ele>15.0</ele><time>2026-05-02T08:33:03.001Z</time></trkpt><trkpt lat="43.37366145620583" lon="-4.479872997024066"><ele>16.2</ele><time>2026-05-02T08:33:04.001Z</time></trkpt><trkpt lat="43.373566824224106" lon="-4.479804926635242"><ele>17.4</ele><time>2026-05-02T08:33:05.001Z</time></trkpt><trkpt lat="43.3734782368278" lon="-4.479726819222842"><ele>18.6</ele><time>2026-05-02T08:33:06.001Z</time></trkpt><trkpt lat="43.37338724331963" lon="-4.479653491271575"><ele>19.8</ele><time>2026-05-02T08:33:07.001Z</time></trkpt><trkpt lat="43.373289043249486" lon="-4.479554299593282"><ele>21.0</ele><time>2026-05-02T08:33:08.001Z</time></trkpt><trkpt lat="43.37316509364366" lon="-4.47943660032519"><ele>17.75</ele><time>2026-05-02T08:33:09.001Z</time></trkpt><trkpt lat="43.37304325771632" lon="-4.479375247985142"><ele>14.5</ele><time>2026-05-02T08:33:11.001Z</time></trkpt><trkpt lat="43.372977980231866" lon="-4.479290605644177"><ele>11.25</ele><time>2026-05-02T08:33:12.001Z</time></trkpt><trkpt lat="43.37291104464486" lon="-4.479057988607976"><ele>8.0</ele><time>2026-05-02T08:33:13.001Z</time></trkpt><trkpt lat="43.3728437799566" lon="-4.47893992903323"><ele>7.6000000000000005</ele><time>2026-05-02T08:33:14.001Z</time></trkpt><trkpt lat="43.372780014148745" lon="-4.478824933212893"><ele>7.200000000000001</ele><time>2026-05-02T08:33:15.001Z</time></trkpt><trkpt lat="43.37272127964849" lon="-4.478708039906142"><ele>6.8</ele><time>2026-05-02T08:33:16.001Z</time></trkpt><trkpt lat="43.372660714101194" lon="-4.478591053636442"><ele>6.4</ele><time>2026-05-02T08:33:17.001Z</time></trkpt><trkpt lat="43.372600723123895" lon="-4.478475462155901"><ele>6.0</ele><time>2026-05-02T08:33:18.001Z</time></trkpt><trkpt lat="43.37253972141204" lon="-4.478359124390196"><ele>5.2</ele><time>2026-05-02T08:33:19.001Z</time></trkpt><trkpt lat="43.37247990443304" lon="-4.47824163380408"><ele>4.3999999999999995</ele><time>2026-05-02T08:33:20.001Z</time></trkpt><trkpt lat="43.37242195606363" lon="-4.478122210887626"><ele>3.6</ele><time>2026-05-02T08:33:21.001Z</time></trkpt><trkpt lat="43.37236352151282" lon="-4.478000550443913"><ele>2.8</ele><time>2026-05-02T08:33:22.001Z</time></trkpt><trkpt lat="43.372302339505296" lon="-4.477885962237754"><ele>2.0</ele><time>2026-05-02T08:33:23.001Z</time></trkpt><trkpt lat="43.372242064721846" lon="-4.477769763027742"><ele>1.6</ele><time>2026-05-02T08:33:24.001Z</time></trkpt><trkpt lat="43.37218236173318" lon="-4.477649914454198"><ele>1.2000000000000002</ele><time>2026-05-02T08:33:25.001Z</time></trkpt><trkpt lat="43.372122389560275" lon="-4.477533487587634"><ele>0.8</ele><time>2026-05-02T08:33:26.001Z</time></trkpt><trkpt lat="43.37206285038248" lon="-4.47741452260949"><ele>0.4</ele><time>2026-05-02T08:33:27.001Z</time></trkpt><trkpt lat="43.372002666135415" lon="-4.477297601836239"><ele>0.0</ele><time>2026-05-02T08:33:28.001Z</time></trkpt><trkpt lat="43.37194555254611" lon="-4.477179889598997"><ele>0.4</ele><time>2026-05-02T08:33:29.001Z</time></trkpt><trkpt lat="43.37188931733537" lon="-4.477056873523661"><ele>0.8</ele><time>2026-05-02T08:33:30.001Z</time></trkpt><trkpt lat="43.37183668556664" lon="-4.476933376642971"><ele>1.2000000000000002</ele><time>2026-05-02T08:33:31.001Z</time></trkpt><trkpt lat="43.371790069171716" lon="-4.476808512549113"><ele>1.6</ele><time>2026-05-02T08:33:32.001Z</time></trkpt><trkpt lat="43.371747655565954" lon="-4.476676993038096"><ele>2.0</ele><time>2026-05-02T08:33:33.001Z</time></trkpt><trkpt lat="43.371705123132216" lon="-4.476549004391497"><ele>2.0</ele><time>2026-05-02T08:33:34.001Z</time></trkpt><trkpt lat="43.37166604567631" lon="-4.476415341657038"><ele>2.0</ele><time>2026-05-02T08:33:35.001Z</time></trkpt><trkpt lat="43.37162941290332" lon="-4.476279983569802"><ele>2.0</ele><time>2026-05-02T08:33:36.001Z</time></trkpt><trkpt lat="43.371597428534564" lon="-4.476143086762448"><ele>2.0</ele><time>2026-05-02T08:33:37.001Z</time></trkpt><trkpt lat="43.371566954448326" lon="-4.476004240439827"><ele>2.0</ele><time>2026-05-02T08:33:38.001Z</time></trkpt><trkpt lat="43.37153878497103" lon="-4.475865221083752"><ele>2.4000000000000004</ele><time>2026-05-02T08:33:39.001Z</time></trkpt><trkpt lat="43.371523934635974" lon="-4.475723415573387"><ele>2.8000000000000003</ele><time>2026-05-02T08:33:40.001Z</time></trkpt><trkpt lat="43.37151362346329" lon="-4.4755499675004655"><ele>3.2</ele><time>2026-05-02T08:33:41.001Z</time></trkpt><trkpt lat="43.37149130448245" lon="-4.475424588685778"><ele>3.6</ele><time>2026-05-02T08:33:42.001Z</time></trkpt><trkpt lat="43.371481456996456" lon="-4.475276239045952"><ele>4.0</ele><time>2026-05-02T08:33:43.001Z</time></trkpt><trkpt lat="43.37147257664786" lon="-4.475129686652701"><ele>4.4</ele><time>2026-05-02T08:33:44.001Z</time></trkpt><trkpt lat="43.37146304350932" lon="-4.474975844921455"><ele>4.800000000000001</ele><time>2026-05-02T08:33:45.001Z</time></trkpt><trkpt lat="43.37145286361741" lon="-4.474826473452341"><ele>5.199999999999999</ele><time>2026-05-02T08:33:46.001Z</time></trkpt><trkpt lat="43.37143677277947" lon="-4.47467366172868"><ele>5.6</ele><time>2026-05-02T08:33:47.001Z</time></trkpt><trkpt lat="43.371429485609276" lon="-4.474522388767745"><ele>6.0</ele><time>2026-05-02T08:33:48.001Z</time></trkpt><trkpt lat="43.371421484425454" lon="-4.474368252487"><ele>6.0</ele><time>2026-05-02T08:33:49Z</time></trkpt><trkpt lat="43.37141282896495" lon="-4.474222591379971"><ele>6.0</ele><time>2026-05-02T08:33:50Z</time></trkpt><trkpt lat="43.37140158994161" lon="-4.474073597944442"><ele>6.0</ele><time>2026-05-02T08:33:51Z</time></trkpt><trkpt lat="43.371391366359376" lon="-4.473928731418529"><ele>6.0</ele><time>2026-05-02T08:33:52Z</time></trkpt><trkpt lat="43.3713831168087" lon="-4.473781687320587"><ele>6.0</ele><time>2026-05-02T08:33:53Z</time></trkpt><trkpt lat="43.37137690189963" lon="-4.473635818347524"><ele>5.6</ele><time>2026-05-02T08:33:54Z</time></trkpt><trkpt lat="43.37136754030453" lon="-4.473490268745792"><ele>5.199999999999999</ele><time>2026-05-02T08:33:55Z</time></trkpt><trkpt lat="43.37135168626483" lon="-4.473344752245964"><ele>4.800000000000001</ele><time>2026-05-02T08:33:56Z</time></trkpt><trkpt lat="43.37134411019139" lon="-4.473202374012432"><ele>4.4</ele><time>2026-05-02T08:33:57Z</time></trkpt><trkpt lat="43.37134131996092" lon="-4.473059400145621"><ele>4.0</ele><time>2026-05-02T08:33:58Z</time></trkpt><trkpt lat="43.37133338918704" lon="-4.472914840785163"><ele>4.6</ele><time>2026-05-02T08:33:59Z</time></trkpt><trkpt lat="43.37133260906033" lon="-4.472768309355603"><ele>5.2</ele><time>2026-05-02T08:34:00Z</time></trkpt><trkpt lat="43.37134287473552" lon="-4.472618187681021"><ele>5.799999999999999</ele><time>2026-05-02T08:34:01Z</time></trkpt><trkpt lat="43.371363270656964" lon="-4.472476062366694"><ele>6.3999999999999995</ele><time>2026-05-02T08:34:02Z</time></trkpt><trkpt lat="43.37139750205589" lon="-4.472338722505895"><ele>7.0</ele><time>2026-05-02T08:34:03Z</time></trkpt><trkpt lat="43.371434678118035" lon="-4.472202765014034"><ele>7.6</ele><time>2026-05-02T08:34:04Z</time></trkpt><trkpt lat="43.37148052688564" lon="-4.47206189509456"><ele>8.2</ele><time>2026-05-02T08:34:05Z</time></trkpt><trkpt lat="43.37151675099965" lon="-4.471912160745109"><ele>8.8</ele><time>2026-05-02T08:34:06Z</time></trkpt><trkpt lat="43.371548698173804" lon="-4.4717763080674"><ele>9.4</ele><time>2026-05-02T08:34:07Z</time></trkpt><trkpt lat="43.37158625160927" lon="-4.471642349263883"><ele>10.0</ele><time>2026-05-02T08:34:08Z</time></trkpt><trkpt lat="43.37162102355211" lon="-4.471511355390983"><ele>10.0</ele><time>2026-05-02T08:34:09Z</time></trkpt><trkpt lat="43.37166361794105" lon="-4.471380857507599"><ele>10.0</ele><time>2026-05-02T08:34:10Z</time></trkpt><trkpt lat="43.37170240458716" lon="-4.4712528221156616"><ele>10.0</ele><time>2026-05-02T08:34:11Z</time></trkpt><trkpt lat="43.371736759645664" lon="-4.47112127987777"><ele>10.0</ele><time>2026-05-02T08:34:12Z</time></trkpt><trkpt lat="43.37177166873681" lon="-4.470988383480788"><ele>10.0</ele><time>2026-05-02T08:34:13Z</time></trkpt><trkpt lat="43.37180650197152" lon="-4.47085441669115"><ele>10.2</ele><time>2026-05-02T08:34:14Z</time></trkpt><trkpt lat="43.37183996423654" lon="-4.470720884010556"><ele>10.4</ele><time>2026-05-02T08:34:15Z</time></trkpt><trkpt lat="43.37187424514843" lon="-4.470583648435739"><ele>10.600000000000001</ele><time>2026-05-02T08:34:16Z</time></trkpt><trkpt lat="43.37191603035035" lon="-4.4704511428284786"><ele>10.8</ele><time>2026-05-02T08:34:17Z</time></trkpt><trkpt lat="43.371960985010176" lon="-4.470324972176138"><ele>11.0</ele><time>2026-05-02T08:34:18Z</time></trkpt><trkpt lat="43.37199384247846" lon="-4.47017541013654"><ele>11.0</ele><time>2026-05-02T08:34:19Z</time></trkpt><trkpt lat="43.37201659532181" lon="-4.470021532324405"><ele>11.0</ele><time>2026-05-02T08:34:20Z</time></trkpt><trkpt lat="43.37201096240371" lon="-4.469806595213465"><ele>11.0</ele><time>2026-05-02T08:34:21Z</time></trkpt><trkpt lat="43.37208214483866" lon="-4.469604282909665"><ele>11.0</ele><time>2026-05-02T08:34:22Z</time></trkpt><trkpt lat="43.372173286573926" lon="-4.469496087863978"><ele>10.0</ele><time>2026-05-02T08:34:24Z</time></trkpt><trkpt lat="43.37220763371857" lon="-4.469363472680202"><ele>9.0</ele><time>2026-05-02T08:34:25Z</time></trkpt><trkpt lat="43.37224829594738" lon="-4.4692294432918365"><ele>8.0</ele><time>2026-05-02T08:34:26Z</time></trkpt><trkpt lat="43.372286596017254" lon="-4.469093056846314"><ele>7.0</ele><time>2026-05-02T08:34:27Z</time></trkpt><trkpt lat="43.37232417990294" lon="-4.468957097613885"><ele>6.0</ele><time>2026-05-02T08:34:28Z</time></trkpt><trkpt lat="43.372361286492676" lon="-4.468821060821587"><ele>6.8</ele><time>2026-05-02T08:34:29Z</time></trkpt><trkpt lat="43.37239251021152" lon="-4.468678737688213"><ele>7.6</ele><time>2026-05-02T08:34:30Z</time></trkpt><trkpt lat="43.37242402981843" lon="-4.468534958494916"><ele>8.4</ele><time>2026-05-02T08:34:31Z</time></trkpt><trkpt lat="43.37245175767254" lon="-4.468390909892302"><ele>9.2</ele><time>2026-05-02T08:34:32Z</time></trkpt><trkpt lat="43.37247922707792" lon="-4.468245055257717"><ele>10.0</ele><time>2026-05-02T08:34:33Z</time></trkpt><trkpt lat="43.372506779528294" lon="-4.4681033189403845"><ele>10.0</ele><time>2026-05-02T08:34:34Z</time></trkpt><trkpt lat="43.372526630949714" lon="-4.467955326458314"><ele>10.0</ele><time>2026-05-02T08:34:35Z</time></trkpt><trkpt lat="43.37253941735219" lon="-4.4678099050366376"><ele>10.0</ele><time>2026-05-02T08:34:36Z</time></trkpt><trkpt lat="43.372553706562414" lon="-4.467673529719916"><ele>10.0</ele><time>2026-05-02T08:34:37Z</time></trkpt><trkpt lat="43.372567900575056" lon="-4.467529083385908"><ele>10.0</ele><time>2026-05-02T08:34:38Z</time></trkpt><trkpt lat="43.37258464357352" lon="-4.467395209835704"><ele>10.8</ele><time>2026-05-02T08:34:39Z</time></trkpt><trkpt lat="43.37260031742202" lon="-4.467254059541738"><ele>11.6</ele><time>2026-05-02T08:34:40Z</time></trkpt><trkpt lat="43.372613248693135" lon="-4.467104428792546"><ele>12.399999999999999</ele><time>2026-05-02T08:34:41Z</time></trkpt><trkpt lat="43.37262741348416" lon="-4.466956157288674"><ele>13.2</ele><time>2026-05-02T08:34:42Z</time></trkpt><trkpt lat="43.372643644425516" lon="-4.466818995958549"><ele>14.0</ele><time>2026-05-02T08:34:43Z</time></trkpt><trkpt lat="43.37265872228837" lon="-4.466674842397055"><ele>14.0</ele><time>2026-05-02T08:34:44Z</time></trkpt><trkpt lat="43.372673942254394" lon="-4.466537251274263"><ele>13.999999999999998</ele><time>2026-05-02T08:34:45Z</time></trkpt><trkpt lat="43.372690130665895" lon="-4.466399818284831"><ele>13.999999999999998</ele><time>2026-05-02T08:34:46Z</time></trkpt><trkpt lat="43.37270573182255" lon="-4.466260392270185"><ele>14.0</ele><time>2026-05-02T08:34:47Z</time></trkpt><trkpt lat="43.37272299574595" lon="-4.466120431492864"><ele>14.0</ele><time>2026-05-02T08:34:48Z</time></trkpt><trkpt lat="43.372740059755635" lon="-4.4659781374195076"><ele>14.0</ele><time>2026-05-02T08:34:49Z</time></trkpt><trkpt lat="43.37275487590851" lon="-4.465835480082654"><ele>13.999999999999998</ele><time>2026-05-02T08:34:50Z</time></trkpt><trkpt lat="43.37276889024674" lon="-4.465689876000358"><ele>13.999999999999998</ele><time>2026-05-02T08:34:51Z</time></trkpt><trkpt lat="43.37278305162073" lon="-4.465540683814895"><ele>14.0</ele><time>2026-05-02T08:34:52Z</time></trkpt><trkpt lat="43.372797592995234" lon="-4.465386817299652"><ele>14.0</ele><time>2026-05-02T08:34:53Z</time></trkpt><trkpt lat="43.37281087412486" lon="-4.465234426523691"><ele>14.0</ele><time>2026-05-02T08:34:54Z</time></trkpt><trkpt lat="43.37282611114297" lon="-4.465081414174427"><ele>13.999999999999998</ele><time>2026-05-02T08:34:55Z</time></trkpt><trkpt lat="43.372840227082655" lon="-4.464930801510737"><ele>13.999999999999998</ele><time>2026-05-02T08:34:56Z</time></trkpt><trkpt lat="43.372856242770446" lon="-4.464783945804889"><ele>14.0</ele><time>2026-05-02T08:34:57Z</time></trkpt><trkpt lat="43.37286889443069" lon="-4.4646496250413055"><ele>14.0</ele><time>2026-05-02T08:34:58Z</time></trkpt><trkpt lat="43.372881341086845" lon="-4.464524634602432"><ele>13.799999999999999</ele><time>2026-05-02T08:34:59Z</time></trkpt><trkpt lat="43.37288223147653" lon="-4.464415005883137"><ele>13.599999999999998</ele><time>2026-05-02T08:35:00Z</time></trkpt><trkpt lat="43.37287212934007" lon="-4.464302405684603"><ele>13.4</ele><time>2026-05-02T08:35:01Z</time></trkpt><trkpt lat="43.37284696744599" lon="-4.464175401380229"><ele>13.2</ele><time>2026-05-02T08:35:03.001Z</time></trkpt><trkpt lat="43.37281867805353" lon="-4.464079067129205"><ele>13.0</ele><time>2026-05-02T08:35:05.001Z</time></trkpt><trkpt lat="43.37277783524889" lon="-4.463926524898461"><ele>12.999999999999998</ele><time>2026-05-02T08:35:07.001Z</time></trkpt><trkpt lat="43.372768348401564" lon="-4.463838710244594"><ele>13.0</ele><time>2026-05-02T08:35:08.001Z</time></trkpt><trkpt lat="43.37278087237524" lon="-4.463746724445298"><ele>13.0</ele><time>2026-05-02T08:35:09.001Z</time></trkpt><trkpt lat="43.37282020878851" lon="-4.463664875200623"><ele>13.0</ele><time>2026-05-02T08:35:10.001Z</time></trkpt><trkpt lat="43.372881833170574" lon="-4.46360206817179"><ele>12.999999999999998</ele><time>2026-05-02T08:35:11.001Z</time></trkpt><trkpt lat="43.37295902793046" lon="-4.463559934072773"><ele>13.0</ele><time>2026-05-02T08:35:12.001Z</time></trkpt><trkpt lat="43.37304431251186" lon="-4.463525217014861"><ele>12.200000000000001</ele><time>2026-05-02T08:35:13.001Z</time></trkpt><trkpt lat="43.37312803687794" lon="-4.463477891580862"><ele>11.4</ele><time>2026-05-02T08:35:14.001Z</time></trkpt><trkpt lat="43.3732180412343" lon="-4.463444120935722"><ele>10.600000000000001</ele><time>2026-05-02T08:35:15.001Z</time></trkpt><trkpt lat="43.37326602819717" lon="-4.463277334306171"><ele>9.8</ele><time>2026-05-02T08:35:16.001Z</time></trkpt><trkpt lat="43.3733113773861" lon="-4.463149989619837"><ele>9.0</ele><time>2026-05-02T08:35:17.001Z</time></trkpt><trkpt lat="43.37334710087034" lon="-4.4630193036432235"><ele>9.2</ele><time>2026-05-02T08:35:18.001Z</time></trkpt><trkpt lat="43.373385402004736" lon="-4.462889613955125"><ele>9.4</ele><time>2026-05-02T08:35:19.001Z</time></trkpt><trkpt lat="43.373429184811116" lon="-4.462760241763203"><ele>9.6</ele><time>2026-05-02T08:35:20.001Z</time></trkpt><trkpt lat="43.37347527928584" lon="-4.462634979313364"><ele>9.8</ele><time>2026-05-02T08:35:21.001Z</time></trkpt><trkpt lat="43.37351925084168" lon="-4.462508241682845"><ele>10.0</ele><time>2026-05-02T08:35:22.001Z</time></trkpt><trkpt lat="43.373563295112376" lon="-4.462381347367086"><ele>10.0</ele><time>2026-05-02T08:35:23.001Z</time></trkpt><trkpt lat="43.37360557710839" lon="-4.462260185665494"><ele>10.0</ele><time>2026-05-02T08:35:24.001Z</time></trkpt><trkpt lat="43.37364938283906" lon="-4.462140072989259"><ele>10.0</ele><time>2026-05-02T08:35:25.001Z</time></trkpt><trkpt lat="43.373693588707766" lon="-4.462024861559978"><ele>10.0</ele><time>2026-05-02T08:35:26.001Z</time></trkpt><trkpt lat="43.373734754260944" lon="-4.461906769585207"><ele>10.0</ele><time>2026-05-02T08:35:27.001Z</time></trkpt><trkpt lat="43.37377654108492" lon="-4.461782485408204"><ele>9.8</ele><time>2026-05-02T08:35:28.001Z</time></trkpt><trkpt lat="43.37381889988386" lon="-4.461657322118828"><ele>9.6</ele><time>2026-05-02T08:35:29.001Z</time></trkpt><trkpt lat="43.37386338329039" lon="-4.461532656882342"><ele>9.4</ele><time>2026-05-02T08:35:30.001Z</time></trkpt><trkpt lat="43.37390858611162" lon="-4.461406963793599"><ele>9.2</ele><time>2026-05-02T08:35:31.001Z</time></trkpt><trkpt lat="43.373952701986134" lon="-4.461276827959231"><ele>9.0</ele><time>2026-05-02T08:35:32.001Z</time></trkpt><trkpt lat="43.37399451390041" lon="-4.461148931557785"><ele>9.0</ele><time>2026-05-02T08:35:33.001Z</time></trkpt><trkpt lat="43.37403687145707" lon="-4.461020956549805"><ele>9.0</ele><time>2026-05-02T08:35:34.001Z</time></trkpt><trkpt lat="43.37407559090368" lon="-4.460890615586915"><ele>9.0</ele><time>2026-05-02T08:35:35.001Z</time></trkpt><trkpt lat="43.3741135973023" lon="-4.46076053337807"><ele>9.0</ele><time>2026-05-02T08:35:36.001Z</time></trkpt><trkpt lat="43.374154396973054" lon="-4.4606301460330195"><ele>9.0</ele><time>2026-05-02T08:35:37.001Z</time></trkpt><trkpt lat="43.37420008819451" lon="-4.460502346439013"><ele>9.6</ele><time>2026-05-02T08:35:38.001Z</time></trkpt><trkpt lat="43.374244499890125" lon="-4.460376186362194"><ele>10.2</ele><time>2026-05-02T08:35:39.001Z</time></trkpt><trkpt lat="43.37428857809574" lon="-4.460250709382677"><ele>10.799999999999999</ele><time>2026-05-02T08:35:40.001Z</time></trkpt><trkpt lat="43.37433253980326" lon="-4.4601233961038576"><ele>11.4</ele><time>2026-05-02T08:35:41.001Z</time></trkpt><trkpt lat="43.374376685268196" lon="-4.45999520728274"><ele>12.0</ele><time>2026-05-02T08:35:42.001Z</time></trkpt><trkpt lat="43.37441895633194" lon="-4.459866738266649"><ele>12.0</ele><time>2026-05-02T08:35:43.001Z</time></trkpt><trkpt lat="43.374462358887456" lon="-4.459737286808652"><ele>12.0</ele><time>2026-05-02T08:35:44.001Z</time></trkpt><trkpt lat="43.374505589872925" lon="-4.4596095283419155"><ele>12.0</ele><time>2026-05-02T08:35:45.001Z</time></trkpt><trkpt lat="43.37455060266499" lon="-4.459477898106248"><ele>12.0</ele><time>2026-05-02T08:35:46.001Z</time></trkpt><trkpt lat="43.374591550458355" lon="-4.459351750412056"><ele>12.0</ele><time>2026-05-02T08:35:47.001Z</time></trkpt><trkpt lat="43.37463666512121" lon="-4.459219672371174"><ele>12.0</ele><time>2026-05-02T08:35:48.001Z</time></trkpt><trkpt lat="43.374680207502266" lon="-4.459091082732995"><ele>12.0</ele><time>2026-05-02T08:35:49.001Z</time></trkpt><trkpt lat="43.37472383997856" lon="-4.45896234692592"><ele>12.0</ele><time>2026-05-02T08:35:50.001Z</time></trkpt><trkpt lat="43.37476847107215" lon="-4.458834295536949"><ele>12.0</ele><time>2026-05-02T08:35:51.001Z</time></trkpt><trkpt lat="43.37481139710035" lon="-4.458704629922771"><ele>12.0</ele><time>2026-05-02T08:35:52.001Z</time></trkpt><trkpt lat="43.374854271970285" lon="-4.458575712113599"><ele>12.2</ele><time>2026-05-02T08:35:53.001Z</time></trkpt><trkpt lat="43.3748983436263" lon="-4.458448006585047"><ele>12.399999999999999</ele><time>2026-05-02T08:35:54.001Z</time></trkpt><trkpt lat="43.37494384244384" lon="-4.458322472576391"><ele>12.600000000000001</ele><time>2026-05-02T08:35:55Z</time></trkpt><trkpt lat="43.37498905926196" lon="-4.458194999111908"><ele>12.8</ele><time>2026-05-02T08:35:56Z</time></trkpt><trkpt lat="43.375033323334385" lon="-4.458063151327768"><ele>13.0</ele><time>2026-05-02T08:35:57Z</time></trkpt><trkpt lat="43.37507752194161" lon="-4.457935218052472"><ele>13.0</ele><time>2026-05-02T08:35:58Z</time></trkpt><trkpt lat="43.37512087023715" lon="-4.457806721916451"><ele>13.0</ele><time>2026-05-02T08:35:59Z</time></trkpt><trkpt lat="43.37516716641217" lon="-4.457679926894108"><ele>13.0</ele><time>2026-05-02T08:36:00Z</time></trkpt><trkpt lat="43.37521335520028" lon="-4.457551833292637"><ele>13.0</ele><time>2026-05-02T08:36:01Z</time></trkpt><trkpt lat="43.37526193478448" lon="-4.457424214905795"><ele>13.0</ele><time>2026-05-02T08:36:02Z</time></trkpt><trkpt lat="43.3753144932253" lon="-4.457301759946889"><ele>13.0</ele><time>2026-05-02T08:36:03Z</time></trkpt><trkpt lat="43.375367415960696" lon="-4.457180636835923"><ele>13.0</ele><time>2026-05-02T08:36:04Z</time></trkpt><trkpt lat="43.37542539193229" lon="-4.457057301342215"><ele>13.0</ele><time>2026-05-02T08:36:05Z</time></trkpt><trkpt lat="43.37548177598854" lon="-4.4569371388724806"><ele>13.0</ele><time>2026-05-02T08:36:06Z</time></trkpt><trkpt lat="43.375541193575316" lon="-4.456821543356393"><ele>13.0</ele><time>2026-05-02T08:36:07Z</time></trkpt><trkpt lat="43.37560500126486" lon="-4.456704185452069"><ele>13.8</ele><time>2026-05-02T08:36:08Z</time></trkpt><trkpt lat="43.375665324336566" lon="-4.456585494183079"><ele>14.600000000000001</ele><time>2026-05-02T08:36:09Z</time></trkpt><trkpt lat="43.375725298468105" lon="-4.4564631577837135"><ele>15.399999999999999</ele><time>2026-05-02T08:36:10Z</time></trkpt><trkpt lat="43.37578436032222" lon="-4.456346487692938"><ele>16.2</ele><time>2026-05-02T08:36:11Z</time></trkpt><trkpt lat="43.375843830063666" lon="-4.4562285810008655"><ele>17.0</ele><time>2026-05-02T08:36:12Z</time></trkpt><trkpt lat="43.375907496166874" lon="-4.45611225156627"><ele>17.0</ele><time>2026-05-02T08:36:13Z</time></trkpt><trkpt lat="43.37597197890799" lon="-4.456000666352457"><ele>17.0</ele><time>2026-05-02T08:36:14Z</time></trkpt><trkpt lat="43.37603918828243" lon="-4.455894329947579"><ele>17.0</ele><time>2026-05-02T08:36:15Z</time></trkpt><trkpt lat="43.376108659822265" lon="-4.455792762760661"><ele>17.0</ele><time>2026-05-02T08:36:16Z</time></trkpt><trkpt lat="43.37618097771843" lon="-4.45568821488086"><ele>17.0</ele><time>2026-05-02T08:36:17Z</time></trkpt><trkpt lat="43.37624287035644" lon="-4.455577563180205"><ele>17.0</ele><time>2026-05-02T08:36:18Z</time></trkpt><trkpt lat="43.37630500238964" lon="-4.455465978649842"><ele>17.0</ele><time>2026-05-02T08:36:19Z</time></trkpt><trkpt lat="43.37636428630781" lon="-4.455351745110606"><ele>17.0</ele><time>2026-05-02T08:36:20Z</time></trkpt><trkpt lat="43.37642151940581" lon="-4.455233356810443"><ele>17.0</ele><time>2026-05-02T08:36:21Z</time></trkpt><trkpt lat="43.376479078483364" lon="-4.455114227545964"><ele>17.0</ele><time>2026-05-02T08:36:22Z</time></trkpt><trkpt lat="43.376535002052606" lon="-4.455001106360394"><ele>18.0</ele><time>2026-05-02T08:36:23Z</time></trkpt><trkpt lat="43.37659635695476" lon="-4.454883185142135"><ele>19.0</ele><time>2026-05-02T08:36:24Z</time></trkpt><trkpt lat="43.37665616561134" lon="-4.454768485922101"><ele>20.0</ele><time>2026-05-02T08:36:25Z</time></trkpt><trkpt lat="43.376715345072654" lon="-4.454655023200576"><ele>21.0</ele><time>2026-05-02T08:36:26Z</time></trkpt><trkpt lat="43.37677704241839" lon="-4.454543941374457"><ele>22.0</ele><time>2026-05-02T08:36:27Z</time></trkpt><trkpt lat="43.37684233501716" lon="-4.454434028434017"><ele>22.200000000000003</ele><time>2026-05-02T08:36:28Z</time></trkpt><trkpt lat="43.37690362843815" lon="-4.454325090018035"><ele>22.4</ele><time>2026-05-02T08:36:29Z</time></trkpt><trkpt lat="43.37696463098873" lon="-4.454216334155738"><ele>22.6</ele><time>2026-05-02T08:36:30Z</time></trkpt><trkpt lat="43.377026533921445" lon="-4.454105162805829"><ele>22.799999999999997</ele><time>2026-05-02T08:36:31Z</time></trkpt><trkpt lat="43.377087087459465" lon="-4.453996642409416"><ele>23.0</ele><time>2026-05-02T08:36:32Z</time></trkpt><trkpt lat="43.377146468202795" lon="-4.453888137438912"><ele>24.599999999999998</ele><time>2026-05-02T08:36:33Z</time></trkpt><trkpt lat="43.37720883792439" lon="-4.453781225359688"><ele>26.2</ele><time>2026-05-02T08:36:34Z</time></trkpt><trkpt lat="43.37726581986066" lon="-4.453677065878284"><ele>27.8</ele><time>2026-05-02T08:36:35Z</time></trkpt><trkpt lat="43.37732747254321" lon="-4.453572872527655"><ele>29.4</ele><time>2026-05-02T08:36:36Z</time></trkpt><trkpt lat="43.37738570114224" lon="-4.453470116697364"><ele>31.0</ele><time>2026-05-02T08:36:37Z</time></trkpt><trkpt lat="43.377444019848646" lon="-4.453367162425224"><ele>31.0</ele><time>2026-05-02T08:36:38Z</time></trkpt><trkpt lat="43.37749949467726" lon="-4.45326022130705"><ele>31.0</ele><time>2026-05-02T08:36:39Z</time></trkpt><trkpt lat="43.37755502744082" lon="-4.453157311842055"><ele>31.0</ele><time>2026-05-02T08:36:40Z</time></trkpt><trkpt lat="43.37761348693104" lon="-4.453051888749292"><ele>31.0</ele><time>2026-05-02T08:36:41Z</time></trkpt><trkpt lat="43.37767096120585" lon="-4.452949572803711"><ele>31.0</ele><time>2026-05-02T08:36:42Z</time></trkpt><trkpt lat="43.37772774480271" lon="-4.452845903951829"><ele>31.0</ele><time>2026-05-02T08:36:43Z</time></trkpt><trkpt lat="43.37778185360954" lon="-4.452741794661466"><ele>31.0</ele><time>2026-05-02T08:36:44Z</time></trkpt><trkpt lat="43.37783602639377" lon="-4.45263132950901"><ele>31.0</ele><time>2026-05-02T08:36:45Z</time></trkpt><trkpt lat="43.377886580801864" lon="-4.452523870363053"><ele>31.0</ele><time>2026-05-02T08:36:46Z</time></trkpt><trkpt lat="43.37793550122024" lon="-4.452409439737855"><ele>31.0</ele><time>2026-05-02T08:36:47Z</time></trkpt><trkpt lat="43.37798017775723" lon="-4.452296410513561"><ele>32.8</ele><time>2026-05-02T08:36:48Z</time></trkpt><trkpt lat="43.37802475378069" lon="-4.4521802904927394"><ele>34.6</ele><time>2026-05-02T08:36:49Z</time></trkpt><trkpt lat="43.37806700889174" lon="-4.452068639648733"><ele>36.4</ele><time>2026-05-02T08:36:50Z</time></trkpt><trkpt lat="43.37810965165269" lon="-4.451952279804179"><ele>38.2</ele><time>2026-05-02T08:36:51Z</time></trkpt><trkpt lat="43.37814787534582" lon="-4.45183856711819"><ele>40.0</ele><time>2026-05-02T08:36:52Z</time></trkpt><trkpt lat="43.37818795206237" lon="-4.451723686487266"><ele>40.2</ele><time>2026-05-02T08:36:53Z</time></trkpt><trkpt lat="43.378228227353254" lon="-4.451609170861683"><ele>40.4</ele><time>2026-05-02T08:36:54Z</time></trkpt><trkpt lat="43.37826765542199" lon="-4.451490740015889"><ele>40.599999999999994</ele><time>2026-05-02T08:36:55Z</time></trkpt><trkpt lat="43.378305928557396" lon="-4.451373165723451"><ele>40.8</ele><time>2026-05-02T08:36:56Z</time></trkpt><trkpt lat="43.37834525919915" lon="-4.451258112003177"><ele>41.0</ele><time>2026-05-02T08:36:57Z</time></trkpt><trkpt lat="43.37838485702525" lon="-4.451142732922636"><ele>41.199999999999996</ele><time>2026-05-02T08:36:58Z</time></trkpt><trkpt lat="43.37842295597568" lon="-4.451024739108178"><ele>41.4</ele><time>2026-05-02T08:36:59Z</time></trkpt><trkpt lat="43.37846057811554" lon="-4.450908296966835"><ele>41.6</ele><time>2026-05-02T08:37:00Z</time></trkpt><trkpt lat="43.37849888305694" lon="-4.450792003947976"><ele>41.8</ele><time>2026-05-02T08:37:01.001Z</time></trkpt><trkpt lat="43.378538641589216" lon="-4.450677298544147"><ele>42.0</ele><time>2026-05-02T08:37:02.001Z</time></trkpt><trkpt lat="43.37857809982968" lon="-4.450563959109252"><ele>41.6</ele><time>2026-05-02T08:37:03.001Z</time></trkpt><trkpt lat="43.37861846160943" lon="-4.450448151773055"><ele>41.2</ele><time>2026-05-02T08:37:04.001Z</time></trkpt><trkpt lat="43.37865689030042" lon="-4.4503291621226335"><ele>40.8</ele><time>2026-05-02T08:37:05.001Z</time></trkpt><trkpt lat="43.37869495886663" lon="-4.45021223572719"><ele>40.4</ele><time>2026-05-02T08:37:06.001Z</time></trkpt><trkpt lat="43.37873725339961" lon="-4.450091294099803"><ele>40.0</ele><time>2026-05-02T08:37:07.001Z</time></trkpt><trkpt lat="43.37877311777356" lon="-4.449971498754767"><ele>40.0</ele><time>2026-05-02T08:37:08.001Z</time></trkpt><trkpt lat="43.378810831253546" lon="-4.449850712868316"><ele>40.0</ele><time>2026-05-02T08:37:09.001Z</time></trkpt><trkpt lat="43.37884535829245" lon="-4.449728467375563"><ele>40.0</ele><time>2026-05-02T08:37:10.001Z</time></trkpt><trkpt lat="43.37888134861734" lon="-4.449605290961894"><ele>40.0</ele><time>2026-05-02T08:37:11.001Z</time></trkpt><trkpt lat="43.37891116507157" lon="-4.449481757535216"><ele>40.0</ele><time>2026-05-02T08:37:12.001Z</time></trkpt><trkpt lat="43.378937586454896" lon="-4.449355453079053"><ele>42.6</ele><time>2026-05-02T08:37:13.001Z</time></trkpt><trkpt lat="43.37896579273727" lon="-4.4492319454236995"><ele>45.2</ele><time>2026-05-02T08:37:14.001Z</time></trkpt><trkpt lat="43.37899481444438" lon="-4.44910597137811"><ele>47.8</ele><time>2026-05-02T08:37:15.001Z</time></trkpt><trkpt lat="43.37901931040881" lon="-4.448983303045733"><ele>50.4</ele><time>2026-05-02T08:37:16.001Z</time></trkpt><trkpt lat="43.379042400153985" lon="-4.44885545717467"><ele>53.0</ele><time>2026-05-02T08:37:17.001Z</time></trkpt><trkpt lat="43.37905740580896" lon="-4.448733031072125"><ele>53.0</ele><time>2026-05-02T08:37:18.001Z</time></trkpt><trkpt lat="43.37907665579261" lon="-4.448604801447511"><ele>53.0</ele><time>2026-05-02T08:37:19.001Z</time></trkpt><trkpt lat="43.37909586877514" lon="-4.448479289997711"><ele>53.0</ele><time>2026-05-02T08:37:20.001Z</time></trkpt><trkpt lat="43.37911761326403" lon="-4.448356547828228"><ele>53.0</ele><time>2026-05-02T08:37:21.001Z</time></trkpt><trkpt lat="43.37914107905815" lon="-4.448228632218448"><ele>53.0</ele><time>2026-05-02T08:37:22.001Z</time></trkpt><trkpt lat="43.379167405326754" lon="-4.44810501088331"><ele>53.0</ele><time>2026-05-02T08:37:23.001Z</time></trkpt><trkpt lat="43.37919451818293" lon="-4.447980901812827"><ele>53.0</ele><time>2026-05-02T08:37:24.001Z</time></trkpt><trkpt lat="43.37922073401945" lon="-4.447854716206387"><ele>53.0</ele><time>2026-05-02T08:37:25.001Z</time></trkpt><trkpt lat="43.37924725801946" lon="-4.447726870057247"><ele>53.0</ele><time>2026-05-02T08:37:26.001Z</time></trkpt><trkpt lat="43.3792738114864" lon="-4.447597885447608"><ele>53.0</ele><time>2026-05-02T08:37:27.001Z</time></trkpt><trkpt lat="43.37930164437194" lon="-4.447473229232744"><ele>53.0</ele><time>2026-05-02T08:37:28.001Z</time></trkpt><trkpt lat="43.379332294775786" lon="-4.44734600997521"><ele>53.0</ele><time>2026-05-02T08:37:29.001Z</time></trkpt><trkpt lat="43.37935956305859" lon="-4.44721978440462"><ele>53.0</ele><time>2026-05-02T08:37:30.001Z</time></trkpt><trkpt lat="43.37938359446341" lon="-4.44708961342142"><ele>53.0</ele><time>2026-05-02T08:37:31.001Z</time></trkpt><trkpt lat="43.379405494706276" lon="-4.446961333670173"><ele>53.0</ele><time>2026-05-02T08:37:32.001Z</time></trkpt><trkpt lat="43.379427982493695" lon="-4.446830696822682"><ele>53.0</ele><time>2026-05-02T08:37:33.001Z</time></trkpt><trkpt lat="43.379445360939634" lon="-4.446701535276783"><ele>53.0</ele><time>2026-05-02T08:37:34.001Z</time></trkpt><trkpt lat="43.37945993322354" lon="-4.446569278576153"><ele>53.0</ele><time>2026-05-02T08:37:35.001Z</time></trkpt><trkpt lat="43.37946924575456" lon="-4.446438747606705"><ele>53.0</ele><time>2026-05-02T08:37:36.001Z</time></trkpt><trkpt lat="43.379477906121714" lon="-4.446307798473787"><ele>53.0</ele><time>2026-05-02T08:37:37.001Z</time></trkpt><trkpt lat="43.37948297796686" lon="-4.446173336878454"><ele>53.0</ele><time>2026-05-02T08:37:38.001Z</time></trkpt><trkpt lat="43.3794836288738" lon="-4.446040610864773"><ele>53.0</ele><time>2026-05-02T08:37:39.001Z</time></trkpt><trkpt lat="43.37948401312538" lon="-4.445909210140772"><ele>53.0</ele><time>2026-05-02T08:37:40.001Z</time></trkpt><trkpt lat="43.37948114121267" lon="-4.445774478159979"><ele>53.0</ele><time>2026-05-02T08:37:41.001Z</time></trkpt><trkpt lat="43.37947624716945" lon="-4.445641548858648"><ele>53.0</ele><time>2026-05-02T08:37:42.001Z</time></trkpt><trkpt lat="43.37947122278814" lon="-4.445509085457212"><ele>53.599999999999994</ele><time>2026-05-02T08:37:43.001Z</time></trkpt><trkpt lat="43.379466610474616" lon="-4.44537521381267"><ele>54.199999999999996</ele><time>2026-05-02T08:37:44.001Z</time></trkpt><trkpt lat="43.379463498967745" lon="-4.445240897171146"><ele>54.8</ele><time>2026-05-02T08:37:45.001Z</time></trkpt><trkpt lat="43.37946155097064" lon="-4.445107798072166"><ele>55.4</ele><time>2026-05-02T08:37:46.001Z</time></trkpt><trkpt lat="43.37946297572704" lon="-4.444972909251546"><ele>56.0</ele><time>2026-05-02T08:37:47.001Z</time></trkpt><trkpt lat="43.379468239090976" lon="-4.444843571032118"><ele>56.0</ele><time>2026-05-02T08:37:48.001Z</time></trkpt><trkpt lat="43.3794751655683" lon="-4.444710576654939"><ele>55.99999999999999</ele><time>2026-05-02T08:37:49.001Z</time></trkpt><trkpt lat="43.37949099222884" lon="-4.444578609210041"><ele>55.99999999999999</ele><time>2026-05-02T08:37:50.001Z</time></trkpt><trkpt lat="43.37951227848815" lon="-4.44444908136449"><ele>56.0</ele><time>2026-05-02T08:37:51.001Z</time></trkpt><trkpt lat="43.37953576378776" lon="-4.444321001575279"><ele>56.0</ele><time>2026-05-02T08:37:52.001Z</time></trkpt><trkpt lat="43.37956218912667" lon="-4.444189001201729"><ele>55.8</ele><time>2026-05-02T08:37:53.001Z</time></trkpt><trkpt lat="43.3795886241321" lon="-4.444056577389314"><ele>55.599999999999994</ele><time>2026-05-02T08:37:54.001Z</time></trkpt><trkpt lat="43.37961729377064" lon="-4.443925434115114"><ele>55.4</ele><time>2026-05-02T08:37:55.001Z</time></trkpt><trkpt lat="43.379650345905226" lon="-4.443793899640485"><ele>55.2</ele><time>2026-05-02T08:37:56.001Z</time></trkpt><trkpt lat="43.379681449060016" lon="-4.4436659556595774"><ele>55.0</ele><time>2026-05-02T08:37:57.001Z</time></trkpt><trkpt lat="43.37971199585917" lon="-4.443537146827869"><ele>58.0</ele><time>2026-05-02T08:37:58.001Z</time></trkpt><trkpt lat="43.37974155510386" lon="-4.443406903434035"><ele>61.0</ele><time>2026-05-02T08:37:59.001Z</time></trkpt><trkpt lat="43.379767261833905" lon="-4.443277693764353"><ele>64.0</ele><time>2026-05-02T08:38:00.001Z</time></trkpt><trkpt lat="43.379788528765324" lon="-4.4431519023400945"><ele>67.0</ele><time>2026-05-02T08:38:01Z</time></trkpt><trkpt lat="43.3798073711509" lon="-4.443023822855984"><ele>70.0</ele><time>2026-05-02T08:38:02Z</time></trkpt><trkpt lat="43.37982373534624" lon="-4.442892369030724"><ele>70.0</ele><time>2026-05-02T08:38:03Z</time></trkpt><trkpt lat="43.37983577176665" lon="-4.442761358433945"><ele>70.0</ele><time>2026-05-02T08:38:04Z</time></trkpt><trkpt lat="43.37984265098352" lon="-4.442631242892668"><ele>70.0</ele><time>2026-05-02T08:38:05Z</time></trkpt><trkpt lat="43.37984575320146" lon="-4.442498290109418"><ele>70.0</ele><time>2026-05-02T08:38:06Z</time></trkpt><trkpt lat="43.37984733007543" lon="-4.442363838346686"><ele>70.0</ele><time>2026-05-02T08:38:07Z</time></trkpt><trkpt lat="43.37984368357047" lon="-4.442229862689788"><ele>70.8</ele><time>2026-05-02T08:38:08Z</time></trkpt><trkpt lat="43.37983484310879" lon="-4.442101696070933"><ele>71.6</ele><time>2026-05-02T08:38:09Z</time></trkpt><trkpt lat="43.37982655929398" lon="-4.441968156699689"><ele>72.4</ele><time>2026-05-02T08:38:10Z</time></trkpt><trkpt lat="43.379814989316394" lon="-4.441838205489337"><ele>73.2</ele><time>2026-05-02T08:38:11Z</time></trkpt><trkpt lat="43.37980218118875" lon="-4.441708350995442"><ele>74.0</ele><time>2026-05-02T08:38:12Z</time></trkpt><trkpt lat="43.37978860117839" lon="-4.441579827153697"><ele>74.0</ele><time>2026-05-02T08:38:13Z</time></trkpt><trkpt lat="43.37977449327536" lon="-4.4414513040658505"><ele>74.0</ele><time>2026-05-02T08:38:14Z</time></trkpt><trkpt lat="43.379759231301556" lon="-4.441323161625363"><ele>74.0</ele><time>2026-05-02T08:38:15Z</time></trkpt><trkpt lat="43.379744942634325" lon="-4.441194977335543"><ele>74.0</ele><time>2026-05-02T08:38:16Z</time></trkpt><trkpt lat="43.3797315485685" lon="-4.441067927261454"><ele>74.0</ele><time>2026-05-02T08:38:17Z</time></trkpt><trkpt lat="43.37972028029475" lon="-4.440940804612573"><ele>74.60000000000001</ele><time>2026-05-02T08:38:18Z</time></trkpt><trkpt lat="43.37970810256154" lon="-4.440810557353812"><ele>75.2</ele><time>2026-05-02T08:38:19Z</time></trkpt><trkpt lat="43.37969877520998" lon="-4.440685113316349"><ele>75.80000000000001</ele><time>2026-05-02T08:38:20Z</time></trkpt><trkpt lat="43.379694544280284" lon="-4.440553318336315"><ele>76.4</ele><time>2026-05-02T08:38:21Z</time></trkpt><trkpt lat="43.37968957509833" lon="-4.440423942443594"><ele>77.0</ele><time>2026-05-02T08:38:22Z</time></trkpt><trkpt lat="43.37969039718232" lon="-4.440291679634465"><ele>78.0</ele><time>2026-05-02T08:38:23Z</time></trkpt><trkpt lat="43.37969643780045" lon="-4.440158827664086"><ele>79.0</ele><time>2026-05-02T08:38:24Z</time></trkpt><trkpt lat="43.379707490263556" lon="-4.440026671561764"><ele>80.0</ele><time>2026-05-02T08:38:25Z</time></trkpt><trkpt lat="43.3797227562217" lon="-4.439895948068981"><ele>81.0</ele><time>2026-05-02T08:38:26Z</time></trkpt><trkpt lat="43.37974106824234" lon="-4.439763266092464"><ele>82.0</ele><time>2026-05-02T08:38:27Z</time></trkpt><trkpt lat="43.37976752619421" lon="-4.439633729675418"><ele>82.39999999999999</ele><time>2026-05-02T08:38:28Z</time></trkpt><trkpt lat="43.379798039408044" lon="-4.4395053092726835"><ele>82.8</ele><time>2026-05-02T08:38:29Z</time></trkpt><trkpt lat="43.379838779856584" lon="-4.439376192687181"><ele>83.2</ele><time>2026-05-02T08:38:30Z</time></trkpt><trkpt lat="43.37988261713462" lon="-4.439249309399145"><ele>83.6</ele><time>2026-05-02T08:38:31Z</time></trkpt><trkpt lat="43.37992946928483" lon="-4.439120472737441"><ele>84.0</ele><time>2026-05-02T08:38:32Z</time></trkpt><trkpt lat="43.37997603921982" lon="-4.438999054402575"><ele>84.0</ele><time>2026-05-02T08:38:33Z</time></trkpt><trkpt lat="43.380031745405276" lon="-4.438863880752186"><ele>84.0</ele><time>2026-05-02T08:38:34Z</time></trkpt><trkpt lat="43.380089020242835" lon="-4.438723275526705"><ele>84.0</ele><time>2026-05-02T08:38:35Z</time></trkpt><trkpt lat="43.38014557154781" lon="-4.438591539826369"><ele>84.0</ele><time>2026-05-02T08:38:36Z</time></trkpt><trkpt lat="43.380197346363545" lon="-4.438458658353736"><ele>82.8</ele><time>2026-05-02T08:38:37Z</time></trkpt><trkpt lat="43.38025032962904" lon="-4.438326586531578"><ele>81.60000000000001</ele><time>2026-05-02T08:38:38Z</time></trkpt><trkpt lat="43.380298258392784" lon="-4.438191802229088"><ele>80.4</ele><time>2026-05-02T08:38:39Z</time></trkpt><trkpt lat="43.380342392177674" lon="-4.4380580289278"><ele>79.2</ele><time>2026-05-02T08:38:40Z</time></trkpt><trkpt lat="43.380382650703226" lon="-4.437923807107508"><ele>78.0</ele><time>2026-05-02T08:38:41Z</time></trkpt><trkpt lat="43.3804172695208" lon="-4.437806537305497"><ele>79.0</ele><time>2026-05-02T08:38:42Z</time></trkpt><trkpt lat="43.38045155009106" lon="-4.437685233681666"><ele>80.0</ele><time>2026-05-02T08:38:43Z</time></trkpt><trkpt lat="43.38048981447219" lon="-4.437505444301339"><ele>81.0</ele><time>2026-05-02T08:38:44Z</time></trkpt><trkpt lat="43.38053821787018" lon="-4.4372933442080615"><ele>82.0</ele><time>2026-05-02T08:38:45Z</time></trkpt><trkpt lat="43.38057561186094" lon="-4.437133153198078"><ele>82.0</ele><time>2026-05-02T08:38:46Z</time></trkpt><trkpt lat="43.38064962697149" lon="-4.436988759759472"><ele>82.0</ele><time>2026-05-02T08:38:48Z</time></trkpt><trkpt lat="43.380705286554914" lon="-4.43686003206712"><ele>82.0</ele><time>2026-05-02T08:38:49Z</time></trkpt><trkpt lat="43.38076737829638" lon="-4.436728305698857"><ele>82.0</ele><time>2026-05-02T08:38:50Z</time></trkpt><trkpt lat="43.38082017364188" lon="-4.4366173105020765"><ele>82.0</ele><time>2026-05-02T08:38:51Z</time></trkpt><trkpt lat="43.38089712893301" lon="-4.436504718409207"><ele>82.0</ele><time>2026-05-02T08:38:52Z</time></trkpt><trkpt lat="43.380966567925284" lon="-4.436399106480141"><ele>82.0</ele><time>2026-05-02T08:38:53Z</time></trkpt><trkpt lat="43.38104597052786" lon="-4.436297384868173"><ele>82.0</ele><time>2026-05-02T08:38:54Z</time></trkpt><trkpt lat="43.381130556314645" lon="-4.436191356766325"><ele>82.0</ele><time>2026-05-02T08:38:55Z</time></trkpt><trkpt lat="43.38121329377015" lon="-4.436088385156711"><ele>82.0</ele><time>2026-05-02T08:38:56.001Z</time></trkpt><trkpt lat="43.38129324790621" lon="-4.4359878956014365"><ele>81.6</ele><time>2026-05-02T08:38:57.001Z</time></trkpt><trkpt lat="43.381371464754935" lon="-4.435891394815099"><ele>81.19999999999999</ele><time>2026-05-02T08:38:58.001Z</time></trkpt><trkpt lat="43.381440613185674" lon="-4.435790670777856"><ele>80.8</ele><time>2026-05-02T08:38:59.001Z</time></trkpt><trkpt lat="43.38147841183159" lon="-4.435680120891777"><ele>80.4</ele><time>2026-05-02T08:39:00.001Z</time></trkpt><trkpt lat="43.38155815030955" lon="-4.435539237277666"><ele>80.0</ele><time>2026-05-02T08:39:01.001Z</time></trkpt><trkpt lat="43.38166138321603" lon="-4.4354403633726855"><ele>80.0</ele><time>2026-05-02T08:39:02.001Z</time></trkpt><trkpt lat="43.381711951427924" lon="-4.435306650419092"><ele>80.0</ele><time>2026-05-02T08:39:03.001Z</time></trkpt><trkpt lat="43.38173233211549" lon="-4.4351613445022835"><ele>80.0</ele><time>2026-05-02T08:39:04.001Z</time></trkpt><trkpt lat="43.381777778441574" lon="-4.435021778036505"><ele>80.0</ele><time>2026-05-02T08:39:05.001Z</time></trkpt><trkpt lat="43.38177328845822" lon="-4.434867423685025"><ele>80.0</ele><time>2026-05-02T08:39:06.001Z</time></trkpt><trkpt lat="43.38180546193338" lon="-4.434725444503252"><ele>79.4</ele><time>2026-05-02T08:39:07.001Z</time></trkpt><trkpt lat="43.381819167777586" lon="-4.434580245222701"><ele>78.8</ele><time>2026-05-02T08:39:08.001Z</time></trkpt><trkpt lat="43.38183343391221" lon="-4.434437628162997"><ele>78.2</ele><time>2026-05-02T08:39:09.001Z</time></trkpt><trkpt lat="43.38184753769142" lon="-4.434292081157108"><ele>77.6</ele><time>2026-05-02T08:39:10.001Z</time></trkpt><trkpt lat="43.381864334594155" lon="-4.434145070855409"><ele>77.0</ele><time>2026-05-02T08:39:11.001Z</time></trkpt><trkpt lat="43.381878214970065" lon="-4.434000149766859"><ele>77.0</ele><time>2026-05-02T08:39:12.001Z</time></trkpt><trkpt lat="43.381894485464755" lon="-4.433854045214853"><ele>77.0</ele><time>2026-05-02T08:39:13.001Z</time></trkpt><trkpt lat="43.38191024651378" lon="-4.433711245999643"><ele>77.0</ele><time>2026-05-02T08:39:14.001Z</time></trkpt><trkpt lat="43.38192486964203" lon="-4.433569501507257"><ele>77.0</ele><time>2026-05-02T08:39:15.001Z</time></trkpt><trkpt lat="43.381935461031766" lon="-4.433427811003825"><ele>77.0</ele><time>2026-05-02T08:39:16.001Z</time></trkpt><trkpt lat="43.38195098471378" lon="-4.4332837278263355"><ele>77.0</ele><time>2026-05-02T08:39:17.001Z</time></trkpt><trkpt lat="43.381963622679585" lon="-4.43313784542009"><ele>77.0</ele><time>2026-05-02T08:39:18.001Z</time></trkpt><trkpt lat="43.38198393223834" lon="-4.432992550696851"><ele>77.0</ele><time>2026-05-02T08:39:19.001Z</time></trkpt><trkpt lat="43.382007007042105" lon="-4.432842157499649"><ele>77.0</ele><time>2026-05-02T08:39:20.001Z</time></trkpt><trkpt lat="43.38201687246195" lon="-4.43269675332155"><ele>77.0</ele><time>2026-05-02T08:39:21.001Z</time></trkpt><trkpt lat="43.38203391698429" lon="-4.432552086611535"><ele>76.6</ele><time>2026-05-02T08:39:22.001Z</time></trkpt><trkpt lat="43.38205223796164" lon="-4.432408094184971"><ele>76.2</ele><time>2026-05-02T08:39:23.001Z</time></trkpt><trkpt lat="43.38207520138272" lon="-4.432262850278404"><ele>75.8</ele><time>2026-05-02T08:39:24.001Z</time></trkpt><trkpt lat="43.38210087800075" lon="-4.432122901184036"><ele>75.4</ele><time>2026-05-02T08:39:25.001Z</time></trkpt><trkpt lat="43.38212887263441" lon="-4.431984665026282"><ele>75.0</ele><time>2026-05-02T08:39:26.001Z</time></trkpt><trkpt lat="43.38216832790221" lon="-4.4318510343966775"><ele>76.2</ele><time>2026-05-02T08:39:27.001Z</time></trkpt><trkpt lat="43.38221409644113" lon="-4.4317199570317065"><ele>77.4</ele><time>2026-05-02T08:39:28.001Z</time></trkpt><trkpt lat="43.382261085845286" lon="-4.431587235947872"><ele>78.6</ele><time>2026-05-02T08:39:29.001Z</time></trkpt><trkpt lat="43.38231233517572" lon="-4.431454242059169"><ele>79.8</ele><time>2026-05-02T08:39:30.001Z</time></trkpt><trkpt lat="43.382363980139296" lon="-4.431323253299201"><ele>81.0</ele><time>2026-05-02T08:39:31.001Z</time></trkpt><trkpt lat="43.38241511622228" lon="-4.431191552168061"><ele>81.0</ele><time>2026-05-02T08:39:32.001Z</time></trkpt><trkpt lat="43.382467022081016" lon="-4.431057166714254"><ele>81.0</ele><time>2026-05-02T08:39:33.001Z</time></trkpt><trkpt lat="43.382516381874716" lon="-4.430926131713787"><ele>81.0</ele><time>2026-05-02T08:39:34.001Z</time></trkpt><trkpt lat="43.3825685407183" lon="-4.430797286556984"><ele>81.0</ele><time>2026-05-02T08:39:35.001Z</time></trkpt><trkpt lat="43.38262182038881" lon="-4.430669126850185"><ele>81.0</ele><time>2026-05-02T08:39:36.001Z</time></trkpt><trkpt lat="43.38267354854081" lon="-4.4305420425884785"><ele>80.6</ele><time>2026-05-02T08:39:37.001Z</time></trkpt><trkpt lat="43.38272694584214" lon="-4.4304201302991615"><ele>80.19999999999999</ele><time>2026-05-02T08:39:38.001Z</time></trkpt><trkpt lat="43.38278214707883" lon="-4.4303002090581645"><ele>79.80000000000001</ele><time>2026-05-02T08:39:39.001Z</time></trkpt><trkpt lat="43.382839043773885" lon="-4.430182112289328"><ele>79.4</ele><time>2026-05-02T08:39:40.001Z</time></trkpt><trkpt lat="43.38289684092729" lon="-4.430068632515934"><ele>79.0</ele><time>2026-05-02T08:39:41.001Z</time></trkpt><trkpt lat="43.38295548348974" lon="-4.429954956614611"><ele>79.0</ele><time>2026-05-02T08:39:42.001Z</time></trkpt><trkpt lat="43.38301329732356" lon="-4.429841165083055"><ele>79.0</ele><time>2026-05-02T08:39:43.001Z</time></trkpt><trkpt lat="43.38307430719596" lon="-4.429728159672943"><ele>79.0</ele><time>2026-05-02T08:39:44.001Z</time></trkpt><trkpt lat="43.38313614785614" lon="-4.429613135661259"><ele>79.0</ele><time>2026-05-02T08:39:45.001Z</time></trkpt><trkpt lat="43.38319775497436" lon="-4.429500435158948"><ele>79.0</ele><time>2026-05-02T08:39:46.001Z</time></trkpt><trkpt lat="43.38326160601135" lon="-4.429388163492276"><ele>81.80000000000001</ele><time>2026-05-02T08:39:47.001Z</time></trkpt><trkpt lat="43.38332686841454" lon="-4.429276871838633"><ele>84.60000000000001</ele><time>2026-05-02T08:39:48.001Z</time></trkpt><trkpt lat="43.38339159951541" lon="-4.429165933547026"><ele>87.4</ele><time>2026-05-02T08:39:49.001Z</time></trkpt><trkpt lat="43.38345647409815" lon="-4.42905642276924"><ele>90.2</ele><time>2026-05-02T08:39:50.001Z</time></trkpt><trkpt lat="43.383521498405884" lon="-4.428941937288626"><ele>93.0</ele><time>2026-05-02T08:39:51.001Z</time></trkpt><trkpt lat="43.383584261030265" lon="-4.428832009914028"><ele>93.0</ele><time>2026-05-02T08:39:52.001Z</time></trkpt><trkpt lat="43.383652215585705" lon="-4.428719214213803"><ele>93.0</ele><time>2026-05-02T08:39:53.001Z</time></trkpt><trkpt lat="43.38371715139627" lon="-4.428608264546414"><ele>93.0</ele><time>2026-05-02T08:39:54.001Z</time></trkpt><trkpt lat="43.38377921418357" lon="-4.428491784538375"><ele>93.0</ele><time>2026-05-02T08:39:55.001Z</time></trkpt><trkpt lat="43.38383931518206" lon="-4.42836908215429"><ele>93.0</ele><time>2026-05-02T08:39:56.001Z</time></trkpt><trkpt lat="43.38390097219777" lon="-4.4282572092717984"><ele>93.0</ele><time>2026-05-02T08:39:57.001Z</time></trkpt><trkpt lat="43.38395848267739" lon="-4.428134983981904"><ele>93.0</ele><time>2026-05-02T08:39:58.001Z</time></trkpt><trkpt lat="43.38401177084806" lon="-4.42800346492672"><ele>93.0</ele><time>2026-05-02T08:39:59.001Z</time></trkpt><trkpt lat="43.384059993438605" lon="-4.427878078664948"><ele>93.0</ele><time>2026-05-02T08:40:00.001Z</time></trkpt><trkpt lat="43.38411468850838" lon="-4.427752102447235"><ele>93.0</ele><time>2026-05-02T08:40:01.001Z</time></trkpt><trkpt lat="43.384159074878816" lon="-4.427612157430947"><ele>93.2</ele><time>2026-05-02T08:40:02.001Z</time></trkpt><trkpt lat="43.38419964115863" lon="-4.427475305240353"><ele>93.4</ele><time>2026-05-02T08:40:03.001Z</time></trkpt><trkpt lat="43.384204523597234" lon="-4.4273154400362165"><ele>93.60000000000001</ele><time>2026-05-02T08:40:04.001Z</time></trkpt><trkpt lat="43.38427862995722" lon="-4.427214950063012"><ele>93.80000000000001</ele><time>2026-05-02T08:40:05.001Z</time></trkpt><trkpt lat="43.38431592054942" lon="-4.427070449432917"><ele>94.0</ele><time>2026-05-02T08:40:06.001Z</time></trkpt><trkpt lat="43.384333162195226" lon="-4.42693355548355"><ele>93.5</ele><time>2026-05-02T08:40:07Z</time></trkpt><trkpt lat="43.384373267228796" lon="-4.42678765310746"><ele>93.0</ele><time>2026-05-02T08:40:08Z</time></trkpt><trkpt lat="43.38438736119229" lon="-4.426636658015158"><ele>92.5</ele><time>2026-05-02T08:40:09Z</time></trkpt><trkpt lat="43.38440857266649" lon="-4.426491639588131"><ele>92.0</ele><time>2026-05-02T08:40:10Z</time></trkpt><trkpt lat="43.38441103963852" lon="-4.426328121881441"><ele>91.0</ele><time>2026-05-02T08:40:11Z</time></trkpt><trkpt lat="43.38442851793799" lon="-4.426192288785232"><ele>90.0</ele><time>2026-05-02T08:40:12Z</time></trkpt><trkpt lat="43.38443671778372" lon="-4.426050762122168"><ele>89.0</ele><time>2026-05-02T08:40:13Z</time></trkpt><trkpt lat="43.38442878849934" lon="-4.425889005212722"><ele>88.0</ele><time>2026-05-02T08:40:14Z</time></trkpt><trkpt lat="43.38442953131471" lon="-4.425733822372016"><ele>87.0</ele><time>2026-05-02T08:40:15Z</time></trkpt><trkpt lat="43.3844175512042" lon="-4.425522442586074"><ele>88.0</ele><time>2026-05-02T08:40:16Z</time></trkpt><trkpt lat="43.384405736918794" lon="-4.425370465176348"><ele>89.0</ele><time>2026-05-02T08:40:17Z</time></trkpt><trkpt lat="43.3843912115284" lon="-4.425232367881913"><ele>90.0</ele><time>2026-05-02T08:40:18Z</time></trkpt><trkpt lat="43.38437364913083" lon="-4.424997564710168"><ele>91.0</ele><time>2026-05-02T08:40:20Z</time></trkpt><trkpt lat="43.38435571206227" lon="-4.424852723620426"><ele>91.0</ele><time>2026-05-02T08:40:21Z</time></trkpt><trkpt lat="43.38433679760179" lon="-4.424708733037789"><ele>91.0</ele><time>2026-05-02T08:40:22Z</time></trkpt><trkpt lat="43.38431572030675" lon="-4.424565657799085"><ele>91.0</ele><time>2026-05-02T08:40:23Z</time></trkpt><trkpt lat="43.384293388822385" lon="-4.424422791489048"><ele>91.0</ele><time>2026-05-02T08:40:24Z</time></trkpt><trkpt lat="43.38427498314466" lon="-4.424277212067755"><ele>91.0</ele><time>2026-05-02T08:40:25Z</time></trkpt><trkpt lat="43.38425440566935" lon="-4.424131136395643"><ele>91.6</ele><time>2026-05-02T08:40:26Z</time></trkpt><trkpt lat="43.38423295515456" lon="-4.42398782589185"><ele>92.19999999999999</ele><time>2026-05-02T08:40:27Z</time></trkpt><trkpt lat="43.38421266658455" lon="-4.42384478039216"><ele>92.80000000000001</ele><time>2026-05-02T08:40:28Z</time></trkpt><trkpt lat="43.38419188270306" lon="-4.423705096619268"><ele>93.4</ele><time>2026-05-02T08:40:29Z</time></trkpt><trkpt lat="43.38417170276278" lon="-4.42356263410165"><ele>94.0</ele><time>2026-05-02T08:40:30Z</time></trkpt><trkpt lat="43.384151419729506" lon="-4.423421897683232"><ele>95.0</ele><time>2026-05-02T08:40:31Z</time></trkpt><trkpt lat="43.38413171995155" lon="-4.423275978300798"><ele>96.0</ele><time>2026-05-02T08:40:32Z</time></trkpt><trkpt lat="43.38411082697142" lon="-4.4231339405846875"><ele>97.0</ele><time>2026-05-02T08:40:33Z</time></trkpt><trkpt lat="43.38408872093761" lon="-4.422992157717016"><ele>98.0</ele><time>2026-05-02T08:40:34Z</time></trkpt><trkpt lat="43.38406350250379" lon="-4.422850051399077"><ele>99.0</ele><time>2026-05-02T08:40:35Z</time></trkpt><trkpt lat="43.38404325425762" lon="-4.422709095603554"><ele>99.2</ele><time>2026-05-02T08:40:36Z</time></trkpt><trkpt lat="43.38402328581562" lon="-4.422564790698668"><ele>99.4</ele><time>2026-05-02T08:40:37Z</time></trkpt><trkpt lat="43.384004626024456" lon="-4.422421721468931"><ele>99.6</ele><time>2026-05-02T08:40:38Z</time></trkpt><trkpt lat="43.38398702922074" lon="-4.422281630521057"><ele>99.8</ele><time>2026-05-02T08:40:39Z</time></trkpt><trkpt lat="43.38396744149713" lon="-4.422139072100909"><ele>100.0</ele><time>2026-05-02T08:40:40Z</time></trkpt><trkpt lat="43.38395009825704" lon="-4.42199611261977"><ele>99.8</ele><time>2026-05-02T08:40:41Z</time></trkpt><trkpt lat="43.383928513426625" lon="-4.4218553738743225"><ele>99.6</ele><time>2026-05-02T08:40:42Z</time></trkpt><trkpt lat="43.38391006276566" lon="-4.421706906526053"><ele>99.4</ele><time>2026-05-02T08:40:43Z</time></trkpt><trkpt lat="43.38389777059668" lon="-4.421560110727786"><ele>99.2</ele><time>2026-05-02T08:40:44Z</time></trkpt><trkpt lat="43.38388718554162" lon="-4.421416324309753"><ele>99.0</ele><time>2026-05-02T08:40:45Z</time></trkpt><trkpt lat="43.38388361373691" lon="-4.4212548522771185"><ele>99.0</ele><time>2026-05-02T08:40:46Z</time></trkpt><trkpt lat="43.38389002662659" lon="-4.421042055203236"><ele>99.0</ele><time>2026-05-02T08:40:47Z</time></trkpt><trkpt lat="43.383906772792976" lon="-4.4207992002022145"><ele>99.0</ele><time>2026-05-02T08:40:48Z</time></trkpt><trkpt lat="43.3838583425676" lon="-4.420667623017942"><ele>99.0</ele><time>2026-05-02T08:40:50Z</time></trkpt><trkpt lat="43.383856551155084" lon="-4.420524247142028"><ele>98.4</ele><time>2026-05-02T08:40:51Z</time></trkpt><trkpt lat="43.383853410042434" lon="-4.420382635642076"><ele>97.80000000000001</ele><time>2026-05-02T08:40:52Z</time></trkpt><trkpt lat="43.383848423406626" lon="-4.420237601866197"><ele>97.19999999999999</ele><time>2026-05-02T08:40:53Z</time></trkpt><trkpt lat="43.3838457177894" lon="-4.420094463494174"><ele>96.6</ele><time>2026-05-02T08:40:54Z</time></trkpt><trkpt lat="43.38384251739501" lon="-4.41994793436348"><ele>96.0</ele><time>2026-05-02T08:40:55Z</time></trkpt><trkpt lat="43.38383790896986" lon="-4.419797494037333"><ele>90.0</ele><time>2026-05-02T08:40:56Z</time></trkpt><trkpt lat="43.383831462362025" lon="-4.419652451618585"><ele>84.0</ele><time>2026-05-02T08:40:57Z</time></trkpt><trkpt lat="43.383829094537646" lon="-4.419507267233568"><ele>78.0</ele><time>2026-05-02T08:40:58Z</time></trkpt><trkpt lat="43.38382507007773" lon="-4.419359957351681"><ele>72.0</ele><time>2026-05-02T08:40:59Z</time></trkpt><trkpt lat="43.38381888595901" lon="-4.4192135794945155"><ele>66.0</ele><time>2026-05-02T08:41:00Z</time></trkpt><trkpt lat="43.3838150456628" lon="-4.4190665714162725"><ele>65.8</ele><time>2026-05-02T08:41:01Z</time></trkpt><trkpt lat="43.3838132486269" lon="-4.418923001211411"><ele>65.6</ele><time>2026-05-02T08:41:02Z</time></trkpt><trkpt lat="43.38380807348057" lon="-4.418767083821751"><ele>65.4</ele><time>2026-05-02T08:41:03Z</time></trkpt><trkpt lat="43.38380352013783" lon="-4.418617372610038"><ele>65.2</ele><time>2026-05-02T08:41:04Z</time></trkpt><trkpt lat="43.38380002865691" lon="-4.418463677619713"><ele>65.0</ele><time>2026-05-02T08:41:05Z</time></trkpt><trkpt lat="43.38379711005005" lon="-4.4183087366417455"><ele>65.0</ele><time>2026-05-02T08:41:06Z</time></trkpt><trkpt lat="43.38380144814886" lon="-4.418154719828805"><ele>65.0</ele><time>2026-05-02T08:41:07Z</time></trkpt><trkpt lat="43.38381076768587" lon="-4.418000883352753"><ele>65.0</ele><time>2026-05-02T08:41:08.001Z</time></trkpt><trkpt lat="43.38383168538263" lon="-4.417848879787784"><ele>65.0</ele><time>2026-05-02T08:41:09.001Z</time></trkpt><trkpt lat="43.38386201285761" lon="-4.417697521825387"><ele>68.5</ele><time>2026-05-02T08:41:10.001Z</time></trkpt><trkpt lat="43.38390037064971" lon="-4.417545868240321"><ele>72.0</ele><time>2026-05-02T08:41:11.001Z</time></trkpt><trkpt lat="43.383950745288125" lon="-4.417399423855908"><ele>75.5</ele><time>2026-05-02T08:41:12.001Z</time></trkpt><trkpt lat="43.38401096166173" lon="-4.417263379276285"><ele>79.0</ele><time>2026-05-02T08:41:13.001Z</time></trkpt><trkpt lat="43.38407610806586" lon="-4.417132627982559"><ele>79.0</ele><time>2026-05-02T08:41:14.001Z</time></trkpt><trkpt lat="43.38414412044217" lon="-4.4170031271275185"><ele>79.0</ele><time>2026-05-02T08:41:15.001Z</time></trkpt><trkpt lat="43.38421153692106" lon="-4.416871200307158"><ele>79.0</ele><time>2026-05-02T08:41:16.001Z</time></trkpt><trkpt lat="43.38427618762408" lon="-4.416740019807573"><ele>79.0</ele><time>2026-05-02T08:41:17.001Z</time></trkpt><trkpt lat="43.38434165295061" lon="-4.416608698349962"><ele>79.0</ele><time>2026-05-02T08:41:18.001Z</time></trkpt><trkpt lat="43.38440709413109" lon="-4.416478940544282"><ele>79.0</ele><time>2026-05-02T08:41:19.001Z</time></trkpt><trkpt lat="43.38447139875466" lon="-4.416350701401261"><ele>79.0</ele><time>2026-05-02T08:41:20.001Z</time></trkpt><trkpt lat="43.38453519033884" lon="-4.416223839611876"><ele>79.0</ele><time>2026-05-02T08:41:21.001Z</time></trkpt><trkpt lat="43.3845946452214" lon="-4.416097309186457"><ele>79.5</ele><time>2026-05-02T08:41:22.001Z</time></trkpt><trkpt lat="43.38465576617796" lon="-4.415965243783309"><ele>80.0</ele><time>2026-05-02T08:41:23.001Z</time></trkpt><trkpt lat="43.38471911729674" lon="-4.415835275776944"><ele>80.5</ele><time>2026-05-02T08:41:24.001Z</time></trkpt><trkpt lat="43.38477617686181" lon="-4.415701329513797"><ele>81.0</ele><time>2026-05-02T08:41:25.001Z</time></trkpt><trkpt lat="43.384834936992874" lon="-4.4155669164397615"><ele>78.75</ele><time>2026-05-02T08:41:26.001Z</time></trkpt><trkpt lat="43.384892888142176" lon="-4.415431830113767"><ele>76.5</ele><time>2026-05-02T08:41:27.001Z</time></trkpt><trkpt lat="43.384944387551435" lon="-4.415293813257036"><ele>74.25</ele><time>2026-05-02T08:41:28.001Z</time></trkpt><trkpt lat="43.38499376007139" lon="-4.4151522801525545"><ele>72.0</ele><time>2026-05-02T08:41:29.001Z</time></trkpt><trkpt lat="43.38503875326429" lon="-4.415006493387014"><ele>72.0</ele><time>2026-05-02T08:41:30.001Z</time></trkpt><trkpt lat="43.385081224938155" lon="-4.414866794162013"><ele>72.0</ele><time>2026-05-02T08:41:31.001Z</time></trkpt><trkpt lat="43.3851279787298" lon="-4.414724999480865"><ele>72.0</ele><time>2026-05-02T08:41:32.001Z</time></trkpt><trkpt lat="43.38517302179257" lon="-4.414584745782853"><ele>72.0</ele><time>2026-05-02T08:41:33.001Z</time></trkpt><trkpt lat="43.385216555996806" lon="-4.41444226998458"><ele>72.0</ele><time>2026-05-02T08:41:34.001Z</time></trkpt><trkpt lat="43.385260441410495" lon="-4.41430211712695"><ele>70.4</ele><time>2026-05-02T08:41:35.001Z</time></trkpt><trkpt lat="43.3853040661673" lon="-4.414160711841043"><ele>68.80000000000001</ele><time>2026-05-02T08:41:36.001Z</time></trkpt><trkpt lat="43.38534717806399" lon="-4.414022086961744"><ele>67.2</ele><time>2026-05-02T08:41:37.001Z</time></trkpt><trkpt lat="43.38539283422422" lon="-4.413887536908646"><ele>65.60000000000001</ele><time>2026-05-02T08:41:38.001Z</time></trkpt><trkpt lat="43.385448798769104" lon="-4.413746339021614"><ele>64.0</ele><time>2026-05-02T08:41:39.001Z</time></trkpt><trkpt lat="43.38550523553486" lon="-4.41363498406132"><ele>64.75</ele><time>2026-05-02T08:41:40.001Z</time></trkpt><trkpt lat="43.385573291937504" lon="-4.41353122818432"><ele>65.5</ele><time>2026-05-02T08:41:41.001Z</time></trkpt><trkpt lat="43.38576742561549" lon="-4.413363147863737"><ele>66.25</ele><time>2026-05-02T08:41:43.001Z</time></trkpt><trkpt lat="43.38587328428791" lon="-4.413311740790356"><ele>67.0</ele><time>2026-05-02T08:41:44.001Z</time></trkpt><trkpt lat="43.38598239625874" lon="-4.413282205582899"><ele>67.0</ele><time>2026-05-02T08:41:45.001Z</time></trkpt><trkpt lat="43.38609320992686" lon="-4.413269809367589"><ele>67.0</ele><time>2026-05-02T08:41:46.001Z</time></trkpt><trkpt lat="43.38620637241537" lon="-4.41327288103645"><ele>67.0</ele><time>2026-05-02T08:41:47.001Z</time></trkpt><trkpt lat="43.38631772676955" lon="-4.413274654223616"><ele>67.0</ele><time>2026-05-02T08:41:48.001Z</time></trkpt><trkpt lat="43.386428588447636" lon="-4.413271317720218"><ele>67.0</ele><time>2026-05-02T08:41:49.001Z</time></trkpt><trkpt lat="43.38653684759565" lon="-4.413263886555098"><ele>65.8</ele><time>2026-05-02T08:41:50.001Z</time></trkpt><trkpt lat="43.38665038458495" lon="-4.4132377776575735"><ele>64.6</ele><time>2026-05-02T08:41:51.001Z</time></trkpt><trkpt lat="43.38675450540414" lon="-4.413199135841567"><ele>63.39999999999999</ele><time>2026-05-02T08:41:52.001Z</time></trkpt><trkpt lat="43.386858717165524" lon="-4.4131429512308955"><ele>62.199999999999996</ele><time>2026-05-02T08:41:53.001Z</time></trkpt><trkpt lat="43.386954264813276" lon="-4.413073141627607"><ele>61.0</ele><time>2026-05-02T08:41:54.001Z</time></trkpt><trkpt lat="43.38704489157082" lon="-4.412992138682727"><ele>60.4</ele><time>2026-05-02T08:41:55.001Z</time></trkpt><trkpt lat="43.3871269538671" lon="-4.4128985934091505"><ele>59.8</ele><time>2026-05-02T08:41:56.001Z</time></trkpt><trkpt lat="43.38720989343038" lon="-4.4128033380446565"><ele>59.199999999999996</ele><time>2026-05-02T08:41:57.001Z</time></trkpt><trkpt lat="43.38728227315429" lon="-4.412691482446876"><ele>58.599999999999994</ele><time>2026-05-02T08:41:58.001Z</time></trkpt><trkpt lat="43.38735740153369" lon="-4.4125665833943675"><ele>58.0</ele><time>2026-05-02T08:41:59.001Z</time></trkpt><trkpt lat="43.38742251923124" lon="-4.412446940913185"><ele>58.0</ele><time>2026-05-02T08:42:00.001Z</time></trkpt><trkpt lat="43.387478814948096" lon="-4.412320012942891"><ele>58.0</ele><time>2026-05-02T08:42:01.001Z</time></trkpt><trkpt lat="43.3875238977509" lon="-4.412188014847577"><ele>58.0</ele><time>2026-05-02T08:42:02.001Z</time></trkpt><trkpt lat="43.387565205325984" lon="-4.412049477385124"><ele>58.0</ele><time>2026-05-02T08:42:03.001Z</time></trkpt><trkpt lat="43.387590091102325" lon="-4.411903364240987"><ele>58.0</ele><time>2026-05-02T08:42:04.001Z</time></trkpt><trkpt lat="43.38762287988001" lon="-4.411757664509954"><ele>57.0</ele><time>2026-05-02T08:42:05.001Z</time></trkpt><trkpt lat="43.38761999836727" lon="-4.411605807229069"><ele>56.0</ele><time>2026-05-02T08:42:06.001Z</time></trkpt><trkpt lat="43.38761921239487" lon="-4.411482360029913"><ele>55.0</ele><time>2026-05-02T08:42:07.001Z</time></trkpt><trkpt lat="43.38759863104984" lon="-4.411345568568703"><ele>54.0</ele><time>2026-05-02T08:42:08.001Z</time></trkpt><trkpt lat="43.38762227713822" lon="-4.411210866567639"><ele>53.0</ele><time>2026-05-02T08:42:09.001Z</time></trkpt><trkpt lat="43.38773112627554" lon="-4.411013821119531"><ele>51.75</ele><time>2026-05-02T08:42:10.001Z</time></trkpt><trkpt lat="43.38778573356295" lon="-4.41082466694304"><ele>50.5</ele><time>2026-05-02T08:42:11.001Z</time></trkpt><trkpt lat="43.38783900817153" lon="-4.410631753839566"><ele>49.25</ele><time>2026-05-02T08:42:12.001Z</time></trkpt><trkpt lat="43.38781949940461" lon="-4.410446884490774"><ele>48.0</ele><time>2026-05-02T08:42:14Z</time></trkpt><trkpt lat="43.38784584249275" lon="-4.410306660339443"><ele>47.8</ele><time>2026-05-02T08:42:15Z</time></trkpt><trkpt lat="43.387875071597016" lon="-4.410166661198543"><ele>47.599999999999994</ele><time>2026-05-02T08:42:16Z</time></trkpt><trkpt lat="43.38790714410558" lon="-4.410024840164952"><ele>47.400000000000006</ele><time>2026-05-02T08:42:17Z</time></trkpt><trkpt lat="43.38794788394076" lon="-4.409886001474193"><ele>47.2</ele><time>2026-05-02T08:42:18Z</time></trkpt><trkpt lat="43.387996448109725" lon="-4.409752177365895"><ele>47.0</ele><time>2026-05-02T08:42:19Z</time></trkpt><trkpt lat="43.38805000607792" lon="-4.409621402763359"><ele>47.0</ele><time>2026-05-02T08:42:20Z</time></trkpt><trkpt lat="43.38811183842632" lon="-4.409497775855071"><ele>47.0</ele><time>2026-05-02T08:42:21Z</time></trkpt><trkpt lat="43.388173691584036" lon="-4.409379475316827"><ele>47.0</ele><time>2026-05-02T08:42:22Z</time></trkpt><trkpt lat="43.38823992432845" lon="-4.409258664081352"><ele>47.0</ele><time>2026-05-02T08:42:23Z</time></trkpt><trkpt lat="43.3883005858361" lon="-4.409138358317426"><ele>47.0</ele><time>2026-05-02T08:42:24Z</time></trkpt><trkpt lat="43.388357176815965" lon="-4.4090147757188305"><ele>47.0</ele><time>2026-05-02T08:42:25Z</time></trkpt><trkpt lat="43.38840607109657" lon="-4.408885605576757"><ele>47.0</ele><time>2026-05-02T08:42:26Z</time></trkpt><trkpt lat="43.38843926726694" lon="-4.408747121848391"><ele>47.0</ele><time>2026-05-02T08:42:27Z</time></trkpt><trkpt lat="43.38845326381672" lon="-4.408601614655572"><ele>47.0</ele><time>2026-05-02T08:42:28Z</time></trkpt><trkpt lat="43.388433499919216" lon="-4.4084493341028175"><ele>47.0</ele><time>2026-05-02T08:42:29Z</time></trkpt><trkpt lat="43.38844020868203" lon="-4.4082968883363804"><ele>45.2</ele><time>2026-05-02T08:42:30Z</time></trkpt><trkpt lat="43.388422001387376" lon="-4.408150010639577"><ele>43.400000000000006</ele><time>2026-05-02T08:42:31Z</time></trkpt><trkpt lat="43.38839776076307" lon="-4.40801337571182"><ele>41.599999999999994</ele><time>2026-05-02T08:42:32Z</time></trkpt><trkpt lat="43.38837208792253" lon="-4.407880855970059"><ele>39.8</ele><time>2026-05-02T08:42:33Z</time></trkpt><trkpt lat="43.38835066096744" lon="-4.407750693033049"><ele>38.0</ele><time>2026-05-02T08:42:34Z</time></trkpt><trkpt lat="43.38832447750317" lon="-4.407621030741935"><ele>38.0</ele><time>2026-05-02T08:42:35Z</time></trkpt><trkpt lat="43.38830617123899" lon="-4.4074872941563745"><ele>38.0</ele><time>2026-05-02T08:42:36Z</time></trkpt><trkpt lat="43.38829032452753" lon="-4.407351238241677"><ele>38.0</ele><time>2026-05-02T08:42:37Z</time></trkpt><trkpt lat="43.38827650955175" lon="-4.4072108306905795"><ele>38.0</ele><time>2026-05-02T08:42:38Z</time></trkpt><trkpt lat="43.38826468395589" lon="-4.407070099327843"><ele>38.0</ele><time>2026-05-02T08:42:39Z</time></trkpt><trkpt lat="43.388251903263196" lon="-4.4069267998754755"><ele>38.0</ele><time>2026-05-02T08:42:40Z</time></trkpt><trkpt lat="43.3882407796142" lon="-4.4067827321432755"><ele>38.0</ele><time>2026-05-02T08:42:41Z</time></trkpt><trkpt lat="43.38823030046577" lon="-4.4066343835743655"><ele>38.0</ele><time>2026-05-02T08:42:42Z</time></trkpt><trkpt lat="43.38821831425525" lon="-4.406490321572349"><ele>38.0</ele><time>2026-05-02T08:42:43Z</time></trkpt><trkpt lat="43.38820282066729" lon="-4.40635125591647"><ele>38.0</ele><time>2026-05-02T08:42:44Z</time></trkpt><trkpt lat="43.38819096619238" lon="-4.406209174363791"><ele>37.199999999999996</ele><time>2026-05-02T08:42:45Z</time></trkpt><trkpt lat="43.38817934181137" lon="-4.406066460119095"><ele>36.4</ele><time>2026-05-02T08:42:46Z</time></trkpt><trkpt lat="43.38817186908676" lon="-4.405921054882336"><ele>35.599999999999994</ele><time>2026-05-02T08:42:47Z</time></trkpt><trkpt lat="43.388165196159285" lon="-4.4057741760594835"><ele>34.8</ele><time>2026-05-02T08:42:48Z</time></trkpt><trkpt lat="43.38815571391048" lon="-4.405630063888015"><ele>34.0</ele><time>2026-05-02T08:42:49Z</time></trkpt><trkpt lat="43.38816085494845" lon="-4.405488555026706"><ele>33.0</ele><time>2026-05-02T08:42:50Z</time></trkpt><trkpt lat="43.38817982349588" lon="-4.4053472109233445"><ele>32.0</ele><time>2026-05-02T08:42:51Z</time></trkpt><trkpt lat="43.38820524094411" lon="-4.405209541063733"><ele>31.0</ele><time>2026-05-02T08:42:52Z</time></trkpt><trkpt lat="43.38823305692966" lon="-4.405076738098873"><ele>30.0</ele><time>2026-05-02T08:42:53Z</time></trkpt><trkpt lat="43.38826996586386" lon="-4.404943330003303"><ele>29.0</ele><time>2026-05-02T08:42:54Z</time></trkpt><trkpt lat="43.388303067135155" lon="-4.404805792798033"><ele>29.0</ele><time>2026-05-02T08:42:55Z</time></trkpt><trkpt lat="43.38833456704162" lon="-4.4046664498422725"><ele>29.0</ele><time>2026-05-02T08:42:56Z</time></trkpt><trkpt lat="43.388360645152545" lon="-4.4045306425912605"><ele>29.0</ele><time>2026-05-02T08:42:57Z</time></trkpt><trkpt lat="43.38838621042438" lon="-4.404397476316635"><ele>29.0</ele><time>2026-05-02T08:42:58Z</time></trkpt><trkpt lat="43.38840727419663" lon="-4.404258086710156"><ele>29.0</ele><time>2026-05-02T08:42:59Z</time></trkpt><trkpt lat="43.388421114815586" lon="-4.4041109930207085"><ele>27.799999999999997</ele><time>2026-05-02T08:43:00Z</time></trkpt><trkpt lat="43.38842817424189" lon="-4.403965868169642"><ele>26.599999999999998</ele><time>2026-05-02T08:43:01Z</time></trkpt><trkpt lat="43.38842673951785" lon="-4.403816954728568"><ele>25.4</ele><time>2026-05-02T08:43:02Z</time></trkpt><trkpt lat="43.38841766655016" lon="-4.403675026329063"><ele>24.2</ele><time>2026-05-02T08:43:03Z</time></trkpt><trkpt lat="43.38839891864089" lon="-4.403530711351073"><ele>23.0</ele><time>2026-05-02T08:43:04Z</time></trkpt><trkpt lat="43.38837580906683" lon="-4.40338998572223"><ele>23.0</ele><time>2026-05-02T08:43:05Z</time></trkpt><trkpt lat="43.388328019655944" lon="-4.403259278542149"><ele>23.0</ele><time>2026-05-02T08:43:06Z</time></trkpt><trkpt lat="43.388290604789695" lon="-4.4031262639003605"><ele>23.0</ele><time>2026-05-02T08:43:07Z</time></trkpt><trkpt lat="43.38826150915853" lon="-4.40298751604122"><ele>23.0</ele><time>2026-05-02T08:43:08Z</time></trkpt><trkpt lat="43.38820875435392" lon="-4.402861757473898"><ele>23.0</ele><time>2026-05-02T08:43:09Z</time></trkpt><trkpt lat="43.38815142265306" lon="-4.402740653777127"><ele>23.4</ele><time>2026-05-02T08:43:10Z</time></trkpt><trkpt lat="43.38809046926151" lon="-4.402620893647629"><ele>23.799999999999997</ele><time>2026-05-02T08:43:11Z</time></trkpt><trkpt lat="43.388028195761194" lon="-4.402503174856012"><ele>24.2</ele><time>2026-05-02T08:43:12Z</time></trkpt><trkpt lat="43.38796731435039" lon="-4.40238428180098"><ele>24.6</ele><time>2026-05-02T08:43:13Z</time></trkpt><trkpt lat="43.38790879327734" lon="-4.402267745137175"><ele>25.0</ele><time>2026-05-02T08:43:14Z</time></trkpt><trkpt lat="43.3878415402311" lon="-4.402162784516687"><ele>22.4</ele><time>2026-05-02T08:43:15Z</time></trkpt><trkpt lat="43.387787419558585" lon="-4.402039430678391"><ele>19.8</ele><time>2026-05-02T08:43:16Z</time></trkpt><trkpt lat="43.38773057104265" lon="-4.401931710101996"><ele>17.2</ele><time>2026-05-02T08:43:17Z</time></trkpt><trkpt lat="43.38767605231287" lon="-4.4018300504501795"><ele>14.6</ele><time>2026-05-02T08:43:18Z</time></trkpt><trkpt lat="43.38762592956245" lon="-4.401726856771376"><ele>12.0</ele><time>2026-05-02T08:43:19.001Z</time></trkpt><trkpt lat="43.38757727699211" lon="-4.401620041043868"><ele>12.0</ele><time>2026-05-02T08:43:20.001Z</time></trkpt><trkpt lat="43.38752794478407" lon="-4.401507120756127"><ele>12.0</ele><time>2026-05-02T08:43:21.001Z</time></trkpt><trkpt lat="43.387481339405504" lon="-4.401390240453292"><ele>12.0</ele><time>2026-05-02T08:43:22.001Z</time></trkpt><trkpt lat="43.38744069320798" lon="-4.401272960805355"><ele>12.0</ele><time>2026-05-02T08:43:23.001Z</time></trkpt><trkpt lat="43.387409547069566" lon="-4.401152832138606"><ele>12.0</ele><time>2026-05-02T08:43:24.001Z</time></trkpt><trkpt lat="43.38738235156656" lon="-4.401027700517379"><ele>12.0</ele><time>2026-05-02T08:43:25.001Z</time></trkpt><trkpt lat="43.38735748458947" lon="-4.400896744420179"><ele>12.0</ele><time>2026-05-02T08:43:26.001Z</time></trkpt><trkpt lat="43.38733894078997" lon="-4.40076233162328"><ele>12.0</ele><time>2026-05-02T08:43:27.001Z</time></trkpt><trkpt lat="43.387324941270975" lon="-4.400624945198387"><ele>12.0</ele><time>2026-05-02T08:43:28.001Z</time></trkpt><trkpt lat="43.3873190124886" lon="-4.40049218485901"><ele>12.0</ele><time>2026-05-02T08:43:29.001Z</time></trkpt><trkpt lat="43.38731726345094" lon="-4.400359451692092"><ele>12.166666666666666</ele><time>2026-05-02T08:43:30.001Z</time></trkpt><trkpt lat="43.38731956688217" lon="-4.400232515134477"><ele>12.333333333333332</ele><time>2026-05-02T08:43:31.001Z</time></trkpt><trkpt lat="43.38732082627822" lon="-4.400105606295339"><ele>12.5</ele><time>2026-05-02T08:43:32.001Z</time></trkpt><trkpt lat="43.38732305974873" lon="-4.399984849423128"><ele>12.666666666666666</ele><time>2026-05-02T08:43:33.001Z</time></trkpt><trkpt lat="43.387327308917136" lon="-4.399866546719784"><ele>12.833333333333332</ele><time>2026-05-02T08:43:34.001Z</time></trkpt><trkpt lat="43.3873274834371" lon="-4.399752415135992"><ele>13.0</ele><time>2026-05-02T08:43:35.001Z</time></trkpt><trkpt lat="43.38732605722773" lon="-4.3996359385676165"><ele>12.499999999999998</ele><time>2026-05-02T08:43:36.001Z</time></trkpt><trkpt lat="43.387323965654645" lon="-4.3995250453644985"><ele>12.0</ele><time>2026-05-02T08:43:37.001Z</time></trkpt><trkpt lat="43.387314053532656" lon="-4.3994171787163046"><ele>11.5</ele><time>2026-05-02T08:43:38.001Z</time></trkpt><trkpt lat="43.38729773014934" lon="-4.399307552779881"><ele>11.0</ele><time>2026-05-02T08:43:39.001Z</time></trkpt><trkpt lat="43.38727341597969" lon="-4.399200407212918"><ele>10.5</ele><time>2026-05-02T08:43:40.001Z</time></trkpt><trkpt lat="43.38724542763652" lon="-4.399094917785782"><ele>10.0</ele><time>2026-05-02T08:43:41.001Z</time></trkpt><trkpt lat="43.387231074882465" lon="-4.398988625541513"><ele>8.5</ele><time>2026-05-02T08:43:42.001Z</time></trkpt><trkpt lat="43.38716368966789" lon="-4.39889720246811"><ele>7.0</ele><time>2026-05-02T08:43:43.001Z</time></trkpt><trkpt lat="43.3871038491699" lon="-4.398816483944076"><ele>5.5</ele><time>2026-05-02T08:43:44.001Z</time></trkpt><trkpt lat="43.38703601559597" lon="-4.398746433429808"><ele>4.0</ele><time>2026-05-02T08:43:45.001Z</time></trkpt><trkpt lat="43.38696139241902" lon="-4.398692635132919"><ele>2.5</ele><time>2026-05-02T08:43:46.001Z</time></trkpt><trkpt lat="43.386887542266656" lon="-4.398638657585345"><ele>1.0</ele><time>2026-05-02T08:43:47.001Z</time></trkpt><trkpt lat="43.386808068015185" lon="-4.398590403802149"><ele>0.6666666666666666</ele><time>2026-05-02T08:43:48.001Z</time></trkpt><trkpt lat="43.38672631039854" lon="-4.398550097166175"><ele>0.3333333333333333</ele><time>2026-05-02T08:43:49.001Z</time></trkpt><trkpt lat="43.38664543514395" lon="-4.398506026132268"><ele>0.0</ele><time>2026-05-02T08:43:50.001Z</time></trkpt><trkpt lat="43.38656281020115" lon="-4.398456212021534"><ele>-0.3333333333333333</ele><time>2026-05-02T08:43:51.001Z</time></trkpt><trkpt lat="43.386478518631016" lon="-4.398403530752475"><ele>-0.6666666666666666</ele><time>2026-05-02T08:43:52.001Z</time></trkpt><trkpt lat="43.38639440098662" lon="-4.398354660218446"><ele>-1.0</ele><time>2026-05-02T08:43:53.001Z</time></trkpt><trkpt lat="43.3863065581919" lon="-4.398308024904616"><ele>1.1102230246251565E-16</ele><time>2026-05-02T08:43:54.001Z</time></trkpt><trkpt lat="43.386219967517036" lon="-4.398256113513988"><ele>1.0</ele><time>2026-05-02T08:43:55.001Z</time></trkpt><trkpt lat="43.38613458711431" lon="-4.398206440599713"><ele>2.0</ele><time>2026-05-02T08:43:56.001Z</time></trkpt><trkpt lat="43.386051959775365" lon="-4.398156948705968"><ele>3.0</ele><time>2026-05-02T08:43:57.001Z</time></trkpt><trkpt lat="43.38597275052884" lon="-4.398110544085791"><ele>4.0</ele><time>2026-05-02T08:43:58.001Z</time></trkpt><trkpt lat="43.38589719133383" lon="-4.398066782180684"><ele>5.0</ele><time>2026-05-02T08:43:59.001Z</time></trkpt><trkpt lat="43.38581523523803" lon="-4.398031704773463"><ele>5.0</ele><time>2026-05-02T08:44:00.001Z</time></trkpt><trkpt lat="43.385733363960064" lon="-4.398017291319732"><ele>5.0</ele><time>2026-05-02T08:44:01.001Z</time></trkpt><trkpt lat="43.385653058606025" lon="-4.398029984585897"><ele>5.0</ele><time>2026-05-02T08:44:02.001Z</time></trkpt><trkpt lat="43.38557821859254" lon="-4.398073705928028"><ele>5.0</ele><time>2026-05-02T08:44:03.001Z</time></trkpt><trkpt lat="43.38553019544008" lon="-4.39816127746622"><ele>5.0</ele><time>2026-05-02T08:44:04.001Z</time></trkpt><trkpt lat="43.38546852467436" lon="-4.398215347884283"><ele>5.0</ele><time>2026-05-02T08:44:05.001Z</time></trkpt><trkpt lat="43.38542078909315" lon="-4.3982882008576505"><ele>5.0</ele><time>2026-05-02T08:44:06.001Z</time></trkpt><trkpt lat="43.38534540453489" lon="-4.398414020004187"><ele>5.0</ele><time>2026-05-02T08:44:08.001Z</time></trkpt><trkpt lat="43.385275265545786" lon="-4.398518344401853"><ele>5.0</ele><time>2026-05-02T08:44:10.001Z</time></trkpt><trkpt lat="43.385199659468896" lon="-4.39862542446149"><ele>5.0</ele><time>2026-05-02T08:44:12.001Z</time></trkpt><trkpt lat="43.385125933856585" lon="-4.398736160314869"><ele>5.0</ele><time>2026-05-02T08:44:14.001Z</time></trkpt><trkpt lat="43.38505380421461" lon="-4.398846464531047"><ele>6.0</ele><time>2026-05-02T08:44:16.001Z</time></trkpt><trkpt lat="43.38498764492074" lon="-4.398952273617872"><ele>7.0</ele><time>2026-05-02T08:44:18.001Z</time></trkpt><trkpt lat="43.38491564751367" lon="-4.399055406352619"><ele>8.0</ele><time>2026-05-02T08:44:20Z</time></trkpt><trkpt lat="43.38484151557204" lon="-4.399158695542658"><ele>9.0</ele><time>2026-05-02T08:44:22Z</time></trkpt><trkpt lat="43.384785006227396" lon="-4.399253646543905"><ele>10.0</ele><time>2026-05-02T08:44:24Z</time></trkpt><trkpt lat="43.38472705770588" lon="-4.3993410749085"><ele>8.833333333333334</ele><time>2026-05-02T08:44:26Z</time></trkpt><trkpt lat="43.38466447681974" lon="-4.399423467376336"><ele>7.666666666666667</ele><time>2026-05-02T08:44:28Z</time></trkpt><trkpt lat="43.38460253398925" lon="-4.399517938806004"><ele>6.5</ele><time>2026-05-02T08:44:30Z</time></trkpt><trkpt lat="43.384512123091866" lon="-4.399596234786363"><ele>5.333333333333334</ele><time>2026-05-02T08:44:32Z</time></trkpt><trkpt lat="43.38443766339179" lon="-4.399580255470767"><ele>4.166666666666667</ele><time>2026-05-02T08:44:33Z</time></trkpt><trkpt lat="43.38437283875304" lon="-4.399573976825824"><ele>3.0</ele><time>2026-05-02T08:44:34Z</time></trkpt><trkpt lat="43.384309665423544" lon="-4.399547360822136"><ele>3.0</ele><time>2026-05-02T08:44:35Z</time></trkpt><trkpt lat="43.384247981627745" lon="-4.399504406941357"><ele>3.0</ele><time>2026-05-02T08:44:36Z</time></trkpt><trkpt lat="43.3841571561894" lon="-4.399431703703725"><ele>3.0</ele><time>2026-05-02T08:44:38Z</time></trkpt><trkpt lat="43.38409474843106" lon="-4.3993523419583225"><ele>3.0</ele><time>2026-05-02T08:44:40Z</time></trkpt><trkpt lat="43.38400245453155" lon="-4.399294116109153"><ele>3.0</ele><time>2026-05-02T08:44:42Z</time></trkpt><trkpt lat="43.383897031707974" lon="-4.39919363771794"><ele>3.3333333333333335</ele><time>2026-05-02T08:44:44Z</time></trkpt><trkpt lat="43.38383527362092" lon="-4.399141807394107"><ele>3.666666666666667</ele><time>2026-05-02T08:44:45Z</time></trkpt><trkpt lat="43.38376998844162" lon="-4.399089995386235"><ele>4.0</ele><time>2026-05-02T08:44:46Z</time></trkpt><trkpt lat="43.38370217166774" lon="-4.399030130948899"><ele>4.333333333333334</ele><time>2026-05-02T08:44:47Z</time></trkpt><trkpt lat="43.38362820125949" lon="-4.398963313072668"><ele>4.666666666666667</ele><time>2026-05-02T08:44:48Z</time></trkpt><trkpt lat="43.383556683102526" lon="-4.398897070617268"><ele>5.0</ele><time>2026-05-02T08:44:49Z</time></trkpt><trkpt lat="43.38348292135237" lon="-4.398828410350986"><ele>5.0</ele><time>2026-05-02T08:44:50Z</time></trkpt><trkpt lat="43.38340940106625" lon="-4.398762836584961"><ele>5.0</ele><time>2026-05-02T08:44:51Z</time></trkpt><trkpt lat="43.38333144748165" lon="-4.3987010812647345"><ele>5.0</ele><time>2026-05-02T08:44:52Z</time></trkpt><trkpt lat="43.38325316954117" lon="-4.3986311935818465"><ele>5.0</ele><time>2026-05-02T08:44:53Z</time></trkpt><trkpt lat="43.38317236145956" lon="-4.398565233198337"><ele>5.0</ele><time>2026-05-02T08:44:54Z</time></trkpt><trkpt lat="43.38309224897386" lon="-4.398494802424713"><ele>5.2</ele><time>2026-05-02T08:44:55Z</time></trkpt><trkpt lat="43.383005606276946" lon="-4.398431428344515"><ele>5.4</ele><time>2026-05-02T08:44:56Z</time></trkpt><trkpt lat="43.38292433656826" lon="-4.3983650620011385"><ele>5.6</ele><time>2026-05-02T08:44:57Z</time></trkpt><trkpt lat="43.382844932733974" lon="-4.398295402579719"><ele>5.8</ele><time>2026-05-02T08:44:58Z</time></trkpt><trkpt lat="43.38276250310872" lon="-4.3982239382468205"><ele>6.0</ele><time>2026-05-02T08:44:59Z</time></trkpt><trkpt lat="43.38268002754917" lon="-4.398160550671757"><ele>6.0</ele><time>2026-05-02T08:45:00Z</time></trkpt><trkpt lat="43.382599708736905" lon="-4.398092794886996"><ele>6.0</ele><time>2026-05-02T08:45:01Z</time></trkpt><trkpt lat="43.38252121849654" lon="-4.398025263284999"><ele>6.0</ele><time>2026-05-02T08:45:02Z</time></trkpt><trkpt lat="43.382442888399616" lon="-4.397958905683298"><ele>6.0</ele><time>2026-05-02T08:45:03Z</time></trkpt><trkpt lat="43.382364036205765" lon="-4.397895675795262"><ele>6.0</ele><time>2026-05-02T08:45:04Z</time></trkpt><trkpt lat="43.38228313272876" lon="-4.397831739435728"><ele>6.0</ele><time>2026-05-02T08:45:05Z</time></trkpt><trkpt lat="43.3822024277647" lon="-4.397768689078015"><ele>6.0</ele><time>2026-05-02T08:45:06Z</time></trkpt><trkpt lat="43.382123247981866" lon="-4.3977033424044265"><ele>6.0</ele><time>2026-05-02T08:45:07Z</time></trkpt><trkpt lat="43.382042311806046" lon="-4.3976362742893125"><ele>6.0</ele><time>2026-05-02T08:45:08Z</time></trkpt><trkpt lat="43.38196178954077" lon="-4.397571680753614"><ele>6.0</ele><time>2026-05-02T08:45:09Z</time></trkpt><trkpt lat="43.38188143524572" lon="-4.397502074179559"><ele>6.0</ele><time>2026-05-02T08:45:10Z</time></trkpt><trkpt lat="43.38180050409483" lon="-4.397436633780883"><ele>6.0</ele><time>2026-05-02T08:45:11Z</time></trkpt><trkpt lat="43.38172208631057" lon="-4.397371112706178"><ele>6.0</ele><time>2026-05-02T08:45:12Z</time></trkpt><trkpt lat="43.381647141194584" lon="-4.39730550830156"><ele>6.0</ele><time>2026-05-02T08:45:13Z</time></trkpt><trkpt lat="43.381577785569824" lon="-4.3972472600519925"><ele>6.0</ele><time>2026-05-02T08:45:14Z</time></trkpt><trkpt lat="43.38151135020072" lon="-4.397199913859635"><ele>6.0</ele><time>2026-05-02T08:45:15Z</time></trkpt><trkpt lat="43.38139288762117" lon="-4.397182618797259"><ele>7.0</ele><time>2026-05-02T08:45:17Z</time></trkpt><trkpt lat="43.38126772019512" lon="-4.397172353538774"><ele>8.0</ele><time>2026-05-02T08:45:19Z</time></trkpt><trkpt lat="43.38117436853263" lon="-4.39710346702197"><ele>9.0</ele><time>2026-05-02T08:45:21Z</time></trkpt><trkpt lat="43.38119247659663" lon="-4.396943112916465"><ele>10.0</ele><time>2026-05-02T08:45:23Z</time></trkpt><trkpt lat="43.3812393082423" lon="-4.396875555725753"><ele>11.0</ele><time>2026-05-02T08:45:24Z</time></trkpt><trkpt lat="43.38131607088606" lon="-4.396845204485348"><ele>9.333333333333332</ele><time>2026-05-02T08:45:25.001Z</time></trkpt><trkpt lat="43.38137229725893" lon="-4.396764708879757"><ele>7.666666666666666</ele><time>2026-05-02T08:45:26.001Z</time></trkpt><trkpt lat="43.38137495455" lon="-4.396625112732823"><ele>6.0</ele><time>2026-05-02T08:45:27.001Z</time></trkpt><trkpt lat="43.381382576842654" lon="-4.396509019562013"><ele>4.333333333333333</ele><time>2026-05-02T08:45:28.001Z</time></trkpt><trkpt lat="43.38138921381464" lon="-4.396395475030803"><ele>2.6666666666666665</ele><time>2026-05-02T08:45:29.001Z</time></trkpt><trkpt lat="43.38139999913634" lon="-4.396279547453542"><ele>1.0</ele><time>2026-05-02T08:45:30.001Z</time></trkpt><trkpt lat="43.38140956656907" lon="-4.396160949316118"><ele>0.4</ele><time>2026-05-02T08:45:31.001Z</time></trkpt><trkpt lat="43.381420523504545" lon="-4.396039607119722"><ele>-0.19999999999999996</ele><time>2026-05-02T08:45:32.001Z</time></trkpt><trkpt lat="43.3814351560026" lon="-4.395921694710527"><ele>-0.8000000000000002</ele><time>2026-05-02T08:45:33.001Z</time></trkpt><trkpt lat="43.38145212964876" lon="-4.395797152161386"><ele>-1.4000000000000001</ele><time>2026-05-02T08:45:34.001Z</time></trkpt><trkpt lat="43.381467818687106" lon="-4.395675205548862"><ele>-2.0</ele><time>2026-05-02T08:45:35.001Z</time></trkpt><trkpt lat="43.38148439295468" lon="-4.395546610052138"><ele>-2.0</ele><time>2026-05-02T08:45:36.001Z</time></trkpt><trkpt lat="43.381497159703734" lon="-4.395418542754577"><ele>-2.0</ele><time>2026-05-02T08:45:37.001Z</time></trkpt><trkpt lat="43.381511778053934" lon="-4.395292349651901"><ele>-2.0</ele><time>2026-05-02T08:45:38.001Z</time></trkpt><trkpt lat="43.381521566882405" lon="-4.395160845036315"><ele>-2.0</ele><time>2026-05-02T08:45:39.001Z</time></trkpt><trkpt lat="43.381540369023185" lon="-4.3950330282610715"><ele>-2.0</ele><time>2026-05-02T08:45:40.001Z</time></trkpt><trkpt lat="43.381559479162966" lon="-4.394903271504131"><ele>-2.0</ele><time>2026-05-02T08:45:41.001Z</time></trkpt><trkpt lat="43.38157894284108" lon="-4.394773624858434"><ele>-2.0</ele><time>2026-05-02T08:45:42.001Z</time></trkpt><trkpt lat="43.38159776581856" lon="-4.394645179171825"><ele>-2.0</ele><time>2026-05-02T08:45:43.001Z</time></trkpt><trkpt lat="43.38161626052484" lon="-4.394512745356376"><ele>-2.0</ele><time>2026-05-02T08:45:44.001Z</time></trkpt><trkpt lat="43.381633967480184" lon="-4.394382408716648"><ele>-2.0</ele><time>2026-05-02T08:45:45.001Z</time></trkpt><trkpt lat="43.38165378941544" lon="-4.394252033872688"><ele>-2.0</ele><time>2026-05-02T08:45:46.001Z</time></trkpt><trkpt lat="43.381672520575" lon="-4.394122460843393"><ele>-2.0</ele><time>2026-05-02T08:45:47.001Z</time></trkpt><trkpt lat="43.38168819375399" lon="-4.39399252714993"><ele>-2.0</ele><time>2026-05-02T08:45:48.001Z</time></trkpt><trkpt lat="43.38170582918042" lon="-4.393861208550672"><ele>-2.0</ele><time>2026-05-02T08:45:49.001Z</time></trkpt><trkpt lat="43.38172262798599" lon="-4.393729219610251"><ele>-2.0</ele><time>2026-05-02T08:45:50.001Z</time></trkpt><trkpt lat="43.38174069961083" lon="-4.393597827136192"><ele>-2.0</ele><time>2026-05-02T08:45:51.001Z</time></trkpt><trkpt lat="43.38176113564293" lon="-4.393463605752369"><ele>-2.0</ele><time>2026-05-02T08:45:52.001Z</time></trkpt><trkpt lat="43.38177962484181" lon="-4.393331315136753"><ele>-2.0</ele><time>2026-05-02T08:45:53.001Z</time></trkpt><trkpt lat="43.38179835813338" lon="-4.39319651823196"><ele>-2.0</ele><time>2026-05-02T08:45:54.001Z</time></trkpt><trkpt lat="43.38181794973866" lon="-4.393064406104586"><ele>-2.0</ele><time>2026-05-02T08:45:55.001Z</time></trkpt><trkpt lat="43.381837864791194" lon="-4.392932278962851"><ele>-1.8</ele><time>2026-05-02T08:45:56.001Z</time></trkpt><trkpt lat="43.38185753013656" lon="-4.392799697419698"><ele>-1.6</ele><time>2026-05-02T08:45:57.001Z</time></trkpt><trkpt lat="43.38187367743776" lon="-4.392664294136634"><ele>-1.4000000000000001</ele><time>2026-05-02T08:45:58.001Z</time></trkpt><trkpt lat="43.38189048373123" lon="-4.39252761576476"><ele>-1.2000000000000002</ele><time>2026-05-02T08:45:59.001Z</time></trkpt><trkpt lat="43.381911518293926" lon="-4.3923924962411425"><ele>-1.0</ele><time>2026-05-02T08:46:00.001Z</time></trkpt><trkpt lat="43.381928652332235" lon="-4.392257104256138"><ele>-0.8</ele><time>2026-05-02T08:46:01.001Z</time></trkpt><trkpt lat="43.38194402783881" lon="-4.3921231367572116"><ele>-0.6000000000000001</ele><time>2026-05-02T08:46:02.001Z</time></trkpt><trkpt lat="43.38196272205824" lon="-4.3919902683188985"><ele>-0.4</ele><time>2026-05-02T08:46:03.001Z</time></trkpt><trkpt lat="43.38198250204095" lon="-4.3918541551437364"><ele>-0.2</ele><time>2026-05-02T08:46:04.001Z</time></trkpt><trkpt lat="43.38200292996898" lon="-4.391720204679569"><ele>0.0</ele><time>2026-05-02T08:46:05.001Z</time></trkpt><trkpt lat="43.38201992938874" lon="-4.391586633046997"><ele>0.0</ele><time>2026-05-02T08:46:06.001Z</time></trkpt><trkpt lat="43.38203737907766" lon="-4.39145238801517"><ele>0.0</ele><time>2026-05-02T08:46:07.001Z</time></trkpt><trkpt lat="43.382053870569166" lon="-4.3913173838741715"><ele>0.0</ele><time>2026-05-02T08:46:08.001Z</time></trkpt><trkpt lat="43.38207497743817" lon="-4.3911840039499275"><ele>0.0</ele><time>2026-05-02T08:46:09.001Z</time></trkpt><trkpt lat="43.38209713567716" lon="-4.391051621259238"><ele>0.0</ele><time>2026-05-02T08:46:10.001Z</time></trkpt><trkpt lat="43.38212178650545" lon="-4.3909203069563585"><ele>0.0</ele><time>2026-05-02T08:46:11.001Z</time></trkpt><trkpt lat="43.38214813417149" lon="-4.390788525256132"><ele>0.0</ele><time>2026-05-02T08:46:12.001Z</time></trkpt><trkpt lat="43.382179268635106" lon="-4.390657167931477"><ele>0.0</ele><time>2026-05-02T08:46:13.001Z</time></trkpt><trkpt lat="43.38221578141836" lon="-4.390527232272198"><ele>0.0</ele><time>2026-05-02T08:46:14.001Z</time></trkpt><trkpt lat="43.382256454868845" lon="-4.39039666554466"><ele>0.0</ele><time>2026-05-02T08:46:15.001Z</time></trkpt><trkpt lat="43.38229667425375" lon="-4.390273785130582"><ele>0.0</ele><time>2026-05-02T08:46:16.001Z</time></trkpt><trkpt lat="43.38234299771873" lon="-4.390153015531571"><ele>0.0</ele><time>2026-05-02T08:46:17.001Z</time></trkpt><trkpt lat="43.382390141836325" lon="-4.390037151907163"><ele>0.0</ele><time>2026-05-02T08:46:18.001Z</time></trkpt><trkpt lat="43.38243722023409" lon="-4.389914736900678"><ele>0.0</ele><time>2026-05-02T08:46:19.001Z</time></trkpt><trkpt lat="43.38247776165148" lon="-4.389789416639889"><ele>0.0</ele><time>2026-05-02T08:46:20.001Z</time></trkpt><trkpt lat="43.38251606390864" lon="-4.389664472515808"><ele>0.5</ele><time>2026-05-02T08:46:21.001Z</time></trkpt><trkpt lat="43.382592141071164" lon="-4.389405931034806"><ele>1.0</ele><time>2026-05-02T08:46:23.001Z</time></trkpt><trkpt lat="43.38262474233243" lon="-4.389272061481573"><ele>1.5</ele><time>2026-05-02T08:46:24.001Z</time></trkpt><trkpt lat="43.38265632365049" lon="-4.389140602173088"><ele>2.0</ele><time>2026-05-02T08:46:25Z</time></trkpt><trkpt lat="43.382693931231614" lon="-4.389013010325281"><ele>2.0</ele><time>2026-05-02T08:46:26Z</time></trkpt><trkpt lat="43.382730012199154" lon="-4.388884573464846"><ele>2.0</ele><time>2026-05-02T08:46:27Z</time></trkpt><trkpt lat="43.38276703459225" lon="-4.388755595775039"><ele>2.0</ele><time>2026-05-02T08:46:28Z</time></trkpt><trkpt lat="43.38280602987169" lon="-4.388625293093433"><ele>2.0</ele><time>2026-05-02T08:46:29Z</time></trkpt><trkpt lat="43.382847246254684" lon="-4.388494936782962"><ele>2.0</ele><time>2026-05-02T08:46:30Z</time></trkpt><trkpt lat="43.3828884518381" lon="-4.388363564957348"><ele>2.0</ele><time>2026-05-02T08:46:31Z</time></trkpt><trkpt lat="43.38292831715257" lon="-4.388234622964755"><ele>2.0</ele><time>2026-05-02T08:46:32Z</time></trkpt><trkpt lat="43.38296725237905" lon="-4.388103876339681"><ele>2.0</ele><time>2026-05-02T08:46:33Z</time></trkpt><trkpt lat="43.38300550023918" lon="-4.387977993838988"><ele>2.0</ele><time>2026-05-02T08:46:34Z</time></trkpt><trkpt lat="43.383044440380324" lon="-4.387849441223791"><ele>2.0</ele><time>2026-05-02T08:46:35Z</time></trkpt><trkpt lat="43.38308297847877" lon="-4.3877199782763885"><ele>4.2</ele><time>2026-05-02T08:46:36Z</time></trkpt><trkpt lat="43.38312506516512" lon="-4.387592712991842"><ele>6.4</ele><time>2026-05-02T08:46:37Z</time></trkpt><trkpt lat="43.38316891021637" lon="-4.387466064214245"><ele>8.600000000000001</ele><time>2026-05-02T08:46:38Z</time></trkpt><trkpt lat="43.38321197047009" lon="-4.387340372989086"><ele>10.8</ele><time>2026-05-02T08:46:39Z</time></trkpt><trkpt lat="43.38325250331717" lon="-4.387217564761748"><ele>13.0</ele><time>2026-05-02T08:46:40Z</time></trkpt><trkpt lat="43.38329276853877" lon="-4.387090911213489"><ele>13.0</ele><time>2026-05-02T08:46:41Z</time></trkpt><trkpt lat="43.38333441435876" lon="-4.386964353392127"><ele>13.0</ele><time>2026-05-02T08:46:42Z</time></trkpt><trkpt lat="43.38337482902028" lon="-4.386842503756157"><ele>13.0</ele><time>2026-05-02T08:46:43Z</time></trkpt><trkpt lat="43.383414750322025" lon="-4.386716948451695"><ele>13.0</ele><time>2026-05-02T08:46:44Z</time></trkpt><trkpt lat="43.38344912999974" lon="-4.386587078672957"><ele>13.0</ele><time>2026-05-02T08:46:45Z</time></trkpt><trkpt lat="43.38347609886827" lon="-4.386455519105475"><ele>13.8</ele><time>2026-05-02T08:46:46Z</time></trkpt><trkpt lat="43.38347049021414" lon="-4.386320501484462"><ele>14.600000000000001</ele><time>2026-05-02T08:46:47Z</time></trkpt><trkpt lat="43.38346366500591" lon="-4.386184418699148"><ele>15.399999999999999</ele><time>2026-05-02T08:46:48Z</time></trkpt><trkpt lat="43.383444827008255" lon="-4.386054306421441"><ele>16.2</ele><time>2026-05-02T08:46:49Z</time></trkpt><trkpt lat="43.38341240813384" lon="-4.3859343338771195"><ele>17.0</ele><time>2026-05-02T08:46:50Z</time></trkpt><trkpt lat="43.38337927764068" lon="-4.385815123184995"><ele>17.0</ele><time>2026-05-02T08:46:51Z</time></trkpt><trkpt lat="43.383343913440946" lon="-4.385698811182419"><ele>17.0</ele><time>2026-05-02T08:46:52Z</time></trkpt><trkpt lat="43.38331953248324" lon="-4.385576883845248"><ele>17.0</ele><time>2026-05-02T08:46:53Z</time></trkpt><trkpt lat="43.383282699538746" lon="-4.385468016284942"><ele>17.0</ele><time>2026-05-02T08:46:54Z</time></trkpt><trkpt lat="43.38324677713161" lon="-4.385356518001134"><ele>17.0</ele><time>2026-05-02T08:46:55Z</time></trkpt><trkpt lat="43.38321305710826" lon="-4.385244727402085"><ele>17.0</ele><time>2026-05-02T08:46:56Z</time></trkpt><trkpt lat="43.38318888211779" lon="-4.385133244657466"><ele>17.666666666666668</ele><time>2026-05-02T08:46:57Z</time></trkpt><trkpt lat="43.38317264192753" lon="-4.385016222231992"><ele>18.333333333333336</ele><time>2026-05-02T08:46:58Z</time></trkpt><trkpt lat="43.38316067465076" lon="-4.3849005340656975"><ele>19.0</ele><time>2026-05-02T08:46:59Z</time></trkpt><trkpt lat="43.383160011730794" lon="-4.384785598608587"><ele>19.666666666666668</ele><time>2026-05-02T08:47:00Z</time></trkpt><trkpt lat="43.3831630864177" lon="-4.38466303364072"><ele>20.333333333333332</ele><time>2026-05-02T08:47:01Z</time></trkpt><trkpt lat="43.383172464784266" lon="-4.38454420449062"><ele>21.0</ele><time>2026-05-02T08:47:02Z</time></trkpt><trkpt lat="43.383194246941095" lon="-4.384428001892554"><ele>22.0</ele><time>2026-05-02T08:47:03Z</time></trkpt><trkpt lat="43.38321541619146" lon="-4.384310737188425"><ele>23.0</ele><time>2026-05-02T08:47:04Z</time></trkpt><trkpt lat="43.383244131793155" lon="-4.384193288345971"><ele>24.0</ele><time>2026-05-02T08:47:05Z</time></trkpt><trkpt lat="43.383273709157976" lon="-4.384076300378796"><ele>25.0</ele><time>2026-05-02T08:47:06Z</time></trkpt><trkpt lat="43.38330662960015" lon="-4.383957572279576"><ele>26.0</ele><time>2026-05-02T08:47:07Z</time></trkpt><trkpt lat="43.38333500460845" lon="-4.383834559229223"><ele>26.6</ele><time>2026-05-02T08:47:08Z</time></trkpt><trkpt lat="43.383360347591385" lon="-4.383711603572508"><ele>27.200000000000003</ele><time>2026-05-02T08:47:09Z</time></trkpt><trkpt lat="43.38337718224768" lon="-4.383583027417667"><ele>27.799999999999997</ele><time>2026-05-02T08:47:10Z</time></trkpt><trkpt lat="43.38338158826294" lon="-4.383451287575141"><ele>28.4</ele><time>2026-05-02T08:47:11Z</time></trkpt><trkpt lat="43.38336946671276" lon="-4.383321600770036"><ele>29.0</ele><time>2026-05-02T08:47:12Z</time></trkpt><trkpt lat="43.38334140261782" lon="-4.383195377192358"><ele>29.0</ele><time>2026-05-02T08:47:13Z</time></trkpt><trkpt lat="43.38329877274814" lon="-4.3830741650314335"><ele>29.0</ele><time>2026-05-02T08:47:14Z</time></trkpt><trkpt lat="43.383245550849885" lon="-4.3829595468015565"><ele>29.0</ele><time>2026-05-02T08:47:15Z</time></trkpt><trkpt lat="43.38318607481428" lon="-4.38285432236856"><ele>29.0</ele><time>2026-05-02T08:47:16Z</time></trkpt><trkpt lat="43.383117415377164" lon="-4.382762981659199"><ele>29.0</ele><time>2026-05-02T08:47:17Z</time></trkpt><trkpt lat="43.38303788355986" lon="-4.382685217174012"><ele>29.799999999999997</ele><time>2026-05-02T08:47:18Z</time></trkpt><trkpt lat="43.3829497510744" lon="-4.3826307853472155"><ele>30.599999999999998</ele><time>2026-05-02T08:47:19Z</time></trkpt><trkpt lat="43.382856555856776" lon="-4.382589084039352"><ele>31.4</ele><time>2026-05-02T08:47:20Z</time></trkpt><trkpt lat="43.38276484316812" lon="-4.3825518407237185"><ele>32.199999999999996</ele><time>2026-05-02T08:47:21Z</time></trkpt><trkpt lat="43.3826759160683" lon="-4.382514385452047"><ele>33.0</ele><time>2026-05-02T08:47:22Z</time></trkpt><trkpt lat="43.38259256331637" lon="-4.38246973043736"><ele>33.0</ele><time>2026-05-02T08:47:23Z</time></trkpt><trkpt lat="43.38250989716492" lon="-4.38242374375082"><ele>33.0</ele><time>2026-05-02T08:47:24Z</time></trkpt><trkpt lat="43.38243097731262" lon="-4.382367818607126"><ele>33.0</ele><time>2026-05-02T08:47:25Z</time></trkpt><trkpt lat="43.382359620891265" lon="-4.382296734474458"><ele>33.0</ele><time>2026-05-02T08:47:26Z</time></trkpt><trkpt lat="43.38229494161626" lon="-4.382210695368992"><ele>33.0</ele><time>2026-05-02T08:47:27.001Z</time></trkpt><trkpt lat="43.38223495667539" lon="-4.382120645877202"><ele>33.0</ele><time>2026-05-02T08:47:28.001Z</time></trkpt><trkpt lat="43.38218081592137" lon="-4.382021893384781"><ele>34.599999999999994</ele><time>2026-05-02T08:47:29.001Z</time></trkpt><trkpt lat="43.38213041263567" lon="-4.381919619618736"><ele>36.199999999999996</ele><time>2026-05-02T08:47:30.001Z</time></trkpt><trkpt lat="43.382082143963544" lon="-4.381808302218219"><ele>37.8</ele><time>2026-05-02T08:47:31.001Z</time></trkpt><trkpt lat="43.38203689652757" lon="-4.381697052531734"><ele>39.4</ele><time>2026-05-02T08:47:32.001Z</time></trkpt><trkpt lat="43.381993296645426" lon="-4.381584559387616"><ele>41.0</ele><time>2026-05-02T08:47:33.001Z</time></trkpt><trkpt lat="43.38193461600407" lon="-4.381477517568482"><ele>41.0</ele><time>2026-05-02T08:47:34.001Z</time></trkpt><trkpt lat="43.38187054792383" lon="-4.381380967250334"><ele>41.0</ele><time>2026-05-02T08:47:35.001Z</time></trkpt><trkpt lat="43.381796906912506" lon="-4.381292701627197"><ele>41.0</ele><time>2026-05-02T08:47:36.001Z</time></trkpt><trkpt lat="43.38171341154631" lon="-4.381215120237717"><ele>41.0</ele><time>2026-05-02T08:47:37.001Z</time></trkpt><trkpt lat="43.38162720036496" lon="-4.381149018599733"><ele>41.0</ele><time>2026-05-02T08:47:38.001Z</time></trkpt><trkpt lat="43.38152752038414" lon="-4.38111907460976"><ele>41.199999999999996</ele><time>2026-05-02T08:47:39.001Z</time></trkpt><trkpt lat="43.38143266553089" lon="-4.381065483537546"><ele>41.4</ele><time>2026-05-02T08:47:40.001Z</time></trkpt><trkpt lat="43.38133461177851" lon="-4.3810391152903145"><ele>41.6</ele><time>2026-05-02T08:47:41.001Z</time></trkpt><trkpt lat="43.38123403514639" lon="-4.380998500867467"><ele>41.8</ele><time>2026-05-02T08:47:42.001Z</time></trkpt><trkpt lat="43.38114007821492" lon="-4.380957864049231"><ele>42.0</ele><time>2026-05-02T08:47:43.001Z</time></trkpt><trkpt lat="43.38104782793424" lon="-4.380910055665545"><ele>42.0</ele><time>2026-05-02T08:47:44.001Z</time></trkpt><trkpt lat="43.380961344926554" lon="-4.380846016306984"><ele>42.0</ele><time>2026-05-02T08:47:45.001Z</time></trkpt><trkpt lat="43.38087930643764" lon="-4.380774214835341"><ele>42.0</ele><time>2026-05-02T08:47:46.001Z</time></trkpt><trkpt lat="43.38080203189089" lon="-4.380695820345206"><ele>42.0</ele><time>2026-05-02T08:47:47.001Z</time></trkpt><trkpt lat="43.380730359001525" lon="-4.380606367786779"><ele>42.0</ele><time>2026-05-02T08:47:48.001Z</time></trkpt><trkpt lat="43.380670218193664" lon="-4.380503824826865"><ele>40.2</ele><time>2026-05-02T08:47:49.001Z</time></trkpt><trkpt lat="43.38061658393111" lon="-4.380393520572791"><ele>38.400000000000006</ele><time>2026-05-02T08:47:50.001Z</time></trkpt><trkpt lat="43.380573419337665" lon="-4.38027386849858"><ele>36.599999999999994</ele><time>2026-05-02T08:47:51.001Z</time></trkpt><trkpt lat="43.38053385650137" lon="-4.3801501869255315"><ele>34.8</ele><time>2026-05-02T08:47:52.001Z</time></trkpt><trkpt lat="43.380498175689084" lon="-4.380022829773263"><ele>33.0</ele><time>2026-05-02T08:47:53.001Z</time></trkpt><trkpt lat="43.380465942214876" lon="-4.379894808215371"><ele>33.0</ele><time>2026-05-02T08:47:54.001Z</time></trkpt><trkpt lat="43.380437386967756" lon="-4.379767056755578"><ele>33.0</ele><time>2026-05-02T08:47:55.001Z</time></trkpt><trkpt lat="43.380407175129335" lon="-4.379636238036442"><ele>33.0</ele><time>2026-05-02T08:47:56.001Z</time></trkpt><trkpt lat="43.3803758034277" lon="-4.37950565456923"><ele>33.0</ele><time>2026-05-02T08:47:57.001Z</time></trkpt><trkpt lat="43.3803445783285" lon="-4.3793761165821925"><ele>33.0</ele><time>2026-05-02T08:47:58.001Z</time></trkpt><trkpt lat="43.38031223861499" lon="-4.37924553337007"><ele>35.2</ele><time>2026-05-02T08:47:59.001Z</time></trkpt><trkpt lat="43.38027681495335" lon="-4.3791202924442"><ele>37.4</ele><time>2026-05-02T08:48:00.001Z</time></trkpt><trkpt lat="43.38024139727801" lon="-4.378993692152688"><ele>39.6</ele><time>2026-05-02T08:48:01.001Z</time></trkpt><trkpt lat="43.38020665312519" lon="-4.378870679417343"><ele>41.800000000000004</ele><time>2026-05-02T08:48:02.001Z</time></trkpt><trkpt lat="43.380167745438115" lon="-4.37874262388967"><ele>44.0</ele><time>2026-05-02T08:48:03.001Z</time></trkpt><trkpt lat="43.38012672679433" lon="-4.37862132074847"><ele>45.800000000000004</ele><time>2026-05-02T08:48:04.001Z</time></trkpt><trkpt lat="43.38008561593496" lon="-4.37849566465146"><ele>47.6</ele><time>2026-05-02T08:48:05.001Z</time></trkpt><trkpt lat="43.38003871169105" lon="-4.378374581057592"><ele>49.4</ele><time>2026-05-02T08:48:06.001Z</time></trkpt><trkpt lat="43.379989467851985" lon="-4.378255742414403"><ele>51.2</ele><time>2026-05-02T08:48:07.001Z</time></trkpt><trkpt lat="43.37993537306696" lon="-4.378141406998314"><ele>53.0</ele><time>2026-05-02T08:48:08.001Z</time></trkpt><trkpt lat="43.37987805713858" lon="-4.37803253176227"><ele>54.0</ele><time>2026-05-02T08:48:09.001Z</time></trkpt><trkpt lat="43.37981268983561" lon="-4.377928222695163"><ele>55.0</ele><time>2026-05-02T08:48:10.001Z</time></trkpt><trkpt lat="43.37974553249379" lon="-4.377833542558463"><ele>56.0</ele><time>2026-05-02T08:48:11.001Z</time></trkpt><trkpt lat="43.37967740763025" lon="-4.3777395783321404"><ele>57.0</ele><time>2026-05-02T08:48:12.001Z</time></trkpt><trkpt lat="43.37960525170462" lon="-4.377649410719827"><ele>58.0</ele><time>2026-05-02T08:48:13.001Z</time></trkpt><trkpt lat="43.379527561888864" lon="-4.3775694164529915"><ele>58.0</ele><time>2026-05-02T08:48:14.001Z</time></trkpt><trkpt lat="43.3794451151272" lon="-4.377508648941491"><ele>58.0</ele><time>2026-05-02T08:48:15.001Z</time></trkpt><trkpt lat="43.379350501754544" lon="-4.377483994365447"><ele>58.0</ele><time>2026-05-02T08:48:16.001Z</time></trkpt><trkpt lat="43.379259678652204" lon="-4.37745266304486"><ele>58.0</ele><time>2026-05-02T08:48:17.001Z</time></trkpt><trkpt lat="43.37917100623998" lon="-4.377406478620326"><ele>58.0</ele><time>2026-05-02T08:48:18.001Z</time></trkpt><trkpt lat="43.37908660864642" lon="-4.37738050389534"><ele>57.99999999999999</ele><time>2026-05-02T08:48:19.001Z</time></trkpt><trkpt lat="43.37899610922892" lon="-4.377341663145955"><ele>58.0</ele><time>2026-05-02T08:48:20.001Z</time></trkpt><trkpt lat="43.378912766582296" lon="-4.3773066061171715"><ele>58.0</ele><time>2026-05-02T08:48:21.001Z</time></trkpt><trkpt lat="43.37883030123799" lon="-4.377269668290938"><ele>58.0</ele><time>2026-05-02T08:48:22.001Z</time></trkpt><trkpt lat="43.37875216173942" lon="-4.377209270768515"><ele>57.99999999999999</ele><time>2026-05-02T08:48:23.001Z</time></trkpt><trkpt lat="43.37868010226039" lon="-4.3771391200927345"><ele>58.0</ele><time>2026-05-02T08:48:24.001Z</time></trkpt><trkpt lat="43.378611467715295" lon="-4.377058388770829"><ele>59.0</ele><time>2026-05-02T08:48:25.001Z</time></trkpt><trkpt lat="43.37855141222718" lon="-4.376966289231331"><ele>60.0</ele><time>2026-05-02T08:48:26.001Z</time></trkpt><trkpt lat="43.378501985071274" lon="-4.376861845884228"><ele>61.0</ele><time>2026-05-02T08:48:27.001Z</time></trkpt><trkpt lat="43.37846037179764" lon="-4.37675173615727"><ele>62.0</ele><time>2026-05-02T08:48:28.001Z</time></trkpt><trkpt lat="43.37842931635044" lon="-4.3766353613326086"><ele>63.0</ele><time>2026-05-02T08:48:29.001Z</time></trkpt><trkpt lat="43.378404716882116" lon="-4.376512668243662"><ele>63.0</ele><time>2026-05-02T08:48:30.001Z</time></trkpt><trkpt lat="43.378386315381746" lon="-4.376386612421109"><ele>63.0</ele><time>2026-05-02T08:48:31Z</time></trkpt><trkpt lat="43.37836971539955" lon="-4.376258581125677"><ele>63.0</ele><time>2026-05-02T08:48:32Z</time></trkpt><trkpt lat="43.37835663890116" lon="-4.37612676875904"><ele>63.0</ele><time>2026-05-02T08:48:33Z</time></trkpt><trkpt lat="43.37834734155003" lon="-4.375995833659526"><ele>63.0</ele><time>2026-05-02T08:48:34Z</time></trkpt><trkpt lat="43.37832998291727" lon="-4.375862135435945"><ele>63.4</ele><time>2026-05-02T08:48:35Z</time></trkpt><trkpt lat="43.378318648377764" lon="-4.375726565763357"><ele>63.8</ele><time>2026-05-02T08:48:36Z</time></trkpt><trkpt lat="43.37831287621744" lon="-4.375586713824612"><ele>64.2</ele><time>2026-05-02T08:48:37Z</time></trkpt><trkpt lat="43.378289239671886" lon="-4.375454008848036"><ele>64.6</ele><time>2026-05-02T08:48:38Z</time></trkpt><trkpt lat="43.378278849241795" lon="-4.375314122558512"><ele>65.0</ele><time>2026-05-02T08:48:39Z</time></trkpt><trkpt lat="43.37825716285357" lon="-4.3751746993280065"><ele>65.8</ele><time>2026-05-02T08:48:40Z</time></trkpt><trkpt lat="43.37822521016492" lon="-4.375040883253152"><ele>66.6</ele><time>2026-05-02T08:48:41Z</time></trkpt><trkpt lat="43.37819408973631" lon="-4.374908137888643"><ele>67.4</ele><time>2026-05-02T08:48:42Z</time></trkpt><trkpt lat="43.378157772956854" lon="-4.374776317603109"><ele>68.2</ele><time>2026-05-02T08:48:43Z</time></trkpt><trkpt lat="43.37811511582185" lon="-4.374645999853231"><ele>69.0</ele><time>2026-05-02T08:48:44Z</time></trkpt><trkpt lat="43.378068527500496" lon="-4.374520488171722"><ele>68.4</ele><time>2026-05-02T08:48:45Z</time></trkpt><trkpt lat="43.378015383829144" lon="-4.374397597886748"><ele>67.80000000000001</ele><time>2026-05-02T08:48:46Z</time></trkpt><trkpt lat="43.37795858396931" lon="-4.374280304374622"><ele>67.19999999999999</ele><time>2026-05-02T08:48:47Z</time></trkpt><trkpt lat="43.37789685691284" lon="-4.3741651196943865"><ele>66.6</ele><time>2026-05-02T08:48:48Z</time></trkpt><trkpt lat="43.37783153592235" lon="-4.374056324030764"><ele>66.0</ele><time>2026-05-02T08:48:49Z</time></trkpt><trkpt lat="43.37776172477462" lon="-4.373951843807245"><ele>68.6</ele><time>2026-05-02T08:48:50Z</time></trkpt><trkpt lat="43.37768955025898" lon="-4.3738546179816025"><ele>71.19999999999999</ele><time>2026-05-02T08:48:51Z</time></trkpt><trkpt lat="43.37761186004013" lon="-4.373766292288675"><ele>73.80000000000001</ele><time>2026-05-02T08:48:52Z</time></trkpt><trkpt lat="43.37753113697261" lon="-4.373679538757696"><ele>76.4</ele><time>2026-05-02T08:48:53Z</time></trkpt><trkpt lat="43.37744455152796" lon="-4.3736007085451"><ele>79.0</ele><time>2026-05-02T08:48:54Z</time></trkpt><trkpt lat="43.37735647595057" lon="-4.3735254718553325"><ele>79.0</ele><time>2026-05-02T08:48:55Z</time></trkpt><trkpt lat="43.37726509576129" lon="-4.373453992600123"><ele>79.0</ele><time>2026-05-02T08:48:56Z</time></trkpt><trkpt lat="43.37716757263986" lon="-4.373387185979612"><ele>79.0</ele><time>2026-05-02T08:48:57Z</time></trkpt><trkpt lat="43.37704467613682" lon="-4.373338245673758"><ele>79.0</ele><time>2026-05-02T08:48:58Z</time></trkpt><trkpt lat="43.376938467584246" lon="-4.3733055834700805"><ele>77.33333333333333</ele><time>2026-05-02T08:48:59Z</time></trkpt><trkpt lat="43.37687611292041" lon="-4.373233354911803"><ele>75.66666666666667</ele><time>2026-05-02T08:49:00Z</time></trkpt><trkpt lat="43.376825392584315" lon="-4.372943351633288"><ele>74.0</ele><time>2026-05-02T08:49:02Z</time></trkpt><trkpt lat="43.376561589682304" lon="-4.373150348134321"><ele>74.0</ele><time>2026-05-02T08:49:03Z</time></trkpt><trkpt lat="43.37645476479305" lon="-4.3731441515175495"><ele>74.0</ele><time>2026-05-02T08:49:04Z</time></trkpt><trkpt lat="43.376346763735604" lon="-4.373137557811115"><ele>74.0</ele><time>2026-05-02T08:49:05Z</time></trkpt><trkpt lat="43.37624068220166" lon="-4.373146415295828"><ele>74.0</ele><time>2026-05-02T08:49:06Z</time></trkpt><trkpt lat="43.37613437660161" lon="-4.3731577182643715"><ele>74.0</ele><time>2026-05-02T08:49:07Z</time></trkpt><trkpt lat="43.3760236574762" lon="-4.373171240172275"><ele>74.0</ele><time>2026-05-02T08:49:08Z</time></trkpt><trkpt lat="43.37591404216569" lon="-4.3731809776049735"><ele>74.0</ele><time>2026-05-02T08:49:09Z</time></trkpt><trkpt lat="43.37580165926012" lon="-4.373188634231964"><ele>74.0</ele><time>2026-05-02T08:49:10Z</time></trkpt><trkpt lat="43.37569105533881" lon="-4.37320020315252"><ele>74.0</ele><time>2026-05-02T08:49:11Z</time></trkpt><trkpt lat="43.375582287074955" lon="-4.373210305733387"><ele>74.0</ele><time>2026-05-02T08:49:12Z</time></trkpt><trkpt lat="43.37547412117118" lon="-4.373221418676723"><ele>74.2</ele><time>2026-05-02T08:49:13Z</time></trkpt><trkpt lat="43.375368525047556" lon="-4.373228499115688"><ele>74.4</ele><time>2026-05-02T08:49:14Z</time></trkpt><trkpt lat="43.375260648265375" lon="-4.373233870196201"><ele>74.6</ele><time>2026-05-02T08:49:15Z</time></trkpt><trkpt lat="43.37515639200626" lon="-4.373242490672371"><ele>74.8</ele><time>2026-05-02T08:49:16Z</time></trkpt><trkpt lat="43.375052468094054" lon="-4.373247357405785"><ele>75.0</ele><time>2026-05-02T08:49:17Z</time></trkpt><trkpt lat="43.3749457935185" lon="-4.373246192949324"><ele>75.0</ele><time>2026-05-02T08:49:18Z</time></trkpt><trkpt lat="43.374841740664614" lon="-4.373239318950802"><ele>75.0</ele><time>2026-05-02T08:49:19Z</time></trkpt><trkpt lat="43.37473678088624" lon="-4.3732202226301595"><ele>75.0</ele><time>2026-05-02T08:49:20Z</time></trkpt><trkpt lat="43.374631345889405" lon="-4.37318793648899"><ele>75.0</ele><time>2026-05-02T08:49:21Z</time></trkpt><trkpt lat="43.374531352031745" lon="-4.373144670342868"><ele>75.0</ele><time>2026-05-02T08:49:22Z</time></trkpt><trkpt lat="43.37443240313415" lon="-4.373089666217668"><ele>75.4</ele><time>2026-05-02T08:49:23Z</time></trkpt><trkpt lat="43.37434002295346" lon="-4.37302438130407"><ele>75.8</ele><time>2026-05-02T08:49:24Z</time></trkpt><trkpt lat="43.37425082451868" lon="-4.372946317534604"><ele>76.2</ele><time>2026-05-02T08:49:25Z</time></trkpt><trkpt lat="43.374172586416904" lon="-4.372839983202443"><ele>76.6</ele><time>2026-05-02T08:49:26Z</time></trkpt><trkpt lat="43.37411541339427" lon="-4.372715469042275"><ele>77.0</ele><time>2026-05-02T08:49:27Z</time></trkpt><trkpt lat="43.374062541490936" lon="-4.372585813959566"><ele>77.0</ele><time>2026-05-02T08:49:28Z</time></trkpt><trkpt lat="43.3740251461984" lon="-4.372455150377396"><ele>77.0</ele><time>2026-05-02T08:49:29Z</time></trkpt><trkpt lat="43.373993162437436" lon="-4.372256959490378"><ele>77.0</ele><time>2026-05-02T08:49:30Z</time></trkpt><trkpt lat="43.37397815624498" lon="-4.372095626845807"><ele>77.0</ele><time>2026-05-02T08:49:31.001Z</time></trkpt><trkpt lat="43.37394895703013" lon="-4.372006433147515"><ele>77.0</ele><time>2026-05-02T08:49:32.001Z</time></trkpt><trkpt lat="43.373971862924165" lon="-4.371863373901399"><ele>77.0</ele><time>2026-05-02T08:49:33.001Z</time></trkpt><trkpt lat="43.37400400274955" lon="-4.371718360093463"><ele>77.0</ele><time>2026-05-02T08:49:34.001Z</time></trkpt><trkpt lat="43.37404034900198" lon="-4.37157252667051"><ele>77.0</ele><time>2026-05-02T08:49:35.001Z</time></trkpt><trkpt lat="43.374077560812474" lon="-4.371429187391577"><ele>77.0</ele><time>2026-05-02T08:49:36.001Z</time></trkpt><trkpt lat="43.374114293084915" lon="-4.371285609742082"><ele>77.0</ele><time>2026-05-02T08:49:37.001Z</time></trkpt><trkpt lat="43.37414458316806" lon="-4.371142947879873"><ele>77.0</ele><time>2026-05-02T08:49:38.001Z</time></trkpt><trkpt lat="43.37417204505724" lon="-4.370999524371598"><ele>77.0</ele><time>2026-05-02T08:49:39.001Z</time></trkpt><trkpt lat="43.374191326324706" lon="-4.370848819987576"><ele>77.0</ele><time>2026-05-02T08:49:40.001Z</time></trkpt><trkpt lat="43.37419064243628" lon="-4.370698396868405"><ele>77.0</ele><time>2026-05-02T08:49:41.001Z</time></trkpt><trkpt lat="43.37417969552678" lon="-4.370546504032876"><ele>77.0</ele><time>2026-05-02T08:49:42.001Z</time></trkpt><trkpt lat="43.374158292641496" lon="-4.370406425980576"><ele>77.4</ele><time>2026-05-02T08:49:43.001Z</time></trkpt><trkpt lat="43.37412669809744" lon="-4.370262055259303"><ele>77.80000000000001</ele><time>2026-05-02T08:49:44.001Z</time></trkpt><trkpt lat="43.37410205847558" lon="-4.37010457095383"><ele>78.2</ele><time>2026-05-02T08:49:45.001Z</time></trkpt><trkpt lat="43.374072875774324" lon="-4.369975869539212"><ele>78.60000000000001</ele><time>2026-05-02T08:49:46.001Z</time></trkpt><trkpt lat="43.37403845848041" lon="-4.369838083229857"><ele>79.0</ele><time>2026-05-02T08:49:47.001Z</time></trkpt><trkpt lat="43.37401565383253" lon="-4.369689763618163"><ele>79.6</ele><time>2026-05-02T08:49:48.001Z</time></trkpt><trkpt lat="43.37398062834656" lon="-4.3695522195897"><ele>80.2</ele><time>2026-05-02T08:49:49.001Z</time></trkpt><trkpt lat="43.373936750317924" lon="-4.369427256694322"><ele>80.8</ele><time>2026-05-02T08:49:50.001Z</time></trkpt><trkpt lat="43.37389092641297" lon="-4.369299610562181"><ele>81.39999999999999</ele><time>2026-05-02T08:49:51.001Z</time></trkpt><trkpt lat="43.373837586156775" lon="-4.369169841251667"><ele>82.0</ele><time>2026-05-02T08:49:52.001Z</time></trkpt><trkpt lat="43.373769407527774" lon="-4.369047055340245"><ele>81.19999999999999</ele><time>2026-05-02T08:49:53.001Z</time></trkpt><trkpt lat="43.373671285615316" lon="-4.3689249199959335"><ele>80.39999999999999</ele><time>2026-05-02T08:49:54.001Z</time></trkpt><trkpt lat="43.37363213343351" lon="-4.368831471780958"><ele>79.6</ele><time>2026-05-02T08:49:55.001Z</time></trkpt><trkpt lat="43.373556913392825" lon="-4.368729786866757"><ele>78.8</ele><time>2026-05-02T08:49:56.001Z</time></trkpt><trkpt lat="43.37347757226371" lon="-4.368628165915069"><ele>78.0</ele><time>2026-05-02T08:49:57.001Z</time></trkpt><trkpt lat="43.373390783669564" lon="-4.368518523526038"><ele>78.0</ele><time>2026-05-02T08:49:58.001Z</time></trkpt><trkpt lat="43.373293737201124" lon="-4.368389967399636"><ele>78.0</ele><time>2026-05-02T08:49:59.001Z</time></trkpt><trkpt lat="43.37325121532926" lon="-4.368322344071603"><ele>78.0</ele><time>2026-05-02T08:50:00.001Z</time></trkpt><trkpt lat="43.3731714199142" lon="-4.368219766597636"><ele>78.0</ele><time>2026-05-02T08:50:01.001Z</time></trkpt><trkpt lat="43.373084275752376" lon="-4.368130823054812"><ele>78.0</ele><time>2026-05-02T08:50:02.001Z</time></trkpt><trkpt lat="43.3730044283552" lon="-4.3680341235020705"><ele>77.4</ele><time>2026-05-02T08:50:03.001Z</time></trkpt><trkpt lat="43.372918642018405" lon="-4.367946350070483"><ele>76.8</ele><time>2026-05-02T08:50:04.001Z</time></trkpt><trkpt lat="43.372835273319694" lon="-4.367848601783005"><ele>76.2</ele><time>2026-05-02T08:50:05.001Z</time></trkpt><trkpt lat="43.37273725933592" lon="-4.367781801454257"><ele>75.6</ele><time>2026-05-02T08:50:06.001Z</time></trkpt><trkpt lat="43.37264174828787" lon="-4.367705872702944"><ele>75.0</ele><time>2026-05-02T08:50:07.001Z</time></trkpt><trkpt lat="43.3725451416508" lon="-4.367638572491776"><ele>75.0</ele><time>2026-05-02T08:50:08.001Z</time></trkpt><trkpt lat="43.3724456641119" lon="-4.3675774499180395"><ele>75.0</ele><time>2026-05-02T08:50:09.001Z</time></trkpt><trkpt lat="43.372344983715664" lon="-4.3675175070567684"><ele>75.0</ele><time>2026-05-02T08:50:10.001Z</time></trkpt><trkpt lat="43.37224205030531" lon="-4.367459294251689"><ele>75.0</ele><time>2026-05-02T08:50:11.001Z</time></trkpt><trkpt lat="43.372139574192495" lon="-4.367401339734879"><ele>75.0</ele><time>2026-05-02T08:50:12.001Z</time></trkpt><trkpt lat="43.372035613343165" lon="-4.367342545642148"><ele>74.6</ele><time>2026-05-02T08:50:13.001Z</time></trkpt><trkpt lat="43.371934779822496" lon="-4.367285235687395"><ele>74.2</ele><time>2026-05-02T08:50:14.001Z</time></trkpt><trkpt lat="43.3718363702144" lon="-4.367226702638039"><ele>73.8</ele><time>2026-05-02T08:50:15.001Z</time></trkpt><trkpt lat="43.37173915056148" lon="-4.3671680198827145"><ele>73.4</ele><time>2026-05-02T08:50:16.001Z</time></trkpt><trkpt lat="43.37164256354476" lon="-4.367103509693607"><ele>73.0</ele><time>2026-05-02T08:50:17.001Z</time></trkpt><trkpt lat="43.37154508162156" lon="-4.367033565489428"><ele>73.0</ele><time>2026-05-02T08:50:18.001Z</time></trkpt><trkpt lat="43.37145189907131" lon="-4.366961917113209"><ele>73.0</ele><time>2026-05-02T08:50:19.001Z</time></trkpt><trkpt lat="43.37136515046441" lon="-4.3668700774465"><ele>73.0</ele><time>2026-05-02T08:50:20.001Z</time></trkpt><trkpt lat="43.371275180891026" lon="-4.366796216418399"><ele>73.0</ele><time>2026-05-02T08:50:21.001Z</time></trkpt><trkpt lat="43.37118629856219" lon="-4.366711712876831"><ele>73.0</ele><time>2026-05-02T08:50:22.001Z</time></trkpt><trkpt lat="43.37109991081114" lon="-4.366626912759383"><ele>72.4</ele><time>2026-05-02T08:50:23.001Z</time></trkpt><trkpt lat="43.37101299497069" lon="-4.36654269541494"><ele>71.8</ele><time>2026-05-02T08:50:24.001Z</time></trkpt><trkpt lat="43.3709291756807" lon="-4.366454833176451"><ele>71.2</ele><time>2026-05-02T08:50:25.001Z</time></trkpt><trkpt lat="43.370839726566" lon="-4.36636964010082"><ele>70.6</ele><time>2026-05-02T08:50:26.001Z</time></trkpt><trkpt lat="43.37075671059272" lon="-4.366279295117722"><ele>70.0</ele><time>2026-05-02T08:50:27.001Z</time></trkpt><trkpt lat="43.37067057896329" lon="-4.36618728322992"><ele>69.4</ele><time>2026-05-02T08:50:28.001Z</time></trkpt><trkpt lat="43.37058606999742" lon="-4.3660994510595605"><ele>68.8</ele><time>2026-05-02T08:50:29.001Z</time></trkpt><trkpt lat="43.37049930981602" lon="-4.36600690251528"><ele>68.2</ele><time>2026-05-02T08:50:30.001Z</time></trkpt><trkpt lat="43.3704122176117" lon="-4.365913731169753"><ele>67.6</ele><time>2026-05-02T08:50:31.001Z</time></trkpt><trkpt lat="43.370322220602255" lon="-4.365831227015722"><ele>67.0</ele><time>2026-05-02T08:50:32.001Z</time></trkpt><trkpt lat="43.370234593685474" lon="-4.365738907924074"><ele>67.0</ele><time>2026-05-02T08:50:33.001Z</time></trkpt><trkpt lat="43.37014723790965" lon="-4.365657129397155"><ele>67.0</ele><time>2026-05-02T08:50:34.001Z</time></trkpt><trkpt lat="43.370056383438786" lon="-4.365571890403339"><ele>67.0</ele><time>2026-05-02T08:50:35.001Z</time></trkpt><trkpt lat="43.369961077933716" lon="-4.365495538606988"><ele>67.0</ele><time>2026-05-02T08:50:36.001Z</time></trkpt><trkpt lat="43.36986517835167" lon="-4.3654262001957305"><ele>67.0</ele><time>2026-05-02T08:50:37Z</time></trkpt><trkpt lat="43.36976187009943" lon="-4.365367124631085"><ele>68.0</ele><time>2026-05-02T08:50:38Z</time></trkpt><trkpt lat="43.36965633699604" lon="-4.365320029277165"><ele>69.0</ele><time>2026-05-02T08:50:39Z</time></trkpt><trkpt lat="43.369553057749705" lon="-4.365279756793601"><ele>70.0</ele><time>2026-05-02T08:50:40Z</time></trkpt><trkpt lat="43.36944929698714" lon="-4.3652485020986544"><ele>71.0</ele><time>2026-05-02T08:50:41Z</time></trkpt><trkpt lat="43.36934501958288" lon="-4.36523211490348"><ele>72.0</ele><time>2026-05-02T08:50:42Z</time></trkpt><trkpt lat="43.36924150339485" lon="-4.3652203004541"><ele>72.0</ele><time>2026-05-02T08:50:43Z</time></trkpt><trkpt lat="43.36913710310474" lon="-4.365220505107067"><ele>72.0</ele><time>2026-05-02T08:50:44Z</time></trkpt><trkpt lat="43.36903387394587" lon="-4.365222965248787"><ele>72.0</ele><time>2026-05-02T08:50:45Z</time></trkpt><trkpt lat="43.3689275203455" lon="-4.365230292847511"><ele>72.0</ele><time>2026-05-02T08:50:46Z</time></trkpt><trkpt lat="43.368825052120705" lon="-4.365233658080056"><ele>72.0</ele><time>2026-05-02T08:50:47Z</time></trkpt><trkpt lat="43.36872043709673" lon="-4.365236104753063"><ele>72.0</ele><time>2026-05-02T08:50:48Z</time></trkpt><trkpt lat="43.36861577052248" lon="-4.365242377165389"><ele>72.0</ele><time>2026-05-02T08:50:49Z</time></trkpt><trkpt lat="43.368508953307646" lon="-4.365244498763851"><ele>72.0</ele><time>2026-05-02T08:50:50Z</time></trkpt><trkpt lat="43.368407089327434" lon="-4.365240584060265"><ele>72.0</ele><time>2026-05-02T08:50:51Z</time></trkpt><trkpt lat="43.36830667843839" lon="-4.3652384588367"><ele>72.0</ele><time>2026-05-02T08:50:52Z</time></trkpt><trkpt lat="43.36820513186765" lon="-4.365236225673668"><ele>72.0</ele><time>2026-05-02T08:50:53Z</time></trkpt><trkpt lat="43.368097286646986" lon="-4.3652143889436275"><ele>72.0</ele><time>2026-05-02T08:50:54Z</time></trkpt><trkpt lat="43.367994144341566" lon="-4.365192537654498"><ele>72.0</ele><time>2026-05-02T08:50:55Z</time></trkpt><trkpt lat="43.367893251107546" lon="-4.36515090700806"><ele>72.0</ele><time>2026-05-02T08:50:56Z</time></trkpt><trkpt lat="43.367796435441754" lon="-4.365103479765806"><ele>72.0</ele><time>2026-05-02T08:50:57Z</time></trkpt><trkpt lat="43.36770402551486" lon="-4.365043782306899"><ele>71.8</ele><time>2026-05-02T08:50:58Z</time></trkpt><trkpt lat="43.367617593070705" lon="-4.3649595876811516"><ele>71.6</ele><time>2026-05-02T08:50:59Z</time></trkpt><trkpt lat="43.367537477252206" lon="-4.364868886781558"><ele>71.39999999999999</ele><time>2026-05-02T08:51:00Z</time></trkpt><trkpt lat="43.36745713252392" lon="-4.364772826927141"><ele>71.2</ele><time>2026-05-02T08:51:01Z</time></trkpt><trkpt lat="43.36738424193198" lon="-4.364667475584763"><ele>71.0</ele><time>2026-05-02T08:51:02Z</time></trkpt><trkpt lat="43.36730889312197" lon="-4.36455701968336"><ele>71.0</ele><time>2026-05-02T08:51:03Z</time></trkpt><trkpt lat="43.367235068152354" lon="-4.364448606625436"><ele>71.0</ele><time>2026-05-02T08:51:04Z</time></trkpt><trkpt lat="43.3671813579756" lon="-4.364322760723854"><ele>71.0</ele><time>2026-05-02T08:51:05Z</time></trkpt><trkpt lat="43.36713180748117" lon="-4.36419926257395"><ele>71.0</ele><time>2026-05-02T08:51:06Z</time></trkpt><trkpt lat="43.36708180685031" lon="-4.364111732321963"><ele>71.0</ele><time>2026-05-02T08:51:07Z</time></trkpt><trkpt lat="43.36698927357162" lon="-4.363972265398781"><ele>71.0</ele><time>2026-05-02T08:51:08Z</time></trkpt><trkpt lat="43.366924529290976" lon="-4.363861179249477"><ele>71.0</ele><time>2026-05-02T08:51:09Z</time></trkpt><trkpt lat="43.36686144638394" lon="-4.363745000173086"><ele>71.0</ele><time>2026-05-02T08:51:10Z</time></trkpt><trkpt lat="43.366802104283614" lon="-4.363629488737344"><ele>71.0</ele><time>2026-05-02T08:51:11Z</time></trkpt><trkpt lat="43.36673742482469" lon="-4.363513464411005"><ele>71.0</ele><time>2026-05-02T08:51:12Z</time></trkpt><trkpt lat="43.36666975928462" lon="-4.363403511329546"><ele>71.0</ele><time>2026-05-02T08:51:13Z</time></trkpt><trkpt lat="43.36659871101585" lon="-4.363294812081307"><ele>71.0</ele><time>2026-05-02T08:51:14Z</time></trkpt><trkpt lat="43.36652897908591" lon="-4.363185764657384"><ele>71.0</ele><time>2026-05-02T08:51:15Z</time></trkpt><trkpt lat="43.366456913774506" lon="-4.363083187454995"><ele>71.0</ele><time>2026-05-02T08:51:16Z</time></trkpt><trkpt lat="43.3663820861126" lon="-4.3629814597856695"><ele>71.0</ele><time>2026-05-02T08:51:17.001Z</time></trkpt><trkpt lat="43.36630804146825" lon="-4.362884113928883"><ele>72.0</ele><time>2026-05-02T08:51:18Z</time></trkpt><trkpt lat="43.366233975744834" lon="-4.362786217826002"><ele>73.0</ele><time>2026-05-02T08:51:19Z</time></trkpt><trkpt lat="43.36615702951857" lon="-4.362687666195089"><ele>74.0</ele><time>2026-05-02T08:51:20Z</time></trkpt><trkpt lat="43.366072521861305" lon="-4.362596074920979"><ele>75.0</ele><time>2026-05-02T08:51:21Z</time></trkpt><trkpt lat="43.36599043619182" lon="-4.3624975332328315"><ele>76.0</ele><time>2026-05-02T08:51:22Z</time></trkpt><trkpt lat="43.365903040967815" lon="-4.3624089707953795"><ele>76.0</ele><time>2026-05-02T08:51:23Z</time></trkpt><trkpt lat="43.365810110421954" lon="-4.362318928175654"><ele>76.0</ele><time>2026-05-02T08:51:24Z</time></trkpt><trkpt lat="43.36571686353232" lon="-4.362231279300012"><ele>76.0</ele><time>2026-05-02T08:51:25Z</time></trkpt><trkpt lat="43.36562168810468" lon="-4.362151348174223"><ele>76.0</ele><time>2026-05-02T08:51:26.001Z</time></trkpt><trkpt lat="43.36552679736698" lon="-4.362068332048237"><ele>73.8</ele><time>2026-05-02T08:51:27.001Z</time></trkpt><trkpt lat="43.36543498121765" lon="-4.361988030067644"><ele>71.6</ele><time>2026-05-02T08:51:28.001Z</time></trkpt><trkpt lat="43.36534371398234" lon="-4.361909973682098"><ele>69.4</ele><time>2026-05-02T08:51:29.001Z</time></trkpt><trkpt lat="43.36525147009053" lon="-4.361834987110768"><ele>67.2</ele><time>2026-05-02T08:51:30.001Z</time></trkpt><trkpt lat="43.36515452399322" lon="-4.361757639379997"><ele>65.0</ele><time>2026-05-02T08:51:31.001Z</time></trkpt><trkpt lat="43.36505755166607" lon="-4.361681813481461"><ele>65.0</ele><time>2026-05-02T08:51:32.001Z</time></trkpt><trkpt lat="43.364958836553484" lon="-4.36160667655126"><ele>65.0</ele><time>2026-05-02T08:51:33.001Z</time></trkpt><trkpt lat="43.364860727450115" lon="-4.361534593792714"><ele>65.0</ele><time>2026-05-02T08:51:34.001Z</time></trkpt><trkpt lat="43.36476231745324" lon="-4.361461601307187"><ele>65.0</ele><time>2026-05-02T08:51:35.001Z</time></trkpt><trkpt lat="43.36466443809775" lon="-4.361389279285421"><ele>65.0</ele><time>2026-05-02T08:51:36.001Z</time></trkpt><trkpt lat="43.36456452003931" lon="-4.361313879796099"><ele>62.75</ele><time>2026-05-02T08:51:37.001Z</time></trkpt><trkpt lat="43.364464254039454" lon="-4.361238252345096"><ele>60.5</ele><time>2026-05-02T08:51:38.001Z</time></trkpt><trkpt lat="43.364363523916964" lon="-4.361163546177032"><ele>58.25</ele><time>2026-05-02T08:51:39.001Z</time></trkpt><trkpt lat="43.364264275325766" lon="-4.3610857345803895"><ele>56.0</ele><time>2026-05-02T08:51:40.001Z</time></trkpt><trkpt lat="43.3641686623483" lon="-4.361010777779333"><ele>56.0</ele><time>2026-05-02T08:51:41.001Z</time></trkpt><trkpt lat="43.36407251965716" lon="-4.360928690538914"><ele>55.99999999999999</ele><time>2026-05-02T08:51:42.001Z</time></trkpt><trkpt lat="43.36397974841414" lon="-4.360847217858335"><ele>55.99999999999999</ele><time>2026-05-02T08:51:43.001Z</time></trkpt><trkpt lat="43.36389084243573" lon="-4.360754956242041"><ele>56.0</ele><time>2026-05-02T08:51:44.001Z</time></trkpt><trkpt lat="43.36380702068744" lon="-4.360661374244652"><ele>56.0</ele><time>2026-05-02T08:51:45.001Z</time></trkpt><trkpt lat="43.363726085586464" lon="-4.360559088207425"><ele>57.0</ele><time>2026-05-02T08:51:46.001Z</time></trkpt><trkpt lat="43.36364912702239" lon="-4.360449902064915"><ele>57.99999999999999</ele><time>2026-05-02T08:51:47.001Z</time></trkpt><trkpt lat="43.363573360965326" lon="-4.360343356250305"><ele>58.99999999999999</ele><time>2026-05-02T08:51:48.001Z</time></trkpt><trkpt lat="43.363499657926646" lon="-4.36023815343576"><ele>60.0</ele><time>2026-05-02T08:51:49.001Z</time></trkpt><trkpt lat="43.36342340031272" lon="-4.360130011246498"><ele>61.0</ele><time>2026-05-02T08:51:50.001Z</time></trkpt><trkpt lat="43.36334926155013" lon="-4.360025919615861"><ele>61.0</ele><time>2026-05-02T08:51:51.001Z</time></trkpt><trkpt lat="43.3632742960067" lon="-4.359919043277956"><ele>60.99999999999999</ele><time>2026-05-02T08:51:52.001Z</time></trkpt><trkpt lat="43.36319659912146" lon="-4.359819219689421"><ele>60.99999999999999</ele><time>2026-05-02T08:51:53.001Z</time></trkpt><trkpt lat="43.36312597305567" lon="-4.3597299357745145"><ele>61.0</ele><time>2026-05-02T08:51:54.001Z</time></trkpt><trkpt lat="43.3630547356982" lon="-4.359634422900903"><ele>61.0</ele><time>2026-05-02T08:51:55.001Z</time></trkpt><trkpt lat="43.362979713524595" lon="-4.359536951804604"><ele>62.0</ele><time>2026-05-02T08:51:56.001Z</time></trkpt><trkpt lat="43.36290253174265" lon="-4.3594398118431545"><ele>62.99999999999999</ele><time>2026-05-02T08:51:57.001Z</time></trkpt><trkpt lat="43.36281935704252" lon="-4.359354087003938"><ele>63.99999999999999</ele><time>2026-05-02T08:51:58.001Z</time></trkpt><trkpt lat="43.36273406911859" lon="-4.359277020774488"><ele>65.0</ele><time>2026-05-02T08:51:59.001Z</time></trkpt><trkpt lat="43.36264568368186" lon="-4.359206580241336"><ele>66.0</ele><time>2026-05-02T08:52:00.001Z</time></trkpt><trkpt lat="43.36255762417078" lon="-4.359140222433031"><ele>66.0</ele><time>2026-05-02T08:52:01.001Z</time></trkpt><trkpt lat="43.36246887276111" lon="-4.359072151130998"><ele>66.0</ele><time>2026-05-02T08:52:02.001Z</time></trkpt><trkpt lat="43.362379868612294" lon="-4.359006201575632"><ele>66.0</ele><time>2026-05-02T08:52:03.001Z</time></trkpt><trkpt lat="43.36229003387457" lon="-4.358950264662814"><ele>66.0</ele><time>2026-05-02T08:52:04.001Z</time></trkpt><trkpt lat="43.36220275371231" lon="-4.358886280311759"><ele>66.0</ele><time>2026-05-02T08:52:05.001Z</time></trkpt><trkpt lat="43.36211331832988" lon="-4.358822753899181"><ele>68.2</ele><time>2026-05-02T08:52:06.001Z</time></trkpt><trkpt lat="43.362025717083704" lon="-4.358761707823558"><ele>70.39999999999999</ele><time>2026-05-02T08:52:07.001Z</time></trkpt><trkpt lat="43.361937378014254" lon="-4.358699226548517"><ele>72.6</ele><time>2026-05-02T08:52:08.001Z</time></trkpt><trkpt lat="43.36185112853167" lon="-4.358634255929537"><ele>74.8</ele><time>2026-05-02T08:52:09.001Z</time></trkpt><trkpt lat="43.36176251509033" lon="-4.358570045053569"><ele>77.0</ele><time>2026-05-02T08:52:10.001Z</time></trkpt><trkpt lat="43.36167553429431" lon="-4.3585082714040215"><ele>77.0</ele><time>2026-05-02T08:52:11.001Z</time></trkpt><trkpt lat="43.36158997884266" lon="-4.3584419732694855"><ele>77.0</ele><time>2026-05-02T08:52:12.001Z</time></trkpt><trkpt lat="43.36150388051007" lon="-4.358382198594594"><ele>77.0</ele><time>2026-05-02T08:52:13.001Z</time></trkpt><trkpt lat="43.36141707447007" lon="-4.358318998272051"><ele>77.0</ele><time>2026-05-02T08:52:14.001Z</time></trkpt><trkpt lat="43.361331023890195" lon="-4.358253781616569"><ele>77.0</ele><time>2026-05-02T08:52:15.001Z</time></trkpt><trkpt lat="43.36124328882938" lon="-4.358194218943382"><ele>77.6</ele><time>2026-05-02T08:52:16.001Z</time></trkpt><trkpt lat="43.36115566105371" lon="-4.358133847766155"><ele>78.2</ele><time>2026-05-02T08:52:17.001Z</time></trkpt><trkpt lat="43.361067792812015" lon="-4.358072557922712"><ele>78.8</ele><time>2026-05-02T08:52:18.001Z</time></trkpt><trkpt lat="43.36098092709746" lon="-4.35800906226338"><ele>79.4</ele><time>2026-05-02T08:52:19.001Z</time></trkpt><trkpt lat="43.36089464504024" lon="-4.357947731412601"><ele>80.0</ele><time>2026-05-02T08:52:20.001Z</time></trkpt><trkpt lat="43.36080888458939" lon="-4.357883906341088"><ele>80.0</ele><time>2026-05-02T08:52:21.001Z</time></trkpt><trkpt lat="43.36071926912013" lon="-4.3578305796885015"><ele>80.0</ele><time>2026-05-02T08:52:22.001Z</time></trkpt><trkpt lat="43.36063336553843" lon="-4.357768961165739"><ele>80.0</ele><time>2026-05-02T08:52:23.001Z</time></trkpt><trkpt lat="43.360547188541815" lon="-4.357706395834072"><ele>80.0</ele><time>2026-05-02T08:52:24.001Z</time></trkpt><trkpt lat="43.360460979776086" lon="-4.357645322546677"><ele>80.0</ele><time>2026-05-02T08:52:25.001Z</time></trkpt><trkpt lat="43.3603788716779" lon="-4.357583662043146"><ele>78.8</ele><time>2026-05-02T08:52:26.001Z</time></trkpt><trkpt lat="43.360296220421375" lon="-4.357524447308663"><ele>77.6</ele><time>2026-05-02T08:52:27.001Z</time></trkpt><trkpt lat="43.36020698236848" lon="-4.357461772317384"><ele>76.4</ele><time>2026-05-02T08:52:28.001Z</time></trkpt><trkpt lat="43.36012331557293" lon="-4.357401367195202"><ele>75.2</ele><time>2026-05-02T08:52:29.001Z</time></trkpt><trkpt lat="43.360037971563685" lon="-4.357338962156286"><ele>74.0</ele><time>2026-05-02T08:52:30.001Z</time></trkpt><trkpt lat="43.359954366447944" lon="-4.357277046229205"><ele>74.0</ele><time>2026-05-02T08:52:31.001Z</time></trkpt><trkpt lat="43.35987104824936" lon="-4.357217324621625"><ele>74.0</ele><time>2026-05-02T08:52:32.001Z</time></trkpt><trkpt lat="43.359788145312926" lon="-4.357154082293706"><ele>74.0</ele><time>2026-05-02T08:52:33.001Z</time></trkpt><trkpt lat="43.359703696876" lon="-4.357098550835585"><ele>74.0</ele><time>2026-05-02T08:52:34.001Z</time></trkpt><trkpt lat="43.359621483694916" lon="-4.3570405420663745"><ele>74.0</ele><time>2026-05-02T08:52:35.001Z</time></trkpt><trkpt lat="43.35953696571695" lon="-4.356980748010822"><ele>76.0</ele><time>2026-05-02T08:52:36.001Z</time></trkpt><trkpt lat="43.359453447069946" lon="-4.3569241769509075"><ele>78.0</ele><time>2026-05-02T08:52:37.001Z</time></trkpt><trkpt lat="43.35936610660213" lon="-4.356876777432938"><ele>80.0</ele><time>2026-05-02T08:52:38.001Z</time></trkpt><trkpt lat="43.35928081666444" lon="-4.356816715398921"><ele>82.0</ele><time>2026-05-02T08:52:39.001Z</time></trkpt><trkpt lat="43.359195285061915" lon="-4.356768049843367"><ele>84.0</ele><time>2026-05-02T08:52:40.001Z</time></trkpt><trkpt lat="43.359104339433436" lon="-4.356723614351687"><ele>84.0</ele><time>2026-05-02T08:52:41.001Z</time></trkpt><trkpt lat="43.359017660003985" lon="-4.356673328622307"><ele>84.0</ele><time>2026-05-02T08:52:42.001Z</time></trkpt><trkpt lat="43.35892675573339" lon="-4.356628011611676"><ele>84.0</ele><time>2026-05-02T08:52:43Z</time></trkpt><trkpt lat="43.358836799809254" lon="-4.356579867432002"><ele>84.0</ele><time>2026-05-02T08:52:44Z</time></trkpt><trkpt lat="43.35874738961138" lon="-4.356533430680129"><ele>84.0</ele><time>2026-05-02T08:52:45Z</time></trkpt><trkpt lat="43.358656089482146" lon="-4.356483998367441"><ele>84.80000000000001</ele><time>2026-05-02T08:52:46Z</time></trkpt><trkpt lat="43.358557822156996" lon="-4.356438609983476"><ele>85.60000000000001</ele><time>2026-05-02T08:52:47Z</time></trkpt><trkpt lat="43.35846501467974" lon="-4.356388881135531"><ele>86.4</ele><time>2026-05-02T08:52:48Z</time></trkpt><trkpt lat="43.358370046549034" lon="-4.35634158984091"><ele>87.2</ele><time>2026-05-02T08:52:49Z</time></trkpt><trkpt lat="43.3582758496295" lon="-4.356295909483117"><ele>88.0</ele><time>2026-05-02T08:52:50Z</time></trkpt><trkpt lat="43.358179159433654" lon="-4.356250089452842"><ele>88.0</ele><time>2026-05-02T08:52:51Z</time></trkpt><trkpt lat="43.358084051841615" lon="-4.356199161911426"><ele>88.0</ele><time>2026-05-02T08:52:52Z</time></trkpt><trkpt lat="43.35798979264666" lon="-4.356150744605538"><ele>88.0</ele><time>2026-05-02T08:52:53Z</time></trkpt><trkpt lat="43.357895632033824" lon="-4.356106541519566"><ele>88.0</ele><time>2026-05-02T08:52:54Z</time></trkpt><trkpt lat="43.35780513530727" lon="-4.356056733230295"><ele>88.0</ele><time>2026-05-02T08:52:55Z</time></trkpt><trkpt lat="43.35771055126356" lon="-4.356013100070614"><ele>87.80000000000001</ele><time>2026-05-02T08:52:56Z</time></trkpt><trkpt lat="43.357620700968546" lon="-4.355962143257161"><ele>87.6</ele><time>2026-05-02T08:52:57Z</time></trkpt><trkpt lat="43.35753393827364" lon="-4.355919609914772"><ele>87.4</ele><time>2026-05-02T08:52:58Z</time></trkpt><trkpt lat="43.357444725970936" lon="-4.355871788225013"><ele>87.19999999999999</ele><time>2026-05-02T08:52:59Z</time></trkpt><trkpt lat="43.357361245407624" lon="-4.35582618113189"><ele>87.0</ele><time>2026-05-02T08:53:00Z</time></trkpt><trkpt lat="43.357276493399304" lon="-4.355775854597364"><ele>87.16666666666667</ele><time>2026-05-02T08:53:01Z</time></trkpt><trkpt lat="43.35719851663821" lon="-4.355716876388222"><ele>87.33333333333333</ele><time>2026-05-02T08:53:02Z</time></trkpt><trkpt lat="43.357121096189864" lon="-4.355651318388156"><ele>87.5</ele><time>2026-05-02T08:53:03Z</time></trkpt><trkpt lat="43.3570478861081" lon="-4.35558667927749"><ele>87.66666666666666</ele><time>2026-05-02T08:53:04Z</time></trkpt><trkpt lat="43.35697845089314" lon="-4.355505110320042"><ele>87.83333333333333</ele><time>2026-05-02T08:53:05Z</time></trkpt><trkpt lat="43.35691166798249" lon="-4.355422828973704"><ele>88.0</ele><time>2026-05-02T08:53:06Z</time></trkpt><trkpt lat="43.356847377729885" lon="-4.355334885423301"><ele>89.60000000000001</ele><time>2026-05-02T08:53:07Z</time></trkpt><trkpt lat="43.356786530452894" lon="-4.3552418088358955"><ele>91.2</ele><time>2026-05-02T08:53:08Z</time></trkpt><trkpt lat="43.35671841265533" lon="-4.355156191795302"><ele>92.8</ele><time>2026-05-02T08:53:09Z</time></trkpt><trkpt lat="43.356657849276814" lon="-4.355063895208083"><ele>94.4</ele><time>2026-05-02T08:53:10Z</time></trkpt><trkpt lat="43.356596836991606" lon="-4.354976122399642"><ele>96.0</ele><time>2026-05-02T08:53:11Z</time></trkpt><trkpt lat="43.35653434579643" lon="-4.354887153032725"><ele>96.0</ele><time>2026-05-02T08:53:12Z</time></trkpt><trkpt lat="43.35646846496819" lon="-4.354800646297476"><ele>96.0</ele><time>2026-05-02T08:53:13Z</time></trkpt><trkpt lat="43.35639857351253" lon="-4.354721493067318"><ele>96.0</ele><time>2026-05-02T08:53:14Z</time></trkpt><trkpt lat="43.35632336556153" lon="-4.35464281484717"><ele>96.0</ele><time>2026-05-02T08:53:15Z</time></trkpt><trkpt lat="43.35624383780295" lon="-4.35457611837151"><ele>96.0</ele><time>2026-05-02T08:53:16Z</time></trkpt><trkpt lat="43.356156635606176" lon="-4.354524112723632"><ele>97.19999999999999</ele><time>2026-05-02T08:53:17Z</time></trkpt><trkpt lat="43.35606542175733" lon="-4.354477131770044"><ele>98.39999999999999</ele><time>2026-05-02T08:53:18Z</time></trkpt><trkpt lat="43.35597339808988" lon="-4.354438568093411"><ele>99.6</ele><time>2026-05-02T08:53:19Z</time></trkpt><trkpt lat="43.35587401168667" lon="-4.354430665445217"><ele>100.8</ele><time>2026-05-02T08:53:20Z</time></trkpt><trkpt lat="43.35578393998401" lon="-4.354406908032065"><ele>102.0</ele><time>2026-05-02T08:53:21Z</time></trkpt><trkpt lat="43.35568746963109" lon="-4.354380754622382"><ele>102.0</ele><time>2026-05-02T08:53:22Z</time></trkpt><trkpt lat="43.355594593652555" lon="-4.354336720550613"><ele>102.0</ele><time>2026-05-02T08:53:23Z</time></trkpt><trkpt lat="43.35549962611891" lon="-4.354313644085477"><ele>102.0</ele><time>2026-05-02T08:53:24Z</time></trkpt><trkpt lat="43.35540436211524" lon="-4.3542884484615785"><ele>102.0</ele><time>2026-05-02T08:53:25Z</time></trkpt><trkpt lat="43.35530823568535" lon="-4.35426085962445"><ele>102.0</ele><time>2026-05-02T08:53:26Z</time></trkpt><trkpt lat="43.35521350373683" lon="-4.354232557745043"><ele>102.39999999999999</ele><time>2026-05-02T08:53:27Z</time></trkpt><trkpt lat="43.35511864355779" lon="-4.354204072168303"><ele>102.8</ele><time>2026-05-02T08:53:28Z</time></trkpt><trkpt lat="43.35502553908063" lon="-4.354170912930631"><ele>103.2</ele><time>2026-05-02T08:53:29Z</time></trkpt><trkpt lat="43.35493185711138" lon="-4.354136020748976"><ele>103.6</ele><time>2026-05-02T08:53:30Z</time></trkpt><trkpt lat="43.35483644476306" lon="-4.354098085489646"><ele>104.0</ele><time>2026-05-02T08:53:31Z</time></trkpt><trkpt lat="43.3547384682371" lon="-4.354055191973226"><ele>104.4</ele><time>2026-05-02T08:53:32Z</time></trkpt><trkpt lat="43.35464642010493" lon="-4.354010996848116"><ele>104.80000000000001</ele><time>2026-05-02T08:53:33Z</time></trkpt><trkpt lat="43.35454872373805" lon="-4.353960176868027"><ele>105.19999999999999</ele><time>2026-05-02T08:53:34Z</time></trkpt><trkpt lat="43.35445163237607" lon="-4.353914218893449"><ele>105.6</ele><time>2026-05-02T08:53:35Z</time></trkpt><trkpt lat="43.35435428448489" lon="-4.353868251203077"><ele>106.0</ele><time>2026-05-02T08:53:36.001Z</time></trkpt><trkpt lat="43.354254726062514" lon="-4.353817568836119"><ele>105.19999999999999</ele><time>2026-05-02T08:53:37.001Z</time></trkpt><trkpt lat="43.35415698118336" lon="-4.353771056781773"><ele>104.39999999999999</ele><time>2026-05-02T08:53:38.001Z</time></trkpt><trkpt lat="43.3540599686739" lon="-4.353718629834657"><ele>103.6</ele><time>2026-05-02T08:53:39.001Z</time></trkpt><trkpt lat="43.35396441783471" lon="-4.353667511685656"><ele>102.8</ele><time>2026-05-02T08:53:40.001Z</time></trkpt><trkpt lat="43.35386585286687" lon="-4.3536151443776765"><ele>102.0</ele><time>2026-05-02T08:53:41.001Z</time></trkpt><trkpt lat="43.35376554172466" lon="-4.353559105270209"><ele>102.0</ele><time>2026-05-02T08:53:42.001Z</time></trkpt><trkpt lat="43.353665707511794" lon="-4.353501300231589"><ele>102.0</ele><time>2026-05-02T08:53:43.001Z</time></trkpt><trkpt lat="43.35356600303465" lon="-4.353454011191427"><ele>102.0</ele><time>2026-05-02T08:53:44.001Z</time></trkpt><trkpt lat="43.35346660583872" lon="-4.353404808016339"><ele>102.0</ele><time>2026-05-02T08:53:45.001Z</time></trkpt><trkpt lat="43.353365839952914" lon="-4.353350327753784"><ele>102.0</ele><time>2026-05-02T08:53:46.001Z</time></trkpt><trkpt lat="43.353267050182936" lon="-4.353297534066578"><ele>102.0</ele><time>2026-05-02T08:53:47.001Z</time></trkpt><trkpt lat="43.35316802122635" lon="-4.35324849955472"><ele>102.0</ele><time>2026-05-02T08:53:48.001Z</time></trkpt><trkpt lat="43.35307048086764" lon="-4.353200169633753"><ele>102.0</ele><time>2026-05-02T08:53:49.001Z</time></trkpt><trkpt lat="43.352975171213636" lon="-4.353150111401135"><ele>102.0</ele><time>2026-05-02T08:53:50.001Z</time></trkpt><trkpt lat="43.35287787655844" lon="-4.3530946493693605"><ele>102.0</ele><time>2026-05-02T08:53:51.001Z</time></trkpt><trkpt lat="43.35278243301704" lon="-4.353031377149907"><ele>101.39999999999999</ele><time>2026-05-02T08:53:52.001Z</time></trkpt><trkpt lat="43.35269477645679" lon="-4.352961457631713"><ele>100.8</ele><time>2026-05-02T08:53:53.001Z</time></trkpt><trkpt lat="43.352613754903736" lon="-4.352878055707408"><ele>100.2</ele><time>2026-05-02T08:53:54.001Z</time></trkpt><trkpt lat="43.352534811418366" lon="-4.3527871821244"><ele>99.6</ele><time>2026-05-02T08:53:55.001Z</time></trkpt><trkpt lat="43.35246519019184" lon="-4.352683476232262"><ele>99.0</ele><time>2026-05-02T08:53:56.001Z</time></trkpt><trkpt lat="43.35240203015247" lon="-4.35256255479151"><ele>99.0</ele><time>2026-05-02T08:53:57.001Z</time></trkpt><trkpt lat="43.352345023959174" lon="-4.352428779869522"><ele>99.0</ele><time>2026-05-02T08:53:58.001Z</time></trkpt><trkpt lat="43.35231048981263" lon="-4.352298838928009"><ele>99.0</ele><time>2026-05-02T08:53:59.001Z</time></trkpt><trkpt lat="43.35228516391252" lon="-4.35216517821497"><ele>99.0</ele><time>2026-05-02T08:54:00.001Z</time></trkpt><trkpt lat="43.35227130111277" lon="-4.352021646647572"><ele>99.0</ele><time>2026-05-02T08:54:01.001Z</time></trkpt><trkpt lat="43.352265019117155" lon="-4.351876981381221"><ele>98.0</ele><time>2026-05-02T08:54:02.001Z</time></trkpt><trkpt lat="43.35227351239616" lon="-4.351730105193836"><ele>97.0</ele><time>2026-05-02T08:54:03.001Z</time></trkpt><trkpt lat="43.352290870281166" lon="-4.351582189418557"><ele>96.0</ele><time>2026-05-02T08:54:04.001Z</time></trkpt><trkpt lat="43.35231610907549" lon="-4.3514376770969045"><ele>95.0</ele><time>2026-05-02T08:54:05.001Z</time></trkpt><trkpt lat="43.352348381628026" lon="-4.3512905315608235"><ele>94.0</ele><time>2026-05-02T08:54:06.001Z</time></trkpt><trkpt lat="43.35238874721385" lon="-4.351152341571864"><ele>94.0</ele><time>2026-05-02T08:54:07.001Z</time></trkpt><trkpt lat="43.35241301572719" lon="-4.351018145344756"><ele>94.0</ele><time>2026-05-02T08:54:08.001Z</time></trkpt><trkpt lat="43.352453569204485" lon="-4.35087415800215"><ele>94.0</ele><time>2026-05-02T08:54:09.001Z</time></trkpt><trkpt lat="43.35247903522151" lon="-4.350736188249704"><ele>94.0</ele><time>2026-05-02T08:54:10.001Z</time></trkpt><trkpt lat="43.35251687781193" lon="-4.350596782485874"><ele>94.0</ele><time>2026-05-02T08:54:11.001Z</time></trkpt><trkpt lat="43.352549707925256" lon="-4.350459219364666"><ele>95.0</ele><time>2026-05-02T08:54:12.001Z</time></trkpt><trkpt lat="43.352582250546085" lon="-4.350320776765521"><ele>96.0</ele><time>2026-05-02T08:54:13.001Z</time></trkpt><trkpt lat="43.35260989687801" lon="-4.35018096998209"><ele>97.0</ele><time>2026-05-02T08:54:14.001Z</time></trkpt><trkpt lat="43.35264997301385" lon="-4.35003418665754"><ele>98.0</ele><time>2026-05-02T08:54:15.001Z</time></trkpt><trkpt lat="43.3526809877993" lon="-4.349896617967612"><ele>99.0</ele><time>2026-05-02T08:54:16.001Z</time></trkpt><trkpt lat="43.35271948155142" lon="-4.349753838140048"><ele>99.4</ele><time>2026-05-02T08:54:17.001Z</time></trkpt><trkpt lat="43.35275242676152" lon="-4.349614857607407"><ele>99.80000000000001</ele><time>2026-05-02T08:54:18.001Z</time></trkpt><trkpt lat="43.35278348519034" lon="-4.349478982581483"><ele>100.19999999999999</ele><time>2026-05-02T08:54:19.001Z</time></trkpt><trkpt lat="43.352816887413795" lon="-4.349341950386575"><ele>100.6</ele><time>2026-05-02T08:54:20.001Z</time></trkpt><trkpt lat="43.35284896689827" lon="-4.34920114366271"><ele>101.0</ele><time>2026-05-02T08:54:21.001Z</time></trkpt><trkpt lat="43.35286513905419" lon="-4.349050538135372"><ele>101.0</ele><time>2026-05-02T08:54:22.001Z</time></trkpt><trkpt lat="43.35287490510036" lon="-4.3489051003789125"><ele>101.0</ele><time>2026-05-02T08:54:23.001Z</time></trkpt><trkpt lat="43.3529161869594" lon="-4.348768934282041"><ele>101.0</ele><time>2026-05-02T08:54:24.001Z</time></trkpt><trkpt lat="43.352935151534986" lon="-4.348626730789999"><ele>101.0</ele><time>2026-05-02T08:54:25.001Z</time></trkpt><trkpt lat="43.35294497481099" lon="-4.348484164515071"><ele>101.0</ele><time>2026-05-02T08:54:26.001Z</time></trkpt><trkpt lat="43.352951937005315" lon="-4.348339963636094"><ele>100.6</ele><time>2026-05-02T08:54:27.001Z</time></trkpt><trkpt lat="43.352958328464915" lon="-4.348192335409079"><ele>100.19999999999999</ele><time>2026-05-02T08:54:28.001Z</time></trkpt><trkpt lat="43.35296268676497" lon="-4.348048175596377"><ele>99.80000000000001</ele><time>2026-05-02T08:54:29.001Z</time></trkpt><trkpt lat="43.35295494822712" lon="-4.347902291131486"><ele>99.4</ele><time>2026-05-02T08:54:30.001Z</time></trkpt><trkpt lat="43.35294221987941" lon="-4.347757425471983"><ele>99.0</ele><time>2026-05-02T08:54:31.001Z</time></trkpt><trkpt lat="43.35293489187842" lon="-4.347610054043521"><ele>98.2</ele><time>2026-05-02T08:54:32.001Z</time></trkpt><trkpt lat="43.35290548618701" lon="-4.347466089987406"><ele>97.4</ele><time>2026-05-02T08:54:33.001Z</time></trkpt><trkpt lat="43.35289643451518" lon="-4.347308565170756"><ele>96.6</ele><time>2026-05-02T08:54:34.001Z</time></trkpt><trkpt lat="43.35286404866957" lon="-4.347153983594856"><ele>95.8</ele><time>2026-05-02T08:54:35.001Z</time></trkpt><trkpt lat="43.352835115082435" lon="-4.347025782897371"><ele>95.0</ele><time>2026-05-02T08:54:36.001Z</time></trkpt><trkpt lat="43.352796725792295" lon="-4.346886744398199"><ele>93.2</ele><time>2026-05-02T08:54:37.001Z</time></trkpt><trkpt lat="43.35275593533123" lon="-4.346749850240576"><ele>91.4</ele><time>2026-05-02T08:54:38.001Z</time></trkpt><trkpt lat="43.35271511360302" lon="-4.346601177022358"><ele>89.6</ele><time>2026-05-02T08:54:39.001Z</time></trkpt><trkpt lat="43.35266600266422" lon="-4.34648011053699"><ele>87.8</ele><time>2026-05-02T08:54:40.001Z</time></trkpt><trkpt lat="43.35261728396591" lon="-4.346349467058313"><ele>86.0</ele><time>2026-05-02T08:54:41.001Z</time></trkpt><trkpt lat="43.35256593179373" lon="-4.346214799003109"><ele>84.39999999999999</ele><time>2026-05-02T08:54:42.001Z</time></trkpt><trkpt lat="43.35251005193032" lon="-4.346094678012531"><ele>82.8</ele><time>2026-05-02T08:54:43.001Z</time></trkpt><trkpt lat="43.352458324084324" lon="-4.345968369420766"><ele>81.19999999999999</ele><time>2026-05-02T08:54:44.001Z</time></trkpt><trkpt lat="43.352415034610885" lon="-4.345817707222926"><ele>79.6</ele><time>2026-05-02T08:54:45.001Z</time></trkpt><trkpt lat="43.35235330280393" lon="-4.3456883681479015"><ele>78.0</ele><time>2026-05-02T08:54:46.001Z</time></trkpt><trkpt lat="43.35229443694066" lon="-4.345556144900814"><ele>78.6</ele><time>2026-05-02T08:54:47.001Z</time></trkpt><trkpt lat="43.352240935395116" lon="-4.3454238065070925"><ele>79.19999999999999</ele><time>2026-05-02T08:54:48.001Z</time></trkpt><trkpt lat="43.35218502446114" lon="-4.34528825153154"><ele>79.8</ele><time>2026-05-02T08:54:49Z</time></trkpt><trkpt lat="43.35212969533233" lon="-4.345154185602829"><ele>80.39999999999999</ele><time>2026-05-02T08:54:50Z</time></trkpt><trkpt lat="43.352076591942364" lon="-4.34501946834914"><ele>81.0</ele><time>2026-05-02T08:54:51Z</time></trkpt><trkpt lat="43.352024408218824" lon="-4.3448811399231415"><ele>81.0</ele><time>2026-05-02T08:54:52Z</time></trkpt><trkpt lat="43.35197125983149" lon="-4.3447446542360915"><ele>81.0</ele><time>2026-05-02T08:54:53Z</time></trkpt><trkpt lat="43.3519157678444" lon="-4.344611986607124"><ele>81.0</ele><time>2026-05-02T08:54:54Z</time></trkpt><trkpt lat="43.351861794800875" lon="-4.344477351400858"><ele>81.0</ele><time>2026-05-02T08:54:55Z</time></trkpt><trkpt lat="43.35181044120281" lon="-4.344341024343587"><ele>81.0</ele><time>2026-05-02T08:54:56Z</time></trkpt><trkpt lat="43.35175711802837" lon="-4.344206853730192"><ele>79.2</ele><time>2026-05-02T08:54:57Z</time></trkpt><trkpt lat="43.35170359363573" lon="-4.344072376309337"><ele>77.39999999999999</ele><time>2026-05-02T08:54:58Z</time></trkpt><trkpt lat="43.35165136512116" lon="-4.343936510591359"><ele>75.6</ele><time>2026-05-02T08:54:59Z</time></trkpt><trkpt lat="43.35159983931526" lon="-4.343803078402726"><ele>73.8</ele><time>2026-05-02T08:55:00Z</time></trkpt><trkpt lat="43.35154576570478" lon="-4.3436938875093185"><ele>72.0</ele><time>2026-05-02T08:55:01Z</time></trkpt><trkpt lat="43.351492184781286" lon="-4.343541835515019"><ele>71.2</ele><time>2026-05-02T08:55:02Z</time></trkpt><trkpt lat="43.35143973110384" lon="-4.343406329420701"><ele>70.4</ele><time>2026-05-02T08:55:03Z</time></trkpt><trkpt lat="43.3513870713921" lon="-4.343273815538432"><ele>69.6</ele><time>2026-05-02T08:55:04Z</time></trkpt><trkpt lat="43.35133647275802" lon="-4.343137585185946"><ele>68.8</ele><time>2026-05-02T08:55:05Z</time></trkpt><trkpt lat="43.35128553498444" lon="-4.343000591704954"><ele>68.0</ele><time>2026-05-02T08:55:06Z</time></trkpt><trkpt lat="43.35122810975691" lon="-4.342866306279092"><ele>68.0</ele><time>2026-05-02T08:55:07Z</time></trkpt><trkpt lat="43.35118077668625" lon="-4.342724442061369"><ele>68.0</ele><time>2026-05-02T08:55:08Z</time></trkpt><trkpt lat="43.35113373103811" lon="-4.3425841744979605"><ele>68.0</ele><time>2026-05-02T08:55:09Z</time></trkpt><trkpt lat="43.351092077716125" lon="-4.342439414327933"><ele>68.0</ele><time>2026-05-02T08:55:10Z</time></trkpt><trkpt lat="43.3510587925912" lon="-4.342292967979059"><ele>67.0</ele><time>2026-05-02T08:55:11Z</time></trkpt><trkpt lat="43.35102286225013" lon="-4.342143774476092"><ele>66.0</ele><time>2026-05-02T08:55:12Z</time></trkpt><trkpt lat="43.35099987358644" lon="-4.341991903043034"><ele>65.0</ele><time>2026-05-02T08:55:13Z</time></trkpt><trkpt lat="43.350979208954406" lon="-4.3418395891180515"><ele>64.0</ele><time>2026-05-02T08:55:14Z</time></trkpt><trkpt lat="43.350957860728144" lon="-4.341685352519074"><ele>64.0</ele><time>2026-05-02T08:55:15Z</time></trkpt><trkpt lat="43.350942837763576" lon="-4.3415294102885955"><ele>64.0</ele><time>2026-05-02T08:55:16Z</time></trkpt><trkpt lat="43.35092852205154" lon="-4.341374516364566"><ele>64.0</ele><time>2026-05-02T08:55:17Z</time></trkpt><trkpt lat="43.35091481418072" lon="-4.341220044333601"><ele>64.0</ele><time>2026-05-02T08:55:18Z</time></trkpt><trkpt lat="43.3508995213567" lon="-4.341067179723411"><ele>63.2</ele><time>2026-05-02T08:55:19Z</time></trkpt><trkpt lat="43.35087948617341" lon="-4.340914791176405"><ele>62.400000000000006</ele><time>2026-05-02T08:55:20Z</time></trkpt><trkpt lat="43.35084098546265" lon="-4.340767997293784"><ele>61.6</ele><time>2026-05-02T08:55:21Z</time></trkpt><trkpt lat="43.35079464870018" lon="-4.340627421772483"><ele>60.8</ele><time>2026-05-02T08:55:22Z</time></trkpt><trkpt lat="43.350737292957035" lon="-4.3404992380131"><ele>60.0</ele><time>2026-05-02T08:55:23Z</time></trkpt><trkpt lat="43.35066484568793" lon="-4.3403776378434795"><ele>57.75</ele><time>2026-05-02T08:55:24Z</time></trkpt><trkpt lat="43.35058107621631" lon="-4.340272009356474"><ele>55.5</ele><time>2026-05-02T08:55:25Z</time></trkpt><trkpt lat="43.35047884255214" lon="-4.3401977558454226"><ele>53.25</ele><time>2026-05-02T08:55:26Z</time></trkpt><trkpt lat="43.35038570745323" lon="-4.340108290025507"><ele>51.0</ele><time>2026-05-02T08:55:27Z</time></trkpt><trkpt lat="43.35027686220646" lon="-4.3400504857225"><ele>51.0</ele><time>2026-05-02T08:55:28Z</time></trkpt><trkpt lat="43.350161241047914" lon="-4.340005013313067"><ele>51.0</ele><time>2026-05-02T08:55:29Z</time></trkpt><trkpt lat="43.350049570682394" lon="-4.339979889726387"><ele>51.0</ele><time>2026-05-02T08:55:30Z</time></trkpt><trkpt lat="43.34993387771211" lon="-4.339959117593845"><ele>51.0</ele><time>2026-05-02T08:55:31Z</time></trkpt><trkpt lat="43.34981885018146" lon="-4.33994480719381"><ele>49.8</ele><time>2026-05-02T08:55:32Z</time></trkpt><trkpt lat="43.349706179539126" lon="-4.339932877650043"><ele>48.599999999999994</ele><time>2026-05-02T08:55:33Z</time></trkpt><trkpt lat="43.3495947015812" lon="-4.339919248642088"><ele>47.4</ele><time>2026-05-02T08:55:34Z</time></trkpt><trkpt lat="43.34948360584894" lon="-4.3399057983102365"><ele>46.2</ele><time>2026-05-02T08:55:35Z</time></trkpt><trkpt lat="43.349372509748704" lon="-4.3398862017736635"><ele>45.0</ele><time>2026-05-02T08:55:36Z</time></trkpt><trkpt lat="43.34926282123391" lon="-4.339861908107749"><ele>45.0</ele><time>2026-05-02T08:55:37Z</time></trkpt><trkpt lat="43.349150381921625" lon="-4.33983305903609"><ele>45.0</ele><time>2026-05-02T08:55:38Z</time></trkpt><trkpt lat="43.34904056741231" lon="-4.339786545404929"><ele>45.0</ele><time>2026-05-02T08:55:39Z</time></trkpt><trkpt lat="43.348934842601736" lon="-4.339730426889491"><ele>45.0</ele><time>2026-05-02T08:55:40Z</time></trkpt><trkpt lat="43.34883358755709" lon="-4.339665445934187"><ele>43.75</ele><time>2026-05-02T08:55:41Z</time></trkpt><trkpt lat="43.3487304645069" lon="-4.339591394899689"><ele>42.5</ele><time>2026-05-02T08:55:42Z</time></trkpt><trkpt lat="43.34862966742518" lon="-4.339514212390831"><ele>41.25</ele><time>2026-05-02T08:55:43Z</time></trkpt><trkpt lat="43.348529156848485" lon="-4.339438430089308"><ele>40.0</ele><time>2026-05-02T08:55:44Z</time></trkpt><trkpt lat="43.34843061105295" lon="-4.339360039674416"><ele>40.0</ele><time>2026-05-02T08:55:45Z</time></trkpt><trkpt lat="43.34833279628144" lon="-4.339284201602922"><ele>40.0</ele><time>2026-05-02T08:55:46Z</time></trkpt><trkpt lat="43.34823393855025" lon="-4.339203656908649"><ele>40.0</ele><time>2026-05-02T08:55:47.001Z</time></trkpt><trkpt lat="43.34813664663302" lon="-4.33912723731775"><ele>40.0</ele><time>2026-05-02T08:55:48.001Z</time></trkpt><trkpt lat="43.34803889671991" lon="-4.339051605200141"><ele>39.8</ele><time>2026-05-02T08:55:49.001Z</time></trkpt><trkpt lat="43.34794095456093" lon="-4.338975483137351"><ele>39.6</ele><time>2026-05-02T08:55:50.001Z</time></trkpt><trkpt lat="43.347842809024066" lon="-4.338898711868526"><ele>39.4</ele><time>2026-05-02T08:55:51.001Z</time></trkpt><trkpt lat="43.34775035728116" lon="-4.338821133847667"><ele>39.2</ele><time>2026-05-02T08:55:52.001Z</time></trkpt><trkpt lat="43.34766057945474" lon="-4.338755038259495"><ele>39.0</ele><time>2026-05-02T08:55:53.001Z</time></trkpt><trkpt lat="43.34757330060884" lon="-4.338688709001357"><ele>39.0</ele><time>2026-05-02T08:55:54.001Z</time></trkpt><trkpt lat="43.34748610989885" lon="-4.338626630744612"><ele>39.0</ele><time>2026-05-02T08:55:55.001Z</time></trkpt><trkpt lat="43.347398924794504" lon="-4.338563230319972"><ele>39.0</ele><time>2026-05-02T08:55:56.001Z</time></trkpt><trkpt lat="43.347301267879615" lon="-4.338518047931379"><ele>39.0</ele><time>2026-05-02T08:55:57.001Z</time></trkpt><trkpt lat="43.3472007282077" lon="-4.3384878676217875"><ele>39.0</ele><time>2026-05-02T08:55:58.001Z</time></trkpt><trkpt lat="43.34709926481683" lon="-4.338480166983507"><ele>38.8</ele><time>2026-05-02T08:55:59.001Z</time></trkpt><trkpt lat="43.34699723253288" lon="-4.338472022454989"><ele>38.599999999999994</ele><time>2026-05-02T08:56:00.001Z</time></trkpt><trkpt lat="43.346898178404025" lon="-4.338447659627888"><ele>38.4</ele><time>2026-05-02T08:56:01.001Z</time></trkpt><trkpt lat="43.34679703374" lon="-4.338433499261093"><ele>38.199999999999996</ele><time>2026-05-02T08:56:02.001Z</time></trkpt><trkpt lat="43.34670696599459" lon="-4.338317254370905"><ele>38.0</ele><time>2026-05-02T08:56:03.001Z</time></trkpt><trkpt lat="43.34658452782543" lon="-4.338346402464104"><ele>38.0</ele><time>2026-05-02T08:56:04.001Z</time></trkpt><trkpt lat="43.34648497983488" lon="-4.338385792637275"><ele>38.0</ele><time>2026-05-02T08:56:05.001Z</time></trkpt><trkpt lat="43.34638293217734" lon="-4.338390780462897"><ele>38.0</ele><time>2026-05-02T08:56:06.001Z</time></trkpt><trkpt lat="43.34627902007185" lon="-4.338427510715107"><ele>38.0</ele><time>2026-05-02T08:56:07.001Z</time></trkpt><trkpt lat="43.34617550652713" lon="-4.3384423793264295"><ele>38.0</ele><time>2026-05-02T08:56:08.001Z</time></trkpt><trkpt lat="43.34606791384206" lon="-4.338461718963173"><ele>38.199999999999996</ele><time>2026-05-02T08:56:09.001Z</time></trkpt><trkpt lat="43.345955522862994" lon="-4.338496440596012"><ele>38.4</ele><time>2026-05-02T08:56:10.001Z</time></trkpt><trkpt lat="43.34584812714642" lon="-4.338521139004525"><ele>38.599999999999994</ele><time>2026-05-02T08:56:11.001Z</time></trkpt><trkpt lat="43.34574239645401" lon="-4.338541650946494"><ele>38.8</ele><time>2026-05-02T08:56:12.001Z</time></trkpt><trkpt lat="43.345629730008945" lon="-4.338570937604155"><ele>39.0</ele><time>2026-05-02T08:56:13.001Z</time></trkpt><trkpt lat="43.345483974114195" lon="-4.338627901522831"><ele>40.0</ele><time>2026-05-02T08:56:14.001Z</time></trkpt><trkpt lat="43.345363787882384" lon="-4.338684665496085"><ele>41.0</ele><time>2026-05-02T08:56:15.001Z</time></trkpt><trkpt lat="43.345263732143394" lon="-4.338693382965122"><ele>42.0</ele><time>2026-05-02T08:56:17.001Z</time></trkpt><trkpt lat="43.34511475479198" lon="-4.338660736105109"><ele>43.0</ele><time>2026-05-02T08:56:18.001Z</time></trkpt><trkpt lat="43.345009499775195" lon="-4.338649615005881"><ele>43.0</ele><time>2026-05-02T08:56:19.001Z</time></trkpt><trkpt lat="43.34490342365445" lon="-4.338619068949737"><ele>43.0</ele><time>2026-05-02T08:56:20.001Z</time></trkpt><trkpt lat="43.34480592843585" lon="-4.338575898866371"><ele>43.0</ele><time>2026-05-02T08:56:21.001Z</time></trkpt><trkpt lat="43.344712046351866" lon="-4.338515301694604"><ele>43.0</ele><time>2026-05-02T08:56:22.001Z</time></trkpt><trkpt lat="43.344623037028704" lon="-4.338442197344547"><ele>43.0</ele><time>2026-05-02T08:56:23.001Z</time></trkpt><trkpt lat="43.344535206967386" lon="-4.338359089261469"><ele>44.2</ele><time>2026-05-02T08:56:24.001Z</time></trkpt><trkpt lat="43.34445979106011" lon="-4.338266329612291"><ele>45.4</ele><time>2026-05-02T08:56:25.001Z</time></trkpt><trkpt lat="43.344392162289665" lon="-4.3381511741261765"><ele>46.6</ele><time>2026-05-02T08:56:26.001Z</time></trkpt><trkpt lat="43.34432992877721" lon="-4.338032784770233"><ele>47.800000000000004</ele><time>2026-05-02T08:56:27.001Z</time></trkpt><trkpt lat="43.344280185334725" lon="-4.33790725238643"><ele>49.0</ele><time>2026-05-02T08:56:28.001Z</time></trkpt><trkpt lat="43.34423422527566" lon="-4.337768614903524"><ele>49.0</ele><time>2026-05-02T08:56:29.001Z</time></trkpt><trkpt lat="43.3441796063222" lon="-4.33765502434632"><ele>49.0</ele><time>2026-05-02T08:56:30.001Z</time></trkpt><trkpt lat="43.34413533778862" lon="-4.337531031292556"><ele>49.0</ele><time>2026-05-02T08:56:31.001Z</time></trkpt><trkpt lat="43.34408605789389" lon="-4.337437425073054"><ele>49.0</ele><time>2026-05-02T08:56:32.001Z</time></trkpt><trkpt lat="43.34401188799086" lon="-4.337283108573403"><ele>49.0</ele><time>2026-05-02T08:56:33.001Z</time></trkpt><trkpt lat="43.3439410568308" lon="-4.337175223817249"><ele>50.2</ele><time>2026-05-02T08:56:34.001Z</time></trkpt><trkpt lat="43.343854717318465" lon="-4.3370942581229235"><ele>51.400000000000006</ele><time>2026-05-02T08:56:35.001Z</time></trkpt><trkpt lat="43.34376770123295" lon="-4.337012490002293"><ele>52.6</ele><time>2026-05-02T08:56:36.001Z</time></trkpt><trkpt lat="43.34368134108089" lon="-4.336937714141073"><ele>53.8</ele><time>2026-05-02T08:56:37.001Z</time></trkpt><trkpt lat="43.3435917972568" lon="-4.336853449115705"><ele>55.0</ele><time>2026-05-02T08:56:38.001Z</time></trkpt><trkpt lat="43.343498529382366" lon="-4.336787090263539"><ele>55.0</ele><time>2026-05-02T08:56:39.001Z</time></trkpt><trkpt lat="43.34340249130699" lon="-4.336723850806165"><ele>55.0</ele><time>2026-05-02T08:56:40.001Z</time></trkpt><trkpt lat="43.343306129954115" lon="-4.336659772102478"><ele>55.0</ele><time>2026-05-02T08:56:41.001Z</time></trkpt><trkpt lat="43.34320907018633" lon="-4.336595799717985"><ele>55.0</ele><time>2026-05-02T08:56:42.001Z</time></trkpt><trkpt lat="43.343112844900425" lon="-4.3365310182971015"><ele>55.0</ele><time>2026-05-02T08:56:43.001Z</time></trkpt><trkpt lat="43.34301646716344" lon="-4.336465447072967"><ele>54.2</ele><time>2026-05-02T08:56:44.001Z</time></trkpt><trkpt lat="43.342923116546004" lon="-4.336400312066439"><ele>53.4</ele><time>2026-05-02T08:56:45.001Z</time></trkpt><trkpt lat="43.34282602261724" lon="-4.336335965896577"><ele>52.599999999999994</ele><time>2026-05-02T08:56:46.001Z</time></trkpt><trkpt lat="43.34272808694086" lon="-4.336269960724421"><ele>51.8</ele><time>2026-05-02T08:56:47.001Z</time></trkpt><trkpt lat="43.34262815225717" lon="-4.336204462855315"><ele>51.0</ele><time>2026-05-02T08:56:48.001Z</time></trkpt><trkpt lat="43.34253005798241" lon="-4.33613786871408"><ele>51.0</ele><time>2026-05-02T08:56:49.001Z</time></trkpt><trkpt lat="43.34243454473336" lon="-4.336074423259163"><ele>51.0</ele><time>2026-05-02T08:56:50.001Z</time></trkpt><trkpt lat="43.342337805148446" lon="-4.336008176203446"><ele>51.0</ele><time>2026-05-02T08:56:51.001Z</time></trkpt><trkpt lat="43.34224365471008" lon="-4.335945126047979"><ele>51.0</ele><time>2026-05-02T08:56:52.001Z</time></trkpt><trkpt lat="43.34214718447742" lon="-4.335879295263518"><ele>51.0</ele><time>2026-05-02T08:56:53.001Z</time></trkpt><trkpt lat="43.34205316782783" lon="-4.33581481403233"><ele>51.199999999999996</ele><time>2026-05-02T08:56:54.001Z</time></trkpt><trkpt lat="43.34195888687332" lon="-4.335750963929172"><ele>51.4</ele><time>2026-05-02T08:56:55Z</time></trkpt><trkpt lat="43.34186408310001" lon="-4.335687414147462"><ele>51.6</ele><time>2026-05-02T08:56:56Z</time></trkpt><trkpt lat="43.34176827660779" lon="-4.335627327630409"><ele>51.8</ele><time>2026-05-02T08:56:57Z</time></trkpt><trkpt lat="43.34166771536693" lon="-4.335571273685"><ele>52.0</ele><time>2026-05-02T08:56:58Z</time></trkpt><trkpt lat="43.34157029391221" lon="-4.335517482332984"><ele>52.0</ele><time>2026-05-02T08:56:59Z</time></trkpt><trkpt lat="43.34146849108335" lon="-4.33546099815855"><ele>52.0</ele><time>2026-05-02T08:57:00Z</time></trkpt><trkpt lat="43.34136906072668" lon="-4.33541156379842"><ele>52.0</ele><time>2026-05-02T08:57:01Z</time></trkpt><trkpt lat="43.341270373226564" lon="-4.3353597478407515"><ele>52.0</ele><time>2026-05-02T08:57:02Z</time></trkpt><trkpt lat="43.34117108209686" lon="-4.335311459889169"><ele>52.0</ele><time>2026-05-02T08:57:03Z</time></trkpt><trkpt lat="43.34107113864823" lon="-4.335264897571603"><ele>52.0</ele><time>2026-05-02T08:57:04Z</time></trkpt><trkpt lat="43.34097294396225" lon="-4.335230227969265"><ele>52.0</ele><time>2026-05-02T08:57:05Z</time></trkpt><trkpt lat="43.34087017518279" lon="-4.335191790552099"><ele>52.0</ele><time>2026-05-02T08:57:06Z</time></trkpt><trkpt lat="43.34076705529444" lon="-4.335153555068047"><ele>52.0</ele><time>2026-05-02T08:57:07Z</time></trkpt><trkpt lat="43.34066107427907" lon="-4.335123442447323"><ele>52.0</ele><time>2026-05-02T08:57:08Z</time></trkpt><trkpt lat="43.34055277901591" lon="-4.3351030190402575"><ele>51.6</ele><time>2026-05-02T08:57:09Z</time></trkpt><trkpt lat="43.34044601945125" lon="-4.335090273917689"><ele>51.2</ele><time>2026-05-02T08:57:10Z</time></trkpt><trkpt lat="43.340332786093114" lon="-4.335096455333968"><ele>50.8</ele><time>2026-05-02T08:57:11Z</time></trkpt><trkpt lat="43.34022518140389" lon="-4.335124138334754"><ele>50.4</ele><time>2026-05-02T08:57:12Z</time></trkpt><trkpt lat="43.3401229918573" lon="-4.3351778794121465"><ele>50.0</ele><time>2026-05-02T08:57:13Z</time></trkpt><trkpt lat="43.34002781972236" lon="-4.335240006803652"><ele>50.0</ele><time>2026-05-02T08:57:14Z</time></trkpt><trkpt lat="43.33993905659078" lon="-4.335313905225225"><ele>50.0</ele><time>2026-05-02T08:57:15Z</time></trkpt><trkpt lat="43.33986105246926" lon="-4.335405893610168"><ele>50.0</ele><time>2026-05-02T08:57:16Z</time></trkpt><trkpt lat="43.33976913483851" lon="-4.33548932554994"><ele>50.0</ele><time>2026-05-02T08:57:17Z</time></trkpt><trkpt lat="43.339683408047065" lon="-4.335563743870205"><ele>50.0</ele><time>2026-05-02T08:57:18Z</time></trkpt><trkpt lat="43.3395924380607" lon="-4.335645661679686"><ele>51.2</ele><time>2026-05-02T08:57:19Z</time></trkpt><trkpt lat="43.339508464913735" lon="-4.335716807367396"><ele>52.4</ele><time>2026-05-02T08:57:20Z</time></trkpt><trkpt lat="43.33942725788465" lon="-4.335796744410785"><ele>53.599999999999994</ele><time>2026-05-02T08:57:21Z</time></trkpt><trkpt lat="43.3393463878996" lon="-4.335879866880509"><ele>54.8</ele><time>2026-05-02T08:57:22Z</time></trkpt><trkpt lat="43.33925478772588" lon="-4.33594588222042"><ele>56.0</ele><time>2026-05-02T08:57:23Z</time></trkpt><trkpt lat="43.339166733237164" lon="-4.3360121952637005"><ele>56.0</ele><time>2026-05-02T08:57:24Z</time></trkpt><trkpt lat="43.339073404535725" lon="-4.3360713835089975"><ele>55.99999999999999</ele><time>2026-05-02T08:57:25Z</time></trkpt><trkpt lat="43.33897742163397" lon="-4.3361152419195435"><ele>55.99999999999999</ele><time>2026-05-02T08:57:26Z</time></trkpt><trkpt lat="43.33887612009543" lon="-4.336148245079884"><ele>56.0</ele><time>2026-05-02T08:57:27Z</time></trkpt><trkpt lat="43.33877161723335" lon="-4.336159342924474"><ele>56.0</ele><time>2026-05-02T08:57:28Z</time></trkpt><trkpt lat="43.33866701108823" lon="-4.336163188249292"><ele>58.0</ele><time>2026-05-02T08:57:29Z</time></trkpt><trkpt lat="43.33856672740154" lon="-4.336147193750952"><ele>59.99999999999999</ele><time>2026-05-02T08:57:30Z</time></trkpt><trkpt lat="43.338462731116365" lon="-4.33611907493532"><ele>61.99999999999999</ele><time>2026-05-02T08:57:31Z</time></trkpt><trkpt lat="43.33836219101865" lon="-4.336085440299111"><ele>64.0</ele><time>2026-05-02T08:57:32Z</time></trkpt><trkpt lat="43.338262889263305" lon="-4.336050769659471"><ele>66.0</ele><time>2026-05-02T08:57:33Z</time></trkpt><trkpt lat="43.33815349343695" lon="-4.336017941702027"><ele>66.0</ele><time>2026-05-02T08:57:34Z</time></trkpt><trkpt lat="43.33806029856753" lon="-4.3359732023180815"><ele>66.0</ele><time>2026-05-02T08:57:35Z</time></trkpt><trkpt lat="43.33795087045834" lon="-4.33592702457949"><ele>66.0</ele><time>2026-05-02T08:57:36Z</time></trkpt><trkpt lat="43.33785371217324" lon="-4.335888271614615"><ele>66.0</ele><time>2026-05-02T08:57:37Z</time></trkpt><trkpt lat="43.337746631437525" lon="-4.335847084406561"><ele>66.0</ele><time>2026-05-02T08:57:38Z</time></trkpt><trkpt lat="43.33764990136715" lon="-4.335807115194569"><ele>66.39999999999999</ele><time>2026-05-02T08:57:39Z</time></trkpt><trkpt lat="43.33755262561582" lon="-4.335766823658866"><ele>66.8</ele><time>2026-05-02T08:57:40Z</time></trkpt><trkpt lat="43.33745315193592" lon="-4.335723181845346"><ele>67.19999999999999</ele><time>2026-05-02T08:57:41Z</time></trkpt><trkpt lat="43.33735547309463" lon="-4.335690406566857"><ele>67.6</ele><time>2026-05-02T08:57:42Z</time></trkpt><trkpt lat="43.337254687139364" lon="-4.335653895085854"><ele>68.0</ele><time>2026-05-02T08:57:43Z</time></trkpt><trkpt lat="43.33715626269181" lon="-4.335620061275661"><ele>68.0</ele><time>2026-05-02T08:57:44Z</time></trkpt><trkpt lat="43.337057483173474" lon="-4.33558556285013"><ele>68.0</ele><time>2026-05-02T08:57:45Z</time></trkpt><trkpt lat="43.336959742344355" lon="-4.335556262021783"><ele>68.0</ele><time>2026-05-02T08:57:46Z</time></trkpt><trkpt lat="43.336863394041934" lon="-4.335541563744888"><ele>68.0</ele><time>2026-05-02T08:57:47Z</time></trkpt><trkpt lat="43.33676355082036" lon="-4.335527746699707"><ele>68.0</ele><time>2026-05-02T08:57:48Z</time></trkpt><trkpt lat="43.33666301650077" lon="-4.335525294019315"><ele>68.0</ele><time>2026-05-02T08:57:49Z</time></trkpt><trkpt lat="43.336564427699045" lon="-4.335541185686847"><ele>68.0</ele><time>2026-05-02T08:57:50Z</time></trkpt><trkpt lat="43.33646925436741" lon="-4.335570603040442"><ele>68.0</ele><time>2026-05-02T08:57:51Z</time></trkpt><trkpt lat="43.33637566426011" lon="-4.33560755385832"><ele>68.0</ele><time>2026-05-02T08:57:52Z</time></trkpt><trkpt lat="43.336283111059174" lon="-4.3356535109242555"><ele>68.0</ele><time>2026-05-02T08:57:53Z</time></trkpt><trkpt lat="43.33619353207429" lon="-4.3357043116182306"><ele>68.4</ele><time>2026-05-02T08:57:54Z</time></trkpt><trkpt lat="43.336101126652366" lon="-4.3357566061819695"><ele>68.8</ele><time>2026-05-02T08:57:55Z</time></trkpt><trkpt lat="43.336011900807925" lon="-4.335812259097637"><ele>69.2</ele><time>2026-05-02T08:57:56Z</time></trkpt><trkpt lat="43.3359229759825" lon="-4.335870473145349"><ele>69.6</ele><time>2026-05-02T08:57:57Z</time></trkpt><trkpt lat="43.33583595042314" lon="-4.335927681889977"><ele>70.0</ele><time>2026-05-02T08:57:58Z</time></trkpt><trkpt lat="43.33574596180274" lon="-4.335986316224754"><ele>70.0</ele><time>2026-05-02T08:57:59Z</time></trkpt><trkpt lat="43.33565673454729" lon="-4.336035655123112"><ele>70.0</ele><time>2026-05-02T08:58:00Z</time></trkpt><trkpt lat="43.335563983055714" lon="-4.336076715729309"><ele>70.0</ele><time>2026-05-02T08:58:01Z</time></trkpt><trkpt lat="43.33547100350184" lon="-4.336112136210541"><ele>70.0</ele><time>2026-05-02T08:58:02Z</time></trkpt><trkpt lat="43.335376680885915" lon="-4.336144746884398"><ele>70.0</ele><time>2026-05-02T08:58:03Z</time></trkpt><trkpt lat="43.33528223963063" lon="-4.336160578981914"><ele>71.6</ele><time>2026-05-02T08:58:04Z</time></trkpt><trkpt lat="43.33518471919426" lon="-4.336167601226536"><ele>73.2</ele><time>2026-05-02T08:58:05Z</time></trkpt><trkpt lat="43.33508818112783" lon="-4.336159108810973"><ele>74.8</ele><time>2026-05-02T08:58:06Z</time></trkpt><trkpt lat="43.33499108013165" lon="-4.336128661547461"><ele>76.4</ele><time>2026-05-02T08:58:07.001Z</time></trkpt><trkpt lat="43.334894974762236" lon="-4.336092292453813"><ele>78.0</ele><time>2026-05-02T08:58:08.001Z</time></trkpt><trkpt lat="43.33480461769509" lon="-4.336049811408001"><ele>78.2</ele><time>2026-05-02T08:58:09.001Z</time></trkpt><trkpt lat="43.33471732309026" lon="-4.335992461637753"><ele>78.4</ele><time>2026-05-02T08:58:10.001Z</time></trkpt><trkpt lat="43.3346314193452" lon="-4.335920747167431"><ele>78.60000000000001</ele><time>2026-05-02T08:58:11.001Z</time></trkpt><trkpt lat="43.334549609547096" lon="-4.335850352345217"><ele>78.8</ele><time>2026-05-02T08:58:12.001Z</time></trkpt><trkpt lat="43.33447100574591" lon="-4.335770554535565"><ele>79.0</ele><time>2026-05-02T08:58:13.001Z</time></trkpt><trkpt lat="43.33439790086132" lon="-4.3356846882943385"><ele>79.0</ele><time>2026-05-02T08:58:14.001Z</time></trkpt><trkpt lat="43.3343302195653" lon="-4.335590285459593"><ele>79.0</ele><time>2026-05-02T08:58:15.001Z</time></trkpt><trkpt lat="43.334269964885316" lon="-4.335488246758123"><ele>79.0</ele><time>2026-05-02T08:58:16.001Z</time></trkpt><trkpt lat="43.334212822171445" lon="-4.3353804475639"><ele>79.0</ele><time>2026-05-02T08:58:17.001Z</time></trkpt><trkpt lat="43.334155205864235" lon="-4.33527547240019"><ele>79.0</ele><time>2026-05-02T08:58:18.001Z</time></trkpt><trkpt lat="43.33409612110269" lon="-4.33516908111618"><ele>79.4</ele><time>2026-05-02T08:58:19.001Z</time></trkpt><trkpt lat="43.33403574966016" lon="-4.33505965287976"><ele>79.80000000000001</ele><time>2026-05-02T08:58:20.001Z</time></trkpt><trkpt lat="43.333977102456316" lon="-4.334954603748537"><ele>80.19999999999999</ele><time>2026-05-02T08:58:21.001Z</time></trkpt><trkpt lat="43.333916880569475" lon="-4.334841763754892"><ele>80.6</ele><time>2026-05-02T08:58:22.001Z</time></trkpt><trkpt lat="43.33385996004945" lon="-4.3347290510820216"><ele>81.0</ele><time>2026-05-02T08:58:23.001Z</time></trkpt><trkpt lat="43.33379707228795" lon="-4.334622575941225"><ele>81.19999999999999</ele><time>2026-05-02T08:58:24.001Z</time></trkpt><trkpt lat="43.33373178521945" lon="-4.334519671899421"><ele>81.39999999999999</ele><time>2026-05-02T08:58:25.001Z</time></trkpt><trkpt lat="43.33366821353194" lon="-4.334414413820696"><ele>81.6</ele><time>2026-05-02T08:58:26.001Z</time></trkpt><trkpt lat="43.33360271170639" lon="-4.334314304898695"><ele>81.8</ele><time>2026-05-02T08:58:27.001Z</time></trkpt><trkpt lat="43.33353534230104" lon="-4.33421522184273"><ele>82.0</ele><time>2026-05-02T08:58:28.001Z</time></trkpt><trkpt lat="43.333467487166445" lon="-4.334115712438366"><ele>82.0</ele><time>2026-05-02T08:58:29.001Z</time></trkpt><trkpt lat="43.333395673061126" lon="-4.334017662127964"><ele>82.0</ele><time>2026-05-02T08:58:30.001Z</time></trkpt><trkpt lat="43.333322344052455" lon="-4.333925477312741"><ele>82.0</ele><time>2026-05-02T08:58:31.001Z</time></trkpt><trkpt lat="43.33324476135982" lon="-4.333841610384543"><ele>82.0</ele><time>2026-05-02T08:58:32.001Z</time></trkpt><trkpt lat="43.333167525133845" lon="-4.333756742221521"><ele>82.0</ele><time>2026-05-02T08:58:33.001Z</time></trkpt><trkpt lat="43.33308911407642" lon="-4.333671989413741"><ele>83.0</ele><time>2026-05-02T08:58:34.001Z</time></trkpt><trkpt lat="43.33300803135472" lon="-4.333593600814671"><ele>84.0</ele><time>2026-05-02T08:58:35.001Z</time></trkpt><trkpt lat="43.33292448446441" lon="-4.333518405778121"><ele>85.0</ele><time>2026-05-02T08:58:36.001Z</time></trkpt><trkpt lat="43.332841973613704" lon="-4.33344717414785"><ele>86.0</ele><time>2026-05-02T08:58:37.001Z</time></trkpt><trkpt lat="43.33275866091792" lon="-4.333377487673382"><ele>87.0</ele><time>2026-05-02T08:58:38.001Z</time></trkpt><trkpt lat="43.33267312686605" lon="-4.333312756582439"><ele>87.0</ele><time>2026-05-02T08:58:39.001Z</time></trkpt><trkpt lat="43.3325871932502" lon="-4.3332509755076325"><ele>87.0</ele><time>2026-05-02T08:58:40.001Z</time></trkpt><trkpt lat="43.33249987751313" lon="-4.333191924304473"><ele>87.0</ele><time>2026-05-02T08:58:41.001Z</time></trkpt><trkpt lat="43.33241193898035" lon="-4.333135941844647"><ele>87.0</ele><time>2026-05-02T08:58:42.001Z</time></trkpt><trkpt lat="43.33232551483364" lon="-4.333081773241143"><ele>87.0</ele><time>2026-05-02T08:58:43.001Z</time></trkpt><trkpt lat="43.3322374008044" lon="-4.333028224577584"><ele>88.39999999999999</ele><time>2026-05-02T08:58:44.001Z</time></trkpt><trkpt lat="43.332152827921306" lon="-4.332973558484701"><ele>89.8</ele><time>2026-05-02T08:58:45.001Z</time></trkpt><trkpt lat="43.33206942282112" lon="-4.33291354942209"><ele>91.2</ele><time>2026-05-02T08:58:46.001Z</time></trkpt><trkpt lat="43.33198650458089" lon="-4.3328529058183705"><ele>92.6</ele><time>2026-05-02T08:58:47.001Z</time></trkpt><trkpt lat="43.33190157625152" lon="-4.332793313218869"><ele>94.0</ele><time>2026-05-02T08:58:48.001Z</time></trkpt><trkpt lat="43.33181916126423" lon="-4.3327329842293825"><ele>94.0</ele><time>2026-05-02T08:58:49.001Z</time></trkpt><trkpt lat="43.331745025329845" lon="-4.332654483061019"><ele>94.0</ele><time>2026-05-02T08:58:50.001Z</time></trkpt><trkpt lat="43.33167754677172" lon="-4.332567599499207"><ele>94.0</ele><time>2026-05-02T08:58:51.001Z</time></trkpt><trkpt lat="43.33161142767958" lon="-4.3324695450709605"><ele>94.0</ele><time>2026-05-02T08:58:52.001Z</time></trkpt><trkpt lat="43.331549337825685" lon="-4.332371984714005"><ele>94.0</ele><time>2026-05-02T08:58:53.001Z</time></trkpt><trkpt lat="43.33148967862087" lon="-4.33226536588566"><ele>95.4</ele><time>2026-05-02T08:58:54.001Z</time></trkpt><trkpt lat="43.33143641887028" lon="-4.332149619375671"><ele>96.80000000000001</ele><time>2026-05-02T08:58:55.001Z</time></trkpt><trkpt lat="43.33139175060613" lon="-4.332028729509613"><ele>98.19999999999999</ele><time>2026-05-02T08:58:56.001Z</time></trkpt><trkpt lat="43.331351589143516" lon="-4.331902942562098"><ele>99.6</ele><time>2026-05-02T08:58:57.001Z</time></trkpt><trkpt lat="43.3313190346962" lon="-4.331774091984114"><ele>101.0</ele><time>2026-05-02T08:58:58.001Z</time></trkpt><trkpt lat="43.33128828167233" lon="-4.331644394535725"><ele>101.19999999999999</ele><time>2026-05-02T08:58:59.001Z</time></trkpt><trkpt lat="43.3312571282204" lon="-4.331514776793913"><ele>101.39999999999999</ele><time>2026-05-02T08:59:00.001Z</time></trkpt><trkpt lat="43.331228006248104" lon="-4.331383635453102"><ele>101.6</ele><time>2026-05-02T08:59:01Z</time></trkpt><trkpt lat="43.33119835396317" lon="-4.331255898058631"><ele>101.8</ele><time>2026-05-02T08:59:02Z</time></trkpt><trkpt lat="43.33116902643415" lon="-4.331124146034208"><ele>102.0</ele><time>2026-05-02T08:59:03Z</time></trkpt><trkpt lat="43.33114563135419" lon="-4.330994138496035"><ele>102.39999999999999</ele><time>2026-05-02T08:59:04Z</time></trkpt><trkpt lat="43.33111421741748" lon="-4.330862622531022"><ele>102.8</ele><time>2026-05-02T08:59:05Z</time></trkpt><trkpt lat="43.33108509774443" lon="-4.330736185999513"><ele>103.2</ele><time>2026-05-02T08:59:06Z</time></trkpt><trkpt lat="43.331054548476764" lon="-4.330605074181189"><ele>103.6</ele><time>2026-05-02T08:59:07Z</time></trkpt><trkpt lat="43.33101621426855" lon="-4.330479989006005"><ele>104.0</ele><time>2026-05-02T08:59:08Z</time></trkpt><trkpt lat="43.330975880021725" lon="-4.3303552028643075"><ele>104.6</ele><time>2026-05-02T08:59:09Z</time></trkpt><trkpt lat="43.330934174250004" lon="-4.330230057808877"><ele>105.2</ele><time>2026-05-02T08:59:10Z</time></trkpt><trkpt lat="43.330891260306466" lon="-4.330107798164133"><ele>105.79999999999998</ele><time>2026-05-02T08:59:11Z</time></trkpt><trkpt lat="43.33084598153004" lon="-4.329986285688707"><ele>106.39999999999999</ele><time>2026-05-02T08:59:12Z</time></trkpt><trkpt lat="43.33079812246845" lon="-4.329865728941983"><ele>107.0</ele><time>2026-05-02T08:59:13Z</time></trkpt><trkpt lat="43.33074857503612" lon="-4.329750009134688"><ele>107.19999999999999</ele><time>2026-05-02T08:59:14Z</time></trkpt><trkpt lat="43.330697196410526" lon="-4.329634780756136"><ele>107.39999999999999</ele><time>2026-05-02T08:59:15Z</time></trkpt><trkpt lat="43.33064577070861" lon="-4.329515467401979"><ele>107.60000000000001</ele><time>2026-05-02T08:59:16Z</time></trkpt><trkpt lat="43.33059688991381" lon="-4.329398264832544"><ele>107.80000000000001</ele><time>2026-05-02T08:59:17Z</time></trkpt><trkpt lat="43.330547273907094" lon="-4.329283624503379"><ele>108.0</ele><time>2026-05-02T08:59:18Z</time></trkpt><trkpt lat="43.33049641777945" lon="-4.329165874278846"><ele>108.4</ele><time>2026-05-02T08:59:19Z</time></trkpt><trkpt lat="43.33044809736435" lon="-4.329050912608377"><ele>108.80000000000001</ele><time>2026-05-02T08:59:20Z</time></trkpt><trkpt lat="43.33039991418067" lon="-4.328938405181775"><ele>109.2</ele><time>2026-05-02T08:59:21Z</time></trkpt><trkpt lat="43.33035277016666" lon="-4.328822140086244"><ele>109.6</ele><time>2026-05-02T08:59:22Z</time></trkpt><trkpt lat="43.33030325376397" lon="-4.328704990326713"><ele>110.0</ele><time>2026-05-02T08:59:23Z</time></trkpt><trkpt lat="43.330255440084336" lon="-4.328594542931255"><ele>109.2</ele><time>2026-05-02T08:59:24Z</time></trkpt><trkpt lat="43.330210229729474" lon="-4.32847453867798"><ele>108.4</ele><time>2026-05-02T08:59:25Z</time></trkpt><trkpt lat="43.33015795925832" lon="-4.328358671201938"><ele>107.6</ele><time>2026-05-02T08:59:26Z</time></trkpt><trkpt lat="43.33010570827263" lon="-4.3282410712291295"><ele>106.8</ele><time>2026-05-02T08:59:27Z</time></trkpt><trkpt lat="43.33005509734302" lon="-4.328123779467636"><ele>106.0</ele><time>2026-05-02T08:59:28Z</time></trkpt><trkpt lat="43.33000367387441" lon="-4.327999317750209"><ele>108.19999999999999</ele><time>2026-05-02T08:59:29Z</time></trkpt><trkpt lat="43.32995192526805" lon="-4.327875213014425"><ele>110.39999999999999</ele><time>2026-05-02T08:59:30Z</time></trkpt><trkpt lat="43.3299007089368" lon="-4.3277484948166745"><ele>112.6</ele><time>2026-05-02T08:59:31Z</time></trkpt><trkpt lat="43.3298531042826" lon="-4.3276333800074385"><ele>114.8</ele><time>2026-05-02T08:59:32Z</time></trkpt><trkpt lat="43.32979129772636" lon="-4.327475207655015"><ele>117.0</ele><time>2026-05-02T08:59:33Z</time></trkpt><trkpt lat="43.32973878592102" lon="-4.327269501260772"><ele>115.25</ele><time>2026-05-02T08:59:34Z</time></trkpt><trkpt lat="43.32965788870419" lon="-4.327090352302139"><ele>113.5</ele><time>2026-05-02T08:59:35Z</time></trkpt><trkpt lat="43.32957188587195" lon="-4.32694366420887"><ele>111.75</ele><time>2026-05-02T08:59:36Z</time></trkpt><trkpt lat="43.32952376574015" lon="-4.326874116506049"><ele>110.0</ele><time>2026-05-02T08:59:38Z</time></trkpt><trkpt lat="43.329461179961555" lon="-4.326744696976469"><ele>110.0</ele><time>2026-05-02T08:59:39Z</time></trkpt><trkpt lat="43.329397736303555" lon="-4.326618124844763"><ele>110.0</ele><time>2026-05-02T08:59:40Z</time></trkpt><trkpt lat="43.32933246857564" lon="-4.326494715939137"><ele>110.0</ele><time>2026-05-02T08:59:41Z</time></trkpt><trkpt lat="43.32926711231929" lon="-4.326368865359055"><ele>110.0</ele><time>2026-05-02T08:59:42Z</time></trkpt><trkpt lat="43.32919770437883" lon="-4.326254402949477"><ele>110.0</ele><time>2026-05-02T08:59:43Z</time></trkpt><trkpt lat="43.3291274881803" lon="-4.326143023142434"><ele>109.5</ele><time>2026-05-02T08:59:44Z</time></trkpt><trkpt lat="43.329055676669384" lon="-4.326029898023784"><ele>109.0</ele><time>2026-05-02T08:59:45Z</time></trkpt><trkpt lat="43.32897801109607" lon="-4.325915936208086"><ele>108.5</ele><time>2026-05-02T08:59:46Z</time></trkpt><trkpt lat="43.328895289618664" lon="-4.325811355794113"><ele>108.0</ele><time>2026-05-02T08:59:47Z</time></trkpt><trkpt lat="43.328811973556846" lon="-4.325703369076977"><ele>108.0</ele><time>2026-05-02T08:59:48Z</time></trkpt><trkpt lat="43.32872960840959" lon="-4.3256003333459505"><ele>108.00000000000001</ele><time>2026-05-02T08:59:49Z</time></trkpt><trkpt lat="43.328642723945144" lon="-4.325503054204143"><ele>108.00000000000001</ele><time>2026-05-02T08:59:50Z</time></trkpt><trkpt lat="43.32856072720673" lon="-4.325402404208887"><ele>108.0</ele><time>2026-05-02T08:59:51Z</time></trkpt><trkpt lat="43.32847479616484" lon="-4.325299069642504"><ele>108.0</ele><time>2026-05-02T08:59:52Z</time></trkpt><trkpt lat="43.32838515685679" lon="-4.325204226655195"><ele>108.60000000000001</ele><time>2026-05-02T08:59:53Z</time></trkpt><trkpt lat="43.328301733898684" lon="-4.325108843290957"><ele>109.20000000000002</ele><time>2026-05-02T08:59:54Z</time></trkpt><trkpt lat="43.32821632507305" lon="-4.325008552980106"><ele>109.8</ele><time>2026-05-02T08:59:55Z</time></trkpt><trkpt lat="43.32813058612671" lon="-4.324907251542904"><ele>110.4</ele><time>2026-05-02T08:59:56Z</time></trkpt><trkpt lat="43.328045523382805" lon="-4.324810266861197"><ele>111.0</ele><time>2026-05-02T08:59:57Z</time></trkpt><trkpt lat="43.327960245127095" lon="-4.3247127447257165"><ele>111.0</ele><time>2026-05-02T08:59:58Z</time></trkpt><trkpt lat="43.327875428543905" lon="-4.324619825471081"><ele>111.0</ele><time>2026-05-02T08:59:59Z</time></trkpt><trkpt lat="43.32779323484943" lon="-4.324518302788792"><ele>111.0</ele><time>2026-05-02T09:00:00Z</time></trkpt><trkpt lat="43.32771259506057" lon="-4.32442449666521"><ele>111.0</ele><time>2026-05-02T09:00:01Z</time></trkpt><trkpt lat="43.32763107117669" lon="-4.32432726784959"><ele>111.0</ele><time>2026-05-02T09:00:02Z</time></trkpt><trkpt lat="43.327550290776394" lon="-4.324226932175891"><ele>111.0</ele><time>2026-05-02T09:00:03Z</time></trkpt><trkpt lat="43.32747122912755" lon="-4.324137273475898"><ele>111.0</ele><time>2026-05-02T09:00:04Z</time></trkpt><trkpt lat="43.32739609575464" lon="-4.324013548403678"><ele>111.0</ele><time>2026-05-02T09:00:05.001Z</time></trkpt><trkpt lat="43.32734751846341" lon="-4.323838888170479"><ele>111.0</ele><time>2026-05-02T09:00:06.001Z</time></trkpt><trkpt lat="43.327283810942994" lon="-4.323708214095925"><ele>108.8</ele><time>2026-05-02T09:00:07.001Z</time></trkpt><trkpt lat="43.327209638137724" lon="-4.323650100102564"><ele>106.6</ele><time>2026-05-02T09:00:08.001Z</time></trkpt><trkpt lat="43.32716545865889" lon="-4.323516475596171"><ele>104.4</ele><time>2026-05-02T09:00:09.001Z</time></trkpt><trkpt lat="43.32713125947155" lon="-4.3233703406675525"><ele>102.2</ele><time>2026-05-02T09:00:10.001Z</time></trkpt><trkpt lat="43.327097889184834" lon="-4.323226602196297"><ele>100.0</ele><time>2026-05-02T09:00:11.001Z</time></trkpt><trkpt lat="43.32706622657771" lon="-4.323077838053682"><ele>100.4</ele><time>2026-05-02T09:00:12.001Z</time></trkpt><trkpt lat="43.32703241062381" lon="-4.3229360730223165"><ele>100.8</ele><time>2026-05-02T09:00:13.001Z</time></trkpt><trkpt lat="43.326997184309654" lon="-4.3227952811879815"><ele>101.19999999999999</ele><time>2026-05-02T09:00:14.001Z</time></trkpt><trkpt lat="43.326969666076046" lon="-4.3226462364524"><ele>101.6</ele><time>2026-05-02T09:00:15.001Z</time></trkpt><trkpt lat="43.32694082123816" lon="-4.322501477847735"><ele>102.0</ele><time>2026-05-02T09:00:16.001Z</time></trkpt><trkpt lat="43.32690943807677" lon="-4.322360215060972"><ele>103.8</ele><time>2026-05-02T09:00:17.001Z</time></trkpt><trkpt lat="43.326880692889794" lon="-4.322215929339422"><ele>105.6</ele><time>2026-05-02T09:00:18.001Z</time></trkpt><trkpt lat="43.32684978420132" lon="-4.322076148569663"><ele>107.39999999999999</ele><time>2026-05-02T09:00:19.001Z</time></trkpt><trkpt lat="43.32681755546114" lon="-4.321934379572465"><ele>109.19999999999999</ele><time>2026-05-02T09:00:20.001Z</time></trkpt><trkpt lat="43.3267762235069" lon="-4.321789950714661"><ele>111.0</ele><time>2026-05-02T09:00:21.001Z</time></trkpt><trkpt lat="43.32673179242701" lon="-4.321607215380473"><ele>111.0</ele><time>2026-05-02T09:00:22.001Z</time></trkpt><trkpt lat="43.32670346449188" lon="-4.321498071246407"><ele>111.0</ele><time>2026-05-02T09:00:23.001Z</time></trkpt><trkpt lat="43.32667554498495" lon="-4.3213774269700505"><ele>111.0</ele><time>2026-05-02T09:00:24.001Z</time></trkpt><trkpt lat="43.32661566598292" lon="-4.321258453243042"><ele>111.0</ele><time>2026-05-02T09:00:25.001Z</time></trkpt><trkpt lat="43.3265388593576" lon="-4.321164506345662"><ele>111.0</ele><time>2026-05-02T09:00:26.001Z</time></trkpt><trkpt lat="43.32646033115173" lon="-4.321063405425982"><ele>113.8</ele><time>2026-05-02T09:00:27.001Z</time></trkpt><trkpt lat="43.32636796966228" lon="-4.320987363205325"><ele>116.6</ele><time>2026-05-02T09:00:28.001Z</time></trkpt><trkpt lat="43.32626044054646" lon="-4.320929247154894"><ele>119.4</ele><time>2026-05-02T09:00:29.001Z</time></trkpt><trkpt lat="43.326160101428194" lon="-4.320871157655148"><ele>122.2</ele><time>2026-05-02T09:00:30.001Z</time></trkpt><trkpt lat="43.32605719073716" lon="-4.320865728938067"><ele>125.0</ele><time>2026-05-02T09:00:31.001Z</time></trkpt><trkpt lat="43.32595896130674" lon="-4.320870888706874"><ele>125.0</ele><time>2026-05-02T09:00:32.001Z</time></trkpt><trkpt lat="43.325843058491344" lon="-4.320923063603174"><ele>125.0</ele><time>2026-05-02T09:00:33.001Z</time></trkpt><trkpt lat="43.32574267353532" lon="-4.320966802065798"><ele>125.0</ele><time>2026-05-02T09:00:34.001Z</time></trkpt><trkpt lat="43.3256472597174" lon="-4.3210395565152755"><ele>125.0</ele><time>2026-05-02T09:00:35.001Z</time></trkpt><trkpt lat="43.325564717065134" lon="-4.3211241493788455"><ele>125.0</ele><time>2026-05-02T09:00:36.001Z</time></trkpt><trkpt lat="43.32548108405007" lon="-4.321222122492417"><ele>125.4</ele><time>2026-05-02T09:00:37.001Z</time></trkpt><trkpt lat="43.3254018605813" lon="-4.321318961202642"><ele>125.8</ele><time>2026-05-02T09:00:38.001Z</time></trkpt><trkpt lat="43.32532087856415" lon="-4.321408645777679"><ele>126.19999999999999</ele><time>2026-05-02T09:00:39.001Z</time></trkpt><trkpt lat="43.3252348799775" lon="-4.321496299711578"><ele>126.6</ele><time>2026-05-02T09:00:40.001Z</time></trkpt><trkpt lat="43.32514388683142" lon="-4.321576858142007"><ele>127.0</ele><time>2026-05-02T09:00:41.001Z</time></trkpt><trkpt lat="43.325047114119684" lon="-4.32163273776339"><ele>123.39999999999999</ele><time>2026-05-02T09:00:42.001Z</time></trkpt><trkpt lat="43.3249353582785" lon="-4.321672550254552"><ele>119.79999999999998</ele><time>2026-05-02T09:00:43.001Z</time></trkpt><trkpt lat="43.32483198991088" lon="-4.321701218855597"><ele>116.2</ele><time>2026-05-02T09:00:44.001Z</time></trkpt><trkpt lat="43.32472418385582" lon="-4.321711106887706"><ele>112.6</ele><time>2026-05-02T09:00:45.001Z</time></trkpt><trkpt lat="43.32461856701619" lon="-4.321680389290485"><ele>109.0</ele><time>2026-05-02T09:00:46.001Z</time></trkpt><trkpt lat="43.324507118051514" lon="-4.321653115915696"><ele>109.80000000000001</ele><time>2026-05-02T09:00:47.001Z</time></trkpt><trkpt lat="43.32439142185997" lon="-4.321587486828668"><ele>110.60000000000001</ele><time>2026-05-02T09:00:48.001Z</time></trkpt><trkpt lat="43.324282464910056" lon="-4.321499539014858"><ele>111.4</ele><time>2026-05-02T09:00:49.001Z</time></trkpt><trkpt lat="43.32420005145365" lon="-4.321413386584795"><ele>112.2</ele><time>2026-05-02T09:00:50.001Z</time></trkpt><trkpt lat="43.32413137820587" lon="-4.321337089080784"><ele>113.0</ele><time>2026-05-02T09:00:51.001Z</time></trkpt><trkpt lat="43.32404944823244" lon="-4.321237826068325"><ele>113.0</ele><time>2026-05-02T09:00:52.001Z</time></trkpt><trkpt lat="43.32396609892755" lon="-4.3211358136931866"><ele>113.00000000000001</ele><time>2026-05-02T09:00:53.001Z</time></trkpt><trkpt lat="43.32388201962099" lon="-4.321039541467432"><ele>113.00000000000001</ele><time>2026-05-02T09:00:54.001Z</time></trkpt><trkpt lat="43.323799227426015" lon="-4.320940774106745"><ele>113.0</ele><time>2026-05-02T09:00:55.001Z</time></trkpt><trkpt lat="43.32371922945599" lon="-4.320841859744473"><ele>113.0</ele><time>2026-05-02T09:00:56.001Z</time></trkpt><trkpt lat="43.32363855849076" lon="-4.320741432904805"><ele>113.0</ele><time>2026-05-02T09:00:57.001Z</time></trkpt><trkpt lat="43.32356317262599" lon="-4.320638138636562"><ele>113.00000000000001</ele><time>2026-05-02T09:00:58.001Z</time></trkpt><trkpt lat="43.323475449855856" lon="-4.320538888505767"><ele>113.00000000000001</ele><time>2026-05-02T09:00:59.001Z</time></trkpt><trkpt lat="43.32339427228093" lon="-4.32045489089896"><ele>113.0</ele><time>2026-05-02T09:01:00.001Z</time></trkpt><trkpt lat="43.32331946158101" lon="-4.320341022330494"><ele>113.0</ele><time>2026-05-02T09:01:01.001Z</time></trkpt><trkpt lat="43.323239066806394" lon="-4.3202451706667615"><ele>113.0</ele><time>2026-05-02T09:01:02.001Z</time></trkpt><trkpt lat="43.323166188798446" lon="-4.320142187002959"><ele>113.00000000000001</ele><time>2026-05-02T09:01:03.001Z</time></trkpt><trkpt lat="43.32308569033657" lon="-4.3200348051186515"><ele>113.00000000000001</ele><time>2026-05-02T09:01:04.001Z</time></trkpt><trkpt lat="43.32300542591849" lon="-4.319931883867179"><ele>113.0</ele><time>2026-05-02T09:01:05.001Z</time></trkpt><trkpt lat="43.32292436125399" lon="-4.319826723294979"><ele>113.0</ele><time>2026-05-02T09:01:06.001Z</time></trkpt><trkpt lat="43.32284618826129" lon="-4.31972103135932"><ele>110.0</ele><time>2026-05-02T09:01:07Z</time></trkpt><trkpt lat="43.322766323443574" lon="-4.3196145609658725"><ele>107.00000000000001</ele><time>2026-05-02T09:01:08Z</time></trkpt><trkpt lat="43.3226872717494" lon="-4.319510503558224"><ele>104.0</ele><time>2026-05-02T09:01:09Z</time></trkpt><trkpt lat="43.32260823431107" lon="-4.3194028184651065"><ele>101.0</ele><time>2026-05-02T09:01:10Z</time></trkpt><trkpt lat="43.3225274146921" lon="-4.319294915119342"><ele>98.0</ele><time>2026-05-02T09:01:11Z</time></trkpt><trkpt lat="43.322449871132214" lon="-4.3191924813952145"><ele>98.0</ele><time>2026-05-02T09:01:12Z</time></trkpt><trkpt lat="43.322372516788185" lon="-4.31908534221637"><ele>98.0</ele><time>2026-05-02T09:01:13Z</time></trkpt><trkpt lat="43.32229440003285" lon="-4.318975773094473"><ele>98.0</ele><time>2026-05-02T09:01:14Z</time></trkpt><trkpt lat="43.32221628963751" lon="-4.318869416966914"><ele>98.0</ele><time>2026-05-02T09:01:15Z</time></trkpt><trkpt lat="43.32213404076965" lon="-4.318767433857689"><ele>98.0</ele><time>2026-05-02T09:01:16Z</time></trkpt><trkpt lat="43.32206293071716" lon="-4.318650614064821"><ele>96.4</ele><time>2026-05-02T09:01:17Z</time></trkpt><trkpt lat="43.32199128275642" lon="-4.3185380228091335"><ele>94.80000000000001</ele><time>2026-05-02T09:01:18Z</time></trkpt><trkpt lat="43.32192278464703" lon="-4.318422405634561"><ele>93.2</ele><time>2026-05-02T09:01:19Z</time></trkpt><trkpt lat="43.32186294653381" lon="-4.31829983885663"><ele>91.6</ele><time>2026-05-02T09:01:20Z</time></trkpt><trkpt lat="43.321805237663305" lon="-4.318169506115324"><ele>90.0</ele><time>2026-05-02T09:01:21Z</time></trkpt><trkpt lat="43.32175513888073" lon="-4.318034407830161"><ele>90.0</ele><time>2026-05-02T09:01:22Z</time></trkpt><trkpt lat="43.32170445180889" lon="-4.317898778719618"><ele>90.0</ele><time>2026-05-02T09:01:23Z</time></trkpt><trkpt lat="43.321653103483946" lon="-4.317773692125785"><ele>90.0</ele><time>2026-05-02T09:01:24Z</time></trkpt><trkpt lat="43.321616189259835" lon="-4.317622845686359"><ele>90.0</ele><time>2026-05-02T09:01:25Z</time></trkpt><trkpt lat="43.32158350474952" lon="-4.317478563554151"><ele>90.0</ele><time>2026-05-02T09:01:26Z</time></trkpt><trkpt lat="43.321560649405725" lon="-4.317333863127545"><ele>90.75</ele><time>2026-05-02T09:01:27Z</time></trkpt><trkpt lat="43.32153961872114" lon="-4.317181747537289"><ele>91.5</ele><time>2026-05-02T09:01:28Z</time></trkpt><trkpt lat="43.32152528075661" lon="-4.317031935918373"><ele>92.25</ele><time>2026-05-02T09:01:29Z</time></trkpt><trkpt lat="43.32152232129553" lon="-4.316882531175664"><ele>93.0</ele><time>2026-05-02T09:01:30Z</time></trkpt><trkpt lat="43.32152032642021" lon="-4.316719389359801"><ele>93.0</ele><time>2026-05-02T09:01:31Z</time></trkpt><trkpt lat="43.32152324330627" lon="-4.316562096928919"><ele>93.0</ele><time>2026-05-02T09:01:32Z</time></trkpt><trkpt lat="43.32152834168166" lon="-4.316408393670059"><ele>93.0</ele><time>2026-05-02T09:01:33Z</time></trkpt><trkpt lat="43.32153599559651" lon="-4.31625285423349"><ele>93.0</ele><time>2026-05-02T09:01:34Z</time></trkpt><trkpt lat="43.32154093742366" lon="-4.316100535185035"><ele>94.4</ele><time>2026-05-02T09:01:35Z</time></trkpt><trkpt lat="43.321539795347384" lon="-4.315945770375283"><ele>95.80000000000001</ele><time>2026-05-02T09:01:36Z</time></trkpt><trkpt lat="43.32153768094602" lon="-4.315795349485108"><ele>97.2</ele><time>2026-05-02T09:01:37Z</time></trkpt><trkpt lat="43.32153429140036" lon="-4.315642445089961"><ele>98.6</ele><time>2026-05-02T09:01:38Z</time></trkpt><trkpt lat="43.32152829110877" lon="-4.315491824825406"><ele>100.0</ele><time>2026-05-02T09:01:39Z</time></trkpt><trkpt lat="43.321519875204984" lon="-4.315338179889028"><ele>100.6</ele><time>2026-05-02T09:01:40Z</time></trkpt><trkpt lat="43.32151012871466" lon="-4.315188300686284"><ele>101.2</ele><time>2026-05-02T09:01:41Z</time></trkpt><trkpt lat="43.32149510522619" lon="-4.315033431778172"><ele>101.80000000000001</ele><time>2026-05-02T09:01:42Z</time></trkpt><trkpt lat="43.321482913640004" lon="-4.314882628199225"><ele>102.4</ele><time>2026-05-02T09:01:43Z</time></trkpt><trkpt lat="43.321464934726414" lon="-4.3147300103201145"><ele>103.0</ele><time>2026-05-02T09:01:44Z</time></trkpt><trkpt lat="43.32144086978461" lon="-4.31458007065828"><ele>103.80000000000001</ele><time>2026-05-02T09:01:45Z</time></trkpt><trkpt lat="43.32141785959857" lon="-4.31442732166236"><ele>104.6</ele><time>2026-05-02T09:01:46Z</time></trkpt><trkpt lat="43.321392521955836" lon="-4.314276948283609"><ele>105.39999999999999</ele><time>2026-05-02T09:01:47Z</time></trkpt><trkpt lat="43.32136464003094" lon="-4.31412823473149"><ele>106.19999999999999</ele><time>2026-05-02T09:01:48Z</time></trkpt><trkpt lat="43.3213216747345" lon="-4.313988847442905"><ele>107.0</ele><time>2026-05-02T09:01:49Z</time></trkpt><trkpt lat="43.321304175188224" lon="-4.313840506769416"><ele>102.19999999999999</ele><time>2026-05-02T09:01:50Z</time></trkpt><trkpt lat="43.321268566802985" lon="-4.313694362035176"><ele>97.39999999999999</ele><time>2026-05-02T09:01:51Z</time></trkpt><trkpt lat="43.32123464180967" lon="-4.313555649838081"><ele>92.6</ele><time>2026-05-02T09:01:52Z</time></trkpt><trkpt lat="43.32119255319662" lon="-4.313412769438238"><ele>87.80000000000001</ele><time>2026-05-02T09:01:53Z</time></trkpt><trkpt lat="43.32115629041831" lon="-4.313271490125377"><ele>83.0</ele><time>2026-05-02T09:01:54Z</time></trkpt><trkpt lat="43.32111203500615" lon="-4.313132701679753"><ele>83.4</ele><time>2026-05-02T09:01:55Z</time></trkpt><trkpt lat="43.32107037753896" lon="-4.312993264062478"><ele>83.80000000000001</ele><time>2026-05-02T09:01:56Z</time></trkpt><trkpt lat="43.32102954833012" lon="-4.312852653402498"><ele>84.2</ele><time>2026-05-02T09:01:57Z</time></trkpt><trkpt lat="43.32099385322561" lon="-4.312711484751499"><ele>84.6</ele><time>2026-05-02T09:01:58Z</time></trkpt><trkpt lat="43.320959869981635" lon="-4.312567539134684"><ele>85.0</ele><time>2026-05-02T09:01:59Z</time></trkpt><trkpt lat="43.32093425436683" lon="-4.312424614332908"><ele>85.0</ele><time>2026-05-02T09:02:00.001Z</time></trkpt><trkpt lat="43.320913619510115" lon="-4.312280639356586"><ele>85.0</ele><time>2026-05-02T09:02:01.001Z</time></trkpt><trkpt lat="43.32090291791244" lon="-4.3121295273047355"><ele>85.0</ele><time>2026-05-02T09:02:02.001Z</time></trkpt><trkpt lat="43.320907400254335" lon="-4.311978575724039"><ele>85.0</ele><time>2026-05-02T09:02:03.001Z</time></trkpt><trkpt lat="43.32091367080042" lon="-4.311848522371709"><ele>85.0</ele><time>2026-05-02T09:02:04.001Z</time></trkpt><trkpt lat="43.32092540441082" lon="-4.31153594148092"><ele>84.5</ele><time>2026-05-02T09:02:06.001Z</time></trkpt><trkpt lat="43.320928333680094" lon="-4.3113427378533435"><ele>84.0</ele><time>2026-05-02T09:02:07.001Z</time></trkpt><trkpt lat="43.32092738174364" lon="-4.3111494688544445"><ele>83.5</ele><time>2026-05-02T09:02:08.001Z</time></trkpt><trkpt lat="43.32092237866627" lon="-4.311013030721948"><ele>83.0</ele><time>2026-05-02T09:02:09.001Z</time></trkpt><trkpt lat="43.32090826186196" lon="-4.310805035766108"><ele>83.0</ele><time>2026-05-02T09:02:11.001Z</time></trkpt><trkpt lat="43.32089401679675" lon="-4.31065421129847"><ele>83.0</ele><time>2026-05-02T09:02:12.001Z</time></trkpt><trkpt lat="43.320883953517" lon="-4.310506908186728"><ele>83.0</ele><time>2026-05-02T09:02:13.001Z</time></trkpt><trkpt lat="43.32085680005071" lon="-4.310366383478423"><ele>83.0</ele><time>2026-05-02T09:02:14.001Z</time></trkpt><trkpt lat="43.32082619868433" lon="-4.3102292040359576"><ele>83.0</ele><time>2026-05-02T09:02:15.001Z</time></trkpt><trkpt lat="43.32079313251724" lon="-4.310091422754368"><ele>83.2</ele><time>2026-05-02T09:02:16.001Z</time></trkpt><trkpt lat="43.320736357626046" lon="-4.309970188469538"><ele>83.4</ele><time>2026-05-02T09:02:17.001Z</time></trkpt><trkpt lat="43.32069081080934" lon="-4.309843259735456"><ele>83.60000000000001</ele><time>2026-05-02T09:02:18.001Z</time></trkpt><trkpt lat="43.32063585908025" lon="-4.30972772960877"><ele>83.80000000000001</ele><time>2026-05-02T09:02:19.001Z</time></trkpt><trkpt lat="43.32057834431385" lon="-4.309608271624507"><ele>84.0</ele><time>2026-05-02T09:02:20.001Z</time></trkpt><trkpt lat="43.32051769162037" lon="-4.309492257635419"><ele>83.0</ele><time>2026-05-02T09:02:21.001Z</time></trkpt><trkpt lat="43.32044853041664" lon="-4.309381004056122"><ele>82.0</ele><time>2026-05-02T09:02:22.001Z</time></trkpt><trkpt lat="43.320377300963195" lon="-4.309266673204709"><ele>81.0</ele><time>2026-05-02T09:02:23.001Z</time></trkpt><trkpt lat="43.320290912747744" lon="-4.309211383312725"><ele>80.0</ele><time>2026-05-02T09:02:24.001Z</time></trkpt><trkpt lat="43.32020281770969" lon="-4.309162609947919"><ele>79.0</ele><time>2026-05-02T09:02:25.001Z</time></trkpt><trkpt lat="43.32012703350707" lon="-4.3090618938641"><ele>79.25</ele><time>2026-05-02T09:02:26.001Z</time></trkpt><trkpt lat="43.3200753033747" lon="-4.30887519397929"><ele>79.5</ele><time>2026-05-02T09:02:27.001Z</time></trkpt><trkpt lat="43.319995113348504" lon="-4.308758167710794"><ele>79.75</ele><time>2026-05-02T09:02:28.001Z</time></trkpt><trkpt lat="43.319907095512484" lon="-4.308634516281991"><ele>80.0</ele><time>2026-05-02T09:02:29.001Z</time></trkpt><trkpt lat="43.31978309846073" lon="-4.308503018263434"><ele>79.75</ele><time>2026-05-02T09:02:30.001Z</time></trkpt><trkpt lat="43.31968998903102" lon="-4.308327887629055"><ele>79.5</ele><time>2026-05-02T09:02:32.001Z</time></trkpt><trkpt lat="43.31961769859755" lon="-4.308222675472785"><ele>79.25</ele><time>2026-05-02T09:02:33.001Z</time></trkpt><trkpt lat="43.319542120720705" lon="-4.3081159299137655"><ele>79.0</ele><time>2026-05-02T09:02:34.001Z</time></trkpt><trkpt lat="43.31946567163517" lon="-4.308014644681613"><ele>79.4</ele><time>2026-05-02T09:02:35.001Z</time></trkpt><trkpt lat="43.319394002959235" lon="-4.307910610875551"><ele>79.80000000000001</ele><time>2026-05-02T09:02:36.001Z</time></trkpt><trkpt lat="43.31932162785382" lon="-4.307810977390471"><ele>80.19999999999999</ele><time>2026-05-02T09:02:37.001Z</time></trkpt><trkpt lat="43.31924714652514" lon="-4.307711314063878"><ele>80.6</ele><time>2026-05-02T09:02:38.001Z</time></trkpt><trkpt lat="43.31917381339299" lon="-4.307606126397243"><ele>81.0</ele><time>2026-05-02T09:02:39.001Z</time></trkpt><trkpt lat="43.319100064144074" lon="-4.307502983382438"><ele>81.0</ele><time>2026-05-02T09:02:40.001Z</time></trkpt><trkpt lat="43.31902560347563" lon="-4.3073974409829"><ele>81.0</ele><time>2026-05-02T09:02:41.001Z</time></trkpt><trkpt lat="43.318950953386754" lon="-4.307293534029226"><ele>81.0</ele><time>2026-05-02T09:02:42.001Z</time></trkpt><trkpt lat="43.31887613133983" lon="-4.307190650252524"><ele>81.0</ele><time>2026-05-02T09:02:43.001Z</time></trkpt><trkpt lat="43.31880208342371" lon="-4.30708574394758"><ele>81.0</ele><time>2026-05-02T09:02:44.001Z</time></trkpt><trkpt lat="43.318726191779575" lon="-4.306980920544819"><ele>81.0</ele><time>2026-05-02T09:02:45.001Z</time></trkpt><trkpt lat="43.31865429535611" lon="-4.306878879128817"><ele>81.0</ele><time>2026-05-02T09:02:46.001Z</time></trkpt><trkpt lat="43.318578278430316" lon="-4.306774962893587"><ele>81.0</ele><time>2026-05-02T09:02:47.001Z</time></trkpt><trkpt lat="43.31850589396639" lon="-4.306670024939019"><ele>81.0</ele><time>2026-05-02T09:02:48.001Z</time></trkpt><trkpt lat="43.318429391807776" lon="-4.306567970936848"><ele>81.0</ele><time>2026-05-02T09:02:49.001Z</time></trkpt><trkpt lat="43.31835557627614" lon="-4.306463850535291"><ele>80.8</ele><time>2026-05-02T09:02:50.001Z</time></trkpt><trkpt lat="43.31828215761517" lon="-4.306361718702522"><ele>80.6</ele><time>2026-05-02T09:02:51.001Z</time></trkpt><trkpt lat="43.31820717807297" lon="-4.3062584835191595"><ele>80.4</ele><time>2026-05-02T09:02:52.001Z</time></trkpt><trkpt lat="43.3181323452648" lon="-4.306149156491487"><ele>80.2</ele><time>2026-05-02T09:02:53.001Z</time></trkpt><trkpt lat="43.318059936253505" lon="-4.306053824174466"><ele>80.0</ele><time>2026-05-02T09:02:54.001Z</time></trkpt><trkpt lat="43.31798691487284" lon="-4.3059464742836955"><ele>80.2</ele><time>2026-05-02T09:02:55.001Z</time></trkpt><trkpt lat="43.317912869022706" lon="-4.305845073602307"><ele>80.4</ele><time>2026-05-02T09:02:56.001Z</time></trkpt><trkpt lat="43.31784116481231" lon="-4.305741360482955"><ele>80.6</ele><time>2026-05-02T09:02:57.001Z</time></trkpt><trkpt lat="43.31776693984765" lon="-4.305629265433951"><ele>80.8</ele><time>2026-05-02T09:02:58.001Z</time></trkpt><trkpt lat="43.317701730956564" lon="-4.30551940759683"><ele>81.0</ele><time>2026-05-02T09:02:59.001Z</time></trkpt><trkpt lat="43.31763228896799" lon="-4.305406578254375"><ele>81.0</ele><time>2026-05-02T09:03:00.001Z</time></trkpt><trkpt lat="43.31756887409202" lon="-4.3052924489489275"><ele>81.0</ele><time>2026-05-02T09:03:01.001Z</time></trkpt><trkpt lat="43.31750772174365" lon="-4.30517508978002"><ele>81.0</ele><time>2026-05-02T09:03:02.001Z</time></trkpt><trkpt lat="43.3174521194243" lon="-4.30505246435518"><ele>81.0</ele><time>2026-05-02T09:03:03.001Z</time></trkpt><trkpt lat="43.31740082207169" lon="-4.304929575709966"><ele>81.0</ele><time>2026-05-02T09:03:04.001Z</time></trkpt><trkpt lat="43.31735136573578" lon="-4.304805298991148"><ele>80.8</ele><time>2026-05-02T09:03:05.001Z</time></trkpt><trkpt lat="43.317301201732384" lon="-4.304681251669286"><ele>80.6</ele><time>2026-05-02T09:03:06.001Z</time></trkpt><trkpt lat="43.31725274501466" lon="-4.304558316785989"><ele>80.4</ele><time>2026-05-02T09:03:07.001Z</time></trkpt><trkpt lat="43.317203558157175" lon="-4.304434903836966"><ele>80.2</ele><time>2026-05-02T09:03:08.001Z</time></trkpt><trkpt lat="43.31715649234342" lon="-4.304308399235939"><ele>80.0</ele><time>2026-05-02T09:03:09.001Z</time></trkpt><trkpt lat="43.317108318175585" lon="-4.304182679849808"><ele>80.0</ele><time>2026-05-02T09:03:10.001Z</time></trkpt><trkpt lat="43.31706055645216" lon="-4.304058537375817"><ele>80.0</ele><time>2026-05-02T09:03:11.001Z</time></trkpt><trkpt lat="43.317011018465266" lon="-4.303937262826571"><ele>80.0</ele><time>2026-05-02T09:03:12.001Z</time></trkpt><trkpt lat="43.31696513620299" lon="-4.303812871789825"><ele>80.0</ele><time>2026-05-02T09:03:13Z</time></trkpt><trkpt lat="43.31692254818697" lon="-4.303685060062906"><ele>80.0</ele><time>2026-05-02T09:03:14Z</time></trkpt><trkpt lat="43.316880251206236" lon="-4.303557634930314"><ele>80.6</ele><time>2026-05-02T09:03:15Z</time></trkpt><trkpt lat="43.3168388537778" lon="-4.303425783700692"><ele>81.2</ele><time>2026-05-02T09:03:16Z</time></trkpt><trkpt lat="43.31680333346302" lon="-4.30329208956168"><ele>81.80000000000001</ele><time>2026-05-02T09:03:17Z</time></trkpt><trkpt lat="43.31677349015818" lon="-4.303160054899579"><ele>82.4</ele><time>2026-05-02T09:03:18Z</time></trkpt><trkpt lat="43.31674487402082" lon="-4.303020822689257"><ele>83.0</ele><time>2026-05-02T09:03:19Z</time></trkpt><trkpt lat="43.31672085411333" lon="-4.302884963822282"><ele>83.2</ele><time>2026-05-02T09:03:20Z</time></trkpt><trkpt lat="43.31670605890021" lon="-4.30274296035305"><ele>83.4</ele><time>2026-05-02T09:03:21Z</time></trkpt><trkpt lat="43.316691223125076" lon="-4.30260044284784"><ele>83.60000000000001</ele><time>2026-05-02T09:03:22Z</time></trkpt><trkpt lat="43.31668474642981" lon="-4.302454279785677"><ele>83.80000000000001</ele><time>2026-05-02T09:03:23Z</time></trkpt><trkpt lat="43.316679539622136" lon="-4.302318227101652"><ele>84.0</ele><time>2026-05-02T09:03:24Z</time></trkpt><trkpt lat="43.31668877554824" lon="-4.302191923992525"><ele>84.75</ele><time>2026-05-02T09:03:25Z</time></trkpt><trkpt lat="43.31667760975839" lon="-4.3020752497619865"><ele>85.5</ele><time>2026-05-02T09:03:26Z</time></trkpt><trkpt lat="43.316692854220996" lon="-4.301866230978127"><ele>86.25</ele><time>2026-05-02T09:03:27Z</time></trkpt><trkpt lat="43.31669846181169" lon="-4.301709490492005"><ele>87.0</ele><time>2026-05-02T09:03:28Z</time></trkpt><trkpt lat="43.31670781549872" lon="-4.301566554430894"><ele>87.0</ele><time>2026-05-02T09:03:29Z</time></trkpt><trkpt lat="43.31672473747138" lon="-4.301433186645955"><ele>87.0</ele><time>2026-05-02T09:03:30Z</time></trkpt><trkpt lat="43.31675363553191" lon="-4.301215563469071"><ele>87.0</ele><time>2026-05-02T09:03:32Z</time></trkpt><trkpt lat="43.3167754675413" lon="-4.301011271764675"><ele>87.0</ele><time>2026-05-02T09:03:33Z</time></trkpt><trkpt lat="43.316802870371916" lon="-4.3007939888538855"><ele>88.0</ele><time>2026-05-02T09:03:34Z</time></trkpt><trkpt lat="43.31683237180012" lon="-4.30056241253219"><ele>89.0</ele><time>2026-05-02T09:03:35Z</time></trkpt><trkpt lat="43.31688025612831" lon="-4.300292787961934"><ele>90.0</ele><time>2026-05-02T09:03:36Z</time></trkpt><trkpt lat="43.31684226592319" lon="-4.300417491255549"><ele>90.0</ele><time>2026-05-02T09:03:37Z</time></trkpt><trkpt lat="43.316853796990955" lon="-4.300274614985294"><ele>90.0</ele><time>2026-05-02T09:03:38Z</time></trkpt><trkpt lat="43.31686707960034" lon="-4.30012921526462"><ele>90.0</ele><time>2026-05-02T09:03:39Z</time></trkpt><trkpt lat="43.3168828308857" lon="-4.299983900856006"><ele>90.0</ele><time>2026-05-02T09:03:40Z</time></trkpt><trkpt lat="43.31689877341575" lon="-4.299843412128453"><ele>90.0</ele><time>2026-05-02T09:03:41Z</time></trkpt><trkpt lat="43.31691543669475" lon="-4.299696268990141"><ele>90.0</ele><time>2026-05-02T09:03:42Z</time></trkpt><trkpt lat="43.316929965508876" lon="-4.299553472602553"><ele>90.0</ele><time>2026-05-02T09:03:43Z</time></trkpt><trkpt lat="43.31694323829896" lon="-4.29941254705051"><ele>90.0</ele><time>2026-05-02T09:03:44Z</time></trkpt><trkpt lat="43.316957673984476" lon="-4.299268782614035"><ele>90.0</ele><time>2026-05-02T09:03:45Z</time></trkpt><trkpt lat="43.31696965076345" lon="-4.299123542710618"><ele>90.0</ele><time>2026-05-02T09:03:46Z</time></trkpt><trkpt lat="43.316980265731424" lon="-4.298977209435092"><ele>89.4</ele><time>2026-05-02T09:03:47Z</time></trkpt><trkpt lat="43.3169942504602" lon="-4.298831770072097"><ele>88.8</ele><time>2026-05-02T09:03:48Z</time></trkpt><trkpt lat="43.31699303300898" lon="-4.29870813393642"><ele>88.19999999999999</ele><time>2026-05-02T09:03:49Z</time></trkpt><trkpt lat="43.31701427818817" lon="-4.298550025754185"><ele>87.6</ele><time>2026-05-02T09:03:50Z</time></trkpt><trkpt lat="43.3170317657254" lon="-4.298404196531313"><ele>87.0</ele><time>2026-05-02T09:03:51Z</time></trkpt><trkpt lat="43.317043105673" lon="-4.298258862798894"><ele>87.0</ele><time>2026-05-02T09:03:52Z</time></trkpt><trkpt lat="43.31705336275199" lon="-4.298113398815196"><ele>87.0</ele><time>2026-05-02T09:03:53Z</time></trkpt><trkpt lat="43.31706081617859" lon="-4.29796677802866"><ele>87.0</ele><time>2026-05-02T09:03:54Z</time></trkpt><trkpt lat="43.31706384521816" lon="-4.297815335345514"><ele>87.0</ele><time>2026-05-02T09:03:55Z</time></trkpt><trkpt lat="43.31706724924398" lon="-4.297672654725743"><ele>87.0</ele><time>2026-05-02T09:03:56Z</time></trkpt><trkpt lat="43.317065176483425" lon="-4.297528696687557"><ele>87.6</ele><time>2026-05-02T09:03:57Z</time></trkpt><trkpt lat="43.31705703166126" lon="-4.297388036729131"><ele>88.19999999999999</ele><time>2026-05-02T09:03:58Z</time></trkpt><trkpt lat="43.31704689280272" lon="-4.297248321269672"><ele>88.8</ele><time>2026-05-02T09:03:59Z</time></trkpt><trkpt lat="43.31703815567049" lon="-4.297114856718737"><ele>89.4</ele><time>2026-05-02T09:04:00Z</time></trkpt><trkpt lat="43.31702978892107" lon="-4.296978378008926"><ele>90.0</ele><time>2026-05-02T09:04:01.001Z</time></trkpt><trkpt lat="43.31701979354712" lon="-4.29684431439581"><ele>90.8</ele><time>2026-05-02T09:04:02.001Z</time></trkpt><trkpt lat="43.31701002198166" lon="-4.296713712709773"><ele>91.6</ele><time>2026-05-02T09:04:03.001Z</time></trkpt><trkpt lat="43.31699963819932" lon="-4.296582660272641"><ele>92.4</ele><time>2026-05-02T09:04:04.001Z</time></trkpt><trkpt lat="43.31699216456397" lon="-4.296452760981395"><ele>93.2</ele><time>2026-05-02T09:04:05.001Z</time></trkpt><trkpt lat="43.31698293264524" lon="-4.296323465272419"><ele>94.0</ele><time>2026-05-02T09:04:06.001Z</time></trkpt><trkpt lat="43.31697668948148" lon="-4.296192628432851"><ele>94.6</ele><time>2026-05-02T09:04:07.001Z</time></trkpt><trkpt lat="43.316966876396464" lon="-4.296061681397475"><ele>95.2</ele><time>2026-05-02T09:04:08.001Z</time></trkpt><trkpt lat="43.316960394975894" lon="-4.29593287495841"><ele>95.8</ele><time>2026-05-02T09:04:09.001Z</time></trkpt><trkpt lat="43.316945805592944" lon="-4.295809156265516"><ele>96.39999999999999</ele><time>2026-05-02T09:04:10.001Z</time></trkpt><trkpt lat="43.316936254781844" lon="-4.295678007884981"><ele>97.0</ele><time>2026-05-02T09:04:11.001Z</time></trkpt><trkpt lat="43.316931967101176" lon="-4.295552216920489"><ele>97.39999999999999</ele><time>2026-05-02T09:04:12.001Z</time></trkpt><trkpt lat="43.316925214021964" lon="-4.295423738249669"><ele>97.8</ele><time>2026-05-02T09:04:13.001Z</time></trkpt><trkpt lat="43.31691749955115" lon="-4.295292178272514"><ele>98.2</ele><time>2026-05-02T09:04:14.001Z</time></trkpt><trkpt lat="43.31691986103028" lon="-4.29516529266994"><ele>98.6</ele><time>2026-05-02T09:04:15.001Z</time></trkpt><trkpt lat="43.31692304230631" lon="-4.295035467937034"><ele>99.0</ele><time>2026-05-02T09:04:16.001Z</time></trkpt><trkpt lat="43.31692986729935" lon="-4.294903682785411"><ele>99.0</ele><time>2026-05-02T09:04:17.001Z</time></trkpt><trkpt lat="43.316932437479004" lon="-4.29477225255398"><ele>99.0</ele><time>2026-05-02T09:04:18.001Z</time></trkpt><trkpt lat="43.31693568011799" lon="-4.2946391148038465"><ele>99.0</ele><time>2026-05-02T09:04:19.001Z</time></trkpt><trkpt lat="43.31694381806055" lon="-4.2945070782301284"><ele>99.0</ele><time>2026-05-02T09:04:20.001Z</time></trkpt><trkpt lat="43.316952893692765" lon="-4.294376532065349"><ele>99.0</ele><time>2026-05-02T09:04:21.001Z</time></trkpt><trkpt lat="43.31696218867495" lon="-4.2942477617392045"><ele>99.2</ele><time>2026-05-02T09:04:22.001Z</time></trkpt><trkpt lat="43.316975983132394" lon="-4.2941160564873755"><ele>99.4</ele><time>2026-05-02T09:04:23.001Z</time></trkpt><trkpt lat="43.316999707810524" lon="-4.293987483566605"><ele>99.6</ele><time>2026-05-02T09:04:24.001Z</time></trkpt><trkpt lat="43.31702145266017" lon="-4.29385934878655"><ele>99.8</ele><time>2026-05-02T09:04:25.001Z</time></trkpt><trkpt lat="43.31705113095031" lon="-4.293734016096499"><ele>100.0</ele><time>2026-05-02T09:04:26.001Z</time></trkpt><trkpt lat="43.31708009676095" lon="-4.293609574742022"><ele>100.4</ele><time>2026-05-02T09:04:27.001Z</time></trkpt><trkpt lat="43.31711354795378" lon="-4.293486727271038"><ele>100.8</ele><time>2026-05-02T09:04:28.001Z</time></trkpt><trkpt lat="43.31715032409117" lon="-4.293366425571272"><ele>101.19999999999999</ele><time>2026-05-02T09:04:29.001Z</time></trkpt><trkpt lat="43.31719088795914" lon="-4.293248539078556"><ele>101.6</ele><time>2026-05-02T09:04:30.001Z</time></trkpt><trkpt lat="43.317235343648306" lon="-4.293131495651058"><ele>102.0</ele><time>2026-05-02T09:04:31.001Z</time></trkpt><trkpt lat="43.31728786379176" lon="-4.293019333960295"><ele>104.39999999999999</ele><time>2026-05-02T09:04:32.001Z</time></trkpt><trkpt lat="43.31733971100018" lon="-4.292908601719894"><ele>106.8</ele><time>2026-05-02T09:04:33.001Z</time></trkpt><trkpt lat="43.31739385909802" lon="-4.292800287661902"><ele>109.2</ele><time>2026-05-02T09:04:34.001Z</time></trkpt><trkpt lat="43.31745531988931" lon="-4.292696456376437"><ele>111.6</ele><time>2026-05-02T09:04:35.001Z</time></trkpt><trkpt lat="43.317517845667226" lon="-4.292592048977319"><ele>114.0</ele><time>2026-05-02T09:04:36.001Z</time></trkpt><trkpt lat="43.31757889878059" lon="-4.292487689669937"><ele>114.0</ele><time>2026-05-02T09:04:37.001Z</time></trkpt><trkpt lat="43.317637024137525" lon="-4.2923796467587865"><ele>114.0</ele><time>2026-05-02T09:04:38.001Z</time></trkpt><trkpt lat="43.317704446421544" lon="-4.292285023662176"><ele>114.0</ele><time>2026-05-02T09:04:39.001Z</time></trkpt><trkpt lat="43.31777325422779" lon="-4.2921869108482875"><ele>114.0</ele><time>2026-05-02T09:04:40.001Z</time></trkpt><trkpt lat="43.31783657713062" lon="-4.292083077635455"><ele>114.0</ele><time>2026-05-02T09:04:41.001Z</time></trkpt><trkpt lat="43.31790346658705" lon="-4.291984857720337"><ele>113.0</ele><time>2026-05-02T09:04:42.001Z</time></trkpt><trkpt lat="43.31796979765449" lon="-4.291883420479936"><ele>112.0</ele><time>2026-05-02T09:04:43.001Z</time></trkpt><trkpt lat="43.318034974763236" lon="-4.291786407959892"><ele>111.0</ele><time>2026-05-02T09:04:44.001Z</time></trkpt><trkpt lat="43.318100507425534" lon="-4.291686596928011"><ele>110.0</ele><time>2026-05-02T09:04:45.001Z</time></trkpt><trkpt lat="43.31816712705187" lon="-4.291588432052635"><ele>109.0</ele><time>2026-05-02T09:04:46.001Z</time></trkpt><trkpt lat="43.31822744578359" lon="-4.291485977991819"><ele>111.0</ele><time>2026-05-02T09:04:47.001Z</time></trkpt><trkpt lat="43.318291441918575" lon="-4.291385404935004"><ele>113.0</ele><time>2026-05-02T09:04:48.001Z</time></trkpt><trkpt lat="43.31835126584671" lon="-4.2912795075038614"><ele>115.0</ele><time>2026-05-02T09:04:49.001Z</time></trkpt><trkpt lat="43.3184137112857" lon="-4.291175464663584"><ele>117.0</ele><time>2026-05-02T09:04:50.001Z</time></trkpt><trkpt lat="43.31846798750553" lon="-4.291066903384577"><ele>119.0</ele><time>2026-05-02T09:04:51.001Z</time></trkpt><trkpt lat="43.31853246500429" lon="-4.290965057963603"><ele>119.0</ele><time>2026-05-02T09:04:52.001Z</time></trkpt><trkpt lat="43.31859682987502" lon="-4.290860875703485"><ele>119.0</ele><time>2026-05-02T09:04:53.001Z</time></trkpt><trkpt lat="43.318643882978535" lon="-4.290747734999084"><ele>119.0</ele><time>2026-05-02T09:04:54.001Z</time></trkpt><trkpt lat="43.31869058610477" lon="-4.29063044943545"><ele>119.0</ele><time>2026-05-02T09:04:55.001Z</time></trkpt><trkpt lat="43.31874020662525" lon="-4.2905148052864535"><ele>119.0</ele><time>2026-05-02T09:04:56.001Z</time></trkpt><trkpt lat="43.318793497296966" lon="-4.290402773301751"><ele>118.2</ele><time>2026-05-02T09:04:57.001Z</time></trkpt><trkpt lat="43.31885068659687" lon="-4.290289544096865"><ele>117.4</ele><time>2026-05-02T09:04:58.001Z</time></trkpt><trkpt lat="43.3189008069978" lon="-4.29017270216253"><ele>116.6</ele><time>2026-05-02T09:04:59.001Z</time></trkpt><trkpt lat="43.31894791818844" lon="-4.2900596914606375"><ele>115.8</ele><time>2026-05-02T09:05:00.001Z</time></trkpt><trkpt lat="43.31899703275772" lon="-4.289946588039591"><ele>115.0</ele><time>2026-05-02T09:05:01.001Z</time></trkpt><trkpt lat="43.31904323694969" lon="-4.289831592904688"><ele>117.8</ele><time>2026-05-02T09:05:02.001Z</time></trkpt><trkpt lat="43.31909449867538" lon="-4.289716429165717"><ele>120.6</ele><time>2026-05-02T09:05:03.001Z</time></trkpt><trkpt lat="43.31914494959727" lon="-4.28960188537245"><ele>123.4</ele><time>2026-05-02T09:05:04.001Z</time></trkpt><trkpt lat="43.31918957040358" lon="-4.289488725068277"><ele>126.2</ele><time>2026-05-02T09:05:05.001Z</time></trkpt><trkpt lat="43.319237724425996" lon="-4.289374201842453"><ele>129.0</ele><time>2026-05-02T09:05:06.001Z</time></trkpt><trkpt lat="43.31928321883291" lon="-4.289253779183369"><ele>129.0</ele><time>2026-05-02T09:05:07.001Z</time></trkpt><trkpt lat="43.319313184565445" lon="-4.2891313778920805"><ele>129.0</ele><time>2026-05-02T09:05:08.001Z</time></trkpt><trkpt lat="43.3193440855508" lon="-4.289007827563185"><ele>129.0</ele><time>2026-05-02T09:05:09.001Z</time></trkpt><trkpt lat="43.31937303231952" lon="-4.28887799792714"><ele>129.0</ele><time>2026-05-02T09:05:10.001Z</time></trkpt><trkpt lat="43.31939689499003" lon="-4.2887480280841475"><ele>129.0</ele><time>2026-05-02T09:05:11.001Z</time></trkpt><trkpt lat="43.31940980835142" lon="-4.288618302351791"><ele>129.0</ele><time>2026-05-02T09:05:12.001Z</time></trkpt><trkpt lat="43.31942472366679" lon="-4.28848432353789"><ele>129.0</ele><time>2026-05-02T09:05:13.001Z</time></trkpt><trkpt lat="43.31943062180255" lon="-4.288356664303418"><ele>129.0</ele><time>2026-05-02T09:05:14.001Z</time></trkpt><trkpt lat="43.31943709477331" lon="-4.288226775374726"><ele>129.0</ele><time>2026-05-02T09:05:15.001Z</time></trkpt><trkpt lat="43.31943933286368" lon="-4.288094645873178"><ele>129.0</ele><time>2026-05-02T09:05:16.001Z</time></trkpt><trkpt lat="43.31943588864133" lon="-4.287959186072795"><ele>129.0</ele><time>2026-05-02T09:05:17.001Z</time></trkpt><trkpt lat="43.31942704133188" lon="-4.287827281080703"><ele>129.0</ele><time>2026-05-02T09:05:18.001Z</time></trkpt><trkpt lat="43.31942898445249" lon="-4.287696578951605"><ele>129.0</ele><time>2026-05-02T09:05:19Z</time></trkpt><trkpt lat="43.319431024116454" lon="-4.287560001118952"><ele>129.0</ele><time>2026-05-02T09:05:20Z</time></trkpt><trkpt lat="43.31942818802878" lon="-4.287422771113794"><ele>129.0</ele><time>2026-05-02T09:05:21Z</time></trkpt><trkpt lat="43.31942568145131" lon="-4.287291644407282"><ele>129.6</ele><time>2026-05-02T09:05:22Z</time></trkpt><trkpt lat="43.319422199665915" lon="-4.28715616758081"><ele>130.2</ele><time>2026-05-02T09:05:23Z</time></trkpt><trkpt lat="43.31941872347969" lon="-4.287023247252657"><ele>130.79999999999998</ele><time>2026-05-02T09:05:24Z</time></trkpt><trkpt lat="43.31941512865987" lon="-4.286890109368706"><ele>131.4</ele><time>2026-05-02T09:05:25Z</time></trkpt><trkpt lat="43.3194104122889" lon="-4.286757634124757"><ele>132.0</ele><time>2026-05-02T09:05:26Z</time></trkpt><trkpt lat="43.31940570409881" lon="-4.286619832692695"><ele>132.0</ele><time>2026-05-02T09:05:27Z</time></trkpt><trkpt lat="43.31940076271043" lon="-4.286487226705788"><ele>132.0</ele><time>2026-05-02T09:05:28Z</time></trkpt><trkpt lat="43.319397202494564" lon="-4.286355092517098"><ele>132.0</ele><time>2026-05-02T09:05:29Z</time></trkpt><trkpt lat="43.31938634355668" lon="-4.286223535586364"><ele>132.0</ele><time>2026-05-02T09:05:30Z</time></trkpt><trkpt lat="43.31937719538437" lon="-4.28609068328873"><ele>132.0</ele><time>2026-05-02T09:05:31Z</time></trkpt><trkpt lat="43.3193719927764" lon="-4.285955164472633"><ele>132.4</ele><time>2026-05-02T09:05:32Z</time></trkpt><trkpt lat="43.319363746526854" lon="-4.285825096735373"><ele>132.79999999999998</ele><time>2026-05-02T09:05:33Z</time></trkpt><trkpt lat="43.319352430581766" lon="-4.285690853071189"><ele>133.2</ele><time>2026-05-02T09:05:34Z</time></trkpt><trkpt lat="43.319343998367145" lon="-4.285560107415604"><ele>133.6</ele><time>2026-05-02T09:05:35Z</time></trkpt><trkpt lat="43.319339383451165" lon="-4.285425609926602"><ele>134.0</ele><time>2026-05-02T09:05:36Z</time></trkpt><trkpt lat="43.319331503761504" lon="-4.285289257557064"><ele>135.0</ele><time>2026-05-02T09:05:37Z</time></trkpt><trkpt lat="43.319325001942104" lon="-4.285155575848669"><ele>136.0</ele><time>2026-05-02T09:05:38Z</time></trkpt><trkpt lat="43.31931411007464" lon="-4.285025834379477"><ele>137.0</ele><time>2026-05-02T09:05:39Z</time></trkpt><trkpt lat="43.3193072380161" lon="-4.284892653427106"><ele>138.0</ele><time>2026-05-02T09:05:40Z</time></trkpt><trkpt lat="43.319300615571514" lon="-4.2847572849697215"><ele>139.0</ele><time>2026-05-02T09:05:41Z</time></trkpt><trkpt lat="43.31929081034593" lon="-4.284627039797788"><ele>140.2</ele><time>2026-05-02T09:05:42Z</time></trkpt><trkpt lat="43.319283761514626" lon="-4.2845006796776595"><ele>141.4</ele><time>2026-05-02T09:05:43Z</time></trkpt><trkpt lat="43.31928024447879" lon="-4.284368263742994"><ele>142.6</ele><time>2026-05-02T09:05:44Z</time></trkpt><trkpt lat="43.31927689813712" lon="-4.284237385672737"><ele>143.8</ele><time>2026-05-02T09:05:45Z</time></trkpt><trkpt lat="43.31927370197658" lon="-4.284107214938507"><ele>145.0</ele><time>2026-05-02T09:05:46Z</time></trkpt><trkpt lat="43.31927194759475" lon="-4.2839762136948"><ele>145.8</ele><time>2026-05-02T09:05:47Z</time></trkpt><trkpt lat="43.319274764641925" lon="-4.283850600874116"><ele>146.6</ele><time>2026-05-02T09:05:48Z</time></trkpt><trkpt lat="43.319278793747166" lon="-4.283715316301772"><ele>147.4</ele><time>2026-05-02T09:05:49Z</time></trkpt><trkpt lat="43.31928569648083" lon="-4.283582759704779"><ele>148.2</ele><time>2026-05-02T09:05:50Z</time></trkpt><trkpt lat="43.319289792202035" lon="-4.283450430120278"><ele>149.0</ele><time>2026-05-02T09:05:51Z</time></trkpt><trkpt lat="43.319295338720345" lon="-4.283317568340722"><ele>149.0</ele><time>2026-05-02T09:05:52Z</time></trkpt><trkpt lat="43.319304191888214" lon="-4.283181431855569"><ele>149.0</ele><time>2026-05-02T09:05:53Z</time></trkpt><trkpt lat="43.319311236527064" lon="-4.28305230433937"><ele>149.0</ele><time>2026-05-02T09:05:54Z</time></trkpt><trkpt lat="43.31931859433807" lon="-4.282919901497409"><ele>149.0</ele><time>2026-05-02T09:05:55Z</time></trkpt><trkpt lat="43.31932525145187" lon="-4.282783297171208"><ele>149.0</ele><time>2026-05-02T09:05:56Z</time></trkpt><trkpt lat="43.31933217875027" lon="-4.282655756262973"><ele>150.0</ele><time>2026-05-02T09:05:57Z</time></trkpt><trkpt lat="43.319340211704215" lon="-4.2825225908580675"><ele>151.0</ele><time>2026-05-02T09:05:58Z</time></trkpt><trkpt lat="43.31934824496011" lon="-4.282389418833911"><ele>152.0</ele><time>2026-05-02T09:05:59Z</time></trkpt><trkpt lat="43.31935265036215" lon="-4.282256410525301"><ele>153.0</ele><time>2026-05-02T09:06:00Z</time></trkpt><trkpt lat="43.31935496944841" lon="-4.282126338279232"><ele>154.0</ele><time>2026-05-02T09:06:01Z</time></trkpt><trkpt lat="43.319355330725095" lon="-4.281992151902282"><ele>155.2</ele><time>2026-05-02T09:06:02Z</time></trkpt><trkpt lat="43.319353523787406" lon="-4.281860096897892"><ele>156.4</ele><time>2026-05-02T09:06:03Z</time></trkpt><trkpt lat="43.319350029295286" lon="-4.281728685803837"><ele>157.6</ele><time>2026-05-02T09:06:04Z</time></trkpt><trkpt lat="43.319343969233344" lon="-4.281598715110453"><ele>158.8</ele><time>2026-05-02T09:06:05Z</time></trkpt><trkpt lat="43.31933226156687" lon="-4.281466998596737"><ele>160.0</ele><time>2026-05-02T09:06:06.001Z</time></trkpt><trkpt lat="43.31932023034732" lon="-4.281339847650051"><ele>161.0</ele><time>2026-05-02T09:06:07.001Z</time></trkpt><trkpt lat="43.31930465421461" lon="-4.281209008823049"><ele>162.0</ele><time>2026-05-02T09:06:08.001Z</time></trkpt><trkpt lat="43.3192872605247" lon="-4.281074773802859"><ele>163.0</ele><time>2026-05-02T09:06:09.001Z</time></trkpt><trkpt lat="43.31927101468398" lon="-4.280941738642427"><ele>164.0</ele><time>2026-05-02T09:06:10.001Z</time></trkpt><trkpt lat="43.319254293163254" lon="-4.280807788156796"><ele>165.0</ele><time>2026-05-02T09:06:11.001Z</time></trkpt><trkpt lat="43.319238360571624" lon="-4.280672539502687"><ele>165.6</ele><time>2026-05-02T09:06:12.001Z</time></trkpt><trkpt lat="43.319219871438335" lon="-4.2805390712507965"><ele>166.2</ele><time>2026-05-02T09:06:13.001Z</time></trkpt><trkpt lat="43.31920437201587" lon="-4.280401119806866"><ele>166.8</ele><time>2026-05-02T09:06:14.001Z</time></trkpt><trkpt lat="43.31918802261736" lon="-4.280265416282287"><ele>167.4</ele><time>2026-05-02T09:06:15.001Z</time></trkpt><trkpt lat="43.31917221108336" lon="-4.280124691698868"><ele>168.0</ele><time>2026-05-02T09:06:16.001Z</time></trkpt><trkpt lat="43.319155656714514" lon="-4.279989113337597"><ele>168.0</ele><time>2026-05-02T09:06:17.001Z</time></trkpt><trkpt lat="43.319137960515164" lon="-4.279853796106832"><ele>168.0</ele><time>2026-05-02T09:06:18.001Z</time></trkpt><trkpt lat="43.31912600579399" lon="-4.279717093761147"><ele>168.0</ele><time>2026-05-02T09:06:19.001Z</time></trkpt><trkpt lat="43.31911545539918" lon="-4.279576919171668"><ele>168.0</ele><time>2026-05-02T09:06:20.001Z</time></trkpt><trkpt lat="43.31909864859022" lon="-4.2794425887711816"><ele>168.0</ele><time>2026-05-02T09:06:21.001Z</time></trkpt><trkpt lat="43.31907957702141" lon="-4.279310934427724"><ele>168.4</ele><time>2026-05-02T09:06:22.001Z</time></trkpt><trkpt lat="43.31906313143651" lon="-4.279172018901618"><ele>168.8</ele><time>2026-05-02T09:06:23.001Z</time></trkpt><trkpt lat="43.319047327313925" lon="-4.2790359223845496"><ele>169.2</ele><time>2026-05-02T09:06:24.001Z</time></trkpt><trkpt lat="43.319029800131545" lon="-4.278899898960582"><ele>169.6</ele><time>2026-05-02T09:06:25.001Z</time></trkpt><trkpt lat="43.31901610468476" lon="-4.2787618593810715"><ele>170.0</ele><time>2026-05-02T09:06:26.001Z</time></trkpt><trkpt lat="43.319000274728516" lon="-4.278624939458614"><ele>171.4</ele><time>2026-05-02T09:06:27.001Z</time></trkpt><trkpt lat="43.318985999736064" lon="-4.278486671413981"><ele>172.8</ele><time>2026-05-02T09:06:28.001Z</time></trkpt><trkpt lat="43.31897008647428" lon="-4.278349512108774"><ele>174.2</ele><time>2026-05-02T09:06:29.001Z</time></trkpt><trkpt lat="43.31895326259267" lon="-4.278207400341183"><ele>175.6</ele><time>2026-05-02T09:06:30.001Z</time></trkpt><trkpt lat="43.31893861058368" lon="-4.278068465798172"><ele>177.0</ele><time>2026-05-02T09:06:31.001Z</time></trkpt><trkpt lat="43.31892386618061" lon="-4.2779267348746846"><ele>178.2</ele><time>2026-05-02T09:06:32.001Z</time></trkpt><trkpt lat="43.31890739614119" lon="-4.27778557122748"><ele>179.39999999999998</ele><time>2026-05-02T09:06:33.001Z</time></trkpt><trkpt lat="43.31888835489912" lon="-4.277643244573907"><ele>180.60000000000002</ele><time>2026-05-02T09:06:34.001Z</time></trkpt><trkpt lat="43.3188720292077" lon="-4.277501424710562"><ele>181.8</ele><time>2026-05-02T09:06:35.001Z</time></trkpt><trkpt lat="43.318854657482085" lon="-4.277360747609319"><ele>183.0</ele><time>2026-05-02T09:06:36.001Z</time></trkpt><trkpt lat="43.31883818307589" lon="-4.277217739525879"><ele>179.60000000000002</ele><time>2026-05-02T09:06:37.001Z</time></trkpt><trkpt lat="43.318817739201215" lon="-4.27707880755403"><ele>176.20000000000002</ele><time>2026-05-02T09:06:38.001Z</time></trkpt><trkpt lat="43.31880164139747" lon="-4.276941699429885"><ele>172.8</ele><time>2026-05-02T09:06:39.001Z</time></trkpt><trkpt lat="43.31878587446266" lon="-4.276800652132422"><ele>169.4</ele><time>2026-05-02T09:06:40.001Z</time></trkpt><trkpt lat="43.31876734189151" lon="-4.276660778451158"><ele>166.0</ele><time>2026-05-02T09:06:41.001Z</time></trkpt><trkpt lat="43.31874807301691" lon="-4.276521890953177"><ele>167.8</ele><time>2026-05-02T09:06:42.001Z</time></trkpt><trkpt lat="43.31872731441821" lon="-4.276383863126801"><ele>169.60000000000002</ele><time>2026-05-02T09:06:43.001Z</time></trkpt><trkpt lat="43.31870501659989" lon="-4.276246972685452"><ele>171.4</ele><time>2026-05-02T09:06:44.001Z</time></trkpt><trkpt lat="43.31868118901276" lon="-4.2761142310551445"><ele>173.2</ele><time>2026-05-02T09:06:45.001Z</time></trkpt><trkpt lat="43.31865760895138" lon="-4.27597868025889"><ele>175.0</ele><time>2026-05-02T09:06:46.001Z</time></trkpt><trkpt lat="43.31863667882916" lon="-4.275841117308158"><ele>175.0</ele><time>2026-05-02T09:06:47.001Z</time></trkpt><trkpt lat="43.3186149059028" lon="-4.275703369031841"><ele>175.0</ele><time>2026-05-02T09:06:48.001Z</time></trkpt><trkpt lat="43.31858821897825" lon="-4.27556783260553"><ele>175.0</ele><time>2026-05-02T09:06:49.001Z</time></trkpt><trkpt lat="43.31856221712217" lon="-4.275434250314104"><ele>175.0</ele><time>2026-05-02T09:06:50.001Z</time></trkpt><trkpt lat="43.31853881128661" lon="-4.275297381561997"><ele>175.0</ele><time>2026-05-02T09:06:51.001Z</time></trkpt><trkpt lat="43.31851478029215" lon="-4.275161108451811"><ele>175.8</ele><time>2026-05-02T09:06:52.001Z</time></trkpt><trkpt lat="43.318489027583155" lon="-4.275022882641638"><ele>176.6</ele><time>2026-05-02T09:06:53.001Z</time></trkpt><trkpt lat="43.31846256389774" lon="-4.274887630187526"><ele>177.39999999999998</ele><time>2026-05-02T09:06:54.001Z</time></trkpt><trkpt lat="43.31843779178838" lon="-4.274751197857192"><ele>178.2</ele><time>2026-05-02T09:06:55.001Z</time></trkpt><trkpt lat="43.31841410818731" lon="-4.274614254855304"><ele>179.0</ele><time>2026-05-02T09:06:56.001Z</time></trkpt><trkpt lat="43.318388629881866" lon="-4.2744797317705805"><ele>179.79999999999998</ele><time>2026-05-02T09:06:57.001Z</time></trkpt><trkpt lat="43.3183630577015" lon="-4.2743427376684195"><ele>180.6</ele><time>2026-05-02T09:06:58.001Z</time></trkpt><trkpt lat="43.31833883727228" lon="-4.274203801492893"><ele>181.4</ele><time>2026-05-02T09:06:59.001Z</time></trkpt><trkpt lat="43.31831250418147" lon="-4.2740639742909305"><ele>182.2</ele><time>2026-05-02T09:07:00.001Z</time></trkpt><trkpt lat="43.31828531825376" lon="-4.273928601411016"><ele>183.0</ele><time>2026-05-02T09:07:01.001Z</time></trkpt><trkpt lat="43.31825786368781" lon="-4.273785138106878"><ele>184.4</ele><time>2026-05-02T09:07:02.001Z</time></trkpt><trkpt lat="43.3182324250319" lon="-4.273653083521395"><ele>185.8</ele><time>2026-05-02T09:07:03.001Z</time></trkpt><trkpt lat="43.31820264136992" lon="-4.273514852842865"><ele>187.2</ele><time>2026-05-02T09:07:04.001Z</time></trkpt><trkpt lat="43.31818225974275" lon="-4.273372143209618"><ele>188.6</ele><time>2026-05-02T09:07:05.001Z</time></trkpt><trkpt lat="43.318147295908744" lon="-4.273239973508784"><ele>190.0</ele><time>2026-05-02T09:07:06.001Z</time></trkpt><trkpt lat="43.318100820170024" lon="-4.273089996063857"><ele>192.0</ele><time>2026-05-02T09:07:07.001Z</time></trkpt><trkpt lat="43.31806884978069" lon="-4.272949667426406"><ele>194.0</ele><time>2026-05-02T09:07:08.001Z</time></trkpt><trkpt lat="43.31803439069391" lon="-4.2728118715079715"><ele>196.0</ele><time>2026-05-02T09:07:09.001Z</time></trkpt><trkpt lat="43.3180000254136" lon="-4.2726741801232615"><ele>198.0</ele><time>2026-05-02T09:07:10.001Z</time></trkpt><trkpt lat="43.317964807305216" lon="-4.272536855310391"><ele>200.0</ele><time>2026-05-02T09:07:11.001Z</time></trkpt><trkpt lat="43.31792990688796" lon="-4.272400809711289"><ele>197.0</ele><time>2026-05-02T09:07:12.001Z</time></trkpt><trkpt lat="43.317892077843425" lon="-4.272264807047647"><ele>194.0</ele><time>2026-05-02T09:07:13.001Z</time></trkpt><trkpt lat="43.31785409389783" lon="-4.272127139041779"><ele>191.0</ele><time>2026-05-02T09:07:14.001Z</time></trkpt><trkpt lat="43.3178157738192" lon="-4.271992058992435"><ele>188.0</ele><time>2026-05-02T09:07:15.001Z</time></trkpt><trkpt lat="43.317779777006926" lon="-4.271853017754113"><ele>185.0</ele><time>2026-05-02T09:07:16.001Z</time></trkpt><trkpt lat="43.3177381388676" lon="-4.271718772776214"><ele>185.0</ele><time>2026-05-02T09:07:17.001Z</time></trkpt><trkpt lat="43.31769729453551" lon="-4.271586610317152"><ele>185.0</ele><time>2026-05-02T09:07:18.001Z</time></trkpt><trkpt lat="43.31765568123727" lon="-4.271453418358766"><ele>185.0</ele><time>2026-05-02T09:07:19.001Z</time></trkpt><trkpt lat="43.317615428381394" lon="-4.27131747714118"><ele>185.0</ele><time>2026-05-02T09:07:20.001Z</time></trkpt><trkpt lat="43.31757483235922" lon="-4.271183999302257"><ele>185.0</ele><time>2026-05-02T09:07:21.001Z</time></trkpt><trkpt lat="43.31753215557347" lon="-4.271051927501932"><ele>186.0</ele><time>2026-05-02T09:07:22.001Z</time></trkpt><trkpt lat="43.31749071815284" lon="-4.270916585022329"><ele>187.0</ele><time>2026-05-02T09:07:23.001Z</time></trkpt><trkpt lat="43.3174491965816" lon="-4.270784679268807"><ele>188.0</ele><time>2026-05-02T09:07:24.001Z</time></trkpt><trkpt lat="43.317405787047505" lon="-4.270651760554634"><ele>189.0</ele><time>2026-05-02T09:07:25Z</time></trkpt><trkpt lat="43.31736077458521" lon="-4.2705235745734305"><ele>190.0</ele><time>2026-05-02T09:07:26Z</time></trkpt><trkpt lat="43.31731422518615" lon="-4.270397639292554"><ele>190.2</ele><time>2026-05-02T09:07:27Z</time></trkpt><trkpt lat="43.317257356997246" lon="-4.270272966287056"><ele>190.4</ele><time>2026-05-02T09:07:28Z</time></trkpt><trkpt lat="43.31719892144763" lon="-4.270151714459854"><ele>190.60000000000002</ele><time>2026-05-02T09:07:29Z</time></trkpt><trkpt lat="43.31713746397915" lon="-4.270034462902612"><ele>190.8</ele><time>2026-05-02T09:07:30Z</time></trkpt><trkpt lat="43.317073338909424" lon="-4.269917300207345"><ele>191.0</ele><time>2026-05-02T09:07:31Z</time></trkpt><trkpt lat="43.31700297603302" lon="-4.2698092485375545"><ele>190.20000000000002</ele><time>2026-05-02T09:07:32Z</time></trkpt><trkpt lat="43.31693001414122" lon="-4.269701334520474"><ele>189.4</ele><time>2026-05-02T09:07:33Z</time></trkpt><trkpt lat="43.31685245461704" lon="-4.269604661199557"><ele>188.6</ele><time>2026-05-02T09:07:34Z</time></trkpt><trkpt lat="43.31677162013686" lon="-4.269501251645939"><ele>187.8</ele><time>2026-05-02T09:07:35Z</time></trkpt><trkpt lat="43.31669189003777" lon="-4.26940494379871"><ele>187.0</ele><time>2026-05-02T09:07:36Z</time></trkpt><trkpt lat="43.3166129785741" lon="-4.269306421047674"><ele>187.0</ele><time>2026-05-02T09:07:37Z</time></trkpt><trkpt lat="43.316534491000574" lon="-4.269206754487816"><ele>187.0</ele><time>2026-05-02T09:07:38Z</time></trkpt><trkpt lat="43.31645948783528" lon="-4.269102808461505"><ele>187.0</ele><time>2026-05-02T09:07:39Z</time></trkpt><trkpt lat="43.31638132519684" lon="-4.269004160172133"><ele>187.0</ele><time>2026-05-02T09:07:40Z</time></trkpt><trkpt lat="43.31630626433937" lon="-4.268902172400379"><ele>187.0</ele><time>2026-05-02T09:07:41Z</time></trkpt><trkpt lat="43.316226044300215" lon="-4.268798926586458"><ele>186.6</ele><time>2026-05-02T09:07:42Z</time></trkpt><trkpt lat="43.31614718925933" lon="-4.268695194671364"><ele>186.2</ele><time>2026-05-02T09:07:43Z</time></trkpt><trkpt lat="43.31606684585597" lon="-4.268591766018838"><ele>185.8</ele><time>2026-05-02T09:07:44Z</time></trkpt><trkpt lat="43.31598669414174" lon="-4.268490581496946"><ele>185.4</ele><time>2026-05-02T09:07:45Z</time></trkpt><trkpt lat="43.31590619958683" lon="-4.268386561231311"><ele>185.0</ele><time>2026-05-02T09:07:46Z</time></trkpt><trkpt lat="43.31582690870545" lon="-4.268281564849495"><ele>185.0</ele><time>2026-05-02T09:07:47Z</time></trkpt><trkpt lat="43.3157449755573" lon="-4.268174172217914"><ele>185.0</ele><time>2026-05-02T09:07:48Z</time></trkpt><trkpt lat="43.31566164233814" lon="-4.268065631205424"><ele>185.0</ele><time>2026-05-02T09:07:49Z</time></trkpt><trkpt lat="43.315579888816615" lon="-4.267958207403302"><ele>185.0</ele><time>2026-05-02T09:07:50Z</time></trkpt><trkpt lat="43.3154990872048" lon="-4.267847655549404"><ele>185.0</ele><time>2026-05-02T09:07:51Z</time></trkpt><trkpt lat="43.315417661792885" lon="-4.267735210413854"><ele>185.0</ele><time>2026-05-02T09:07:52Z</time></trkpt><trkpt lat="43.315341808097465" lon="-4.267614940710806"><ele>185.0</ele><time>2026-05-02T09:07:53Z</time></trkpt><trkpt lat="43.315275309156654" lon="-4.267489559299895"><ele>185.0</ele><time>2026-05-02T09:07:54Z</time></trkpt><trkpt lat="43.31521160049404" lon="-4.267360968570025"><ele>184.0</ele><time>2026-05-02T09:07:55Z</time></trkpt><trkpt lat="43.31514873475463" lon="-4.267223411903203"><ele>183.0</ele><time>2026-05-02T09:07:56Z</time></trkpt><trkpt lat="43.315088081944985" lon="-4.267084936995953"><ele>182.0</ele><time>2026-05-02T09:07:57Z</time></trkpt><trkpt lat="43.31502613664833" lon="-4.2669470943744585"><ele>181.0</ele><time>2026-05-02T09:07:58Z</time></trkpt><trkpt lat="43.31496246484763" lon="-4.266810986952006"><ele>181.0</ele><time>2026-05-02T09:07:59Z</time></trkpt><trkpt lat="43.31490257987557" lon="-4.26667690134115"><ele>181.0</ele><time>2026-05-02T09:08:00Z</time></trkpt><trkpt lat="43.3148400276932" lon="-4.266542283431236"><ele>181.0</ele><time>2026-05-02T09:08:01Z</time></trkpt><trkpt lat="43.314780220120404" lon="-4.266405615020975"><ele>181.0</ele><time>2026-05-02T09:08:02Z</time></trkpt><trkpt lat="43.31472509915267" lon="-4.266269619340415"><ele>182.75</ele><time>2026-05-02T09:08:03Z</time></trkpt><trkpt lat="43.31466819396736" lon="-4.266131601895313"><ele>184.5</ele><time>2026-05-02T09:08:04Z</time></trkpt><trkpt lat="43.31461378905528" lon="-4.265992677144447"><ele>186.25</ele><time>2026-05-02T09:08:05Z</time></trkpt><trkpt lat="43.314564018483225" lon="-4.265852423703438"><ele>188.0</ele><time>2026-05-02T09:08:06Z</time></trkpt><trkpt lat="43.314514538149744" lon="-4.265712796053021"><ele>186.0</ele><time>2026-05-02T09:08:07Z</time></trkpt><trkpt lat="43.314466862925876" lon="-4.265567106537378"><ele>184.0</ele><time>2026-05-02T09:08:08Z</time></trkpt><trkpt lat="43.31442471431417" lon="-4.2654167630571935"><ele>182.0</ele><time>2026-05-02T09:08:09Z</time></trkpt><trkpt lat="43.31439427209203" lon="-4.265262599817222"><ele>180.0</ele><time>2026-05-02T09:08:10Z</time></trkpt><trkpt lat="43.31436344137129" lon="-4.2651112990652535"><ele>180.0</ele><time>2026-05-02T09:08:11Z</time></trkpt><trkpt lat="43.314331158840496" lon="-4.264954433730457"><ele>180.0</ele><time>2026-05-02T09:08:12Z</time></trkpt><trkpt lat="43.31426828609416" lon="-4.264789913525699"><ele>180.0</ele><time>2026-05-02T09:08:13Z</time></trkpt><trkpt lat="43.31427163491238" lon="-4.264640224287667"><ele>180.0</ele><time>2026-05-02T09:08:14Z</time></trkpt><trkpt lat="43.31425664607449" lon="-4.264478779457692"><ele>177.5</ele><time>2026-05-02T09:08:15Z</time></trkpt><trkpt lat="43.31423832481959" lon="-4.2643197792569945"><ele>175.0</ele><time>2026-05-02T09:08:16Z</time></trkpt><trkpt lat="43.31421679737371" lon="-4.264164248943017"><ele>172.5</ele><time>2026-05-02T09:08:17Z</time></trkpt><trkpt lat="43.314197226367334" lon="-4.26400448715526"><ele>170.0</ele><time>2026-05-02T09:08:18Z</time></trkpt><trkpt lat="43.314178950693616" lon="-4.263843304665323"><ele>168.75</ele><time>2026-05-02T09:08:19Z</time></trkpt><trkpt lat="43.31415887261203" lon="-4.263688448565262"><ele>167.5</ele><time>2026-05-02T09:08:20Z</time></trkpt><trkpt lat="43.31413970601544" lon="-4.263534074854583"><ele>166.25</ele><time>2026-05-02T09:08:21Z</time></trkpt><trkpt lat="43.31411886928378" lon="-4.263375027929287"><ele>165.0</ele><time>2026-05-02T09:08:22Z</time></trkpt><trkpt lat="43.314099591983215" lon="-4.2632195331550475"><ele>163.5</ele><time>2026-05-02T09:08:23Z</time></trkpt><trkpt lat="43.314081241342784" lon="-4.2630653432295835"><ele>162.0</ele><time>2026-05-02T09:08:24Z</time></trkpt><trkpt lat="43.3140627857597" lon="-4.26290788805227"><ele>160.5</ele><time>2026-05-02T09:08:25.001Z</time></trkpt><trkpt lat="43.3140435221804" lon="-4.2627530232969"><ele>159.0</ele><time>2026-05-02T09:08:26.001Z</time></trkpt><trkpt lat="43.31402384217495" lon="-4.2625968811355355"><ele>159.0</ele><time>2026-05-02T09:08:27.001Z</time></trkpt><trkpt lat="43.31400591787519" lon="-4.2624411421515065"><ele>159.0</ele><time>2026-05-02T09:08:28.001Z</time></trkpt><trkpt lat="43.31398594161709" lon="-4.262283547597634"><ele>159.0</ele><time>2026-05-02T09:08:29.001Z</time></trkpt><trkpt lat="43.31396550232112" lon="-4.262125900000313"><ele>159.0</ele><time>2026-05-02T09:08:30.001Z</time></trkpt><trkpt lat="43.31394534466072" lon="-4.2619643729091745"><ele>160.25</ele><time>2026-05-02T09:08:31.001Z</time></trkpt><trkpt lat="43.313926171949504" lon="-4.261805438862282"><ele>161.5</ele><time>2026-05-02T09:08:32.001Z</time></trkpt><trkpt lat="43.31390008474898" lon="-4.261650529268518"><ele>162.75</ele><time>2026-05-02T09:08:33.001Z</time></trkpt><trkpt lat="43.313885649367606" lon="-4.2614908621093495"><ele>164.0</ele><time>2026-05-02T09:08:34.001Z</time></trkpt><trkpt lat="43.313867777576604" lon="-4.261332408624949"><ele>164.0</ele><time>2026-05-02T09:08:35.001Z</time></trkpt><trkpt lat="43.31384795394288" lon="-4.261173702634549"><ele>164.0</ele><time>2026-05-02T09:08:36.001Z</time></trkpt><trkpt lat="43.31383708385146" lon="-4.261014911164805"><ele>164.0</ele><time>2026-05-02T09:08:37.001Z</time></trkpt><trkpt lat="43.31381237955026" lon="-4.2608575571391585"><ele>164.0</ele><time>2026-05-02T09:08:38.001Z</time></trkpt><trkpt lat="43.313792226562825" lon="-4.260697516800727"><ele>162.25</ele><time>2026-05-02T09:08:39.001Z</time></trkpt><trkpt lat="43.31377365958947" lon="-4.260541672061289"><ele>160.5</ele><time>2026-05-02T09:08:40.001Z</time></trkpt><trkpt lat="43.31375461603833" lon="-4.260379867368035"><ele>158.75</ele><time>2026-05-02T09:08:41.001Z</time></trkpt><trkpt lat="43.31373494438716" lon="-4.260217226028258"><ele>157.0</ele><time>2026-05-02T09:08:42.001Z</time></trkpt><trkpt lat="43.313709361852155" lon="-4.2600586556809725"><ele>157.0</ele><time>2026-05-02T09:08:43.001Z</time></trkpt><trkpt lat="43.31369049606969" lon="-4.259899960182921"><ele>157.0</ele><time>2026-05-02T09:08:44.001Z</time></trkpt><trkpt lat="43.31367018828191" lon="-4.2597368970956015"><ele>157.0</ele><time>2026-05-02T09:08:45.001Z</time></trkpt><trkpt lat="43.313652403512435" lon="-4.259580775305991"><ele>157.0</ele><time>2026-05-02T09:08:46.001Z</time></trkpt><trkpt lat="43.313632487442774" lon="-4.259425310608873"><ele>155.75</ele><time>2026-05-02T09:08:47.001Z</time></trkpt><trkpt lat="43.31361177562989" lon="-4.259267134020439"><ele>154.5</ele><time>2026-05-02T09:08:48.001Z</time></trkpt><trkpt lat="43.31358874949172" lon="-4.259109942784946"><ele>153.25</ele><time>2026-05-02T09:08:49.001Z</time></trkpt><trkpt lat="43.31357024415846" lon="-4.258956115329825"><ele>152.0</ele><time>2026-05-02T09:08:50.001Z</time></trkpt><trkpt lat="43.313549662733315" lon="-4.25880256122918"><ele>150.75</ele><time>2026-05-02T09:08:51.001Z</time></trkpt><trkpt lat="43.31352971221522" lon="-4.258647385132387"><ele>149.5</ele><time>2026-05-02T09:08:52.001Z</time></trkpt><trkpt lat="43.31351060569414" lon="-4.2584870074532235"><ele>148.25</ele><time>2026-05-02T09:08:53.001Z</time></trkpt><trkpt lat="43.313491297958066" lon="-4.258336748776169"><ele>147.0</ele><time>2026-05-02T09:08:54.001Z</time></trkpt><trkpt lat="43.31346932799399" lon="-4.258183034180073"><ele>146.5</ele><time>2026-05-02T09:08:55.001Z</time></trkpt><trkpt lat="43.31344825433905" lon="-4.258028953276968"><ele>146.0</ele><time>2026-05-02T09:08:56.001Z</time></trkpt><trkpt lat="43.31342461939803" lon="-4.2578741267477795"><ele>145.5</ele><time>2026-05-02T09:08:57.001Z</time></trkpt><trkpt lat="43.313399513708575" lon="-4.257722102265385"><ele>145.0</ele><time>2026-05-02T09:08:58.001Z</time></trkpt><trkpt lat="43.31337441972655" lon="-4.25757313825544"><ele>145.0</ele><time>2026-05-02T09:08:59.001Z</time></trkpt><trkpt lat="43.31334380876648" lon="-4.257422165045869"><ele>145.0</ele><time>2026-05-02T09:09:00.001Z</time></trkpt><trkpt lat="43.31331048019571" lon="-4.257270638222803"><ele>145.0</ele><time>2026-05-02T09:09:01.001Z</time></trkpt><trkpt lat="43.313280651474976" lon="-4.257124409361608"><ele>145.0</ele><time>2026-05-02T09:09:02.001Z</time></trkpt><trkpt lat="43.313247876385724" lon="-4.256977345442735"><ele>144.25</ele><time>2026-05-02T09:09:03.001Z</time></trkpt><trkpt lat="43.313212112503095" lon="-4.256826265307987"><ele>143.5</ele><time>2026-05-02T09:09:04.001Z</time></trkpt><trkpt lat="43.31317603860569" lon="-4.256683659189139"><ele>142.75</ele><time>2026-05-02T09:09:05.001Z</time></trkpt><trkpt lat="43.313139732558064" lon="-4.256534815032495"><ele>142.0</ele><time>2026-05-02T09:09:06.001Z</time></trkpt><trkpt lat="43.31310280775541" lon="-4.25639112541242"><ele>142.6</ele><time>2026-05-02T09:09:07.001Z</time></trkpt><trkpt lat="43.31306854015311" lon="-4.2562424730015564"><ele>143.2</ele><time>2026-05-02T09:09:08.001Z</time></trkpt><trkpt lat="43.313029810052754" lon="-4.256101959587545"><ele>143.8</ele><time>2026-05-02T09:09:09.001Z</time></trkpt><trkpt lat="43.3129936159219" lon="-4.255956102841778"><ele>144.4</ele><time>2026-05-02T09:09:10.001Z</time></trkpt><trkpt lat="43.312958698194535" lon="-4.255808278485845"><ele>145.0</ele><time>2026-05-02T09:09:11.001Z</time></trkpt><trkpt lat="43.312921591103695" lon="-4.255662056444004"><ele>144.0</ele><time>2026-05-02T09:09:12.001Z</time></trkpt><trkpt lat="43.31288389774037" lon="-4.255517576518892"><ele>143.0</ele><time>2026-05-02T09:09:13.001Z</time></trkpt><trkpt lat="43.312845717631454" lon="-4.255373194147241"><ele>142.0</ele><time>2026-05-02T09:09:14.001Z</time></trkpt><trkpt lat="43.312810569147615" lon="-4.255227340038702"><ele>141.0</ele><time>2026-05-02T09:09:15.001Z</time></trkpt><trkpt lat="43.31277331680302" lon="-4.255077260525218"><ele>141.0</ele><time>2026-05-02T09:09:16.001Z</time></trkpt><trkpt lat="43.31273491681107" lon="-4.254936165813843"><ele>141.0</ele><time>2026-05-02T09:09:17.001Z</time></trkpt><trkpt lat="43.312698398335606" lon="-4.254788943876588"><ele>141.0</ele><time>2026-05-02T09:09:18.001Z</time></trkpt><trkpt lat="43.31266403435901" lon="-4.254642429036205"><ele>141.0</ele><time>2026-05-02T09:09:19.001Z</time></trkpt><trkpt lat="43.31262911365693" lon="-4.254496796628256"><ele>141.0</ele><time>2026-05-02T09:09:20.001Z</time></trkpt><trkpt lat="43.31260104718496" lon="-4.2543470947598205"><ele>141.2</ele><time>2026-05-02T09:09:21.001Z</time></trkpt><trkpt lat="43.312573349760996" lon="-4.254195491396883"><ele>141.39999999999998</ele><time>2026-05-02T09:09:22.001Z</time></trkpt><trkpt lat="43.31254537190437" lon="-4.254048090101716"><ele>141.6</ele><time>2026-05-02T09:09:23.001Z</time></trkpt><trkpt lat="43.31252226146965" lon="-4.25389975251843"><ele>141.79999999999998</ele><time>2026-05-02T09:09:24.001Z</time></trkpt><trkpt lat="43.31250238090513" lon="-4.253750157777593"><ele>142.0</ele><time>2026-05-02T09:09:25.001Z</time></trkpt><trkpt lat="43.312482491394896" lon="-4.2535992683800705"><ele>142.4</ele><time>2026-05-02T09:09:26.001Z</time></trkpt><trkpt lat="43.31246638041908" lon="-4.253451241284491"><ele>142.79999999999998</ele><time>2026-05-02T09:09:27.001Z</time></trkpt><trkpt lat="43.31245304691643" lon="-4.253295907998465"><ele>143.2</ele><time>2026-05-02T09:09:28.001Z</time></trkpt><trkpt lat="43.31243648914087" lon="-4.253143224440353"><ele>143.6</ele><time>2026-05-02T09:09:29.001Z</time></trkpt><trkpt lat="43.31242733656683" lon="-4.252991303411023"><ele>144.0</ele><time>2026-05-02T09:09:30.001Z</time></trkpt><trkpt lat="43.312417074561075" lon="-4.252838661264926"><ele>145.4</ele><time>2026-05-02T09:09:31Z</time></trkpt><trkpt lat="43.312404294106486" lon="-4.252686005366726"><ele>146.8</ele><time>2026-05-02T09:09:32Z</time></trkpt><trkpt lat="43.312392859914986" lon="-4.252535698448966"><ele>148.2</ele><time>2026-05-02T09:09:33Z</time></trkpt><trkpt lat="43.31238246978566" lon="-4.252383977271345"><ele>149.6</ele><time>2026-05-02T09:09:34Z</time></trkpt><trkpt lat="43.312371944122845" lon="-4.252233600135424"><ele>151.0</ele><time>2026-05-02T09:09:35Z</time></trkpt><trkpt lat="43.31236572810213" lon="-4.252083253805664"><ele>151.6</ele><time>2026-05-02T09:09:36Z</time></trkpt><trkpt lat="43.31235233091719" lon="-4.251932570992794"><ele>152.2</ele><time>2026-05-02T09:09:37Z</time></trkpt><trkpt lat="43.31234121345577" lon="-4.251783538323954"><ele>152.8</ele><time>2026-05-02T09:09:38Z</time></trkpt><trkpt lat="43.3123298439457" lon="-4.251634108083851"><ele>153.4</ele><time>2026-05-02T09:09:39Z</time></trkpt><trkpt lat="43.312318639032036" lon="-4.251484861472593"><ele>154.0</ele><time>2026-05-02T09:09:40Z</time></trkpt><trkpt lat="43.31230689625282" lon="-4.251334000834274"><ele>154.4</ele><time>2026-05-02T09:09:41Z</time></trkpt><trkpt lat="43.31229598222256" lon="-4.2511844555325204"><ele>154.8</ele><time>2026-05-02T09:09:42Z</time></trkpt><trkpt lat="43.3122866871281" lon="-4.25103262177627"><ele>155.2</ele><time>2026-05-02T09:09:43Z</time></trkpt><trkpt lat="43.31227507090743" lon="-4.250885209183019"><ele>155.6</ele><time>2026-05-02T09:09:44Z</time></trkpt><trkpt lat="43.312263919450196" lon="-4.250734276213085"><ele>156.0</ele><time>2026-05-02T09:09:45Z</time></trkpt><trkpt lat="43.31225128967951" lon="-4.250581571474723"><ele>155.2</ele><time>2026-05-02T09:09:46Z</time></trkpt><trkpt lat="43.31224049757458" lon="-4.250430955725132"><ele>154.39999999999998</ele><time>2026-05-02T09:09:47Z</time></trkpt><trkpt lat="43.3122277633533" lon="-4.250274770700737"><ele>153.6</ele><time>2026-05-02T09:09:48Z</time></trkpt><trkpt lat="43.31221287956515" lon="-4.250126619473536"><ele>152.79999999999998</ele><time>2026-05-02T09:09:49Z</time></trkpt><trkpt lat="43.31220025277617" lon="-4.249971478657065"><ele>152.0</ele><time>2026-05-02T09:09:50Z</time></trkpt><trkpt lat="43.31218376625366" lon="-4.249815588052272"><ele>150.6</ele><time>2026-05-02T09:09:51Z</time></trkpt><trkpt lat="43.312163788371485" lon="-4.249666402915111"><ele>149.2</ele><time>2026-05-02T09:09:52Z</time></trkpt><trkpt lat="43.31214253063519" lon="-4.2495153686529985"><ele>147.8</ele><time>2026-05-02T09:09:53Z</time></trkpt><trkpt lat="43.3121219863537" lon="-4.249364586532221"><ele>146.4</ele><time>2026-05-02T09:09:54Z</time></trkpt><trkpt lat="43.312095903202" lon="-4.249211372043234"><ele>145.0</ele><time>2026-05-02T09:09:55Z</time></trkpt><trkpt lat="43.312070194839656" lon="-4.249066470515353"><ele>145.2</ele><time>2026-05-02T09:09:56Z</time></trkpt><trkpt lat="43.312044318869155" lon="-4.24891732197647"><ele>145.4</ele><time>2026-05-02T09:09:57Z</time></trkpt><trkpt lat="43.312018809146096" lon="-4.248773234921037"><ele>145.6</ele><time>2026-05-02T09:09:58Z</time></trkpt><trkpt lat="43.312004495071726" lon="-4.248642919127955"><ele>145.8</ele><time>2026-05-02T09:09:59Z</time></trkpt><trkpt lat="43.311981675408596" lon="-4.248500086193396"><ele>146.0</ele><time>2026-05-02T09:10:00Z</time></trkpt><trkpt lat="43.311978076066126" lon="-4.24836713039043"><ele>146.0</ele><time>2026-05-02T09:10:01Z</time></trkpt><trkpt lat="43.31197252300041" lon="-4.248240694980338"><ele>146.0</ele><time>2026-05-02T09:10:02Z</time></trkpt><trkpt lat="43.31195531209784" lon="-4.248129027887122"><ele>146.0</ele><time>2026-05-02T09:10:03Z</time></trkpt><trkpt lat="43.3119074972215" lon="-4.24803812425833"><ele>146.0</ele><time>2026-05-02T09:10:04Z</time></trkpt><trkpt lat="43.311854947215984" lon="-4.247950957129132"><ele>146.0</ele><time>2026-05-02T09:10:05Z</time></trkpt><trkpt lat="43.31182955182491" lon="-4.247841535602037"><ele>146.0</ele><time>2026-05-02T09:10:06Z</time></trkpt><trkpt lat="43.31181238244859" lon="-4.247718057183353"><ele>148.0</ele><time>2026-05-02T09:10:07Z</time></trkpt><trkpt lat="43.31180957422164" lon="-4.247600946539308"><ele>150.0</ele><time>2026-05-02T09:10:08Z</time></trkpt><trkpt lat="43.31176021209099" lon="-4.247472331727502"><ele>152.0</ele><time>2026-05-02T09:10:09Z</time></trkpt><trkpt lat="43.31169618913312" lon="-4.247227044827097"><ele>154.0</ele><time>2026-05-02T09:10:11Z</time></trkpt><trkpt lat="43.31166944154837" lon="-4.2471001530129"><ele>154.2</ele><time>2026-05-02T09:10:12Z</time></trkpt><trkpt lat="43.31164122691202" lon="-4.246968519462288"><ele>154.4</ele><time>2026-05-02T09:10:13Z</time></trkpt><trkpt lat="43.3116111720847" lon="-4.246838290634516"><ele>154.6</ele><time>2026-05-02T09:10:14Z</time></trkpt><trkpt lat="43.311578954886535" lon="-4.246707187003268"><ele>154.8</ele><time>2026-05-02T09:10:15Z</time></trkpt><trkpt lat="43.31154657411822" lon="-4.246571876386309"><ele>155.0</ele><time>2026-05-02T09:10:16Z</time></trkpt><trkpt lat="43.311511464056345" lon="-4.246439590962655"><ele>155.2</ele><time>2026-05-02T09:10:17Z</time></trkpt><trkpt lat="43.31147412900946" lon="-4.246304236054605"><ele>155.4</ele><time>2026-05-02T09:10:18Z</time></trkpt><trkpt lat="43.311437997401875" lon="-4.24617445310473"><ele>155.6</ele><time>2026-05-02T09:10:19Z</time></trkpt><trkpt lat="43.31140254821302" lon="-4.246043689283699"><ele>155.8</ele><time>2026-05-02T09:10:20Z</time></trkpt><trkpt lat="43.31136397742973" lon="-4.245913960219345"><ele>156.0</ele><time>2026-05-02T09:10:21Z</time></trkpt><trkpt lat="43.31132464059918" lon="-4.24578899065765"><ele>157.2</ele><time>2026-05-02T09:10:22Z</time></trkpt><trkpt lat="43.31128412237998" lon="-4.2456627694732925"><ele>158.39999999999998</ele><time>2026-05-02T09:10:23Z</time></trkpt><trkpt lat="43.3112417433997" lon="-4.245537338268663"><ele>159.6</ele><time>2026-05-02T09:10:24Z</time></trkpt><trkpt lat="43.31119919758453" lon="-4.2454169907561825"><ele>160.79999999999998</ele><time>2026-05-02T09:10:25Z</time></trkpt><trkpt lat="43.31115798815722" lon="-4.24530922455858"><ele>162.0</ele><time>2026-05-02T09:10:26.001Z</time></trkpt><trkpt lat="43.31111406197996" lon="-4.245223607790884"><ele>162.0</ele><time>2026-05-02T09:10:27.001Z</time></trkpt><trkpt lat="43.311040959663394" lon="-4.2451240210005565"><ele>162.0</ele><time>2026-05-02T09:10:29.001Z</time></trkpt><trkpt lat="43.31096067434059" lon="-4.245025739782913"><ele>162.0</ele><time>2026-05-02T09:10:31.001Z</time></trkpt><trkpt lat="43.31089011559944" lon="-4.244874077214938"><ele>162.0</ele><time>2026-05-02T09:10:33.001Z</time></trkpt><trkpt lat="43.3108641615741" lon="-4.244775232590397"><ele>162.0</ele><time>2026-05-02T09:10:34.001Z</time></trkpt><trkpt lat="43.31083288914418" lon="-4.244669385741562"><ele>162.0</ele><time>2026-05-02T09:10:35.001Z</time></trkpt><trkpt lat="43.31079035821124" lon="-4.2445642907369985"><ele>162.0</ele><time>2026-05-02T09:10:36.001Z</time></trkpt><trkpt lat="43.310738464683766" lon="-4.24445731625492"><ele>162.0</ele><time>2026-05-02T09:10:37.001Z</time></trkpt><trkpt lat="43.31067676787538" lon="-4.244350110330052"><ele>162.0</ele><time>2026-05-02T09:10:38.001Z</time></trkpt><trkpt lat="43.310609937061685" lon="-4.244240570947153"><ele>162.0</ele><time>2026-05-02T09:10:39.001Z</time></trkpt><trkpt lat="43.31054086449993" lon="-4.244127700175898"><ele>162.0</ele><time>2026-05-02T09:10:40.001Z</time></trkpt><trkpt lat="43.31047107429647" lon="-4.2440131814211925"><ele>162.0</ele><time>2026-05-02T09:10:41.001Z</time></trkpt><trkpt lat="43.310409653651035" lon="-4.243904748018988"><ele>162.0</ele><time>2026-05-02T09:10:42.001Z</time></trkpt><trkpt lat="43.31033509192818" lon="-4.243802173765012"><ele>162.0</ele><time>2026-05-02T09:10:43.001Z</time></trkpt><trkpt lat="43.310270515229526" lon="-4.243706482907321"><ele>162.0</ele><time>2026-05-02T09:10:44.001Z</time></trkpt><trkpt lat="43.31020949380732" lon="-4.243625192835251"><ele>160.0</ele><time>2026-05-02T09:10:45.001Z</time></trkpt><trkpt lat="43.31017175099281" lon="-4.2435218449931"><ele>158.0</ele><time>2026-05-02T09:10:46.001Z</time></trkpt><trkpt lat="43.31010344833737" lon="-4.243459650960581"><ele>156.0</ele><time>2026-05-02T09:10:47.001Z</time></trkpt><trkpt lat="43.309939349081944" lon="-4.243245489701705"><ele>154.0</ele><time>2026-05-02T09:10:48.001Z</time></trkpt><trkpt lat="43.30985864604919" lon="-4.243136317786181"><ele>152.25</ele><time>2026-05-02T09:10:49.001Z</time></trkpt><trkpt lat="43.30977707581331" lon="-4.243023468603413"><ele>150.5</ele><time>2026-05-02T09:10:50.001Z</time></trkpt><trkpt lat="43.30969752798656" lon="-4.242912105294387"><ele>148.75</ele><time>2026-05-02T09:10:51.001Z</time></trkpt><trkpt lat="43.30961830959534" lon="-4.242803642528304"><ele>147.0</ele><time>2026-05-02T09:10:52.001Z</time></trkpt><trkpt lat="43.3095407723391" lon="-4.242695209829645"><ele>147.0</ele><time>2026-05-02T09:10:53.001Z</time></trkpt><trkpt lat="43.30946340371216" lon="-4.242585674661774"><ele>147.0</ele><time>2026-05-02T09:10:54.001Z</time></trkpt><trkpt lat="43.30938415748277" lon="-4.24247343388734"><ele>147.0</ele><time>2026-05-02T09:10:55.001Z</time></trkpt><trkpt lat="43.309310759530156" lon="-4.242358715084558"><ele>147.0</ele><time>2026-05-02T09:10:56.001Z</time></trkpt><trkpt lat="43.30924443140712" lon="-4.2422380701765725"><ele>147.0</ele><time>2026-05-02T09:10:57.001Z</time></trkpt><trkpt lat="43.30918215548952" lon="-4.242111823234615"><ele>145.79999999999998</ele><time>2026-05-02T09:10:58.001Z</time></trkpt><trkpt lat="43.30912984628053" lon="-4.241979293100072"><ele>144.6</ele><time>2026-05-02T09:10:59.001Z</time></trkpt><trkpt lat="43.30908446430287" lon="-4.241844174550464"><ele>143.39999999999998</ele><time>2026-05-02T09:11:00.001Z</time></trkpt><trkpt lat="43.30904603672564" lon="-4.241705306273651"><ele>142.2</ele><time>2026-05-02T09:11:01.001Z</time></trkpt><trkpt lat="43.30901980676601" lon="-4.241559334011305"><ele>141.0</ele><time>2026-05-02T09:11:02.001Z</time></trkpt><trkpt lat="43.308990475772305" lon="-4.241408004322102"><ele>139.75</ele><time>2026-05-02T09:11:03.001Z</time></trkpt><trkpt lat="43.308971149499435" lon="-4.2412491157663865"><ele>138.5</ele><time>2026-05-02T09:11:04.001Z</time></trkpt><trkpt lat="43.308958372084284" lon="-4.241092483117426"><ele>137.25</ele><time>2026-05-02T09:11:05.001Z</time></trkpt><trkpt lat="43.308950212634656" lon="-4.240938679019619"><ele>136.0</ele><time>2026-05-02T09:11:06.001Z</time></trkpt><trkpt lat="43.30894689105681" lon="-4.240786808012759"><ele>136.0</ele><time>2026-05-02T09:11:07.001Z</time></trkpt><trkpt lat="43.30895023603989" lon="-4.240632987115232"><ele>136.0</ele><time>2026-05-02T09:11:08.001Z</time></trkpt><trkpt lat="43.3089519793162" lon="-4.240479029218188"><ele>136.0</ele><time>2026-05-02T09:11:09.001Z</time></trkpt><trkpt lat="43.30895233676891" lon="-4.240329610629134"><ele>136.0</ele><time>2026-05-02T09:11:10.001Z</time></trkpt><trkpt lat="43.308967676715525" lon="-4.240175241685723"><ele>136.0</ele><time>2026-05-02T09:11:11.001Z</time></trkpt><trkpt lat="43.308957786423406" lon="-4.24004248543373"><ele>135.0</ele><time>2026-05-02T09:11:12.001Z</time></trkpt><trkpt lat="43.308952445942225" lon="-4.239896435695039"><ele>134.0</ele><time>2026-05-02T09:11:13.001Z</time></trkpt><trkpt lat="43.308955422148564" lon="-4.239748392552203"><ele>133.0</ele><time>2026-05-02T09:11:14.001Z</time></trkpt><trkpt lat="43.30895690901947" lon="-4.239604902016167"><ele>132.0</ele><time>2026-05-02T09:11:15.001Z</time></trkpt><trkpt lat="43.30896213403145" lon="-4.239466420180342"><ele>131.0</ele><time>2026-05-02T09:11:16.001Z</time></trkpt><trkpt lat="43.30896321162441" lon="-4.239331652030637"><ele>131.0</ele><time>2026-05-02T09:11:17.001Z</time></trkpt><trkpt lat="43.30896609873486" lon="-4.2391968873800625"><ele>131.0</ele><time>2026-05-02T09:11:18.001Z</time></trkpt><trkpt lat="43.308965503202174" lon="-4.239064868752982"><ele>131.0</ele><time>2026-05-02T09:11:19.001Z</time></trkpt><trkpt lat="43.308966167142856" lon="-4.238937927169167"><ele>131.0</ele><time>2026-05-02T09:11:20.001Z</time></trkpt><trkpt lat="43.308964679332696" lon="-4.238819715150248"><ele>131.0</ele><time>2026-05-02T09:11:21.001Z</time></trkpt><trkpt lat="43.30896780241034" lon="-4.238718376169376"><ele>131.0</ele><time>2026-05-02T09:11:22.001Z</time></trkpt><trkpt lat="43.30897159270273" lon="-4.238616671872401"><ele>131.0</ele><time>2026-05-02T09:11:23.001Z</time></trkpt><trkpt lat="43.308974050872" lon="-4.238516763604532"><ele>131.0</ele><time>2026-05-02T09:11:24.001Z</time></trkpt><trkpt lat="43.30898486190465" lon="-4.2383433162287405"><ele>131.0</ele><time>2026-05-02T09:11:26.001Z</time></trkpt><trkpt lat="43.30899340918998" lon="-4.238174200038211"><ele>131.0</ele><time>2026-05-02T09:11:28.001Z</time></trkpt><trkpt lat="43.30901684600126" lon="-4.238019120455541"><ele>131.0</ele><time>2026-05-02T09:11:30.001Z</time></trkpt><trkpt lat="43.309011024053646" lon="-4.237882044008885"><ele>130.4</ele><time>2026-05-02T09:11:32.001Z</time></trkpt><trkpt lat="43.308993676648875" lon="-4.237737773651431"><ele>129.8</ele><time>2026-05-02T09:11:34.001Z</time></trkpt><trkpt lat="43.309006826523664" lon="-4.237611348143821"><ele>129.20000000000002</ele><time>2026-05-02T09:11:36.001Z</time></trkpt><trkpt lat="43.30906523596944" lon="-4.237517149891937"><ele>128.6</ele><time>2026-05-02T09:11:37.999Z</time></trkpt><trkpt lat="43.30915018145414" lon="-4.237402940139823"><ele>128.0</ele><time>2026-05-02T09:11:39.999Z</time></trkpt><trkpt lat="43.30918650521268" lon="-4.237327747849638"><ele>128.28571428571428</ele><time>2026-05-02T09:11:40.999Z</time></trkpt><trkpt lat="43.30921708539445" lon="-4.23724185402832"><ele>128.57142857142856</ele><time>2026-05-02T09:11:41.999Z</time></trkpt><trkpt lat="43.30925087203714" lon="-4.2371599240804025"><ele>128.85714285714286</ele><time>2026-05-02T09:11:42.999Z</time></trkpt><trkpt lat="43.30926815930431" lon="-4.237060208702782"><ele>129.14285714285714</ele><time>2026-05-02T09:11:43.999Z</time></trkpt><trkpt lat="43.309292100588316" lon="-4.236970632173121"><ele>129.42857142857144</ele><time>2026-05-02T09:11:44.999Z</time></trkpt><trkpt lat="43.30931288822108" lon="-4.236880771539718"><ele>129.71428571428572</ele><time>2026-05-02T09:11:45.999Z</time></trkpt><trkpt lat="43.309330291455765" lon="-4.236788384971498"><ele>130.0</ele><time>2026-05-02T09:11:46.999Z</time></trkpt><trkpt lat="43.309346107668304" lon="-4.236693942163114"><ele>130.0</ele><time>2026-05-02T09:11:47.999Z</time></trkpt><trkpt lat="43.30936314104209" lon="-4.236585953158222"><ele>130.0</ele><time>2026-05-02T09:11:48.999Z</time></trkpt><trkpt lat="43.30937456925546" lon="-4.236474486471338"><ele>130.0</ele><time>2026-05-02T09:11:49.999Z</time></trkpt><trkpt lat="43.30938213122116" lon="-4.236357207138305"><ele>130.0</ele><time>2026-05-02T09:11:50.999Z</time></trkpt><trkpt lat="43.30938652803414" lon="-4.236237393920115"><ele>130.0</ele><time>2026-05-02T09:11:52Z</time></trkpt><trkpt lat="43.30940724565638" lon="-4.236121276276638"><ele>130.0</ele><time>2026-05-02T09:11:53Z</time></trkpt><trkpt lat="43.30940867340493" lon="-4.235992059316835"><ele>129.8</ele><time>2026-05-02T09:11:54Z</time></trkpt><trkpt lat="43.30941365327851" lon="-4.235865537230095"><ele>129.6</ele><time>2026-05-02T09:11:55Z</time></trkpt><trkpt lat="43.30941924566462" lon="-4.235740523000539"><ele>129.4</ele><time>2026-05-02T09:11:56Z</time></trkpt><trkpt lat="43.30942353942062" lon="-4.2356142934729935"><ele>129.2</ele><time>2026-05-02T09:11:57Z</time></trkpt><trkpt lat="43.30943274155433" lon="-4.235487756572096"><ele>129.0</ele><time>2026-05-02T09:11:58Z</time></trkpt><trkpt lat="43.30943950687858" lon="-4.235364902942331"><ele>128.83333333333334</ele><time>2026-05-02T09:11:59Z</time></trkpt><trkpt lat="43.309445670919345" lon="-4.235250301681086"><ele>128.66666666666666</ele><time>2026-05-02T09:12:00Z</time></trkpt><trkpt lat="43.30944994810279" lon="-4.235136487403054"><ele>128.5</ele><time>2026-05-02T09:12:01Z</time></trkpt><trkpt lat="43.30945676130917" lon="-4.235032804409746"><ele>128.33333333333331</ele><time>2026-05-02T09:12:02Z</time></trkpt><trkpt lat="43.3094634703022" lon="-4.234928811515571"><ele>128.16666666666666</ele><time>2026-05-02T09:12:03Z</time></trkpt><trkpt lat="43.30947504523232" lon="-4.234831136303863"><ele>128.0</ele><time>2026-05-02T09:12:04Z</time></trkpt><trkpt lat="43.309485136685744" lon="-4.234734405626371"><ele>127.99999999999999</ele><time>2026-05-02T09:12:05Z</time></trkpt><trkpt lat="43.30949819249399" lon="-4.234645819304447"><ele>128.0</ele><time>2026-05-02T09:12:06Z</time></trkpt><trkpt lat="43.30952454970839" lon="-4.234494549796077"><ele>128.0</ele><time>2026-05-02T09:12:08Z</time></trkpt><trkpt lat="43.30957206825763" lon="-4.234348920565531"><ele>128.0</ele><time>2026-05-02T09:12:10Z</time></trkpt><trkpt lat="43.309597569154256" lon="-4.234261785522682"><ele>127.99999999999999</ele><time>2026-05-02T09:12:11Z</time></trkpt><trkpt lat="43.30962793112627" lon="-4.234170283483878"><ele>128.0</ele><time>2026-05-02T09:12:12Z</time></trkpt><trkpt lat="43.30965437889181" lon="-4.234080969634767"><ele>128.0</ele><time>2026-05-02T09:12:13Z</time></trkpt><trkpt lat="43.30968055953104" lon="-4.23399256134604"><ele>127.99999999999999</ele><time>2026-05-02T09:12:14Z</time></trkpt><trkpt lat="43.309709360197935" lon="-4.233909527701065"><ele>128.0</ele><time>2026-05-02T09:12:15Z</time></trkpt><trkpt lat="43.30973358120803" lon="-4.233814875607234"><ele>128.0</ele><time>2026-05-02T09:12:16Z</time></trkpt><trkpt lat="43.30976755052447" lon="-4.233734992620299"><ele>127.99999999999999</ele><time>2026-05-02T09:12:17Z</time></trkpt><trkpt lat="43.30979295447851" lon="-4.233645354738542"><ele>128.0</ele><time>2026-05-02T09:12:18Z</time></trkpt><trkpt lat="43.30982426073561" lon="-4.233550725653573"><ele>128.0</ele><time>2026-05-02T09:12:19Z</time></trkpt><trkpt lat="43.309852995976236" lon="-4.233459717073219"><ele>128.5</ele><time>2026-05-02T09:12:20Z</time></trkpt><trkpt lat="43.30989152976143" lon="-4.233374915380203"><ele>129.0</ele><time>2026-05-02T09:12:21Z</time></trkpt><trkpt lat="43.30992218362843" lon="-4.2332819810575675"><ele>129.5</ele><time>2026-05-02T09:12:22Z</time></trkpt><trkpt lat="43.309954242084245" lon="-4.233190546841834"><ele>130.0</ele><time>2026-05-02T09:12:23Z</time></trkpt><trkpt lat="43.3099834670578" lon="-4.233109018543542"><ele>130.5</ele><time>2026-05-02T09:12:24Z</time></trkpt><trkpt lat="43.310009932882586" lon="-4.233028737169734"><ele>131.0</ele><time>2026-05-02T09:12:25Z</time></trkpt><trkpt lat="43.31005769853551" lon="-4.232890702723379"><ele>131.0</ele><time>2026-05-02T09:12:27Z</time></trkpt><trkpt lat="43.310099638087564" lon="-4.232753037120415"><ele>131.0</ele><time>2026-05-02T09:12:29Z</time></trkpt><trkpt lat="43.310144199161726" lon="-4.23260635600667"><ele>131.0</ele><time>2026-05-02T09:12:31Z</time></trkpt><trkpt lat="43.3101719445849" lon="-4.232525911975048"><ele>131.0</ele><time>2026-05-02T09:12:32Z</time></trkpt><trkpt lat="43.310227890333614" lon="-4.232364037901822"><ele>131.0</ele><time>2026-05-02T09:12:34Z</time></trkpt><trkpt lat="43.31025680215212" lon="-4.2322745968960565"><ele>130.16666666666666</ele><time>2026-05-02T09:12:35Z</time></trkpt><trkpt lat="43.31028080819358" lon="-4.232184761483885"><ele>129.33333333333331</ele><time>2026-05-02T09:12:36Z</time></trkpt><trkpt lat="43.31031257689756" lon="-4.2320982944052625"><ele>128.5</ele><time>2026-05-02T09:12:37Z</time></trkpt><trkpt lat="43.31033722368926" lon="-4.23201727990298"><ele>127.66666666666666</ele><time>2026-05-02T09:12:38Z</time></trkpt><trkpt lat="43.31036478961167" lon="-4.231936894620505"><ele>126.83333333333333</ele><time>2026-05-02T09:12:39Z</time></trkpt><trkpt lat="43.310390956905486" lon="-4.231854445406087"><ele>126.0</ele><time>2026-05-02T09:12:40Z</time></trkpt><trkpt lat="43.3104383434079" lon="-4.231698359760862"><ele>126.0</ele><time>2026-05-02T09:12:42Z</time></trkpt><trkpt lat="43.3104720124926" lon="-4.2316152859975915"><ele>126.0</ele><time>2026-05-02T09:12:43.001Z</time></trkpt><trkpt lat="43.31050365908867" lon="-4.231522006294272"><ele>126.0</ele><time>2026-05-02T09:12:44.001Z</time></trkpt><trkpt lat="43.310539093882085" lon="-4.231425511562779"><ele>126.0</ele><time>2026-05-02T09:12:45.001Z</time></trkpt><trkpt lat="43.310572071459475" lon="-4.231325107717814"><ele>126.0</ele><time>2026-05-02T09:12:46.001Z</time></trkpt><trkpt lat="43.310604296473294" lon="-4.231224839567152"><ele>126.0</ele><time>2026-05-02T09:12:47.001Z</time></trkpt><trkpt lat="43.310639094569794" lon="-4.231118004139469"><ele>127.0</ele><time>2026-05-02T09:12:48.001Z</time></trkpt><trkpt lat="43.31067603836449" lon="-4.231007104893352"><ele>128.0</ele><time>2026-05-02T09:12:49.001Z</time></trkpt><trkpt lat="43.310712391875875" lon="-4.230896237952232"><ele>129.0</ele><time>2026-05-02T09:12:50.001Z</time></trkpt><trkpt lat="43.31075108207245" lon="-4.230786450192072"><ele>130.0</ele><time>2026-05-02T09:12:51.001Z</time></trkpt><trkpt lat="43.310790396938806" lon="-4.230668501594104"><ele>131.0</ele><time>2026-05-02T09:12:52.001Z</time></trkpt><trkpt lat="43.31082673367986" lon="-4.230550146974874"><ele>131.0</ele><time>2026-05-02T09:12:53.001Z</time></trkpt><trkpt lat="43.31086727936452" lon="-4.230430275366539"><ele>131.0</ele><time>2026-05-02T09:12:54.001Z</time></trkpt><trkpt lat="43.310911366151124" lon="-4.230307481887765"><ele>131.0</ele><time>2026-05-02T09:12:55.001Z</time></trkpt><trkpt lat="43.3109507267268" lon="-4.230183936675625"><ele>131.0</ele><time>2026-05-02T09:12:56.001Z</time></trkpt><trkpt lat="43.310991036055356" lon="-4.230055037983673"><ele>131.0</ele><time>2026-05-02T09:12:57.001Z</time></trkpt><trkpt lat="43.31103355575408" lon="-4.229926019146071"><ele>129.6</ele><time>2026-05-02T09:12:58.001Z</time></trkpt><trkpt lat="43.31107915767567" lon="-4.229796939891395"><ele>128.2</ele><time>2026-05-02T09:12:59.001Z</time></trkpt><trkpt lat="43.31112521159173" lon="-4.22966583435679"><ele>126.80000000000001</ele><time>2026-05-02T09:13:00.001Z</time></trkpt><trkpt lat="43.311171446159506" lon="-4.229536689971675"><ele>125.4</ele><time>2026-05-02T09:13:01.001Z</time></trkpt><trkpt lat="43.31121354465557" lon="-4.229389881656286"><ele>124.0</ele><time>2026-05-02T09:13:02.001Z</time></trkpt><trkpt lat="43.311260163653756" lon="-4.229267369102864"><ele>124.0</ele><time>2026-05-02T09:13:03.001Z</time></trkpt><trkpt lat="43.311304122373095" lon="-4.229130963983925"><ele>124.0</ele><time>2026-05-02T09:13:04.001Z</time></trkpt><trkpt lat="43.31134567686885" lon="-4.228987497550789"><ele>124.0</ele><time>2026-05-02T09:13:05.001Z</time></trkpt><trkpt lat="43.31138608729036" lon="-4.228869024129548"><ele>124.0</ele><time>2026-05-02T09:13:06.001Z</time></trkpt><trkpt lat="43.31143505038575" lon="-4.2287341931473055"><ele>124.0</ele><time>2026-05-02T09:13:07.001Z</time></trkpt><trkpt lat="43.3114850210377" lon="-4.2285998567305265"><ele>124.2</ele><time>2026-05-02T09:13:08.001Z</time></trkpt><trkpt lat="43.31152317741735" lon="-4.228468901772785"><ele>124.4</ele><time>2026-05-02T09:13:09.001Z</time></trkpt><trkpt lat="43.31157241498673" lon="-4.22833199970674"><ele>124.6</ele><time>2026-05-02T09:13:10.001Z</time></trkpt><trkpt lat="43.311627048339794" lon="-4.228196183555766"><ele>124.8</ele><time>2026-05-02T09:13:11.001Z</time></trkpt><trkpt lat="43.311683372402044" lon="-4.228066677503802"><ele>125.0</ele><time>2026-05-02T09:13:12.001Z</time></trkpt><trkpt lat="43.31173898040337" lon="-4.227936114292268"><ele>125.0</ele><time>2026-05-02T09:13:13.001Z</time></trkpt><trkpt lat="43.31179779537478" lon="-4.227810313475796"><ele>125.0</ele><time>2026-05-02T09:13:14.001Z</time></trkpt><trkpt lat="43.311859944845544" lon="-4.227683824499047"><ele>125.0</ele><time>2026-05-02T09:13:15.001Z</time></trkpt><trkpt lat="43.31192245311229" lon="-4.227555981036478"><ele>125.0</ele><time>2026-05-02T09:13:16.001Z</time></trkpt><trkpt lat="43.31198825426874" lon="-4.227432914567143"><ele>125.0</ele><time>2026-05-02T09:13:17.001Z</time></trkpt><trkpt lat="43.31204526418276" lon="-4.227304574755619"><ele>125.0</ele><time>2026-05-02T09:13:18.001Z</time></trkpt><trkpt lat="43.3121070256196" lon="-4.227176940948034"><ele>125.0</ele><time>2026-05-02T09:13:19.001Z</time></trkpt><trkpt lat="43.31217254333726" lon="-4.227054335586236"><ele>125.0</ele><time>2026-05-02T09:13:20.001Z</time></trkpt><trkpt lat="43.31222882932031" lon="-4.226933815211769"><ele>125.0</ele><time>2026-05-02T09:13:21.001Z</time></trkpt><trkpt lat="43.312296015956626" lon="-4.2268073279052025"><ele>125.0</ele><time>2026-05-02T09:13:22.001Z</time></trkpt><trkpt lat="43.31237897615836" lon="-4.226687378536363"><ele>124.8</ele><time>2026-05-02T09:13:23.001Z</time></trkpt><trkpt lat="43.312411645347204" lon="-4.226561728001228"><ele>124.6</ele><time>2026-05-02T09:13:24.001Z</time></trkpt><trkpt lat="43.312469318014614" lon="-4.226436440622552"><ele>124.4</ele><time>2026-05-02T09:13:25.001Z</time></trkpt><trkpt lat="43.31252824378457" lon="-4.226312273276124"><ele>124.2</ele><time>2026-05-02T09:13:26.001Z</time></trkpt><trkpt lat="43.31258629289477" lon="-4.226186996887517"><ele>124.0</ele><time>2026-05-02T09:13:27.001Z</time></trkpt><trkpt lat="43.312645089361155" lon="-4.226059729793388"><ele>124.0</ele><time>2026-05-02T09:13:28.001Z</time></trkpt><trkpt lat="43.312703781343615" lon="-4.22593482592873"><ele>124.0</ele><time>2026-05-02T09:13:29.001Z</time></trkpt><trkpt lat="43.312759515549246" lon="-4.225808336739098"><ele>124.0</ele><time>2026-05-02T09:13:30.001Z</time></trkpt><trkpt lat="43.31282095039711" lon="-4.225687240778229"><ele>124.0</ele><time>2026-05-02T09:13:31.001Z</time></trkpt><trkpt lat="43.312876627044155" lon="-4.225560359144156"><ele>124.0</ele><time>2026-05-02T09:13:32.001Z</time></trkpt><trkpt lat="43.31293361273009" lon="-4.225436936109049"><ele>123.6</ele><time>2026-05-02T09:13:33.001Z</time></trkpt><trkpt lat="43.31299369038109" lon="-4.22531480131082"><ele>123.2</ele><time>2026-05-02T09:13:34.001Z</time></trkpt><trkpt lat="43.31305245666193" lon="-4.225187204387585"><ele>122.79999999999998</ele><time>2026-05-02T09:13:35.001Z</time></trkpt><trkpt lat="43.313113992826445" lon="-4.225062121903688"><ele>122.39999999999999</ele><time>2026-05-02T09:13:36.001Z</time></trkpt><trkpt lat="43.31317016158005" lon="-4.224939115868925"><ele>122.0</ele><time>2026-05-02T09:13:37.001Z</time></trkpt><trkpt lat="43.31322731484909" lon="-4.224812905184868"><ele>122.19999999999999</ele><time>2026-05-02T09:13:38.001Z</time></trkpt><trkpt lat="43.31328569305409" lon="-4.2246851547103965"><ele>122.39999999999999</ele><time>2026-05-02T09:13:39.001Z</time></trkpt><trkpt lat="43.313342755909005" lon="-4.224555155656057"><ele>122.60000000000001</ele><time>2026-05-02T09:13:40.001Z</time></trkpt><trkpt lat="43.313401581612645" lon="-4.224428712316875"><ele>122.80000000000001</ele><time>2026-05-02T09:13:41.001Z</time></trkpt><trkpt lat="43.31345992109285" lon="-4.224299520957091"><ele>123.0</ele><time>2026-05-02T09:13:42.001Z</time></trkpt><trkpt lat="43.31351587482827" lon="-4.224172929216123"><ele>123.0</ele><time>2026-05-02T09:13:43Z</time></trkpt><trkpt lat="43.313572293311715" lon="-4.224047469238471"><ele>123.00000000000001</ele><time>2026-05-02T09:13:43.999Z</time></trkpt><trkpt lat="43.313630066807676" lon="-4.223920014034914"><ele>123.00000000000001</ele><time>2026-05-02T09:13:45Z</time></trkpt><trkpt lat="43.313688659152874" lon="-4.22379295515303"><ele>123.0</ele><time>2026-05-02T09:13:46Z</time></trkpt><trkpt lat="43.31374624871993" lon="-4.223662867012705"><ele>123.0</ele><time>2026-05-02T09:13:47Z</time></trkpt><trkpt lat="43.31380174102312" lon="-4.223533867503872"><ele>122.2</ele><time>2026-05-02T09:13:48Z</time></trkpt><trkpt lat="43.31385516618803" lon="-4.223404159965371"><ele>121.4</ele><time>2026-05-02T09:13:49Z</time></trkpt><trkpt lat="43.31390907125679" lon="-4.223274821334179"><ele>120.60000000000001</ele><time>2026-05-02T09:13:50Z</time></trkpt><trkpt lat="43.31396018880414" lon="-4.223141222857412"><ele>119.80000000000001</ele><time>2026-05-02T09:13:51Z</time></trkpt><trkpt lat="43.31400931160578" lon="-4.223007495995623"><ele>119.0</ele><time>2026-05-02T09:13:52Z</time></trkpt><trkpt lat="43.31405657737946" lon="-4.222867959793373"><ele>119.2</ele><time>2026-05-02T09:13:53Z</time></trkpt><trkpt lat="43.314104325715405" lon="-4.222731043574867"><ele>119.4</ele><time>2026-05-02T09:13:54Z</time></trkpt><trkpt lat="43.31415476228299" lon="-4.222595475743162"><ele>119.6</ele><time>2026-05-02T09:13:55Z</time></trkpt><trkpt lat="43.3142025479186" lon="-4.222456582177519"><ele>119.8</ele><time>2026-05-02T09:13:56Z</time></trkpt><trkpt lat="43.31424739675103" lon="-4.222316251418184"><ele>120.0</ele><time>2026-05-02T09:13:57Z</time></trkpt><trkpt lat="43.31429240271449" lon="-4.222177750198805"><ele>120.0</ele><time>2026-05-02T09:13:58Z</time></trkpt><trkpt lat="43.31433788535483" lon="-4.222035875766374"><ele>120.0</ele><time>2026-05-02T09:13:59Z</time></trkpt><trkpt lat="43.31437341129592" lon="-4.221896261445315"><ele>120.0</ele><time>2026-05-02T09:14:00Z</time></trkpt><trkpt lat="43.314415064830726" lon="-4.221753174405092"><ele>120.0</ele><time>2026-05-02T09:14:01Z</time></trkpt><trkpt lat="43.314462478757775" lon="-4.2216137849052116"><ele>120.0</ele><time>2026-05-02T09:14:02Z</time></trkpt><trkpt lat="43.31450692784592" lon="-4.221483983645759"><ele>119.0</ele><time>2026-05-02T09:14:03Z</time></trkpt><trkpt lat="43.31454690130361" lon="-4.2213426056791805"><ele>118.0</ele><time>2026-05-02T09:14:04Z</time></trkpt><trkpt lat="43.314588273009875" lon="-4.221201310825886"><ele>117.0</ele><time>2026-05-02T09:14:05Z</time></trkpt><trkpt lat="43.314635148095455" lon="-4.221062084176465"><ele>116.0</ele><time>2026-05-02T09:14:06Z</time></trkpt><trkpt lat="43.31466771003818" lon="-4.22093243750509"><ele>115.0</ele><time>2026-05-02T09:14:07Z</time></trkpt><trkpt lat="43.31471856382776" lon="-4.220785592092471"><ele>118.75</ele><time>2026-05-02T09:14:08Z</time></trkpt><trkpt lat="43.314756465331705" lon="-4.220650446648341"><ele>122.5</ele><time>2026-05-02T09:14:09Z</time></trkpt><trkpt lat="43.31479120603361" lon="-4.220511335102501"><ele>126.25</ele><time>2026-05-02T09:14:10Z</time></trkpt><trkpt lat="43.314780609166576" lon="-4.220341979315413"><ele>130.0</ele><time>2026-05-02T09:14:11Z</time></trkpt><trkpt lat="43.31483896693409" lon="-4.2201124501331835"><ele>130.0</ele><time>2026-05-02T09:14:12Z</time></trkpt><trkpt lat="43.314931215601696" lon="-4.219957953280213"><ele>130.0</ele><time>2026-05-02T09:14:14Z</time></trkpt><trkpt lat="43.31497268276259" lon="-4.21982126759939"><ele>130.0</ele><time>2026-05-02T09:14:15Z</time></trkpt><trkpt lat="43.31501394948815" lon="-4.219689086240699"><ele>130.0</ele><time>2026-05-02T09:14:16Z</time></trkpt><trkpt lat="43.3150538460389" lon="-4.219553289904945"><ele>127.8</ele><time>2026-05-02T09:14:17Z</time></trkpt><trkpt lat="43.31509690106008" lon="-4.219422952379832"><ele>125.6</ele><time>2026-05-02T09:14:18Z</time></trkpt><trkpt lat="43.31514207009033" lon="-4.219290986349008"><ele>123.4</ele><time>2026-05-02T09:14:19Z</time></trkpt><trkpt lat="43.315189391411806" lon="-4.219158350979788"><ele>121.2</ele><time>2026-05-02T09:14:20Z</time></trkpt><trkpt lat="43.31523886057702" lon="-4.219024474088758"><ele>119.0</ele><time>2026-05-02T09:14:21Z</time></trkpt><trkpt lat="43.315289521131554" lon="-4.218896367071138"><ele>118.80000000000001</ele><time>2026-05-02T09:14:22Z</time></trkpt><trkpt lat="43.31533588870098" lon="-4.2187653987850275"><ele>118.60000000000001</ele><time>2026-05-02T09:14:23Z</time></trkpt><trkpt lat="43.31538244470246" lon="-4.21863331822146"><ele>118.4</ele><time>2026-05-02T09:14:24Z</time></trkpt><trkpt lat="43.315422564644145" lon="-4.2184959176561705"><ele>118.2</ele><time>2026-05-02T09:14:25Z</time></trkpt><trkpt lat="43.315463941364094" lon="-4.21835929751026"><ele>118.0</ele><time>2026-05-02T09:14:26Z</time></trkpt><trkpt lat="43.315503282210436" lon="-4.2182232319500175"><ele>117.80000000000001</ele><time>2026-05-02T09:14:27Z</time></trkpt><trkpt lat="43.315542530359764" lon="-4.218086200798858"><ele>117.60000000000001</ele><time>2026-05-02T09:14:28Z</time></trkpt><trkpt lat="43.31558265283577" lon="-4.217949049680228"><ele>117.39999999999999</ele><time>2026-05-02T09:14:29Z</time></trkpt><trkpt lat="43.31562481172694" lon="-4.217809536199205"><ele>117.19999999999999</ele><time>2026-05-02T09:14:30Z</time></trkpt><trkpt lat="43.315671353365865" lon="-4.217674063762395"><ele>117.0</ele><time>2026-05-02T09:14:31Z</time></trkpt><trkpt lat="43.3157135125942" lon="-4.217535410447112"><ele>117.19999999999999</ele><time>2026-05-02T09:14:32Z</time></trkpt><trkpt lat="43.31575381234236" lon="-4.217398237920483"><ele>117.39999999999999</ele><time>2026-05-02T09:14:33Z</time></trkpt><trkpt lat="43.31579223336754" lon="-4.2172664435556895"><ele>117.60000000000001</ele><time>2026-05-02T09:14:34Z</time></trkpt><trkpt lat="43.315826812947485" lon="-4.217137954731913"><ele>117.80000000000001</ele><time>2026-05-02T09:14:35Z</time></trkpt><trkpt lat="43.315855409476896" lon="-4.21701217538941"><ele>118.0</ele><time>2026-05-02T09:14:36Z</time></trkpt><trkpt lat="43.31587668681082" lon="-4.21688537788635"><ele>118.0</ele><time>2026-05-02T09:14:37Z</time></trkpt><trkpt lat="43.31589091835572" lon="-4.216756868120567"><ele>118.00000000000001</ele><time>2026-05-02T09:14:38Z</time></trkpt><trkpt lat="43.315904643799755" lon="-4.216622320072474"><ele>118.00000000000001</ele><time>2026-05-02T09:14:39Z</time></trkpt><trkpt lat="43.315934851638666" lon="-4.216498577591929"><ele>118.0</ele><time>2026-05-02T09:14:40Z</time></trkpt><trkpt lat="43.31599136671841" lon="-4.216383803421734"><ele>118.0</ele><time>2026-05-02T09:14:41Z</time></trkpt><trkpt lat="43.316063419138025" lon="-4.216279677605956"><ele>117.2</ele><time>2026-05-02T09:14:42Z</time></trkpt><trkpt lat="43.31612715911764" lon="-4.216168147702586"><ele>116.4</ele><time>2026-05-02T09:14:43Z</time></trkpt><trkpt lat="43.31617875400358" lon="-4.2160455523373015"><ele>115.60000000000001</ele><time>2026-05-02T09:14:44Z</time></trkpt><trkpt lat="43.31622101441561" lon="-4.2159166394889676"><ele>114.80000000000001</ele><time>2026-05-02T09:14:45Z</time></trkpt><trkpt lat="43.31626445232124" lon="-4.21578480258902"><ele>114.0</ele><time>2026-05-02T09:14:46Z</time></trkpt><trkpt lat="43.31630239128334" lon="-4.21565102191704"><ele>113.80000000000001</ele><time>2026-05-02T09:14:47Z</time></trkpt><trkpt lat="43.316341461008825" lon="-4.215519197925362"><ele>113.60000000000001</ele><time>2026-05-02T09:14:48Z</time></trkpt><trkpt lat="43.316381049323056" lon="-4.215392197931844"><ele>113.4</ele><time>2026-05-02T09:14:49.001Z</time></trkpt><trkpt lat="43.316420383608495" lon="-4.215260633478373"><ele>113.2</ele><time>2026-05-02T09:14:50.001Z</time></trkpt><trkpt lat="43.316456950527005" lon="-4.215132210389113"><ele>113.0</ele><time>2026-05-02T09:14:51.001Z</time></trkpt><trkpt lat="43.316493889717364" lon="-4.215000339667691"><ele>112.80000000000001</ele><time>2026-05-02T09:14:52.001Z</time></trkpt><trkpt lat="43.31652811838945" lon="-4.214870223967559"><ele>112.60000000000001</ele><time>2026-05-02T09:14:53.001Z</time></trkpt><trkpt lat="43.31656203962766" lon="-4.214741559898679"><ele>112.39999999999999</ele><time>2026-05-02T09:14:54.001Z</time></trkpt><trkpt lat="43.3165950508816" lon="-4.214608341941916"><ele>112.19999999999999</ele><time>2026-05-02T09:14:55.001Z</time></trkpt><trkpt lat="43.31662915676249" lon="-4.214476183524567"><ele>112.0</ele><time>2026-05-02T09:14:56.001Z</time></trkpt><trkpt lat="43.3166567896616" lon="-4.214340316449263"><ele>112.0</ele><time>2026-05-02T09:14:57.001Z</time></trkpt><trkpt lat="43.31669018208561" lon="-4.214205325754856"><ele>111.99999999999999</ele><time>2026-05-02T09:14:58.001Z</time></trkpt><trkpt lat="43.316722225417884" lon="-4.21406824890812"><ele>111.99999999999999</ele><time>2026-05-02T09:14:59.001Z</time></trkpt><trkpt lat="43.31675494741991" lon="-4.2139300252704075"><ele>112.0</ele><time>2026-05-02T09:15:00.001Z</time></trkpt><trkpt lat="43.31678670073376" lon="-4.21379070595301"><ele>112.0</ele><time>2026-05-02T09:15:01.001Z</time></trkpt><trkpt lat="43.316819104010435" lon="-4.21364744621629"><ele>112.25</ele><time>2026-05-02T09:15:02.001Z</time></trkpt><trkpt lat="43.31686202348592" lon="-4.213406537896632"><ele>112.5</ele><time>2026-05-02T09:15:03.001Z</time></trkpt><trkpt lat="43.31691775806384" lon="-4.213224740359251"><ele>112.75</ele><time>2026-05-02T09:15:05.001Z</time></trkpt><trkpt lat="43.31695303170902" lon="-4.213084755209137"><ele>113.0</ele><time>2026-05-02T09:15:06.001Z</time></trkpt><trkpt lat="43.31698996669039" lon="-4.212942353908286"><ele>112.5</ele><time>2026-05-02T09:15:07.001Z</time></trkpt><trkpt lat="43.317032664488075" lon="-4.212799686893678"><ele>112.0</ele><time>2026-05-02T09:15:08.001Z</time></trkpt><trkpt lat="43.317077491147316" lon="-4.21265846307732"><ele>111.5</ele><time>2026-05-02T09:15:09.001Z</time></trkpt><trkpt lat="43.317120748303374" lon="-4.212516552812589"><ele>111.0</ele><time>2026-05-02T09:15:10.001Z</time></trkpt><trkpt lat="43.3171675453944" lon="-4.212372286224249"><ele>111.25</ele><time>2026-05-02T09:15:11.001Z</time></trkpt><trkpt lat="43.31721425905066" lon="-4.212230079719973"><ele>111.5</ele><time>2026-05-02T09:15:12.001Z</time></trkpt><trkpt lat="43.31726500291738" lon="-4.212089073753371"><ele>111.75</ele><time>2026-05-02T09:15:13.001Z</time></trkpt><trkpt lat="43.31731367685972" lon="-4.211953295127026"><ele>112.0</ele><time>2026-05-02T09:15:14.001Z</time></trkpt><trkpt lat="43.3173645806053" lon="-4.211811211452158"><ele>112.0</ele><time>2026-05-02T09:15:15.001Z</time></trkpt><trkpt lat="43.31741858385057" lon="-4.211668343075514"><ele>112.0</ele><time>2026-05-02T09:15:16.001Z</time></trkpt><trkpt lat="43.31747134783501" lon="-4.2115264112207775"><ele>112.0</ele><time>2026-05-02T09:15:17.001Z</time></trkpt><trkpt lat="43.31752414496112" lon="-4.2113889597139"><ele>112.0</ele><time>2026-05-02T09:15:18.001Z</time></trkpt><trkpt lat="43.317573250592666" lon="-4.211248144634308"><ele>111.75</ele><time>2026-05-02T09:15:19.001Z</time></trkpt><trkpt lat="43.31762089481123" lon="-4.211100397704756"><ele>111.5</ele><time>2026-05-02T09:15:20.001Z</time></trkpt><trkpt lat="43.317671546594504" lon="-4.210956180167702"><ele>111.25</ele><time>2026-05-02T09:15:21.001Z</time></trkpt><trkpt lat="43.31772122483725" lon="-4.2108114045612774"><ele>111.0</ele><time>2026-05-02T09:15:22.001Z</time></trkpt><trkpt lat="43.3177673563116" lon="-4.210668353755425"><ele>111.0</ele><time>2026-05-02T09:15:23.001Z</time></trkpt><trkpt lat="43.31781237961779" lon="-4.210524683676367"><ele>111.0</ele><time>2026-05-02T09:15:24.001Z</time></trkpt><trkpt lat="43.31785481740963" lon="-4.210380565613274"><ele>111.0</ele><time>2026-05-02T09:15:25.001Z</time></trkpt><trkpt lat="43.317898636322475" lon="-4.21023806330053"><ele>111.0</ele><time>2026-05-02T09:15:26.001Z</time></trkpt><trkpt lat="43.317937257622745" lon="-4.210094724444889"><ele>111.0</ele><time>2026-05-02T09:15:27.001Z</time></trkpt><trkpt lat="43.317973573912745" lon="-4.209952457425283"><ele>111.0</ele><time>2026-05-02T09:15:28.001Z</time></trkpt><trkpt lat="43.318012336427735" lon="-4.209807174759309"><ele>111.0</ele><time>2026-05-02T09:15:29.001Z</time></trkpt><trkpt lat="43.31804581967899" lon="-4.209663429613792"><ele>111.0</ele><time>2026-05-02T09:15:30.001Z</time></trkpt><trkpt lat="43.31807725666063" lon="-4.2095200354035205"><ele>111.0</ele><time>2026-05-02T09:15:31.001Z</time></trkpt><trkpt lat="43.31810775527981" lon="-4.209373906728987"><ele>112.19999999999999</ele><time>2026-05-02T09:15:32.001Z</time></trkpt><trkpt lat="43.31813548159568" lon="-4.209230572797768"><ele>113.39999999999999</ele><time>2026-05-02T09:15:33.001Z</time></trkpt><trkpt lat="43.31816848474149" lon="-4.209086726139051"><ele>114.6</ele><time>2026-05-02T09:15:34.001Z</time></trkpt><trkpt lat="43.31819635359034" lon="-4.20893918887106"><ele>115.8</ele><time>2026-05-02T09:15:35.001Z</time></trkpt><trkpt lat="43.31822363371353" lon="-4.208794505736295"><ele>117.0</ele><time>2026-05-02T09:15:36.001Z</time></trkpt><trkpt lat="43.31825723337307" lon="-4.208649502609691"><ele>117.0</ele><time>2026-05-02T09:15:37.001Z</time></trkpt><trkpt lat="43.318290719977576" lon="-4.208504392229285"><ele>116.99999999999999</ele><time>2026-05-02T09:15:38.001Z</time></trkpt><trkpt lat="43.3183268260436" lon="-4.208359539138204"><ele>116.99999999999999</ele><time>2026-05-02T09:15:39.001Z</time></trkpt><trkpt lat="43.31835847446257" lon="-4.208211483729543"><ele>117.0</ele><time>2026-05-02T09:15:40.001Z</time></trkpt><trkpt lat="43.318389190921245" lon="-4.2080626633311535"><ele>117.0</ele><time>2026-05-02T09:15:41.001Z</time></trkpt><trkpt lat="43.31841911568143" lon="-4.207914661550518"><ele>115.8</ele><time>2026-05-02T09:15:42.001Z</time></trkpt><trkpt lat="43.318447268418645" lon="-4.207768970106451"><ele>114.6</ele><time>2026-05-02T09:15:43.001Z</time></trkpt><trkpt lat="43.318476312417275" lon="-4.207623269315579"><ele>113.39999999999999</ele><time>2026-05-02T09:15:44.001Z</time></trkpt><trkpt lat="43.31850252691618" lon="-4.207475196967"><ele>112.19999999999999</ele><time>2026-05-02T09:15:45.001Z</time></trkpt><trkpt lat="43.318528540029206" lon="-4.207328203134521"><ele>111.0</ele><time>2026-05-02T09:15:46.001Z</time></trkpt><trkpt lat="43.31855759249949" lon="-4.2071800357610325"><ele>110.8</ele><time>2026-05-02T09:15:47.001Z</time></trkpt><trkpt lat="43.31858572386038" lon="-4.207036207805942"><ele>110.6</ele><time>2026-05-02T09:15:48.001Z</time></trkpt><trkpt lat="43.31861703398171" lon="-4.206891375056014"><ele>110.4</ele><time>2026-05-02T09:15:49Z</time></trkpt><trkpt lat="43.31864441196124" lon="-4.206745182674281"><ele>110.2</ele><time>2026-05-02T09:15:50Z</time></trkpt><trkpt lat="43.31867661404195" lon="-4.206601850714384"><ele>110.0</ele><time>2026-05-02T09:15:51Z</time></trkpt><trkpt lat="43.318706892979975" lon="-4.206457057430848"><ele>111.4</ele><time>2026-05-02T09:15:52Z</time></trkpt><trkpt lat="43.31873575764476" lon="-4.206311886236722"><ele>112.8</ele><time>2026-05-02T09:15:53Z</time></trkpt><trkpt lat="43.31876883957602" lon="-4.2061668930142435"><ele>114.19999999999999</ele><time>2026-05-02T09:15:54Z</time></trkpt><trkpt lat="43.31880435000733" lon="-4.206022296345638"><ele>115.6</ele><time>2026-05-02T09:15:55Z</time></trkpt><trkpt lat="43.31883858322915" lon="-4.205882523706247"><ele>117.0</ele><time>2026-05-02T09:15:56Z</time></trkpt><trkpt lat="43.31887454897055" lon="-4.205739917782366"><ele>119.19999999999999</ele><time>2026-05-02T09:15:57Z</time></trkpt><trkpt lat="43.318909996268275" lon="-4.205596284781301"><ele>121.39999999999999</ele><time>2026-05-02T09:15:58Z</time></trkpt><trkpt lat="43.31894544292599" lon="-4.205451297279797"><ele>123.60000000000001</ele><time>2026-05-02T09:15:59Z</time></trkpt><trkpt lat="43.3189838248118" lon="-4.205310641191227"><ele>125.80000000000001</ele><time>2026-05-02T09:16:00Z</time></trkpt><trkpt lat="43.31902330554683" lon="-4.205168101316687"><ele>128.0</ele><time>2026-05-02T09:16:01Z</time></trkpt><trkpt lat="43.319066257754365" lon="-4.20502729743038"><ele>128.0</ele><time>2026-05-02T09:16:02Z</time></trkpt><trkpt lat="43.319105012681206" lon="-4.2048864111148125"><ele>128.0</ele><time>2026-05-02T09:16:03Z</time></trkpt><trkpt lat="43.319142432242124" lon="-4.204744462255412"><ele>128.0</ele><time>2026-05-02T09:16:04Z</time></trkpt><trkpt lat="43.319182111007315" lon="-4.204600393097586"><ele>128.0</ele><time>2026-05-02T09:16:05Z</time></trkpt><trkpt lat="43.31921615669238" lon="-4.204458426092522"><ele>128.0</ele><time>2026-05-02T09:16:06Z</time></trkpt><trkpt lat="43.319255531922614" lon="-4.204311075275971"><ele>124.80000000000001</ele><time>2026-05-02T09:16:07Z</time></trkpt><trkpt lat="43.31928784387893" lon="-4.20416642063728"><ele>121.60000000000001</ele><time>2026-05-02T09:16:08Z</time></trkpt><trkpt lat="43.31932187343524" lon="-4.204020492120945"><ele>118.39999999999999</ele><time>2026-05-02T09:16:09Z</time></trkpt><trkpt lat="43.319354036641556" lon="-4.203876626563242"><ele>115.19999999999999</ele><time>2026-05-02T09:16:10Z</time></trkpt><trkpt lat="43.31938817376936" lon="-4.20372869443898"><ele>112.0</ele><time>2026-05-02T09:16:11Z</time></trkpt><trkpt lat="43.31941812851223" lon="-4.203584352711982"><ele>111.19999999999999</ele><time>2026-05-02T09:16:12Z</time></trkpt><trkpt lat="43.31945002933754" lon="-4.2034396984044085"><ele>110.39999999999999</ele><time>2026-05-02T09:16:13Z</time></trkpt><trkpt lat="43.31947944828995" lon="-4.2032935058572685"><ele>109.60000000000001</ele><time>2026-05-02T09:16:14Z</time></trkpt><trkpt lat="43.31951770335594" lon="-4.2031392267393555"><ele>108.80000000000001</ele><time>2026-05-02T09:16:15Z</time></trkpt><trkpt lat="43.31953790574479" lon="-4.202999969887828"><ele>108.0</ele><time>2026-05-02T09:16:16Z</time></trkpt><trkpt lat="43.31956468363675" lon="-4.2028528381475345"><ele>108.0</ele><time>2026-05-02T09:16:17Z</time></trkpt><trkpt lat="43.31959111831471" lon="-4.202708022991737"><ele>108.00000000000001</ele><time>2026-05-02T09:16:18Z</time></trkpt><trkpt lat="43.319616482941925" lon="-4.202563677114817"><ele>108.00000000000001</ele><time>2026-05-02T09:16:19Z</time></trkpt><trkpt lat="43.319640378073615" lon="-4.202418966898875"><ele>108.0</ele><time>2026-05-02T09:16:20Z</time></trkpt><trkpt lat="43.31966046485946" lon="-4.202272394860739"><ele>108.0</ele><time>2026-05-02T09:16:21Z</time></trkpt><trkpt lat="43.31968602714722" lon="-4.202127084596156"><ele>108.0</ele><time>2026-05-02T09:16:22Z</time></trkpt><trkpt lat="43.31970695534228" lon="-4.2019824647818265"><ele>108.00000000000001</ele><time>2026-05-02T09:16:23Z</time></trkpt><trkpt lat="43.319727949884765" lon="-4.201835889760855"><ele>108.00000000000001</ele><time>2026-05-02T09:16:24Z</time></trkpt><trkpt lat="43.31974807059782" lon="-4.201690630525752"><ele>108.0</ele><time>2026-05-02T09:16:25Z</time></trkpt><trkpt lat="43.31976334717662" lon="-4.201542648544719"><ele>108.0</ele><time>2026-05-02T09:16:26Z</time></trkpt><trkpt lat="43.319781349687005" lon="-4.201394894127251"><ele>109.60000000000001</ele><time>2026-05-02T09:16:27Z</time></trkpt><trkpt lat="43.319794677890215" lon="-4.201246429092544"><ele>111.20000000000002</ele><time>2026-05-02T09:16:28Z</time></trkpt><trkpt lat="43.31981374973361" lon="-4.2011017438753555"><ele>112.8</ele><time>2026-05-02T09:16:29Z</time></trkpt><trkpt lat="43.319825436120894" lon="-4.200954199722836"><ele>114.4</ele><time>2026-05-02T09:16:30Z</time></trkpt><trkpt lat="43.31984518708292" lon="-4.200806849800803"><ele>116.0</ele><time>2026-05-02T09:16:31Z</time></trkpt><trkpt lat="43.319856474692926" lon="-4.2006583463835865"><ele>116.0</ele><time>2026-05-02T09:16:32Z</time></trkpt><trkpt lat="43.319877485735574" lon="-4.200507633434028"><ele>116.0</ele><time>2026-05-02T09:16:33Z</time></trkpt><trkpt lat="43.319890695123135" lon="-4.200361899891747"><ele>116.0</ele><time>2026-05-02T09:16:34Z</time></trkpt><trkpt lat="43.31991108948446" lon="-4.200214993702185"><ele>116.0</ele><time>2026-05-02T09:16:35Z</time></trkpt><trkpt lat="43.31993644197523" lon="-4.200069955788636"><ele>116.0</ele><time>2026-05-02T09:16:36Z</time></trkpt><trkpt lat="43.31996155784895" lon="-4.199925332677956"><ele>114.8</ele><time>2026-05-02T09:16:37Z</time></trkpt><trkpt lat="43.31999354678353" lon="-4.199784684591232"><ele>113.6</ele><time>2026-05-02T09:16:38Z</time></trkpt><trkpt lat="43.32002712773526" lon="-4.199638400931798"><ele>112.4</ele><time>2026-05-02T09:16:39Z</time></trkpt><trkpt lat="43.3200617662338" lon="-4.199495017423513"><ele>111.2</ele><time>2026-05-02T09:16:40Z</time></trkpt><trkpt lat="43.32009862523068" lon="-4.199350670483647"><ele>110.0</ele><time>2026-05-02T09:16:41Z</time></trkpt><trkpt lat="43.32013599219912" lon="-4.199207676707824"><ele>110.0</ele><time>2026-05-02T09:16:42.001Z</time></trkpt><trkpt lat="43.3201763631197" lon="-4.199068004531762"><ele>110.0</ele><time>2026-05-02T09:16:43.001Z</time></trkpt><trkpt lat="43.32021226778392" lon="-4.198921596317962"><ele>110.0</ele><time>2026-05-02T09:16:44.001Z</time></trkpt><trkpt lat="43.32025387120631" lon="-4.19878214510177"><ele>110.0</ele><time>2026-05-02T09:16:45.001Z</time></trkpt><trkpt lat="43.32030079259353" lon="-4.198644960061324"><ele>110.0</ele><time>2026-05-02T09:16:46.001Z</time></trkpt><trkpt lat="43.3203440267771" lon="-4.198506192897725"><ele>109.0</ele><time>2026-05-02T09:16:47.001Z</time></trkpt><trkpt lat="43.32038404641578" lon="-4.198369899174926"><ele>108.0</ele><time>2026-05-02T09:16:48.001Z</time></trkpt><trkpt lat="43.320428878571725" lon="-4.198229009899457"><ele>107.0</ele><time>2026-05-02T09:16:49.001Z</time></trkpt><trkpt lat="43.3204600152469" lon="-4.198090323745038"><ele>106.0</ele><time>2026-05-02T09:16:50.001Z</time></trkpt><trkpt lat="43.32050424063709" lon="-4.1979496788634965"><ele>105.0</ele><time>2026-05-02T09:16:51.001Z</time></trkpt><trkpt lat="43.32054473433093" lon="-4.197812776669899"><ele>106.2</ele><time>2026-05-02T09:16:52.001Z</time></trkpt><trkpt lat="43.32058539656054" lon="-4.1976737909481"><ele>107.4</ele><time>2026-05-02T09:16:53.001Z</time></trkpt><trkpt lat="43.3206225868882" lon="-4.1975307580512995"><ele>108.6</ele><time>2026-05-02T09:16:54.001Z</time></trkpt><trkpt lat="43.32066154723695" lon="-4.197389918354091"><ele>109.8</ele><time>2026-05-02T09:16:55.001Z</time></trkpt><trkpt lat="43.320697661672554" lon="-4.197242831625066"><ele>111.0</ele><time>2026-05-02T09:16:56.001Z</time></trkpt><trkpt lat="43.32073163677567" lon="-4.197095522383769"><ele>111.0</ele><time>2026-05-02T09:16:57.001Z</time></trkpt><trkpt lat="43.320756420361434" lon="-4.196945416285723"><ele>111.0</ele><time>2026-05-02T09:16:58.001Z</time></trkpt><trkpt lat="43.320778316506946" lon="-4.196795856318243"><ele>111.0</ele><time>2026-05-02T09:16:59.001Z</time></trkpt><trkpt lat="43.32079389770753" lon="-4.196642845788568"><ele>111.0</ele><time>2026-05-02T09:17:00.001Z</time></trkpt><trkpt lat="43.32081337914467" lon="-4.196494887453378"><ele>111.0</ele><time>2026-05-02T09:17:01.001Z</time></trkpt><trkpt lat="43.32082263861017" lon="-4.196343108977315"><ele>110.8</ele><time>2026-05-02T09:17:02.001Z</time></trkpt><trkpt lat="43.32083709683139" lon="-4.196190034009884"><ele>110.6</ele><time>2026-05-02T09:17:03.001Z</time></trkpt><trkpt lat="43.32085233400459" lon="-4.196041539734341"><ele>110.4</ele><time>2026-05-02T09:17:04.001Z</time></trkpt><trkpt lat="43.32086910255107" lon="-4.195892408915121"><ele>110.2</ele><time>2026-05-02T09:17:05.001Z</time></trkpt><trkpt lat="43.320885314750576" lon="-4.195742284457562"><ele>110.0</ele><time>2026-05-02T09:17:06.001Z</time></trkpt><trkpt lat="43.32089988101724" lon="-4.195591203962749"><ele>110.0</ele><time>2026-05-02T09:17:07.001Z</time></trkpt><trkpt lat="43.32091371548025" lon="-4.195441868636055"><ele>110.0</ele><time>2026-05-02T09:17:08.001Z</time></trkpt><trkpt lat="43.320929535223634" lon="-4.195292240742558"><ele>110.0</ele><time>2026-05-02T09:17:09.001Z</time></trkpt><trkpt lat="43.320943814881005" lon="-4.195144875392595"><ele>110.0</ele><time>2026-05-02T09:17:10.001Z</time></trkpt><trkpt lat="43.32096013374152" lon="-4.194996527855312"><ele>110.0</ele><time>2026-05-02T09:17:11.001Z</time></trkpt><trkpt lat="43.32097086376521" lon="-4.1948486396407025"><ele>109.4</ele><time>2026-05-02T09:17:12.001Z</time></trkpt><trkpt lat="43.320985285355896" lon="-4.194702904980417"><ele>108.8</ele><time>2026-05-02T09:17:13.001Z</time></trkpt><trkpt lat="43.32100131939791" lon="-4.194553813808916"><ele>108.19999999999999</ele><time>2026-05-02T09:17:14.001Z</time></trkpt><trkpt lat="43.32101975727876" lon="-4.194410706445433"><ele>107.6</ele><time>2026-05-02T09:17:15.001Z</time></trkpt><trkpt lat="43.32103933648263" lon="-4.194265562565428"><ele>107.0</ele><time>2026-05-02T09:17:16.001Z</time></trkpt><trkpt lat="43.321070991433544" lon="-4.194129901690554"><ele>105.75</ele><time>2026-05-02T09:17:17.001Z</time></trkpt><trkpt lat="43.32110060034405" lon="-4.194001535728099"><ele>104.5</ele><time>2026-05-02T09:17:18.001Z</time></trkpt><trkpt lat="43.32115486256576" lon="-4.193868428994121"><ele>103.25</ele><time>2026-05-02T09:17:19.001Z</time></trkpt><trkpt lat="43.32122094963403" lon="-4.193728010816511"><ele>102.0</ele><time>2026-05-02T09:17:20.001Z</time></trkpt><trkpt lat="43.32134181190451" lon="-4.193555676232203"><ele>102.8</ele><time>2026-05-02T09:17:21.001Z</time></trkpt><trkpt lat="43.321465410064334" lon="-4.193380282039826"><ele>103.6</ele><time>2026-05-02T09:17:22.001Z</time></trkpt><trkpt lat="43.32151176062394" lon="-4.193320811582209"><ele>104.39999999999999</ele><time>2026-05-02T09:17:24.001Z</time></trkpt><trkpt lat="43.321595306870776" lon="-4.193254571945788"><ele>105.19999999999999</ele><time>2026-05-02T09:17:25.001Z</time></trkpt><trkpt lat="43.321684973311235" lon="-4.193227664464061"><ele>106.0</ele><time>2026-05-02T09:17:26.001Z</time></trkpt><trkpt lat="43.32176169724701" lon="-4.1931922486085895"><ele>104.66666666666667</ele><time>2026-05-02T09:17:27.001Z</time></trkpt><trkpt lat="43.32182970858031" lon="-4.193163794347559"><ele>103.33333333333334</ele><time>2026-05-02T09:17:28.001Z</time></trkpt><trkpt lat="43.3218912798131" lon="-4.193142002047569"><ele>102.0</ele><time>2026-05-02T09:17:29.001Z</time></trkpt><trkpt lat="43.32199124028766" lon="-4.193083289219264"><ele>100.66666666666666</ele><time>2026-05-02T09:17:31.001Z</time></trkpt><trkpt lat="43.322044818518215" lon="-4.19296539656604"><ele>99.33333333333333</ele><time>2026-05-02T09:17:33.001Z</time></trkpt><trkpt lat="43.322108345231385" lon="-4.19287354667566"><ele>98.0</ele><time>2026-05-02T09:17:35.001Z</time></trkpt><trkpt lat="43.322005744763835" lon="-4.1927655662396965"><ele>97.99999999999999</ele><time>2026-05-02T09:17:36.001Z</time></trkpt><trkpt lat="43.32193235201403" lon="-4.192681571039632"><ele>98.0</ele><time>2026-05-02T09:17:37.001Z</time></trkpt><trkpt lat="43.32187330080395" lon="-4.192601448300789"><ele>98.0</ele><time>2026-05-02T09:17:38.001Z</time></trkpt><trkpt lat="43.32182106117364" lon="-4.1925241266449165"><ele>98.0</ele><time>2026-05-02T09:17:39.001Z</time></trkpt><trkpt lat="43.32176062357971" lon="-4.192473343442961"><ele>97.99999999999999</ele><time>2026-05-02T09:17:40.001Z</time></trkpt><trkpt lat="43.32171417394477" lon="-4.1923969938497585"><ele>98.0</ele><time>2026-05-02T09:17:41.001Z</time></trkpt><trkpt lat="43.3216680102656" lon="-4.19231052339906"><ele>97.99999999999999</ele><time>2026-05-02T09:17:42.001Z</time></trkpt><trkpt lat="43.32161534881426" lon="-4.192224068128303"><ele>98.0</ele><time>2026-05-02T09:17:43.001Z</time></trkpt><trkpt lat="43.32156004722628" lon="-4.192137488401392"><ele>98.0</ele><time>2026-05-02T09:17:44.001Z</time></trkpt><trkpt lat="43.32149699217019" lon="-4.192049102814881"><ele>98.0</ele><time>2026-05-02T09:17:45.001Z</time></trkpt><trkpt lat="43.321447150723344" lon="-4.191960613505027"><ele>97.99999999999999</ele><time>2026-05-02T09:17:46.002Z</time></trkpt><trkpt lat="43.32139713047881" lon="-4.191875243973573"><ele>98.0</ele><time>2026-05-02T09:17:47.002Z</time></trkpt><trkpt lat="43.32134833720705" lon="-4.191791126793233"><ele>98.16666666666666</ele><time>2026-05-02T09:17:48.002Z</time></trkpt><trkpt lat="43.32129981981997" lon="-4.191708958817078"><ele>98.33333333333333</ele><time>2026-05-02T09:17:49.002Z</time></trkpt><trkpt lat="43.321254045280625" lon="-4.191631205435141"><ele>98.5</ele><time>2026-05-02T09:17:50.002Z</time></trkpt><trkpt lat="43.32120576325709" lon="-4.191559586975188"><ele>98.66666666666666</ele><time>2026-05-02T09:17:51.002Z</time></trkpt><trkpt lat="43.32114913239692" lon="-4.19149473393468"><ele>98.83333333333333</ele><time>2026-05-02T09:17:52.002Z</time></trkpt><trkpt lat="43.32109288916278" lon="-4.191423667938961"><ele>99.0</ele><time>2026-05-02T09:17:53.002Z</time></trkpt><trkpt lat="43.32101624624651" lon="-4.191378572411158"><ele>99.0</ele><time>2026-05-02T09:17:54.002Z</time></trkpt><trkpt lat="43.3209411875298" lon="-4.1913273621101315"><ele>99.0</ele><time>2026-05-02T09:17:55Z</time></trkpt><trkpt lat="43.32086612603471" lon="-4.191289756839383"><ele>99.0</ele><time>2026-05-02T09:17:56Z</time></trkpt><trkpt lat="43.32078877813893" lon="-4.191260438686657"><ele>99.0</ele><time>2026-05-02T09:17:57Z</time></trkpt><trkpt lat="43.32070840170864" lon="-4.191241858631842"><ele>99.0</ele><time>2026-05-02T09:17:58Z</time></trkpt><trkpt lat="43.32062790022769" lon="-4.191221962321736"><ele>99.0</ele><time>2026-05-02T09:17:59Z</time></trkpt><trkpt lat="43.320545731951846" lon="-4.191201654317289"><ele>99.0</ele><time>2026-05-02T09:18:00Z</time></trkpt><trkpt lat="43.32046360086786" lon="-4.191184015493642"><ele>99.0</ele><time>2026-05-02T09:18:01Z</time></trkpt><trkpt lat="43.320377757291325" lon="-4.1911720636988266"><ele>99.0</ele><time>2026-05-02T09:18:02Z</time></trkpt><trkpt lat="43.32028836501811" lon="-4.191146706667898"><ele>99.0</ele><time>2026-05-02T09:18:03Z</time></trkpt><trkpt lat="43.32020076926467" lon="-4.191178954554987"><ele>99.0</ele><time>2026-05-02T09:18:04Z</time></trkpt><trkpt lat="43.32011150909035" lon="-4.1912000632439455"><ele>99.0</ele><time>2026-05-02T09:18:05Z</time></trkpt><trkpt lat="43.320023721627756" lon="-4.191222366642434"><ele>99.0</ele><time>2026-05-02T09:18:06Z</time></trkpt><trkpt lat="43.31993847514426" lon="-4.191244289827827"><ele>99.0</ele><time>2026-05-02T09:18:07Z</time></trkpt><trkpt lat="43.319853311149735" lon="-4.191265939499876"><ele>99.0</ele><time>2026-05-02T09:18:08Z</time></trkpt><trkpt lat="43.319765103856334" lon="-4.1912813302325835"><ele>99.0</ele><time>2026-05-02T09:18:09Z</time></trkpt><trkpt lat="43.31967485602972" lon="-4.191284655160139"><ele>99.0</ele><time>2026-05-02T09:18:10Z</time></trkpt><trkpt lat="43.31958134593145" lon="-4.191246738986571"><ele>99.33333333333333</ele><time>2026-05-02T09:18:11Z</time></trkpt><trkpt lat="43.319491009744496" lon="-4.191233796878071"><ele>99.66666666666666</ele><time>2026-05-02T09:18:12Z</time></trkpt><trkpt lat="43.319399423513964" lon="-4.191209901312375"><ele>100.0</ele><time>2026-05-02T09:18:13Z</time></trkpt><trkpt lat="43.31931343453239" lon="-4.19118860636617"><ele>100.33333333333333</ele><time>2026-05-02T09:18:14Z</time></trkpt><trkpt lat="43.31923103120415" lon="-4.191212837316683"><ele>100.66666666666666</ele><time>2026-05-02T09:18:15Z</time></trkpt><trkpt lat="43.31915714814525" lon="-4.191207537205586"><ele>101.0</ele><time>2026-05-02T09:18:16Z</time></trkpt><trkpt lat="43.31909425549749" lon="-4.19120350346235"><ele>100.99999999999999</ele><time>2026-05-02T09:18:17Z</time></trkpt><trkpt lat="43.31902925363742" lon="-4.191201705766396"><ele>101.0</ele><time>2026-05-02T09:18:18Z</time></trkpt><trkpt lat="43.31890285996525" lon="-4.191208140471236"><ele>101.0</ele><time>2026-05-02T09:18:20Z</time></trkpt><trkpt lat="43.31883340391698" lon="-4.1912222323762425"><ele>101.0</ele><time>2026-05-02T09:18:21Z</time></trkpt><trkpt lat="43.31876337762439" lon="-4.1912221831484375"><ele>100.99999999999999</ele><time>2026-05-02T09:18:22Z</time></trkpt><trkpt lat="43.318695546318445" lon="-4.191269220347761"><ele>101.0</ele><time>2026-05-02T09:18:23Z</time></trkpt><trkpt lat="43.31862288771194" lon="-4.19129975608505"><ele>101.33333333333333</ele><time>2026-05-02T09:18:24Z</time></trkpt><trkpt lat="43.318542584582126" lon="-4.191310489686995"><ele>101.66666666666666</ele><time>2026-05-02T09:18:25Z</time></trkpt><trkpt lat="43.31846638702511" lon="-4.1913501389321866"><ele>102.0</ele><time>2026-05-02T09:18:26Z</time></trkpt><trkpt lat="43.318391321102595" lon="-4.1913856939110214"><ele>102.33333333333334</ele><time>2026-05-02T09:18:27Z</time></trkpt><trkpt lat="43.318314864879895" lon="-4.191421047705403"><ele>102.66666666666667</ele><time>2026-05-02T09:18:28Z</time></trkpt><trkpt lat="43.31823898896402" lon="-4.191449446333233"><ele>103.0</ele><time>2026-05-02T09:18:29Z</time></trkpt><trkpt lat="43.31817070550467" lon="-4.191499477389106"><ele>102.80000000000001</ele><time>2026-05-02T09:18:30Z</time></trkpt><trkpt lat="43.31810074124196" lon="-4.191522742551553"><ele>102.6</ele><time>2026-05-02T09:18:31Z</time></trkpt><trkpt lat="43.318013494828776" lon="-4.191540106732893"><ele>102.4</ele><time>2026-05-02T09:18:32Z</time></trkpt><trkpt lat="43.317897573909356" lon="-4.191546637930116"><ele>102.19999999999999</ele><time>2026-05-02T09:18:34Z</time></trkpt><trkpt lat="43.31778586310232" lon="-4.191553231400789"><ele>102.0</ele><time>2026-05-02T09:18:36Z</time></trkpt><trkpt lat="43.317670507182086" lon="-4.191563020648323"><ele>102.0</ele><time>2026-05-02T09:18:38Z</time></trkpt><trkpt lat="43.31754632351041" lon="-4.191579704802126"><ele>102.0</ele><time>2026-05-02T09:18:40.001Z</time></trkpt><trkpt lat="43.31747728507612" lon="-4.191601433044325"><ele>102.0</ele><time>2026-05-02T09:18:41.001Z</time></trkpt><trkpt lat="43.31739670279171" lon="-4.191607681255198"><ele>102.0</ele><time>2026-05-02T09:18:42.001Z</time></trkpt><trkpt lat="43.31732158833842" lon="-4.19164597167786"><ele>102.0</ele><time>2026-05-02T09:18:43.001Z</time></trkpt><trkpt lat="43.3172467812023" lon="-4.191679950753371"><ele>102.0</ele><time>2026-05-02T09:18:44.001Z</time></trkpt><trkpt lat="43.317177710668695" lon="-4.191719359289354"><ele>102.33333333333333</ele><time>2026-05-02T09:18:45.001Z</time></trkpt><trkpt lat="43.31712095996316" lon="-4.191779678550801"><ele>102.66666666666666</ele><time>2026-05-02T09:18:46.001Z</time></trkpt><trkpt lat="43.317052617224086" lon="-4.191807925282369"><ele>103.0</ele><time>2026-05-02T09:18:47.001Z</time></trkpt><trkpt lat="43.3169971837391" lon="-4.191854125782659"><ele>103.33333333333333</ele><time>2026-05-02T09:18:48.001Z</time></trkpt><trkpt lat="43.316941190558616" lon="-4.191895637500392"><ele>103.66666666666666</ele><time>2026-05-02T09:18:49.001Z</time></trkpt><trkpt lat="43.316832367206466" lon="-4.191966692056602"><ele>104.0</ele><time>2026-05-02T09:18:51.001Z</time></trkpt><trkpt lat="43.31672533978557" lon="-4.1920228729599485"><ele>103.99999999999999</ele><time>2026-05-02T09:18:53.001Z</time></trkpt><trkpt lat="43.31666374847258" lon="-4.192081341820671"><ele>104.0</ele><time>2026-05-02T09:18:55.001Z</time></trkpt><trkpt lat="43.31660600897919" lon="-4.192128140320021"><ele>104.0</ele><time>2026-05-02T09:18:59.001Z</time></trkpt><trkpt lat="43.3165320376517" lon="-4.1920098304939435"><ele>104.0</ele><time>2026-05-02T09:19:02.001Z</time></trkpt><trkpt lat="43.316526074093275" lon="-4.191923561939896"><ele>103.99999999999999</ele><time>2026-05-02T09:19:03.001Z</time></trkpt><trkpt lat="43.316505803310534" lon="-4.19184063764558"><ele>104.0</ele><time>2026-05-02T09:19:04.001Z</time></trkpt><trkpt lat="43.316481560926036" lon="-4.191672669059719"><ele>103.99999999999999</ele><time>2026-05-02T09:19:06.001Z</time></trkpt><trkpt lat="43.31646283495009" lon="-4.1915856699277025"><ele>104.0</ele><time>2026-05-02T09:19:07.001Z</time></trkpt><trkpt lat="43.316434727426625" lon="-4.1914977655968215"><ele>104.0</ele><time>2026-05-02T09:19:08.001Z</time></trkpt><trkpt lat="43.316399814662" lon="-4.19140746753765"><ele>104.0</ele><time>2026-05-02T09:19:09.001Z</time></trkpt><trkpt lat="43.31636210355198" lon="-4.191308676782581"><ele>103.99999999999999</ele><time>2026-05-02T09:19:10.001Z</time></trkpt><trkpt lat="43.31632577879775" lon="-4.19120861898004"><ele>104.0</ele><time>2026-05-02T09:19:11.001Z</time></trkpt><trkpt lat="43.31628982361758" lon="-4.191107901046724"><ele>104.66666666666666</ele><time>2026-05-02T09:19:12.001Z</time></trkpt><trkpt lat="43.31626680502417" lon="-4.190991713781069"><ele>105.33333333333333</ele><time>2026-05-02T09:19:13.001Z</time></trkpt><trkpt lat="43.31623624010587" lon="-4.190882035188451"><ele>106.0</ele><time>2026-05-02T09:19:14.001Z</time></trkpt><trkpt lat="43.31621032710795" lon="-4.190767385049262"><ele>106.66666666666666</ele><time>2026-05-02T09:19:15.001Z</time></trkpt><trkpt lat="43.31619587374921" lon="-4.190647352614753"><ele>107.33333333333333</ele><time>2026-05-02T09:19:16.001Z</time></trkpt><trkpt lat="43.316161660376515" lon="-4.190530183519667"><ele>108.0</ele><time>2026-05-02T09:19:17.001Z</time></trkpt><trkpt lat="43.31617655177322" lon="-4.190395910166794"><ele>108.2</ele><time>2026-05-02T09:19:18.001Z</time></trkpt><trkpt lat="43.3161726256998" lon="-4.190263810273921"><ele>108.4</ele><time>2026-05-02T09:19:19.001Z</time></trkpt><trkpt lat="43.316171125245305" lon="-4.1901284464096005"><ele>108.60000000000001</ele><time>2026-05-02T09:19:20.001Z</time></trkpt><trkpt lat="43.31616552527368" lon="-4.189989915100444"><ele>108.80000000000001</ele><time>2026-05-02T09:19:21.001Z</time></trkpt><trkpt lat="43.31615957873371" lon="-4.189850253943328"><ele>109.0</ele><time>2026-05-02T09:19:22.001Z</time></trkpt><trkpt lat="43.316154183420295" lon="-4.189709503342036"><ele>109.0</ele><time>2026-05-02T09:19:23.001Z</time></trkpt><trkpt lat="43.31614553505475" lon="-4.189570178380868"><ele>109.0</ele><time>2026-05-02T09:19:24.001Z</time></trkpt><trkpt lat="43.3161277509739" lon="-4.18943124599519"><ele>109.0</ele><time>2026-05-02T09:19:25.001Z</time></trkpt><trkpt lat="43.316089296828245" lon="-4.1893012525692015"><ele>109.0</ele><time>2026-05-02T09:19:26.001Z</time></trkpt><trkpt lat="43.31606625565763" lon="-4.189167339236329"><ele>109.0</ele><time>2026-05-02T09:19:27.001Z</time></trkpt><trkpt lat="43.31604626799867" lon="-4.189037469234511"><ele>108.80000000000001</ele><time>2026-05-02T09:19:28.001Z</time></trkpt><trkpt lat="43.31603598822632" lon="-4.188905550929466"><ele>108.60000000000001</ele><time>2026-05-02T09:19:29.001Z</time></trkpt><trkpt lat="43.316015228791834" lon="-4.188782944675749"><ele>108.4</ele><time>2026-05-02T09:19:30.001Z</time></trkpt><trkpt lat="43.31598557157327" lon="-4.18866745029369"><ele>108.2</ele><time>2026-05-02T09:19:31.001Z</time></trkpt><trkpt lat="43.31596094696835" lon="-4.188552286590458"><ele>108.0</ele><time>2026-05-02T09:19:32.001Z</time></trkpt><trkpt lat="43.315941442965276" lon="-4.1884336219359914"><ele>108.0</ele><time>2026-05-02T09:19:33.001Z</time></trkpt><trkpt lat="43.315886899593195" lon="-4.188330695727304"><ele>108.00000000000001</ele><time>2026-05-02T09:19:34.001Z</time></trkpt><trkpt lat="43.31580539079319" lon="-4.188258431043538"><ele>108.00000000000001</ele><time>2026-05-02T09:19:35.001Z</time></trkpt><trkpt lat="43.31573218243526" lon="-4.188185849241648"><ele>108.0</ele><time>2026-05-02T09:19:36.001Z</time></trkpt><trkpt lat="43.31565490045057" lon="-4.1881197717068215"><ele>108.0</ele><time>2026-05-02T09:19:37.001Z</time></trkpt><trkpt lat="43.31557410309359" lon="-4.18804809295483"><ele>108.4</ele><time>2026-05-02T09:19:38.001Z</time></trkpt><trkpt lat="43.31549546858032" lon="-4.187977463832454"><ele>108.80000000000001</ele><time>2026-05-02T09:19:39.001Z</time></trkpt><trkpt lat="43.31541691130393" lon="-4.187902289339062"><ele>109.2</ele><time>2026-05-02T09:19:40.001Z</time></trkpt><trkpt lat="43.31533979293003" lon="-4.187827415906992"><ele>109.6</ele><time>2026-05-02T09:19:41.001Z</time></trkpt><trkpt lat="43.315265225756065" lon="-4.187745170827423"><ele>110.0</ele><time>2026-05-02T09:19:42.001Z</time></trkpt><trkpt lat="43.31521314721795" lon="-4.187629327764587"><ele>110.0</ele><time>2026-05-02T09:19:43.001Z</time></trkpt><trkpt lat="43.31516387321215" lon="-4.187519304003514"><ele>110.0</ele><time>2026-05-02T09:19:44.001Z</time></trkpt><trkpt lat="43.315132807204186" lon="-4.187396125230576"><ele>110.0</ele><time>2026-05-02T09:19:45.002Z</time></trkpt><trkpt lat="43.31511800376768" lon="-4.18726800148799"><ele>110.0</ele><time>2026-05-02T09:19:46.002Z</time></trkpt><trkpt lat="43.31512250452606" lon="-4.1871382608772905"><ele>110.0</ele><time>2026-05-02T09:19:47.002Z</time></trkpt><trkpt lat="43.31513775698256" lon="-4.1870104549642075"><ele>110.4</ele><time>2026-05-02T09:19:48.002Z</time></trkpt><trkpt lat="43.3151579041307" lon="-4.186879089635833"><ele>110.8</ele><time>2026-05-02T09:19:49.002Z</time></trkpt><trkpt lat="43.31518474319009" lon="-4.186750480447138"><ele>111.19999999999999</ele><time>2026-05-02T09:19:50.002Z</time></trkpt><trkpt lat="43.31521029924868" lon="-4.186616703486588"><ele>111.6</ele><time>2026-05-02T09:19:51.002Z</time></trkpt><trkpt lat="43.31522860162575" lon="-4.1864803675027025"><ele>112.0</ele><time>2026-05-02T09:19:52.002Z</time></trkpt><trkpt lat="43.31524479361262" lon="-4.186339019758586"><ele>112.0</ele><time>2026-05-02T09:19:53.002Z</time></trkpt><trkpt lat="43.31525677879683" lon="-4.1861968787324635"><ele>111.99999999999999</ele><time>2026-05-02T09:19:54.002Z</time></trkpt><trkpt lat="43.315266874766294" lon="-4.186054747440612"><ele>111.99999999999999</ele><time>2026-05-02T09:19:55.002Z</time></trkpt><trkpt lat="43.31527720946287" lon="-4.1859018282284755"><ele>112.0</ele><time>2026-05-02T09:19:56.002Z</time></trkpt><trkpt lat="43.31527867782107" lon="-4.185758538363414"><ele>112.0</ele><time>2026-05-02T09:19:57.002Z</time></trkpt><trkpt lat="43.31528511316771" lon="-4.1856150919547135"><ele>112.19999999999999</ele><time>2026-05-02T09:19:58.002Z</time></trkpt><trkpt lat="43.3152940450628" lon="-4.185468849901082"><ele>112.39999999999999</ele><time>2026-05-02T09:19:59.002Z</time></trkpt><trkpt lat="43.31529952629046" lon="-4.185322250400741"><ele>112.60000000000001</ele><time>2026-05-02T09:20:00.002Z</time></trkpt><trkpt lat="43.315306306584255" lon="-4.1851685889944195"><ele>112.80000000000001</ele><time>2026-05-02T09:20:01Z</time></trkpt><trkpt lat="43.31531200577677" lon="-4.185033491215945"><ele>113.0</ele><time>2026-05-02T09:20:02Z</time></trkpt><trkpt lat="43.315321177094994" lon="-4.18489089212494"><ele>112.80000000000001</ele><time>2026-05-02T09:20:03Z</time></trkpt><trkpt lat="43.31533124875065" lon="-4.184735317813233"><ele>112.60000000000001</ele><time>2026-05-02T09:20:04Z</time></trkpt><trkpt lat="43.31533164512231" lon="-4.18460542543205"><ele>112.39999999999999</ele><time>2026-05-02T09:20:05Z</time></trkpt><trkpt lat="43.31533781996214" lon="-4.184448272477155"><ele>112.19999999999999</ele><time>2026-05-02T09:20:06Z</time></trkpt><trkpt lat="43.31534507294462" lon="-4.184297751179129"><ele>112.0</ele><time>2026-05-02T09:20:07Z</time></trkpt><trkpt lat="43.31535039034257" lon="-4.184145389023767"><ele>112.19999999999999</ele><time>2026-05-02T09:20:08Z</time></trkpt><trkpt lat="43.31536093623056" lon="-4.183999822661748"><ele>112.39999999999999</ele><time>2026-05-02T09:20:09Z</time></trkpt><trkpt lat="43.315367796088815" lon="-4.183854564127091"><ele>112.60000000000001</ele><time>2026-05-02T09:20:10Z</time></trkpt><trkpt lat="43.315375511189664" lon="-4.183710211112307"><ele>112.80000000000001</ele><time>2026-05-02T09:20:11Z</time></trkpt><trkpt lat="43.3153842483981" lon="-4.183569803716563"><ele>113.0</ele><time>2026-05-02T09:20:12Z</time></trkpt><trkpt lat="43.31539144326091" lon="-4.1834257134558035"><ele>113.0</ele><time>2026-05-02T09:20:13Z</time></trkpt><trkpt lat="43.315397016799515" lon="-4.183280078514533"><ele>113.00000000000001</ele><time>2026-05-02T09:20:14Z</time></trkpt><trkpt lat="43.31540305654011" lon="-4.183140457197441"><ele>113.00000000000001</ele><time>2026-05-02T09:20:15Z</time></trkpt><trkpt lat="43.3154070404572" lon="-4.183002590797137"><ele>113.0</ele><time>2026-05-02T09:20:16Z</time></trkpt><trkpt lat="43.31541421956905" lon="-4.1828619148437705"><ele>113.0</ele><time>2026-05-02T09:20:17Z</time></trkpt><trkpt lat="43.31542291976779" lon="-4.182722410752729"><ele>113.0</ele><time>2026-05-02T09:20:18Z</time></trkpt><trkpt lat="43.315438038746855" lon="-4.182587501279317"><ele>113.00000000000001</ele><time>2026-05-02T09:20:19Z</time></trkpt><trkpt lat="43.31546379360543" lon="-4.182450502435999"><ele>113.00000000000001</ele><time>2026-05-02T09:20:20Z</time></trkpt><trkpt lat="43.31548796545185" lon="-4.182308541762947"><ele>113.0</ele><time>2026-05-02T09:20:21Z</time></trkpt><trkpt lat="43.31550922257601" lon="-4.182165914841311"><ele>113.0</ele><time>2026-05-02T09:20:22Z</time></trkpt><trkpt lat="43.31552966107089" lon="-4.182023411835222"><ele>113.0</ele><time>2026-05-02T09:20:23Z</time></trkpt><trkpt lat="43.315552897842394" lon="-4.181880912033752"><ele>113.00000000000001</ele><time>2026-05-02T09:20:24Z</time></trkpt><trkpt lat="43.31558026228109" lon="-4.18173944042282"><ele>113.00000000000001</ele><time>2026-05-02T09:20:25Z</time></trkpt><trkpt lat="43.31560613268309" lon="-4.181601227323703"><ele>113.0</ele><time>2026-05-02T09:20:26Z</time></trkpt><trkpt lat="43.315629216718065" lon="-4.181471114137998"><ele>113.0</ele><time>2026-05-02T09:20:27Z</time></trkpt><trkpt lat="43.31565116767158" lon="-4.181339884295883"><ele>111.80000000000001</ele><time>2026-05-02T09:20:28Z</time></trkpt><trkpt lat="43.31567333914175" lon="-4.181199026623861"><ele>110.60000000000001</ele><time>2026-05-02T09:20:29Z</time></trkpt><trkpt lat="43.31569501921957" lon="-4.181053489814986"><ele>109.39999999999999</ele><time>2026-05-02T09:20:30Z</time></trkpt><trkpt lat="43.315715212060965" lon="-4.180915870502774"><ele>108.19999999999999</ele><time>2026-05-02T09:20:31Z</time></trkpt><trkpt lat="43.315737968613256" lon="-4.180777396856902"><ele>107.0</ele><time>2026-05-02T09:20:32Z</time></trkpt><trkpt lat="43.315752338406426" lon="-4.1806841688874155"><ele>106.25</ele><time>2026-05-02T09:20:33Z</time></trkpt><trkpt lat="43.31577364272418" lon="-4.1804659880838475"><ele>105.5</ele><time>2026-05-02T09:20:34Z</time></trkpt><trkpt lat="43.315797632283626" lon="-4.1803253280572275"><ele>104.75</ele><time>2026-05-02T09:20:35Z</time></trkpt><trkpt lat="43.31582205363008" lon="-4.180182136040326"><ele>104.0</ele><time>2026-05-02T09:20:36Z</time></trkpt><trkpt lat="43.315861757276615" lon="-4.180043802184506"><ele>104.0</ele><time>2026-05-02T09:20:37Z</time></trkpt><trkpt lat="43.31585513214997" lon="-4.179894532407302"><ele>104.0</ele><time>2026-05-02T09:20:38Z</time></trkpt><trkpt lat="43.31584413065118" lon="-4.179751520271255"><ele>104.0</ele><time>2026-05-02T09:20:39Z</time></trkpt><trkpt lat="43.315815742238115" lon="-4.179611739577649"><ele>104.0</ele><time>2026-05-02T09:20:40.001Z</time></trkpt><trkpt lat="43.31578756599867" lon="-4.179471534920277"><ele>104.0</ele><time>2026-05-02T09:20:41.001Z</time></trkpt><trkpt lat="43.31575916601317" lon="-4.179325337127401"><ele>103.4</ele><time>2026-05-02T09:20:42.001Z</time></trkpt><trkpt lat="43.31576032709478" lon="-4.179171710847442"><ele>102.80000000000001</ele><time>2026-05-02T09:20:43.001Z</time></trkpt><trkpt lat="43.31575361654491" lon="-4.179024371041642"><ele>102.19999999999999</ele><time>2026-05-02T09:20:44.001Z</time></trkpt><trkpt lat="43.31577091225838" lon="-4.1788866262018"><ele>101.6</ele><time>2026-05-02T09:20:45.001Z</time></trkpt><trkpt lat="43.31580527361024" lon="-4.17877309240417"><ele>101.0</ele><time>2026-05-02T09:20:46.001Z</time></trkpt><trkpt lat="43.31584565140474" lon="-4.178673925326513"><ele>100.85714285714286</ele><time>2026-05-02T09:20:47.001Z</time></trkpt><trkpt lat="43.31588988193068" lon="-4.178589595654181"><ele>100.71428571428571</ele><time>2026-05-02T09:20:48.001Z</time></trkpt><trkpt lat="43.315924716196605" lon="-4.1785063760156005"><ele>100.57142857142858</ele><time>2026-05-02T09:20:49.001Z</time></trkpt><trkpt lat="43.3159478380522" lon="-4.17842099404943"><ele>100.42857142857143</ele><time>2026-05-02T09:20:50.001Z</time></trkpt><trkpt lat="43.31593254700758" lon="-4.178332984443734"><ele>100.28571428571429</ele><time>2026-05-02T09:20:51.001Z</time></trkpt><trkpt lat="43.315840906044194" lon="-4.178296900361315"><ele>100.14285714285715</ele><time>2026-05-02T09:20:52.001Z</time></trkpt><trkpt lat="43.3157934148337" lon="-4.1782181697888"><ele>100.0</ele><time>2026-05-02T09:20:53.001Z</time></trkpt><trkpt lat="43.315749940728665" lon="-4.178135590898947"><ele>100.33333333333334</ele><time>2026-05-02T09:20:54.001Z</time></trkpt><trkpt lat="43.31571173048619" lon="-4.17804588268672"><ele>100.66666666666667</ele><time>2026-05-02T09:20:55.001Z</time></trkpt><trkpt lat="43.315685278088026" lon="-4.1779387720530226"><ele>101.0</ele><time>2026-05-02T09:20:56.001Z</time></trkpt><trkpt lat="43.31569331531829" lon="-4.1778188660485185"><ele>101.33333333333334</ele><time>2026-05-02T09:20:57.001Z</time></trkpt><trkpt lat="43.31569611290349" lon="-4.177696888363253"><ele>101.66666666666667</ele><time>2026-05-02T09:20:58.001Z</time></trkpt><trkpt lat="43.3157087602826" lon="-4.177571969055589"><ele>102.0</ele><time>2026-05-02T09:20:59.001Z</time></trkpt><trkpt lat="43.31571898117432" lon="-4.177444339810578"><ele>102.19999999999999</ele><time>2026-05-02T09:21:00.001Z</time></trkpt><trkpt lat="43.315725310930326" lon="-4.177317011623992"><ele>102.4</ele><time>2026-05-02T09:21:01.001Z</time></trkpt><trkpt lat="43.31573275412448" lon="-4.177183739353655"><ele>102.6</ele><time>2026-05-02T09:21:02.001Z</time></trkpt><trkpt lat="43.315733712146" lon="-4.177049801264131"><ele>102.80000000000001</ele><time>2026-05-02T09:21:03.001Z</time></trkpt><trkpt lat="43.31574858256809" lon="-4.176907807060439"><ele>103.0</ele><time>2026-05-02T09:21:04.001Z</time></trkpt><trkpt lat="43.31575517057739" lon="-4.1767695995278045"><ele>103.0</ele><time>2026-05-02T09:21:05.001Z</time></trkpt><trkpt lat="43.31576048750968" lon="-4.17662789007478"><ele>103.0</ele><time>2026-05-02T09:21:06.001Z</time></trkpt><trkpt lat="43.31576596709223" lon="-4.176485718668816"><ele>103.0</ele><time>2026-05-02T09:21:07.001Z</time></trkpt><trkpt lat="43.315771602909464" lon="-4.176345031579409"><ele>103.0</ele><time>2026-05-02T09:21:08.001Z</time></trkpt><trkpt lat="43.315778224910126" lon="-4.176204979187145"><ele>103.0</ele><time>2026-05-02T09:21:09.001Z</time></trkpt><trkpt lat="43.31578364162479" lon="-4.176068811102019"><ele>102.60000000000001</ele><time>2026-05-02T09:21:10.001Z</time></trkpt><trkpt lat="43.31578897623993" lon="-4.175929870454988"><ele>102.2</ele><time>2026-05-02T09:21:11.001Z</time></trkpt><trkpt lat="43.315791269437284" lon="-4.17579324205048"><ele>101.8</ele><time>2026-05-02T09:21:12.001Z</time></trkpt><trkpt lat="43.31579852005692" lon="-4.1756570500033385"><ele>101.4</ele><time>2026-05-02T09:21:13.001Z</time></trkpt><trkpt lat="43.3158011391859" lon="-4.175520159466202"><ele>101.0</ele><time>2026-05-02T09:21:14.001Z</time></trkpt><trkpt lat="43.31580214162998" lon="-4.175381425300004"><ele>101.0</ele><time>2026-05-02T09:21:15.001Z</time></trkpt><trkpt lat="43.31580912684082" lon="-4.175244823814113"><ele>101.0</ele><time>2026-05-02T09:21:16.001Z</time></trkpt><trkpt lat="43.31581401587491" lon="-4.175108589442386"><ele>101.0</ele><time>2026-05-02T09:21:17.001Z</time></trkpt><trkpt lat="43.31581569290635" lon="-4.17497300644248"><ele>101.0</ele><time>2026-05-02T09:21:18.001Z</time></trkpt><trkpt lat="43.31582597451409" lon="-4.174844781089485"><ele>101.0</ele><time>2026-05-02T09:21:19.001Z</time></trkpt><trkpt lat="43.315828872544174" lon="-4.174724112157403"><ele>101.33333333333333</ele><time>2026-05-02T09:21:20.001Z</time></trkpt><trkpt lat="43.31582793513169" lon="-4.174611475180646"><ele>101.66666666666666</ele><time>2026-05-02T09:21:21.001Z</time></trkpt><trkpt lat="43.315831566996955" lon="-4.174506069761953"><ele>102.0</ele><time>2026-05-02T09:21:22.001Z</time></trkpt><trkpt lat="43.315838482220876" lon="-4.174401082269622"><ele>102.33333333333334</ele><time>2026-05-02T09:21:23.001Z</time></trkpt><trkpt lat="43.315842892254764" lon="-4.174298109515268"><ele>102.66666666666667</ele><time>2026-05-02T09:21:24.001Z</time></trkpt><trkpt lat="43.31584726697714" lon="-4.174189948551584"><ele>103.0</ele><time>2026-05-02T09:21:25.001Z</time></trkpt><trkpt lat="43.31585039614285" lon="-4.17407849984366"><ele>103.16666666666667</ele><time>2026-05-02T09:21:26.001Z</time></trkpt><trkpt lat="43.31585377436588" lon="-4.173963356969748"><ele>103.33333333333334</ele><time>2026-05-02T09:21:27.001Z</time></trkpt><trkpt lat="43.315857339192455" lon="-4.173846226089386"><ele>103.5</ele><time>2026-05-02T09:21:28.001Z</time></trkpt><trkpt lat="43.31586054794664" lon="-4.173724974169254"><ele>103.66666666666666</ele><time>2026-05-02T09:21:29.001Z</time></trkpt><trkpt lat="43.31586301722107" lon="-4.1735982358698545"><ele>103.83333333333333</ele><time>2026-05-02T09:21:30.001Z</time></trkpt><trkpt lat="43.315868757949886" lon="-4.173467353500003"><ele>104.0</ele><time>2026-05-02T09:21:31.001Z</time></trkpt><trkpt lat="43.315874237774786" lon="-4.173339010002074"><ele>104.0</ele><time>2026-05-02T09:21:32.001Z</time></trkpt><trkpt lat="43.31588025965048" lon="-4.173202366160983"><ele>104.0</ele><time>2026-05-02T09:21:33.001Z</time></trkpt><trkpt lat="43.31588566842516" lon="-4.173074995538158"><ele>104.0</ele><time>2026-05-02T09:21:34.001Z</time></trkpt><trkpt lat="43.31589114967019" lon="-4.172947216159268"><ele>104.0</ele><time>2026-05-02T09:21:35.001Z</time></trkpt><trkpt lat="43.31589443329105" lon="-4.172824739993386"><ele>104.0</ele><time>2026-05-02T09:21:36.001Z</time></trkpt><trkpt lat="43.315901828891874" lon="-4.172697375328459"><ele>104.0</ele><time>2026-05-02T09:21:37.001Z</time></trkpt><trkpt lat="43.315907144967156" lon="-4.172568987059468"><ele>104.0</ele><time>2026-05-02T09:21:38.001Z</time></trkpt><trkpt lat="43.315913345336924" lon="-4.172433703639659"><ele>104.0</ele><time>2026-05-02T09:21:39.001Z</time></trkpt><trkpt lat="43.31590220297538" lon="-4.172301062999745"><ele>104.0</ele><time>2026-05-02T09:21:40.001Z</time></trkpt><trkpt lat="43.31592092555256" lon="-4.172165762021447"><ele>104.0</ele><time>2026-05-02T09:21:41.001Z</time></trkpt><trkpt lat="43.31592121712901" lon="-4.1720249914226235"><ele>104.2</ele><time>2026-05-02T09:21:42.001Z</time></trkpt><trkpt lat="43.31592546805999" lon="-4.1718846170521875"><ele>104.4</ele><time>2026-05-02T09:21:43.001Z</time></trkpt><trkpt lat="43.315930283031264" lon="-4.171741097956574"><ele>104.6</ele><time>2026-05-02T09:21:44.001Z</time></trkpt><trkpt lat="43.31593310406631" lon="-4.171596444988611"><ele>104.8</ele><time>2026-05-02T09:21:45.001Z</time></trkpt><trkpt lat="43.315936043188515" lon="-4.171453484482162"><ele>105.0</ele><time>2026-05-02T09:21:46.001Z</time></trkpt><trkpt lat="43.3159414538931" lon="-4.171293781621255"><ele>105.0</ele><time>2026-05-02T09:21:47.001Z</time></trkpt><trkpt lat="43.31594852417921" lon="-4.171159800493206"><ele>105.0</ele><time>2026-05-02T09:21:48.002Z</time></trkpt><trkpt lat="43.31595296618038" lon="-4.171012673545489"><ele>105.0</ele><time>2026-05-02T09:21:49.002Z</time></trkpt><trkpt lat="43.315959061744685" lon="-4.170869705774473"><ele>105.0</ele><time>2026-05-02T09:21:50.002Z</time></trkpt><trkpt lat="43.31596440804696" lon="-4.170723070496231"><ele>105.0</ele><time>2026-05-02T09:21:51.002Z</time></trkpt><trkpt lat="43.31596887168863" lon="-4.170569976240259"><ele>105.0</ele><time>2026-05-02T09:21:52.002Z</time></trkpt><trkpt lat="43.315976341355245" lon="-4.170419892082879"><ele>105.0</ele><time>2026-05-02T09:21:53.002Z</time></trkpt><trkpt lat="43.3159859693479" lon="-4.170269414862542"><ele>105.0</ele><time>2026-05-02T09:21:54.002Z</time></trkpt><trkpt lat="43.31599162466319" lon="-4.170116126125122"><ele>105.0</ele><time>2026-05-02T09:21:55.002Z</time></trkpt><trkpt lat="43.31598953113786" lon="-4.169963457823346"><ele>105.0</ele><time>2026-05-02T09:21:56.002Z</time></trkpt><trkpt lat="43.315994162456775" lon="-4.169810643053135"><ele>105.0</ele><time>2026-05-02T09:21:57.002Z</time></trkpt><trkpt lat="43.315996830862616" lon="-4.169656718383293"><ele>105.0</ele><time>2026-05-02T09:21:58.002Z</time></trkpt><trkpt lat="43.31600099762744" lon="-4.169506737097813"><ele>105.0</ele><time>2026-05-02T09:21:59.002Z</time></trkpt><trkpt lat="43.31600353607555" lon="-4.1693562211665585"><ele>105.0</ele><time>2026-05-02T09:22:00.002Z</time></trkpt><trkpt lat="43.31601048068787" lon="-4.169202464620372"><ele>105.0</ele><time>2026-05-02T09:22:01.002Z</time></trkpt><trkpt lat="43.316017626230106" lon="-4.169054589289759"><ele>104.8</ele><time>2026-05-02T09:22:02.002Z</time></trkpt><trkpt lat="43.31602537558184" lon="-4.1689097784709475"><ele>104.6</ele><time>2026-05-02T09:22:03.002Z</time></trkpt><trkpt lat="43.316030035007756" lon="-4.168762219868247"><ele>104.4</ele><time>2026-05-02T09:22:04.002Z</time></trkpt><trkpt lat="43.31603557589976" lon="-4.168608999585463"><ele>104.2</ele><time>2026-05-02T09:22:05.002Z</time></trkpt><trkpt lat="43.3160395124886" lon="-4.168452846279694"><ele>104.0</ele><time>2026-05-02T09:22:06.002Z</time></trkpt><trkpt lat="43.316045240639944" lon="-4.168296638308629"><ele>104.6</ele><time>2026-05-02T09:22:07Z</time></trkpt><trkpt lat="43.31605155533678" lon="-4.168148483642625"><ele>105.2</ele><time>2026-05-02T09:22:08Z</time></trkpt><trkpt lat="43.31605564145768" lon="-4.168000058952458"><ele>105.79999999999998</ele><time>2026-05-02T09:22:09Z</time></trkpt><trkpt lat="43.31606105873895" lon="-4.167852955655737"><ele>106.39999999999999</ele><time>2026-05-02T09:22:10Z</time></trkpt><trkpt lat="43.31606820822263" lon="-4.167706777520143"><ele>107.0</ele><time>2026-05-02T09:22:11Z</time></trkpt><trkpt lat="43.31607337212091" lon="-4.167552137284714"><ele>107.0</ele><time>2026-05-02T09:22:12Z</time></trkpt><trkpt lat="43.316077343528114" lon="-4.167404758468094"><ele>106.99999999999999</ele><time>2026-05-02T09:22:13Z</time></trkpt><trkpt lat="43.31608247636705" lon="-4.16725585663906"><ele>106.99999999999999</ele><time>2026-05-02T09:22:14Z</time></trkpt><trkpt lat="43.31608683824303" lon="-4.167103228752293"><ele>107.0</ele><time>2026-05-02T09:22:15Z</time></trkpt><trkpt lat="43.31608970505982" lon="-4.166951839635461"><ele>107.0</ele><time>2026-05-02T09:22:16Z</time></trkpt><trkpt lat="43.31608859526299" lon="-4.166798864142613"><ele>107.19999999999999</ele><time>2026-05-02T09:22:17Z</time></trkpt><trkpt lat="43.316081687734545" lon="-4.1666458156738635"><ele>107.39999999999999</ele><time>2026-05-02T09:22:18Z</time></trkpt><trkpt lat="43.31605059232917" lon="-4.166497608402133"><ele>107.60000000000001</ele><time>2026-05-02T09:22:19Z</time></trkpt><trkpt lat="43.316030908707" lon="-4.166352931329304"><ele>107.80000000000001</ele><time>2026-05-02T09:22:20Z</time></trkpt><trkpt lat="43.316015039341224" lon="-4.166207950977084"><ele>108.0</ele><time>2026-05-02T09:22:21Z</time></trkpt><trkpt lat="43.31600012525973" lon="-4.166064986620765"><ele>108.33333333333333</ele><time>2026-05-02T09:22:22Z</time></trkpt><trkpt lat="43.31597943975266" lon="-4.165935003956189"><ele>108.66666666666666</ele><time>2026-05-02T09:22:23Z</time></trkpt><trkpt lat="43.315973260940524" lon="-4.165818279571503"><ele>109.0</ele><time>2026-05-02T09:22:24Z</time></trkpt><trkpt lat="43.315968641521394" lon="-4.165710530376178"><ele>109.33333333333333</ele><time>2026-05-02T09:22:25Z</time></trkpt><trkpt lat="43.31596686925299" lon="-4.165607224014723"><ele>109.66666666666666</ele><time>2026-05-02T09:22:26Z</time></trkpt><trkpt lat="43.31597380342812" lon="-4.165501911574786"><ele>110.0</ele><time>2026-05-02T09:22:27Z</time></trkpt><trkpt lat="43.315977419338154" lon="-4.1653880105832854"><ele>110.66666666666666</ele><time>2026-05-02T09:22:28Z</time></trkpt><trkpt lat="43.315994258455426" lon="-4.165269755963178"><ele>111.33333333333333</ele><time>2026-05-02T09:22:29Z</time></trkpt><trkpt lat="43.31599411805747" lon="-4.165155886296358"><ele>112.0</ele><time>2026-05-02T09:22:30Z</time></trkpt><trkpt lat="43.31600578875357" lon="-4.165051036204203"><ele>112.66666666666666</ele><time>2026-05-02T09:22:31Z</time></trkpt><trkpt lat="43.316016289917414" lon="-4.164951707320459"><ele>113.33333333333333</ele><time>2026-05-02T09:22:32Z</time></trkpt><trkpt lat="43.31602748148217" lon="-4.164846534273168"><ele>114.0</ele><time>2026-05-02T09:22:33Z</time></trkpt><trkpt lat="43.316054011173186" lon="-4.164739586782532"><ele>114.0</ele><time>2026-05-02T09:22:34Z</time></trkpt><trkpt lat="43.31605310802914" lon="-4.164618846014865"><ele>114.0</ele><time>2026-05-02T09:22:35Z</time></trkpt><trkpt lat="43.316062169921025" lon="-4.16448932152163"><ele>114.0</ele><time>2026-05-02T09:22:36Z</time></trkpt><trkpt lat="43.3160784460395" lon="-4.16435636037296"><ele>114.0</ele><time>2026-05-02T09:22:37Z</time></trkpt><trkpt lat="43.31609370648246" lon="-4.1642220847197615"><ele>114.0</ele><time>2026-05-02T09:22:38Z</time></trkpt><trkpt lat="43.31611056570011" lon="-4.164088121360745"><ele>113.80000000000001</ele><time>2026-05-02T09:22:39Z</time></trkpt><trkpt lat="43.31613082994445" lon="-4.16395404271631"><ele>113.60000000000001</ele><time>2026-05-02T09:22:40Z</time></trkpt><trkpt lat="43.316165728223744" lon="-4.163822552602744"><ele>113.4</ele><time>2026-05-02T09:22:41Z</time></trkpt><trkpt lat="43.31621210410388" lon="-4.163696606123258"><ele>113.2</ele><time>2026-05-02T09:22:42Z</time></trkpt><trkpt lat="43.316266846114594" lon="-4.163579632329279"><ele>113.0</ele><time>2026-05-02T09:22:43Z</time></trkpt><trkpt lat="43.31632338719925" lon="-4.163470181982977"><ele>112.99999999999999</ele><time>2026-05-02T09:22:44Z</time></trkpt><trkpt lat="43.316383756185594" lon="-4.163376541844155"><ele>113.0</ele><time>2026-05-02T09:22:45Z</time></trkpt><trkpt lat="43.31644491832447" lon="-4.163291065955671"><ele>113.0</ele><time>2026-05-02T09:22:46Z</time></trkpt><trkpt lat="43.31650843362833" lon="-4.163214746250244"><ele>113.0</ele><time>2026-05-02T09:22:47Z</time></trkpt><trkpt lat="43.316583714673925" lon="-4.163144982465131"><ele>112.99999999999999</ele><time>2026-05-02T09:22:48.001Z</time></trkpt><trkpt lat="43.31666763481348" lon="-4.163089920485548"><ele>113.0</ele><time>2026-05-02T09:22:49.001Z</time></trkpt><trkpt lat="43.31675370029208" lon="-4.16302217943436"><ele>113.4</ele><time>2026-05-02T09:22:50.001Z</time></trkpt><trkpt lat="43.31683435301148" lon="-4.162940375408741"><ele>113.80000000000001</ele><time>2026-05-02T09:22:51.001Z</time></trkpt><trkpt lat="43.31690934492375" lon="-4.162850767647839"><ele>114.2</ele><time>2026-05-02T09:22:52.001Z</time></trkpt><trkpt lat="43.31699491123789" lon="-4.162769047156686"><ele>114.6</ele><time>2026-05-02T09:22:53.001Z</time></trkpt><trkpt lat="43.31708693761265" lon="-4.162713316802793"><ele>115.0</ele><time>2026-05-02T09:22:54.001Z</time></trkpt><trkpt lat="43.31718740948547" lon="-4.16267772467699"><ele>116.2</ele><time>2026-05-02T09:22:55.001Z</time></trkpt><trkpt lat="43.31728481317177" lon="-4.162634248409375"><ele>117.4</ele><time>2026-05-02T09:22:56.001Z</time></trkpt><trkpt lat="43.31738402142806" lon="-4.162591749898152"><ele>118.6</ele><time>2026-05-02T09:22:57.001Z</time></trkpt><trkpt lat="43.31747568790867" lon="-4.162531511875386"><ele>119.8</ele><time>2026-05-02T09:22:58.001Z</time></trkpt><trkpt lat="43.31756060296594" lon="-4.162455771815905"><ele>121.0</ele><time>2026-05-02T09:22:59.001Z</time></trkpt><trkpt lat="43.317620403009926" lon="-4.162344958297807"><ele>121.0</ele><time>2026-05-02T09:23:00.001Z</time></trkpt><trkpt lat="43.31767538745586" lon="-4.162229368502543"><ele>121.0</ele><time>2026-05-02T09:23:01.001Z</time></trkpt><trkpt lat="43.31773013786983" lon="-4.1621087565697445"><ele>121.0</ele><time>2026-05-02T09:23:02.001Z</time></trkpt><trkpt lat="43.317768723310046" lon="-4.161979626617719"><ele>121.0</ele><time>2026-05-02T09:23:03.001Z</time></trkpt><trkpt lat="43.317794931344984" lon="-4.161846077826783"><ele>121.0</ele><time>2026-05-02T09:23:04.001Z</time></trkpt><trkpt lat="43.31777914848018" lon="-4.161703853492497"><ele>121.0</ele><time>2026-05-02T09:23:05.001Z</time></trkpt><trkpt lat="43.317771863628714" lon="-4.161557786537925"><ele>121.0</ele><time>2026-05-02T09:23:06.001Z</time></trkpt><trkpt lat="43.317763594521765" lon="-4.161413096638378"><ele>121.0</ele><time>2026-05-02T09:23:07.001Z</time></trkpt><trkpt lat="43.3177598099627" lon="-4.161266222914879"><ele>121.0</ele><time>2026-05-02T09:23:08.001Z</time></trkpt><trkpt lat="43.31775478448439" lon="-4.16113567703619"><ele>121.0</ele><time>2026-05-02T09:23:09.001Z</time></trkpt><trkpt lat="43.317749391433736" lon="-4.160990757136479"><ele>120.8</ele><time>2026-05-02T09:23:10.001Z</time></trkpt><trkpt lat="43.31775038800985" lon="-4.160869015325745"><ele>120.6</ele><time>2026-05-02T09:23:11.001Z</time></trkpt><trkpt lat="43.31771722974159" lon="-4.160690273805386"><ele>120.4</ele><time>2026-05-02T09:23:12.001Z</time></trkpt><trkpt lat="43.3177002179758" lon="-4.160552964073939"><ele>120.2</ele><time>2026-05-02T09:23:13.001Z</time></trkpt><trkpt lat="43.317682133929175" lon="-4.160423033006143"><ele>120.0</ele><time>2026-05-02T09:23:14.001Z</time></trkpt><trkpt lat="43.317663924774834" lon="-4.160303834530866"><ele>121.4</ele><time>2026-05-02T09:23:15.001Z</time></trkpt><trkpt lat="43.31764239512929" lon="-4.16017974176182"><ele>122.8</ele><time>2026-05-02T09:23:16.001Z</time></trkpt><trkpt lat="43.31761954847336" lon="-4.160051487633141"><ele>124.19999999999999</ele><time>2026-05-02T09:23:17.001Z</time></trkpt><trkpt lat="43.317596272472485" lon="-4.159920819005082"><ele>125.6</ele><time>2026-05-02T09:23:18.001Z</time></trkpt><trkpt lat="43.317589398943845" lon="-4.159782592734635"><ele>127.0</ele><time>2026-05-02T09:23:19.001Z</time></trkpt><trkpt lat="43.317560586170565" lon="-4.159648326079203"><ele>128.2</ele><time>2026-05-02T09:23:20.001Z</time></trkpt><trkpt lat="43.317538843227624" lon="-4.1595098660611685"><ele>129.39999999999998</ele><time>2026-05-02T09:23:21.001Z</time></trkpt><trkpt lat="43.31751041059755" lon="-4.159373022591175"><ele>130.60000000000002</ele><time>2026-05-02T09:23:22.001Z</time></trkpt><trkpt lat="43.317491304191776" lon="-4.1592312419292705"><ele>131.8</ele><time>2026-05-02T09:23:23.001Z</time></trkpt><trkpt lat="43.317467874971065" lon="-4.159088216039382"><ele>133.0</ele><time>2026-05-02T09:23:24.001Z</time></trkpt><trkpt lat="43.317446199229984" lon="-4.158941392606181"><ele>133.20000000000002</ele><time>2026-05-02T09:23:25.001Z</time></trkpt><trkpt lat="43.31742087865079" lon="-4.1587954938671166"><ele>133.4</ele><time>2026-05-02T09:23:26.001Z</time></trkpt><trkpt lat="43.31739718970254" lon="-4.158650282222764"><ele>133.60000000000002</ele><time>2026-05-02T09:23:27.001Z</time></trkpt><trkpt lat="43.31736697207135" lon="-4.158507722301561"><ele>133.8</ele><time>2026-05-02T09:23:28.001Z</time></trkpt><trkpt lat="43.31733057709845" lon="-4.158367052697892"><ele>134.0</ele><time>2026-05-02T09:23:29.001Z</time></trkpt><trkpt lat="43.317304925424516" lon="-4.158222892702904"><ele>135.4</ele><time>2026-05-02T09:23:30.001Z</time></trkpt><trkpt lat="43.31727612646926" lon="-4.158079629381463"><ele>136.8</ele><time>2026-05-02T09:23:31.001Z</time></trkpt><trkpt lat="43.317247054810906" lon="-4.157943043617745"><ele>138.2</ele><time>2026-05-02T09:23:32.001Z</time></trkpt><trkpt lat="43.317219940835116" lon="-4.157800857219996"><ele>139.6</ele><time>2026-05-02T09:23:33.001Z</time></trkpt><trkpt lat="43.31717717863515" lon="-4.157670707991453"><ele>141.0</ele><time>2026-05-02T09:23:34.001Z</time></trkpt><trkpt lat="43.31716008398767" lon="-4.157531352651894"><ele>137.4</ele><time>2026-05-02T09:23:35.001Z</time></trkpt><trkpt lat="43.31715008038901" lon="-4.157391340376304"><ele>133.8</ele><time>2026-05-02T09:23:36.001Z</time></trkpt><trkpt lat="43.317123966033776" lon="-4.157238664930509"><ele>130.20000000000002</ele><time>2026-05-02T09:23:37.001Z</time></trkpt><trkpt lat="43.317113418432605" lon="-4.157085989716154"><ele>126.60000000000001</ele><time>2026-05-02T09:23:38.001Z</time></trkpt><trkpt lat="43.317101983977444" lon="-4.156936691540766"><ele>123.0</ele><time>2026-05-02T09:23:39.001Z</time></trkpt><trkpt lat="43.3170892277753" lon="-4.156786216050332"><ele>123.0</ele><time>2026-05-02T09:23:40.001Z</time></trkpt><trkpt lat="43.31708626168069" lon="-4.156638008170179"><ele>123.00000000000001</ele><time>2026-05-02T09:23:41.001Z</time></trkpt><trkpt lat="43.317072761371875" lon="-4.156480029714038"><ele>123.00000000000001</ele><time>2026-05-02T09:23:42.001Z</time></trkpt><trkpt lat="43.3170601351245" lon="-4.156326300126327"><ele>123.0</ele><time>2026-05-02T09:23:43.001Z</time></trkpt><trkpt lat="43.317043500975345" lon="-4.156176076658319"><ele>123.0</ele><time>2026-05-02T09:23:44.001Z</time></trkpt><trkpt lat="43.31701380507018" lon="-4.156032385776642"><ele>123.60000000000001</ele><time>2026-05-02T09:23:45.001Z</time></trkpt><trkpt lat="43.31697847730284" lon="-4.155893038218785"><ele>124.20000000000002</ele><time>2026-05-02T09:23:46.001Z</time></trkpt><trkpt lat="43.316914293908624" lon="-4.155768957249526"><ele>124.8</ele><time>2026-05-02T09:23:47.001Z</time></trkpt><trkpt lat="43.31685577521123" lon="-4.155640145625683"><ele>125.4</ele><time>2026-05-02T09:23:48.001Z</time></trkpt><trkpt lat="43.31679394423358" lon="-4.155521911162482"><ele>126.0</ele><time>2026-05-02T09:23:49.001Z</time></trkpt><trkpt lat="43.31674160417841" lon="-4.155396556168335"><ele>126.6</ele><time>2026-05-02T09:23:50.001Z</time></trkpt><trkpt lat="43.3166731594938" lon="-4.155278960083887"><ele>127.19999999999999</ele><time>2026-05-02T09:23:51.001Z</time></trkpt><trkpt lat="43.31661874911129" lon="-4.155172701934808"><ele>127.80000000000001</ele><time>2026-05-02T09:23:52.001Z</time></trkpt><trkpt lat="43.316571047822194" lon="-4.155090303534311"><ele>128.4</ele><time>2026-05-02T09:23:53.001Z</time></trkpt><trkpt lat="43.316512218169116" lon="-4.1549036888450015"><ele>129.0</ele><time>2026-05-02T09:23:54.001Z</time></trkpt><trkpt lat="43.31646375615828" lon="-4.154769679433904"><ele>130.2</ele><time>2026-05-02T09:23:55.001Z</time></trkpt><trkpt lat="43.316422837203014" lon="-4.154641374317976"><ele>131.4</ele><time>2026-05-02T09:23:56.001Z</time></trkpt><trkpt lat="43.31638334285286" lon="-4.154508821978578"><ele>132.6</ele><time>2026-05-02T09:23:57.001Z</time></trkpt><trkpt lat="43.316342083633366" lon="-4.154382203850211"><ele>133.8</ele><time>2026-05-02T09:23:58.001Z</time></trkpt><trkpt lat="43.316300474946274" lon="-4.154252099432103"><ele>135.0</ele><time>2026-05-02T09:23:59.001Z</time></trkpt><trkpt lat="43.31625315060694" lon="-4.1541265757920804"><ele>133.2</ele><time>2026-05-02T09:24:00.002Z</time></trkpt><trkpt lat="43.31621315350315" lon="-4.153996323245504"><ele>131.4</ele><time>2026-05-02T09:24:01.002Z</time></trkpt><trkpt lat="43.31616470189828" lon="-4.153871951929101"><ele>129.6</ele><time>2026-05-02T09:24:02.002Z</time></trkpt><trkpt lat="43.31612556814546" lon="-4.153742259272611"><ele>127.8</ele><time>2026-05-02T09:24:03.002Z</time></trkpt><trkpt lat="43.31608207932496" lon="-4.153615207488758"><ele>126.0</ele><time>2026-05-02T09:24:04.002Z</time></trkpt><trkpt lat="43.31603504991211" lon="-4.153490934805285"><ele>126.0</ele><time>2026-05-02T09:24:05.002Z</time></trkpt><trkpt lat="43.31599377006296" lon="-4.153361532760402"><ele>126.0</ele><time>2026-05-02T09:24:06.002Z</time></trkpt><trkpt lat="43.31594873575634" lon="-4.153237492971825"><ele>126.0</ele><time>2026-05-02T09:24:07.002Z</time></trkpt><trkpt lat="43.31590533141531" lon="-4.153110022407523"><ele>126.0</ele><time>2026-05-02T09:24:08.002Z</time></trkpt><trkpt lat="43.31585592488715" lon="-4.152985723887448"><ele>126.0</ele><time>2026-05-02T09:24:09.002Z</time></trkpt><trkpt lat="43.31581090728182" lon="-4.152858541195974"><ele>126.4</ele><time>2026-05-02T09:24:10.002Z</time></trkpt><trkpt lat="43.31574165782147" lon="-4.152751290443382"><ele>126.8</ele><time>2026-05-02T09:24:11.002Z</time></trkpt><trkpt lat="43.31567523030411" lon="-4.15263876578679"><ele>127.20000000000002</ele><time>2026-05-02T09:24:12.002Z</time></trkpt><trkpt lat="43.315599283447554" lon="-4.152534952491534"><ele>127.60000000000001</ele><time>2026-05-02T09:24:13Z</time></trkpt><trkpt lat="43.31552498136781" lon="-4.152415135035581"><ele>128.0</ele><time>2026-05-02T09:24:14Z</time></trkpt><trkpt lat="43.31544516700232" lon="-4.152313549618469"><ele>128.0</ele><time>2026-05-02T09:24:15Z</time></trkpt><trkpt lat="43.3153790447117" lon="-4.152191935491837"><ele>128.0</ele><time>2026-05-02T09:24:16Z</time></trkpt><trkpt lat="43.31532528247643" lon="-4.152061153199929"><ele>128.0</ele><time>2026-05-02T09:24:17Z</time></trkpt><trkpt lat="43.31528448156628" lon="-4.1519194321796355"><ele>128.0</ele><time>2026-05-02T09:24:18Z</time></trkpt><trkpt lat="43.31525099827736" lon="-4.151779151555867"><ele>128.0</ele><time>2026-05-02T09:24:19Z</time></trkpt><trkpt lat="43.315230403796114" lon="-4.15163391026889"><ele>128.0</ele><time>2026-05-02T09:24:20Z</time></trkpt><trkpt lat="43.31521027435625" lon="-4.151483830172488"><ele>128.0</ele><time>2026-05-02T09:24:21Z</time></trkpt><trkpt lat="43.31518590556736" lon="-4.151343107487313"><ele>128.0</ele><time>2026-05-02T09:24:22Z</time></trkpt><trkpt lat="43.31516497672035" lon="-4.151203209014408"><ele>128.0</ele><time>2026-05-02T09:24:23Z</time></trkpt><trkpt lat="43.31514527653902" lon="-4.151050698925436"><ele>128.0</ele><time>2026-05-02T09:24:24Z</time></trkpt><trkpt lat="43.31510365410227" lon="-4.150911884917731"><ele>128.0</ele><time>2026-05-02T09:24:25Z</time></trkpt><trkpt lat="43.315069575603744" lon="-4.150772911844892"><ele>128.0</ele><time>2026-05-02T09:24:26Z</time></trkpt><trkpt lat="43.31502595166684" lon="-4.150642423222954"><ele>128.0</ele><time>2026-05-02T09:24:27Z</time></trkpt><trkpt lat="43.31497610595032" lon="-4.15051135547999"><ele>128.0</ele><time>2026-05-02T09:24:28Z</time></trkpt><trkpt lat="43.31492593846242" lon="-4.150385167100723"><ele>128.0</ele><time>2026-05-02T09:24:29Z</time></trkpt><trkpt lat="43.31487547510534" lon="-4.150258235121969"><ele>128.8</ele><time>2026-05-02T09:24:30Z</time></trkpt><trkpt lat="43.31483399085188" lon="-4.150124280930499"><ele>129.60000000000002</ele><time>2026-05-02T09:24:31Z</time></trkpt><trkpt lat="43.31477241121805" lon="-4.149998599034666"><ele>130.39999999999998</ele><time>2026-05-02T09:24:32Z</time></trkpt><trkpt lat="43.31472660015834" lon="-4.149870910526603"><ele>131.2</ele><time>2026-05-02T09:24:33Z</time></trkpt><trkpt lat="43.31467509286167" lon="-4.149742328687062"><ele>132.0</ele><time>2026-05-02T09:24:34Z</time></trkpt><trkpt lat="43.31462591668847" lon="-4.149622065152319"><ele>132.79999999999998</ele><time>2026-05-02T09:24:35Z</time></trkpt><trkpt lat="43.314576745132044" lon="-4.149502121777518"><ele>133.6</ele><time>2026-05-02T09:24:36Z</time></trkpt><trkpt lat="43.31452997692384" lon="-4.149382875993938"><ele>134.39999999999998</ele><time>2026-05-02T09:24:37Z</time></trkpt><trkpt lat="43.31448109127304" lon="-4.1492689302443795"><ele>135.2</ele><time>2026-05-02T09:24:38Z</time></trkpt><trkpt lat="43.31443353908579" lon="-4.149157063974395"><ele>136.0</ele><time>2026-05-02T09:24:39Z</time></trkpt><trkpt lat="43.31438473298414" lon="-4.149048506516901"><ele>137.5</ele><time>2026-05-02T09:24:40Z</time></trkpt><trkpt lat="43.31433322973701" lon="-4.148945194029163"><ele>139.0</ele><time>2026-05-02T09:24:41Z</time></trkpt><trkpt lat="43.31427823421708" lon="-4.148849083941012"><ele>140.5</ele><time>2026-05-02T09:24:42Z</time></trkpt><trkpt lat="43.31422455204585" lon="-4.148749011123556"><ele>142.0</ele><time>2026-05-02T09:24:43Z</time></trkpt><trkpt lat="43.31416683025259" lon="-4.1486566067993245"><ele>143.5</ele><time>2026-05-02T09:24:44Z</time></trkpt><trkpt lat="43.31410776861928" lon="-4.148568488260527"><ele>145.0</ele><time>2026-05-02T09:24:45Z</time></trkpt><trkpt lat="43.31404658947707" lon="-4.148480280047259"><ele>145.0</ele><time>2026-05-02T09:24:46Z</time></trkpt><trkpt lat="43.31398362713553" lon="-4.148396268008062"><ele>145.0</ele><time>2026-05-02T09:24:47Z</time></trkpt><trkpt lat="43.31392000115135" lon="-4.148316958500803"><ele>145.0</ele><time>2026-05-02T09:24:48Z</time></trkpt><trkpt lat="43.313857439312926" lon="-4.148233914118995"><ele>145.0</ele><time>2026-05-02T09:24:49Z</time></trkpt><trkpt lat="43.313792372231546" lon="-4.148154504273646"><ele>145.0</ele><time>2026-05-02T09:24:50Z</time></trkpt><trkpt lat="43.31373290762422" lon="-4.148065939800177"><ele>145.0</ele><time>2026-05-02T09:24:51Z</time></trkpt><trkpt lat="43.31367056769445" lon="-4.147980357988576"><ele>145.2</ele><time>2026-05-02T09:24:52Z</time></trkpt><trkpt lat="43.31360741255842" lon="-4.1478915928573885"><ele>145.4</ele><time>2026-05-02T09:24:53Z</time></trkpt><trkpt lat="43.313547062431105" lon="-4.147803975907007"><ele>145.6</ele><time>2026-05-02T09:24:54Z</time></trkpt><trkpt lat="43.31348622630452" lon="-4.14771403847311"><ele>145.8</ele><time>2026-05-02T09:24:55Z</time></trkpt><trkpt lat="43.3134287396081" lon="-4.147616611037335"><ele>146.0</ele><time>2026-05-02T09:24:56.001Z</time></trkpt><trkpt lat="43.31336683868248" lon="-4.14752404979031"><ele>146.0</ele><time>2026-05-02T09:24:57.001Z</time></trkpt><trkpt lat="43.31331355403104" lon="-4.14741939109394"><ele>146.0</ele><time>2026-05-02T09:24:58.001Z</time></trkpt><trkpt lat="43.31326084179117" lon="-4.147316240529038"><ele>146.0</ele><time>2026-05-02T09:24:59.001Z</time></trkpt><trkpt lat="43.31321728837148" lon="-4.147200344892018"><ele>146.0</ele><time>2026-05-02T09:25:00.001Z</time></trkpt><trkpt lat="43.31318447105531" lon="-4.147076756355255"><ele>146.0</ele><time>2026-05-02T09:25:01.001Z</time></trkpt><trkpt lat="43.31315752276103" lon="-4.146949694300096"><ele>145.8</ele><time>2026-05-02T09:25:02.001Z</time></trkpt><trkpt lat="43.31313206379433" lon="-4.14682080652534"><ele>145.6</ele><time>2026-05-02T09:25:03.001Z</time></trkpt><trkpt lat="43.31309915853958" lon="-4.146696590308979"><ele>145.4</ele><time>2026-05-02T09:25:04.001Z</time></trkpt><trkpt lat="43.31306489979753" lon="-4.146573591683888"><ele>145.2</ele><time>2026-05-02T09:25:05.001Z</time></trkpt><trkpt lat="43.31302353341028" lon="-4.146458734848188"><ele>145.0</ele><time>2026-05-02T09:25:06.001Z</time></trkpt><trkpt lat="43.31298880735019" lon="-4.1463457138170385"><ele>145.5</ele><time>2026-05-02T09:25:07.001Z</time></trkpt><trkpt lat="43.312961598838726" lon="-4.1462304738014675"><ele>146.0</ele><time>2026-05-02T09:25:08.001Z</time></trkpt><trkpt lat="43.31294626115373" lon="-4.146117314938504"><ele>146.5</ele><time>2026-05-02T09:25:09.001Z</time></trkpt><trkpt lat="43.312934944004695" lon="-4.146001220684636"><ele>147.0</ele><time>2026-05-02T09:25:10.001Z</time></trkpt><trkpt lat="43.312923124932325" lon="-4.145883743551726"><ele>147.5</ele><time>2026-05-02T09:25:11.001Z</time></trkpt><trkpt lat="43.31291215949446" lon="-4.1457642713509255"><ele>148.0</ele><time>2026-05-02T09:25:12.001Z</time></trkpt><trkpt lat="43.31290636113265" lon="-4.145645362874659"><ele>148.66666666666669</ele><time>2026-05-02T09:25:13.001Z</time></trkpt><trkpt lat="43.31289493251583" lon="-4.14552292883654"><ele>149.33333333333334</ele><time>2026-05-02T09:25:14.001Z</time></trkpt><trkpt lat="43.31288612471648" lon="-4.145405253772123"><ele>150.0</ele><time>2026-05-02T09:25:15.001Z</time></trkpt><trkpt lat="43.312876091288516" lon="-4.145283299937418"><ele>150.66666666666666</ele><time>2026-05-02T09:25:16.001Z</time></trkpt><trkpt lat="43.31286085261137" lon="-4.14515872656553"><ele>151.33333333333331</ele><time>2026-05-02T09:25:17.001Z</time></trkpt><trkpt lat="43.312845127895756" lon="-4.145034704107466"><ele>152.0</ele><time>2026-05-02T09:25:18.001Z</time></trkpt><trkpt lat="43.312825515525695" lon="-4.144902879101805"><ele>153.6</ele><time>2026-05-02T09:25:19.001Z</time></trkpt><trkpt lat="43.31280484312348" lon="-4.144770839055072"><ele>155.2</ele><time>2026-05-02T09:25:20.001Z</time></trkpt><trkpt lat="43.31278389568996" lon="-4.144636326809632"><ele>156.8</ele><time>2026-05-02T09:25:21.001Z</time></trkpt><trkpt lat="43.3127624195825" lon="-4.144498309167151"><ele>158.4</ele><time>2026-05-02T09:25:22.001Z</time></trkpt><trkpt lat="43.31273301882456" lon="-4.1443635723460845"><ele>160.0</ele><time>2026-05-02T09:25:23.001Z</time></trkpt><trkpt lat="43.31270636194733" lon="-4.144224976517839"><ele>160.0</ele><time>2026-05-02T09:25:24.001Z</time></trkpt><trkpt lat="43.31268983460721" lon="-4.144089033252592"><ele>160.0</ele><time>2026-05-02T09:25:25.001Z</time></trkpt><trkpt lat="43.31265139383428" lon="-4.14392753195068"><ele>160.0</ele><time>2026-05-02T09:25:26.001Z</time></trkpt><trkpt lat="43.312622905369366" lon="-4.143780943851697"><ele>160.0</ele><time>2026-05-02T09:25:27.001Z</time></trkpt><trkpt lat="43.312593204009936" lon="-4.143639931072663"><ele>160.0</ele><time>2026-05-02T09:25:28.001Z</time></trkpt><trkpt lat="43.31256144554529" lon="-4.143500164711864"><ele>160.2</ele><time>2026-05-02T09:25:29.001Z</time></trkpt><trkpt lat="43.312531103229134" lon="-4.143366863383976"><ele>160.4</ele><time>2026-05-02T09:25:30.001Z</time></trkpt><trkpt lat="43.31250074847397" lon="-4.143230871735604"><ele>160.60000000000002</ele><time>2026-05-02T09:25:31.001Z</time></trkpt><trkpt lat="43.312465916683124" lon="-4.143092535109156"><ele>160.8</ele><time>2026-05-02T09:25:32.001Z</time></trkpt><trkpt lat="43.31242905605714" lon="-4.142960644037054"><ele>161.0</ele><time>2026-05-02T09:25:33.001Z</time></trkpt><trkpt lat="43.312393780354" lon="-4.142828269862888"><ele>162.20000000000002</ele><time>2026-05-02T09:25:34.001Z</time></trkpt><trkpt lat="43.31235836435406" lon="-4.1427002420174235"><ele>163.4</ele><time>2026-05-02T09:25:35.001Z</time></trkpt><trkpt lat="43.312321742127445" lon="-4.142571479363923"><ele>164.6</ele><time>2026-05-02T09:25:36.001Z</time></trkpt><trkpt lat="43.31228056149365" lon="-4.142448198727728"><ele>165.8</ele><time>2026-05-02T09:25:37.001Z</time></trkpt><trkpt lat="43.31223964885176" lon="-4.142327905830298"><ele>167.0</ele><time>2026-05-02T09:25:38.001Z</time></trkpt><trkpt lat="43.312177052565424" lon="-4.142226070202256"><ele>167.0</ele><time>2026-05-02T09:25:39.001Z</time></trkpt><trkpt lat="43.31212700268366" lon="-4.142115344669595"><ele>167.0</ele><time>2026-05-02T09:25:40.001Z</time></trkpt><trkpt lat="43.31207460363415" lon="-4.142009873619403"><ele>167.0</ele><time>2026-05-02T09:25:41.001Z</time></trkpt><trkpt lat="43.312017531445306" lon="-4.141910837588609"><ele>167.0</ele><time>2026-05-02T09:25:42.001Z</time></trkpt><trkpt lat="43.31195559768694" lon="-4.141811504020557"><ele>167.0</ele><time>2026-05-02T09:25:43.001Z</time></trkpt><trkpt lat="43.31190352676535" lon="-4.141710125531728"><ele>167.0</ele><time>2026-05-02T09:25:44.001Z</time></trkpt><trkpt lat="43.31184115418417" lon="-4.141621798154899"><ele>167.0</ele><time>2026-05-02T09:25:45.001Z</time></trkpt><trkpt lat="43.31178034477048" lon="-4.141536858498554"><ele>167.0</ele><time>2026-05-02T09:25:46.001Z</time></trkpt><trkpt lat="43.31172035382201" lon="-4.141457622811801"><ele>167.0</ele><time>2026-05-02T09:25:47.001Z</time></trkpt><trkpt lat="43.311659521818456" lon="-4.141379835469016"><ele>167.0</ele><time>2026-05-02T09:25:48.001Z</time></trkpt><trkpt lat="43.31159865546588" lon="-4.141304280354056"><ele>167.0</ele><time>2026-05-02T09:25:49.001Z</time></trkpt><trkpt lat="43.311537705346566" lon="-4.141228658317166"><ele>167.5</ele><time>2026-05-02T09:25:50.001Z</time></trkpt><trkpt lat="43.311471392730134" lon="-4.141154994419814"><ele>168.0</ele><time>2026-05-02T09:25:51.001Z</time></trkpt><trkpt lat="43.311411341582236" lon="-4.141079208659458"><ele>168.5</ele><time>2026-05-02T09:25:52.001Z</time></trkpt><trkpt lat="43.311347990734376" lon="-4.141001567857966"><ele>169.0</ele><time>2026-05-02T09:25:53.001Z</time></trkpt><trkpt lat="43.31128566406187" lon="-4.140924587419418"><ele>169.5</ele><time>2026-05-02T09:25:54.001Z</time></trkpt><trkpt lat="43.31122285419002" lon="-4.140849521966297"><ele>170.0</ele><time>2026-05-02T09:25:55.001Z</time></trkpt><trkpt lat="43.311158621163756" lon="-4.140772174370328"><ele>171.66666666666666</ele><time>2026-05-02T09:25:56.001Z</time></trkpt><trkpt lat="43.31109456138762" lon="-4.140698383552433"><ele>173.33333333333331</ele><time>2026-05-02T09:25:57.001Z</time></trkpt><trkpt lat="43.311030837379555" lon="-4.140618470060489"><ele>175.0</ele><time>2026-05-02T09:25:58.001Z</time></trkpt><trkpt lat="43.310969193727615" lon="-4.140538965637616"><ele>176.66666666666666</ele><time>2026-05-02T09:25:59.001Z</time></trkpt><trkpt lat="43.31090717254432" lon="-4.140465225827239"><ele>178.33333333333334</ele><time>2026-05-02T09:26:00.001Z</time></trkpt><trkpt lat="43.310849254891444" lon="-4.140386566785191"><ele>180.0</ele><time>2026-05-02T09:26:01.001Z</time></trkpt><trkpt lat="43.31080145526334" lon="-4.140296263719322"><ele>180.0</ele><time>2026-05-02T09:26:02.001Z</time></trkpt><trkpt lat="43.3107598959837" lon="-4.140198611007917"><ele>180.0</ele><time>2026-05-02T09:26:03.001Z</time></trkpt><trkpt lat="43.310724940145796" lon="-4.14009604272867"><ele>180.0</ele><time>2026-05-02T09:26:04.001Z</time></trkpt><trkpt lat="43.31069620891249" lon="-4.139990766365416"><ele>180.0</ele><time>2026-05-02T09:26:05.001Z</time></trkpt><trkpt lat="43.31067788993651" lon="-4.139880296017797"><ele>180.0</ele><time>2026-05-02T09:26:06.001Z</time></trkpt><trkpt lat="43.31066594643287" lon="-4.1397683446715146"><ele>180.0</ele><time>2026-05-02T09:26:07.001Z</time></trkpt><trkpt lat="43.310659909334525" lon="-4.13965166885549"><ele>180.66666666666666</ele><time>2026-05-02T09:26:08.001Z</time></trkpt><trkpt lat="43.31065829686953" lon="-4.139540564841131"><ele>181.33333333333334</ele><time>2026-05-02T09:26:09.001Z</time></trkpt><trkpt lat="43.31066216067498" lon="-4.139424940747346"><ele>182.0</ele><time>2026-05-02T09:26:10.001Z</time></trkpt><trkpt lat="43.3106784440501" lon="-4.139316905012482"><ele>182.66666666666669</ele><time>2026-05-02T09:26:11.001Z</time></trkpt><trkpt lat="43.3107100930855" lon="-4.139208937864308"><ele>183.33333333333334</ele><time>2026-05-02T09:26:12.001Z</time></trkpt><trkpt lat="43.31075518649262" lon="-4.139116033260461"><ele>184.0</ele><time>2026-05-02T09:26:13.002Z</time></trkpt><trkpt lat="43.31080922184906" lon="-4.139026895403607"><ele>184.33333333333334</ele><time>2026-05-02T09:26:14.002Z</time></trkpt><trkpt lat="43.31086517274531" lon="-4.138937621028289"><ele>184.66666666666669</ele><time>2026-05-02T09:26:15.002Z</time></trkpt><trkpt lat="43.310919534098915" lon="-4.138842878951847"><ele>185.0</ele><time>2026-05-02T09:26:16.002Z</time></trkpt><trkpt lat="43.3109730595537" lon="-4.138751889172448"><ele>185.33333333333334</ele><time>2026-05-02T09:26:17.002Z</time></trkpt><trkpt lat="43.31102925429513" lon="-4.138673268980557"><ele>185.66666666666666</ele><time>2026-05-02T09:26:18.002Z</time></trkpt><trkpt lat="43.31107974708174" lon="-4.138575373815639"><ele>186.0</ele><time>2026-05-02T09:26:19Z</time></trkpt><trkpt lat="43.31111903645255" lon="-4.138476859462234"><ele>186.0</ele><time>2026-05-02T09:26:20Z</time></trkpt><trkpt lat="43.31115236117409" lon="-4.138373922332864"><ele>186.0</ele><time>2026-05-02T09:26:21Z</time></trkpt><trkpt lat="43.31117828294341" lon="-4.138266565751913"><ele>186.0</ele><time>2026-05-02T09:26:22Z</time></trkpt><trkpt lat="43.31117548025989" lon="-4.1381493428336595"><ele>186.0</ele><time>2026-05-02T09:26:23Z</time></trkpt><trkpt lat="43.311179889975435" lon="-4.138041001982037"><ele>186.0</ele><time>2026-05-02T09:26:24Z</time></trkpt><trkpt lat="43.31117951217345" lon="-4.137927294294091"><ele>186.0</ele><time>2026-05-02T09:26:25Z</time></trkpt><trkpt lat="43.311175954578744" lon="-4.137810768310759"><ele>186.83333333333334</ele><time>2026-05-02T09:26:26Z</time></trkpt><trkpt lat="43.31116588457853" lon="-4.137695607555182"><ele>187.66666666666666</ele><time>2026-05-02T09:26:27Z</time></trkpt><trkpt lat="43.31115032066536" lon="-4.1375870153386325"><ele>188.5</ele><time>2026-05-02T09:26:28Z</time></trkpt><trkpt lat="43.3111281910943" lon="-4.1374786285500615"><ele>189.33333333333331</ele><time>2026-05-02T09:26:29Z</time></trkpt><trkpt lat="43.3110983199101" lon="-4.137379148362834"><ele>190.16666666666666</ele><time>2026-05-02T09:26:30Z</time></trkpt><trkpt lat="43.3110606575869" lon="-4.137267783383234"><ele>191.0</ele><time>2026-05-02T09:26:31Z</time></trkpt><trkpt lat="43.31101821127163" lon="-4.1371680512084"><ele>194.5</ele><time>2026-05-02T09:26:32Z</time></trkpt><trkpt lat="43.31096906011292" lon="-4.137074923060003"><ele>198.0</ele><time>2026-05-02T09:26:33Z</time></trkpt><trkpt lat="43.31091700235317" lon="-4.136990261862202"><ele>201.5</ele><time>2026-05-02T09:26:34Z</time></trkpt><trkpt lat="43.31085885134381" lon="-4.13690193787284"><ele>205.0</ele><time>2026-05-02T09:26:35Z</time></trkpt><trkpt lat="43.31080252799822" lon="-4.136822955660361"><ele>208.50000000000003</ele><time>2026-05-02T09:26:36Z</time></trkpt><trkpt lat="43.31075157069847" lon="-4.136733299016222"><ele>212.0</ele><time>2026-05-02T09:26:37Z</time></trkpt><trkpt lat="43.31068630445423" lon="-4.136662369471257"><ele>212.00000000000003</ele><time>2026-05-02T09:26:38Z</time></trkpt><trkpt lat="43.31062263515293" lon="-4.136593775366799"><ele>212.0</ele><time>2026-05-02T09:26:39Z</time></trkpt><trkpt lat="43.310556894172436" lon="-4.136522368540576"><ele>212.0</ele><time>2026-05-02T09:26:40Z</time></trkpt><trkpt lat="43.310495305976794" lon="-4.136456534194962"><ele>212.0</ele><time>2026-05-02T09:26:41Z</time></trkpt><trkpt lat="43.310432111588085" lon="-4.1363797709440515"><ele>212.00000000000003</ele><time>2026-05-02T09:26:42Z</time></trkpt><trkpt lat="43.31037835232099" lon="-4.136300296824749"><ele>212.0</ele><time>2026-05-02T09:26:43Z</time></trkpt><trkpt lat="43.310330201463856" lon="-4.136207593262511"><ele>212.83333333333334</ele><time>2026-05-02T09:26:44Z</time></trkpt><trkpt lat="43.31029368320203" lon="-4.136100340791784"><ele>213.66666666666669</ele><time>2026-05-02T09:26:45Z</time></trkpt><trkpt lat="43.3102797405902" lon="-4.135995214002997"><ele>214.5</ele><time>2026-05-02T09:26:46Z</time></trkpt><trkpt lat="43.310274069621485" lon="-4.135872082959152"><ele>215.33333333333331</ele><time>2026-05-02T09:26:47Z</time></trkpt><trkpt lat="43.310279935152415" lon="-4.135753828962335"><ele>216.16666666666666</ele><time>2026-05-02T09:26:48Z</time></trkpt><trkpt lat="43.31028961877402" lon="-4.135638877847226"><ele>217.0</ele><time>2026-05-02T09:26:49Z</time></trkpt><trkpt lat="43.310297142514464" lon="-4.135517134412179"><ele>216.99999999999997</ele><time>2026-05-02T09:26:50Z</time></trkpt><trkpt lat="43.31029272976267" lon="-4.135402982001171"><ele>217.0</ele><time>2026-05-02T09:26:51Z</time></trkpt><trkpt lat="43.31027794301988" lon="-4.135285538858433"><ele>217.0</ele><time>2026-05-02T09:26:52Z</time></trkpt><trkpt lat="43.31026737113982" lon="-4.13517252376274"><ele>217.0</ele><time>2026-05-02T09:26:53Z</time></trkpt><trkpt lat="43.310250607687536" lon="-4.135058858053831"><ele>216.99999999999997</ele><time>2026-05-02T09:26:54Z</time></trkpt><trkpt lat="43.310229880507194" lon="-4.1349434254346"><ele>217.0</ele><time>2026-05-02T09:26:55Z</time></trkpt><trkpt lat="43.31021336347709" lon="-4.134822558581521"><ele>218.83333333333331</ele><time>2026-05-02T09:26:56Z</time></trkpt><trkpt lat="43.310199630781376" lon="-4.134708094639318"><ele>220.66666666666666</ele><time>2026-05-02T09:26:57Z</time></trkpt><trkpt lat="43.31018285309893" lon="-4.134591703214172"><ele>222.5</ele><time>2026-05-02T09:26:58Z</time></trkpt><trkpt lat="43.3101504617142" lon="-4.134477839259733"><ele>224.33333333333331</ele><time>2026-05-02T09:26:59Z</time></trkpt><trkpt lat="43.310096273772125" lon="-4.134380515069557"><ele>226.16666666666666</ele><time>2026-05-02T09:27:00.001Z</time></trkpt><trkpt lat="43.3100258728036" lon="-4.13432472261482"><ele>228.0</ele><time>2026-05-02T09:27:01.001Z</time></trkpt><trkpt lat="43.3099651435282" lon="-4.134247708896329"><ele>228.0</ele><time>2026-05-02T09:27:02.001Z</time></trkpt><trkpt lat="43.3099185206087" lon="-4.134155439644323"><ele>228.0</ele><time>2026-05-02T09:27:03.001Z</time></trkpt><trkpt lat="43.30987124785372" lon="-4.134073412165035"><ele>228.0</ele><time>2026-05-02T09:27:04.001Z</time></trkpt><trkpt lat="43.30983142923233" lon="-4.133969536541839"><ele>228.0</ele><time>2026-05-02T09:27:05.001Z</time></trkpt><trkpt lat="43.30980513482468" lon="-4.1338724573718695"><ele>228.0</ele><time>2026-05-02T09:27:06.001Z</time></trkpt><trkpt lat="43.309781569240556" lon="-4.133763200317848"><ele>228.0</ele><time>2026-05-02T09:27:07.001Z</time></trkpt><trkpt lat="43.30976161830003" lon="-4.133657214563298"><ele>227.33333333333334</ele><time>2026-05-02T09:27:08.001Z</time></trkpt><trkpt lat="43.309746915112186" lon="-4.133545917767824"><ele>226.66666666666669</ele><time>2026-05-02T09:27:09.001Z</time></trkpt><trkpt lat="43.30973380444486" lon="-4.133439363162392"><ele>226.0</ele><time>2026-05-02T09:27:10.001Z</time></trkpt><trkpt lat="43.30971687193643" lon="-4.133329465624502"><ele>225.33333333333334</ele><time>2026-05-02T09:27:11.001Z</time></trkpt><trkpt lat="43.30969159153703" lon="-4.1332267898568045"><ele>224.66666666666669</ele><time>2026-05-02T09:27:12.001Z</time></trkpt><trkpt lat="43.30968469849588" lon="-4.133106632546384"><ele>224.0</ele><time>2026-05-02T09:27:13.001Z</time></trkpt><trkpt lat="43.30966594676571" lon="-4.132993692589375"><ele>224.00000000000003</ele><time>2026-05-02T09:27:14.001Z</time></trkpt><trkpt lat="43.30964831280742" lon="-4.132876682116532"><ele>224.0</ele><time>2026-05-02T09:27:15.001Z</time></trkpt><trkpt lat="43.30962943994745" lon="-4.132760904613366"><ele>224.0</ele><time>2026-05-02T09:27:16.001Z</time></trkpt><trkpt lat="43.30960993725454" lon="-4.132640819963817"><ele>224.0</ele><time>2026-05-02T09:27:17.001Z</time></trkpt><trkpt lat="43.30959423134962" lon="-4.1325137284282665"><ele>224.00000000000003</ele><time>2026-05-02T09:27:18.001Z</time></trkpt><trkpt lat="43.30957903030209" lon="-4.132402636946982"><ele>224.0</ele><time>2026-05-02T09:27:19.001Z</time></trkpt><trkpt lat="43.309563798896754" lon="-4.132287617789167"><ele>225.83333333333334</ele><time>2026-05-02T09:27:20.001Z</time></trkpt><trkpt lat="43.30954636316603" lon="-4.1321725296465415"><ele>227.66666666666669</ele><time>2026-05-02T09:27:21.001Z</time></trkpt><trkpt lat="43.30953112855986" lon="-4.132061857096252"><ele>229.5</ele><time>2026-05-02T09:27:22.001Z</time></trkpt><trkpt lat="43.309522877432464" lon="-4.131954387626843"><ele>231.33333333333331</ele><time>2026-05-02T09:27:23.001Z</time></trkpt><trkpt lat="43.30950993757832" lon="-4.131846701690633"><ele>233.16666666666666</ele><time>2026-05-02T09:27:24.001Z</time></trkpt><trkpt lat="43.30949517239701" lon="-4.13173798324298"><ele>235.0</ele><time>2026-05-02T09:27:25.001Z</time></trkpt><trkpt lat="43.30947714633906" lon="-4.131631978391652"><ele>236.49999999999997</ele><time>2026-05-02T09:27:26.001Z</time></trkpt><trkpt lat="43.309459644913495" lon="-4.1315253850075395"><ele>238.0</ele><time>2026-05-02T09:27:27.001Z</time></trkpt><trkpt lat="43.30944302143595" lon="-4.131416822428304"><ele>239.5</ele><time>2026-05-02T09:27:28.001Z</time></trkpt><trkpt lat="43.309424859579245" lon="-4.131309743925687"><ele>241.0</ele><time>2026-05-02T09:27:29.001Z</time></trkpt><trkpt lat="43.30940660407509" lon="-4.131205670353463"><ele>242.49999999999997</ele><time>2026-05-02T09:27:30.001Z</time></trkpt><trkpt lat="43.30938913895018" lon="-4.13110302066934"><ele>244.0</ele><time>2026-05-02T09:27:31.001Z</time></trkpt><trkpt lat="43.30936968473224" lon="-4.131004085204902"><ele>243.99999999999997</ele><time>2026-05-02T09:27:32.001Z</time></trkpt><trkpt lat="43.30935893609638" lon="-4.1308992178074275"><ele>244.0</ele><time>2026-05-02T09:27:33.001Z</time></trkpt><trkpt lat="43.309346723782255" lon="-4.130795021881814"><ele>244.0</ele><time>2026-05-02T09:27:34.001Z</time></trkpt><trkpt lat="43.3093313012224" lon="-4.130694131552855"><ele>244.0</ele><time>2026-05-02T09:27:35.001Z</time></trkpt><trkpt lat="43.309320610806694" lon="-4.1305870357930745"><ele>243.99999999999997</ele><time>2026-05-02T09:27:36.001Z</time></trkpt><trkpt lat="43.309310313320346" lon="-4.130483950967537"><ele>244.0</ele><time>2026-05-02T09:27:37.001Z</time></trkpt><trkpt lat="43.30929801191475" lon="-4.130377283024489"><ele>244.99999999999997</ele><time>2026-05-02T09:27:38.001Z</time></trkpt><trkpt lat="43.30928532999988" lon="-4.130269712477574"><ele>246.0</ele><time>2026-05-02T09:27:39.001Z</time></trkpt><trkpt lat="43.30927791729348" lon="-4.130163695422791"><ele>247.0</ele><time>2026-05-02T09:27:40.001Z</time></trkpt><trkpt lat="43.30926945217482" lon="-4.130053893975552"><ele>248.0</ele><time>2026-05-02T09:27:41.001Z</time></trkpt><trkpt lat="43.30925836309842" lon="-4.129937870904258"><ele>248.99999999999997</ele><time>2026-05-02T09:27:42.001Z</time></trkpt><trkpt lat="43.309250295362695" lon="-4.129825645411351"><ele>250.0</ele><time>2026-05-02T09:27:43.001Z</time></trkpt><trkpt lat="43.30924519339867" lon="-4.129707933936458"><ele>249.99999999999997</ele><time>2026-05-02T09:27:44.001Z</time></trkpt><trkpt lat="43.30923675411005" lon="-4.129593566169749"><ele>250.0</ele><time>2026-05-02T09:27:45.001Z</time></trkpt><trkpt lat="43.309224130860486" lon="-4.129472707090075"><ele>250.0</ele><time>2026-05-02T09:27:46.001Z</time></trkpt><trkpt lat="43.309211774207455" lon="-4.1293554823135645"><ele>250.0</ele><time>2026-05-02T09:27:47.001Z</time></trkpt><trkpt lat="43.309186825758786" lon="-4.129232988687664"><ele>249.99999999999997</ele><time>2026-05-02T09:27:48.001Z</time></trkpt><trkpt lat="43.30915954244936" lon="-4.129114636059954"><ele>250.0</ele><time>2026-05-02T09:27:49.001Z</time></trkpt><trkpt lat="43.3091155356593" lon="-4.12900059445174"><ele>250.0</ele><time>2026-05-02T09:27:50.001Z</time></trkpt><trkpt lat="43.30903574866886" lon="-4.128919983887215"><ele>250.0</ele><time>2026-05-02T09:27:51.001Z</time></trkpt><trkpt lat="43.308958884216906" lon="-4.128840836902288"><ele>250.0</ele><time>2026-05-02T09:27:52.001Z</time></trkpt><trkpt lat="43.30887977530886" lon="-4.128762207876482"><ele>250.0</ele><time>2026-05-02T09:27:53.001Z</time></trkpt><trkpt lat="43.30880245584502" lon="-4.12868365830137"><ele>250.0</ele><time>2026-05-02T09:27:54.001Z</time></trkpt><trkpt lat="43.308726727689965" lon="-4.128598940938871"><ele>250.0</ele><time>2026-05-02T09:27:55.001Z</time></trkpt><trkpt lat="43.308650780020066" lon="-4.128516443385862"><ele>250.0</ele><time>2026-05-02T09:27:56.001Z</time></trkpt><trkpt lat="43.30857368057817" lon="-4.1284315269077325"><ele>250.0</ele><time>2026-05-02T09:27:57.001Z</time></trkpt><trkpt lat="43.3084986170839" lon="-4.1283455922669985"><ele>250.0</ele><time>2026-05-02T09:27:58.001Z</time></trkpt><trkpt lat="43.30842342261103" lon="-4.12826354320467"><ele>250.0</ele><time>2026-05-02T09:27:59.001Z</time></trkpt><trkpt lat="43.3083511072625" lon="-4.1281737661910505"><ele>251.2</ele><time>2026-05-02T09:28:00.001Z</time></trkpt><trkpt lat="43.30828612373828" lon="-4.128075747787202"><ele>252.4</ele><time>2026-05-02T09:28:01.001Z</time></trkpt><trkpt lat="43.3082717963781" lon="-4.127935687610354"><ele>253.60000000000002</ele><time>2026-05-02T09:28:02.001Z</time></trkpt><trkpt lat="43.308261818452436" lon="-4.127806118219286"><ele>254.8</ele><time>2026-05-02T09:28:03.001Z</time></trkpt><trkpt lat="43.30826650062601" lon="-4.12768278323998"><ele>256.0</ele><time>2026-05-02T09:28:04.001Z</time></trkpt><trkpt lat="43.30826939004843" lon="-4.127555837417995"><ele>256.0</ele><time>2026-05-02T09:28:05.001Z</time></trkpt><trkpt lat="43.30825329635615" lon="-4.127429800507689"><ele>256.0</ele><time>2026-05-02T09:28:06.001Z</time></trkpt><trkpt lat="43.308192383820256" lon="-4.127331032318569"><ele>256.0</ele><time>2026-05-02T09:28:07.001Z</time></trkpt><trkpt lat="43.30812677468973" lon="-4.1272449813598255"><ele>256.0</ele><time>2026-05-02T09:28:08.001Z</time></trkpt><trkpt lat="43.30806156746621" lon="-4.127163945633552"><ele>256.0</ele><time>2026-05-02T09:28:09.001Z</time></trkpt><trkpt lat="43.307991298304124" lon="-4.127091423899015"><ele>257.3333333333333</ele><time>2026-05-02T09:28:10.001Z</time></trkpt><trkpt lat="43.30791503152349" lon="-4.127037951987258"><ele>258.66666666666663</ele><time>2026-05-02T09:28:11.001Z</time></trkpt><trkpt lat="43.30783745199021" lon="-4.127003918158526"><ele>260.0</ele><time>2026-05-02T09:28:12.001Z</time></trkpt><trkpt lat="43.30775633638901" lon="-4.12698377748736"><ele>261.3333333333333</ele><time>2026-05-02T09:28:13.001Z</time></trkpt><trkpt lat="43.30766887688555" lon="-4.126954602169335"><ele>262.6666666666667</ele><time>2026-05-02T09:28:14.001Z</time></trkpt><trkpt lat="43.307583791336675" lon="-4.1269323737561745"><ele>264.0</ele><time>2026-05-02T09:28:15.001Z</time></trkpt><trkpt lat="43.30749326804523" lon="-4.126889390364992"><ele>264.0</ele><time>2026-05-02T09:28:16.001Z</time></trkpt><trkpt lat="43.30740994913292" lon="-4.126832929337305"><ele>264.0</ele><time>2026-05-02T09:28:17.001Z</time></trkpt><trkpt lat="43.30734380858713" lon="-4.126728857345781"><ele>264.0</ele><time>2026-05-02T09:28:18.001Z</time></trkpt><trkpt lat="43.307312026936856" lon="-4.1266078153140064"><ele>264.0</ele><time>2026-05-02T09:28:19.002Z</time></trkpt><trkpt lat="43.30727481370639" lon="-4.126486693123918"><ele>264.0</ele><time>2026-05-02T09:28:20.002Z</time></trkpt><trkpt lat="43.307258986436274" lon="-4.126370488431892"><ele>265.0</ele><time>2026-05-02T09:28:21.002Z</time></trkpt><trkpt lat="43.30722942105329" lon="-4.126243698515967"><ele>266.0</ele><time>2026-05-02T09:28:22.002Z</time></trkpt><trkpt lat="43.30722808821018" lon="-4.126102795953229"><ele>267.0</ele><time>2026-05-02T09:28:23.002Z</time></trkpt><trkpt lat="43.307240947056926" lon="-4.125968741484929"><ele>268.0</ele><time>2026-05-02T09:28:24.002Z</time></trkpt><trkpt lat="43.30726006918287" lon="-4.125828138664571"><ele>269.0</ele><time>2026-05-02T09:28:25Z</time></trkpt><trkpt lat="43.30729668426744" lon="-4.1256930639003855"><ele>269.4</ele><time>2026-05-02T09:28:26Z</time></trkpt><trkpt lat="43.30731319456595" lon="-4.125561618951996"><ele>269.79999999999995</ele><time>2026-05-02T09:28:27Z</time></trkpt><trkpt lat="43.30733250721511" lon="-4.125433390614941"><ele>270.20000000000005</ele><time>2026-05-02T09:28:28Z</time></trkpt><trkpt lat="43.30735408250908" lon="-4.12530834853456"><ele>270.6</ele><time>2026-05-02T09:28:29Z</time></trkpt><trkpt lat="43.307375875206446" lon="-4.125182540540088"><ele>271.0</ele><time>2026-05-02T09:28:30Z</time></trkpt><trkpt lat="43.30739474218526" lon="-4.125055910211057"><ele>271.0</ele><time>2026-05-02T09:28:31Z</time></trkpt><trkpt lat="43.307408747009575" lon="-4.124927939269112"><ele>271.0</ele><time>2026-05-02T09:28:32Z</time></trkpt><trkpt lat="43.307425841003614" lon="-4.124801182319347"><ele>271.0</ele><time>2026-05-02T09:28:33Z</time></trkpt><trkpt lat="43.30744234387361" lon="-4.12467569028345"><ele>271.0</ele><time>2026-05-02T09:28:34Z</time></trkpt><trkpt lat="43.307458908430895" lon="-4.124551320800574"><ele>271.0</ele><time>2026-05-02T09:28:35Z</time></trkpt><trkpt lat="43.30747287460861" lon="-4.124424622766247"><ele>270.6</ele><time>2026-05-02T09:28:36Z</time></trkpt><trkpt lat="43.307488862237534" lon="-4.124294279712138"><ele>270.20000000000005</ele><time>2026-05-02T09:28:37Z</time></trkpt><trkpt lat="43.30751009796456" lon="-4.12415919022997"><ele>269.79999999999995</ele><time>2026-05-02T09:28:38Z</time></trkpt><trkpt lat="43.30754179755762" lon="-4.124021430256665"><ele>269.4</ele><time>2026-05-02T09:28:39Z</time></trkpt><trkpt lat="43.30757344730871" lon="-4.123873017423545"><ele>269.0</ele><time>2026-05-02T09:28:40Z</time></trkpt><trkpt lat="43.30760026131906" lon="-4.123722487704916"><ele>268.0</ele><time>2026-05-02T09:28:41Z</time></trkpt><trkpt lat="43.30761120773745" lon="-4.1235703404928135"><ele>267.0</ele><time>2026-05-02T09:28:42Z</time></trkpt><trkpt lat="43.30761213908932" lon="-4.1234535071667135"><ele>266.0</ele><time>2026-05-02T09:28:43Z</time></trkpt><trkpt lat="43.307600356666875" lon="-4.123310863087595"><ele>265.0</ele><time>2026-05-02T09:28:44Z</time></trkpt><trkpt lat="43.307585219315705" lon="-4.123166470472734"><ele>264.0</ele><time>2026-05-02T09:28:45Z</time></trkpt><trkpt lat="43.3075667901158" lon="-4.1230249953020595"><ele>263.8</ele><time>2026-05-02T09:28:46Z</time></trkpt><trkpt lat="43.30754588073763" lon="-4.122878388732219"><ele>263.59999999999997</ele><time>2026-05-02T09:28:47Z</time></trkpt><trkpt lat="43.30752437863605" lon="-4.1227357503529465"><ele>263.4</ele><time>2026-05-02T09:28:48Z</time></trkpt><trkpt lat="43.30750160603321" lon="-4.122595290557603"><ele>263.2</ele><time>2026-05-02T09:28:49Z</time></trkpt><trkpt lat="43.30747655198378" lon="-4.122457667754147"><ele>263.0</ele><time>2026-05-02T09:28:50Z</time></trkpt><trkpt lat="43.30744408354727" lon="-4.122321264110947"><ele>263.0</ele><time>2026-05-02T09:28:51Z</time></trkpt><trkpt lat="43.30739948185617" lon="-4.122193602738381"><ele>263.0</ele><time>2026-05-02T09:28:52Z</time></trkpt><trkpt lat="43.30734390819111" lon="-4.122078468724425"><ele>263.0</ele><time>2026-05-02T09:28:53Z</time></trkpt><trkpt lat="43.30728651008672" lon="-4.121968394667329"><ele>263.0</ele><time>2026-05-02T09:28:54Z</time></trkpt><trkpt lat="43.30723513251627" lon="-4.121856263884119"><ele>263.0</ele><time>2026-05-02T09:28:55Z</time></trkpt><trkpt lat="43.3071981707887" lon="-4.12173770693946"><ele>258.8</ele><time>2026-05-02T09:28:56Z</time></trkpt><trkpt lat="43.30716488541787" lon="-4.1216204067028706"><ele>254.60000000000002</ele><time>2026-05-02T09:28:57Z</time></trkpt><trkpt lat="43.30714905129231" lon="-4.121496163250288"><ele>250.39999999999998</ele><time>2026-05-02T09:28:58Z</time></trkpt><trkpt lat="43.307149648581145" lon="-4.1213627422120656"><ele>246.2</ele><time>2026-05-02T09:28:59Z</time></trkpt><trkpt lat="43.307173564874894" lon="-4.121221349514754"><ele>242.0</ele><time>2026-05-02T09:29:00Z</time></trkpt><trkpt lat="43.307192473688424" lon="-4.121073175912297"><ele>242.8</ele><time>2026-05-02T09:29:01Z</time></trkpt><trkpt lat="43.307208989787725" lon="-4.120919061842588"><ele>243.6</ele><time>2026-05-02T09:29:02Z</time></trkpt><trkpt lat="43.30722249357119" lon="-4.120766212970818"><ele>244.40000000000003</ele><time>2026-05-02T09:29:03Z</time></trkpt><trkpt lat="43.3072399522389" lon="-4.120614175734323"><ele>245.20000000000002</ele><time>2026-05-02T09:29:04Z</time></trkpt><trkpt lat="43.30725071516082" lon="-4.120467114666338"><ele>246.0</ele><time>2026-05-02T09:29:05Z</time></trkpt><trkpt lat="43.307268817618805" lon="-4.120332989804167"><ele>246.0</ele><time>2026-05-02T09:29:06Z</time></trkpt><trkpt lat="43.307301119483824" lon="-4.120194305305684"><ele>246.00000000000003</ele><time>2026-05-02T09:29:07Z</time></trkpt><trkpt lat="43.307350133740485" lon="-4.120055323086286"><ele>246.00000000000003</ele><time>2026-05-02T09:29:08Z</time></trkpt><trkpt lat="43.30739989476308" lon="-4.119919235713557"><ele>246.0</ele><time>2026-05-02T09:29:09Z</time></trkpt><trkpt lat="43.30745674501674" lon="-4.119779329234349"><ele>246.0</ele><time>2026-05-02T09:29:10Z</time></trkpt><trkpt lat="43.307521553415704" lon="-4.119648721346495"><ele>244.20000000000002</ele><time>2026-05-02T09:29:11Z</time></trkpt><trkpt lat="43.3075929396184" lon="-4.119530101072627"><ele>242.40000000000003</ele><time>2026-05-02T09:29:12Z</time></trkpt><trkpt lat="43.30767485368047" lon="-4.119423536198377"><ele>240.6</ele><time>2026-05-02T09:29:13Z</time></trkpt><trkpt lat="43.307763399077785" lon="-4.119330430959001"><ele>238.8</ele><time>2026-05-02T09:29:14Z</time></trkpt><trkpt lat="43.30784186065915" lon="-4.119228448693616"><ele>237.0</ele><time>2026-05-02T09:29:15.001Z</time></trkpt><trkpt lat="43.30792161625175" lon="-4.11913004286812"><ele>237.75</ele><time>2026-05-02T09:29:16.001Z</time></trkpt><trkpt lat="43.307992208825986" lon="-4.119005423480398"><ele>238.5</ele><time>2026-05-02T09:29:17.001Z</time></trkpt><trkpt lat="43.308061754779615" lon="-4.11887037843946"><ele>239.25</ele><time>2026-05-02T09:29:18.001Z</time></trkpt><trkpt lat="43.308101724040526" lon="-4.118725910259194"><ele>240.0</ele><time>2026-05-02T09:29:19.001Z</time></trkpt><trkpt lat="43.3081286843773" lon="-4.118573963861739"><ele>240.0</ele><time>2026-05-02T09:29:20.001Z</time></trkpt><trkpt lat="43.308141983170394" lon="-4.118418968744818"><ele>240.0</ele><time>2026-05-02T09:29:21.001Z</time></trkpt><trkpt lat="43.30812273257731" lon="-4.118267285423649"><ele>240.0</ele><time>2026-05-02T09:29:22.001Z</time></trkpt><trkpt lat="43.30810342559754" lon="-4.11812528514313"><ele>240.0</ele><time>2026-05-02T09:29:23.001Z</time></trkpt><trkpt lat="43.30807401634436" lon="-4.117983584937518"><ele>240.0</ele><time>2026-05-02T09:29:24.001Z</time></trkpt><trkpt lat="43.30803689329517" lon="-4.117849241645088"><ele>235.6</ele><time>2026-05-02T09:29:25.001Z</time></trkpt><trkpt lat="43.307989945449215" lon="-4.117719240729077"><ele>231.2</ele><time>2026-05-02T09:29:26.001Z</time></trkpt><trkpt lat="43.30794481339967" lon="-4.117596722878882"><ele>226.8</ele><time>2026-05-02T09:29:27.001Z</time></trkpt><trkpt lat="43.30789904607625" lon="-4.117459128594882"><ele>222.4</ele><time>2026-05-02T09:29:28.001Z</time></trkpt><trkpt lat="43.307858380386136" lon="-4.117314017041003"><ele>218.0</ele><time>2026-05-02T09:29:29.001Z</time></trkpt><trkpt lat="43.30782813427525" lon="-4.117172987288984"><ele>218.0</ele><time>2026-05-02T09:29:30.001Z</time></trkpt><trkpt lat="43.307798445707554" lon="-4.117029430987828"><ele>218.0</ele><time>2026-05-02T09:29:31.001Z</time></trkpt><trkpt lat="43.30778943204047" lon="-4.116875123643295"><ele>218.0</ele><time>2026-05-02T09:29:32.001Z</time></trkpt><trkpt lat="43.30780890406337" lon="-4.116719016413195"><ele>218.0</ele><time>2026-05-02T09:29:33.001Z</time></trkpt><trkpt lat="43.307834887344974" lon="-4.1165675949023735"><ele>217.4</ele><time>2026-05-02T09:29:34.001Z</time></trkpt><trkpt lat="43.30787213785927" lon="-4.11642042397802"><ele>216.8</ele><time>2026-05-02T09:29:35.001Z</time></trkpt><trkpt lat="43.30789121207872" lon="-4.116265116320022"><ele>216.2</ele><time>2026-05-02T09:29:36.001Z</time></trkpt><trkpt lat="43.307897024719104" lon="-4.116125012628699"><ele>215.6</ele><time>2026-05-02T09:29:37.001Z</time></trkpt><trkpt lat="43.30789034572745" lon="-4.1159799364612475"><ele>215.0</ele><time>2026-05-02T09:29:38.001Z</time></trkpt><trkpt lat="43.307884933572886" lon="-4.1158301481588095"><ele>214.6</ele><time>2026-05-02T09:29:39.001Z</time></trkpt><trkpt lat="43.307845541067984" lon="-4.115687549008874"><ele>214.2</ele><time>2026-05-02T09:29:40.001Z</time></trkpt><trkpt lat="43.30780239049726" lon="-4.115548861624674"><ele>213.8</ele><time>2026-05-02T09:29:41.001Z</time></trkpt><trkpt lat="43.307766810998025" lon="-4.115412560504216"><ele>213.4</ele><time>2026-05-02T09:29:42.001Z</time></trkpt><trkpt lat="43.30774039291127" lon="-4.115259476997586"><ele>213.0</ele><time>2026-05-02T09:29:43.001Z</time></trkpt><trkpt lat="43.30773332806994" lon="-4.115098663941421"><ele>213.0</ele><time>2026-05-02T09:29:44.001Z</time></trkpt><trkpt lat="43.30771447759627" lon="-4.114944383390158"><ele>213.0</ele><time>2026-05-02T09:29:45.001Z</time></trkpt><trkpt lat="43.30770759969693" lon="-4.114795988540376"><ele>213.0</ele><time>2026-05-02T09:29:46.001Z</time></trkpt><trkpt lat="43.30770725898385" lon="-4.11464275235584"><ele>213.0</ele><time>2026-05-02T09:29:47.001Z</time></trkpt><trkpt lat="43.30771055666952" lon="-4.114485249092294"><ele>213.0</ele><time>2026-05-02T09:29:48.001Z</time></trkpt><trkpt lat="43.30771606301282" lon="-4.114328317853866"><ele>211.25</ele><time>2026-05-02T09:29:49.001Z</time></trkpt><trkpt lat="43.307725010364315" lon="-4.114173474604376"><ele>209.5</ele><time>2026-05-02T09:29:50.001Z</time></trkpt><trkpt lat="43.30773658336932" lon="-4.114021021518976"><ele>207.75</ele><time>2026-05-02T09:29:51.001Z</time></trkpt><trkpt lat="43.307762989752135" lon="-4.113872355601374"><ele>206.0</ele><time>2026-05-02T09:29:52.001Z</time></trkpt><trkpt lat="43.307778534646715" lon="-4.113716638286556"><ele>203.5</ele><time>2026-05-02T09:29:53.001Z</time></trkpt><trkpt lat="43.307804601875944" lon="-4.1135636436555325"><ele>201.0</ele><time>2026-05-02T09:29:54.001Z</time></trkpt><trkpt lat="43.307839581800884" lon="-4.113413854742577"><ele>198.5</ele><time>2026-05-02T09:29:55.001Z</time></trkpt><trkpt lat="43.307882146278935" lon="-4.113267031590572"><ele>196.0</ele><time>2026-05-02T09:29:56.001Z</time></trkpt><trkpt lat="43.30791677866073" lon="-4.113117026191509"><ele>196.4</ele><time>2026-05-02T09:29:57.001Z</time></trkpt><trkpt lat="43.30795181748645" lon="-4.112969945367561"><ele>196.8</ele><time>2026-05-02T09:29:58.001Z</time></trkpt><trkpt lat="43.307978597990704" lon="-4.112824498923316"><ele>197.20000000000002</ele><time>2026-05-02T09:29:59.001Z</time></trkpt><trkpt lat="43.30800859530154" lon="-4.1126752021685125"><ele>197.60000000000002</ele><time>2026-05-02T09:30:00.001Z</time></trkpt><trkpt lat="43.308047161727764" lon="-4.1125437580938815"><ele>198.0</ele><time>2026-05-02T09:30:01.001Z</time></trkpt><trkpt lat="43.308103546046354" lon="-4.112401303756446"><ele>198.0</ele><time>2026-05-02T09:30:02.001Z</time></trkpt><trkpt lat="43.30816235241532" lon="-4.112267948429273"><ele>198.0</ele><time>2026-05-02T09:30:03.001Z</time></trkpt><trkpt lat="43.30822915954524" lon="-4.1121410287794955"><ele>198.0</ele><time>2026-05-02T09:30:04.001Z</time></trkpt><trkpt lat="43.308297147359866" lon="-4.112022092263695"><ele>198.0</ele><time>2026-05-02T09:30:05.001Z</time></trkpt><trkpt lat="43.308365596188025" lon="-4.111905080535439"><ele>198.0</ele><time>2026-05-02T09:30:06.001Z</time></trkpt><trkpt lat="43.30843739326559" lon="-4.11178146030973"><ele>198.0</ele><time>2026-05-02T09:30:07.001Z</time></trkpt><trkpt lat="43.30850184086575" lon="-4.11165265595493"><ele>198.0</ele><time>2026-05-02T09:30:08.001Z</time></trkpt><trkpt lat="43.30852998750729" lon="-4.111519182760351"><ele>198.0</ele><time>2026-05-02T09:30:09.001Z</time></trkpt><trkpt lat="43.308560656150455" lon="-4.1113788116522745"><ele>198.0</ele><time>2026-05-02T09:30:10.001Z</time></trkpt><trkpt lat="43.30856068180562" lon="-4.111238054992241"><ele>198.0</ele><time>2026-05-02T09:30:11.001Z</time></trkpt><trkpt lat="43.308521916814286" lon="-4.111114398467194"><ele>198.0</ele><time>2026-05-02T09:30:12.001Z</time></trkpt><trkpt lat="43.308464662862534" lon="-4.111015141738653"><ele>198.0</ele><time>2026-05-02T09:30:13.001Z</time></trkpt><trkpt lat="43.30839477127635" lon="-4.110957601363748"><ele>198.0</ele><time>2026-05-02T09:30:14.001Z</time></trkpt><trkpt lat="43.30831738933736" lon="-4.110875612984529"><ele>198.0</ele><time>2026-05-02T09:30:15.001Z</time></trkpt><trkpt lat="43.3082537440063" lon="-4.110774737809179"><ele>198.0</ele><time>2026-05-02T09:30:16.001Z</time></trkpt><trkpt lat="43.308195619765996" lon="-4.110671094714477"><ele>197.4</ele><time>2026-05-02T09:30:17.001Z</time></trkpt><trkpt lat="43.30816145430615" lon="-4.110543411786077"><ele>196.8</ele><time>2026-05-02T09:30:18.001Z</time></trkpt><trkpt lat="43.30814663584428" lon="-4.1103998340227"><ele>196.2</ele><time>2026-05-02T09:30:19.001Z</time></trkpt><trkpt lat="43.30815211535881" lon="-4.110249449389078"><ele>195.6</ele><time>2026-05-02T09:30:20.001Z</time></trkpt><trkpt lat="43.30817216225841" lon="-4.110099337161139"><ele>195.0</ele><time>2026-05-02T09:30:21.001Z</time></trkpt><trkpt lat="43.308167244906315" lon="-4.109944512000463"><ele>194.6</ele><time>2026-05-02T09:30:22.001Z</time></trkpt><trkpt lat="43.308178182742914" lon="-4.109783446168047"><ele>194.2</ele><time>2026-05-02T09:30:23.001Z</time></trkpt><trkpt lat="43.30818735581157" lon="-4.109631913001046"><ele>193.8</ele><time>2026-05-02T09:30:24.001Z</time></trkpt><trkpt lat="43.3082075965421" lon="-4.109482994609563"><ele>193.4</ele><time>2026-05-02T09:30:25.001Z</time></trkpt><trkpt lat="43.3081884286684" lon="-4.1093504433365755"><ele>193.0</ele><time>2026-05-02T09:30:26.001Z</time></trkpt><trkpt lat="43.308174347832775" lon="-4.109202550619187"><ele>193.4</ele><time>2026-05-02T09:30:27.001Z</time></trkpt><trkpt lat="43.30816060397949" lon="-4.109061363564647"><ele>193.8</ele><time>2026-05-02T09:30:28.001Z</time></trkpt><trkpt lat="43.30816209803137" lon="-4.108918412940609"><ele>194.2</ele><time>2026-05-02T09:30:29.001Z</time></trkpt><trkpt lat="43.30814328730352" lon="-4.108779769223455"><ele>194.6</ele><time>2026-05-02T09:30:30.001Z</time></trkpt><trkpt lat="43.30812968474542" lon="-4.108643159521709"><ele>195.0</ele><time>2026-05-02T09:30:31Z</time></trkpt><trkpt lat="43.308119833675846" lon="-4.1084979192663615"><ele>195.0</ele><time>2026-05-02T09:30:32Z</time></trkpt><trkpt lat="43.30810460704002" lon="-4.1083523385835345"><ele>195.0</ele><time>2026-05-02T09:30:33Z</time></trkpt><trkpt lat="43.30808658768816" lon="-4.108210021870033"><ele>195.0</ele><time>2026-05-02T09:30:34Z</time></trkpt><trkpt lat="43.308075818270105" lon="-4.108067663530731"><ele>195.0</ele><time>2026-05-02T09:30:35Z</time></trkpt><trkpt lat="43.30807314453726" lon="-4.107922455684112"><ele>195.0</ele><time>2026-05-02T09:30:36Z</time></trkpt><trkpt lat="43.30808558567066" lon="-4.1077749536127675"><ele>194.8</ele><time>2026-05-02T09:30:37Z</time></trkpt><trkpt lat="43.30809851908019" lon="-4.107629080352351"><ele>194.6</ele><time>2026-05-02T09:30:38Z</time></trkpt><trkpt lat="43.3081105212997" lon="-4.107484478180189"><ele>194.39999999999998</ele><time>2026-05-02T09:30:39Z</time></trkpt><trkpt lat="43.30812002404251" lon="-4.10733395679926"><ele>194.2</ele><time>2026-05-02T09:30:40Z</time></trkpt><trkpt lat="43.30812500770589" lon="-4.107197053324241"><ele>194.0</ele><time>2026-05-02T09:30:41Z</time></trkpt><trkpt lat="43.30813036944272" lon="-4.107059883194457"><ele>192.79999999999998</ele><time>2026-05-02T09:30:42Z</time></trkpt><trkpt lat="43.30813628091584" lon="-4.106921359081945"><ele>191.6</ele><time>2026-05-02T09:30:43Z</time></trkpt><trkpt lat="43.30814829842999" lon="-4.106782126764058"><ele>190.4</ele><time>2026-05-02T09:30:44Z</time></trkpt><trkpt lat="43.30816818752963" lon="-4.10664661976516"><ele>189.2</ele><time>2026-05-02T09:30:45Z</time></trkpt><trkpt lat="43.308180492174195" lon="-4.1065109616790645"><ele>188.0</ele><time>2026-05-02T09:30:46Z</time></trkpt><trkpt lat="43.30818729097051" lon="-4.106369585915403"><ele>187.0</ele><time>2026-05-02T09:30:47Z</time></trkpt><trkpt lat="43.308193842801295" lon="-4.106227159341205"><ele>186.0</ele><time>2026-05-02T09:30:48Z</time></trkpt><trkpt lat="43.30818940562956" lon="-4.106091764962297"><ele>185.0</ele><time>2026-05-02T09:30:49Z</time></trkpt><trkpt lat="43.30818869236033" lon="-4.105957399670821"><ele>184.0</ele><time>2026-05-02T09:30:50Z</time></trkpt><trkpt lat="43.30817511173889" lon="-4.1058301627252005"><ele>183.0</ele><time>2026-05-02T09:30:51Z</time></trkpt><trkpt lat="43.308153415156035" lon="-4.105703706809344"><ele>182.83333333333334</ele><time>2026-05-02T09:30:52Z</time></trkpt><trkpt lat="43.308124628468136" lon="-4.105587541763644"><ele>182.66666666666666</ele><time>2026-05-02T09:30:53Z</time></trkpt><trkpt lat="43.30809903550942" lon="-4.105471788434281"><ele>182.5</ele><time>2026-05-02T09:30:54Z</time></trkpt><trkpt lat="43.30807818223594" lon="-4.105352666975698"><ele>182.33333333333331</ele><time>2026-05-02T09:30:55Z</time></trkpt><trkpt lat="43.30806932486831" lon="-4.105231113969386"><ele>182.16666666666666</ele><time>2026-05-02T09:30:56Z</time></trkpt><trkpt lat="43.30806887618227" lon="-4.105106558644917"><ele>182.0</ele><time>2026-05-02T09:30:57Z</time></trkpt><trkpt lat="43.308067647497644" lon="-4.104980119205017"><ele>176.79999999999998</ele><time>2026-05-02T09:30:58Z</time></trkpt><trkpt lat="43.30806396240361" lon="-4.1048516663206485"><ele>171.6</ele><time>2026-05-02T09:30:59Z</time></trkpt><trkpt lat="43.30805782444331" lon="-4.104726158511305"><ele>166.39999999999998</ele><time>2026-05-02T09:31:00Z</time></trkpt><trkpt lat="43.30804997405942" lon="-4.104600505226562"><ele>161.2</ele><time>2026-05-02T09:31:01Z</time></trkpt><trkpt lat="43.30804023705632" lon="-4.104474790362526"><ele>156.0</ele><time>2026-05-02T09:31:02Z</time></trkpt><trkpt lat="43.308036433044784" lon="-4.10435090219485"><ele>156.0</ele><time>2026-05-02T09:31:03Z</time></trkpt><trkpt lat="43.30803321765244" lon="-4.1042279717394745"><ele>156.0</ele><time>2026-05-02T09:31:04Z</time></trkpt><trkpt lat="43.30802146767309" lon="-4.104110070340335"><ele>156.0</ele><time>2026-05-02T09:31:05Z</time></trkpt><trkpt lat="43.308009471988036" lon="-4.10399045466126"><ele>156.0</ele><time>2026-05-02T09:31:06Z</time></trkpt><trkpt lat="43.30799110761368" lon="-4.103865708655026"><ele>156.0</ele><time>2026-05-02T09:31:07Z</time></trkpt><trkpt lat="43.30795372660162" lon="-4.103750863754692"><ele>156.0</ele><time>2026-05-02T09:31:08Z</time></trkpt><trkpt lat="43.30790803924443" lon="-4.103644189944517"><ele>156.6</ele><time>2026-05-02T09:31:09Z</time></trkpt><trkpt lat="43.30786480493467" lon="-4.1035392301164695"><ele>157.2</ele><time>2026-05-02T09:31:10Z</time></trkpt><trkpt lat="43.30781824213835" lon="-4.103435678282868"><ele>157.8</ele><time>2026-05-02T09:31:11Z</time></trkpt><trkpt lat="43.307772058912356" lon="-4.103329307486567"><ele>158.4</ele><time>2026-05-02T09:31:12Z</time></trkpt><trkpt lat="43.30772684584567" lon="-4.103219304038273"><ele>159.0</ele><time>2026-05-02T09:31:13Z</time></trkpt><trkpt lat="43.30768236875949" lon="-4.103102277288805"><ele>160.2</ele><time>2026-05-02T09:31:14Z</time></trkpt><trkpt lat="43.30763746053124" lon="-4.102983322266695"><ele>161.4</ele><time>2026-05-02T09:31:15Z</time></trkpt><trkpt lat="43.30758642336437" lon="-4.102865880554553"><ele>162.6</ele><time>2026-05-02T09:31:16Z</time></trkpt><trkpt lat="43.30753509826802" lon="-4.102753748330985"><ele>163.8</ele><time>2026-05-02T09:31:17Z</time></trkpt><trkpt lat="43.307487335875074" lon="-4.1026395414981955"><ele>165.0</ele><time>2026-05-02T09:31:18Z</time></trkpt><trkpt lat="43.307440797506224" lon="-4.102530257155187"><ele>166.2</ele><time>2026-05-02T09:31:19Z</time></trkpt><trkpt lat="43.30739761582289" lon="-4.10241424227896"><ele>167.4</ele><time>2026-05-02T09:31:20Z</time></trkpt><trkpt lat="43.307348280345515" lon="-4.102303432655818"><ele>168.60000000000002</ele><time>2026-05-02T09:31:21Z</time></trkpt><trkpt lat="43.30729998910004" lon="-4.102189382363698"><ele>169.8</ele><time>2026-05-02T09:31:22Z</time></trkpt><trkpt lat="43.307256357676565" lon="-4.102079196966475"><ele>171.0</ele><time>2026-05-02T09:31:23Z</time></trkpt><trkpt lat="43.3072182438539" lon="-4.101972827455158"><ele>167.0</ele><time>2026-05-02T09:31:24.001Z</time></trkpt><trkpt lat="43.307189295020635" lon="-4.101860768276667"><ele>163.0</ele><time>2026-05-02T09:31:25.001Z</time></trkpt><trkpt lat="43.307166046668925" lon="-4.101742842913042"><ele>159.0</ele><time>2026-05-02T09:31:26.001Z</time></trkpt><trkpt lat="43.30714826578174" lon="-4.101622470528354"><ele>155.0</ele><time>2026-05-02T09:31:27.001Z</time></trkpt><trkpt lat="43.30713145351551" lon="-4.101499402563933"><ele>151.0</ele><time>2026-05-02T09:31:28.001Z</time></trkpt><trkpt lat="43.30711555200464" lon="-4.10137994743928"><ele>147.0</ele><time>2026-05-02T09:31:29.001Z</time></trkpt><trkpt lat="43.30709948949578" lon="-4.101260425598914"><ele>147.0</ele><time>2026-05-02T09:31:30.001Z</time></trkpt><trkpt lat="43.30708358635101" lon="-4.101141372251655"><ele>147.0</ele><time>2026-05-02T09:31:31.001Z</time></trkpt><trkpt lat="43.30707156188451" lon="-4.101021976269956"><ele>147.0</ele><time>2026-05-02T09:31:32.001Z</time></trkpt><trkpt lat="43.307056601219266" lon="-4.1009027493502135"><ele>147.0</ele><time>2026-05-02T09:31:33.001Z</time></trkpt><trkpt lat="43.307039845483466" lon="-4.100778417910276"><ele>147.0</ele><time>2026-05-02T09:31:34.001Z</time></trkpt><trkpt lat="43.30702139624609" lon="-4.100654312900326"><ele>147.0</ele><time>2026-05-02T09:31:35.001Z</time></trkpt><trkpt lat="43.30700097621007" lon="-4.100531068271733"><ele>146.6</ele><time>2026-05-02T09:31:36.001Z</time></trkpt><trkpt lat="43.30698000979773" lon="-4.100412828778877"><ele>146.2</ele><time>2026-05-02T09:31:37.001Z</time></trkpt><trkpt lat="43.30695614959985" lon="-4.100295864526973"><ele>145.8</ele><time>2026-05-02T09:31:38.001Z</time></trkpt><trkpt lat="43.30693498300725" lon="-4.100176877804287"><ele>145.4</ele><time>2026-05-02T09:31:39.001Z</time></trkpt><trkpt lat="43.30693519708979" lon="-4.100047507487153"><ele>145.0</ele><time>2026-05-02T09:31:40.001Z</time></trkpt><trkpt lat="43.3069443161206" lon="-4.099921464662373"><ele>144.4</ele><time>2026-05-02T09:31:41.001Z</time></trkpt><trkpt lat="43.306965997565015" lon="-4.099793116552606"><ele>143.8</ele><time>2026-05-02T09:31:42.001Z</time></trkpt><trkpt lat="43.30699367321202" lon="-4.099667194152462"><ele>143.2</ele><time>2026-05-02T09:31:43.001Z</time></trkpt><trkpt lat="43.30701887947014" lon="-4.099541241000274"><ele>142.6</ele><time>2026-05-02T09:31:44.001Z</time></trkpt><trkpt lat="43.30704857022307" lon="-4.099416163612205"><ele>142.0</ele><time>2026-05-02T09:31:45.001Z</time></trkpt><trkpt lat="43.30706957197268" lon="-4.099278787927936"><ele>142.0</ele><time>2026-05-02T09:31:46.001Z</time></trkpt><trkpt lat="43.30707501568635" lon="-4.099139914785274"><ele>142.0</ele><time>2026-05-02T09:31:47.001Z</time></trkpt><trkpt lat="43.30707092372616" lon="-4.099004646446488"><ele>142.0</ele><time>2026-05-02T09:31:48.001Z</time></trkpt><trkpt lat="43.307071395462664" lon="-4.098864714196899"><ele>142.0</ele><time>2026-05-02T09:31:49.001Z</time></trkpt><trkpt lat="43.30707689508639" lon="-4.098729505193739"><ele>142.0</ele><time>2026-05-02T09:31:50.001Z</time></trkpt><trkpt lat="43.307084711352424" lon="-4.098595254496359"><ele>141.2</ele><time>2026-05-02T09:31:51.001Z</time></trkpt><trkpt lat="43.3070920507035" lon="-4.098459138821216"><ele>140.39999999999998</ele><time>2026-05-02T09:31:52.001Z</time></trkpt><trkpt lat="43.3070953725991" lon="-4.09832715771554"><ele>139.60000000000002</ele><time>2026-05-02T09:31:53.001Z</time></trkpt><trkpt lat="43.30709271743966" lon="-4.098192370151187"><ele>138.8</ele><time>2026-05-02T09:31:54.001Z</time></trkpt><trkpt lat="43.30708693506827" lon="-4.098062145499995"><ele>138.0</ele><time>2026-05-02T09:31:55.001Z</time></trkpt><trkpt lat="43.307077676342715" lon="-4.097926285098371"><ele>136.6</ele><time>2026-05-02T09:31:56.001Z</time></trkpt><trkpt lat="43.30706648584149" lon="-4.0977915677983985"><ele>135.20000000000002</ele><time>2026-05-02T09:31:57.001Z</time></trkpt><trkpt lat="43.307055222461564" lon="-4.097657523940941"><ele>133.8</ele><time>2026-05-02T09:31:58.001Z</time></trkpt><trkpt lat="43.307043200888664" lon="-4.097520556942838"><ele>132.4</ele><time>2026-05-02T09:31:59.001Z</time></trkpt><trkpt lat="43.307026840396354" lon="-4.097391626111942"><ele>131.0</ele><time>2026-05-02T09:32:00.001Z</time></trkpt><trkpt lat="43.30701765174143" lon="-4.097263962581071"><ele>130.8</ele><time>2026-05-02T09:32:01.001Z</time></trkpt><trkpt lat="43.30701861415238" lon="-4.0971467633367356"><ele>130.6</ele><time>2026-05-02T09:32:02.001Z</time></trkpt><trkpt lat="43.30704119279494" lon="-4.097022372562657"><ele>130.4</ele><time>2026-05-02T09:32:03.001Z</time></trkpt><trkpt lat="43.307072461416226" lon="-4.096906983804876"><ele>130.2</ele><time>2026-05-02T09:32:04.001Z</time></trkpt><trkpt lat="43.30711637530688" lon="-4.096798322533943"><ele>130.0</ele><time>2026-05-02T09:32:05.001Z</time></trkpt><trkpt lat="43.30717267591992" lon="-4.096699405414451"><ele>130.0</ele><time>2026-05-02T09:32:06.001Z</time></trkpt><trkpt lat="43.30723842631294" lon="-4.096617721077009"><ele>130.0</ele><time>2026-05-02T09:32:07.001Z</time></trkpt><trkpt lat="43.30730603059142" lon="-4.096536664435684"><ele>130.0</ele><time>2026-05-02T09:32:08.001Z</time></trkpt><trkpt lat="43.307368598186244" lon="-4.0964452023030145"><ele>130.0</ele><time>2026-05-02T09:32:09.001Z</time></trkpt><trkpt lat="43.30743730598495" lon="-4.096360655172261"><ele>130.0</ele><time>2026-05-02T09:32:10.001Z</time></trkpt><trkpt lat="43.30750286238372" lon="-4.096262785552861"><ele>130.8</ele><time>2026-05-02T09:32:11.001Z</time></trkpt><trkpt lat="43.307570526379166" lon="-4.09617787323826"><ele>131.6</ele><time>2026-05-02T09:32:12.001Z</time></trkpt><trkpt lat="43.307626534264024" lon="-4.096073176915011"><ele>132.4</ele><time>2026-05-02T09:32:13.001Z</time></trkpt><trkpt lat="43.30768345584366" lon="-4.095968977401297"><ele>133.2</ele><time>2026-05-02T09:32:14.001Z</time></trkpt><trkpt lat="43.307715316890466" lon="-4.095844413036121"><ele>134.0</ele><time>2026-05-02T09:32:15.001Z</time></trkpt><trkpt lat="43.307752845729915" lon="-4.095729812541513"><ele>132.4</ele><time>2026-05-02T09:32:16.001Z</time></trkpt><trkpt lat="43.307793786233226" lon="-4.095617280106629"><ele>130.8</ele><time>2026-05-02T09:32:17.001Z</time></trkpt><trkpt lat="43.30785058707582" lon="-4.095515672512875"><ele>129.2</ele><time>2026-05-02T09:32:18.001Z</time></trkpt><trkpt lat="43.30791103724588" lon="-4.0954240302848905"><ele>127.6</ele><time>2026-05-02T09:32:19.001Z</time></trkpt><trkpt lat="43.3079653895848" lon="-4.095319044774297"><ele>126.0</ele><time>2026-05-02T09:32:20.001Z</time></trkpt><trkpt lat="43.30802766400198" lon="-4.095221087657876"><ele>127.19999999999999</ele><time>2026-05-02T09:32:21.001Z</time></trkpt><trkpt lat="43.30808025817637" lon="-4.095108362558957"><ele>128.39999999999998</ele><time>2026-05-02T09:32:22.001Z</time></trkpt><trkpt lat="43.30814065650397" lon="-4.095001479483196"><ele>129.6</ele><time>2026-05-02T09:32:23.001Z</time></trkpt><trkpt lat="43.30818578648873" lon="-4.094883050576769"><ele>130.79999999999998</ele><time>2026-05-02T09:32:24.001Z</time></trkpt><trkpt lat="43.30823668560943" lon="-4.094771180021086"><ele>132.0</ele><time>2026-05-02T09:32:25.001Z</time></trkpt><trkpt lat="43.30826644585289" lon="-4.094653454203195"><ele>132.0</ele><time>2026-05-02T09:32:26.001Z</time></trkpt><trkpt lat="43.30829721628088" lon="-4.094533734786211"><ele>132.0</ele><time>2026-05-02T09:32:27.001Z</time></trkpt><trkpt lat="43.30832083036357" lon="-4.094409787764128"><ele>132.0</ele><time>2026-05-02T09:32:28.001Z</time></trkpt><trkpt lat="43.308342293448206" lon="-4.0942853100518715"><ele>132.0</ele><time>2026-05-02T09:32:29.001Z</time></trkpt><trkpt lat="43.308354191746965" lon="-4.094152009026259"><ele>132.0</ele><time>2026-05-02T09:32:30.001Z</time></trkpt><trkpt lat="43.308361551802925" lon="-4.09401891785784"><ele>131.0</ele><time>2026-05-02T09:32:31.001Z</time></trkpt><trkpt lat="43.30836298337606" lon="-4.093881410543225"><ele>130.0</ele><time>2026-05-02T09:32:32.001Z</time></trkpt><trkpt lat="43.30837486426004" lon="-4.093750858504084"><ele>129.0</ele><time>2026-05-02T09:32:33.001Z</time></trkpt><trkpt lat="43.30836446551683" lon="-4.093620075947359"><ele>128.0</ele><time>2026-05-02T09:32:34.001Z</time></trkpt><trkpt lat="43.308358016401094" lon="-4.0934838947042795"><ele>127.0</ele><time>2026-05-02T09:32:35.001Z</time></trkpt><trkpt lat="43.30834855093408" lon="-4.093344249649515"><ele>124.6</ele><time>2026-05-02T09:32:36.001Z</time></trkpt><trkpt lat="43.30835171293458" lon="-4.093205538361587"><ele>122.19999999999999</ele><time>2026-05-02T09:32:37Z</time></trkpt><trkpt lat="43.308376885351166" lon="-4.093070911270892"><ele>119.8</ele><time>2026-05-02T09:32:38Z</time></trkpt><trkpt lat="43.30840374166221" lon="-4.092938954022004"><ele>117.4</ele><time>2026-05-02T09:32:39Z</time></trkpt><trkpt lat="43.30844459817042" lon="-4.092801842829622"><ele>115.0</ele><time>2026-05-02T09:32:40Z</time></trkpt><trkpt lat="43.30848411873407" lon="-4.092676230767898"><ele>115.0</ele><time>2026-05-02T09:32:41Z</time></trkpt><trkpt lat="43.30852862291339" lon="-4.092551513172269"><ele>115.0</ele><time>2026-05-02T09:32:42Z</time></trkpt><trkpt lat="43.30857759890661" lon="-4.092433185238975"><ele>115.0</ele><time>2026-05-02T09:32:43Z</time></trkpt><trkpt lat="43.30863190711858" lon="-4.092311702512294"><ele>115.0</ele><time>2026-05-02T09:32:44Z</time></trkpt><trkpt lat="43.308684794040396" lon="-4.092188517014124"><ele>115.0</ele><time>2026-05-02T09:32:45Z</time></trkpt><trkpt lat="43.30873431128913" lon="-4.092069074424292"><ele>114.2</ele><time>2026-05-02T09:32:46Z</time></trkpt><trkpt lat="43.30878710257777" lon="-4.091947933706391"><ele>113.4</ele><time>2026-05-02T09:32:47Z</time></trkpt><trkpt lat="43.30884166721749" lon="-4.091829280912222"><ele>112.6</ele><time>2026-05-02T09:32:48Z</time></trkpt><trkpt lat="43.308895728759055" lon="-4.091709960510295"><ele>111.8</ele><time>2026-05-02T09:32:49Z</time></trkpt><trkpt lat="43.30894749098384" lon="-4.0915895204272985"><ele>111.0</ele><time>2026-05-02T09:32:50Z</time></trkpt><trkpt lat="43.30900066066417" lon="-4.091473454864442"><ele>111.0</ele><time>2026-05-02T09:32:51Z</time></trkpt><trkpt lat="43.309049156669545" lon="-4.091353662784579"><ele>111.0</ele><time>2026-05-02T09:32:52Z</time></trkpt><trkpt lat="43.30910110244085" lon="-4.09123451630349"><ele>111.0</ele><time>2026-05-02T09:32:53Z</time></trkpt><trkpt lat="43.30915337417653" lon="-4.091115322254238"><ele>111.0</ele><time>2026-05-02T09:32:54Z</time></trkpt><trkpt lat="43.30920772440091" lon="-4.091001522929033"><ele>111.0</ele><time>2026-05-02T09:32:55Z</time></trkpt><trkpt lat="43.30926082182107" lon="-4.090885389961846"><ele>111.0</ele><time>2026-05-02T09:32:56Z</time></trkpt><trkpt lat="43.309306731262815" lon="-4.09076459364234"><ele>111.0</ele><time>2026-05-02T09:32:57Z</time></trkpt><trkpt lat="43.309324623010426" lon="-4.090633315176225"><ele>111.0</ele><time>2026-05-02T09:32:58Z</time></trkpt><trkpt lat="43.30931871101509" lon="-4.090490896724804"><ele>111.0</ele><time>2026-05-02T09:32:59Z</time></trkpt><trkpt lat="43.30930443690366" lon="-4.090350155909112"><ele>111.0</ele><time>2026-05-02T09:33:00Z</time></trkpt><trkpt lat="43.30928188685979" lon="-4.090228646198195"><ele>111.4</ele><time>2026-05-02T09:33:01Z</time></trkpt><trkpt lat="43.309265583774426" lon="-4.090089207672698"><ele>111.8</ele><time>2026-05-02T09:33:02Z</time></trkpt><trkpt lat="43.309249832421315" lon="-4.089953213168734"><ele>112.20000000000002</ele><time>2026-05-02T09:33:03Z</time></trkpt><trkpt lat="43.30923457922677" lon="-4.089813201453868"><ele>112.60000000000001</ele><time>2026-05-02T09:33:04Z</time></trkpt><trkpt lat="43.30921622803689" lon="-4.089674023368865"><ele>113.0</ele><time>2026-05-02T09:33:05Z</time></trkpt><trkpt lat="43.30919594752694" lon="-4.089530762143176"><ele>113.2</ele><time>2026-05-02T09:33:06Z</time></trkpt><trkpt lat="43.30917703546061" lon="-4.089389576618078"><ele>113.4</ele><time>2026-05-02T09:33:07Z</time></trkpt><trkpt lat="43.30915885101383" lon="-4.089249409409112"><ele>113.60000000000001</ele><time>2026-05-02T09:33:08Z</time></trkpt><trkpt lat="43.30914223116586" lon="-4.089107866923171"><ele>113.80000000000001</ele><time>2026-05-02T09:33:09Z</time></trkpt><trkpt lat="43.3091249670328" lon="-4.088964308809334"><ele>114.0</ele><time>2026-05-02T09:33:10Z</time></trkpt><trkpt lat="43.309101678678296" lon="-4.0888224203177455"><ele>115.2</ele><time>2026-05-02T09:33:11Z</time></trkpt><trkpt lat="43.309073912782885" lon="-4.088683166715162"><ele>116.4</ele><time>2026-05-02T09:33:12Z</time></trkpt><trkpt lat="43.3090360401887" lon="-4.088547888760516"><ele>117.6</ele><time>2026-05-02T09:33:13Z</time></trkpt><trkpt lat="43.30899302311548" lon="-4.088418940309453"><ele>118.8</ele><time>2026-05-02T09:33:14Z</time></trkpt><trkpt lat="43.30894599920068" lon="-4.08829183646365"><ele>120.0</ele><time>2026-05-02T09:33:15Z</time></trkpt><trkpt lat="43.308900366074646" lon="-4.08816269005222"><ele>116.0</ele><time>2026-05-02T09:33:16Z</time></trkpt><trkpt lat="43.30885630872282" lon="-4.088026959361151"><ele>112.0</ele><time>2026-05-02T09:33:17Z</time></trkpt><trkpt lat="43.30881471179705" lon="-4.0879032101775765"><ele>108.0</ele><time>2026-05-02T09:33:18Z</time></trkpt><trkpt lat="43.30877117347132" lon="-4.087766613477904"><ele>104.0</ele><time>2026-05-02T09:33:19Z</time></trkpt><trkpt lat="43.308742288832185" lon="-4.087585129320257"><ele>104.25</ele><time>2026-05-02T09:33:20Z</time></trkpt><trkpt lat="43.308655466014606" lon="-4.087336276797174"><ele>104.5</ele><time>2026-05-02T09:33:21Z</time></trkpt><trkpt lat="43.30872298638488" lon="-4.087331446280252"><ele>104.75</ele><time>2026-05-02T09:33:22Z</time></trkpt><trkpt lat="43.30871012046321" lon="-4.087184255175814"><ele>105.0</ele><time>2026-05-02T09:33:23Z</time></trkpt><trkpt lat="43.30869526297938" lon="-4.087038012824385"><ele>105.0</ele><time>2026-05-02T09:33:24Z</time></trkpt><trkpt lat="43.308662868325364" lon="-4.0868959454632305"><ele>105.0</ele><time>2026-05-02T09:33:25Z</time></trkpt><trkpt lat="43.30862526178533" lon="-4.086756342824261"><ele>105.0</ele><time>2026-05-02T09:33:26Z</time></trkpt><trkpt lat="43.30859707978989" lon="-4.0866132019962516"><ele>105.0</ele><time>2026-05-02T09:33:27Z</time></trkpt><trkpt lat="43.308565846887625" lon="-4.08647564078989"><ele>105.0</ele><time>2026-05-02T09:33:28Z</time></trkpt><trkpt lat="43.30853526612284" lon="-4.086340159612432"><ele>106.0</ele><time>2026-05-02T09:33:29Z</time></trkpt><trkpt lat="43.308512748237575" lon="-4.086204319045637"><ele>107.0</ele><time>2026-05-02T09:33:30Z</time></trkpt><trkpt lat="43.308502963211275" lon="-4.086067934739202"><ele>108.0</ele><time>2026-05-02T09:33:31Z</time></trkpt><trkpt lat="43.30849256895857" lon="-4.08593152945001"><ele>109.0</ele><time>2026-05-02T09:33:32Z</time></trkpt><trkpt lat="43.3084836832972" lon="-4.085795781321449"><ele>110.0</ele><time>2026-05-02T09:33:33Z</time></trkpt><trkpt lat="43.308473179481034" lon="-4.085660524840538"><ele>112.2</ele><time>2026-05-02T09:33:34Z</time></trkpt><trkpt lat="43.30846713479636" lon="-4.085526855384687"><ele>114.4</ele><time>2026-05-02T09:33:35Z</time></trkpt><trkpt lat="43.30846202123133" lon="-4.0853937544683046"><ele>116.6</ele><time>2026-05-02T09:33:36Z</time></trkpt><trkpt lat="43.30845855458693" lon="-4.085261237347465"><ele>118.8</ele><time>2026-05-02T09:33:37Z</time></trkpt><trkpt lat="43.30846003722511" lon="-4.085126539613169"><ele>121.0</ele><time>2026-05-02T09:33:38Z</time></trkpt><trkpt lat="43.308460473285926" lon="-4.084997077225699"><ele>122.0</ele><time>2026-05-02T09:33:39.001Z</time></trkpt><trkpt lat="43.30846385856264" lon="-4.084859213625737"><ele>123.0</ele><time>2026-05-02T09:33:40.001Z</time></trkpt><trkpt lat="43.30846351180912" lon="-4.084723825553472"><ele>124.0</ele><time>2026-05-02T09:33:41.001Z</time></trkpt><trkpt lat="43.308430797253415" lon="-4.084592778909"><ele>125.0</ele><time>2026-05-02T09:33:42.001Z</time></trkpt><trkpt lat="43.30839908323441" lon="-4.084461067711677"><ele>126.0</ele><time>2026-05-02T09:33:43.001Z</time></trkpt><trkpt lat="43.308357348891526" lon="-4.084334277230466"><ele>126.0</ele><time>2026-05-02T09:33:44.001Z</time></trkpt><trkpt lat="43.30829277509459" lon="-4.084222824073614"><ele>126.0</ele><time>2026-05-02T09:33:45.001Z</time></trkpt><trkpt lat="43.30821787458334" lon="-4.084138091878341"><ele>126.0</ele><time>2026-05-02T09:33:46.001Z</time></trkpt><trkpt lat="43.308131607113644" lon="-4.084075188174452"><ele>126.0</ele><time>2026-05-02T09:33:47.001Z</time></trkpt><trkpt lat="43.308033904226406" lon="-4.084081455313868"><ele>126.0</ele><time>2026-05-02T09:33:48.001Z</time></trkpt><trkpt lat="43.307935744935634" lon="-4.084070424844316"><ele>125.4</ele><time>2026-05-02T09:33:49.001Z</time></trkpt><trkpt lat="43.30784561044741" lon="-4.084055556359542"><ele>124.8</ele><time>2026-05-02T09:33:50.001Z</time></trkpt><trkpt lat="43.30775382868218" lon="-4.084019545929256"><ele>124.20000000000002</ele><time>2026-05-02T09:33:51.001Z</time></trkpt><trkpt lat="43.307661612631186" lon="-4.08398240850888"><ele>123.60000000000001</ele><time>2026-05-02T09:33:52.001Z</time></trkpt><trkpt lat="43.30757850612889" lon="-4.0839229434958195"><ele>123.0</ele><time>2026-05-02T09:33:53.001Z</time></trkpt><trkpt lat="43.307503603568684" lon="-4.083848550575636"><ele>123.0</ele><time>2026-05-02T09:33:54.001Z</time></trkpt><trkpt lat="43.307426292071526" lon="-4.083772493784988"><ele>123.00000000000001</ele><time>2026-05-02T09:33:55.001Z</time></trkpt><trkpt lat="43.30738728883613" lon="-4.083637451128472"><ele>123.00000000000001</ele><time>2026-05-02T09:33:56.001Z</time></trkpt><trkpt lat="43.30734168047429" lon="-4.0835196690343665"><ele>123.0</ele><time>2026-05-02T09:33:57.001Z</time></trkpt><trkpt lat="43.307286099299006" lon="-4.083412475793865"><ele>123.0</ele><time>2026-05-02T09:33:58.001Z</time></trkpt><trkpt lat="43.307217908218966" lon="-4.083320481542679"><ele>121.0</ele><time>2026-05-02T09:33:59.001Z</time></trkpt><trkpt lat="43.307137167149925" lon="-4.083244119754255"><ele>119.00000000000001</ele><time>2026-05-02T09:34:00.001Z</time></trkpt><trkpt lat="43.30704694306989" lon="-4.083189374726221"><ele>117.00000000000001</ele><time>2026-05-02T09:34:01.001Z</time></trkpt><trkpt lat="43.30694363575726" lon="-4.083201052030921"><ele>115.0</ele><time>2026-05-02T09:34:02.001Z</time></trkpt><trkpt lat="43.30684353096892" lon="-4.083194292825692"><ele>113.0</ele><time>2026-05-02T09:34:03.001Z</time></trkpt><trkpt lat="43.306742111102146" lon="-4.083189542480671"><ele>112.99999999999999</ele><time>2026-05-02T09:34:04.001Z</time></trkpt><trkpt lat="43.306646385766626" lon="-4.083153302866139"><ele>113.0</ele><time>2026-05-02T09:34:05.001Z</time></trkpt><trkpt lat="43.30655686145777" lon="-4.083146112554459"><ele>113.0</ele><time>2026-05-02T09:34:06.001Z</time></trkpt><trkpt lat="43.30649411221215" lon="-4.083059719538691"><ele>113.0</ele><time>2026-05-02T09:34:07.001Z</time></trkpt><trkpt lat="43.306433802746575" lon="-4.082979296530206"><ele>112.99999999999999</ele><time>2026-05-02T09:34:08.001Z</time></trkpt><trkpt lat="43.30640927146001" lon="-4.082863732606213"><ele>113.0</ele><time>2026-05-02T09:34:09.001Z</time></trkpt><trkpt lat="43.306419200565365" lon="-4.082722362369511"><ele>113.0</ele><time>2026-05-02T09:34:10.001Z</time></trkpt><trkpt lat="43.30646830460288" lon="-4.082597583539003"><ele>113.00000000000001</ele><time>2026-05-02T09:34:11.001Z</time></trkpt><trkpt lat="43.30652189706576" lon="-4.082477101398397"><ele>113.00000000000001</ele><time>2026-05-02T09:34:12.001Z</time></trkpt><trkpt lat="43.306597127139035" lon="-4.0823950840499865"><ele>113.0</ele><time>2026-05-02T09:34:13.001Z</time></trkpt><trkpt lat="43.30668748241729" lon="-4.082327037531877"><ele>113.0</ele><time>2026-05-02T09:34:14.001Z</time></trkpt><trkpt lat="43.306791816127884" lon="-4.082285261298859"><ele>114.80000000000001</ele><time>2026-05-02T09:34:15.001Z</time></trkpt><trkpt lat="43.30690245808708" lon="-4.082270834798948"><ele>116.60000000000001</ele><time>2026-05-02T09:34:16.001Z</time></trkpt><trkpt lat="43.30700757611713" lon="-4.082230587751682"><ele>118.39999999999999</ele><time>2026-05-02T09:34:17.001Z</time></trkpt><trkpt lat="43.30709851193881" lon="-4.08216078241496"><ele>120.19999999999999</ele><time>2026-05-02T09:34:18.001Z</time></trkpt><trkpt lat="43.307181524432636" lon="-4.082074211616148"><ele>122.0</ele><time>2026-05-02T09:34:19.001Z</time></trkpt><trkpt lat="43.30725819526245" lon="-4.081986848111407"><ele>122.0</ele><time>2026-05-02T09:34:20.001Z</time></trkpt><trkpt lat="43.30727568349135" lon="-4.081850596892784"><ele>121.99999999999999</ele><time>2026-05-02T09:34:21.001Z</time></trkpt><trkpt lat="43.30726834844547" lon="-4.081725454014529"><ele>121.99999999999999</ele><time>2026-05-02T09:34:22.001Z</time></trkpt><trkpt lat="43.30724517823179" lon="-4.081587923487235"><ele>122.0</ele><time>2026-05-02T09:34:23.001Z</time></trkpt><trkpt lat="43.30719509545947" lon="-4.081470309086821"><ele>122.0</ele><time>2026-05-02T09:34:24.001Z</time></trkpt><trkpt lat="43.30713591947254" lon="-4.081353855888447"><ele>118.33333333333333</ele><time>2026-05-02T09:34:25.001Z</time></trkpt><trkpt lat="43.30707714176334" lon="-4.081239979547973"><ele>114.66666666666666</ele><time>2026-05-02T09:34:26.001Z</time></trkpt><trkpt lat="43.30700569169542" lon="-4.08115355586884"><ele>111.0</ele><time>2026-05-02T09:34:27.001Z</time></trkpt><trkpt lat="43.306940992006034" lon="-4.081062643747008"><ele>107.33333333333334</ele><time>2026-05-02T09:34:28.001Z</time></trkpt><trkpt lat="43.3068856891616" lon="-4.080980009559072"><ele>103.66666666666667</ele><time>2026-05-02T09:34:29.001Z</time></trkpt><trkpt lat="43.30684794116896" lon="-4.080888798840063"><ele>100.0</ele><time>2026-05-02T09:34:30.001Z</time></trkpt><trkpt lat="43.30683423624587" lon="-4.0807863007676275"><ele>100.50000000000001</ele><time>2026-05-02T09:34:31.001Z</time></trkpt><trkpt lat="43.30685081268537" lon="-4.08068408482766"><ele>101.0</ele><time>2026-05-02T09:34:32.001Z</time></trkpt><trkpt lat="43.30689897234502" lon="-4.080597702223241"><ele>101.5</ele><time>2026-05-02T09:34:33.001Z</time></trkpt><trkpt lat="43.306977495797824" lon="-4.080530500842734"><ele>102.0</ele><time>2026-05-02T09:34:34.001Z</time></trkpt><trkpt lat="43.30706159645359" lon="-4.080471617499945"><ele>102.50000000000001</ele><time>2026-05-02T09:34:35.001Z</time></trkpt><trkpt lat="43.307152330850485" lon="-4.080413758834226"><ele>103.0</ele><time>2026-05-02T09:34:36.001Z</time></trkpt><trkpt lat="43.30724590209877" lon="-4.080368088522546"><ele>103.0</ele><time>2026-05-02T09:34:37.001Z</time></trkpt><trkpt lat="43.307340845080454" lon="-4.080342537779966"><ele>103.0</ele><time>2026-05-02T09:34:38.001Z</time></trkpt><trkpt lat="43.30744391793039" lon="-4.080311361941575"><ele>103.0</ele><time>2026-05-02T09:34:39.001Z</time></trkpt><trkpt lat="43.307551177197105" lon="-4.080299424055086"><ele>103.0</ele><time>2026-05-02T09:34:40.001Z</time></trkpt><trkpt lat="43.30765331541042" lon="-4.080291786546476"><ele>103.0</ele><time>2026-05-02T09:34:41.001Z</time></trkpt><trkpt lat="43.30774322233495" lon="-4.0802157039600555"><ele>103.0</ele><time>2026-05-02T09:34:42.001Z</time></trkpt><trkpt lat="43.3078429062032" lon="-4.080170502862458"><ele>103.0</ele><time>2026-05-02T09:34:43Z</time></trkpt><trkpt lat="43.30792771933554" lon="-4.080102849797127"><ele>103.0</ele><time>2026-05-02T09:34:44Z</time></trkpt><trkpt lat="43.3080024118209" lon="-4.080024541123651"><ele>103.0</ele><time>2026-05-02T09:34:45Z</time></trkpt><trkpt lat="43.308086018553716" lon="-4.079937389726667"><ele>103.0</ele><time>2026-05-02T09:34:46Z</time></trkpt><trkpt lat="43.30814919414022" lon="-4.079818318095255"><ele>101.60000000000001</ele><time>2026-05-02T09:34:47Z</time></trkpt><trkpt lat="43.308197872048765" lon="-4.079685401944911"><ele>100.2</ele><time>2026-05-02T09:34:48Z</time></trkpt><trkpt lat="43.3082361352873" lon="-4.0795549571715854"><ele>98.8</ele><time>2026-05-02T09:34:49Z</time></trkpt><trkpt lat="43.30827235586276" lon="-4.079430097519959"><ele>97.4</ele><time>2026-05-02T09:34:50Z</time></trkpt><trkpt lat="43.30830263325368" lon="-4.079300887146821"><ele>96.0</ele><time>2026-05-02T09:34:51Z</time></trkpt><trkpt lat="43.3083162026439" lon="-4.079147492352864"><ele>94.19999999999999</ele><time>2026-05-02T09:34:52Z</time></trkpt><trkpt lat="43.30830758511609" lon="-4.079000109703204"><ele>92.39999999999999</ele><time>2026-05-02T09:34:53Z</time></trkpt><trkpt lat="43.30829946490711" lon="-4.0788617576093396"><ele>90.6</ele><time>2026-05-02T09:34:54Z</time></trkpt><trkpt lat="43.308289575193875" lon="-4.078725088056689"><ele>88.8</ele><time>2026-05-02T09:34:55Z</time></trkpt><trkpt lat="43.308284812709964" lon="-4.078579608952107"><ele>87.0</ele><time>2026-05-02T09:34:56Z</time></trkpt><trkpt lat="43.30829988010299" lon="-4.078437858008659"><ele>87.0</ele><time>2026-05-02T09:34:57Z</time></trkpt><trkpt lat="43.308320902682084" lon="-4.078290876750498"><ele>87.0</ele><time>2026-05-02T09:34:58Z</time></trkpt><trkpt lat="43.308327858222675" lon="-4.078143442686457"><ele>87.0</ele><time>2026-05-02T09:34:59Z</time></trkpt><trkpt lat="43.30833379173416" lon="-4.078017880433106"><ele>87.0</ele><time>2026-05-02T09:35:00Z</time></trkpt><trkpt lat="43.30831614692243" lon="-4.07786151237698"><ele>87.0</ele><time>2026-05-02T09:35:01Z</time></trkpt><trkpt lat="43.308289715527394" lon="-4.077724375421446"><ele>87.0</ele><time>2026-05-02T09:35:02Z</time></trkpt><trkpt lat="43.308270256082714" lon="-4.077579235292101"><ele>87.0</ele><time>2026-05-02T09:35:03Z</time></trkpt><trkpt lat="43.30824024705667" lon="-4.077442356962981"><ele>87.0</ele><time>2026-05-02T09:35:04Z</time></trkpt><trkpt lat="43.30822851332993" lon="-4.077308525942697"><ele>87.0</ele><time>2026-05-02T09:35:05Z</time></trkpt><trkpt lat="43.308253136404524" lon="-4.077189674325323"><ele>87.0</ele><time>2026-05-02T09:35:06Z</time></trkpt><trkpt lat="43.30830658092587" lon="-4.077094994831375"><ele>84.6</ele><time>2026-05-02T09:35:07Z</time></trkpt><trkpt lat="43.30837853765432" lon="-4.077019764366661"><ele>82.19999999999999</ele><time>2026-05-02T09:35:08Z</time></trkpt><trkpt lat="43.30846489718062" lon="-4.076999158442752"><ele>79.8</ele><time>2026-05-02T09:35:09Z</time></trkpt><trkpt lat="43.308559599206255" lon="-4.077019268497896"><ele>77.4</ele><time>2026-05-02T09:35:10Z</time></trkpt><trkpt lat="43.308664760157775" lon="-4.077045905308224"><ele>75.0</ele><time>2026-05-02T09:35:11Z</time></trkpt><trkpt lat="43.30877019970036" lon="-4.077054955889528"><ele>75.0</ele><time>2026-05-02T09:35:12Z</time></trkpt><trkpt lat="43.30887521356256" lon="-4.077063613723441"><ele>75.0</ele><time>2026-05-02T09:35:13Z</time></trkpt><trkpt lat="43.30897875175042" lon="-4.077081115466162"><ele>75.0</ele><time>2026-05-02T09:35:14Z</time></trkpt><trkpt lat="43.30908260615578" lon="-4.077093114398108"><ele>75.0</ele><time>2026-05-02T09:35:15Z</time></trkpt><trkpt lat="43.30918291261213" lon="-4.077091618517917"><ele>75.0</ele><time>2026-05-02T09:35:16Z</time></trkpt><trkpt lat="43.30928396900531" lon="-4.077071909606364"><ele>75.4</ele><time>2026-05-02T09:35:17Z</time></trkpt><trkpt lat="43.309379386475285" lon="-4.077020636324676"><ele>75.8</ele><time>2026-05-02T09:35:18Z</time></trkpt><trkpt lat="43.30946367759974" lon="-4.076936548100458"><ele>76.2</ele><time>2026-05-02T09:35:19Z</time></trkpt><trkpt lat="43.309494437790555" lon="-4.076803021091842"><ele>76.6</ele><time>2026-05-02T09:35:20Z</time></trkpt><trkpt lat="43.30954178934824" lon="-4.07666823973049"><ele>77.0</ele><time>2026-05-02T09:35:21Z</time></trkpt><trkpt lat="43.30959165569748" lon="-4.0765462823483505"><ele>76.0</ele><time>2026-05-02T09:35:22Z</time></trkpt><trkpt lat="43.30964273714777" lon="-4.076426203427368"><ele>75.0</ele><time>2026-05-02T09:35:23Z</time></trkpt><trkpt lat="43.30969737284971" lon="-4.076309422621547"><ele>74.0</ele><time>2026-05-02T09:35:24Z</time></trkpt><trkpt lat="43.30973663025339" lon="-4.076178748697568"><ele>73.0</ele><time>2026-05-02T09:35:25Z</time></trkpt><trkpt lat="43.30972807340925" lon="-4.0760287326740405"><ele>72.0</ele><time>2026-05-02T09:35:26Z</time></trkpt><trkpt lat="43.309707592927175" lon="-4.075891140227599"><ele>72.8</ele><time>2026-05-02T09:35:27Z</time></trkpt><trkpt lat="43.30968382218533" lon="-4.075759347260951"><ele>73.6</ele><time>2026-05-02T09:35:28Z</time></trkpt><trkpt lat="43.309645642568725" lon="-4.075641563319697"><ele>74.39999999999999</ele><time>2026-05-02T09:35:29Z</time></trkpt><trkpt lat="43.30957656048564" lon="-4.075559040015622"><ele>75.2</ele><time>2026-05-02T09:35:30Z</time></trkpt><trkpt lat="43.309492356729635" lon="-4.075493463676677"><ele>76.0</ele><time>2026-05-02T09:35:31Z</time></trkpt><trkpt lat="43.30940122102093" lon="-4.075428621110822"><ele>76.0</ele><time>2026-05-02T09:35:32Z</time></trkpt><trkpt lat="43.30931057367578" lon="-4.0753690535747555"><ele>76.0</ele><time>2026-05-02T09:35:33Z</time></trkpt><trkpt lat="43.30922792552934" lon="-4.075295258629768"><ele>76.0</ele><time>2026-05-02T09:35:34Z</time></trkpt><trkpt lat="43.309139352480756" lon="-4.0752416167373875"><ele>76.0</ele><time>2026-05-02T09:35:35Z</time></trkpt><trkpt lat="43.30904912897463" lon="-4.0751902427426865"><ele>76.0</ele><time>2026-05-02T09:35:36Z</time></trkpt><trkpt lat="43.30896207885902" lon="-4.07512972085436"><ele>76.5</ele><time>2026-05-02T09:35:37Z</time></trkpt><trkpt lat="43.30888175520142" lon="-4.0750766191386845"><ele>77.0</ele><time>2026-05-02T09:35:38Z</time></trkpt><trkpt lat="43.308816033498665" lon="-4.075003704997096"><ele>77.5</ele><time>2026-05-02T09:35:39Z</time></trkpt><trkpt lat="43.308763325413864" lon="-4.074914935369665"><ele>78.0</ele><time>2026-05-02T09:35:40Z</time></trkpt><trkpt lat="43.3087277930594" lon="-4.07482658413628"><ele>78.5</ele><time>2026-05-02T09:35:41Z</time></trkpt><trkpt lat="43.308745852035955" lon="-4.074689167905911"><ele>79.0</ele><time>2026-05-02T09:35:42Z</time></trkpt><trkpt lat="43.308777903176875" lon="-4.074559039151411"><ele>79.0</ele><time>2026-05-02T09:35:43Z</time></trkpt><trkpt lat="43.30882234695811" lon="-4.074422262450895"><ele>79.0</ele><time>2026-05-02T09:35:44Z</time></trkpt><trkpt lat="43.30883048439466" lon="-4.074275761406075"><ele>79.0</ele><time>2026-05-02T09:35:45Z</time></trkpt><trkpt lat="43.30885276294226" lon="-4.074123527067554"><ele>79.0</ele><time>2026-05-02T09:35:46.001Z</time></trkpt><trkpt lat="43.30884996255065" lon="-4.073978285359774"><ele>79.0</ele><time>2026-05-02T09:35:47.001Z</time></trkpt><trkpt lat="43.30885340425843" lon="-4.073845109456466"><ele>79.6</ele><time>2026-05-02T09:35:48.001Z</time></trkpt><trkpt lat="43.3088629869345" lon="-4.07371627230678"><ele>80.2</ele><time>2026-05-02T09:35:49.001Z</time></trkpt><trkpt lat="43.308893161294705" lon="-4.0736054229813465"><ele>80.8</ele><time>2026-05-02T09:35:50.001Z</time></trkpt><trkpt lat="43.30895090923702" lon="-4.073503234080002"><ele>81.39999999999999</ele><time>2026-05-02T09:35:51.001Z</time></trkpt><trkpt lat="43.30903321947383" lon="-4.07341894840224"><ele>82.0</ele><time>2026-05-02T09:35:52.001Z</time></trkpt><trkpt lat="43.30913621094992" lon="-4.073363005627997"><ele>78.39999999999999</ele><time>2026-05-02T09:35:53.001Z</time></trkpt><trkpt lat="43.30923491615855" lon="-4.073334915929299"><ele>74.8</ele><time>2026-05-02T09:35:54.001Z</time></trkpt><trkpt lat="43.30935391912944" lon="-4.073318213019968"><ele>71.2</ele><time>2026-05-02T09:35:55.001Z</time></trkpt><trkpt lat="43.30944112853013" lon="-4.073310219565119"><ele>67.6</ele><time>2026-05-02T09:35:56.001Z</time></trkpt><trkpt lat="43.30954845488898" lon="-4.073327406985004"><ele>64.0</ele><time>2026-05-02T09:35:57.001Z</time></trkpt><trkpt lat="43.30965425251124" lon="-4.0733360090853825"><ele>62.800000000000004</ele><time>2026-05-02T09:35:58.001Z</time></trkpt><trkpt lat="43.30976131464095" lon="-4.073338115044127"><ele>61.60000000000001</ele><time>2026-05-02T09:35:59.001Z</time></trkpt><trkpt lat="43.30986116865054" lon="-4.073321460190187"><ele>60.4</ele><time>2026-05-02T09:36:00.001Z</time></trkpt><trkpt lat="43.30996192528953" lon="-4.073311695783589"><ele>59.2</ele><time>2026-05-02T09:36:01.001Z</time></trkpt><trkpt lat="43.31005587716077" lon="-4.073268101420468"><ele>58.0</ele><time>2026-05-02T09:36:02.001Z</time></trkpt><trkpt lat="43.31014259118579" lon="-4.073222276681183"><ele>57.0</ele><time>2026-05-02T09:36:03.001Z</time></trkpt><trkpt lat="43.310202163847855" lon="-4.073175486436551"><ele>56.0</ele><time>2026-05-02T09:36:04.001Z</time></trkpt><trkpt lat="43.3102703307913" lon="-4.073065279879332"><ele>55.0</ele><time>2026-05-02T09:36:06.001Z</time></trkpt><trkpt lat="43.31018823639634" lon="-4.072914828309274"><ele>54.0</ele><time>2026-05-02T09:36:08.001Z</time></trkpt><trkpt lat="43.31012196462022" lon="-4.072858670680395"><ele>53.0</ele><time>2026-05-02T09:36:09.001Z</time></trkpt><trkpt lat="43.31004873578839" lon="-4.072792273006748"><ele>53.0</ele><time>2026-05-02T09:36:10.001Z</time></trkpt><trkpt lat="43.309969438681094" lon="-4.072746293936738"><ele>53.0</ele><time>2026-05-02T09:36:11.001Z</time></trkpt><trkpt lat="43.309886524921225" lon="-4.072692942582119"><ele>53.0</ele><time>2026-05-02T09:36:12.001Z</time></trkpt><trkpt lat="43.30979818323909" lon="-4.072633702987338"><ele>53.0</ele><time>2026-05-02T09:36:13.001Z</time></trkpt><trkpt lat="43.309712684317866" lon="-4.0725682195157615"><ele>53.0</ele><time>2026-05-02T09:36:14.001Z</time></trkpt><trkpt lat="43.309624941646746" lon="-4.072497001130098"><ele>51.2</ele><time>2026-05-02T09:36:15.001Z</time></trkpt><trkpt lat="43.30953372963523" lon="-4.072424668595515"><ele>49.4</ele><time>2026-05-02T09:36:16.001Z</time></trkpt><trkpt lat="43.30943916146974" lon="-4.072354875948702"><ele>47.6</ele><time>2026-05-02T09:36:17.001Z</time></trkpt><trkpt lat="43.30934592222155" lon="-4.072287356886539"><ele>45.800000000000004</ele><time>2026-05-02T09:36:18.001Z</time></trkpt><trkpt lat="43.309244179818926" lon="-4.072214709788418"><ele>44.0</ele><time>2026-05-02T09:36:19.001Z</time></trkpt><trkpt lat="43.30915184341397" lon="-4.072139538242847"><ele>44.0</ele><time>2026-05-02T09:36:20.001Z</time></trkpt><trkpt lat="43.309055700349745" lon="-4.072069406957581"><ele>44.0</ele><time>2026-05-02T09:36:21.001Z</time></trkpt><trkpt lat="43.30895544415683" lon="-4.07200183769306"><ele>44.0</ele><time>2026-05-02T09:36:22.001Z</time></trkpt><trkpt lat="43.30885638243338" lon="-4.071953052620098"><ele>44.0</ele><time>2026-05-02T09:36:23.001Z</time></trkpt><trkpt lat="43.30875647767598" lon="-4.071912356568101"><ele>44.0</ele><time>2026-05-02T09:36:24.001Z</time></trkpt><trkpt lat="43.30865230946791" lon="-4.071887164814036"><ele>45.800000000000004</ele><time>2026-05-02T09:36:25.001Z</time></trkpt><trkpt lat="43.30854290609948" lon="-4.071872618954748"><ele>47.6</ele><time>2026-05-02T09:36:26.001Z</time></trkpt><trkpt lat="43.30843841344118" lon="-4.0718701190887705"><ele>49.4</ele><time>2026-05-02T09:36:27.001Z</time></trkpt><trkpt lat="43.30833351603853" lon="-4.0718753189519346"><ele>51.2</ele><time>2026-05-02T09:36:28.001Z</time></trkpt><trkpt lat="43.30822791724387" lon="-4.071886756379762"><ele>53.0</ele><time>2026-05-02T09:36:29.001Z</time></trkpt><trkpt lat="43.30812592223846" lon="-4.071905199886567"><ele>52.0</ele><time>2026-05-02T09:36:30.001Z</time></trkpt><trkpt lat="43.30802567711269" lon="-4.071930303562304"><ele>51.0</ele><time>2026-05-02T09:36:31.001Z</time></trkpt><trkpt lat="43.30792697304321" lon="-4.071961503418903"><ele>50.0</ele><time>2026-05-02T09:36:32.001Z</time></trkpt><trkpt lat="43.30782929716266" lon="-4.071992946048889"><ele>49.0</ele><time>2026-05-02T09:36:33.001Z</time></trkpt><trkpt lat="43.307733020723724" lon="-4.0720299425278155"><ele>48.0</ele><time>2026-05-02T09:36:34.001Z</time></trkpt><trkpt lat="43.307639284993535" lon="-4.0720707864732315"><ele>48.0</ele><time>2026-05-02T09:36:35.001Z</time></trkpt><trkpt lat="43.30754519561759" lon="-4.072115058707546"><ele>48.0</ele><time>2026-05-02T09:36:36.001Z</time></trkpt><trkpt lat="43.307453030894884" lon="-4.0721632009905555"><ele>48.0</ele><time>2026-05-02T09:36:37.001Z</time></trkpt><trkpt lat="43.3073597234632" lon="-4.072207496576051"><ele>48.0</ele><time>2026-05-02T09:36:38.001Z</time></trkpt><trkpt lat="43.30726993028852" lon="-4.072254503688137"><ele>48.0</ele><time>2026-05-02T09:36:39.001Z</time></trkpt><trkpt lat="43.30717864577922" lon="-4.072303832098473"><ele>49.599999999999994</ele><time>2026-05-02T09:36:40.001Z</time></trkpt><trkpt lat="43.307086919536246" lon="-4.072354159111394"><ele>51.199999999999996</ele><time>2026-05-02T09:36:41.001Z</time></trkpt><trkpt lat="43.30699317994067" lon="-4.07240697320626"><ele>52.8</ele><time>2026-05-02T09:36:42.001Z</time></trkpt><trkpt lat="43.30690127261574" lon="-4.072458958411203"><ele>54.4</ele><time>2026-05-02T09:36:43.001Z</time></trkpt><trkpt lat="43.306809216266196" lon="-4.07251410883468"><ele>56.0</ele><time>2026-05-02T09:36:44.001Z</time></trkpt><trkpt lat="43.306716296392054" lon="-4.0725650099884865"><ele>55.4</ele><time>2026-05-02T09:36:45.001Z</time></trkpt><trkpt lat="43.30662250953665" lon="-4.072616648353875"><ele>54.8</ele><time>2026-05-02T09:36:46.001Z</time></trkpt><trkpt lat="43.3065311833768" lon="-4.072675172303851"><ele>54.199999999999996</ele><time>2026-05-02T09:36:47.001Z</time></trkpt><trkpt lat="43.30644065384663" lon="-4.07273354932998"><ele>53.599999999999994</ele><time>2026-05-02T09:36:48.001Z</time></trkpt><trkpt lat="43.30635176166703" lon="-4.072795540220583"><ele>53.0</ele><time>2026-05-02T09:36:49Z</time></trkpt><trkpt lat="43.30626333837123" lon="-4.072858152686725"><ele>53.0</ele><time>2026-05-02T09:36:50Z</time></trkpt><trkpt lat="43.30617642249092" lon="-4.0729266130834265"><ele>53.0</ele><time>2026-05-02T09:36:51Z</time></trkpt><trkpt lat="43.30608493474913" lon="-4.072983705131116"><ele>53.0</ele><time>2026-05-02T09:36:52Z</time></trkpt><trkpt lat="43.30599694900377" lon="-4.073045799365217"><ele>53.0</ele><time>2026-05-02T09:36:53Z</time></trkpt><trkpt lat="43.30591017008073" lon="-4.0731086179509655"><ele>53.0</ele><time>2026-05-02T09:36:54Z</time></trkpt><trkpt lat="43.30582514121591" lon="-4.073178463105631"><ele>53.0</ele><time>2026-05-02T09:36:55Z</time></trkpt><trkpt lat="43.30573907099175" lon="-4.073249481112747"><ele>53.0</ele><time>2026-05-02T09:36:56Z</time></trkpt><trkpt lat="43.305654378428784" lon="-4.0733169667281475"><ele>53.0</ele><time>2026-05-02T09:36:57Z</time></trkpt><trkpt lat="43.305568993385165" lon="-4.073386353032081"><ele>53.0</ele><time>2026-05-02T09:36:58Z</time></trkpt><trkpt lat="43.305483350055404" lon="-4.073454528420473"><ele>53.0</ele><time>2026-05-02T09:36:59Z</time></trkpt><trkpt lat="43.305398499049666" lon="-4.073523099433115"><ele>53.599999999999994</ele><time>2026-05-02T09:37:00Z</time></trkpt><trkpt lat="43.3053127944119" lon="-4.073595396305255"><ele>54.199999999999996</ele><time>2026-05-02T09:37:01Z</time></trkpt><trkpt lat="43.30522690692867" lon="-4.073661288168115"><ele>54.8</ele><time>2026-05-02T09:37:02Z</time></trkpt><trkpt lat="43.305142377362515" lon="-4.073736971041854"><ele>55.4</ele><time>2026-05-02T09:37:03Z</time></trkpt><trkpt lat="43.30505776197709" lon="-4.07381266109645"><ele>56.0</ele><time>2026-05-02T09:37:04Z</time></trkpt><trkpt lat="43.304973992069996" lon="-4.073878367052519"><ele>56.0</ele><time>2026-05-02T09:37:05Z</time></trkpt><trkpt lat="43.30489139576956" lon="-4.073951308764674"><ele>55.99999999999999</ele><time>2026-05-02T09:37:06Z</time></trkpt><trkpt lat="43.304806474852384" lon="-4.074025188105565"><ele>55.99999999999999</ele><time>2026-05-02T09:37:07Z</time></trkpt><trkpt lat="43.3047239860574" lon="-4.074094380023098"><ele>56.0</ele><time>2026-05-02T09:37:08Z</time></trkpt><trkpt lat="43.30464263577897" lon="-4.074165450996877"><ele>56.0</ele><time>2026-05-02T09:37:09Z</time></trkpt><trkpt lat="43.30455786016328" lon="-4.074237217779214"><ele>57.199999999999996</ele><time>2026-05-02T09:37:10Z</time></trkpt><trkpt lat="43.3044747096029" lon="-4.074303860175054"><ele>58.39999999999999</ele><time>2026-05-02T09:37:11Z</time></trkpt><trkpt lat="43.30438693425632" lon="-4.074365815118861"><ele>59.6</ele><time>2026-05-02T09:37:12Z</time></trkpt><trkpt lat="43.304302708051495" lon="-4.074430589367887"><ele>60.8</ele><time>2026-05-02T09:37:13Z</time></trkpt><trkpt lat="43.304210254933956" lon="-4.074481976898899"><ele>62.0</ele><time>2026-05-02T09:37:14Z</time></trkpt><trkpt lat="43.304119844259894" lon="-4.074534446795561"><ele>62.0</ele><time>2026-05-02T09:37:15Z</time></trkpt><trkpt lat="43.304028400146706" lon="-4.074584124167817"><ele>62.0</ele><time>2026-05-02T09:37:16Z</time></trkpt><trkpt lat="43.303937491230286" lon="-4.074629514023319"><ele>62.0</ele><time>2026-05-02T09:37:17Z</time></trkpt><trkpt lat="43.30384151079413" lon="-4.07467132103832"><ele>62.0</ele><time>2026-05-02T09:37:18Z</time></trkpt><trkpt lat="43.30374812872464" lon="-4.07470860815182"><ele>62.0</ele><time>2026-05-02T09:37:19Z</time></trkpt><trkpt lat="43.30365340901504" lon="-4.07474438750543"><ele>61.2</ele><time>2026-05-02T09:37:20Z</time></trkpt><trkpt lat="43.30355521288422" lon="-4.0747745527914745"><ele>60.400000000000006</ele><time>2026-05-02T09:37:21Z</time></trkpt><trkpt lat="43.303462157744754" lon="-4.074805205777162"><ele>59.599999999999994</ele><time>2026-05-02T09:37:22Z</time></trkpt><trkpt lat="43.30336247449219" lon="-4.074830350732012"><ele>58.8</ele><time>2026-05-02T09:37:23Z</time></trkpt><trkpt lat="43.30326837263215" lon="-4.074843308767494"><ele>58.0</ele><time>2026-05-02T09:37:24Z</time></trkpt><trkpt lat="43.30316551136351" lon="-4.074865342820928"><ele>59.0</ele><time>2026-05-02T09:37:25Z</time></trkpt><trkpt lat="43.30306736791381" lon="-4.0748817971158955"><ele>60.0</ele><time>2026-05-02T09:37:26Z</time></trkpt><trkpt lat="43.302966645356975" lon="-4.074903356554134"><ele>61.0</ele><time>2026-05-02T09:37:27Z</time></trkpt><trkpt lat="43.30286439744077" lon="-4.074917238790353"><ele>62.0</ele><time>2026-05-02T09:37:28Z</time></trkpt><trkpt lat="43.302761128979" lon="-4.074934747108411"><ele>63.0</ele><time>2026-05-02T09:37:29Z</time></trkpt><trkpt lat="43.3026599130223" lon="-4.074953504280335"><ele>68.8</ele><time>2026-05-02T09:37:30Z</time></trkpt><trkpt lat="43.302555003094795" lon="-4.074976547671259"><ele>74.6</ele><time>2026-05-02T09:37:31Z</time></trkpt><trkpt lat="43.302451521312804" lon="-4.074997109613962"><ele>80.39999999999999</ele><time>2026-05-02T09:37:32Z</time></trkpt><trkpt lat="43.302339382128864" lon="-4.075018979307068"><ele>86.19999999999999</ele><time>2026-05-02T09:37:33Z</time></trkpt><trkpt lat="43.302242321067865" lon="-4.075034203462883"><ele>92.0</ele><time>2026-05-02T09:37:34Z</time></trkpt><trkpt lat="43.30213856456919" lon="-4.075046752193514"><ele>92.0</ele><time>2026-05-02T09:37:35Z</time></trkpt><trkpt lat="43.30203446359965" lon="-4.075055321512782"><ele>92.0</ele><time>2026-05-02T09:37:36Z</time></trkpt><trkpt lat="43.30192166571038" lon="-4.075024142062796"><ele>92.0</ele><time>2026-05-02T09:37:37Z</time></trkpt><trkpt lat="43.30183357504215" lon="-4.075059586406997"><ele>92.0</ele><time>2026-05-02T09:37:38Z</time></trkpt><trkpt lat="43.30169592282321" lon="-4.075124100317629"><ele>92.0</ele><time>2026-05-02T09:37:39Z</time></trkpt><trkpt lat="43.301588495247906" lon="-4.07513622019843"><ele>92.0</ele><time>2026-05-02T09:37:40Z</time></trkpt><trkpt lat="43.301479992714036" lon="-4.07515013763661"><ele>92.0</ele><time>2026-05-02T09:37:41Z</time></trkpt><trkpt lat="43.30136846421916" lon="-4.075157376394199"><ele>92.0</ele><time>2026-05-02T09:37:42Z</time></trkpt><trkpt lat="43.30125800099219" lon="-4.075165992955537"><ele>92.0</ele><time>2026-05-02T09:37:43Z</time></trkpt><trkpt lat="43.30114622141775" lon="-4.07517256145786"><ele>88.75</ele><time>2026-05-02T09:37:44Z</time></trkpt><trkpt lat="43.30103361329752" lon="-4.075178945607947"><ele>85.5</ele><time>2026-05-02T09:37:45Z</time></trkpt><trkpt lat="43.30092102299023" lon="-4.07518005204446"><ele>82.25</ele><time>2026-05-02T09:37:46.001Z</time></trkpt><trkpt lat="43.300807693844185" lon="-4.075177320075411"><ele>79.0</ele><time>2026-05-02T09:37:47.001Z</time></trkpt><trkpt lat="43.30069360745198" lon="-4.075164960417401"><ele>77.2</ele><time>2026-05-02T09:37:48.001Z</time></trkpt><trkpt lat="43.30058124117955" lon="-4.075153304241232"><ele>75.4</ele><time>2026-05-02T09:37:49.001Z</time></trkpt><trkpt lat="43.30047232251845" lon="-4.075143860192991"><ele>73.6</ele><time>2026-05-02T09:37:50.001Z</time></trkpt><trkpt lat="43.30036059862501" lon="-4.0751405876083"><ele>71.8</ele><time>2026-05-02T09:37:51.001Z</time></trkpt><trkpt lat="43.30025216642754" lon="-4.075123877417833"><ele>70.0</ele><time>2026-05-02T09:37:52.001Z</time></trkpt><trkpt lat="43.30014263279229" lon="-4.075108877194721"><ele>70.0</ele><time>2026-05-02T09:37:53.001Z</time></trkpt><trkpt lat="43.30003473632842" lon="-4.075092357718522"><ele>70.0</ele><time>2026-05-02T09:37:54.001Z</time></trkpt><trkpt lat="43.29992595938025" lon="-4.075076012041441"><ele>70.0</ele><time>2026-05-02T09:37:55.001Z</time></trkpt><trkpt lat="43.29981963296801" lon="-4.075062521837467"><ele>70.0</ele><time>2026-05-02T09:37:56.001Z</time></trkpt><trkpt lat="43.29970861791125" lon="-4.075050704188688"><ele>70.0</ele><time>2026-05-02T09:37:57.001Z</time></trkpt><trkpt lat="43.29959881848438" lon="-4.075037482100334"><ele>71.2</ele><time>2026-05-02T09:37:58.001Z</time></trkpt><trkpt lat="43.299490931182895" lon="-4.0750234497643945"><ele>72.4</ele><time>2026-05-02T09:37:59.001Z</time></trkpt><trkpt lat="43.29938366154802" lon="-4.075007268294533"><ele>73.6</ele><time>2026-05-02T09:38:00.001Z</time></trkpt><trkpt lat="43.29927430908168" lon="-4.074991601058137"><ele>74.8</ele><time>2026-05-02T09:38:01.001Z</time></trkpt><trkpt lat="43.29915551550975" lon="-4.07498187437766"><ele>76.0</ele><time>2026-05-02T09:38:02.001Z</time></trkpt><trkpt lat="43.29904435936727" lon="-4.074964149710297"><ele>76.0</ele><time>2026-05-02T09:38:03.001Z</time></trkpt><trkpt lat="43.298932210207674" lon="-4.074937746219219"><ele>76.0</ele><time>2026-05-02T09:38:04.001Z</time></trkpt><trkpt lat="43.298820823751996" lon="-4.0749117958356855"><ele>76.0</ele><time>2026-05-02T09:38:05.001Z</time></trkpt><trkpt lat="43.298710378984694" lon="-4.074889224617075"><ele>76.0</ele><time>2026-05-02T09:38:06.001Z</time></trkpt><trkpt lat="43.298601820301236" lon="-4.074855381934324"><ele>73.5</ele><time>2026-05-02T09:38:07.001Z</time></trkpt><trkpt lat="43.29849097422649" lon="-4.074814204808832"><ele>71.0</ele><time>2026-05-02T09:38:08.001Z</time></trkpt><trkpt lat="43.298382914569764" lon="-4.074774247405793"><ele>68.5</ele><time>2026-05-02T09:38:09.001Z</time></trkpt><trkpt lat="43.298275372964426" lon="-4.074726716371288"><ele>66.0</ele><time>2026-05-02T09:38:10.001Z</time></trkpt><trkpt lat="43.29816629300263" lon="-4.074681179447194"><ele>70.0</ele><time>2026-05-02T09:38:11.001Z</time></trkpt><trkpt lat="43.29805813639363" lon="-4.074634405684487"><ele>74.0</ele><time>2026-05-02T09:38:12.001Z</time></trkpt><trkpt lat="43.297952456991304" lon="-4.074581135199932"><ele>78.0</ele><time>2026-05-02T09:38:13.001Z</time></trkpt><trkpt lat="43.29784588878958" lon="-4.074533237534694"><ele>82.0</ele><time>2026-05-02T09:38:14.001Z</time></trkpt><trkpt lat="43.29773792523292" lon="-4.074479676984195"><ele>82.0</ele><time>2026-05-02T09:38:15.001Z</time></trkpt><trkpt lat="43.29763222311218" lon="-4.074425478143353"><ele>82.0</ele><time>2026-05-02T09:38:16.001Z</time></trkpt><trkpt lat="43.297525219921795" lon="-4.074382760991136"><ele>82.0</ele><time>2026-05-02T09:38:17.001Z</time></trkpt><trkpt lat="43.29742136120902" lon="-4.0743302825093455"><ele>82.0</ele><time>2026-05-02T09:38:18.001Z</time></trkpt><trkpt lat="43.297317076254075" lon="-4.074278872619186"><ele>82.0</ele><time>2026-05-02T09:38:19.001Z</time></trkpt><trkpt lat="43.29720857470117" lon="-4.074228450413938"><ele>83.6</ele><time>2026-05-02T09:38:20.022Z</time></trkpt><trkpt lat="43.29710491160381" lon="-4.074176733287095"><ele>85.19999999999999</ele><time>2026-05-02T09:38:21.023Z</time></trkpt><trkpt lat="43.29699533393089" lon="-4.0741525114608494"><ele>86.8</ele><time>2026-05-02T09:38:22.017Z</time></trkpt><trkpt lat="43.2968847592842" lon="-4.074162288755444"><ele>88.4</ele><time>2026-05-02T09:38:23.021Z</time></trkpt><trkpt lat="43.29677586500184" lon="-4.074134507734043"><ele>90.0</ele><time>2026-05-02T09:38:24.022Z</time></trkpt><trkpt lat="43.29634600636897" lon="-4.074026348218559"><ele>82.25</ele><time>2026-05-02T09:38:28.101Z</time></trkpt><trkpt lat="43.29623628851219" lon="-4.07402346439441"><ele>74.5</ele><time>2026-05-02T09:38:29.1Z</time></trkpt><trkpt lat="43.296126978117954" lon="-4.074048018498757"><ele>66.75</ele><time>2026-05-02T09:38:30.098Z</time></trkpt><trkpt lat="43.296016647660544" lon="-4.07403347687446"><ele>59.0</ele><time>2026-05-02T09:38:31.101Z</time></trkpt><trkpt lat="43.29584880688942" lon="-4.074080005976484"><ele>59.0</ele><time>2026-05-02T09:38:32.001Z</time></trkpt><trkpt lat="43.2957366682002" lon="-4.074105222059972"><ele>59.00000000000001</ele><time>2026-05-02T09:38:33.001Z</time></trkpt><trkpt lat="43.29562479225841" lon="-4.074137800579785"><ele>59.00000000000001</ele><time>2026-05-02T09:38:34.001Z</time></trkpt><trkpt lat="43.29551805095257" lon="-4.074164393841539"><ele>59.0</ele><time>2026-05-02T09:38:35.001Z</time></trkpt><trkpt lat="43.29541345208071" lon="-4.074212496380147"><ele>59.0</ele><time>2026-05-02T09:38:36.001Z</time></trkpt><trkpt lat="43.295304948222686" lon="-4.07426284111135"><ele>59.0</ele><time>2026-05-02T09:38:37.001Z</time></trkpt><trkpt lat="43.295202236652" lon="-4.0743282311840785"><ele>59.0</ele><time>2026-05-02T09:38:38.001Z</time></trkpt><trkpt lat="43.29510039953057" lon="-4.074393806411845"><ele>59.0</ele><time>2026-05-02T09:38:39.001Z</time></trkpt><trkpt lat="43.29500049864574" lon="-4.074469789147236"><ele>59.0</ele><time>2026-05-02T09:38:40.001Z</time></trkpt><trkpt lat="43.29490408101851" lon="-4.074555293356994"><ele>59.0</ele><time>2026-05-02T09:38:41.001Z</time></trkpt><trkpt lat="43.29480714312926" lon="-4.074645779206977"><ele>59.0</ele><time>2026-05-02T09:38:42.001Z</time></trkpt><trkpt lat="43.294715569405305" lon="-4.074741459443813"><ele>59.0</ele><time>2026-05-02T09:38:43.001Z</time></trkpt><trkpt lat="43.29462451564509" lon="-4.074837244396416"><ele>59.0</ele><time>2026-05-02T09:38:44.001Z</time></trkpt><trkpt lat="43.294535443928794" lon="-4.074938465488463"><ele>58.5</ele><time>2026-05-02T09:38:45.001Z</time></trkpt><trkpt lat="43.294450022719815" lon="-4.075038073146042"><ele>58.0</ele><time>2026-05-02T09:38:46.001Z</time></trkpt><trkpt lat="43.29436194869067" lon="-4.0751389026174145"><ele>57.5</ele><time>2026-05-02T09:38:47.001Z</time></trkpt><trkpt lat="43.29427533528599" lon="-4.0752416311214334"><ele>57.0</ele><time>2026-05-02T09:38:48.001Z</time></trkpt><trkpt lat="43.29419116902826" lon="-4.075345275836264"><ele>57.0</ele><time>2026-05-02T09:38:49.001Z</time></trkpt><trkpt lat="43.29410821547454" lon="-4.0754489253367705"><ele>57.0</ele><time>2026-05-02T09:38:50.002Z</time></trkpt><trkpt lat="43.29402559163244" lon="-4.0755564433062945"><ele>57.0</ele><time>2026-05-02T09:38:51.002Z</time></trkpt><trkpt lat="43.29394430930818" lon="-4.075658889056085"><ele>57.0</ele><time>2026-05-02T09:38:52.002Z</time></trkpt><trkpt lat="43.29386017719406" lon="-4.07575880057839"><ele>57.0</ele><time>2026-05-02T09:38:53.002Z</time></trkpt><trkpt lat="43.29377688425788" lon="-4.075862173265217"><ele>56.6</ele><time>2026-05-02T09:38:54.002Z</time></trkpt><trkpt lat="43.29369384166737" lon="-4.0759673582367695"><ele>56.2</ele><time>2026-05-02T09:38:55Z</time></trkpt><trkpt lat="43.293611921481435" lon="-4.076069592795096"><ele>55.8</ele><time>2026-05-02T09:38:56Z</time></trkpt><trkpt lat="43.293527194301696" lon="-4.076169772116356"><ele>55.4</ele><time>2026-05-02T09:38:57Z</time></trkpt><trkpt lat="43.29343791249543" lon="-4.0762640250423"><ele>55.0</ele><time>2026-05-02T09:38:58Z</time></trkpt><trkpt lat="43.29334738180224" lon="-4.076352876496731"><ele>55.0</ele><time>2026-05-02T09:38:59Z</time></trkpt><trkpt lat="43.293258127133456" lon="-4.0764363936137835"><ele>55.0</ele><time>2026-05-02T09:39:00Z</time></trkpt><trkpt lat="43.29316420980924" lon="-4.07651597176183"><ele>55.0</ele><time>2026-05-02T09:39:01Z</time></trkpt><trkpt lat="43.29306491768346" lon="-4.076586469380061"><ele>55.0</ele><time>2026-05-02T09:39:02Z</time></trkpt><trkpt lat="43.292967905881184" lon="-4.07665210721897"><ele>55.0</ele><time>2026-05-02T09:39:03Z</time></trkpt><trkpt lat="43.292868984995856" lon="-4.07671707798707"><ele>55.75</ele><time>2026-05-02T09:39:04Z</time></trkpt><trkpt lat="43.29276274083412" lon="-4.076780764646348"><ele>56.5</ele><time>2026-05-02T09:39:05Z</time></trkpt><trkpt lat="43.29265961336615" lon="-4.076837725689513"><ele>57.25</ele><time>2026-05-02T09:39:06Z</time></trkpt><trkpt lat="43.29255438629882" lon="-4.0768854642344765"><ele>58.0</ele><time>2026-05-02T09:39:07Z</time></trkpt><trkpt lat="43.29244565202086" lon="-4.076923578930546"><ele>58.0</ele><time>2026-05-02T09:39:08Z</time></trkpt><trkpt lat="43.292333490799486" lon="-4.076953762730196"><ele>58.0</ele><time>2026-05-02T09:39:09Z</time></trkpt><trkpt lat="43.29222309858081" lon="-4.0769764821095995"><ele>58.0</ele><time>2026-05-02T09:39:10Z</time></trkpt><trkpt lat="43.29211108908914" lon="-4.076994810255942"><ele>58.0</ele><time>2026-05-02T09:39:11Z</time></trkpt><trkpt lat="43.29199783431497" lon="-4.0770107187714"><ele>57.75</ele><time>2026-05-02T09:39:12Z</time></trkpt><trkpt lat="43.29188471324666" lon="-4.077020957010752"><ele>57.5</ele><time>2026-05-02T09:39:13Z</time></trkpt><trkpt lat="43.29177069706203" lon="-4.077029456139666"><ele>57.25</ele><time>2026-05-02T09:39:14Z</time></trkpt><trkpt lat="43.29165744883786" lon="-4.07703820152841"><ele>57.0</ele><time>2026-05-02T09:39:15Z</time></trkpt><trkpt lat="43.291544422418305" lon="-4.077045944746549"><ele>57.0</ele><time>2026-05-02T09:39:16Z</time></trkpt><trkpt lat="43.291428510505476" lon="-4.077051337045313"><ele>57.0</ele><time>2026-05-02T09:39:17Z</time></trkpt><trkpt lat="43.29131444908447" lon="-4.077060280180272"><ele>57.0</ele><time>2026-05-02T09:39:18Z</time></trkpt><trkpt lat="43.291202578581036" lon="-4.077071174987445"><ele>57.0</ele><time>2026-05-02T09:39:19Z</time></trkpt><trkpt lat="43.291088572729265" lon="-4.077085648795838"><ele>56.5</ele><time>2026-05-02T09:39:20Z</time></trkpt><trkpt lat="43.29097544607424" lon="-4.077106396841684"><ele>56.0</ele><time>2026-05-02T09:39:21Z</time></trkpt><trkpt lat="43.29086534430298" lon="-4.07713707308026"><ele>55.5</ele><time>2026-05-02T09:39:22Z</time></trkpt><trkpt lat="43.29075560545173" lon="-4.077171496529419"><ele>55.0</ele><time>2026-05-02T09:39:23Z</time></trkpt><trkpt lat="43.29064549978979" lon="-4.077206571355081"><ele>55.4</ele><time>2026-05-02T09:39:24Z</time></trkpt><trkpt lat="43.29053728380801" lon="-4.07724488362184"><ele>55.8</ele><time>2026-05-02T09:39:25Z</time></trkpt><trkpt lat="43.29043070886568" lon="-4.077285741154424"><ele>56.2</ele><time>2026-05-02T09:39:26Z</time></trkpt><trkpt lat="43.29032449075623" lon="-4.077325161169125"><ele>56.6</ele><time>2026-05-02T09:39:27Z</time></trkpt><trkpt lat="43.29022010128797" lon="-4.0773657722166625"><ele>57.0</ele><time>2026-05-02T09:39:28Z</time></trkpt><trkpt lat="43.2901118686773" lon="-4.0774044463409265"><ele>57.400000000000006</ele><time>2026-05-02T09:39:29Z</time></trkpt><trkpt lat="43.290004035087826" lon="-4.077446423129537"><ele>57.800000000000004</ele><time>2026-05-02T09:39:30Z</time></trkpt><trkpt lat="43.28989985145714" lon="-4.077490307398779"><ele>58.2</ele><time>2026-05-02T09:39:31Z</time></trkpt><trkpt lat="43.28979575690506" lon="-4.07753383286002"><ele>58.6</ele><time>2026-05-02T09:39:32Z</time></trkpt><trkpt lat="43.28969931125058" lon="-4.077563420929982"><ele>59.0</ele><time>2026-05-02T09:39:33Z</time></trkpt><trkpt lat="43.28961815722257" lon="-4.077591582235196"><ele>59.2</ele><time>2026-05-02T09:39:34Z</time></trkpt><trkpt lat="43.2894902039285" lon="-4.0776653048546185"><ele>59.400000000000006</ele><time>2026-05-02T09:39:35Z</time></trkpt><trkpt lat="43.28939490897246" lon="-4.077709656864701"><ele>59.6</ele><time>2026-05-02T09:39:36Z</time></trkpt><trkpt lat="43.289299192644926" lon="-4.077750887331467"><ele>59.8</ele><time>2026-05-02T09:39:37Z</time></trkpt><trkpt lat="43.28921038846979" lon="-4.077795567635724"><ele>60.0</ele><time>2026-05-02T09:39:38Z</time></trkpt><trkpt lat="43.28912539478274" lon="-4.077861811106656"><ele>60.0</ele><time>2026-05-02T09:39:39Z</time></trkpt><trkpt lat="43.289058502541174" lon="-4.077946614941043"><ele>60.0</ele><time>2026-05-02T09:39:40Z</time></trkpt><trkpt lat="43.28900384340134" lon="-4.078036308854639"><ele>60.0</ele><time>2026-05-02T09:39:41.001Z</time></trkpt><trkpt lat="43.28894728706782" lon="-4.078119514993633"><ele>60.0</ele><time>2026-05-02T09:39:42.001Z</time></trkpt><trkpt lat="43.288887417557824" lon="-4.078184488699581"><ele>60.0</ele><time>2026-05-02T09:39:43.001Z</time></trkpt><trkpt lat="43.28883074257958" lon="-4.078253001582189"><ele>60.0</ele><time>2026-05-02T09:39:44.001Z</time></trkpt><trkpt lat="43.288755004541024" lon="-4.0782759540991345"><ele>60.0</ele><time>2026-05-02T09:39:45.001Z</time></trkpt><trkpt lat="43.28867933158904" lon="-4.078267644875866"><ele>60.0</ele><time>2026-05-02T09:39:46.001Z</time></trkpt><trkpt lat="43.288605043898734" lon="-4.078226948408237"><ele>60.0</ele><time>2026-05-02T09:39:47.001Z</time></trkpt><trkpt lat="43.288550739973985" lon="-4.078137845301262"><ele>60.0</ele><time>2026-05-02T09:39:48.001Z</time></trkpt><trkpt lat="43.2884844686523" lon="-4.078086044900804"><ele>60.0</ele><time>2026-05-02T09:39:49.001Z</time></trkpt><trkpt lat="43.28848279947779" lon="-4.077943210617825"><ele>60.0</ele><time>2026-05-02T09:39:50.001Z</time></trkpt><trkpt lat="43.288480458188666" lon="-4.077825031128069"><ele>60.0</ele><time>2026-05-02T09:39:51.001Z</time></trkpt><trkpt lat="43.28849189798912" lon="-4.07770452186577"><ele>60.0</ele><time>2026-05-02T09:39:52.001Z</time></trkpt><trkpt lat="43.28849736613639" lon="-4.077584248261818"><ele>60.0</ele><time>2026-05-02T09:39:53.001Z</time></trkpt><trkpt lat="43.288484457717495" lon="-4.077460759612848"><ele>60.0</ele><time>2026-05-02T09:39:54.001Z</time></trkpt><trkpt lat="43.28845680202656" lon="-4.07734181497391"><ele>60.0</ele><time>2026-05-02T09:39:55.001Z</time></trkpt><trkpt lat="43.28841216456411" lon="-4.077226112849002"><ele>60.0</ele><time>2026-05-02T09:39:56.001Z</time></trkpt><trkpt lat="43.28835312815094" lon="-4.077118210705868"><ele>60.0</ele><time>2026-05-02T09:39:57.001Z</time></trkpt><trkpt lat="43.288290870709005" lon="-4.077034965287081"><ele>60.0</ele><time>2026-05-02T09:39:58.001Z</time></trkpt><trkpt lat="43.28823247842757" lon="-4.076965910563094"><ele>60.0</ele><time>2026-05-02T09:39:59.001Z</time></trkpt><trkpt lat="43.288196836999354" lon="-4.076880500951509"><ele>60.0</ele><time>2026-05-02T09:40:00.001Z</time></trkpt><trkpt lat="43.288114551386236" lon="-4.076862250292178"><ele>60.0</ele><time>2026-05-02T09:40:01.001Z</time></trkpt><trkpt lat="43.28804295428806" lon="-4.076808432931926"><ele>60.0</ele><time>2026-05-02T09:40:02.001Z</time></trkpt><trkpt lat="43.28796367067638" lon="-4.07676382651617"><ele>60.0</ele><time>2026-05-02T09:40:03.001Z</time></trkpt><trkpt lat="43.28787945755391" lon="-4.076728908450959"><ele>60.0</ele><time>2026-05-02T09:40:04.001Z</time></trkpt><trkpt lat="43.2877873010655" lon="-4.076704565443569"><ele>60.0</ele><time>2026-05-02T09:40:05.001Z</time></trkpt><trkpt lat="43.28769135966747" lon="-4.076687809788649"><ele>60.0</ele><time>2026-05-02T09:40:06.001Z</time></trkpt><trkpt lat="43.28759813382386" lon="-4.076674268191244"><ele>60.0</ele><time>2026-05-02T09:40:07.001Z</time></trkpt><trkpt lat="43.28750295143813" lon="-4.07665815541935"><ele>60.0</ele><time>2026-05-02T09:40:08.001Z</time></trkpt><trkpt lat="43.287407674150266" lon="-4.076639561833931"><ele>60.0</ele><time>2026-05-02T09:40:09.001Z</time></trkpt><trkpt lat="43.287311164444574" lon="-4.076625338525129"><ele>60.0</ele><time>2026-05-02T09:40:10.001Z</time></trkpt><trkpt lat="43.287216599899935" lon="-4.076608618305828"><ele>60.0</ele><time>2026-05-02T09:40:11.001Z</time></trkpt><trkpt lat="43.28712341442114" lon="-4.076583818053624"><ele>60.0</ele><time>2026-05-02T09:40:12.001Z</time></trkpt><trkpt lat="43.28703132402649" lon="-4.076547191882489"><ele>60.0</ele><time>2026-05-02T09:40:13.001Z</time></trkpt><trkpt lat="43.28693669916665" lon="-4.076506781810063"><ele>60.0</ele><time>2026-05-02T09:40:14.001Z</time></trkpt><trkpt lat="43.286847319198145" lon="-4.076459474049668"><ele>60.0</ele><time>2026-05-02T09:40:15.001Z</time></trkpt><trkpt lat="43.28676303507026" lon="-4.076398299755971"><ele>60.0</ele><time>2026-05-02T09:40:16.001Z</time></trkpt><trkpt lat="43.286679567435634" lon="-4.076327186336577"><ele>60.0</ele><time>2026-05-02T09:40:17.001Z</time></trkpt><trkpt lat="43.286598449810974" lon="-4.076253456425193"><ele>60.0</ele><time>2026-05-02T09:40:18.001Z</time></trkpt><trkpt lat="43.286520682110954" lon="-4.07617095513008"><ele>60.0</ele><time>2026-05-02T09:40:19.001Z</time></trkpt><trkpt lat="43.28644928323756" lon="-4.076081030526714"><ele>60.0</ele><time>2026-05-02T09:40:20.001Z</time></trkpt><trkpt lat="43.286382453853584" lon="-4.075982055262714"><ele>60.0</ele><time>2026-05-02T09:40:21.001Z</time></trkpt><trkpt lat="43.28632038128116" lon="-4.075877393584991"><ele>60.4</ele><time>2026-05-02T09:40:22.001Z</time></trkpt><trkpt lat="43.28626335256983" lon="-4.0757655902249335"><ele>60.8</ele><time>2026-05-02T09:40:23.001Z</time></trkpt><trkpt lat="43.286214137066494" lon="-4.075647460328124"><ele>61.2</ele><time>2026-05-02T09:40:24.001Z</time></trkpt><trkpt lat="43.286171032949035" lon="-4.075525029136378"><ele>61.6</ele><time>2026-05-02T09:40:25.001Z</time></trkpt><trkpt lat="43.28612597149413" lon="-4.075402130317707"><ele>62.0</ele><time>2026-05-02T09:40:26.001Z</time></trkpt><trkpt lat="43.28608391726958" lon="-4.075281223736225"><ele>62.0</ele><time>2026-05-02T09:40:27.001Z</time></trkpt><trkpt lat="43.28604485715474" lon="-4.075157317570726"><ele>62.0</ele><time>2026-05-02T09:40:28.001Z</time></trkpt><trkpt lat="43.28600489540055" lon="-4.075031540299027"><ele>62.0</ele><time>2026-05-02T09:40:29.001Z</time></trkpt><trkpt lat="43.285958673852896" lon="-4.074910163542899"><ele>62.0</ele><time>2026-05-02T09:40:30.001Z</time></trkpt><trkpt lat="43.28590968980755" lon="-4.074789456030768"><ele>62.0</ele><time>2026-05-02T09:40:31.001Z</time></trkpt><trkpt lat="43.28585644100622" lon="-4.074670596488196"><ele>62.2</ele><time>2026-05-02T09:40:32.001Z</time></trkpt><trkpt lat="43.2857959288885" lon="-4.074556400066276"><ele>62.400000000000006</ele><time>2026-05-02T09:40:33.001Z</time></trkpt><trkpt lat="43.28572460916617" lon="-4.074449726921646"><ele>62.599999999999994</ele><time>2026-05-02T09:40:34.001Z</time></trkpt><trkpt lat="43.28565068696396" lon="-4.074344955806999"><ele>62.8</ele><time>2026-05-02T09:40:35.001Z</time></trkpt><trkpt lat="43.285551466199664" lon="-4.074244489777348"><ele>63.0</ele><time>2026-05-02T09:40:36.001Z</time></trkpt><trkpt lat="43.2853931898471" lon="-4.0741387866460075"><ele>63.0</ele><time>2026-05-02T09:40:37.001Z</time></trkpt><trkpt lat="43.28520791519228" lon="-4.074012136050656"><ele>63.0</ele><time>2026-05-02T09:40:38.001Z</time></trkpt><trkpt lat="43.28529447864883" lon="-4.074027760508237"><ele>63.0</ele><time>2026-05-02T09:40:39.001Z</time></trkpt><trkpt lat="43.2851903175098" lon="-4.073975353717999"><ele>63.0</ele><time>2026-05-02T09:40:40.001Z</time></trkpt><trkpt lat="43.28508537124132" lon="-4.073913371850819"><ele>63.0</ele><time>2026-05-02T09:40:41.001Z</time></trkpt><trkpt lat="43.28497686701374" lon="-4.0738737183321945"><ele>63.0</ele><time>2026-05-02T09:40:42.001Z</time></trkpt><trkpt lat="43.284865899642874" lon="-4.073837965841834"><ele>63.0</ele><time>2026-05-02T09:40:43.001Z</time></trkpt><trkpt lat="43.28475367101246" lon="-4.073802949232784"><ele>63.0</ele><time>2026-05-02T09:40:44.002Z</time></trkpt><trkpt lat="43.28464322179852" lon="-4.073768252655849"><ele>63.25</ele><time>2026-05-02T09:40:45.002Z</time></trkpt><trkpt lat="43.28453688357241" lon="-4.073732433233155"><ele>63.5</ele><time>2026-05-02T09:40:46.002Z</time></trkpt><trkpt lat="43.284424973040444" lon="-4.073694165843502"><ele>63.75</ele><time>2026-05-02T09:40:47.002Z</time></trkpt><trkpt lat="43.28431408476518" lon="-4.073656345747605"><ele>64.0</ele><time>2026-05-02T09:40:48.002Z</time></trkpt><trkpt lat="43.28420664336436" lon="-4.0736205679893285"><ele>64.0</ele><time>2026-05-02T09:40:49.002Z</time></trkpt><trkpt lat="43.28409904251241" lon="-4.073587015225729"><ele>64.0</ele><time>2026-05-02T09:40:50.002Z</time></trkpt><trkpt lat="43.28398963609001" lon="-4.073549875155776"><ele>64.0</ele><time>2026-05-02T09:40:51.002Z</time></trkpt><trkpt lat="43.28388186659732" lon="-4.073513769659979"><ele>64.0</ele><time>2026-05-02T09:40:52.002Z</time></trkpt><trkpt lat="43.28377552932084" lon="-4.073476431838604"><ele>64.0</ele><time>2026-05-02T09:40:53.002Z</time></trkpt><trkpt lat="43.283669285062466" lon="-4.073441266967095"><ele>64.0</ele><time>2026-05-02T09:40:54.002Z</time></trkpt><trkpt lat="43.283564604107944" lon="-4.073400838394409"><ele>64.0</ele><time>2026-05-02T09:40:55.002Z</time></trkpt><trkpt lat="43.283462880608646" lon="-4.073341248683596"><ele>64.0</ele><time>2026-05-02T09:40:56.002Z</time></trkpt><trkpt lat="43.283363059775255" lon="-4.073274709324567"><ele>64.0</ele><time>2026-05-02T09:40:57.002Z</time></trkpt><trkpt lat="43.28326962697673" lon="-4.073200175619385"><ele>64.0</ele><time>2026-05-02T09:40:58.002Z</time></trkpt><trkpt lat="43.28318324256546" lon="-4.073114216136173"><ele>63.800000000000004</ele><time>2026-05-02T09:40:59.002Z</time></trkpt><trkpt lat="43.28309841060781" lon="-4.073020037794096"><ele>63.60000000000001</ele><time>2026-05-02T09:41:00.002Z</time></trkpt><trkpt lat="43.28301955035383" lon="-4.072916073833805"><ele>63.4</ele><time>2026-05-02T09:41:01Z</time></trkpt><trkpt lat="43.28294977955692" lon="-4.072787919125616"><ele>63.2</ele><time>2026-05-02T09:41:02Z</time></trkpt><trkpt lat="43.28288343202093" lon="-4.072665178279421"><ele>63.0</ele><time>2026-05-02T09:41:03Z</time></trkpt><trkpt lat="43.282824673896236" lon="-4.0725381256893085"><ele>63.0</ele><time>2026-05-02T09:41:04Z</time></trkpt><trkpt lat="43.28277499953147" lon="-4.072403345707911"><ele>63.0</ele><time>2026-05-02T09:41:05Z</time></trkpt><trkpt lat="43.28273456418996" lon="-4.072259584419829"><ele>63.0</ele><time>2026-05-02T09:41:06Z</time></trkpt><trkpt lat="43.28269990261166" lon="-4.072116178634693"><ele>63.0</ele><time>2026-05-02T09:41:07Z</time></trkpt><trkpt lat="43.28267333042721" lon="-4.0719712550562726"><ele>63.0</ele><time>2026-05-02T09:41:08Z</time></trkpt><trkpt lat="43.28265710731245" lon="-4.071820845462009"><ele>63.0</ele><time>2026-05-02T09:41:09Z</time></trkpt><trkpt lat="43.282646873886634" lon="-4.071670887814087"><ele>63.0</ele><time>2026-05-02T09:41:10Z</time></trkpt><trkpt lat="43.28264795520097" lon="-4.071519456123488"><ele>63.0</ele><time>2026-05-02T09:41:11Z</time></trkpt><trkpt lat="43.282653699338795" lon="-4.071398356975873"><ele>63.0</ele><time>2026-05-02T09:41:12Z</time></trkpt><trkpt lat="43.28266968535601" lon="-4.071269688393822"><ele>63.0</ele><time>2026-05-02T09:41:13Z</time></trkpt><trkpt lat="43.28268366107676" lon="-4.071139395993703"><ele>63.166666666666664</ele><time>2026-05-02T09:41:14Z</time></trkpt><trkpt lat="43.2826821962849" lon="-4.0710181491965685"><ele>63.33333333333333</ele><time>2026-05-02T09:41:15Z</time></trkpt><trkpt lat="43.28265246461418" lon="-4.070900270234032"><ele>63.5</ele><time>2026-05-02T09:41:16Z</time></trkpt><trkpt lat="43.28260715238892" lon="-4.070789395334576"><ele>63.666666666666664</ele><time>2026-05-02T09:41:17Z</time></trkpt><trkpt lat="43.28257051035406" lon="-4.0706748944957125"><ele>63.83333333333333</ele><time>2026-05-02T09:41:18Z</time></trkpt><trkpt lat="43.28255947109003" lon="-4.070559726223938"><ele>64.0</ele><time>2026-05-02T09:41:19Z</time></trkpt><trkpt lat="43.28257921908978" lon="-4.070448162488978"><ele>64.2</ele><time>2026-05-02T09:41:20Z</time></trkpt><trkpt lat="43.28262744629343" lon="-4.070349810316258"><ele>64.4</ele><time>2026-05-02T09:41:21Z</time></trkpt><trkpt lat="43.28269932524309" lon="-4.0702835826284165"><ele>64.6</ele><time>2026-05-02T09:41:22Z</time></trkpt><trkpt lat="43.28278813553954" lon="-4.070246804731469"><ele>64.8</ele><time>2026-05-02T09:41:23Z</time></trkpt><trkpt lat="43.282883128380476" lon="-4.070225916370496"><ele>65.0</ele><time>2026-05-02T09:41:24Z</time></trkpt><trkpt lat="43.28297745756977" lon="-4.070198379337391"><ele>65.0</ele><time>2026-05-02T09:41:25Z</time></trkpt><trkpt lat="43.28307018464231" lon="-4.0701421241229445"><ele>65.0</ele><time>2026-05-02T09:41:26Z</time></trkpt><trkpt lat="43.283163035383154" lon="-4.070077344316979"><ele>65.0</ele><time>2026-05-02T09:41:27Z</time></trkpt><trkpt lat="43.283219852565644" lon="-4.069931879076766"><ele>65.0</ele><time>2026-05-02T09:41:28Z</time></trkpt><trkpt lat="43.283278221839744" lon="-4.069811344657085"><ele>65.0</ele><time>2026-05-02T09:41:29Z</time></trkpt><trkpt lat="43.283340666662845" lon="-4.0697018838422725"><ele>64.8</ele><time>2026-05-02T09:41:30Z</time></trkpt><trkpt lat="43.28341109548792" lon="-4.06958452084376"><ele>64.6</ele><time>2026-05-02T09:41:31Z</time></trkpt><trkpt lat="43.28347351261948" lon="-4.069463659175736"><ele>64.4</ele><time>2026-05-02T09:41:32Z</time></trkpt><trkpt lat="43.28353602058538" lon="-4.069344712080592"><ele>64.2</ele><time>2026-05-02T09:41:33Z</time></trkpt><trkpt lat="43.28360643412851" lon="-4.0692258428630455"><ele>64.0</ele><time>2026-05-02T09:41:34Z</time></trkpt><trkpt lat="43.283672779379096" lon="-4.069108630893325"><ele>63.800000000000004</ele><time>2026-05-02T09:41:35Z</time></trkpt><trkpt lat="43.28373784247298" lon="-4.068995200562678"><ele>63.60000000000001</ele><time>2026-05-02T09:41:36Z</time></trkpt><trkpt lat="43.28380289478241" lon="-4.068885530697578"><ele>63.4</ele><time>2026-05-02T09:41:37Z</time></trkpt><trkpt lat="43.283868105442714" lon="-4.068774346860858"><ele>63.2</ele><time>2026-05-02T09:41:38Z</time></trkpt><trkpt lat="43.2839322067947" lon="-4.068661531919025"><ele>63.0</ele><time>2026-05-02T09:41:39Z</time></trkpt><trkpt lat="43.283994071190975" lon="-4.068546480284089"><ele>63.0</ele><time>2026-05-02T09:41:40Z</time></trkpt><trkpt lat="43.28405917073705" lon="-4.068437562462304"><ele>63.0</ele><time>2026-05-02T09:41:41Z</time></trkpt><trkpt lat="43.28412245961768" lon="-4.068329544869131"><ele>63.0</ele><time>2026-05-02T09:41:42Z</time></trkpt><trkpt lat="43.284190940671344" lon="-4.0682098972140235"><ele>63.0</ele><time>2026-05-02T09:41:43Z</time></trkpt><trkpt lat="43.28425327820621" lon="-4.068102232070668"><ele>63.0</ele><time>2026-05-02T09:41:44Z</time></trkpt><trkpt lat="43.28431772292919" lon="-4.067990357046278"><ele>62.8</ele><time>2026-05-02T09:41:45Z</time></trkpt><trkpt lat="43.28438202089165" lon="-4.067878294549249"><ele>62.599999999999994</ele><time>2026-05-02T09:41:46Z</time></trkpt><trkpt lat="43.28444621801106" lon="-4.067765206047929"><ele>62.400000000000006</ele><time>2026-05-02T09:41:47Z</time></trkpt><trkpt lat="43.284511456664504" lon="-4.06765747113952"><ele>62.2</ele><time>2026-05-02T09:41:48Z</time></trkpt><trkpt lat="43.28457731800222" lon="-4.067538257008304"><ele>62.0</ele><time>2026-05-02T09:41:49.001Z</time></trkpt><trkpt lat="43.28464038177676" lon="-4.067424577046032"><ele>62.0</ele><time>2026-05-02T09:41:50.001Z</time></trkpt><trkpt lat="43.28470217679189" lon="-4.067312884343798"><ele>62.0</ele><time>2026-05-02T09:41:51.001Z</time></trkpt><trkpt lat="43.28474287153995" lon="-4.067217985028038"><ele>62.0</ele><time>2026-05-02T09:41:52.001Z</time></trkpt><trkpt lat="43.28477768573652" lon="-4.067139084328909"><ele>62.0</ele><time>2026-05-02T09:41:53.001Z</time></trkpt><trkpt lat="43.28491339922972" lon="-4.06695723771239"><ele>62.0</ele><time>2026-05-02T09:41:54.001Z</time></trkpt><trkpt lat="43.28497853600045" lon="-4.066838282104524"><ele>62.400000000000006</ele><time>2026-05-02T09:41:55.001Z</time></trkpt><trkpt lat="43.28504535639153" lon="-4.066719831797927"><ele>62.800000000000004</ele><time>2026-05-02T09:41:56.001Z</time></trkpt><trkpt lat="43.28511230435184" lon="-4.066605047076803"><ele>63.2</ele><time>2026-05-02T09:41:57.001Z</time></trkpt><trkpt lat="43.28517299097811" lon="-4.066487295709998"><ele>63.6</ele><time>2026-05-02T09:41:58.001Z</time></trkpt><trkpt lat="43.28523767126839" lon="-4.066370299513353"><ele>64.0</ele><time>2026-05-02T09:41:59.001Z</time></trkpt><trkpt lat="43.285301124101785" lon="-4.066246878273304"><ele>64.0</ele><time>2026-05-02T09:42:00.001Z</time></trkpt><trkpt lat="43.28535351777555" lon="-4.066121954329647"><ele>64.0</ele><time>2026-05-02T09:42:01.001Z</time></trkpt><trkpt lat="43.2854047906995" lon="-4.065996522281325"><ele>64.0</ele><time>2026-05-02T09:42:02.001Z</time></trkpt><trkpt lat="43.285457552321006" lon="-4.065866895385865"><ele>64.0</ele><time>2026-05-02T09:42:03.001Z</time></trkpt><trkpt lat="43.28550675518694" lon="-4.065735704264433"><ele>64.0</ele><time>2026-05-02T09:42:04.001Z</time></trkpt><trkpt lat="43.285553243746286" lon="-4.065600539281296"><ele>68.4</ele><time>2026-05-02T09:42:05.001Z</time></trkpt><trkpt lat="43.28559658858445" lon="-4.065468956929814"><ele>72.80000000000001</ele><time>2026-05-02T09:42:06.001Z</time></trkpt><trkpt lat="43.28563133810796" lon="-4.0653292625559105"><ele>77.19999999999999</ele><time>2026-05-02T09:42:07.001Z</time></trkpt><trkpt lat="43.28566187937107" lon="-4.0651899278751715"><ele>81.6</ele><time>2026-05-02T09:42:08.001Z</time></trkpt><trkpt lat="43.285691461933176" lon="-4.065052366747274"><ele>86.0</ele><time>2026-05-02T09:42:09.001Z</time></trkpt><trkpt lat="43.285722404083046" lon="-4.064911584982525"><ele>87.4</ele><time>2026-05-02T09:42:10.001Z</time></trkpt><trkpt lat="43.28574473311993" lon="-4.064770351445385"><ele>88.8</ele><time>2026-05-02T09:42:11.001Z</time></trkpt><trkpt lat="43.285764235045846" lon="-4.064627539962543"><ele>90.2</ele><time>2026-05-02T09:42:12.001Z</time></trkpt><trkpt lat="43.28578244283881" lon="-4.0644866148784455"><ele>91.60000000000001</ele><time>2026-05-02T09:42:13.001Z</time></trkpt><trkpt lat="43.28579623503286" lon="-4.064348413350339"><ele>93.0</ele><time>2026-05-02T09:42:14.001Z</time></trkpt><trkpt lat="43.285805422638575" lon="-4.0642032341333065"><ele>92.60000000000001</ele><time>2026-05-02T09:42:15.001Z</time></trkpt><trkpt lat="43.28580888333628" lon="-4.06406132038083"><ele>92.2</ele><time>2026-05-02T09:42:16.001Z</time></trkpt><trkpt lat="43.28579759769731" lon="-4.063914937834531"><ele>91.8</ele><time>2026-05-02T09:42:17.001Z</time></trkpt><trkpt lat="43.28578840798931" lon="-4.063767578229728"><ele>91.4</ele><time>2026-05-02T09:42:18.001Z</time></trkpt><trkpt lat="43.2857695135122" lon="-4.063633777893191"><ele>91.0</ele><time>2026-05-02T09:42:19.001Z</time></trkpt><trkpt lat="43.285747989724634" lon="-4.063542353307188"><ele>92.66666666666666</ele><time>2026-05-02T09:42:20.001Z</time></trkpt><trkpt lat="43.28572446813662" lon="-4.063195201321543"><ele>94.33333333333333</ele><time>2026-05-02T09:42:22.001Z</time></trkpt><trkpt lat="43.28570539840777" lon="-4.063051426188288"><ele>96.0</ele><time>2026-05-02T09:42:23.001Z</time></trkpt><trkpt lat="43.28568492168746" lon="-4.062908896652227"><ele>96.0</ele><time>2026-05-02T09:42:24.001Z</time></trkpt><trkpt lat="43.28566075881251" lon="-4.062772549972992"><ele>96.0</ele><time>2026-05-02T09:42:25.001Z</time></trkpt><trkpt lat="43.285639244113035" lon="-4.0626294493787025"><ele>96.0</ele><time>2026-05-02T09:42:26.001Z</time></trkpt><trkpt lat="43.2856166849564" lon="-4.062484885376727"><ele>96.0</ele><time>2026-05-02T09:42:27.001Z</time></trkpt><trkpt lat="43.285598100662725" lon="-4.062338223833355"><ele>96.0</ele><time>2026-05-02T09:42:28.001Z</time></trkpt><trkpt lat="43.28557752639867" lon="-4.062198154371671"><ele>92.2</ele><time>2026-05-02T09:42:29.001Z</time></trkpt><trkpt lat="43.28555757222657" lon="-4.062055046222607"><ele>88.39999999999999</ele><time>2026-05-02T09:42:30.001Z</time></trkpt><trkpt lat="43.28553569751022" lon="-4.061911584175923"><ele>84.6</ele><time>2026-05-02T09:42:31.001Z</time></trkpt><trkpt lat="43.28551388307653" lon="-4.061766573650856"><ele>80.8</ele><time>2026-05-02T09:42:32.001Z</time></trkpt><trkpt lat="43.28549146940867" lon="-4.061624219453811"><ele>77.0</ele><time>2026-05-02T09:42:33.001Z</time></trkpt><trkpt lat="43.28546562256844" lon="-4.06148094411348"><ele>77.0</ele><time>2026-05-02T09:42:34.001Z</time></trkpt><trkpt lat="43.28544095157819" lon="-4.061336638568757"><ele>77.0</ele><time>2026-05-02T09:42:35.001Z</time></trkpt><trkpt lat="43.285419592237076" lon="-4.06119742308456"><ele>77.0</ele><time>2026-05-02T09:42:36.001Z</time></trkpt><trkpt lat="43.285400362535995" lon="-4.061052000848536"><ele>77.0</ele><time>2026-05-02T09:42:37.001Z</time></trkpt><trkpt lat="43.28537114821958" lon="-4.060910435307279"><ele>77.0</ele><time>2026-05-02T09:42:38.001Z</time></trkpt><trkpt lat="43.28534583158758" lon="-4.060770732779216"><ele>78.4</ele><time>2026-05-02T09:42:39.001Z</time></trkpt><trkpt lat="43.285321138354654" lon="-4.060631392177783"><ele>79.80000000000001</ele><time>2026-05-02T09:42:40.001Z</time></trkpt><trkpt lat="43.28529894118486" lon="-4.060484026953442"><ele>81.2</ele><time>2026-05-02T09:42:41.001Z</time></trkpt><trkpt lat="43.28527652598412" lon="-4.060338631942081"><ele>82.60000000000001</ele><time>2026-05-02T09:42:42.001Z</time></trkpt><trkpt lat="43.28525180884824" lon="-4.060194834483057"><ele>84.0</ele><time>2026-05-02T09:42:43.001Z</time></trkpt><trkpt lat="43.28522729826034" lon="-4.060051613783982"><ele>84.6</ele><time>2026-05-02T09:42:44.001Z</time></trkpt><trkpt lat="43.28520624183082" lon="-4.05990601023905"><ele>85.2</ele><time>2026-05-02T09:42:45.001Z</time></trkpt><trkpt lat="43.285182783739344" lon="-4.0597648414175955"><ele>85.8</ele><time>2026-05-02T09:42:46.001Z</time></trkpt><trkpt lat="43.28515658703172" lon="-4.059622455690262"><ele>86.39999999999999</ele><time>2026-05-02T09:42:47.001Z</time></trkpt><trkpt lat="43.28513299587124" lon="-4.059479866670605"><ele>87.0</ele><time>2026-05-02T09:42:48.001Z</time></trkpt><trkpt lat="43.28510688365701" lon="-4.059337130059462"><ele>87.0</ele><time>2026-05-02T09:42:49.001Z</time></trkpt><trkpt lat="43.28508691166531" lon="-4.059192722682923"><ele>87.0</ele><time>2026-05-02T09:42:50.002Z</time></trkpt><trkpt lat="43.28506356131542" lon="-4.059052234418484"><ele>87.0</ele><time>2026-05-02T09:42:51.002Z</time></trkpt><trkpt lat="43.2850388907774" lon="-4.0589090742046965"><ele>87.0</ele><time>2026-05-02T09:42:52.002Z</time></trkpt><trkpt lat="43.285016704201794" lon="-4.0587659634261275"><ele>87.0</ele><time>2026-05-02T09:42:53.002Z</time></trkpt><trkpt lat="43.28498982330088" lon="-4.0586285246256235"><ele>89.8</ele><time>2026-05-02T09:42:54.002Z</time></trkpt><trkpt lat="43.28496701039413" lon="-4.058481289757509"><ele>92.6</ele><time>2026-05-02T09:42:55.002Z</time></trkpt><trkpt lat="43.28494406204249" lon="-4.058334583170991"><ele>95.39999999999999</ele><time>2026-05-02T09:42:56.002Z</time></trkpt><trkpt lat="43.2849118488704" lon="-4.058195369341888"><ele>98.19999999999999</ele><time>2026-05-02T09:42:57.002Z</time></trkpt><trkpt lat="43.28488697566106" lon="-4.058052772315813"><ele>101.0</ele><time>2026-05-02T09:42:58.002Z</time></trkpt><trkpt lat="43.28486186012608" lon="-4.057905873002983"><ele>103.19999999999999</ele><time>2026-05-02T09:42:59.002Z</time></trkpt><trkpt lat="43.284834905111595" lon="-4.057765094933056"><ele>105.39999999999999</ele><time>2026-05-02T09:43:00.002Z</time></trkpt><trkpt lat="43.28481151353132" lon="-4.0576241145334455"><ele>107.6</ele><time>2026-05-02T09:43:01.002Z</time></trkpt><trkpt lat="43.2847895125604" lon="-4.057480699993447"><ele>109.8</ele><time>2026-05-02T09:43:02.002Z</time></trkpt><trkpt lat="43.28476756297429" lon="-4.0573376321917465"><ele>112.0</ele><time>2026-05-02T09:43:03.002Z</time></trkpt><trkpt lat="43.28474464731744" lon="-4.0571946203765465"><ele>105.8</ele><time>2026-05-02T09:43:04.002Z</time></trkpt><trkpt lat="43.284722067697324" lon="-4.057050841972877"><ele>99.6</ele><time>2026-05-02T09:43:05.002Z</time></trkpt><trkpt lat="43.28470026194685" lon="-4.056909612245661"><ele>93.39999999999999</ele><time>2026-05-02T09:43:06.002Z</time></trkpt><trkpt lat="43.28468321468204" lon="-4.056769032800953"><ele>87.19999999999999</ele><time>2026-05-02T09:43:07Z</time></trkpt><trkpt lat="43.284667423634474" lon="-4.056627828927386"><ele>81.0</ele><time>2026-05-02T09:43:08Z</time></trkpt><trkpt lat="43.28465031676819" lon="-4.056481140259079"><ele>81.0</ele><time>2026-05-02T09:43:09Z</time></trkpt><trkpt lat="43.28463735559879" lon="-4.056337183246256"><ele>81.0</ele><time>2026-05-02T09:43:10Z</time></trkpt><trkpt lat="43.28462554286392" lon="-4.056192148427114"><ele>81.0</ele><time>2026-05-02T09:43:11Z</time></trkpt><trkpt lat="43.2846222591102" lon="-4.056044307268154"><ele>81.0</ele><time>2026-05-02T09:43:12Z</time></trkpt><trkpt lat="43.28461860309693" lon="-4.05589692483831"><ele>81.0</ele><time>2026-05-02T09:43:13Z</time></trkpt><trkpt lat="43.28461531544747" lon="-4.055749431934758"><ele>81.4</ele><time>2026-05-02T09:43:14Z</time></trkpt><trkpt lat="43.28461209523099" lon="-4.055600702047587"><ele>81.8</ele><time>2026-05-02T09:43:15Z</time></trkpt><trkpt lat="43.284609843903226" lon="-4.055452513659855"><ele>82.2</ele><time>2026-05-02T09:43:16Z</time></trkpt><trkpt lat="43.28460643395775" lon="-4.055303994561991"><ele>82.60000000000001</ele><time>2026-05-02T09:43:17Z</time></trkpt><trkpt lat="43.28460820849307" lon="-4.055149311567797"><ele>83.0</ele><time>2026-05-02T09:43:18Z</time></trkpt><trkpt lat="43.28461023455622" lon="-4.054999897870901"><ele>83.2</ele><time>2026-05-02T09:43:19Z</time></trkpt><trkpt lat="43.28460803806228" lon="-4.054853934189264"><ele>83.4</ele><time>2026-05-02T09:43:20Z</time></trkpt><trkpt lat="43.28460573054974" lon="-4.05470655553415"><ele>83.60000000000001</ele><time>2026-05-02T09:43:21Z</time></trkpt><trkpt lat="43.284601424175676" lon="-4.0545610611083545"><ele>83.80000000000001</ele><time>2026-05-02T09:43:22Z</time></trkpt><trkpt lat="43.284596412805634" lon="-4.0544147376808555"><ele>84.0</ele><time>2026-05-02T09:43:23Z</time></trkpt><trkpt lat="43.28458989014225" lon="-4.054266809228948"><ele>85.4</ele><time>2026-05-02T09:43:24Z</time></trkpt><trkpt lat="43.284581271980315" lon="-4.054118537432815"><ele>86.80000000000001</ele><time>2026-05-02T09:43:25Z</time></trkpt><trkpt lat="43.284569002134994" lon="-4.053972266584715"><ele>88.19999999999999</ele><time>2026-05-02T09:43:26Z</time></trkpt><trkpt lat="43.28455491948758" lon="-4.0538293994178165"><ele>89.6</ele><time>2026-05-02T09:43:27Z</time></trkpt><trkpt lat="43.28453652488465" lon="-4.053688585856676"><ele>91.0</ele><time>2026-05-02T09:43:28Z</time></trkpt><trkpt lat="43.28451293620143" lon="-4.053545544540528"><ele>91.0</ele><time>2026-05-02T09:43:29Z</time></trkpt><trkpt lat="43.28448549676901" lon="-4.0534058687986425"><ele>91.0</ele><time>2026-05-02T09:43:30Z</time></trkpt><trkpt lat="43.284454266689586" lon="-4.053263181655286"><ele>91.0</ele><time>2026-05-02T09:43:31Z</time></trkpt><trkpt lat="43.28442281318707" lon="-4.053122554637373"><ele>91.0</ele><time>2026-05-02T09:43:32Z</time></trkpt><trkpt lat="43.28438953994365" lon="-4.052986324501678"><ele>91.0</ele><time>2026-05-02T09:43:33Z</time></trkpt><trkpt lat="43.28434884354089" lon="-4.052852265838555"><ele>91.8</ele><time>2026-05-02T09:43:34Z</time></trkpt><trkpt lat="43.28430525494072" lon="-4.052722390161348"><ele>92.6</ele><time>2026-05-02T09:43:35Z</time></trkpt><trkpt lat="43.284261255508675" lon="-4.052591931057948"><ele>93.4</ele><time>2026-05-02T09:43:36Z</time></trkpt><trkpt lat="43.28421126028833" lon="-4.052462695143188"><ele>94.2</ele><time>2026-05-02T09:43:37Z</time></trkpt><trkpt lat="43.28416226367509" lon="-4.05233924957057"><ele>95.0</ele><time>2026-05-02T09:43:38Z</time></trkpt><trkpt lat="43.28410970155535" lon="-4.052216234143491"><ele>94.8</ele><time>2026-05-02T09:43:39Z</time></trkpt><trkpt lat="43.28405361394496" lon="-4.052097108172781"><ele>94.6</ele><time>2026-05-02T09:43:40Z</time></trkpt><trkpt lat="43.28399698688764" lon="-4.051976448571984"><ele>94.4</ele><time>2026-05-02T09:43:41Z</time></trkpt><trkpt lat="43.28393729403594" lon="-4.051858386639048"><ele>94.2</ele><time>2026-05-02T09:43:42Z</time></trkpt><trkpt lat="43.283876467359526" lon="-4.051745283691716"><ele>94.0</ele><time>2026-05-02T09:43:43Z</time></trkpt><trkpt lat="43.28381637554107" lon="-4.051634267533268"><ele>95.4</ele><time>2026-05-02T09:43:44Z</time></trkpt><trkpt lat="43.28375399891282" lon="-4.051522520281463"><ele>96.80000000000001</ele><time>2026-05-02T09:43:45Z</time></trkpt><trkpt lat="43.28369294910775" lon="-4.051411382790414"><ele>98.19999999999999</ele><time>2026-05-02T09:43:46Z</time></trkpt><trkpt lat="43.2836326757901" lon="-4.051302147847312"><ele>99.6</ele><time>2026-05-02T09:43:47Z</time></trkpt><trkpt lat="43.28357091061044" lon="-4.051192017305211"><ele>101.0</ele><time>2026-05-02T09:43:48Z</time></trkpt><trkpt lat="43.28351063296259" lon="-4.051083419730705"><ele>101.0</ele><time>2026-05-02T09:43:49Z</time></trkpt><trkpt lat="43.28345176671084" lon="-4.050975756601635"><ele>101.0</ele><time>2026-05-02T09:43:50Z</time></trkpt><trkpt lat="43.28339077954176" lon="-4.050873299998448"><ele>101.0</ele><time>2026-05-02T09:43:51Z</time></trkpt><trkpt lat="43.283334769863714" lon="-4.0507614807075605"><ele>101.0</ele><time>2026-05-02T09:43:52Z</time></trkpt><trkpt lat="43.28327807382178" lon="-4.050656405866307"><ele>101.0</ele><time>2026-05-02T09:43:53Z</time></trkpt><trkpt lat="43.28321446322338" lon="-4.0505512929892715"><ele>101.0</ele><time>2026-05-02T09:43:54Z</time></trkpt><trkpt lat="43.28315390485871" lon="-4.0504454963514105"><ele>101.0</ele><time>2026-05-02T09:43:55Z</time></trkpt><trkpt lat="43.283098460595994" lon="-4.050337426896482"><ele>101.0</ele><time>2026-05-02T09:43:56Z</time></trkpt><trkpt lat="43.28304004348305" lon="-4.050232426997358"><ele>101.0</ele><time>2026-05-02T09:43:57Z</time></trkpt><trkpt lat="43.282978464376974" lon="-4.050127730650041"><ele>101.0</ele><time>2026-05-02T09:43:58Z</time></trkpt><trkpt lat="43.282921480529026" lon="-4.050019820941041"><ele>101.19999999999999</ele><time>2026-05-02T09:43:59.001Z</time></trkpt><trkpt lat="43.282862980738315" lon="-4.049914734110782"><ele>101.39999999999999</ele><time>2026-05-02T09:44:00.001Z</time></trkpt><trkpt lat="43.28280257942149" lon="-4.049809163306621"><ele>101.6</ele><time>2026-05-02T09:44:01.001Z</time></trkpt><trkpt lat="43.2827479602323" lon="-4.0497019692426885"><ele>101.8</ele><time>2026-05-02T09:44:02.001Z</time></trkpt><trkpt lat="43.28269603428297" lon="-4.049590441330218"><ele>102.0</ele><time>2026-05-02T09:44:03.001Z</time></trkpt><trkpt lat="43.28264310973333" lon="-4.049478893637576"><ele>102.0</ele><time>2026-05-02T09:44:04.001Z</time></trkpt><trkpt lat="43.28259440487225" lon="-4.049363620323418"><ele>102.0</ele><time>2026-05-02T09:44:05.001Z</time></trkpt><trkpt lat="43.28254856680796" lon="-4.049239757873765"><ele>102.0</ele><time>2026-05-02T09:44:06.001Z</time></trkpt><trkpt lat="43.28250456812533" lon="-4.04911823213545"><ele>102.0</ele><time>2026-05-02T09:44:07.001Z</time></trkpt><trkpt lat="43.282462649797694" lon="-4.0489921419257735"><ele>102.0</ele><time>2026-05-02T09:44:08.001Z</time></trkpt><trkpt lat="43.28242577201852" lon="-4.048861104430062"><ele>102.39999999999999</ele><time>2026-05-02T09:44:09.001Z</time></trkpt><trkpt lat="43.28239447926143" lon="-4.0487250602937985"><ele>102.8</ele><time>2026-05-02T09:44:10.001Z</time></trkpt><trkpt lat="43.282363667617496" lon="-4.048586591488888"><ele>103.2</ele><time>2026-05-02T09:44:11.001Z</time></trkpt><trkpt lat="43.282334031190466" lon="-4.048456164458417"><ele>103.6</ele><time>2026-05-02T09:44:12.001Z</time></trkpt><trkpt lat="43.28231711014006" lon="-4.048295647417377"><ele>104.0</ele><time>2026-05-02T09:44:13.001Z</time></trkpt><trkpt lat="43.28229434637741" lon="-4.0481497235375965"><ele>104.2</ele><time>2026-05-02T09:44:14.001Z</time></trkpt><trkpt lat="43.2822766296349" lon="-4.04801442222391"><ele>104.4</ele><time>2026-05-02T09:44:15.001Z</time></trkpt><trkpt lat="43.28227297075878" lon="-4.0478647940082855"><ele>104.6</ele><time>2026-05-02T09:44:16.001Z</time></trkpt><trkpt lat="43.282259266010676" lon="-4.047711473324961"><ele>104.8</ele><time>2026-05-02T09:44:17.001Z</time></trkpt><trkpt lat="43.28225742205452" lon="-4.047563043060473"><ele>105.0</ele><time>2026-05-02T09:44:18.001Z</time></trkpt><trkpt lat="43.28226073856735" lon="-4.047416136053562"><ele>104.8</ele><time>2026-05-02T09:44:19.001Z</time></trkpt><trkpt lat="43.28226526756172" lon="-4.047265650236004"><ele>104.6</ele><time>2026-05-02T09:44:20.001Z</time></trkpt><trkpt lat="43.28227532050056" lon="-4.047116639451531"><ele>104.4</ele><time>2026-05-02T09:44:21.001Z</time></trkpt><trkpt lat="43.282284439655484" lon="-4.046963741899427"><ele>104.2</ele><time>2026-05-02T09:44:22.001Z</time></trkpt><trkpt lat="43.282294018414206" lon="-4.0468119386230255"><ele>104.0</ele><time>2026-05-02T09:44:23.001Z</time></trkpt><trkpt lat="43.28230512773946" lon="-4.046658433559585"><ele>103.80000000000001</ele><time>2026-05-02T09:44:24.001Z</time></trkpt><trkpt lat="43.28231563631477" lon="-4.04650782471128"><ele>103.60000000000001</ele><time>2026-05-02T09:44:25.001Z</time></trkpt><trkpt lat="43.28232892883296" lon="-4.046351847156488"><ele>103.4</ele><time>2026-05-02T09:44:26.001Z</time></trkpt><trkpt lat="43.28233926300441" lon="-4.046203054190624"><ele>103.2</ele><time>2026-05-02T09:44:27.001Z</time></trkpt><trkpt lat="43.282348336956446" lon="-4.046050763956921"><ele>103.0</ele><time>2026-05-02T09:44:28.001Z</time></trkpt><trkpt lat="43.28235727016842" lon="-4.045903039482161"><ele>103.0</ele><time>2026-05-02T09:44:29.001Z</time></trkpt><trkpt lat="43.2823674074431" lon="-4.045757338417541"><ele>103.0</ele><time>2026-05-02T09:44:30.001Z</time></trkpt><trkpt lat="43.28237699027857" lon="-4.045611877184822"><ele>103.0</ele><time>2026-05-02T09:44:31.001Z</time></trkpt><trkpt lat="43.28238742199459" lon="-4.045468592348204"><ele>103.0</ele><time>2026-05-02T09:44:32.001Z</time></trkpt><trkpt lat="43.2823982580438" lon="-4.0453205428561105"><ele>103.0</ele><time>2026-05-02T09:44:33.001Z</time></trkpt><trkpt lat="43.28240797913185" lon="-4.045172661075892"><ele>103.0</ele><time>2026-05-02T09:44:34.001Z</time></trkpt><trkpt lat="43.28241795657625" lon="-4.045028014732881"><ele>103.0</ele><time>2026-05-02T09:44:35.001Z</time></trkpt><trkpt lat="43.282424872626585" lon="-4.044889604928451"><ele>103.0</ele><time>2026-05-02T09:44:36.001Z</time></trkpt><trkpt lat="43.28243312934351" lon="-4.044761284937773"><ele>103.0</ele><time>2026-05-02T09:44:37.001Z</time></trkpt><trkpt lat="43.28244157711771" lon="-4.0446407860226845"><ele>103.0</ele><time>2026-05-02T09:44:38.001Z</time></trkpt><trkpt lat="43.28244130128092" lon="-4.04452496043435"><ele>103.00000000000001</ele><time>2026-05-02T09:44:39.001Z</time></trkpt><trkpt lat="43.28242605346552" lon="-4.0444130853600955"><ele>103.0</ele><time>2026-05-02T09:44:40.001Z</time></trkpt><trkpt lat="43.2823455866915" lon="-4.044330878696774"><ele>103.0</ele><time>2026-05-02T09:44:41.001Z</time></trkpt><trkpt lat="43.28232654203862" lon="-4.044219873453219"><ele>103.0</ele><time>2026-05-02T09:44:42.001Z</time></trkpt><trkpt lat="43.28229538829192" lon="-4.044116584489952"><ele>103.00000000000001</ele><time>2026-05-02T09:44:43.001Z</time></trkpt><trkpt lat="43.282299824426836" lon="-4.044002981913741"><ele>103.0</ele><time>2026-05-02T09:44:44.001Z</time></trkpt><trkpt lat="43.28233804972635" lon="-4.043899056190048"><ele>102.80000000000001</ele><time>2026-05-02T09:44:45.001Z</time></trkpt><trkpt lat="43.28239899943521" lon="-4.043812080307034"><ele>102.6</ele><time>2026-05-02T09:44:46.001Z</time></trkpt><trkpt lat="43.28246350647145" lon="-4.043719477071343"><ele>102.4</ele><time>2026-05-02T09:44:47.001Z</time></trkpt><trkpt lat="43.28250474009975" lon="-4.043602353466273"><ele>102.19999999999999</ele><time>2026-05-02T09:44:48.001Z</time></trkpt><trkpt lat="43.2825200814123" lon="-4.04346659976328"><ele>102.0</ele><time>2026-05-02T09:44:49.001Z</time></trkpt><trkpt lat="43.28252672906849" lon="-4.043325617784833"><ele>102.19999999999999</ele><time>2026-05-02T09:44:50.001Z</time></trkpt><trkpt lat="43.28253359365905" lon="-4.043185158043053"><ele>102.4</ele><time>2026-05-02T09:44:51.001Z</time></trkpt><trkpt lat="43.28253790337979" lon="-4.043042818525364"><ele>102.6</ele><time>2026-05-02T09:44:52.001Z</time></trkpt><trkpt lat="43.28254058771055" lon="-4.042898403226682"><ele>102.80000000000001</ele><time>2026-05-02T09:44:53.001Z</time></trkpt><trkpt lat="43.28254944915752" lon="-4.042756669503742"><ele>103.0</ele><time>2026-05-02T09:44:54.001Z</time></trkpt><trkpt lat="43.282559148465445" lon="-4.0426122573168115"><ele>103.0</ele><time>2026-05-02T09:44:55.001Z</time></trkpt><trkpt lat="43.28256785982257" lon="-4.042466636418794"><ele>103.0</ele><time>2026-05-02T09:44:56.002Z</time></trkpt><trkpt lat="43.282573349016616" lon="-4.042323232087652"><ele>103.0</ele><time>2026-05-02T09:44:57.002Z</time></trkpt><trkpt lat="43.28257824213646" lon="-4.042179282237555"><ele>103.0</ele><time>2026-05-02T09:44:58.002Z</time></trkpt><trkpt lat="43.282587839981495" lon="-4.042035527771178"><ele>103.0</ele><time>2026-05-02T09:44:59.002Z</time></trkpt><trkpt lat="43.28259732315367" lon="-4.041892397305696"><ele>103.0</ele><time>2026-05-02T09:45:00.002Z</time></trkpt><trkpt lat="43.28260709484915" lon="-4.041750780279949"><ele>103.0</ele><time>2026-05-02T09:45:01.002Z</time></trkpt><trkpt lat="43.28261514845124" lon="-4.041605718629327"><ele>103.0</ele><time>2026-05-02T09:45:02.002Z</time></trkpt><trkpt lat="43.282624821050796" lon="-4.041463146538242"><ele>103.0</ele><time>2026-05-02T09:45:03.002Z</time></trkpt><trkpt lat="43.28263442486476" lon="-4.041317836935661"><ele>103.0</ele><time>2026-05-02T09:45:04.002Z</time></trkpt><trkpt lat="43.282643354423534" lon="-4.041175955896513"><ele>102.80000000000001</ele><time>2026-05-02T09:45:05.002Z</time></trkpt><trkpt lat="43.282650264734166" lon="-4.04102030972529"><ele>102.6</ele><time>2026-05-02T09:45:06.002Z</time></trkpt><trkpt lat="43.28265355466077" lon="-4.0408888254144735"><ele>102.4</ele><time>2026-05-02T09:45:07.002Z</time></trkpt><trkpt lat="43.28265882712348" lon="-4.040745487428762"><ele>102.19999999999999</ele><time>2026-05-02T09:45:08.002Z</time></trkpt><trkpt lat="43.28268348648212" lon="-4.040581004427847"><ele>102.0</ele><time>2026-05-02T09:45:09.002Z</time></trkpt><trkpt lat="43.28268513652346" lon="-4.04044022594805"><ele>102.39999999999999</ele><time>2026-05-02T09:45:10.002Z</time></trkpt><trkpt lat="43.28269300014935" lon="-4.040292212316077"><ele>102.8</ele><time>2026-05-02T09:45:11.002Z</time></trkpt><trkpt lat="43.28270127272288" lon="-4.040144043218147"><ele>103.2</ele><time>2026-05-02T09:45:12.002Z</time></trkpt><trkpt lat="43.282710937511865" lon="-4.039996635137276"><ele>103.6</ele><time>2026-05-02T09:45:13Z</time></trkpt><trkpt lat="43.28271990249987" lon="-4.039846840814434"><ele>104.0</ele><time>2026-05-02T09:45:14Z</time></trkpt><trkpt lat="43.28272788051664" lon="-4.039701822506825"><ele>104.0</ele><time>2026-05-02T09:45:15Z</time></trkpt><trkpt lat="43.2827367965721" lon="-4.039553298276792"><ele>104.0</ele><time>2026-05-02T09:45:16Z</time></trkpt><trkpt lat="43.282748846877475" lon="-4.039403301193845"><ele>104.0</ele><time>2026-05-02T09:45:17Z</time></trkpt><trkpt lat="43.282755297567896" lon="-4.039254337730272"><ele>104.0</ele><time>2026-05-02T09:45:18Z</time></trkpt><trkpt lat="43.28275970947322" lon="-4.039107024484734"><ele>104.0</ele><time>2026-05-02T09:45:19Z</time></trkpt><trkpt lat="43.28276546048906" lon="-4.0389569070414"><ele>104.2</ele><time>2026-05-02T09:45:20Z</time></trkpt><trkpt lat="43.282777634982004" lon="-4.038808260689108"><ele>104.4</ele><time>2026-05-02T09:45:21Z</time></trkpt><trkpt lat="43.282789312173065" lon="-4.038657666029995"><ele>104.6</ele><time>2026-05-02T09:45:22Z</time></trkpt><trkpt lat="43.28279888024119" lon="-4.038510208227768"><ele>104.8</ele><time>2026-05-02T09:45:23Z</time></trkpt><trkpt lat="43.28280791668344" lon="-4.038362166650972"><ele>105.0</ele><time>2026-05-02T09:45:24Z</time></trkpt><trkpt lat="43.282816291260716" lon="-4.038211732778999"><ele>105.0</ele><time>2026-05-02T09:45:25Z</time></trkpt><trkpt lat="43.28282459252906" lon="-4.038062362528671"><ele>105.0</ele><time>2026-05-02T09:45:26Z</time></trkpt><trkpt lat="43.2828337625476" lon="-4.037914217866308"><ele>105.0</ele><time>2026-05-02T09:45:27Z</time></trkpt><trkpt lat="43.282839264218495" lon="-4.037763699757514"><ele>105.0</ele><time>2026-05-02T09:45:28Z</time></trkpt><trkpt lat="43.2828477522118" lon="-4.03761328894107"><ele>105.0</ele><time>2026-05-02T09:45:29Z</time></trkpt><trkpt lat="43.282854428411376" lon="-4.037464250645854"><ele>105.0</ele><time>2026-05-02T09:45:30Z</time></trkpt><trkpt lat="43.28286389587003" lon="-4.037317015158893"><ele>105.0</ele><time>2026-05-02T09:45:31Z</time></trkpt><trkpt lat="43.28287655088157" lon="-4.037166255297982"><ele>105.0</ele><time>2026-05-02T09:45:32Z</time></trkpt><trkpt lat="43.282886886133554" lon="-4.037018014662885"><ele>105.0</ele><time>2026-05-02T09:45:33Z</time></trkpt><trkpt lat="43.28289765580624" lon="-4.036867709463285"><ele>105.0</ele><time>2026-05-02T09:45:34Z</time></trkpt><trkpt lat="43.28290767955864" lon="-4.036717047360015"><ele>105.4</ele><time>2026-05-02T09:45:35Z</time></trkpt><trkpt lat="43.2829127599489" lon="-4.036569178737456"><ele>105.8</ele><time>2026-05-02T09:45:36Z</time></trkpt><trkpt lat="43.28291776051164" lon="-4.036419752769715"><ele>106.19999999999999</ele><time>2026-05-02T09:45:37Z</time></trkpt><trkpt lat="43.28292618617134" lon="-4.036270221374989"><ele>106.6</ele><time>2026-05-02T09:45:38Z</time></trkpt><trkpt lat="43.282937315310924" lon="-4.036120022563605"><ele>107.0</ele><time>2026-05-02T09:45:39Z</time></trkpt><trkpt lat="43.28294590610944" lon="-4.0359684503707305"><ele>107.0</ele><time>2026-05-02T09:45:40Z</time></trkpt><trkpt lat="43.282956065545505" lon="-4.035821160811749"><ele>106.99999999999999</ele><time>2026-05-02T09:45:41Z</time></trkpt><trkpt lat="43.282964819303835" lon="-4.035672690467208"><ele>106.99999999999999</ele><time>2026-05-02T09:45:42Z</time></trkpt><trkpt lat="43.28297465024978" lon="-4.035524379092922"><ele>107.0</ele><time>2026-05-02T09:45:43Z</time></trkpt><trkpt lat="43.28298589780255" lon="-4.035375339416144"><ele>107.0</ele><time>2026-05-02T09:45:44Z</time></trkpt><trkpt lat="43.2829939026911" lon="-4.035228719587962"><ele>107.6</ele><time>2026-05-02T09:45:45Z</time></trkpt><trkpt lat="43.28299798218943" lon="-4.035080415487967"><ele>108.19999999999999</ele><time>2026-05-02T09:45:46Z</time></trkpt><trkpt lat="43.283008518126096" lon="-4.034932765731286"><ele>108.8</ele><time>2026-05-02T09:45:47Z</time></trkpt><trkpt lat="43.2830171057892" lon="-4.034782993983178"><ele>109.4</ele><time>2026-05-02T09:45:48Z</time></trkpt><trkpt lat="43.28302545052221" lon="-4.03463522583068"><ele>110.0</ele><time>2026-05-02T09:45:49Z</time></trkpt><trkpt lat="43.2830315511312" lon="-4.0344862718389525"><ele>110.2</ele><time>2026-05-02T09:45:50Z</time></trkpt><trkpt lat="43.2830396594402" lon="-4.0343429133369275"><ele>110.4</ele><time>2026-05-02T09:45:51Z</time></trkpt><trkpt lat="43.28304801301133" lon="-4.034194362055208"><ele>110.6</ele><time>2026-05-02T09:45:52Z</time></trkpt><trkpt lat="43.28305567568152" lon="-4.034051016818514"><ele>110.8</ele><time>2026-05-02T09:45:53Z</time></trkpt><trkpt lat="43.28306284533989" lon="-4.033898995552786"><ele>111.0</ele><time>2026-05-02T09:45:54Z</time></trkpt><trkpt lat="43.28306669913451" lon="-4.033750544371287"><ele>111.4</ele><time>2026-05-02T09:45:55Z</time></trkpt><trkpt lat="43.28306395034073" lon="-4.03360080618029"><ele>111.8</ele><time>2026-05-02T09:45:56Z</time></trkpt><trkpt lat="43.28305780675271" lon="-4.0334520271545475"><ele>112.20000000000002</ele><time>2026-05-02T09:45:57Z</time></trkpt><trkpt lat="43.283049090447506" lon="-4.033299641215973"><ele>112.60000000000001</ele><time>2026-05-02T09:45:58Z</time></trkpt><trkpt lat="43.283038518090606" lon="-4.033152015834601"><ele>113.0</ele><time>2026-05-02T09:45:59.001Z</time></trkpt><trkpt lat="43.28302399774782" lon="-4.033001840904146"><ele>113.4</ele><time>2026-05-02T09:46:00.001Z</time></trkpt><trkpt lat="43.28300858961167" lon="-4.0328528641104295"><ele>113.80000000000001</ele><time>2026-05-02T09:46:01.001Z</time></trkpt><trkpt lat="43.282986619267035" lon="-4.032705734853887"><ele>114.2</ele><time>2026-05-02T09:46:02.001Z</time></trkpt><trkpt lat="43.28296376426" lon="-4.032558659098893"><ele>114.6</ele><time>2026-05-02T09:46:03.001Z</time></trkpt><trkpt lat="43.28293849294066" lon="-4.032414819065769"><ele>115.0</ele><time>2026-05-02T09:46:04.001Z</time></trkpt><trkpt lat="43.28291281500168" lon="-4.032268884024733"><ele>115.8</ele><time>2026-05-02T09:46:05.001Z</time></trkpt><trkpt lat="43.282883947487406" lon="-4.032124633864647"><ele>116.6</ele><time>2026-05-02T09:46:06.001Z</time></trkpt><trkpt lat="43.282854030391576" lon="-4.031979686363271"><ele>117.4</ele><time>2026-05-02T09:46:07.001Z</time></trkpt><trkpt lat="43.282821489585885" lon="-4.031838094435927"><ele>118.2</ele><time>2026-05-02T09:46:08.001Z</time></trkpt><trkpt lat="43.28279024402389" lon="-4.031696339594704"><ele>119.0</ele><time>2026-05-02T09:46:09.001Z</time></trkpt><trkpt lat="43.28275824340144" lon="-4.0315537110191855"><ele>119.2</ele><time>2026-05-02T09:46:10.001Z</time></trkpt><trkpt lat="43.28272616236462" lon="-4.031413134326432"><ele>119.4</ele><time>2026-05-02T09:46:11.001Z</time></trkpt><trkpt lat="43.282693959335056" lon="-4.031270530276475"><ele>119.6</ele><time>2026-05-02T09:46:12.001Z</time></trkpt><trkpt lat="43.28266233140173" lon="-4.031126808931136"><ele>119.8</ele><time>2026-05-02T09:46:13.001Z</time></trkpt><trkpt lat="43.28263230421887" lon="-4.030989640574379"><ele>120.0</ele><time>2026-05-02T09:46:14.001Z</time></trkpt><trkpt lat="43.282598965670516" lon="-4.030849932166208"><ele>120.0</ele><time>2026-05-02T09:46:15.001Z</time></trkpt><trkpt lat="43.28256913889571" lon="-4.03070118577691"><ele>120.0</ele><time>2026-05-02T09:46:16.001Z</time></trkpt><trkpt lat="43.282537197496595" lon="-4.030572008361449"><ele>120.0</ele><time>2026-05-02T09:46:17.001Z</time></trkpt><trkpt lat="43.282508047059736" lon="-4.030417754076795"><ele>120.0</ele><time>2026-05-02T09:46:18.001Z</time></trkpt><trkpt lat="43.28247664696202" lon="-4.030295968614319"><ele>120.0</ele><time>2026-05-02T09:46:19.001Z</time></trkpt><trkpt lat="43.28244577928199" lon="-4.030138293974358"><ele>120.0</ele><time>2026-05-02T09:46:20.001Z</time></trkpt><trkpt lat="43.28241233654635" lon="-4.030021618521078"><ele>120.0</ele><time>2026-05-02T09:46:21.001Z</time></trkpt><trkpt lat="43.28237571136884" lon="-4.029908689030474"><ele>120.0</ele><time>2026-05-02T09:46:22.001Z</time></trkpt><trkpt lat="43.28231189577914" lon="-4.029792125722465"><ele>120.0</ele><time>2026-05-02T09:46:23.001Z</time></trkpt><trkpt lat="43.282283604504975" lon="-4.0296583388416884"><ele>120.0</ele><time>2026-05-02T09:46:24.001Z</time></trkpt><trkpt lat="43.28226959746208" lon="-4.029469511777881"><ele>120.8</ele><time>2026-05-02T09:46:25.001Z</time></trkpt><trkpt lat="43.28225369897644" lon="-4.029320752433504"><ele>121.6</ele><time>2026-05-02T09:46:26.001Z</time></trkpt><trkpt lat="43.2822359847895" lon="-4.029176335520444"><ele>122.4</ele><time>2026-05-02T09:46:27.001Z</time></trkpt><trkpt lat="43.2822036144743" lon="-4.029030076327396"><ele>123.2</ele><time>2026-05-02T09:46:28.001Z</time></trkpt><trkpt lat="43.28217435515252" lon="-4.028897503684255"><ele>124.0</ele><time>2026-05-02T09:46:29.001Z</time></trkpt><trkpt lat="43.282144013471914" lon="-4.028769282948564"><ele>124.2</ele><time>2026-05-02T09:46:30.001Z</time></trkpt><trkpt lat="43.28211473127767" lon="-4.028634858743233"><ele>124.4</ele><time>2026-05-02T09:46:31.001Z</time></trkpt><trkpt lat="43.282083799948026" lon="-4.028499612078598"><ele>124.6</ele><time>2026-05-02T09:46:32.001Z</time></trkpt><trkpt lat="43.28205242949753" lon="-4.028368710984526"><ele>124.8</ele><time>2026-05-02T09:46:33.001Z</time></trkpt><trkpt lat="43.28202329616642" lon="-4.028235927451835"><ele>125.0</ele><time>2026-05-02T09:46:34.001Z</time></trkpt><trkpt lat="43.28199299591945" lon="-4.028104262986254"><ele>125.8</ele><time>2026-05-02T09:46:35.001Z</time></trkpt><trkpt lat="43.28196493628071" lon="-4.0279740547582135"><ele>126.6</ele><time>2026-05-02T09:46:36.001Z</time></trkpt><trkpt lat="43.281935653826615" lon="-4.02784536761879"><ele>127.4</ele><time>2026-05-02T09:46:37.001Z</time></trkpt><trkpt lat="43.2819070891981" lon="-4.027715206310113"><ele>128.2</ele><time>2026-05-02T09:46:38.001Z</time></trkpt><trkpt lat="43.28187914795895" lon="-4.027587256199"><ele>129.0</ele><time>2026-05-02T09:46:39.001Z</time></trkpt><trkpt lat="43.281851188508114" lon="-4.027457491997999"><ele>129.6</ele><time>2026-05-02T09:46:40.001Z</time></trkpt><trkpt lat="43.281820414121796" lon="-4.0273320724947785"><ele>130.2</ele><time>2026-05-02T09:46:41.001Z</time></trkpt><trkpt lat="43.281791384721394" lon="-4.027204902846937"><ele>130.79999999999998</ele><time>2026-05-02T09:46:42.001Z</time></trkpt><trkpt lat="43.28176525523655" lon="-4.027081886757716"><ele>131.4</ele><time>2026-05-02T09:46:43.001Z</time></trkpt><trkpt lat="43.28173902750347" lon="-4.026956285487501"><ele>132.0</ele><time>2026-05-02T09:46:44.001Z</time></trkpt><trkpt lat="43.28171465236095" lon="-4.026835367218478"><ele>132.0</ele><time>2026-05-02T09:46:45.001Z</time></trkpt><trkpt lat="43.28169023310395" lon="-4.026712218705716"><ele>132.0</ele><time>2026-05-02T09:46:46.001Z</time></trkpt><trkpt lat="43.28166809915642" lon="-4.026590507355421"><ele>132.0</ele><time>2026-05-02T09:46:47.001Z</time></trkpt><trkpt lat="43.2816432378549" lon="-4.026468466633883"><ele>132.0</ele><time>2026-05-02T09:46:48.001Z</time></trkpt><trkpt lat="43.281627038382204" lon="-4.026346005276233"><ele>132.0</ele><time>2026-05-02T09:46:49.001Z</time></trkpt><trkpt lat="43.2816141966966" lon="-4.026219889041596"><ele>132.66666666666666</ele><time>2026-05-02T09:46:50.001Z</time></trkpt><trkpt lat="43.28160163987578" lon="-4.026098904803087"><ele>133.33333333333334</ele><time>2026-05-02T09:46:51.001Z</time></trkpt><trkpt lat="43.28159342212031" lon="-4.025978522536619"><ele>134.0</ele><time>2026-05-02T09:46:52.001Z</time></trkpt><trkpt lat="43.28158722952385" lon="-4.025853207756444"><ele>134.66666666666669</ele><time>2026-05-02T09:46:53.001Z</time></trkpt><trkpt lat="43.28158872126599" lon="-4.025729360648772"><ele>135.33333333333334</ele><time>2026-05-02T09:46:54.001Z</time></trkpt><trkpt lat="43.281585650535646" lon="-4.0256056499354775"><ele>136.0</ele><time>2026-05-02T09:46:55.002Z</time></trkpt><trkpt lat="43.28158220256727" lon="-4.0254855352846155"><ele>137.33333333333334</ele><time>2026-05-02T09:46:56.002Z</time></trkpt><trkpt lat="43.28159661635045" lon="-4.025366469982591"><ele>138.66666666666669</ele><time>2026-05-02T09:46:57.002Z</time></trkpt><trkpt lat="43.2816105432713" lon="-4.0252481957276"><ele>140.0</ele><time>2026-05-02T09:46:58.002Z</time></trkpt><trkpt lat="43.28162670350758" lon="-4.0251294500077535"><ele>141.33333333333334</ele><time>2026-05-02T09:46:59.002Z</time></trkpt><trkpt lat="43.28164457654403" lon="-4.0250133830334445"><ele>142.66666666666666</ele><time>2026-05-02T09:47:00.002Z</time></trkpt><trkpt lat="43.28164003596419" lon="-4.024894266454265"><ele>144.0</ele><time>2026-05-02T09:47:01.002Z</time></trkpt><trkpt lat="43.28164336030286" lon="-4.024781109187499"><ele>144.66666666666666</ele><time>2026-05-02T09:47:02.002Z</time></trkpt><trkpt lat="43.28166921817785" lon="-4.024663616677028"><ele>145.33333333333334</ele><time>2026-05-02T09:47:03.002Z</time></trkpt><trkpt lat="43.28170436433248" lon="-4.024544335125367"><ele>146.0</ele><time>2026-05-02T09:47:04.002Z</time></trkpt><trkpt lat="43.28174034026728" lon="-4.024432984653792"><ele>146.66666666666669</ele><time>2026-05-02T09:47:05.002Z</time></trkpt><trkpt lat="43.281768032259954" lon="-4.024329809631302"><ele>147.33333333333334</ele><time>2026-05-02T09:47:06.002Z</time></trkpt><trkpt lat="43.281800739018195" lon="-4.024230126581318"><ele>148.0</ele><time>2026-05-02T09:47:07.002Z</time></trkpt><trkpt lat="43.281839435564365" lon="-4.0241236645456215"><ele>150.66666666666669</ele><time>2026-05-02T09:47:08.002Z</time></trkpt><trkpt lat="43.281881053844444" lon="-4.024017248777325"><ele>153.33333333333334</ele><time>2026-05-02T09:47:09.002Z</time></trkpt><trkpt lat="43.281927511078045" lon="-4.0239124569489375"><ele>156.0</ele><time>2026-05-02T09:47:10.002Z</time></trkpt><trkpt lat="43.28197517216548" lon="-4.0238104911577635"><ele>158.66666666666666</ele><time>2026-05-02T09:47:11.002Z</time></trkpt><trkpt lat="43.28202526575583" lon="-4.023710350650582"><ele>161.33333333333331</ele><time>2026-05-02T09:47:12.002Z</time></trkpt><trkpt lat="43.28207542458128" lon="-4.023612758509445"><ele>164.0</ele><time>2026-05-02T09:47:13.002Z</time></trkpt><trkpt lat="43.28212598701546" lon="-4.023514180518895"><ele>164.0</ele><time>2026-05-02T09:47:14.002Z</time></trkpt><trkpt lat="43.28217925542991" lon="-4.023420986807915"><ele>164.0</ele><time>2026-05-02T09:47:15.002Z</time></trkpt><trkpt lat="43.28223274855847" lon="-4.023330301409324"><ele>164.0</ele><time>2026-05-02T09:47:16.002Z</time></trkpt><trkpt lat="43.28228462465961" lon="-4.0232382289136535"><ele>164.0</ele><time>2026-05-02T09:47:17.002Z</time></trkpt><trkpt lat="43.28233381428515" lon="-4.023154453942377"><ele>164.0</ele><time>2026-05-02T09:47:18.002Z</time></trkpt><trkpt lat="43.28239096639264" lon="-4.0230670567918105"><ele>164.0</ele><time>2026-05-02T09:47:19Z</time></trkpt><trkpt lat="43.28244501538787" lon="-4.0229710600159185"><ele>164.16666666666666</ele><time>2026-05-02T09:47:20Z</time></trkpt><trkpt lat="43.282498793491804" lon="-4.022866033327063"><ele>164.33333333333331</ele><time>2026-05-02T09:47:21Z</time></trkpt><trkpt lat="43.28255202019412" lon="-4.022767719247255"><ele>164.5</ele><time>2026-05-02T09:47:22Z</time></trkpt><trkpt lat="43.28259619706438" lon="-4.022662636629113"><ele>164.66666666666666</ele><time>2026-05-02T09:47:23Z</time></trkpt><trkpt lat="43.2826380176591" lon="-4.022558447771769"><ele>164.83333333333334</ele><time>2026-05-02T09:47:24Z</time></trkpt><trkpt lat="43.28267431939296" lon="-4.022448589913664"><ele>165.0</ele><time>2026-05-02T09:47:25Z</time></trkpt><trkpt lat="43.28270633446075" lon="-4.02233729311771"><ele>166.66666666666666</ele><time>2026-05-02T09:47:26Z</time></trkpt><trkpt lat="43.28273421863951" lon="-4.022230134763252"><ele>168.33333333333334</ele><time>2026-05-02T09:47:27Z</time></trkpt><trkpt lat="43.28275946725438" lon="-4.022112828581887"><ele>170.0</ele><time>2026-05-02T09:47:28Z</time></trkpt><trkpt lat="43.28277571949712" lon="-4.022000341719048"><ele>171.66666666666669</ele><time>2026-05-02T09:47:29Z</time></trkpt><trkpt lat="43.282788997186735" lon="-4.021888973310348"><ele>173.33333333333334</ele><time>2026-05-02T09:47:30Z</time></trkpt><trkpt lat="43.28280136586389" lon="-4.021779172897149"><ele>175.0</ele><time>2026-05-02T09:47:31Z</time></trkpt><trkpt lat="43.28281436657405" lon="-4.0216693921086435"><ele>176.83333333333334</ele><time>2026-05-02T09:47:32Z</time></trkpt><trkpt lat="43.28282666424927" lon="-4.0215603973224345"><ele>178.66666666666669</ele><time>2026-05-02T09:47:33Z</time></trkpt><trkpt lat="43.28283995558047" lon="-4.021447934422748"><ele>180.5</ele><time>2026-05-02T09:47:34Z</time></trkpt><trkpt lat="43.28285331381547" lon="-4.021335258125893"><ele>182.33333333333334</ele><time>2026-05-02T09:47:35Z</time></trkpt><trkpt lat="43.28286614745035" lon="-4.02122333622374"><ele>184.16666666666666</ele><time>2026-05-02T09:47:36Z</time></trkpt><trkpt lat="43.282878897856826" lon="-4.0211077247281315"><ele>186.0</ele><time>2026-05-02T09:47:37Z</time></trkpt><trkpt lat="43.28288931355798" lon="-4.020993360821562"><ele>186.0</ele><time>2026-05-02T09:47:38Z</time></trkpt><trkpt lat="43.28290123267682" lon="-4.020883598329507"><ele>186.0</ele><time>2026-05-02T09:47:39Z</time></trkpt><trkpt lat="43.28291369608472" lon="-4.020773740317728"><ele>186.0</ele><time>2026-05-02T09:47:40Z</time></trkpt><trkpt lat="43.282927676312134" lon="-4.020658414508455"><ele>186.0</ele><time>2026-05-02T09:47:41Z</time></trkpt><trkpt lat="43.28293975119243" lon="-4.02054777612192"><ele>186.0</ele><time>2026-05-02T09:47:42Z</time></trkpt><trkpt lat="43.28295601251224" lon="-4.020440126792757"><ele>186.0</ele><time>2026-05-02T09:47:43Z</time></trkpt><trkpt lat="43.28298387420728" lon="-4.020320009623503"><ele>187.16666666666666</ele><time>2026-05-02T09:47:44Z</time></trkpt><trkpt lat="43.28299536529696" lon="-4.020210911565384"><ele>188.33333333333331</ele><time>2026-05-02T09:47:45Z</time></trkpt><trkpt lat="43.28300419400557" lon="-4.020097593124322"><ele>189.5</ele><time>2026-05-02T09:47:46Z</time></trkpt><trkpt lat="43.28302451140145" lon="-4.01998885653908"><ele>190.66666666666666</ele><time>2026-05-02T09:47:47Z</time></trkpt><trkpt lat="43.28304320615674" lon="-4.019876583090181"><ele>191.83333333333331</ele><time>2026-05-02T09:47:48Z</time></trkpt><trkpt lat="43.283049832088054" lon="-4.01976702448665"><ele>193.0</ele><time>2026-05-02T09:47:49Z</time></trkpt><trkpt lat="43.28306031460533" lon="-4.019657073964571"><ele>192.99999999999997</ele><time>2026-05-02T09:47:50Z</time></trkpt><trkpt lat="43.283078014734464" lon="-4.0195429205382185"><ele>193.0</ele><time>2026-05-02T09:47:51Z</time></trkpt><trkpt lat="43.28309295644988" lon="-4.019430092428092"><ele>193.0</ele><time>2026-05-02T09:47:52Z</time></trkpt><trkpt lat="43.28310344454728" lon="-4.019318005506098"><ele>193.0</ele><time>2026-05-02T09:47:53Z</time></trkpt><trkpt lat="43.28310864677819" lon="-4.019204672702572"><ele>192.99999999999997</ele><time>2026-05-02T09:47:54Z</time></trkpt><trkpt lat="43.28311839762898" lon="-4.01909164130942"><ele>193.0</ele><time>2026-05-02T09:47:55Z</time></trkpt><trkpt lat="43.28312448589766" lon="-4.018973103710487"><ele>193.33333333333331</ele><time>2026-05-02T09:47:56.001Z</time></trkpt><trkpt lat="43.28312147734139" lon="-4.0188653505932805"><ele>193.66666666666666</ele><time>2026-05-02T09:47:57.001Z</time></trkpt><trkpt lat="43.28311485128833" lon="-4.018750403291689"><ele>194.0</ele><time>2026-05-02T09:47:58.001Z</time></trkpt><trkpt lat="43.28310260167715" lon="-4.018640631526871"><ele>194.33333333333331</ele><time>2026-05-02T09:47:59.001Z</time></trkpt><trkpt lat="43.28308912859905" lon="-4.018529624513663"><ele>194.66666666666666</ele><time>2026-05-02T09:48:00.001Z</time></trkpt><trkpt lat="43.28306016958702" lon="-4.018424172271564"><ele>195.0</ele><time>2026-05-02T09:48:01.001Z</time></trkpt><trkpt lat="43.28303942595823" lon="-4.0183180014209"><ele>195.33333333333334</ele><time>2026-05-02T09:48:02.001Z</time></trkpt><trkpt lat="43.28301540121072" lon="-4.0182108767748055"><ele>195.66666666666669</ele><time>2026-05-02T09:48:03.001Z</time></trkpt><trkpt lat="43.28298925439917" lon="-4.018107946593825"><ele>196.0</ele><time>2026-05-02T09:48:04.001Z</time></trkpt><trkpt lat="43.282960390336314" lon="-4.018009409085733"><ele>196.33333333333334</ele><time>2026-05-02T09:48:05.001Z</time></trkpt><trkpt lat="43.28293967122376" lon="-4.017898642999851"><ele>196.66666666666669</ele><time>2026-05-02T09:48:06.001Z</time></trkpt><trkpt lat="43.282911575555495" lon="-4.017798791951014"><ele>197.0</ele><time>2026-05-02T09:48:07.001Z</time></trkpt><trkpt lat="43.28288587061491" lon="-4.017699118985703"><ele>197.00000000000003</ele><time>2026-05-02T09:48:08.001Z</time></trkpt><trkpt lat="43.28286152844918" lon="-4.017591286631628"><ele>197.0</ele><time>2026-05-02T09:48:09.001Z</time></trkpt><trkpt lat="43.28283648406463" lon="-4.017495797301399"><ele>197.0</ele><time>2026-05-02T09:48:10.001Z</time></trkpt><trkpt lat="43.28281281506529" lon="-4.017395300786375"><ele>197.0</ele><time>2026-05-02T09:48:11.001Z</time></trkpt><trkpt lat="43.28278817012307" lon="-4.017288916129383"><ele>197.00000000000003</ele><time>2026-05-02T09:48:12.001Z</time></trkpt><trkpt lat="43.28276245023044" lon="-4.017189656331883"><ele>197.0</ele><time>2026-05-02T09:48:13.001Z</time></trkpt><trkpt lat="43.28273805973269" lon="-4.017089912311313"><ele>196.66666666666669</ele><time>2026-05-02T09:48:14.001Z</time></trkpt><trkpt lat="43.282715505503944" lon="-4.0169843107246965"><ele>196.33333333333334</ele><time>2026-05-02T09:48:15.001Z</time></trkpt><trkpt lat="43.28268982597446" lon="-4.0168828169902495"><ele>196.0</ele><time>2026-05-02T09:48:16.001Z</time></trkpt><trkpt lat="43.28266547188625" lon="-4.016780978831958"><ele>195.66666666666669</ele><time>2026-05-02T09:48:17.001Z</time></trkpt><trkpt lat="43.28264035159238" lon="-4.016674367079844"><ele>195.33333333333334</ele><time>2026-05-02T09:48:18.001Z</time></trkpt><trkpt lat="43.282617878404366" lon="-4.016572083019477"><ele>195.0</ele><time>2026-05-02T09:48:19.001Z</time></trkpt><trkpt lat="43.282595995604886" lon="-4.016468339901368"><ele>195.83333333333334</ele><time>2026-05-02T09:48:20.001Z</time></trkpt><trkpt lat="43.2825780457065" lon="-4.016362686114771"><ele>196.66666666666669</ele><time>2026-05-02T09:48:21.001Z</time></trkpt><trkpt lat="43.28256674524645" lon="-4.016256317948699"><ele>197.5</ele><time>2026-05-02T09:48:22.001Z</time></trkpt><trkpt lat="43.28256484486689" lon="-4.016142647036368"><ele>198.33333333333334</ele><time>2026-05-02T09:48:23.001Z</time></trkpt><trkpt lat="43.282563562780865" lon="-4.016034346205221"><ele>199.16666666666669</ele><time>2026-05-02T09:48:24.001Z</time></trkpt><trkpt lat="43.28257863425234" lon="-4.015916255574753"><ele>200.0</ele><time>2026-05-02T09:48:25.001Z</time></trkpt><trkpt lat="43.282594178088374" lon="-4.01581169746572"><ele>203.33333333333334</ele><time>2026-05-02T09:48:26.001Z</time></trkpt><trkpt lat="43.28261464293836" lon="-4.015712238743528"><ele>206.66666666666669</ele><time>2026-05-02T09:48:27.001Z</time></trkpt><trkpt lat="43.282652990241964" lon="-4.015602082544906"><ele>210.0</ele><time>2026-05-02T09:48:28.001Z</time></trkpt><trkpt lat="43.28268568022683" lon="-4.015496727788331"><ele>213.33333333333331</ele><time>2026-05-02T09:48:29.001Z</time></trkpt><trkpt lat="43.28272311478524" lon="-4.0153981662309315"><ele>216.66666666666666</ele><time>2026-05-02T09:48:30.001Z</time></trkpt><trkpt lat="43.282763400169976" lon="-4.015299277576734"><ele>220.0</ele><time>2026-05-02T09:48:31.001Z</time></trkpt><trkpt lat="43.28280309366764" lon="-4.015195792545531"><ele>219.99999999999997</ele><time>2026-05-02T09:48:32.001Z</time></trkpt><trkpt lat="43.28283800213452" lon="-4.015097505729653"><ele>220.0</ele><time>2026-05-02T09:48:33.001Z</time></trkpt><trkpt lat="43.28287339679662" lon="-4.014997388922339"><ele>220.0</ele><time>2026-05-02T09:48:34.001Z</time></trkpt><trkpt lat="43.282904703344535" lon="-4.014889708093854"><ele>220.0</ele><time>2026-05-02T09:48:35.001Z</time></trkpt><trkpt lat="43.28293701905219" lon="-4.014781345491317"><ele>219.99999999999997</ele><time>2026-05-02T09:48:36.001Z</time></trkpt><trkpt lat="43.282967828040704" lon="-4.0146672628188345"><ele>220.0</ele><time>2026-05-02T09:48:37.001Z</time></trkpt><trkpt lat="43.28298001910129" lon="-4.014564158913654"><ele>220.66666666666666</ele><time>2026-05-02T09:48:38.001Z</time></trkpt><trkpt lat="43.282991499454475" lon="-4.014459911708999"><ele>221.33333333333331</ele><time>2026-05-02T09:48:39.001Z</time></trkpt><trkpt lat="43.28299818710527" lon="-4.014343162078546"><ele>222.0</ele><time>2026-05-02T09:48:40.001Z</time></trkpt><trkpt lat="43.28299736451075" lon="-4.014230386297655"><ele>222.66666666666669</ele><time>2026-05-02T09:48:41.001Z</time></trkpt><trkpt lat="43.28299281433644" lon="-4.014120555449"><ele>223.33333333333334</ele><time>2026-05-02T09:48:42.001Z</time></trkpt><trkpt lat="43.282990988271905" lon="-4.014013579233754"><ele>224.0</ele><time>2026-05-02T09:48:43.001Z</time></trkpt><trkpt lat="43.28298284299201" lon="-4.013901919602123"><ele>224.83333333333334</ele><time>2026-05-02T09:48:44.001Z</time></trkpt><trkpt lat="43.282972867369644" lon="-4.013793640756195"><ele>225.66666666666669</ele><time>2026-05-02T09:48:45.001Z</time></trkpt><trkpt lat="43.28296294853933" lon="-4.013684000888012"><ele>226.5</ele><time>2026-05-02T09:48:46.001Z</time></trkpt><trkpt lat="43.28295501577724" lon="-4.0135770516166485"><ele>227.33333333333331</ele><time>2026-05-02T09:48:47.001Z</time></trkpt><trkpt lat="43.28294857092629" lon="-4.013468150587684"><ele>228.16666666666666</ele><time>2026-05-02T09:48:48.001Z</time></trkpt><trkpt lat="43.28293999836277" lon="-4.013361036456771"><ele>229.0</ele><time>2026-05-02T09:48:49.001Z</time></trkpt><trkpt lat="43.28292974936349" lon="-4.013251926426936"><ele>230.16666666666666</ele><time>2026-05-02T09:48:50.001Z</time></trkpt><trkpt lat="43.282921641491214" lon="-4.01314310246674"><ele>231.33333333333331</ele><time>2026-05-02T09:48:51.001Z</time></trkpt><trkpt lat="43.282913621550975" lon="-4.013036887818007"><ele>232.5</ele><time>2026-05-02T09:48:52.002Z</time></trkpt><trkpt lat="43.282904025689945" lon="-4.0129277731453845"><ele>233.66666666666669</ele><time>2026-05-02T09:48:53.002Z</time></trkpt><trkpt lat="43.28289301441062" lon="-4.012820300574229"><ele>234.83333333333334</ele><time>2026-05-02T09:48:54.002Z</time></trkpt><trkpt lat="43.282884594210856" lon="-4.012711495092578"><ele>236.0</ele><time>2026-05-02T09:48:55.002Z</time></trkpt><trkpt lat="43.28287576935826" lon="-4.012604714790603"><ele>236.00000000000003</ele><time>2026-05-02T09:48:56.002Z</time></trkpt><trkpt lat="43.28286459702432" lon="-4.012497404124959"><ele>236.0</ele><time>2026-05-02T09:48:57.002Z</time></trkpt><trkpt lat="43.28285651299356" lon="-4.012391134115686"><ele>236.0</ele><time>2026-05-02T09:48:58.002Z</time></trkpt><trkpt lat="43.28284798139743" lon="-4.01228127370957"><ele>236.0</ele><time>2026-05-02T09:48:59.002Z</time></trkpt><trkpt lat="43.28284076740735" lon="-4.0121737444763355"><ele>236.00000000000003</ele><time>2026-05-02T09:49:00.002Z</time></trkpt><trkpt lat="43.28283336239845" lon="-4.012065584403359"><ele>236.0</ele><time>2026-05-02T09:49:01.002Z</time></trkpt><trkpt lat="43.28282208440041" lon="-4.011959169665713"><ele>237.50000000000003</ele><time>2026-05-02T09:49:02.002Z</time></trkpt><trkpt lat="43.28281173664603" lon="-4.011851471453427"><ele>239.0</ele><time>2026-05-02T09:49:03.002Z</time></trkpt><trkpt lat="43.28280084020871" lon="-4.011743234545468"><ele>240.5</ele><time>2026-05-02T09:49:04.002Z</time></trkpt><trkpt lat="43.28279081910083" lon="-4.011635812987804"><ele>242.0</ele><time>2026-05-02T09:49:05.002Z</time></trkpt><trkpt lat="43.282780982486166" lon="-4.011526303860562"><ele>243.50000000000003</ele><time>2026-05-02T09:49:06.002Z</time></trkpt><trkpt lat="43.282775201935024" lon="-4.011419261347545"><ele>245.0</ele><time>2026-05-02T09:49:07.002Z</time></trkpt><trkpt lat="43.282759991555984" lon="-4.011308689220981"><ele>245.16666666666669</ele><time>2026-05-02T09:49:08.002Z</time></trkpt><trkpt lat="43.28275587827034" lon="-4.011200750365268"><ele>245.33333333333334</ele><time>2026-05-02T09:49:09.002Z</time></trkpt><trkpt lat="43.28274757165194" lon="-4.011092007184106"><ele>245.5</ele><time>2026-05-02T09:49:10.002Z</time></trkpt><trkpt lat="43.282739992263934" lon="-4.010986588067801"><ele>245.66666666666669</ele><time>2026-05-02T09:49:11.002Z</time></trkpt><trkpt lat="43.2827342755191" lon="-4.010878652403821"><ele>245.83333333333334</ele><time>2026-05-02T09:49:12.002Z</time></trkpt><trkpt lat="43.28272894386574" lon="-4.010770984723441"><ele>246.0</ele><time>2026-05-02T09:49:13.002Z</time></trkpt><trkpt lat="43.28273313217362" lon="-4.01066167394535"><ele>246.33333333333334</ele><time>2026-05-02T09:49:14.002Z</time></trkpt><trkpt lat="43.282745643486976" lon="-4.0105517207413595"><ele>246.66666666666669</ele><time>2026-05-02T09:49:15.002Z</time></trkpt><trkpt lat="43.282764965304494" lon="-4.010446392057806"><ele>247.0</ele><time>2026-05-02T09:49:16.002Z</time></trkpt><trkpt lat="43.28278880738791" lon="-4.010340860121091"><ele>247.33333333333334</ele><time>2026-05-02T09:49:17.002Z</time></trkpt><trkpt lat="43.28282258667229" lon="-4.010239863106648"><ele>247.66666666666669</ele><time>2026-05-02T09:49:18.002Z</time></trkpt><trkpt lat="43.28286640926892" lon="-4.010142190234078"><ele>248.0</ele><time>2026-05-02T09:49:19.002Z</time></trkpt><trkpt lat="43.28291017756882" lon="-4.010059740632777"><ele>249.16666666666669</ele><time>2026-05-02T09:49:20.002Z</time></trkpt><trkpt lat="43.28296300475704" lon="-4.009975451873708"><ele>250.33333333333334</ele><time>2026-05-02T09:49:21.002Z</time></trkpt><trkpt lat="43.28302394195031" lon="-4.009901570060231"><ele>251.5</ele><time>2026-05-02T09:49:22.002Z</time></trkpt><trkpt lat="43.283091582647245" lon="-4.0098417374605635"><ele>252.66666666666669</ele><time>2026-05-02T09:49:23.002Z</time></trkpt><trkpt lat="43.283156509273596" lon="-4.009787164249785"><ele>253.83333333333334</ele><time>2026-05-02T09:49:24.002Z</time></trkpt><trkpt lat="43.28323097088832" lon="-4.009748824286033"><ele>255.0</ele><time>2026-05-02T09:49:25Z</time></trkpt><trkpt lat="43.28330785340311" lon="-4.009722294665773"><ele>255.0</ele><time>2026-05-02T09:49:26Z</time></trkpt><trkpt lat="43.283382433944226" lon="-4.009700861756381"><ele>255.0</ele><time>2026-05-02T09:49:27Z</time></trkpt><trkpt lat="43.28345934779123" lon="-4.009689192659563"><ele>255.0</ele><time>2026-05-02T09:49:28Z</time></trkpt><trkpt lat="43.28354333739113" lon="-4.009695499260001"><ele>255.0</ele><time>2026-05-02T09:49:29Z</time></trkpt><trkpt lat="43.283611516340706" lon="-4.0097011020792195"><ele>255.0</ele><time>2026-05-02T09:49:30Z</time></trkpt><trkpt lat="43.283688656847374" lon="-4.009727208709055"><ele>255.0</ele><time>2026-05-02T09:49:31Z</time></trkpt><trkpt lat="43.2837589909847" lon="-4.0097597771474245"><ele>255.0</ele><time>2026-05-02T09:49:32Z</time></trkpt><trkpt lat="43.283828844146726" lon="-4.009796838249848"><ele>255.00000000000003</ele><time>2026-05-02T09:49:33Z</time></trkpt><trkpt lat="43.28389841864294" lon="-4.009831256433846"><ele>255.0</ele><time>2026-05-02T09:49:34Z</time></trkpt><trkpt lat="43.28396545489352" lon="-4.009873256916458"><ele>255.0</ele><time>2026-05-02T09:49:35Z</time></trkpt><trkpt lat="43.284032981311775" lon="-4.009920716423089"><ele>255.00000000000003</ele><time>2026-05-02T09:49:36Z</time></trkpt><trkpt lat="43.2840987642369" lon="-4.009965931116263"><ele>255.0</ele><time>2026-05-02T09:49:37Z</time></trkpt><trkpt lat="43.284164697964904" lon="-4.010010701026669"><ele>255.0</ele><time>2026-05-02T09:49:38Z</time></trkpt><trkpt lat="43.284231949552776" lon="-4.010047268345615"><ele>255.83333333333334</ele><time>2026-05-02T09:49:39Z</time></trkpt><trkpt lat="43.28430107259196" lon="-4.010085680718258"><ele>256.6666666666667</ele><time>2026-05-02T09:49:40Z</time></trkpt><trkpt lat="43.28436971445101" lon="-4.010121391305349"><ele>257.5</ele><time>2026-05-02T09:49:41Z</time></trkpt><trkpt lat="43.28444140692616" lon="-4.01015141782897"><ele>258.33333333333337</ele><time>2026-05-02T09:49:42Z</time></trkpt><trkpt lat="43.28452052056492" lon="-4.010127863127661"><ele>259.1666666666667</ele><time>2026-05-02T09:49:43Z</time></trkpt><trkpt lat="43.284585495850465" lon="-4.010179002871475"><ele>260.0</ele><time>2026-05-02T09:49:44Z</time></trkpt><trkpt lat="43.284656448642586" lon="-4.010186252394345"><ele>260.00000000000006</ele><time>2026-05-02T09:49:45Z</time></trkpt><trkpt lat="43.28472674261721" lon="-4.010184039942799"><ele>260.0</ele><time>2026-05-02T09:49:46Z</time></trkpt><trkpt lat="43.28479538952771" lon="-4.010177669107067"><ele>260.0</ele><time>2026-05-02T09:49:47Z</time></trkpt><trkpt lat="43.28486684783396" lon="-4.010166385793137"><ele>260.0</ele><time>2026-05-02T09:49:48Z</time></trkpt><trkpt lat="43.28493699890675" lon="-4.010148985632841"><ele>260.0</ele><time>2026-05-02T09:49:49Z</time></trkpt><trkpt lat="43.285006224843194" lon="-4.01012239064358"><ele>260.00000000000006</ele><time>2026-05-02T09:49:50Z</time></trkpt><trkpt lat="43.28507128841526" lon="-4.010089215655821"><ele>260.0</ele><time>2026-05-02T09:49:51Z</time></trkpt><trkpt lat="43.28513808653997" lon="-4.0100522078735965"><ele>261.28571428571433</ele><time>2026-05-02T09:49:52Z</time></trkpt><trkpt lat="43.285200962251366" lon="-4.010011510487153"><ele>262.57142857142856</ele><time>2026-05-02T09:49:53Z</time></trkpt><trkpt lat="43.28525922221798" lon="-4.009961042643347"><ele>263.8571428571429</ele><time>2026-05-02T09:49:54Z</time></trkpt><trkpt lat="43.28532009680573" lon="-4.009905396888706"><ele>265.14285714285717</ele><time>2026-05-02T09:49:55Z</time></trkpt><trkpt lat="43.285376666498976" lon="-4.00984205702787"><ele>266.42857142857144</ele><time>2026-05-02T09:49:56Z</time></trkpt><trkpt lat="43.28542614648933" lon="-4.009779329543594"><ele>267.7142857142857</ele><time>2026-05-02T09:49:57Z</time></trkpt><trkpt lat="43.28547788612349" lon="-4.009708427193242"><ele>269.0</ele><time>2026-05-02T09:49:58Z</time></trkpt><trkpt lat="43.28552634112087" lon="-4.00963124939085"><ele>269.14285714285717</ele><time>2026-05-02T09:49:59Z</time></trkpt><trkpt lat="43.28556800756476" lon="-4.009547833659657"><ele>269.28571428571433</ele><time>2026-05-02T09:50:00Z</time></trkpt><trkpt lat="43.28560715716257" lon="-4.009462796618218"><ele>269.42857142857144</ele><time>2026-05-02T09:50:01Z</time></trkpt><trkpt lat="43.285644703484095" lon="-4.009374480383838"><ele>269.57142857142856</ele><time>2026-05-02T09:50:02Z</time></trkpt><trkpt lat="43.285676245136344" lon="-4.009282986733845"><ele>269.71428571428567</ele><time>2026-05-02T09:50:03.001Z</time></trkpt><trkpt lat="43.28569871385581" lon="-4.009185442872289"><ele>269.85714285714283</ele><time>2026-05-02T09:50:04.001Z</time></trkpt><trkpt lat="43.2857174184615" lon="-4.009082648541111"><ele>270.0</ele><time>2026-05-02T09:50:05.001Z</time></trkpt><trkpt lat="43.28573360529606" lon="-4.008980191390316"><ele>270.0</ele><time>2026-05-02T09:50:06.001Z</time></trkpt><trkpt lat="43.28573917372156" lon="-4.008877705506428"><ele>270.0</ele><time>2026-05-02T09:50:07.001Z</time></trkpt><trkpt lat="43.28574516301916" lon="-4.008774016988946"><ele>270.0</ele><time>2026-05-02T09:50:08.001Z</time></trkpt><trkpt lat="43.285744986817676" lon="-4.008668010164627"><ele>270.0</ele><time>2026-05-02T09:50:09.001Z</time></trkpt><trkpt lat="43.28574176901993" lon="-4.008564241155299"><ele>270.0</ele><time>2026-05-02T09:50:10.001Z</time></trkpt><trkpt lat="43.28573476092178" lon="-4.008461429612465"><ele>270.0</ele><time>2026-05-02T09:50:11.001Z</time></trkpt><trkpt lat="43.28572599636239" lon="-4.008358325445394"><ele>271.3333333333333</ele><time>2026-05-02T09:50:12.001Z</time></trkpt><trkpt lat="43.28571594517553" lon="-4.008255615699635"><ele>272.6666666666667</ele><time>2026-05-02T09:50:13.001Z</time></trkpt><trkpt lat="43.28570396558663" lon="-4.008152093651613"><ele>274.0</ele><time>2026-05-02T09:50:14.001Z</time></trkpt><trkpt lat="43.285690835317276" lon="-4.008047694493566"><ele>275.33333333333337</ele><time>2026-05-02T09:50:15.001Z</time></trkpt><trkpt lat="43.28567989099065" lon="-4.0079433687346855"><ele>276.6666666666667</ele><time>2026-05-02T09:50:16.001Z</time></trkpt><trkpt lat="43.2856693784557" lon="-4.007839272057686"><ele>278.0</ele><time>2026-05-02T09:50:17.001Z</time></trkpt><trkpt lat="43.285656389246675" lon="-4.007732862525439"><ele>278.0</ele><time>2026-05-02T09:50:18.001Z</time></trkpt><trkpt lat="43.28564635063954" lon="-4.007625980315127"><ele>278.0</ele><time>2026-05-02T09:50:19.001Z</time></trkpt><trkpt lat="43.285641698834766" lon="-4.0075207521355924"><ele>278.0</ele><time>2026-05-02T09:50:20.001Z</time></trkpt><trkpt lat="43.28563592955942" lon="-4.007409661088677"><ele>278.0</ele><time>2026-05-02T09:50:21.001Z</time></trkpt><trkpt lat="43.28563968036425" lon="-4.0073028241526565"><ele>278.0</ele><time>2026-05-02T09:50:22.001Z</time></trkpt><trkpt lat="43.28564379589046" lon="-4.007191539219536"><ele>278.0</ele><time>2026-05-02T09:50:23.001Z</time></trkpt><trkpt lat="43.28565300579171" lon="-4.007081452498806"><ele>279.83333333333337</ele><time>2026-05-02T09:50:24.001Z</time></trkpt><trkpt lat="43.28566618604151" lon="-4.0069732416124575"><ele>281.6666666666667</ele><time>2026-05-02T09:50:25.001Z</time></trkpt><trkpt lat="43.28568577457659" lon="-4.006864217022658"><ele>283.5</ele><time>2026-05-02T09:50:26.001Z</time></trkpt><trkpt lat="43.285709030965116" lon="-4.0067554008767905"><ele>285.3333333333333</ele><time>2026-05-02T09:50:27.001Z</time></trkpt><trkpt lat="43.28573211620932" lon="-4.006649982953922"><ele>287.16666666666663</ele><time>2026-05-02T09:50:28.001Z</time></trkpt><trkpt lat="43.28576255541214" lon="-4.00654648672772"><ele>289.0</ele><time>2026-05-02T09:50:29.001Z</time></trkpt><trkpt lat="43.285796392213086" lon="-4.006443898695065"><ele>291.3333333333333</ele><time>2026-05-02T09:50:30.001Z</time></trkpt><trkpt lat="43.28583638885705" lon="-4.006342146701338"><ele>293.66666666666663</ele><time>2026-05-02T09:50:31.001Z</time></trkpt><trkpt lat="43.28587806671645" lon="-4.006244026141146"><ele>296.0</ele><time>2026-05-02T09:50:32.001Z</time></trkpt><trkpt lat="43.285919579805366" lon="-4.00614584692197"><ele>298.3333333333333</ele><time>2026-05-02T09:50:33.001Z</time></trkpt><trkpt lat="43.285959077014645" lon="-4.00604715757159"><ele>300.6666666666667</ele><time>2026-05-02T09:50:34.001Z</time></trkpt><trkpt lat="43.28600257657148" lon="-4.005954728619459"><ele>303.0</ele><time>2026-05-02T09:50:35.001Z</time></trkpt><trkpt lat="43.28604748865021" lon="-4.005859133896483"><ele>305.0</ele><time>2026-05-02T09:50:36.001Z</time></trkpt><trkpt lat="43.28609226210212" lon="-4.005766868486733"><ele>307.0</ele><time>2026-05-02T09:50:37.001Z</time></trkpt><trkpt lat="43.28613754732742" lon="-4.005670802670197"><ele>309.0</ele><time>2026-05-02T09:50:38.001Z</time></trkpt><trkpt lat="43.286182210268095" lon="-4.005575479412698"><ele>311.0</ele><time>2026-05-02T09:50:39.001Z</time></trkpt><trkpt lat="43.28622772076774" lon="-4.005482552652281"><ele>313.0</ele><time>2026-05-02T09:50:40.001Z</time></trkpt><trkpt lat="43.286270540894314" lon="-4.0053843329486165"><ele>315.0</ele><time>2026-05-02T09:50:41.001Z</time></trkpt><trkpt lat="43.28631177255735" lon="-4.005289244885107"><ele>315.0</ele><time>2026-05-02T09:50:42.001Z</time></trkpt><trkpt lat="43.28635202013232" lon="-4.005186958744003"><ele>315.0</ele><time>2026-05-02T09:50:43.001Z</time></trkpt><trkpt lat="43.286390687695565" lon="-4.005083097747106"><ele>315.0</ele><time>2026-05-02T09:50:44.001Z</time></trkpt><trkpt lat="43.286427629535304" lon="-4.004983469351249"><ele>315.0</ele><time>2026-05-02T09:50:45.001Z</time></trkpt><trkpt lat="43.286460249887554" lon="-4.004879377537904"><ele>315.0</ele><time>2026-05-02T09:50:46.001Z</time></trkpt><trkpt lat="43.28649060122112" lon="-4.004770001166821"><ele>315.0</ele><time>2026-05-02T09:50:47.001Z</time></trkpt><trkpt lat="43.28651726078884" lon="-4.004662825887308"><ele>313.1666666666667</ele><time>2026-05-02T09:50:48.001Z</time></trkpt><trkpt lat="43.286544380114044" lon="-4.004555574614892"><ele>311.3333333333333</ele><time>2026-05-02T09:50:49.001Z</time></trkpt><trkpt lat="43.28656984635622" lon="-4.004445115641035"><ele>309.5</ele><time>2026-05-02T09:50:50.001Z</time></trkpt><trkpt lat="43.286595009522415" lon="-4.004333113393404"><ele>307.66666666666663</ele><time>2026-05-02T09:50:51.001Z</time></trkpt><trkpt lat="43.28661724342975" lon="-4.004218073837797"><ele>305.8333333333333</ele><time>2026-05-02T09:50:52.001Z</time></trkpt><trkpt lat="43.28663947791474" lon="-4.004098589600968"><ele>304.0</ele><time>2026-05-02T09:50:53.001Z</time></trkpt><trkpt lat="43.28665793677033" lon="-4.003977160204904"><ele>303.8</ele><time>2026-05-02T09:50:54.001Z</time></trkpt><trkpt lat="43.28667789204359" lon="-4.003855953849333"><ele>303.59999999999997</ele><time>2026-05-02T09:50:55.001Z</time></trkpt><trkpt lat="43.286697305245205" lon="-4.003730253736686"><ele>303.4</ele><time>2026-05-02T09:50:56.001Z</time></trkpt><trkpt lat="43.28671837484991" lon="-4.003601619159195"><ele>303.2</ele><time>2026-05-02T09:50:57.001Z</time></trkpt><trkpt lat="43.2867392247035" lon="-4.003471607466624"><ele>303.0</ele><time>2026-05-02T09:50:58.001Z</time></trkpt><trkpt lat="43.28676011405241" lon="-4.0033400302414135"><ele>301.4</ele><time>2026-05-02T09:50:59.001Z</time></trkpt><trkpt lat="43.28678085675542" lon="-4.003204828055994"><ele>299.8</ele><time>2026-05-02T09:51:00.001Z</time></trkpt><trkpt lat="43.286801640944404" lon="-4.003068443163284"><ele>298.2</ele><time>2026-05-02T09:51:01.001Z</time></trkpt><trkpt lat="43.286825471635126" lon="-4.002928466779398"><ele>296.6</ele><time>2026-05-02T09:51:02.002Z</time></trkpt><trkpt lat="43.286845233651896" lon="-4.002793431589467"><ele>295.0</ele><time>2026-05-02T09:51:03.002Z</time></trkpt><trkpt lat="43.28686881217516" lon="-4.002656107706692"><ele>295.0</ele><time>2026-05-02T09:51:04.002Z</time></trkpt><trkpt lat="43.28689087071861" lon="-4.002515292830381"><ele>295.0</ele><time>2026-05-02T09:51:05.002Z</time></trkpt><trkpt lat="43.286915132385694" lon="-4.002371877324086"><ele>295.0</ele><time>2026-05-02T09:51:06.002Z</time></trkpt><trkpt lat="43.286937339219804" lon="-4.0022322279703815"><ele>295.0</ele><time>2026-05-02T09:51:07.002Z</time></trkpt><trkpt lat="43.28696116229282" lon="-4.0020890817699994"><ele>295.0</ele><time>2026-05-02T09:51:08.002Z</time></trkpt><trkpt lat="43.28698405072112" lon="-4.001944600191191"><ele>292.6</ele><time>2026-05-02T09:51:09.002Z</time></trkpt><trkpt lat="43.28700701142134" lon="-4.001799538261448"><ele>290.2</ele><time>2026-05-02T09:51:10.002Z</time></trkpt><trkpt lat="43.2870297370082" lon="-4.001638952154502"><ele>287.8</ele><time>2026-05-02T09:51:11.002Z</time></trkpt><trkpt lat="43.28705661730238" lon="-4.001506667770709"><ele>285.4</ele><time>2026-05-02T09:51:12.002Z</time></trkpt><trkpt lat="43.287080250851815" lon="-4.0013585585625195"><ele>283.0</ele><time>2026-05-02T09:51:13.002Z</time></trkpt><trkpt lat="43.287104461715394" lon="-4.0012071468170625"><ele>281.0</ele><time>2026-05-02T09:51:14.002Z</time></trkpt><trkpt lat="43.28713075059807" lon="-4.001057553941913"><ele>279.0</ele><time>2026-05-02T09:51:15.002Z</time></trkpt><trkpt lat="43.28715459405439" lon="-4.000909067558547"><ele>277.0</ele><time>2026-05-02T09:51:16.002Z</time></trkpt><trkpt lat="43.28717979244529" lon="-4.000761892307254"><ele>275.0</ele><time>2026-05-02T09:51:17.002Z</time></trkpt><trkpt lat="43.28720491774646" lon="-4.000608155098565"><ele>273.0</ele><time>2026-05-02T09:51:18.002Z</time></trkpt><trkpt lat="43.287231929528545" lon="-4.000452387260479"><ele>270.25</ele><time>2026-05-02T09:51:19.002Z</time></trkpt><trkpt lat="43.287256354984564" lon="-4.00030133112727"><ele>267.5</ele><time>2026-05-02T09:51:20.002Z</time></trkpt><trkpt lat="43.2872824461154" lon="-4.000153822413358"><ele>264.75</ele><time>2026-05-02T09:51:21.002Z</time></trkpt><trkpt lat="43.287307250048805" lon="-3.999998662053789"><ele>262.0</ele><time>2026-05-02T09:51:22.002Z</time></trkpt><trkpt lat="43.287332563982396" lon="-3.9998467106503255"><ele>266.6</ele><time>2026-05-02T09:51:23.002Z</time></trkpt><trkpt lat="43.287359006384975" lon="-3.9996968342861337"><ele>271.2</ele><time>2026-05-02T09:51:24.002Z</time></trkpt><trkpt lat="43.287381694766914" lon="-3.9995471664695885"><ele>275.8</ele><time>2026-05-02T09:51:25.002Z</time></trkpt><trkpt lat="43.28740619650498" lon="-3.9993965065046893"><ele>280.4</ele><time>2026-05-02T09:51:26.002Z</time></trkpt><trkpt lat="43.287431956046184" lon="-3.999247444824232"><ele>285.0</ele><time>2026-05-02T09:51:27.002Z</time></trkpt><trkpt lat="43.28745573656315" lon="-3.9990998811386675"><ele>285.0</ele><time>2026-05-02T09:51:28.002Z</time></trkpt><trkpt lat="43.28748172848748" lon="-3.9989500282912753"><ele>285.0</ele><time>2026-05-02T09:51:29.002Z</time></trkpt><trkpt lat="43.2875078550624" lon="-3.9987952780237896"><ele>285.0</ele><time>2026-05-02T09:51:30.002Z</time></trkpt><trkpt lat="43.287531661065806" lon="-3.998637391610902"><ele>285.0</ele><time>2026-05-02T09:51:31Z</time></trkpt><trkpt lat="43.28755732159844" lon="-3.9984815597698797"><ele>282.5</ele><time>2026-05-02T09:51:32Z</time></trkpt><trkpt lat="43.287581704446474" lon="-3.998328141011986"><ele>280.0</ele><time>2026-05-02T09:51:33Z</time></trkpt><trkpt lat="43.287606816054456" lon="-3.998173518485338"><ele>277.5</ele><time>2026-05-02T09:51:34Z</time></trkpt><trkpt lat="43.287631999333605" lon="-3.9980223260832415"><ele>275.0</ele><time>2026-05-02T09:51:35Z</time></trkpt><trkpt lat="43.28765648260245" lon="-3.9978663614461616"><ele>275.0</ele><time>2026-05-02T09:51:36Z</time></trkpt><trkpt lat="43.287682796787415" lon="-3.9977137155712854"><ele>275.0</ele><time>2026-05-02T09:51:37Z</time></trkpt><trkpt lat="43.28770528685963" lon="-3.9975583900151794"><ele>275.0</ele><time>2026-05-02T09:51:38Z</time></trkpt><trkpt lat="43.28772797473905" lon="-3.9974040813027245"><ele>275.0</ele><time>2026-05-02T09:51:39Z</time></trkpt><trkpt lat="43.287755766492985" lon="-3.99724725726602"><ele>272.0</ele><time>2026-05-02T09:51:40Z</time></trkpt><trkpt lat="43.28778185532815" lon="-3.9970936271281485"><ele>269.0</ele><time>2026-05-02T09:51:41Z</time></trkpt><trkpt lat="43.287803894444785" lon="-3.996943430209557"><ele>266.0</ele><time>2026-05-02T09:51:42Z</time></trkpt><trkpt lat="43.28783014271156" lon="-3.996794359398486"><ele>263.0</ele><time>2026-05-02T09:51:43Z</time></trkpt><trkpt lat="43.28785291354864" lon="-3.9966440717400027"><ele>259.5</ele><time>2026-05-02T09:51:44Z</time></trkpt><trkpt lat="43.287879596475065" lon="-3.996484958629136"><ele>256.0</ele><time>2026-05-02T09:51:45Z</time></trkpt><trkpt lat="43.287903544190215" lon="-3.9963384856747868"><ele>252.5</ele><time>2026-05-02T09:51:46Z</time></trkpt><trkpt lat="43.28792874341833" lon="-3.996189114522743"><ele>249.0</ele><time>2026-05-02T09:51:47Z</time></trkpt><trkpt lat="43.28795330185328" lon="-3.9960360739375913"><ele>249.0</ele><time>2026-05-02T09:51:48Z</time></trkpt><trkpt lat="43.28797893544263" lon="-3.995885654736511"><ele>249.0</ele><time>2026-05-02T09:51:49Z</time></trkpt><trkpt lat="43.28800325153227" lon="-3.9957292979824133"><ele>249.0</ele><time>2026-05-02T09:51:50Z</time></trkpt><trkpt lat="43.288027518954" lon="-3.995577505273484"><ele>249.0</ele><time>2026-05-02T09:51:51Z</time></trkpt><trkpt lat="43.288048645999076" lon="-3.9954215829023796"><ele>247.0</ele><time>2026-05-02T09:51:52Z</time></trkpt><trkpt lat="43.28806690283741" lon="-3.9952631731600574"><ele>245.0</ele><time>2026-05-02T09:51:53Z</time></trkpt><trkpt lat="43.28808660935876" lon="-3.995106734858436"><ele>243.0</ele><time>2026-05-02T09:51:54Z</time></trkpt><trkpt lat="43.288103948635616" lon="-3.9949487209406076"><ele>241.0</ele><time>2026-05-02T09:51:55Z</time></trkpt><trkpt lat="43.28811914674067" lon="-3.9947918457408127"><ele>248.25</ele><time>2026-05-02T09:51:56Z</time></trkpt><trkpt lat="43.288126408123254" lon="-3.9946332102463877"><ele>255.5</ele><time>2026-05-02T09:51:57Z</time></trkpt><trkpt lat="43.288135658492855" lon="-3.9944795679152416"><ele>262.75</ele><time>2026-05-02T09:51:58Z</time></trkpt><trkpt lat="43.288144353557584" lon="-3.994326350107255"><ele>270.0</ele><time>2026-05-02T09:51:59Z</time></trkpt><trkpt lat="43.28815102423206" lon="-3.9941710426020918"><ele>270.0</ele><time>2026-05-02T09:52:00Z</time></trkpt><trkpt lat="43.288154003249346" lon="-3.99401671279506"><ele>270.0</ele><time>2026-05-02T09:52:01Z</time></trkpt><trkpt lat="43.28815365814469" lon="-3.993861332425047"><ele>270.0</ele><time>2026-05-02T09:52:02Z</time></trkpt><trkpt lat="43.288151837736685" lon="-3.9937054168235138"><ele>270.0</ele><time>2026-05-02T09:52:03Z</time></trkpt><trkpt lat="43.288146396776796" lon="-3.9935484573062907"><ele>270.0</ele><time>2026-05-02T09:52:04Z</time></trkpt><trkpt lat="43.288134209515725" lon="-3.993397670102977"><ele>270.0</ele><time>2026-05-02T09:52:05Z</time></trkpt><trkpt lat="43.288125178958786" lon="-3.9932409023075306"><ele>270.0</ele><time>2026-05-02T09:52:06Z</time></trkpt><trkpt lat="43.2881109972157" lon="-3.993083420978394"><ele>270.0</ele><time>2026-05-02T09:52:07Z</time></trkpt><trkpt lat="43.28809667067832" lon="-3.9929255778893675"><ele>258.0</ele><time>2026-05-02T09:52:08Z</time></trkpt><trkpt lat="43.28807918500026" lon="-3.992766935638943"><ele>246.0</ele><time>2026-05-02T09:52:09.001Z</time></trkpt><trkpt lat="43.28805783847232" lon="-3.9926092742356025"><ele>234.0</ele><time>2026-05-02T09:52:10.001Z</time></trkpt><trkpt lat="43.2880347345808" lon="-3.9924509037132982"><ele>222.0</ele><time>2026-05-02T09:52:11.001Z</time></trkpt><trkpt lat="43.28800934524763" lon="-3.9922931526454315"><ele>221.75</ele><time>2026-05-02T09:52:12.001Z</time></trkpt><trkpt lat="43.287981365429374" lon="-3.992137682441782"><ele>221.5</ele><time>2026-05-02T09:52:13.001Z</time></trkpt><trkpt lat="43.28794870764933" lon="-3.9919811881079723"><ele>221.25</ele><time>2026-05-02T09:52:14.001Z</time></trkpt><trkpt lat="43.287916397210196" lon="-3.9918278613001386"><ele>221.0</ele><time>2026-05-02T09:52:15.001Z</time></trkpt><trkpt lat="43.287875452998826" lon="-3.9916781644429284"><ele>221.75</ele><time>2026-05-02T09:52:16.001Z</time></trkpt><trkpt lat="43.287840864883144" lon="-3.9915276444578387"><ele>222.5</ele><time>2026-05-02T09:52:17.001Z</time></trkpt><trkpt lat="43.2878020944678" lon="-3.991378750741512"><ele>223.25</ele><time>2026-05-02T09:52:18.001Z</time></trkpt><trkpt lat="43.287762044514054" lon="-3.991234471904857"><ele>224.0</ele><time>2026-05-02T09:52:19.001Z</time></trkpt><trkpt lat="43.28772366387102" lon="-3.9910859458542007"><ele>224.0</ele><time>2026-05-02T09:52:20.001Z</time></trkpt><trkpt lat="43.287684482400465" lon="-3.990938975421471"><ele>224.0</ele><time>2026-05-02T09:52:21.001Z</time></trkpt><trkpt lat="43.28764459490715" lon="-3.9907892656396338"><ele>224.0</ele><time>2026-05-02T09:52:22.001Z</time></trkpt><trkpt lat="43.28760557370506" lon="-3.990644638280157"><ele>224.0</ele><time>2026-05-02T09:52:23.001Z</time></trkpt><trkpt lat="43.28756791283093" lon="-3.9904950118387355"><ele>224.5</ele><time>2026-05-02T09:52:24.001Z</time></trkpt><trkpt lat="43.2875275139378" lon="-3.990351718885727"><ele>225.0</ele><time>2026-05-02T09:52:25.001Z</time></trkpt><trkpt lat="43.2874889667936" lon="-3.99020212495681"><ele>225.5</ele><time>2026-05-02T09:52:26.001Z</time></trkpt><trkpt lat="43.28745796034391" lon="-3.990050608341804"><ele>226.0</ele><time>2026-05-02T09:52:27.001Z</time></trkpt><trkpt lat="43.28742289965076" lon="-3.989892853609493"><ele>227.75</ele><time>2026-05-02T09:52:28.001Z</time></trkpt><trkpt lat="43.28739674319708" lon="-3.9897432387784257"><ele>229.5</ele><time>2026-05-02T09:52:29.001Z</time></trkpt><trkpt lat="43.287371476839674" lon="-3.9895991378833444"><ele>231.25</ele><time>2026-05-02T09:52:30.001Z</time></trkpt><trkpt lat="43.287346415556364" lon="-3.989436092329067"><ele>233.0</ele><time>2026-05-02T09:52:31.001Z</time></trkpt><trkpt lat="43.28732935640886" lon="-3.9892744972176706"><ele>232.25</ele><time>2026-05-02T09:52:32.001Z</time></trkpt><trkpt lat="43.28731674686643" lon="-3.989111247035499"><ele>231.5</ele><time>2026-05-02T09:52:33.001Z</time></trkpt><trkpt lat="43.287305378999704" lon="-3.9889551118970474"><ele>230.75</ele><time>2026-05-02T09:52:34.001Z</time></trkpt><trkpt lat="43.28728895659671" lon="-3.988797706418458"><ele>230.0</ele><time>2026-05-02T09:52:35.001Z</time></trkpt><trkpt lat="43.28728751749407" lon="-3.988632912528386"><ele>230.0</ele><time>2026-05-02T09:52:36.001Z</time></trkpt><trkpt lat="43.287277187860376" lon="-3.98847022255613"><ele>230.0</ele><time>2026-05-02T09:52:37.001Z</time></trkpt><trkpt lat="43.287269830912905" lon="-3.98830693889144"><ele>230.0</ele><time>2026-05-02T09:52:38.001Z</time></trkpt><trkpt lat="43.287269429776806" lon="-3.9881505192275175"><ele>230.0</ele><time>2026-05-02T09:52:39.001Z</time></trkpt><trkpt lat="43.28726785499039" lon="-3.9879930442392406"><ele>229.5</ele><time>2026-05-02T09:52:40.001Z</time></trkpt><trkpt lat="43.287265663814736" lon="-3.9878249169206734"><ele>229.0</ele><time>2026-05-02T09:52:41.001Z</time></trkpt><trkpt lat="43.28726264049208" lon="-3.987662515923846"><ele>228.5</ele><time>2026-05-02T09:52:42.001Z</time></trkpt><trkpt lat="43.287258640263325" lon="-3.987504085367976"><ele>228.0</ele><time>2026-05-02T09:52:43.001Z</time></trkpt><trkpt lat="43.287255029516665" lon="-3.98734844033099"><ele>220.0</ele><time>2026-05-02T09:52:44.001Z</time></trkpt><trkpt lat="43.28724790431566" lon="-3.9871889366106297"><ele>212.0</ele><time>2026-05-02T09:52:45.001Z</time></trkpt><trkpt lat="43.287246693901395" lon="-3.987029310808061"><ele>204.0</ele><time>2026-05-02T09:52:46.001Z</time></trkpt><trkpt lat="43.287242483890964" lon="-3.9868700185732426"><ele>196.0</ele><time>2026-05-02T09:52:47.001Z</time></trkpt><trkpt lat="43.287242689397615" lon="-3.9867089686620245"><ele>196.25</ele><time>2026-05-02T09:52:48.001Z</time></trkpt><trkpt lat="43.28723515190312" lon="-3.9865517389314493"><ele>196.5</ele><time>2026-05-02T09:52:49.001Z</time></trkpt><trkpt lat="43.287231956093876" lon="-3.9863926316118787"><ele>196.75</ele><time>2026-05-02T09:52:50.001Z</time></trkpt><trkpt lat="43.28722923207124" lon="-3.986231028318655"><ele>197.0</ele><time>2026-05-02T09:52:51.001Z</time></trkpt><trkpt lat="43.28722098112898" lon="-3.9860721827001946"><ele>197.0</ele><time>2026-05-02T09:52:52.001Z</time></trkpt><trkpt lat="43.28721858025738" lon="-3.985914720164116"><ele>197.0</ele><time>2026-05-02T09:52:53.001Z</time></trkpt><trkpt lat="43.287217282774556" lon="-3.98575628304976"><ele>197.0</ele><time>2026-05-02T09:52:54.001Z</time></trkpt><trkpt lat="43.28722069578013" lon="-3.9855955599159234"><ele>197.0</ele><time>2026-05-02T09:52:55.001Z</time></trkpt><trkpt lat="43.287231438992535" lon="-3.985437300709811"><ele>197.0</ele><time>2026-05-02T09:52:56.001Z</time></trkpt><trkpt lat="43.28724656508637" lon="-3.9852849432559494"><ele>197.0</ele><time>2026-05-02T09:52:57.001Z</time></trkpt><trkpt lat="43.2872618744762" lon="-3.985125139388173"><ele>197.0</ele><time>2026-05-02T09:52:58.001Z</time></trkpt><trkpt lat="43.28728430968665" lon="-3.9849666890157383"><ele>197.0</ele><time>2026-05-02T09:52:59.001Z</time></trkpt><trkpt lat="43.2873124074233" lon="-3.984815208079653"><ele>200.0</ele><time>2026-05-02T09:53:00.001Z</time></trkpt><trkpt lat="43.28733989398526" lon="-3.9846616710900196"><ele>203.0</ele><time>2026-05-02T09:53:01.001Z</time></trkpt><trkpt lat="43.28737164916505" lon="-3.9845056343134218"><ele>206.0</ele><time>2026-05-02T09:53:02.001Z</time></trkpt><trkpt lat="43.287410135918165" lon="-3.984358898690104"><ele>209.0</ele><time>2026-05-02T09:53:03.001Z</time></trkpt><trkpt lat="43.28745113468141" lon="-3.9842136889713373"><ele>206.5</ele><time>2026-05-02T09:53:04.001Z</time></trkpt><trkpt lat="43.2874981956923" lon="-3.9840694428904637"><ele>204.0</ele><time>2026-05-02T09:53:05.001Z</time></trkpt><trkpt lat="43.28754888939622" lon="-3.983934411989459"><ele>201.5</ele><time>2026-05-02T09:53:06.001Z</time></trkpt><trkpt lat="43.28760292505918" lon="-3.9837957677761837"><ele>199.0</ele><time>2026-05-02T09:53:07.001Z</time></trkpt><trkpt lat="43.287661187235585" lon="-3.983663325061504"><ele>199.0</ele><time>2026-05-02T09:53:08.002Z</time></trkpt><trkpt lat="43.287724609904195" lon="-3.983532848954583"><ele>199.0</ele><time>2026-05-02T09:53:09.002Z</time></trkpt><trkpt lat="43.287792142685426" lon="-3.9834072410054286"><ele>199.0</ele><time>2026-05-02T09:53:10.002Z</time></trkpt><trkpt lat="43.28786009060836" lon="-3.983281804125453"><ele>199.0</ele><time>2026-05-02T09:53:11.002Z</time></trkpt><trkpt lat="43.28793359984462" lon="-3.9831587222366935"><ele>200.25</ele><time>2026-05-02T09:53:12.002Z</time></trkpt><trkpt lat="43.28800957612891" lon="-3.983045512393328"><ele>201.5</ele><time>2026-05-02T09:53:13.002Z</time></trkpt><trkpt lat="43.288092115758786" lon="-3.982933173085554"><ele>202.75</ele><time>2026-05-02T09:53:14.002Z</time></trkpt><trkpt lat="43.288177384517965" lon="-3.9828267655358616"><ele>204.0</ele><time>2026-05-02T09:53:15.002Z</time></trkpt><trkpt lat="43.288261929104046" lon="-3.9827199911357165"><ele>204.0</ele><time>2026-05-02T09:53:16.002Z</time></trkpt><trkpt lat="43.28834903506029" lon="-3.982615937114433"><ele>204.0</ele><time>2026-05-02T09:53:17.002Z</time></trkpt><trkpt lat="43.288435531020426" lon="-3.982513756480818"><ele>204.0</ele><time>2026-05-02T09:53:18.002Z</time></trkpt><trkpt lat="43.28852438044958" lon="-3.9824169635493707"><ele>204.0</ele><time>2026-05-02T09:53:19.002Z</time></trkpt><trkpt lat="43.28861330803442" lon="-3.9823200617295758"><ele>206.0</ele><time>2026-05-02T09:53:20.002Z</time></trkpt><trkpt lat="43.288701733017994" lon="-3.9822183832250224"><ele>208.0</ele><time>2026-05-02T09:53:21.002Z</time></trkpt><trkpt lat="43.288785025535866" lon="-3.982115809472678"><ele>210.0</ele><time>2026-05-02T09:53:22.002Z</time></trkpt><trkpt lat="43.288864491384" lon="-3.9820054791915664"><ele>212.0</ele><time>2026-05-02T09:53:23.002Z</time></trkpt><trkpt lat="43.288945837229676" lon="-3.981892560669734"><ele>212.0</ele><time>2026-05-02T09:53:24.002Z</time></trkpt><trkpt lat="43.28902210932952" lon="-3.9817747590940678"><ele>212.0</ele><time>2026-05-02T09:53:25.002Z</time></trkpt><trkpt lat="43.28909309387833" lon="-3.9816466622083"><ele>212.0</ele><time>2026-05-02T09:53:26.002Z</time></trkpt><trkpt lat="43.28915570040441" lon="-3.9815123887318853"><ele>212.0</ele><time>2026-05-02T09:53:27.002Z</time></trkpt><trkpt lat="43.28921187774825" lon="-3.9813738506518415"><ele>207.5</ele><time>2026-05-02T09:53:28.002Z</time></trkpt><trkpt lat="43.2892647729499" lon="-3.9812349265927827"><ele>203.0</ele><time>2026-05-02T09:53:29.002Z</time></trkpt><trkpt lat="43.2893101800069" lon="-3.98109079909118"><ele>198.5</ele><time>2026-05-02T09:53:30.002Z</time></trkpt><trkpt lat="43.2893479811604" lon="-3.980943136352663"><ele>194.0</ele><time>2026-05-02T09:53:31.002Z</time></trkpt><trkpt lat="43.28938498197966" lon="-3.980792181704095"><ele>190.0</ele><time>2026-05-02T09:53:32.002Z</time></trkpt><trkpt lat="43.289409590985244" lon="-3.9806382559407827"><ele>186.0</ele><time>2026-05-02T09:53:33.002Z</time></trkpt><trkpt lat="43.28943882422483" lon="-3.980487435434165"><ele>182.0</ele><time>2026-05-02T09:53:34.002Z</time></trkpt><trkpt lat="43.28946366164361" lon="-3.980332585170816"><ele>178.0</ele><time>2026-05-02T09:53:35.002Z</time></trkpt><trkpt lat="43.28948778905517" lon="-3.9801754624439636"><ele>178.0</ele><time>2026-05-02T09:53:36.002Z</time></trkpt><trkpt lat="43.289513694571674" lon="-3.980020050570485"><ele>178.0</ele><time>2026-05-02T09:53:37Z</time></trkpt><trkpt lat="43.28953841154282" lon="-3.9798634217564275"><ele>178.0</ele><time>2026-05-02T09:53:38Z</time></trkpt><trkpt lat="43.289563959009655" lon="-3.979704904391648"><ele>178.0</ele><time>2026-05-02T09:53:39Z</time></trkpt><trkpt lat="43.28958879117676" lon="-3.979545444710914"><ele>175.0</ele><time>2026-05-02T09:53:40Z</time></trkpt><trkpt lat="43.28961194082093" lon="-3.979388287978346"><ele>172.0</ele><time>2026-05-02T09:53:41Z</time></trkpt><trkpt lat="43.289635924741134" lon="-3.9792295997383276"><ele>169.0</ele><time>2026-05-02T09:53:42Z</time></trkpt><trkpt lat="43.28965993374735" lon="-3.9790743625955223"><ele>166.0</ele><time>2026-05-02T09:53:43Z</time></trkpt><trkpt lat="43.28968481869535" lon="-3.9789172081648263"><ele>168.25</ele><time>2026-05-02T09:53:44Z</time></trkpt><trkpt lat="43.2897115798746" lon="-3.9787634139684926"><ele>170.5</ele><time>2026-05-02T09:53:45Z</time></trkpt><trkpt lat="43.28973596224334" lon="-3.9786044434244916"><ele>172.75</ele><time>2026-05-02T09:53:46Z</time></trkpt><trkpt lat="43.28976093076203" lon="-3.978449320728308"><ele>175.0</ele><time>2026-05-02T09:53:47Z</time></trkpt><trkpt lat="43.28978600551895" lon="-3.978291104998437"><ele>175.0</ele><time>2026-05-02T09:53:48Z</time></trkpt><trkpt lat="43.28981279015671" lon="-3.9781360942463357"><ele>175.0</ele><time>2026-05-02T09:53:49Z</time></trkpt><trkpt lat="43.28983689279354" lon="-3.977978298478783"><ele>175.0</ele><time>2026-05-02T09:53:50Z</time></trkpt><trkpt lat="43.28986073872632" lon="-3.977823012570263"><ele>175.0</ele><time>2026-05-02T09:53:51Z</time></trkpt><trkpt lat="43.28988606558947" lon="-3.977666088940908"><ele>170.75</ele><time>2026-05-02T09:53:52Z</time></trkpt><trkpt lat="43.289910079740345" lon="-3.977510109517134"><ele>166.5</ele><time>2026-05-02T09:53:53Z</time></trkpt><trkpt lat="43.28993123680049" lon="-3.977353027500927"><ele>162.25</ele><time>2026-05-02T09:53:54Z</time></trkpt><trkpt lat="43.289949420392034" lon="-3.977197759564716"><ele>158.0</ele><time>2026-05-02T09:53:55Z</time></trkpt><trkpt lat="43.28996294512962" lon="-3.977039422511095"><ele>158.0</ele><time>2026-05-02T09:53:56Z</time></trkpt><trkpt lat="43.28997386428029" lon="-3.976880737785755"><ele>158.0</ele><time>2026-05-02T09:53:57Z</time></trkpt><trkpt lat="43.2899830123183" lon="-3.9767239833750887"><ele>158.0</ele><time>2026-05-02T09:53:58Z</time></trkpt><trkpt lat="43.28998726978115" lon="-3.976566547757781"><ele>158.0</ele><time>2026-05-02T09:53:59Z</time></trkpt><trkpt lat="43.289984829515085" lon="-3.9764080688801577"><ele>156.75</ele><time>2026-05-02T09:54:00Z</time></trkpt><trkpt lat="43.289983021269215" lon="-3.9762513252437546"><ele>155.5</ele><time>2026-05-02T09:54:01Z</time></trkpt><trkpt lat="43.289979693431256" lon="-3.976088345504121"><ele>154.25</ele><time>2026-05-02T09:54:02Z</time></trkpt><trkpt lat="43.28997804116263" lon="-3.975928757307641"><ele>153.0</ele><time>2026-05-02T09:54:03Z</time></trkpt><trkpt lat="43.28997636990955" lon="-3.9757705960997396"><ele>151.5</ele><time>2026-05-02T09:54:04Z</time></trkpt><trkpt lat="43.289973193667144" lon="-3.975614613353031"><ele>150.0</ele><time>2026-05-02T09:54:05Z</time></trkpt><trkpt lat="43.2899675255298" lon="-3.975454800363013"><ele>148.5</ele><time>2026-05-02T09:54:06Z</time></trkpt><trkpt lat="43.289962433801605" lon="-3.975295985399795"><ele>147.0</ele><time>2026-05-02T09:54:07Z</time></trkpt><trkpt lat="43.28995517890074" lon="-3.9751366825308674"><ele>146.0</ele><time>2026-05-02T09:54:08Z</time></trkpt><trkpt lat="43.28994997864394" lon="-3.9749772174987394"><ele>145.0</ele><time>2026-05-02T09:54:09Z</time></trkpt><trkpt lat="43.28994333072887" lon="-3.9748147126123863"><ele>144.0</ele><time>2026-05-02T09:54:10Z</time></trkpt><trkpt lat="43.289935012206676" lon="-3.9746538620349496"><ele>143.0</ele><time>2026-05-02T09:54:11Z</time></trkpt><trkpt lat="43.28993026742554" lon="-3.9744959739303116"><ele>143.0</ele><time>2026-05-02T09:54:12Z</time></trkpt><trkpt lat="43.28991906048415" lon="-3.9743388636938435"><ele>143.0</ele><time>2026-05-02T09:54:13Z</time></trkpt><trkpt lat="43.289900075970635" lon="-3.97418050038655"><ele>143.0</ele><time>2026-05-02T09:54:14Z</time></trkpt><trkpt lat="43.28987795319307" lon="-3.974024270410482"><ele>143.0</ele><time>2026-05-02T09:54:15Z</time></trkpt><trkpt lat="43.28984957292539" lon="-3.9738669024894078"><ele>143.5</ele><time>2026-05-02T09:54:16Z</time></trkpt><trkpt lat="43.289814937754" lon="-3.9737165909448104"><ele>144.0</ele><time>2026-05-02T09:54:17Z</time></trkpt><trkpt lat="43.28977452532794" lon="-3.9735708835347334"><ele>144.5</ele><time>2026-05-02T09:54:18Z</time></trkpt><trkpt lat="43.28972523328491" lon="-3.9734259710939015"><ele>145.0</ele><time>2026-05-02T09:54:19Z</time></trkpt><trkpt lat="43.28966831121804" lon="-3.9732850177013477"><ele>137.75</ele><time>2026-05-02T09:54:20Z</time></trkpt><trkpt lat="43.28960575967683" lon="-3.973150378170723"><ele>130.5</ele><time>2026-05-02T09:54:21Z</time></trkpt><trkpt lat="43.289540029527195" lon="-3.9730162137906744"><ele>123.25</ele><time>2026-05-02T09:54:22Z</time></trkpt><trkpt lat="43.28947287688811" lon="-3.9728868736590415"><ele>116.0</ele><time>2026-05-02T09:54:23Z</time></trkpt><trkpt lat="43.28940308026315" lon="-3.9727511291617286"><ele>116.0</ele><time>2026-05-02T09:54:24.001Z</time></trkpt><trkpt lat="43.289334455980516" lon="-3.9726236512298088"><ele>116.0</ele><time>2026-05-02T09:54:25.001Z</time></trkpt><trkpt lat="43.28926441017785" lon="-3.9724972150834845"><ele>116.0</ele><time>2026-05-02T09:54:26.001Z</time></trkpt><trkpt lat="43.28919634534819" lon="-3.972367226866164"><ele>116.0</ele><time>2026-05-02T09:54:27.001Z</time></trkpt><trkpt lat="43.289129827893625" lon="-3.9722377274994223"><ele>114.5</ele><time>2026-05-02T09:54:28.001Z</time></trkpt><trkpt lat="43.28906257020365" lon="-3.9721075677917184"><ele>113.0</ele><time>2026-05-02T09:54:29.001Z</time></trkpt><trkpt lat="43.28899278207965" lon="-3.9719780545456973"><ele>111.5</ele><time>2026-05-02T09:54:30.001Z</time></trkpt><trkpt lat="43.28892398194303" lon="-3.9718446127477116"><ele>110.0</ele><time>2026-05-02T09:54:31.001Z</time></trkpt><trkpt lat="43.2888574999512" lon="-3.9717128696458297"><ele>110.25</ele><time>2026-05-02T09:54:32.001Z</time></trkpt><trkpt lat="43.28879463092817" lon="-3.9715767722329613"><ele>110.5</ele><time>2026-05-02T09:54:33.001Z</time></trkpt><trkpt lat="43.28872918254805" lon="-3.97143831315613"><ele>110.75</ele><time>2026-05-02T09:54:34.001Z</time></trkpt><trkpt lat="43.28865902777407" lon="-3.9712997150240628"><ele>111.0</ele><time>2026-05-02T09:54:35.001Z</time></trkpt><trkpt lat="43.288589977150764" lon="-3.971161390402514"><ele>111.0</ele><time>2026-05-02T09:54:36.001Z</time></trkpt><trkpt lat="43.28852667840856" lon="-3.971022903397503"><ele>111.0</ele><time>2026-05-02T09:54:37.001Z</time></trkpt><trkpt lat="43.288464387223804" lon="-3.9708868066497787"><ele>111.0</ele><time>2026-05-02T09:54:38.001Z</time></trkpt><trkpt lat="43.28841533271593" lon="-3.9707458224748398"><ele>111.0</ele><time>2026-05-02T09:54:39.001Z</time></trkpt><trkpt lat="43.28836551660571" lon="-3.970605380129363"><ele>111.75</ele><time>2026-05-02T09:54:40.001Z</time></trkpt><trkpt lat="43.28831128153613" lon="-3.9704635847559726"><ele>112.5</ele><time>2026-05-02T09:54:41.001Z</time></trkpt><trkpt lat="43.28825761241927" lon="-3.9703223484043666"><ele>113.25</ele><time>2026-05-02T09:54:42.001Z</time></trkpt><trkpt lat="43.28820878389065" lon="-3.9701715763863006"><ele>114.0</ele><time>2026-05-02T09:54:43.001Z</time></trkpt><trkpt lat="43.288154834175494" lon="-3.970027136835619"><ele>112.75</ele><time>2026-05-02T09:54:44.001Z</time></trkpt><trkpt lat="43.288105682189844" lon="-3.9698779587817405"><ele>111.5</ele><time>2026-05-02T09:54:45.001Z</time></trkpt><trkpt lat="43.2880603069311" lon="-3.9697322585335977"><ele>110.25</ele><time>2026-05-02T09:54:46.001Z</time></trkpt><trkpt lat="43.28801602828718" lon="-3.9695805369018395"><ele>109.0</ele><time>2026-05-02T09:54:47.001Z</time></trkpt><trkpt lat="43.28797403289579" lon="-3.96942774734066"><ele>109.0</ele><time>2026-05-02T09:54:48.001Z</time></trkpt><trkpt lat="43.28792904069416" lon="-3.9692794538220397"><ele>109.0</ele><time>2026-05-02T09:54:49.001Z</time></trkpt><trkpt lat="43.2878819196076" lon="-3.969129898671832"><ele>109.0</ele><time>2026-05-02T09:54:50.001Z</time></trkpt><trkpt lat="43.28783859566496" lon="-3.9689820537956484"><ele>109.0</ele><time>2026-05-02T09:54:51.001Z</time></trkpt><trkpt lat="43.287796383179" lon="-3.9688317474656585"><ele>106.75</ele><time>2026-05-02T09:54:52.001Z</time></trkpt><trkpt lat="43.287752370581636" lon="-3.9686821437470745"><ele>104.5</ele><time>2026-05-02T09:54:53.001Z</time></trkpt><trkpt lat="43.28771113727022" lon="-3.9685303782203065"><ele>102.25</ele><time>2026-05-02T09:54:54.001Z</time></trkpt><trkpt lat="43.28767026051526" lon="-3.9683757515139977"><ele>100.0</ele><time>2026-05-02T09:54:55.001Z</time></trkpt><trkpt lat="43.287627578098046" lon="-3.968224083590981"><ele>99.75</ele><time>2026-05-02T09:54:56.001Z</time></trkpt><trkpt lat="43.28758454582335" lon="-3.968075036004284"><ele>99.5</ele><time>2026-05-02T09:54:57.001Z</time></trkpt><trkpt lat="43.287543538119515" lon="-3.9679247366164963"><ele>99.25</ele><time>2026-05-02T09:54:58.001Z</time></trkpt><trkpt lat="43.28750167322703" lon="-3.967777927580641"><ele>99.0</ele><time>2026-05-02T09:54:59.001Z</time></trkpt><trkpt lat="43.28745852474044" lon="-3.9676328712715985"><ele>100.0</ele><time>2026-05-02T09:55:00.001Z</time></trkpt><trkpt lat="43.28741652801088" lon="-3.9674892380062636"><ele>101.0</ele><time>2026-05-02T09:55:01.001Z</time></trkpt><trkpt lat="43.287374300567436" lon="-3.967342571550462"><ele>102.0</ele><time>2026-05-02T09:55:02.001Z</time></trkpt><trkpt lat="43.28733351027768" lon="-3.9671937205369363"><ele>103.0</ele><time>2026-05-02T09:55:03.001Z</time></trkpt><trkpt lat="43.28729029177575" lon="-3.967044228848193"><ele>101.5</ele><time>2026-05-02T09:55:04.001Z</time></trkpt><trkpt lat="43.28724951794907" lon="-3.9668957063463255"><ele>100.0</ele><time>2026-05-02T09:55:05.001Z</time></trkpt><trkpt lat="43.28721120657463" lon="-3.966748060093592"><ele>98.5</ele><time>2026-05-02T09:55:06.001Z</time></trkpt><trkpt lat="43.28717862053313" lon="-3.966599400164191"><ele>97.0</ele><time>2026-05-02T09:55:07.001Z</time></trkpt><trkpt lat="43.287151971312454" lon="-3.9664423903119213"><ele>97.0</ele><time>2026-05-02T09:55:08.001Z</time></trkpt><trkpt lat="43.287120284139924" lon="-3.966286886751644"><ele>97.0</ele><time>2026-05-02T09:55:09.001Z</time></trkpt><trkpt lat="43.28709786509745" lon="-3.9661330625138578"><ele>97.0</ele><time>2026-05-02T09:55:10.001Z</time></trkpt><trkpt lat="43.28708165676795" lon="-3.965977469204846"><ele>97.0</ele><time>2026-05-02T09:55:11.001Z</time></trkpt><trkpt lat="43.28707143673256" lon="-3.9658203935335186"><ele>97.0</ele><time>2026-05-02T09:55:12.001Z</time></trkpt><trkpt lat="43.287066188691384" lon="-3.9656633808497084"><ele>97.0</ele><time>2026-05-02T09:55:13.001Z</time></trkpt><trkpt lat="43.28706655480352" lon="-3.9655028714289116"><ele>97.0</ele><time>2026-05-02T09:55:14.001Z</time></trkpt><trkpt lat="43.287070431116774" lon="-3.9653443531460426"><ele>97.0</ele><time>2026-05-02T09:55:15.001Z</time></trkpt><trkpt lat="43.287080676275295" lon="-3.965186828414071"><ele>97.25</ele><time>2026-05-02T09:55:16.001Z</time></trkpt><trkpt lat="43.287097729760646" lon="-3.9650289710877575"><ele>97.5</ele><time>2026-05-02T09:55:17.001Z</time></trkpt><trkpt lat="43.28711599416234" lon="-3.9648730751771173"><ele>97.75</ele><time>2026-05-02T09:55:18.001Z</time></trkpt><trkpt lat="43.28714047394685" lon="-3.9647180998966416"><ele>98.0</ele><time>2026-05-02T09:55:19.001Z</time></trkpt><trkpt lat="43.28717074021407" lon="-3.9645668598167485"><ele>98.0</ele><time>2026-05-02T09:55:20.001Z</time></trkpt><trkpt lat="43.287208464514244" lon="-3.964414956653719"><ele>98.0</ele><time>2026-05-02T09:55:21.001Z</time></trkpt><trkpt lat="43.28724965243542" lon="-3.964265363325528"><ele>98.0</ele><time>2026-05-02T09:55:22.001Z</time></trkpt><trkpt lat="43.28729538990739" lon="-3.9641175838337803"><ele>98.0</ele><time>2026-05-02T09:55:23.001Z</time></trkpt><trkpt lat="43.287345752740535" lon="-3.963976529916447"><ele>96.0</ele><time>2026-05-02T09:55:24.001Z</time></trkpt><trkpt lat="43.28739984396793" lon="-3.9638334533401833"><ele>94.0</ele><time>2026-05-02T09:55:25.002Z</time></trkpt><trkpt lat="43.28745590334845" lon="-3.9636977195771674"><ele>92.0</ele><time>2026-05-02T09:55:26.002Z</time></trkpt><trkpt lat="43.2875193608602" lon="-3.9635666726135264"><ele>90.0</ele><time>2026-05-02T09:55:27.002Z</time></trkpt><trkpt lat="43.28758711371516" lon="-3.963439712539164"><ele>91.5</ele><time>2026-05-02T09:55:28.002Z</time></trkpt><trkpt lat="43.28766100587737" lon="-3.963314814452905"><ele>93.0</ele><time>2026-05-02T09:55:29.002Z</time></trkpt><trkpt lat="43.28773945676155" lon="-3.9631962321144347"><ele>94.5</ele><time>2026-05-02T09:55:30.002Z</time></trkpt><trkpt lat="43.28782275786234" lon="-3.9630811502906647"><ele>96.0</ele><time>2026-05-02T09:55:31.002Z</time></trkpt><trkpt lat="43.2879041913334" lon="-3.962971765275264"><ele>96.0</ele><time>2026-05-02T09:55:32.002Z</time></trkpt><trkpt lat="43.28798329910525" lon="-3.9628672858105247"><ele>96.0</ele><time>2026-05-02T09:55:33.002Z</time></trkpt><trkpt lat="43.288069526209775" lon="-3.9627607336581736"><ele>96.0</ele><time>2026-05-02T09:55:34.002Z</time></trkpt><trkpt lat="43.28815315838785" lon="-3.962655387437283"><ele>96.0</ele><time>2026-05-02T09:55:35.002Z</time></trkpt><trkpt lat="43.288235131934805" lon="-3.962545217639247"><ele>93.75</ele><time>2026-05-02T09:55:36.002Z</time></trkpt><trkpt lat="43.28831530321291" lon="-3.962439204499011"><ele>91.5</ele><time>2026-05-02T09:55:37.002Z</time></trkpt><trkpt lat="43.28839587089613" lon="-3.9623257598873303"><ele>89.25</ele><time>2026-05-02T09:55:38.002Z</time></trkpt><trkpt lat="43.28847172784416" lon="-3.9622059167870054"><ele>87.0</ele><time>2026-05-02T09:55:39.002Z</time></trkpt><trkpt lat="43.288541844329195" lon="-3.9620805187415598"><ele>87.0</ele><time>2026-05-02T09:55:40.002Z</time></trkpt><trkpt lat="43.288607154295" lon="-3.961950136066455"><ele>87.0</ele><time>2026-05-02T09:55:41.002Z</time></trkpt><trkpt lat="43.28866265277073" lon="-3.9618138543323638"><ele>87.0</ele><time>2026-05-02T09:55:42.002Z</time></trkpt><trkpt lat="43.28871445812518" lon="-3.9616784691090174"><ele>87.0</ele><time>2026-05-02T09:55:43Z</time></trkpt><trkpt lat="43.288768074195396" lon="-3.9615429683068064"><ele>88.0</ele><time>2026-05-02T09:55:44Z</time></trkpt><trkpt lat="43.28882183213247" lon="-3.961408690748607"><ele>89.0</ele><time>2026-05-02T09:55:45Z</time></trkpt><trkpt lat="43.288876029544866" lon="-3.961273981825357"><ele>90.0</ele><time>2026-05-02T09:55:46Z</time></trkpt><trkpt lat="43.288929816160554" lon="-3.9611401873704044"><ele>91.0</ele><time>2026-05-02T09:55:47Z</time></trkpt><trkpt lat="43.28898468756821" lon="-3.961008509551601"><ele>92.0</ele><time>2026-05-02T09:55:48Z</time></trkpt><trkpt lat="43.28903734937365" lon="-3.960873705433951"><ele>89.5</ele><time>2026-05-02T09:55:49Z</time></trkpt><trkpt lat="43.28909246499037" lon="-3.9607290034501292"><ele>87.0</ele><time>2026-05-02T09:55:50Z</time></trkpt><trkpt lat="43.28916243498162" lon="-3.9605586063101965"><ele>84.5</ele><time>2026-05-02T09:55:51Z</time></trkpt><trkpt lat="43.289209241041526" lon="-3.960355361502439"><ele>82.0</ele><time>2026-05-02T09:55:52Z</time></trkpt><trkpt lat="43.28923309062585" lon="-3.960263569400036"><ele>82.0</ele><time>2026-05-02T09:55:54Z</time></trkpt><trkpt lat="43.28924799108976" lon="-3.9601450442827595"><ele>82.0</ele><time>2026-05-02T09:55:55Z</time></trkpt><trkpt lat="43.28925427069996" lon="-3.960033261056887"><ele>82.0</ele><time>2026-05-02T09:55:56Z</time></trkpt><trkpt lat="43.28925217119179" lon="-3.9599255298610685"><ele>82.0</ele><time>2026-05-02T09:55:57Z</time></trkpt><trkpt lat="43.28925137135437" lon="-3.9598197364254504"><ele>82.0</ele><time>2026-05-02T09:55:58Z</time></trkpt><trkpt lat="43.28924602643257" lon="-3.959720074286804"><ele>82.0</ele><time>2026-05-02T09:55:59Z</time></trkpt><trkpt lat="43.289232297571864" lon="-3.9596218611037868"><ele>82.6</ele><time>2026-05-02T09:56:00Z</time></trkpt><trkpt lat="43.289217701464246" lon="-3.959523975991083"><ele>83.19999999999999</ele><time>2026-05-02T09:56:01Z</time></trkpt><trkpt lat="43.289180336822334" lon="-3.9593662580381856"><ele>83.8</ele><time>2026-05-02T09:56:03Z</time></trkpt><trkpt lat="43.28912947610051" lon="-3.9592980076607525"><ele>84.4</ele><time>2026-05-02T09:56:04Z</time></trkpt><trkpt lat="43.28909154474974" lon="-3.9591436559720052"><ele>85.0</ele><time>2026-05-02T09:56:06Z</time></trkpt><trkpt lat="43.289080786832166" lon="-3.959044742712217"><ele>85.2</ele><time>2026-05-02T09:56:07Z</time></trkpt><trkpt lat="43.289062555476505" lon="-3.9589324646330515"><ele>85.4</ele><time>2026-05-02T09:56:08Z</time></trkpt><trkpt lat="43.28902063808417" lon="-3.958823467866086"><ele>85.6</ele><time>2026-05-02T09:56:09Z</time></trkpt><trkpt lat="43.288964618664714" lon="-3.9587217180169127"><ele>85.8</ele><time>2026-05-02T09:56:10Z</time></trkpt><trkpt lat="43.28890355461816" lon="-3.9586227286406577"><ele>86.0</ele><time>2026-05-02T09:56:11Z</time></trkpt><trkpt lat="43.28883819866886" lon="-3.9585291299421774"><ele>86.0</ele><time>2026-05-02T09:56:12Z</time></trkpt><trkpt lat="43.28876931177966" lon="-3.9584369199250005"><ele>86.0</ele><time>2026-05-02T09:56:13Z</time></trkpt><trkpt lat="43.28869708223511" lon="-3.9583461033765435"><ele>86.0</ele><time>2026-05-02T09:56:14Z</time></trkpt><trkpt lat="43.28862590054072" lon="-3.9582509909940065"><ele>86.0</ele><time>2026-05-02T09:56:15Z</time></trkpt><trkpt lat="43.28854602202659" lon="-3.958153209895247"><ele>86.0</ele><time>2026-05-02T09:56:16Z</time></trkpt><trkpt lat="43.288471432974745" lon="-3.958056966952515"><ele>84.39999999999999</ele><time>2026-05-02T09:56:17Z</time></trkpt><trkpt lat="43.288398258919436" lon="-3.957963555205814"><ele>82.8</ele><time>2026-05-02T09:56:18Z</time></trkpt><trkpt lat="43.2883251881317" lon="-3.957866420965855"><ele>81.19999999999999</ele><time>2026-05-02T09:56:19Z</time></trkpt><trkpt lat="43.28825305875681" lon="-3.9577685339834154"><ele>79.6</ele><time>2026-05-02T09:56:20Z</time></trkpt><trkpt lat="43.28817739796184" lon="-3.9576694099218948"><ele>78.0</ele><time>2026-05-02T09:56:21Z</time></trkpt><trkpt lat="43.2881014191384" lon="-3.957571596113126"><ele>78.4</ele><time>2026-05-02T09:56:22Z</time></trkpt><trkpt lat="43.288025396677384" lon="-3.9574734994265546"><ele>78.8</ele><time>2026-05-02T09:56:23Z</time></trkpt><trkpt lat="43.287950709534734" lon="-3.9573760943562513"><ele>79.2</ele><time>2026-05-02T09:56:24Z</time></trkpt><trkpt lat="43.28787644662373" lon="-3.957277570538479"><ele>79.6</ele><time>2026-05-02T09:56:25Z</time></trkpt><trkpt lat="43.287796440918086" lon="-3.9571781300649773"><ele>80.0</ele><time>2026-05-02T09:56:26Z</time></trkpt><trkpt lat="43.287721103947206" lon="-3.9570779119571573"><ele>80.0</ele><time>2026-05-02T09:56:27.001Z</time></trkpt><trkpt lat="43.28765192635687" lon="-3.9569774758957896"><ele>80.0</ele><time>2026-05-02T09:56:28.001Z</time></trkpt><trkpt lat="43.28756937145815" lon="-3.9568728298489595"><ele>80.0</ele><time>2026-05-02T09:56:29.001Z</time></trkpt><trkpt lat="43.28749270574828" lon="-3.9567738448981964"><ele>80.0</ele><time>2026-05-02T09:56:30.001Z</time></trkpt><trkpt lat="43.287409879833156" lon="-3.9566724568671234"><ele>80.0</ele><time>2026-05-02T09:56:31.001Z</time></trkpt><trkpt lat="43.28732605419605" lon="-3.956569922240959"><ele>79.0</ele><time>2026-05-02T09:56:32.001Z</time></trkpt><trkpt lat="43.287249980883985" lon="-3.9564661446906344"><ele>78.0</ele><time>2026-05-02T09:56:33.001Z</time></trkpt><trkpt lat="43.287169691532675" lon="-3.956366413161239"><ele>77.0</ele><time>2026-05-02T09:56:34.001Z</time></trkpt><trkpt lat="43.287091725535895" lon="-3.956262923696017"><ele>76.0</ele><time>2026-05-02T09:56:35.001Z</time></trkpt><trkpt lat="43.28702238139837" lon="-3.956159040096384"><ele>75.0</ele><time>2026-05-02T09:56:36.001Z</time></trkpt><trkpt lat="43.286951352444426" lon="-3.956050737771501"><ele>75.0</ele><time>2026-05-02T09:56:37.001Z</time></trkpt><trkpt lat="43.28686403959683" lon="-3.955958238325801"><ele>75.0</ele><time>2026-05-02T09:56:38.001Z</time></trkpt><trkpt lat="43.28677718619789" lon="-3.9558498036511582"><ele>75.0</ele><time>2026-05-02T09:56:39.001Z</time></trkpt><trkpt lat="43.28670301248277" lon="-3.9557479088391747"><ele>75.0</ele><time>2026-05-02T09:56:40.001Z</time></trkpt><trkpt lat="43.286622779207285" lon="-3.955644744737928"><ele>75.0</ele><time>2026-05-02T09:56:41.001Z</time></trkpt><trkpt lat="43.28654226328971" lon="-3.955545848285901"><ele>74.4</ele><time>2026-05-02T09:56:42.001Z</time></trkpt><trkpt lat="43.286468636066495" lon="-3.9554507361552864"><ele>73.8</ele><time>2026-05-02T09:56:43.001Z</time></trkpt><trkpt lat="43.286401826265376" lon="-3.955363883159543"><ele>73.2</ele><time>2026-05-02T09:56:44.001Z</time></trkpt><trkpt lat="43.28633493701639" lon="-3.9552765299885464"><ele>72.6</ele><time>2026-05-02T09:56:45.001Z</time></trkpt><trkpt lat="43.28626723879214" lon="-3.9551834618351465"><ele>72.0</ele><time>2026-05-02T09:56:46.001Z</time></trkpt><trkpt lat="43.286196347396874" lon="-3.9550896674887768"><ele>72.8</ele><time>2026-05-02T09:56:47.001Z</time></trkpt><trkpt lat="43.2861234450923" lon="-3.954992775437097"><ele>73.6</ele><time>2026-05-02T09:56:48.001Z</time></trkpt><trkpt lat="43.28604685452532" lon="-3.954892759451911"><ele>74.39999999999999</ele><time>2026-05-02T09:56:49.001Z</time></trkpt><trkpt lat="43.28596929992119" lon="-3.9547935823950184"><ele>75.2</ele><time>2026-05-02T09:56:50.001Z</time></trkpt><trkpt lat="43.28589065576221" lon="-3.9546916227203033"><ele>76.0</ele><time>2026-05-02T09:56:51.001Z</time></trkpt><trkpt lat="43.28581188592866" lon="-3.95458872311463"><ele>76.0</ele><time>2026-05-02T09:56:52.001Z</time></trkpt><trkpt lat="43.28573471578981" lon="-3.9544869644487055"><ele>76.0</ele><time>2026-05-02T09:56:53.001Z</time></trkpt><trkpt lat="43.285657058557206" lon="-3.954384768026145"><ele>76.0</ele><time>2026-05-02T09:56:54.001Z</time></trkpt><trkpt lat="43.2855794834284" lon="-3.9542838556695146"><ele>76.0</ele><time>2026-05-02T09:56:55.001Z</time></trkpt><trkpt lat="43.28550241880072" lon="-3.9541862256816334"><ele>76.0</ele><time>2026-05-02T09:56:56.001Z</time></trkpt><trkpt lat="43.28542387669729" lon="-3.954087488682011"><ele>76.6</ele><time>2026-05-02T09:56:57.001Z</time></trkpt><trkpt lat="43.28534513408977" lon="-3.953987906791805"><ele>77.19999999999999</ele><time>2026-05-02T09:56:58.001Z</time></trkpt><trkpt lat="43.285268996218846" lon="-3.9538852933451176"><ele>77.80000000000001</ele><time>2026-05-02T09:56:59.001Z</time></trkpt><trkpt lat="43.285192290354466" lon="-3.9537854076033265"><ele>78.4</ele><time>2026-05-02T09:57:00.001Z</time></trkpt><trkpt lat="43.28511471119686" lon="-3.953682700415233"><ele>79.0</ele><time>2026-05-02T09:57:01.001Z</time></trkpt><trkpt lat="43.285037581146184" lon="-3.953582835395395"><ele>79.0</ele><time>2026-05-02T09:57:02.001Z</time></trkpt><trkpt lat="43.28495707950737" lon="-3.9534801799602795"><ele>79.0</ele><time>2026-05-02T09:57:03.001Z</time></trkpt><trkpt lat="43.28487856804623" lon="-3.9533802465084737"><ele>79.0</ele><time>2026-05-02T09:57:04.001Z</time></trkpt><trkpt lat="43.284799699088715" lon="-3.9532761312981957"><ele>79.0</ele><time>2026-05-02T09:57:05.001Z</time></trkpt><trkpt lat="43.284719329211434" lon="-3.9531703529514095"><ele>79.0</ele><time>2026-05-02T09:57:06.001Z</time></trkpt><trkpt lat="43.28464132781154" lon="-3.9530687443658628"><ele>80.0</ele><time>2026-05-02T09:57:07.001Z</time></trkpt><trkpt lat="43.28456462031984" lon="-3.952965876552741"><ele>81.0</ele><time>2026-05-02T09:57:08.001Z</time></trkpt><trkpt lat="43.284486198058715" lon="-3.9528653230993904"><ele>82.0</ele><time>2026-05-02T09:57:09.001Z</time></trkpt><trkpt lat="43.28440750406768" lon="-3.95276817442033"><ele>83.0</ele><time>2026-05-02T09:57:10.001Z</time></trkpt><trkpt lat="43.284330059183254" lon="-3.952669881182715"><ele>84.0</ele><time>2026-05-02T09:57:11.001Z</time></trkpt><trkpt lat="43.284254517435336" lon="-3.952570018800039"><ele>83.2</ele><time>2026-05-02T09:57:12.001Z</time></trkpt><trkpt lat="43.28418021045036" lon="-3.9524720505775095"><ele>82.4</ele><time>2026-05-02T09:57:13.001Z</time></trkpt><trkpt lat="43.284105572312875" lon="-3.9523730060181106"><ele>81.6</ele><time>2026-05-02T09:57:14.001Z</time></trkpt><trkpt lat="43.284031110711055" lon="-3.9522746499524812"><ele>80.8</ele><time>2026-05-02T09:57:15.001Z</time></trkpt><trkpt lat="43.28395832007619" lon="-3.9521753429139532"><ele>80.0</ele><time>2026-05-02T09:57:16.001Z</time></trkpt><trkpt lat="43.28388665233666" lon="-3.9520723909652213"><ele>81.4</ele><time>2026-05-02T09:57:17.001Z</time></trkpt><trkpt lat="43.28381516806308" lon="-3.9519710866574416"><ele>82.8</ele><time>2026-05-02T09:57:18.001Z</time></trkpt><trkpt lat="43.28374567832574" lon="-3.951868421714223"><ele>84.19999999999999</ele><time>2026-05-02T09:57:19.001Z</time></trkpt><trkpt lat="43.2836794595081" lon="-3.9517682627505915"><ele>85.6</ele><time>2026-05-02T09:57:20.001Z</time></trkpt><trkpt lat="43.28361462996025" lon="-3.9516632148077724"><ele>87.0</ele><time>2026-05-02T09:57:21.001Z</time></trkpt><trkpt lat="43.28354890095806" lon="-3.9515657171807668"><ele>87.0</ele><time>2026-05-02T09:57:22.001Z</time></trkpt><trkpt lat="43.28347909651284" lon="-3.951463571033284"><ele>87.0</ele><time>2026-05-02T09:57:23.001Z</time></trkpt><trkpt lat="43.283413157317575" lon="-3.9513639029856775"><ele>87.0</ele><time>2026-05-02T09:57:24.001Z</time></trkpt><trkpt lat="43.283345685014694" lon="-3.951265237709165"><ele>87.0</ele><time>2026-05-02T09:57:25.001Z</time></trkpt><trkpt lat="43.28327501096163" lon="-3.951171041485142"><ele>87.0</ele><time>2026-05-02T09:57:26.002Z</time></trkpt><trkpt lat="43.283205358941075" lon="-3.9510764505982143"><ele>87.0</ele><time>2026-05-02T09:57:27.002Z</time></trkpt><trkpt lat="43.28313469625975" lon="-3.950984563765727"><ele>87.0</ele><time>2026-05-02T09:57:28.002Z</time></trkpt><trkpt lat="43.28306630854679" lon="-3.950894360993877"><ele>87.0</ele><time>2026-05-02T09:57:29.002Z</time></trkpt><trkpt lat="43.28299437687774" lon="-3.9508025898314707"><ele>87.0</ele><time>2026-05-02T09:57:30.002Z</time></trkpt><trkpt lat="43.28292129657794" lon="-3.9507126538825283"><ele>87.0</ele><time>2026-05-02T09:57:31.002Z</time></trkpt><trkpt lat="43.28284558415773" lon="-3.9506226088041276"><ele>88.8</ele><time>2026-05-02T09:57:32.002Z</time></trkpt><trkpt lat="43.28276974412928" lon="-3.9505328598575256"><ele>90.6</ele><time>2026-05-02T09:57:33.002Z</time></trkpt><trkpt lat="43.282691561891404" lon="-3.9504408189796876"><ele>92.39999999999999</ele><time>2026-05-02T09:57:34.002Z</time></trkpt><trkpt lat="43.28261634312737" lon="-3.9503496118040013"><ele>94.19999999999999</ele><time>2026-05-02T09:57:35.002Z</time></trkpt><trkpt lat="43.28253813058523" lon="-3.9502565335010105"><ele>96.0</ele><time>2026-05-02T09:57:36.002Z</time></trkpt><trkpt lat="43.28245957208651" lon="-3.9501626633086175"><ele>96.0</ele><time>2026-05-02T09:57:37.002Z</time></trkpt><trkpt lat="43.282381705747376" lon="-3.950070145128827"><ele>96.0</ele><time>2026-05-02T09:57:38.002Z</time></trkpt><trkpt lat="43.28229988356909" lon="-3.949976340361114"><ele>96.0</ele><time>2026-05-02T09:57:39.002Z</time></trkpt><trkpt lat="43.2822215691451" lon="-3.949881206969488"><ele>96.0</ele><time>2026-05-02T09:57:40.002Z</time></trkpt><trkpt lat="43.2821408939561" lon="-3.9497923388772307"><ele>96.0</ele><time>2026-05-02T09:57:41.002Z</time></trkpt><trkpt lat="43.282060285162544" lon="-3.949694426058388"><ele>96.19999999999999</ele><time>2026-05-02T09:57:42.002Z</time></trkpt><trkpt lat="43.28197977127153" lon="-3.9495889470105294"><ele>96.39999999999999</ele><time>2026-05-02T09:57:43.002Z</time></trkpt><trkpt lat="43.281896782485504" lon="-3.9494971385683697"><ele>96.6</ele><time>2026-05-02T09:57:44.002Z</time></trkpt><trkpt lat="43.2818259420736" lon="-3.9494005651222226"><ele>96.8</ele><time>2026-05-02T09:57:45.002Z</time></trkpt><trkpt lat="43.2817660834191" lon="-3.949340017734539"><ele>97.0</ele><time>2026-05-02T09:57:46.002Z</time></trkpt><trkpt lat="43.28165348569519" lon="-3.949201020749144"><ele>97.39999999999999</ele><time>2026-05-02T09:57:47.002Z</time></trkpt><trkpt lat="43.281571640870794" lon="-3.949102003509089"><ele>97.8</ele><time>2026-05-02T09:57:48.002Z</time></trkpt><trkpt lat="43.28149222033783" lon="-3.9490055884309263"><ele>98.2</ele><time>2026-05-02T09:57:49Z</time></trkpt><trkpt lat="43.28141286731387" lon="-3.9489067698715425"><ele>98.6</ele><time>2026-05-02T09:57:50Z</time></trkpt><trkpt lat="43.2813266625051" lon="-3.94880931408807"><ele>99.0</ele><time>2026-05-02T09:57:51Z</time></trkpt><trkpt lat="43.28124599236933" lon="-3.948712985078853"><ele>99.0</ele><time>2026-05-02T09:57:52Z</time></trkpt><trkpt lat="43.28116214368566" lon="-3.9486130296162627"><ele>99.0</ele><time>2026-05-02T09:57:53Z</time></trkpt><trkpt lat="43.281079844488836" lon="-3.9485187863295574"><ele>99.0</ele><time>2026-05-02T09:57:54Z</time></trkpt><trkpt lat="43.2809931736102" lon="-3.9484242332785904"><ele>99.0</ele><time>2026-05-02T09:57:55Z</time></trkpt><trkpt lat="43.28090535479092" lon="-3.9483330387564792"><ele>99.0</ele><time>2026-05-02T09:57:56Z</time></trkpt><trkpt lat="43.280813101562956" lon="-3.948244448139521"><ele>99.75</ele><time>2026-05-02T09:57:57Z</time></trkpt><trkpt lat="43.280715768956675" lon="-3.94816490212257"><ele>100.5</ele><time>2026-05-02T09:57:58Z</time></trkpt><trkpt lat="43.280612839666276" lon="-3.9480920291258843"><ele>101.25</ele><time>2026-05-02T09:57:59Z</time></trkpt><trkpt lat="43.28051305770081" lon="-3.9480255366415924"><ele>102.0</ele><time>2026-05-02T09:58:00Z</time></trkpt><trkpt lat="43.28040820101574" lon="-3.9479601783788527"><ele>102.0</ele><time>2026-05-02T09:58:01Z</time></trkpt><trkpt lat="43.28030199318073" lon="-3.947905499124598"><ele>102.0</ele><time>2026-05-02T09:58:02Z</time></trkpt><trkpt lat="43.280082938311295" lon="-3.9478396825145063"><ele>102.0</ele><time>2026-05-02T09:58:04Z</time></trkpt><trkpt lat="43.279977306182445" lon="-3.9478080317463333"><ele>102.0</ele><time>2026-05-02T09:58:05Z</time></trkpt><trkpt lat="43.279867434463036" lon="-3.947776734305971"><ele>102.8</ele><time>2026-05-02T09:58:06Z</time></trkpt><trkpt lat="43.27975847948139" lon="-3.947741687983993"><ele>103.6</ele><time>2026-05-02T09:58:07Z</time></trkpt><trkpt lat="43.27964970731618" lon="-3.947710034532362"><ele>104.39999999999999</ele><time>2026-05-02T09:58:08Z</time></trkpt><trkpt lat="43.27954230954214" lon="-3.9476821369798984"><ele>105.19999999999999</ele><time>2026-05-02T09:58:09Z</time></trkpt><trkpt lat="43.27943373293517" lon="-3.947657161673639"><ele>106.0</ele><time>2026-05-02T09:58:10Z</time></trkpt><trkpt lat="43.279329827335204" lon="-3.9476337060545696"><ele>106.0</ele><time>2026-05-02T09:58:11Z</time></trkpt><trkpt lat="43.27922321839312" lon="-3.94760727456698"><ele>106.0</ele><time>2026-05-02T09:58:12Z</time></trkpt><trkpt lat="43.279118184861474" lon="-3.947577262476439"><ele>106.0</ele><time>2026-05-02T09:58:13Z</time></trkpt><trkpt lat="43.27901082490379" lon="-3.947547281615843"><ele>106.0</ele><time>2026-05-02T09:58:14Z</time></trkpt><trkpt lat="43.27890330510454" lon="-3.947520863569052"><ele>106.0</ele><time>2026-05-02T09:58:15Z</time></trkpt><trkpt lat="43.278798560076346" lon="-3.9474951518998274"><ele>103.0</ele><time>2026-05-02T09:58:16Z</time></trkpt><trkpt lat="43.27869488761569" lon="-3.9474659387579147"><ele>100.0</ele><time>2026-05-02T09:58:17Z</time></trkpt><trkpt lat="43.278588811773744" lon="-3.9474361445379498"><ele>97.0</ele><time>2026-05-02T09:58:18Z</time></trkpt><trkpt lat="43.27848833342724" lon="-3.947409823405621"><ele>94.0</ele><time>2026-05-02T09:58:19Z</time></trkpt><trkpt lat="43.278387015989765" lon="-3.9473796059459447"><ele>91.0</ele><time>2026-05-02T09:58:20Z</time></trkpt><trkpt lat="43.2782859013764" lon="-3.9473497900636194"><ele>91.0</ele><time>2026-05-02T09:58:21Z</time></trkpt><trkpt lat="43.278181341127976" lon="-3.9473209557436175"><ele>91.0</ele><time>2026-05-02T09:58:22Z</time></trkpt><trkpt lat="43.27808137724109" lon="-3.9472931229055885"><ele>91.0</ele><time>2026-05-02T09:58:23Z</time></trkpt><trkpt lat="43.27798021223861" lon="-3.947265750394149"><ele>91.0</ele><time>2026-05-02T09:58:24Z</time></trkpt><trkpt lat="43.27788154562809" lon="-3.947241486900106"><ele>91.0</ele><time>2026-05-02T09:58:25Z</time></trkpt><trkpt lat="43.277781584079655" lon="-3.947214208266541"><ele>91.19999999999999</ele><time>2026-05-02T09:58:26Z</time></trkpt><trkpt lat="43.2776817414646" lon="-3.9471899200334777"><ele>91.39999999999999</ele><time>2026-05-02T09:58:27Z</time></trkpt><trkpt lat="43.27758273483945" lon="-3.9471658144759143"><ele>91.6</ele><time>2026-05-02T09:58:28Z</time></trkpt><trkpt lat="43.27748538040706" lon="-3.9471433503566478"><ele>91.8</ele><time>2026-05-02T09:58:29Z</time></trkpt><trkpt lat="43.277388377369974" lon="-3.9471228686058724"><ele>92.0</ele><time>2026-05-02T09:58:30Z</time></trkpt><trkpt lat="43.27729420137463" lon="-3.9471045910562905"><ele>90.8</ele><time>2026-05-02T09:58:31Z</time></trkpt><trkpt lat="43.277197011303684" lon="-3.9470929429864463"><ele>89.6</ele><time>2026-05-02T09:58:32Z</time></trkpt><trkpt lat="43.277101304007545" lon="-3.94708962908906"><ele>88.39999999999999</ele><time>2026-05-02T09:58:33Z</time></trkpt><trkpt lat="43.277007464421025" lon="-3.947084701108731"><ele>87.19999999999999</ele><time>2026-05-02T09:58:34Z</time></trkpt><trkpt lat="43.27691748260487" lon="-3.947083889749918"><ele>86.0</ele><time>2026-05-02T09:58:35Z</time></trkpt><trkpt lat="43.27682591965788" lon="-3.947086113807679"><ele>86.0</ele><time>2026-05-02T09:58:36Z</time></trkpt><trkpt lat="43.27674996454666" lon="-3.947084791613523"><ele>86.0</ele><time>2026-05-02T09:58:37.001Z</time></trkpt><trkpt lat="43.27667794326357" lon="-3.947088244822569"><ele>86.0</ele><time>2026-05-02T09:58:38.001Z</time></trkpt><trkpt lat="43.276571407358375" lon="-3.9471021286083556"><ele>86.0</ele><time>2026-05-02T09:58:40.001Z</time></trkpt><trkpt lat="43.276504751497626" lon="-3.94709679323416"><ele>86.0</ele><time>2026-05-02T09:58:42.001Z</time></trkpt><trkpt lat="43.27639848932896" lon="-3.947085038488304"><ele>86.0</ele><time>2026-05-02T10:02:10.001Z</time></trkpt><trkpt lat="43.276280558309196" lon="-3.9470857149582703"><ele>85.66666666666667</ele><time>2026-05-02T10:02:12.001Z</time></trkpt><trkpt lat="43.27621031210712" lon="-3.947086540282366"><ele>85.33333333333334</ele><time>2026-05-02T10:02:13Z</time></trkpt><trkpt lat="43.27613761938655" lon="-3.9470872379686313"><ele>85.0</ele><time>2026-05-02T10:02:14Z</time></trkpt><trkpt lat="43.276060421633126" lon="-3.9470879788913726"><ele>84.66666666666667</ele><time>2026-05-02T10:02:15Z</time></trkpt><trkpt lat="43.27597866111807" lon="-3.947067816088316"><ele>84.33333333333333</ele><time>2026-05-02T10:02:16Z</time></trkpt><trkpt lat="43.27589243354124" lon="-3.947078452741162"><ele>84.0</ele><time>2026-05-02T10:02:17Z</time></trkpt><trkpt lat="43.2758047428437" lon="-3.947078230545425"><ele>84.0</ele><time>2026-05-02T10:02:18Z</time></trkpt><trkpt lat="43.2757132184416" lon="-3.947080599053712"><ele>84.0</ele><time>2026-05-02T10:02:19Z</time></trkpt><trkpt lat="43.27562015800135" lon="-3.947081852631212"><ele>84.0</ele><time>2026-05-02T10:02:20.001Z</time></trkpt><trkpt lat="43.27552437251797" lon="-3.9470818851566114"><ele>84.0</ele><time>2026-05-02T10:02:21.001Z</time></trkpt><trkpt lat="43.27543028612228" lon="-3.9470837137246475"><ele>84.0</ele><time>2026-05-02T10:02:22.001Z</time></trkpt><trkpt lat="43.27533573531869" lon="-3.947084935569983"><ele>84.4</ele><time>2026-05-02T10:02:23.001Z</time></trkpt><trkpt lat="43.27523892888074" lon="-3.9470864196966304"><ele>84.80000000000001</ele><time>2026-05-02T10:02:24.001Z</time></trkpt><trkpt lat="43.27514318849443" lon="-3.9470883833030395"><ele>85.19999999999999</ele><time>2026-05-02T10:02:25.001Z</time></trkpt><trkpt lat="43.275045362061654" lon="-3.947094061333334"><ele>85.6</ele><time>2026-05-02T10:02:26.001Z</time></trkpt><trkpt lat="43.27494926958562" lon="-3.947096830140519"><ele>86.0</ele><time>2026-05-02T10:02:27.001Z</time></trkpt><trkpt lat="43.27485094463382" lon="-3.9470960661446672"><ele>86.19999999999999</ele><time>2026-05-02T10:02:28.001Z</time></trkpt><trkpt lat="43.27474880312771" lon="-3.9470983851177452"><ele>86.39999999999999</ele><time>2026-05-02T10:02:29.001Z</time></trkpt><trkpt lat="43.27465180697688" lon="-3.9471023467577955"><ele>86.6</ele><time>2026-05-02T10:02:30.001Z</time></trkpt><trkpt lat="43.27455107219134" lon="-3.9471040650937006"><ele>86.8</ele><time>2026-05-02T10:02:31.001Z</time></trkpt><trkpt lat="43.274451102309584" lon="-3.9471043759664353"><ele>87.0</ele><time>2026-05-02T10:02:32.001Z</time></trkpt><trkpt lat="43.27435315669732" lon="-3.947103301219104"><ele>87.0</ele><time>2026-05-02T10:02:33.001Z</time></trkpt><trkpt lat="43.27425005073926" lon="-3.947105018635009"><ele>87.0</ele><time>2026-05-02T10:02:34.001Z</time></trkpt><trkpt lat="43.274146919296456" lon="-3.94710802544275"><ele>87.0</ele><time>2026-05-02T10:02:35.001Z</time></trkpt><trkpt lat="43.27404462591844" lon="-3.9471086769530066"><ele>87.0</ele><time>2026-05-02T10:02:36.001Z</time></trkpt><trkpt lat="43.27394146507129" lon="-3.947108060883114"><ele>87.0</ele><time>2026-05-02T10:02:37.001Z</time></trkpt><trkpt lat="43.2738372540057" lon="-3.9471098096121113"><ele>86.8</ele><time>2026-05-02T10:02:38.001Z</time></trkpt><trkpt lat="43.27373377912819" lon="-3.947108409916223"><ele>86.6</ele><time>2026-05-02T10:02:39.001Z</time></trkpt><trkpt lat="43.27363099030687" lon="-3.94710379064606"><ele>86.39999999999999</ele><time>2026-05-02T10:02:40.001Z</time></trkpt><trkpt lat="43.27352658162166" lon="-3.9471072498423996"><ele>86.19999999999999</ele><time>2026-05-02T10:02:41.001Z</time></trkpt><trkpt lat="43.27342380899386" lon="-3.9471171702663015"><ele>86.0</ele><time>2026-05-02T10:02:42.001Z</time></trkpt><trkpt lat="43.27332108993592" lon="-3.9471233877030425"><ele>86.0</ele><time>2026-05-02T10:02:43.001Z</time></trkpt><trkpt lat="43.27321505699739" lon="-3.947128035339016"><ele>86.0</ele><time>2026-05-02T10:02:44.001Z</time></trkpt><trkpt lat="43.27311188581034" lon="-3.947128209984782"><ele>86.0</ele><time>2026-05-02T10:02:45.001Z</time></trkpt><trkpt lat="43.273005204989865" lon="-3.9471286645007377"><ele>86.0</ele><time>2026-05-02T10:02:46.001Z</time></trkpt><trkpt lat="43.27289973451704" lon="-3.9471287284115264"><ele>86.0</ele><time>2026-05-02T10:02:47.001Z</time></trkpt><trkpt lat="43.27279595413523" lon="-3.9471284492010272"><ele>86.0</ele><time>2026-05-02T10:02:48.001Z</time></trkpt><trkpt lat="43.272694962411684" lon="-3.947129232305571"><ele>86.0</ele><time>2026-05-02T10:02:49.001Z</time></trkpt><trkpt lat="43.27258894819691" lon="-3.9471315632601995"><ele>86.0</ele><time>2026-05-02T10:02:50.001Z</time></trkpt><trkpt lat="43.272483640979615" lon="-3.947134271460887"><ele>86.0</ele><time>2026-05-02T10:02:51.001Z</time></trkpt><trkpt lat="43.27237526384632" lon="-3.9471342153164386"><ele>86.0</ele><time>2026-05-02T10:02:52.001Z</time></trkpt><trkpt lat="43.2722739564466" lon="-3.9471368825086603"><ele>86.6</ele><time>2026-05-02T10:02:53.001Z</time></trkpt><trkpt lat="43.27216727012442" lon="-3.9471374433193227"><ele>87.19999999999999</ele><time>2026-05-02T10:02:54.001Z</time></trkpt><trkpt lat="43.27206122968425" lon="-3.947137854352219"><ele>87.80000000000001</ele><time>2026-05-02T10:02:55.001Z</time></trkpt><trkpt lat="43.271957149015485" lon="-3.947141683785045"><ele>88.4</ele><time>2026-05-02T10:02:56.001Z</time></trkpt><trkpt lat="43.271850507951704" lon="-3.947146696997033"><ele>89.0</ele><time>2026-05-02T10:02:57.001Z</time></trkpt><trkpt lat="43.27174213868818" lon="-3.947143798331991"><ele>89.0</ele><time>2026-05-02T10:02:58.001Z</time></trkpt><trkpt lat="43.27163569096975" lon="-3.9471494434569085"><ele>89.0</ele><time>2026-05-02T10:02:59.001Z</time></trkpt><trkpt lat="43.27152807943261" lon="-3.9471477092475813"><ele>89.0</ele><time>2026-05-02T10:03:00.001Z</time></trkpt><trkpt lat="43.27140572220014" lon="-3.9471513910827487"><ele>89.0</ele><time>2026-05-02T10:03:01.001Z</time></trkpt><trkpt lat="43.27123374020624" lon="-3.94715894949612"><ele>88.66666666666667</ele><time>2026-05-02T10:03:02.001Z</time></trkpt><trkpt lat="43.27108105307233" lon="-3.9471765674233206"><ele>88.33333333333333</ele><time>2026-05-02T10:03:03.001Z</time></trkpt><trkpt lat="43.270896696714466" lon="-3.947171218906194"><ele>88.0</ele><time>2026-05-02T10:03:06.001Z</time></trkpt><trkpt lat="43.27075664240867" lon="-3.9471742243845056"><ele>88.0</ele><time>2026-05-02T10:03:07.001Z</time></trkpt><trkpt lat="43.27064385228801" lon="-3.9471747123072576"><ele>88.0</ele><time>2026-05-02T10:03:08.001Z</time></trkpt><trkpt lat="43.27053518047884" lon="-3.9471747324795654"><ele>88.0</ele><time>2026-05-02T10:03:09.001Z</time></trkpt><trkpt lat="43.27042372555959" lon="-3.947174014704183"><ele>88.0</ele><time>2026-05-02T10:03:10.001Z</time></trkpt><trkpt lat="43.270312759795225" lon="-3.9471700761716084"><ele>88.0</ele><time>2026-05-02T10:03:11.001Z</time></trkpt><trkpt lat="43.270201719506126" lon="-3.9471677095179016"><ele>88.0</ele><time>2026-05-02T10:03:12.001Z</time></trkpt><trkpt lat="43.27009949841256" lon="-3.947168572838812"><ele>88.0</ele><time>2026-05-02T10:03:13.001Z</time></trkpt><trkpt lat="43.269980557126594" lon="-3.9471659780055637"><ele>88.0</ele><time>2026-05-02T10:03:14.001Z</time></trkpt><trkpt lat="43.26987400484874" lon="-3.947157570784011"><ele>88.0</ele><time>2026-05-02T10:03:15.001Z</time></trkpt><trkpt lat="43.2697653831956" lon="-3.9471678005788307"><ele>88.0</ele><time>2026-05-02T10:03:16.001Z</time></trkpt><trkpt lat="43.269656749688316" lon="-3.947170396051524"><ele>88.0</ele><time>2026-05-02T10:03:17.001Z</time></trkpt><trkpt lat="43.269549981187545" lon="-3.9471709353240896"><ele>88.0</ele><time>2026-05-02T10:03:18.001Z</time></trkpt><trkpt lat="43.26944483882759" lon="-3.9471715139180277"><ele>88.0</ele><time>2026-05-02T10:03:19.001Z</time></trkpt><trkpt lat="43.269338511327355" lon="-3.947174108543304"><ele>88.0</ele><time>2026-05-02T10:03:20.001Z</time></trkpt><trkpt lat="43.26923181613699" lon="-3.9471756209539213"><ele>88.0</ele><time>2026-05-02T10:03:21.001Z</time></trkpt><trkpt lat="43.269123437802605" lon="-3.9471791034640806"><ele>88.0</ele><time>2026-05-02T10:03:22.001Z</time></trkpt><trkpt lat="43.269017755619494" lon="-3.947181492713569"><ele>88.0</ele><time>2026-05-02T10:03:23.001Z</time></trkpt><trkpt lat="43.26890753726745" lon="-3.947183311942062"><ele>88.0</ele><time>2026-05-02T10:03:24.001Z</time></trkpt><trkpt lat="43.26879997235459" lon="-3.947182125892916"><ele>88.0</ele><time>2026-05-02T10:03:25.001Z</time></trkpt><trkpt lat="43.268689245579885" lon="-3.9471821079558005"><ele>88.0</ele><time>2026-05-02T10:03:26.001Z</time></trkpt><trkpt lat="43.26858434612046" lon="-3.9471818724224255"><ele>88.60000000000001</ele><time>2026-05-02T10:03:27.001Z</time></trkpt><trkpt lat="43.268472907764476" lon="-3.9471802782354595"><ele>89.2</ele><time>2026-05-02T10:03:28.001Z</time></trkpt><trkpt lat="43.26836278873323" lon="-3.947183044027547"><ele>89.8</ele><time>2026-05-02T10:03:29.001Z</time></trkpt><trkpt lat="43.26825286647908" lon="-3.947185554829483"><ele>90.4</ele><time>2026-05-02T10:03:30.001Z</time></trkpt><trkpt lat="43.268143547328066" lon="-3.9471900480762514"><ele>91.0</ele><time>2026-05-02T10:03:31.002Z</time></trkpt><trkpt lat="43.268034780310636" lon="-3.947192423131732"><ele>91.0</ele><time>2026-05-02T10:03:32.002Z</time></trkpt><trkpt lat="43.26792881141553" lon="-3.947195892802878"><ele>91.0</ele><time>2026-05-02T10:03:33.002Z</time></trkpt><trkpt lat="43.267817660427056" lon="-3.947191216164119"><ele>91.0</ele><time>2026-05-02T10:03:34.002Z</time></trkpt><trkpt lat="43.267708860142974" lon="-3.9471941172957625"><ele>91.0</ele><time>2026-05-02T10:03:35.002Z</time></trkpt><trkpt lat="43.26760999070945" lon="-3.947196571391295"><ele>91.0</ele><time>2026-05-02T10:03:36.002Z</time></trkpt><trkpt lat="43.26751985643845" lon="-3.947200158557085"><ele>91.0</ele><time>2026-05-02T10:03:37.002Z</time></trkpt><trkpt lat="43.26743359796155" lon="-3.947202962307181"><ele>91.0</ele><time>2026-05-02T10:03:38.002Z</time></trkpt><trkpt lat="43.26734389485239" lon="-3.9472070017161256"><ele>91.0</ele><time>2026-05-02T10:03:39.002Z</time></trkpt><trkpt lat="43.267251782824765" lon="-3.9472099627235853"><ele>91.0</ele><time>2026-05-02T10:03:40.002Z</time></trkpt><trkpt lat="43.267156629681686" lon="-3.947212681182218"><ele>91.0</ele><time>2026-05-02T10:03:41.002Z</time></trkpt><trkpt lat="43.26705896284227" lon="-3.9472177952689917"><ele>91.8</ele><time>2026-05-02T10:03:42.002Z</time></trkpt><trkpt lat="43.26696119932841" lon="-3.947223913093606"><ele>92.6</ele><time>2026-05-02T10:03:43.002Z</time></trkpt><trkpt lat="43.26685954278216" lon="-3.9472416002808237"><ele>93.4</ele><time>2026-05-02T10:03:44.002Z</time></trkpt><trkpt lat="43.26676038798164" lon="-3.9472664661423615"><ele>94.2</ele><time>2026-05-02T10:03:45.002Z</time></trkpt><trkpt lat="43.266660794034145" lon="-3.947291558953373"><ele>95.0</ele><time>2026-05-02T10:03:46.002Z</time></trkpt><trkpt lat="43.26655978253769" lon="-3.947321130261372"><ele>95.0</ele><time>2026-05-02T10:03:47.002Z</time></trkpt><trkpt lat="43.26645784921936" lon="-3.947351633703539"><ele>95.0</ele><time>2026-05-02T10:03:48.002Z</time></trkpt><trkpt lat="43.266351379996514" lon="-3.9473758028799733"><ele>95.0</ele><time>2026-05-02T10:03:49.002Z</time></trkpt><trkpt lat="43.266247237805196" lon="-3.9473954929178228"><ele>95.0</ele><time>2026-05-02T10:03:50.002Z</time></trkpt><trkpt lat="43.266141776910686" lon="-3.9474217022052405"><ele>95.0</ele><time>2026-05-02T10:03:51.002Z</time></trkpt><trkpt lat="43.266038755339885" lon="-3.947444740615567"><ele>94.83333333333334</ele><time>2026-05-02T10:03:52.002Z</time></trkpt><trkpt lat="43.26594616685179" lon="-3.9474603052150616"><ele>94.66666666666667</ele><time>2026-05-02T10:03:53.002Z</time></trkpt><trkpt lat="43.26585997910746" lon="-3.9474778978219334"><ele>94.5</ele><time>2026-05-02T10:03:54.002Z</time></trkpt><trkpt lat="43.26577575178977" lon="-3.9474948225684643"><ele>94.33333333333333</ele><time>2026-05-02T10:03:55.002Z</time></trkpt><trkpt lat="43.26568768270943" lon="-3.9475097372327426"><ele>94.16666666666666</ele><time>2026-05-02T10:03:56.002Z</time></trkpt><trkpt lat="43.26559604265531" lon="-3.9475203250725173"><ele>94.0</ele><time>2026-05-02T10:03:57.002Z</time></trkpt><trkpt lat="43.26550010960986" lon="-3.9475308982004718"><ele>94.6</ele><time>2026-05-02T10:03:58.002Z</time></trkpt><trkpt lat="43.26540192432855" lon="-3.947550051919715"><ele>95.2</ele><time>2026-05-02T10:03:59.002Z</time></trkpt><trkpt lat="43.26530449714701" lon="-3.9475671069909852"><ele>95.8</ele><time>2026-05-02T10:04:00.002Z</time></trkpt><trkpt lat="43.26520409937582" lon="-3.9475838650355897"><ele>96.39999999999999</ele><time>2026-05-02T10:04:01.002Z</time></trkpt><trkpt lat="43.26510315813188" lon="-3.947597574357151"><ele>97.0</ele><time>2026-05-02T10:04:02.002Z</time></trkpt><trkpt lat="43.26500132344586" lon="-3.9476080135790856"><ele>97.0</ele><time>2026-05-02T10:04:03.002Z</time></trkpt><trkpt lat="43.26490158302469" lon="-3.947623559599089"><ele>97.0</ele><time>2026-05-02T10:04:04.002Z</time></trkpt><trkpt lat="43.2648010285358" lon="-3.9476397932141256"><ele>97.0</ele><time>2026-05-02T10:04:05.002Z</time></trkpt><trkpt lat="43.26469589326763" lon="-3.947652093954545"><ele>97.0</ele><time>2026-05-02T10:04:06.002Z</time></trkpt><trkpt lat="43.26459377790726" lon="-3.947654626818353"><ele>97.0</ele><time>2026-05-02T10:04:07Z</time></trkpt><trkpt lat="43.264492030134335" lon="-3.9476602568523407"><ele>98.8</ele><time>2026-05-02T10:04:08Z</time></trkpt><trkpt lat="43.26439453423023" lon="-3.947643644358991"><ele>100.6</ele><time>2026-05-02T10:04:09Z</time></trkpt><trkpt lat="43.26429507596437" lon="-3.9476256781810433"><ele>102.39999999999999</ele><time>2026-05-02T10:04:10Z</time></trkpt><trkpt lat="43.26419981333934" lon="-3.9476078853499006"><ele>104.19999999999999</ele><time>2026-05-02T10:04:11Z</time></trkpt><trkpt lat="43.26410491796939" lon="-3.9475858851786714"><ele>106.0</ele><time>2026-05-02T10:04:12Z</time></trkpt><trkpt lat="43.26401113151904" lon="-3.947564135736829"><ele>106.19999999999999</ele><time>2026-05-02T10:04:13Z</time></trkpt><trkpt lat="43.26392014302622" lon="-3.9475432430559914"><ele>106.39999999999999</ele><time>2026-05-02T10:04:14Z</time></trkpt><trkpt lat="43.263829599190885" lon="-3.9475286749371548"><ele>106.6</ele><time>2026-05-02T10:04:15Z</time></trkpt><trkpt lat="43.26373656506275" lon="-3.9475189760792024"><ele>106.8</ele><time>2026-05-02T10:04:16Z</time></trkpt><trkpt lat="43.26364852646096" lon="-3.94750241064218"><ele>107.0</ele><time>2026-05-02T10:04:17Z</time></trkpt><trkpt lat="43.26355873289665" lon="-3.9474887629080166"><ele>106.99999999999999</ele><time>2026-05-02T10:04:18Z</time></trkpt><trkpt lat="43.26346998921965" lon="-3.9474744381651528"><ele>107.0</ele><time>2026-05-02T10:04:19Z</time></trkpt><trkpt lat="43.26338235316305" lon="-3.947459004729501"><ele>107.0</ele><time>2026-05-02T10:04:20Z</time></trkpt><trkpt lat="43.263296169366136" lon="-3.9474488540579853"><ele>107.0</ele><time>2026-05-02T10:04:21Z</time></trkpt><trkpt lat="43.263210401612106" lon="-3.947440441385904"><ele>106.99999999999999</ele><time>2026-05-02T10:04:22Z</time></trkpt><trkpt lat="43.26312617834061" lon="-3.947431721183059"><ele>107.0</ele><time>2026-05-02T10:04:23Z</time></trkpt><trkpt lat="43.2630429540192" lon="-3.9474269106582573"><ele>107.99999999999999</ele><time>2026-05-02T10:04:24Z</time></trkpt><trkpt lat="43.2629582946937" lon="-3.9474240537305545"><ele>109.0</ele><time>2026-05-02T10:04:25Z</time></trkpt><trkpt lat="43.26287588815712" lon="-3.947423793775116"><ele>110.0</ele><time>2026-05-02T10:04:26Z</time></trkpt><trkpt lat="43.26279368629627" lon="-3.947426298496679"><ele>111.0</ele><time>2026-05-02T10:04:27Z</time></trkpt><trkpt lat="43.26271099273522" lon="-3.947425693659493"><ele>111.99999999999999</ele><time>2026-05-02T10:04:28Z</time></trkpt><trkpt lat="43.26262701400193" lon="-3.9474273486400104"><ele>113.0</ele><time>2026-05-02T10:04:29Z</time></trkpt><trkpt lat="43.26254131099536" lon="-3.9474305318566127"><ele>112.99999999999999</ele><time>2026-05-02T10:04:30Z</time></trkpt><trkpt lat="43.26245964581515" lon="-3.947438563456989"><ele>113.0</ele><time>2026-05-02T10:04:31Z</time></trkpt><trkpt lat="43.262374737036495" lon="-3.9474411917406296"><ele>113.0</ele><time>2026-05-02T10:04:32Z</time></trkpt><trkpt lat="43.262286747318235" lon="-3.947443741462158"><ele>113.0</ele><time>2026-05-02T10:04:33Z</time></trkpt><trkpt lat="43.26219865861348" lon="-3.947445420064915"><ele>112.99999999999999</ele><time>2026-05-02T10:04:34Z</time></trkpt><trkpt lat="43.26210874849761" lon="-3.947448385408514"><ele>113.0</ele><time>2026-05-02T10:04:35Z</time></trkpt><trkpt lat="43.262021099554126" lon="-3.9474530601312283"><ele>113.0</ele><time>2026-05-02T10:04:36Z</time></trkpt><trkpt lat="43.26193035984602" lon="-3.947456876001302"><ele>113.00000000000001</ele><time>2026-05-02T10:04:37Z</time></trkpt><trkpt lat="43.26183914495627" lon="-3.947460889959043"><ele>113.00000000000001</ele><time>2026-05-02T10:04:38Z</time></trkpt><trkpt lat="43.26174794340191" lon="-3.9474634038427157"><ele>113.0</ele><time>2026-05-02T10:04:39Z</time></trkpt><trkpt lat="43.261655627638476" lon="-3.9474660760319096"><ele>113.0</ele><time>2026-05-02T10:04:40Z</time></trkpt><trkpt lat="43.26156296533964" lon="-3.9474727844647717"><ele>113.0</ele><time>2026-05-02T10:04:41Z</time></trkpt><trkpt lat="43.26146926064211" lon="-3.947474375955417"><ele>113.00000000000001</ele><time>2026-05-02T10:04:42Z</time></trkpt><trkpt lat="43.261375860802495" lon="-3.9474789307740275"><ele>113.00000000000001</ele><time>2026-05-02T10:04:43Z</time></trkpt><trkpt lat="43.26128598359887" lon="-3.9474850817901954"><ele>113.0</ele><time>2026-05-02T10:04:44Z</time></trkpt><trkpt lat="43.26119340257289" lon="-3.947488346374267"><ele>113.0</ele><time>2026-05-02T10:04:45Z</time></trkpt><trkpt lat="43.261101491598524" lon="-3.947492774711776"><ele>114.60000000000001</ele><time>2026-05-02T10:04:46Z</time></trkpt><trkpt lat="43.261009601019005" lon="-3.947489575680184"><ele>116.20000000000002</ele><time>2026-05-02T10:04:47Z</time></trkpt><trkpt lat="43.26092053757548" lon="-3.9474947557972455"><ele>117.8</ele><time>2026-05-02T10:04:48Z</time></trkpt><trkpt lat="43.260829746101614" lon="-3.9475007465062495"><ele>119.4</ele><time>2026-05-02T10:04:49Z</time></trkpt><trkpt lat="43.26074084948703" lon="-3.947506366207693"><ele>121.0</ele><time>2026-05-02T10:04:50Z</time></trkpt><trkpt lat="43.2606508677478" lon="-3.9475113715636714"><ele>121.4</ele><time>2026-05-02T10:04:51Z</time></trkpt><trkpt lat="43.260557752883585" lon="-3.9475160966758236"><ele>121.8</ele><time>2026-05-02T10:04:52Z</time></trkpt><trkpt lat="43.26046868680664" lon="-3.9475280078197894"><ele>122.20000000000002</ele><time>2026-05-02T10:04:53Z</time></trkpt><trkpt lat="43.2603734233639" lon="-3.9475397298899204"><ele>122.60000000000001</ele><time>2026-05-02T10:04:54Z</time></trkpt><trkpt lat="43.260280005159224" lon="-3.9475608622916796"><ele>123.0</ele><time>2026-05-02T10:04:55Z</time></trkpt><trkpt lat="43.26018173371701" lon="-3.9475821057352354"><ele>125.2</ele><time>2026-05-02T10:04:56Z</time></trkpt><trkpt lat="43.260083450323016" lon="-3.947606085697698"><ele>127.4</ele><time>2026-05-02T10:04:57Z</time></trkpt><trkpt lat="43.25998058502293" lon="-3.9476296724512556"><ele>129.60000000000002</ele><time>2026-05-02T10:04:58.001Z</time></trkpt><trkpt lat="43.25988099657982" lon="-3.947657774767037"><ele>131.8</ele><time>2026-05-02T10:04:59.001Z</time></trkpt><trkpt lat="43.25977773126998" lon="-3.9476821422567276"><ele>134.0</ele><time>2026-05-02T10:05:00.001Z</time></trkpt><trkpt lat="43.25967482918711" lon="-3.947708187436067"><ele>134.0</ele><time>2026-05-02T10:05:01.001Z</time></trkpt><trkpt lat="43.25957257892609" lon="-3.94773680332828"><ele>134.0</ele><time>2026-05-02T10:05:02.001Z</time></trkpt><trkpt lat="43.2594665745561" lon="-3.947767063617899"><ele>134.0</ele><time>2026-05-02T10:05:03.001Z</time></trkpt><trkpt lat="43.25937035693764" lon="-3.9477887093624306"><ele>134.0</ele><time>2026-05-02T10:05:04.001Z</time></trkpt><trkpt lat="43.259141912614346" lon="-3.947849702402416"><ele>134.0</ele><time>2026-05-02T10:05:06.001Z</time></trkpt><trkpt lat="43.25903789571239" lon="-3.9478794204185075"><ele>134.0</ele><time>2026-05-02T10:05:07.001Z</time></trkpt><trkpt lat="43.258933652709665" lon="-3.947915544346942"><ele>134.0</ele><time>2026-05-02T10:05:08.001Z</time></trkpt><trkpt lat="43.258832321908486" lon="-3.9479532728106457"><ele>134.0</ele><time>2026-05-02T10:05:09.001Z</time></trkpt><trkpt lat="43.2587293457823" lon="-3.9479961413985984"><ele>134.0</ele><time>2026-05-02T10:05:10.001Z</time></trkpt><trkpt lat="43.25862470299015" lon="-3.948040006283508"><ele>133.4</ele><time>2026-05-02T10:05:11.001Z</time></trkpt><trkpt lat="43.25851977035652" lon="-3.9480883170341827"><ele>132.8</ele><time>2026-05-02T10:05:12.001Z</time></trkpt><trkpt lat="43.258414855169455" lon="-3.948137125871617"><ele>132.2</ele><time>2026-05-02T10:05:13.001Z</time></trkpt><trkpt lat="43.258306791546765" lon="-3.948187956396837"><ele>131.6</ele><time>2026-05-02T10:05:14.001Z</time></trkpt><trkpt lat="43.25820169616725" lon="-3.9482334675411193"><ele>131.0</ele><time>2026-05-02T10:05:15.001Z</time></trkpt><trkpt lat="43.25809707036469" lon="-3.9482788781172666"><ele>132.4</ele><time>2026-05-02T10:05:16.001Z</time></trkpt><trkpt lat="43.25799250373047" lon="-3.948322441512398"><ele>133.8</ele><time>2026-05-02T10:05:17.001Z</time></trkpt><trkpt lat="43.257886677265475" lon="-3.9483654379146724"><ele>135.20000000000002</ele><time>2026-05-02T10:05:18.001Z</time></trkpt><trkpt lat="43.25778228934646" lon="-3.9484046709377125"><ele>136.6</ele><time>2026-05-02T10:05:19.001Z</time></trkpt><trkpt lat="43.25767254777878" lon="-3.948446815826347"><ele>138.0</ele><time>2026-05-02T10:05:20.001Z</time></trkpt><trkpt lat="43.25756207897497" lon="-3.9484833064637646"><ele>138.0</ele><time>2026-05-02T10:05:21.001Z</time></trkpt><trkpt lat="43.25745538843308" lon="-3.948520969479356"><ele>138.0</ele><time>2026-05-02T10:05:22.001Z</time></trkpt><trkpt lat="43.25734950910943" lon="-3.9485569491513006"><ele>138.0</ele><time>2026-05-02T10:05:23.001Z</time></trkpt><trkpt lat="43.2572430541722" lon="-3.9485912379154002"><ele>138.0</ele><time>2026-05-02T10:05:24.001Z</time></trkpt><trkpt lat="43.25713558244515" lon="-3.948620599639462"><ele>138.0</ele><time>2026-05-02T10:05:25.001Z</time></trkpt><trkpt lat="43.257027713246515" lon="-3.9486511687214993"><ele>137.4</ele><time>2026-05-02T10:05:26.001Z</time></trkpt><trkpt lat="43.25692123000486" lon="-3.9486809521770834"><ele>136.8</ele><time>2026-05-02T10:05:27.001Z</time></trkpt><trkpt lat="43.25681388133465" lon="-3.948710623282174"><ele>136.2</ele><time>2026-05-02T10:05:28.001Z</time></trkpt><trkpt lat="43.25673423077423" lon="-3.9487271649436915"><ele>135.6</ele><time>2026-05-02T10:05:29.001Z</time></trkpt><trkpt lat="43.25659893246123" lon="-3.948762760376689"><ele>135.0</ele><time>2026-05-02T10:05:30.001Z</time></trkpt><trkpt lat="43.25648551038531" lon="-3.9487808884963536"><ele>134.5</ele><time>2026-05-02T10:05:31.001Z</time></trkpt><trkpt lat="43.256369064680584" lon="-3.948793565746679"><ele>134.0</ele><time>2026-05-02T10:05:32.001Z</time></trkpt><trkpt lat="43.256252398846826" lon="-3.9487968958798954"><ele>133.5</ele><time>2026-05-02T10:05:33.001Z</time></trkpt><trkpt lat="43.25614036877816" lon="-3.948804558643675"><ele>133.0</ele><time>2026-05-02T10:05:34.001Z</time></trkpt><trkpt lat="43.25602788166447" lon="-3.948808058661347"><ele>133.0</ele><time>2026-05-02T10:05:35.001Z</time></trkpt><trkpt lat="43.255912637015314" lon="-3.9488136661740545"><ele>133.0</ele><time>2026-05-02T10:05:36.001Z</time></trkpt><trkpt lat="43.255798010146876" lon="-3.948818841577408"><ele>133.0</ele><time>2026-05-02T10:05:37.001Z</time></trkpt><trkpt lat="43.255681569924626" lon="-3.948821644151085"><ele>133.0</ele><time>2026-05-02T10:05:38.001Z</time></trkpt><trkpt lat="43.25556600529359" lon="-3.9488239877431774"><ele>132.5</ele><time>2026-05-02T10:05:39.001Z</time></trkpt><trkpt lat="43.255450554555416" lon="-3.9488201083355685"><ele>132.0</ele><time>2026-05-02T10:05:40.001Z</time></trkpt><trkpt lat="43.255334001361405" lon="-3.9488127326501976"><ele>131.5</ele><time>2026-05-02T10:05:41.001Z</time></trkpt><trkpt lat="43.2552176896531" lon="-3.948804985423958"><ele>131.0</ele><time>2026-05-02T10:05:42.001Z</time></trkpt><trkpt lat="43.255100490134055" lon="-3.9487943593712385"><ele>131.0</ele><time>2026-05-02T10:05:43.001Z</time></trkpt><trkpt lat="43.25498716923161" lon="-3.948784238446133"><ele>131.0</ele><time>2026-05-02T10:05:44.001Z</time></trkpt><trkpt lat="43.25487237783371" lon="-3.9487722494546764"><ele>131.0</ele><time>2026-05-02T10:05:45.001Z</time></trkpt><trkpt lat="43.25475735514384" lon="-3.948759274240146"><ele>131.0</ele><time>2026-05-02T10:05:46.001Z</time></trkpt><trkpt lat="43.25464278679702" lon="-3.9487441338175207"><ele>133.75</ele><time>2026-05-02T10:05:47.001Z</time></trkpt><trkpt lat="43.25452322998915" lon="-3.948731049545339"><ele>136.5</ele><time>2026-05-02T10:05:48.001Z</time></trkpt><trkpt lat="43.254409693616935" lon="-3.948718479984979"><ele>139.25</ele><time>2026-05-02T10:05:49.001Z</time></trkpt><trkpt lat="43.254296334453535" lon="-3.948704148131404"><ele>142.0</ele><time>2026-05-02T10:05:50.001Z</time></trkpt><trkpt lat="43.25418657164996" lon="-3.9486888054215794"><ele>142.0</ele><time>2026-05-02T10:05:51.001Z</time></trkpt><trkpt lat="43.25407954958776" lon="-3.9486665706110626"><ele>142.0</ele><time>2026-05-02T10:05:52.001Z</time></trkpt><trkpt lat="43.253970366411544" lon="-3.9486350169001723"><ele>142.0</ele><time>2026-05-02T10:05:53.001Z</time></trkpt><trkpt lat="43.253876597282094" lon="-3.948602202388424"><ele>142.0</ele><time>2026-05-02T10:05:54.001Z</time></trkpt><trkpt lat="43.253764677641826" lon="-3.948545898886128"><ele>142.0</ele><time>2026-05-02T10:05:55.001Z</time></trkpt><trkpt lat="43.25366029958895" lon="-3.948500807030117"><ele>143.79999999999998</ele><time>2026-05-02T10:05:56.001Z</time></trkpt><trkpt lat="43.25355672053927" lon="-3.9484472246589637"><ele>145.6</ele><time>2026-05-02T10:05:57.001Z</time></trkpt><trkpt lat="43.25345448969454" lon="-3.948397693280162"><ele>147.39999999999998</ele><time>2026-05-02T10:05:58.001Z</time></trkpt><trkpt lat="43.25335049824177" lon="-3.948337586590835"><ele>149.2</ele><time>2026-05-02T10:05:59.001Z</time></trkpt><trkpt lat="43.25324752764315" lon="-3.9482783170880507"><ele>151.0</ele><time>2026-05-02T10:06:00.001Z</time></trkpt><trkpt lat="43.25314584699894" lon="-3.9482158714514264"><ele>146.4</ele><time>2026-05-02T10:06:01.002Z</time></trkpt><trkpt lat="43.253043886017544" lon="-3.9481589139797295"><ele>141.8</ele><time>2026-05-02T10:06:02.002Z</time></trkpt><trkpt lat="43.2529432660211" lon="-3.9480992900414216"><ele>137.20000000000002</ele><time>2026-05-02T10:06:03.002Z</time></trkpt><trkpt lat="43.25283768807801" lon="-3.9480431594894148"><ele>132.6</ele><time>2026-05-02T10:06:04.002Z</time></trkpt><trkpt lat="43.252745952991084" lon="-3.947971151873673"><ele>128.0</ele><time>2026-05-02T10:06:05.002Z</time></trkpt><trkpt lat="43.25256093099222" lon="-3.9478825062288023"><ele>128.0</ele><time>2026-05-02T10:06:07.002Z</time></trkpt><trkpt lat="43.25246860446712" lon="-3.947825258201195"><ele>128.0</ele><time>2026-05-02T10:06:08.002Z</time></trkpt><trkpt lat="43.25237815997339" lon="-3.9477726997902383"><ele>128.0</ele><time>2026-05-02T10:06:09.002Z</time></trkpt><trkpt lat="43.25228756872327" lon="-3.947720636340141"><ele>128.0</ele><time>2026-05-02T10:06:10.002Z</time></trkpt><trkpt lat="43.2521989832098" lon="-3.9476670398355087"><ele>128.0</ele><time>2026-05-02T10:06:11.002Z</time></trkpt><trkpt lat="43.25210955360556" lon="-3.9476159327821074"><ele>126.80000000000001</ele><time>2026-05-02T10:06:12.002Z</time></trkpt><trkpt lat="43.25201940514857" lon="-3.947565731777626"><ele>125.60000000000001</ele><time>2026-05-02T10:06:12.999Z</time></trkpt><trkpt lat="43.25192823592882" lon="-3.9475153051047043"><ele>124.39999999999999</ele><time>2026-05-02T10:06:13.999Z</time></trkpt><trkpt lat="43.25183755782227" lon="-3.94746309579247"><ele>123.19999999999999</ele><time>2026-05-02T10:06:14.999Z</time></trkpt><trkpt lat="43.25174242418089" lon="-3.9474208122271714"><ele>122.0</ele><time>2026-05-02T10:06:15.999Z</time></trkpt><trkpt lat="43.25165066835121" lon="-3.947376916164303"><ele>122.0</ele><time>2026-05-02T10:06:16.999Z</time></trkpt><trkpt lat="43.25155854140944" lon="-3.9473367072178633"><ele>122.0</ele><time>2026-05-02T10:06:17.999Z</time></trkpt><trkpt lat="43.25137028853572" lon="-3.9472695456022078"><ele>122.0</ele><time>2026-05-02T10:06:19.999Z</time></trkpt><trkpt lat="43.251271041298004" lon="-3.947246766082834"><ele>122.0</ele><time>2026-05-02T10:06:20.999Z</time></trkpt><trkpt lat="43.251168883797966" lon="-3.9472254159160607"><ele>123.6</ele><time>2026-05-02T10:06:21.999Z</time></trkpt><trkpt lat="43.2510679436615" lon="-3.9472052182208626"><ele>125.19999999999999</ele><time>2026-05-02T10:06:22.999Z</time></trkpt><trkpt lat="43.250961970081995" lon="-3.9471869595036666"><ele>126.8</ele><time>2026-05-02T10:06:23.999Z</time></trkpt><trkpt lat="43.25085439352536" lon="-3.9471671398998067"><ele>128.4</ele><time>2026-05-02T10:06:24.999Z</time></trkpt><trkpt lat="43.25074896877829" lon="-3.947157977777902"><ele>130.0</ele><time>2026-05-02T10:06:25.999Z</time></trkpt><trkpt lat="43.250645145668635" lon="-3.9471327417401336"><ele>131.2</ele><time>2026-05-02T10:06:27Z</time></trkpt><trkpt lat="43.250531688019585" lon="-3.9471212786876877"><ele>132.4</ele><time>2026-05-02T10:06:28Z</time></trkpt><trkpt lat="43.2504249190392" lon="-3.947096120163546"><ele>133.6</ele><time>2026-05-02T10:06:29Z</time></trkpt><trkpt lat="43.250322775961244" lon="-3.9470828149071506"><ele>134.8</ele><time>2026-05-02T10:06:30Z</time></trkpt><trkpt lat="43.25021287169779" lon="-3.947065804587089"><ele>136.0</ele><time>2026-05-02T10:06:31Z</time></trkpt><trkpt lat="43.25011209196172" lon="-3.9470602725157033"><ele>136.0</ele><time>2026-05-02T10:06:32Z</time></trkpt><trkpt lat="43.25000663902403" lon="-3.947042676267673"><ele>136.0</ele><time>2026-05-02T10:06:33Z</time></trkpt><trkpt lat="43.2499090220994" lon="-3.947028235491105"><ele>136.0</ele><time>2026-05-02T10:06:34Z</time></trkpt><trkpt lat="43.24980917716336" lon="-3.9470129449999414"><ele>136.0</ele><time>2026-05-02T10:06:35Z</time></trkpt><trkpt lat="43.249705282228" lon="-3.946997172516882"><ele>136.0</ele><time>2026-05-02T10:06:36Z</time></trkpt><trkpt lat="43.24960548810184" lon="-3.9469828944621708"><ele>136.4</ele><time>2026-05-02T10:06:37Z</time></trkpt><trkpt lat="43.24950854394361" lon="-3.9469717322836595"><ele>136.8</ele><time>2026-05-02T10:06:38Z</time></trkpt><trkpt lat="43.24941178921038" lon="-3.946957595364397"><ele>137.20000000000002</ele><time>2026-05-02T10:06:39Z</time></trkpt><trkpt lat="43.249311355057735" lon="-3.9469455971391683"><ele>137.6</ele><time>2026-05-02T10:06:40Z</time></trkpt><trkpt lat="43.24921202336167" lon="-3.946930199708343"><ele>138.0</ele><time>2026-05-02T10:06:41Z</time></trkpt><trkpt lat="43.249117086796254" lon="-3.946913865765644"><ele>138.0</ele><time>2026-05-02T10:06:42Z</time></trkpt><trkpt lat="43.24901824226136" lon="-3.946902445141454"><ele>138.0</ele><time>2026-05-02T10:06:43Z</time></trkpt><trkpt lat="43.248921246394836" lon="-3.946887854089704"><ele>138.0</ele><time>2026-05-02T10:06:44Z</time></trkpt><trkpt lat="43.24882477686197" lon="-3.9468727641495596"><ele>138.0</ele><time>2026-05-02T10:06:45Z</time></trkpt><trkpt lat="43.24872758611627" lon="-3.946856457073846"><ele>138.0</ele><time>2026-05-02T10:06:46Z</time></trkpt><trkpt lat="43.24863062435037" lon="-3.946843442188605"><ele>138.6</ele><time>2026-05-02T10:06:47Z</time></trkpt><trkpt lat="43.248532159209134" lon="-3.9468256830017774"><ele>139.20000000000002</ele><time>2026-05-02T10:06:48Z</time></trkpt><trkpt lat="43.24843107576824" lon="-3.9468127159135977"><ele>139.8</ele><time>2026-05-02T10:06:49Z</time></trkpt><trkpt lat="43.24833698459992" lon="-3.9467925074864594"><ele>140.4</ele><time>2026-05-02T10:06:50Z</time></trkpt><trkpt lat="43.248238444791326" lon="-3.946777880867839"><ele>141.0</ele><time>2026-05-02T10:06:51Z</time></trkpt><trkpt lat="43.24814271496182" lon="-3.946757168508806"><ele>141.0</ele><time>2026-05-02T10:06:52Z</time></trkpt><trkpt lat="43.24804716919024" lon="-3.9467399349150534"><ele>141.0</ele><time>2026-05-02T10:06:53Z</time></trkpt><trkpt lat="43.247948997315994" lon="-3.946726177034684"><ele>141.0</ele><time>2026-05-02T10:06:54Z</time></trkpt><trkpt lat="43.247853360555034" lon="-3.946706963955402"><ele>141.0</ele><time>2026-05-02T10:06:55Z</time></trkpt><trkpt lat="43.24775249665632" lon="-3.9466920020503067"><ele>141.0</ele><time>2026-05-02T10:06:56Z</time></trkpt><trkpt lat="43.24765185345933" lon="-3.946674905744371"><ele>140.0</ele><time>2026-05-02T10:06:57Z</time></trkpt><trkpt lat="43.24755493179943" lon="-3.9466505189419148"><ele>139.0</ele><time>2026-05-02T10:06:58Z</time></trkpt><trkpt lat="43.24745261688506" lon="-3.9466333315329205"><ele>138.0</ele><time>2026-05-02T10:06:59Z</time></trkpt><trkpt lat="43.247355066823566" lon="-3.946616687191419"><ele>137.0</ele><time>2026-05-02T10:07:00Z</time></trkpt><trkpt lat="43.24725362733373" lon="-3.9466081761738256"><ele>136.0</ele><time>2026-05-02T10:07:01Z</time></trkpt><trkpt lat="43.24715075658169" lon="-3.94659903345739"><ele>136.0</ele><time>2026-05-02T10:07:02Z</time></trkpt><trkpt lat="43.24704612176049" lon="-3.946599061751912"><ele>136.0</ele><time>2026-05-02T10:07:03Z</time></trkpt><trkpt lat="43.24694434859848" lon="-3.946611111087668"><ele>136.0</ele><time>2026-05-02T10:07:04Z</time></trkpt><trkpt lat="43.246836765022415" lon="-3.946635537866423"><ele>136.0</ele><time>2026-05-02T10:07:05Z</time></trkpt><trkpt lat="43.24673130861761" lon="-3.9466688620903616"><ele>136.0</ele><time>2026-05-02T10:07:06Z</time></trkpt><trkpt lat="43.246630155677394" lon="-3.9467154763258616"><ele>136.75</ele><time>2026-05-02T10:07:07Z</time></trkpt><trkpt lat="43.24653134901817" lon="-3.946771514449607"><ele>137.5</ele><time>2026-05-02T10:07:08Z</time></trkpt><trkpt lat="43.24643216552933" lon="-3.9468299092744514"><ele>138.25</ele><time>2026-05-02T10:07:09Z</time></trkpt><trkpt lat="43.24632917955879" lon="-3.9469120251777983"><ele>139.0</ele><time>2026-05-02T10:07:10.001Z</time></trkpt><trkpt lat="43.24618249926579" lon="-3.9470348973745417"><ele>139.0</ele><time>2026-05-02T10:07:11.001Z</time></trkpt><trkpt lat="43.24604259408048" lon="-3.947099078729915"><ele>139.0</ele><time>2026-05-02T10:07:13.001Z</time></trkpt><trkpt lat="43.24594523770321" lon="-3.947165922599451"><ele>139.0</ele><time>2026-05-02T10:07:14.001Z</time></trkpt><trkpt lat="43.245844466410816" lon="-3.947222886044367"><ele>139.0</ele><time>2026-05-02T10:07:15.001Z</time></trkpt><trkpt lat="43.245740660413546" lon="-3.947268288662425"><ele>139.0</ele><time>2026-05-02T10:07:16.001Z</time></trkpt><trkpt lat="43.245633360576164" lon="-3.9473081382400204"><ele>139.0</ele><time>2026-05-02T10:07:17.001Z</time></trkpt><trkpt lat="43.24552566411673" lon="-3.9473325915652837"><ele>139.0</ele><time>2026-05-02T10:07:18.001Z</time></trkpt><trkpt lat="43.245414601629626" lon="-3.9473479742671955"><ele>139.0</ele><time>2026-05-02T10:07:19.001Z</time></trkpt><trkpt lat="43.245306635332895" lon="-3.947346638914554"><ele>139.0</ele><time>2026-05-02T10:07:20.001Z</time></trkpt><trkpt lat="43.245193844899795" lon="-3.9473356414953837"><ele>138.4</ele><time>2026-05-02T10:07:21.001Z</time></trkpt><trkpt lat="43.24508477819422" lon="-3.947319385343008"><ele>137.8</ele><time>2026-05-02T10:07:22.001Z</time></trkpt><trkpt lat="43.244978001568775" lon="-3.9472790413917056"><ele>137.2</ele><time>2026-05-02T10:07:23.001Z</time></trkpt><trkpt lat="43.24486922472643" lon="-3.947241301378254"><ele>136.6</ele><time>2026-05-02T10:07:24.001Z</time></trkpt><trkpt lat="43.24476237812063" lon="-3.9472024656198093"><ele>136.0</ele><time>2026-05-02T10:07:25.001Z</time></trkpt><trkpt lat="43.24465595134679" lon="-3.9471584987005603"><ele>138.0</ele><time>2026-05-02T10:07:26.001Z</time></trkpt><trkpt lat="43.2445527463975" lon="-3.9471120902625545"><ele>140.0</ele><time>2026-05-02T10:07:27.001Z</time></trkpt><trkpt lat="43.24444695556621" lon="-3.9470668486876974"><ele>142.0</ele><time>2026-05-02T10:07:28.001Z</time></trkpt><trkpt lat="43.24434330725485" lon="-3.9470295325889415"><ele>144.0</ele><time>2026-05-02T10:07:29.001Z</time></trkpt><trkpt lat="43.24423686718208" lon="-3.946983129600583"><ele>146.0</ele><time>2026-05-02T10:07:30.001Z</time></trkpt><trkpt lat="43.244131320909695" lon="-3.946952172199883"><ele>146.0</ele><time>2026-05-02T10:07:31.001Z</time></trkpt><trkpt lat="43.24402423359841" lon="-3.9469383074052256"><ele>146.0</ele><time>2026-05-02T10:07:32.001Z</time></trkpt><trkpt lat="43.24391639578796" lon="-3.946930222978509"><ele>146.0</ele><time>2026-05-02T10:07:33.001Z</time></trkpt><trkpt lat="43.24381278501379" lon="-3.9469655807492763"><ele>146.0</ele><time>2026-05-02T10:07:34.001Z</time></trkpt><trkpt lat="43.24370967879178" lon="-3.946986122157637"><ele>146.0</ele><time>2026-05-02T10:07:35.001Z</time></trkpt><trkpt lat="43.24360673238552" lon="-3.9469964290783404"><ele>145.6</ele><time>2026-05-02T10:07:36.001Z</time></trkpt><trkpt lat="43.24350006376349" lon="-3.9470208100975475"><ele>145.2</ele><time>2026-05-02T10:07:37.001Z</time></trkpt><trkpt lat="43.24339783057103" lon="-3.947052707978434"><ele>144.8</ele><time>2026-05-02T10:07:38.001Z</time></trkpt><trkpt lat="43.2432955899813" lon="-3.9470851325966994"><ele>144.4</ele><time>2026-05-02T10:07:39.001Z</time></trkpt><trkpt lat="43.243189967802415" lon="-3.9471154157399466"><ele>144.0</ele><time>2026-05-02T10:07:40.001Z</time></trkpt><trkpt lat="43.24308571420818" lon="-3.947145740537509"><ele>144.0</ele><time>2026-05-02T10:07:41.001Z</time></trkpt><trkpt lat="43.24298171700626" lon="-3.947177330691782"><ele>144.0</ele><time>2026-05-02T10:07:42.001Z</time></trkpt><trkpt lat="43.24287736087332" lon="-3.94721057196548"><ele>144.0</ele><time>2026-05-02T10:07:43.001Z</time></trkpt><trkpt lat="43.24277628734763" lon="-3.947242694877091"><ele>144.0</ele><time>2026-05-02T10:07:44.001Z</time></trkpt><trkpt lat="43.24267098415544" lon="-3.9472771122727828"><ele>144.0</ele><time>2026-05-02T10:07:45.001Z</time></trkpt><trkpt lat="43.24256813141418" lon="-3.9473184717642464"><ele>144.0</ele><time>2026-05-02T10:07:46.001Z</time></trkpt><trkpt lat="43.24246154620687" lon="-3.947355583421664"><ele>144.0</ele><time>2026-05-02T10:07:47.001Z</time></trkpt><trkpt lat="43.24235848579561" lon="-3.947402068481852"><ele>144.0</ele><time>2026-05-02T10:07:48.001Z</time></trkpt><trkpt lat="43.24225482611865" lon="-3.9474471172349195"><ele>144.0</ele><time>2026-05-02T10:07:49.001Z</time></trkpt><trkpt lat="43.242152250606445" lon="-3.947493093270904"><ele>144.0</ele><time>2026-05-02T10:07:50.001Z</time></trkpt><trkpt lat="43.242048209110806" lon="-3.9475400666385303"><ele>149.2</ele><time>2026-05-02T10:07:51.001Z</time></trkpt><trkpt lat="43.241942436390666" lon="-3.9475881547327822"><ele>154.4</ele><time>2026-05-02T10:07:52.001Z</time></trkpt><trkpt lat="43.241845968193964" lon="-3.9476266578859285"><ele>159.6</ele><time>2026-05-02T10:07:53.001Z</time></trkpt><trkpt lat="43.24177742947441" lon="-3.9476780601165586"><ele>164.8</ele><time>2026-05-02T10:07:54.001Z</time></trkpt><trkpt lat="43.24163266791027" lon="-3.9477294746917035"><ele>170.0</ele><time>2026-05-02T10:07:55.001Z</time></trkpt><trkpt lat="43.241535405346525" lon="-3.947786973229125"><ele>168.8</ele><time>2026-05-02T10:07:56.001Z</time></trkpt><trkpt lat="43.24143218784221" lon="-3.9478328292032674"><ele>167.6</ele><time>2026-05-02T10:07:57.001Z</time></trkpt><trkpt lat="43.24133564168328" lon="-3.947885277492639"><ele>166.39999999999998</ele><time>2026-05-02T10:07:58.001Z</time></trkpt><trkpt lat="43.241234872975" lon="-3.9479286550527437"><ele>165.2</ele><time>2026-05-02T10:07:59.001Z</time></trkpt><trkpt lat="43.24113414595369" lon="-3.947973756345131"><ele>164.0</ele><time>2026-05-02T10:08:00.001Z</time></trkpt><trkpt lat="43.24103367310593" lon="-3.9480171418731995"><ele>164.0</ele><time>2026-05-02T10:08:01.001Z</time></trkpt><trkpt lat="43.24093133218053" lon="-3.9480575506838425"><ele>164.0</ele><time>2026-05-02T10:08:02.001Z</time></trkpt><trkpt lat="43.24082969733229" lon="-3.948092367238218"><ele>164.0</ele><time>2026-05-02T10:08:03.001Z</time></trkpt><trkpt lat="43.24072486823062" lon="-3.9481246429927577"><ele>164.0</ele><time>2026-05-02T10:08:04.001Z</time></trkpt><trkpt lat="43.24062346759715" lon="-3.948155414137098"><ele>164.0</ele><time>2026-05-02T10:08:05.001Z</time></trkpt><trkpt lat="43.240520102170734" lon="-3.94817088432341"><ele>163.6</ele><time>2026-05-02T10:08:06.002Z</time></trkpt><trkpt lat="43.24041529264239" lon="-3.9481819891493792"><ele>163.2</ele><time>2026-05-02T10:08:07.002Z</time></trkpt><trkpt lat="43.240311798104834" lon="-3.948190147704501"><ele>162.79999999999998</ele><time>2026-05-02T10:08:08.002Z</time></trkpt><trkpt lat="43.24020164016256" lon="-3.9481961733852105"><ele>162.39999999999998</ele><time>2026-05-02T10:08:09.002Z</time></trkpt><trkpt lat="43.24008996985111" lon="-3.9482034783147384"><ele>162.0</ele><time>2026-05-02T10:08:10.002Z</time></trkpt><trkpt lat="43.23998137818669" lon="-3.9482072365982375"><ele>162.0</ele><time>2026-05-02T10:08:11.002Z</time></trkpt><trkpt lat="43.23986644604999" lon="-3.9482090195460207"><ele>162.0</ele><time>2026-05-02T10:08:12.002Z</time></trkpt><trkpt lat="43.23975731314202" lon="-3.9482093273719805"><ele>162.0</ele><time>2026-05-02T10:08:13.002Z</time></trkpt><trkpt lat="43.23964660468529" lon="-3.948213727006694"><ele>162.0</ele><time>2026-05-02T10:08:14.002Z</time></trkpt><trkpt lat="43.23953694539488" lon="-3.9482308964036497"><ele>162.0</ele><time>2026-05-02T10:08:15.002Z</time></trkpt><trkpt lat="43.239426627095675" lon="-3.948248507218079"><ele>161.0</ele><time>2026-05-02T10:08:16.002Z</time></trkpt><trkpt lat="43.23931263907498" lon="-3.9482630042841564"><ele>160.0</ele><time>2026-05-02T10:08:17.002Z</time></trkpt><trkpt lat="43.239200724004206" lon="-3.9482951305939493"><ele>159.0</ele><time>2026-05-02T10:08:18.002Z</time></trkpt><trkpt lat="43.23909364883212" lon="-3.9483465013095884"><ele>158.0</ele><time>2026-05-02T10:08:18.999Z</time></trkpt><trkpt lat="43.23898968674528" lon="-3.948395167563614"><ele>160.75</ele><time>2026-05-02T10:08:19.999Z</time></trkpt><trkpt lat="43.23888213540431" lon="-3.9484417687952083"><ele>163.5</ele><time>2026-05-02T10:08:20.999Z</time></trkpt><trkpt lat="43.23877528971314" lon="-3.948494120633401"><ele>166.25</ele><time>2026-05-02T10:08:21.999Z</time></trkpt><trkpt lat="43.238668582606905" lon="-3.9485465245520306"><ele>169.0</ele><time>2026-05-02T10:08:22.999Z</time></trkpt><trkpt lat="43.23856084872892" lon="-3.948601078244043"><ele>169.0</ele><time>2026-05-02T10:08:23.999Z</time></trkpt><trkpt lat="43.23845367374986" lon="-3.9486518046901646"><ele>169.0</ele><time>2026-05-02T10:08:24.999Z</time></trkpt><trkpt lat="43.23834444616214" lon="-3.9487028336401493"><ele>169.0</ele><time>2026-05-02T10:08:25.999Z</time></trkpt><trkpt lat="43.2382378458168" lon="-3.948752868504723"><ele>169.0</ele><time>2026-05-02T10:08:26.999Z</time></trkpt><trkpt lat="43.23812128721303" lon="-3.9487770072874975"><ele>164.5</ele><time>2026-05-02T10:08:27.999Z</time></trkpt><trkpt lat="43.23800223328384" lon="-3.9487687893913663"><ele>160.0</ele><time>2026-05-02T10:08:28.999Z</time></trkpt><trkpt lat="43.23788352595699" lon="-3.9487669045357"><ele>155.5</ele><time>2026-05-02T10:08:29.999Z</time></trkpt><trkpt lat="43.23776847536515" lon="-3.9487551705884396"><ele>151.0</ele><time>2026-05-02T10:08:30.999Z</time></trkpt><trkpt lat="43.237653128859236" lon="-3.9487304419770903"><ele>151.0</ele><time>2026-05-02T10:08:31.999Z</time></trkpt><trkpt lat="43.23754340456451" lon="-3.9486900350301672"><ele>151.0</ele><time>2026-05-02T10:08:32.999Z</time></trkpt><trkpt lat="43.2374297535695" lon="-3.9486388047509102"><ele>151.0</ele><time>2026-05-02T10:08:34Z</time></trkpt><trkpt lat="43.23731809246466" lon="-3.948588349306299"><ele>151.0</ele><time>2026-05-02T10:08:35Z</time></trkpt><trkpt lat="43.23720961273345" lon="-3.9485401338260235"><ele>147.5</ele><time>2026-05-02T10:08:36Z</time></trkpt><trkpt lat="43.237102401392846" lon="-3.9484909920544284"><ele>144.0</ele><time>2026-05-02T10:08:37Z</time></trkpt><trkpt lat="43.23699327860908" lon="-3.9484501435759634"><ele>140.5</ele><time>2026-05-02T10:08:38Z</time></trkpt><trkpt lat="43.236884863739256" lon="-3.9484074962351494"><ele>137.0</ele><time>2026-05-02T10:08:39Z</time></trkpt><trkpt lat="43.23678035780466" lon="-3.948351163504862"><ele>134.75</ele><time>2026-05-02T10:08:40Z</time></trkpt><trkpt lat="43.23667044758245" lon="-3.948309192021707"><ele>132.5</ele><time>2026-05-02T10:08:41Z</time></trkpt><trkpt lat="43.23656054685769" lon="-3.9482747568323027"><ele>130.25</ele><time>2026-05-02T10:08:42Z</time></trkpt><trkpt lat="43.23645013009142" lon="-3.9482314933908778"><ele>128.0</ele><time>2026-05-02T10:08:43Z</time></trkpt><trkpt lat="43.23634050661967" lon="-3.948181884879602"><ele>128.0</ele><time>2026-05-02T10:08:44Z</time></trkpt><trkpt lat="43.236232143492764" lon="-3.9481375724321404"><ele>128.0</ele><time>2026-05-02T10:08:45Z</time></trkpt><trkpt lat="43.23612652581614" lon="-3.948074822849433"><ele>128.0</ele><time>2026-05-02T10:08:46Z</time></trkpt><trkpt lat="43.23602310501942" lon="-3.9480036894343926"><ele>128.0</ele><time>2026-05-02T10:08:47Z</time></trkpt><trkpt lat="43.23592237316498" lon="-3.947934248499045"><ele>128.0</ele><time>2026-05-02T10:08:48Z</time></trkpt><trkpt lat="43.23582902960864" lon="-3.94784917167195"><ele>128.0</ele><time>2026-05-02T10:08:49Z</time></trkpt><trkpt lat="43.23573798310199" lon="-3.9477531816028892"><ele>128.0</ele><time>2026-05-02T10:08:50Z</time></trkpt><trkpt lat="43.235651890300524" lon="-3.947653478958939"><ele>128.0</ele><time>2026-05-02T10:08:51Z</time></trkpt><trkpt lat="43.23556420965301" lon="-3.947552770373705"><ele>132.4</ele><time>2026-05-02T10:08:52Z</time></trkpt><trkpt lat="43.23548635855342" lon="-3.947442178648272"><ele>136.8</ele><time>2026-05-02T10:08:53Z</time></trkpt><trkpt lat="43.23541115726733" lon="-3.9473271184090293"><ele>141.2</ele><time>2026-05-02T10:08:54Z</time></trkpt><trkpt lat="43.23533576555198" lon="-3.947216840194443"><ele>145.6</ele><time>2026-05-02T10:08:55Z</time></trkpt><trkpt lat="43.23526338898071" lon="-3.9471039775052184"><ele>150.0</ele><time>2026-05-02T10:08:56Z</time></trkpt><trkpt lat="43.2351854524619" lon="-3.946990242089226"><ele>150.0</ele><time>2026-05-02T10:08:57Z</time></trkpt><trkpt lat="43.23511186732484" lon="-3.9468753019057408"><ele>150.0</ele><time>2026-05-02T10:08:58Z</time></trkpt><trkpt lat="43.23503297294335" lon="-3.9467702141329766"><ele>150.0</ele><time>2026-05-02T10:08:59Z</time></trkpt><trkpt lat="43.23495496094843" lon="-3.9466619632844395"><ele>150.0</ele><time>2026-05-02T10:09:00Z</time></trkpt><trkpt lat="43.234877260633894" lon="-3.9465531981871345"><ele>150.0</ele><time>2026-05-02T10:09:01Z</time></trkpt><trkpt lat="43.23479782830739" lon="-3.9464459021157388"><ele>147.8</ele><time>2026-05-02T10:09:02Z</time></trkpt><trkpt lat="43.23471377263728" lon="-3.946342140225338"><ele>145.6</ele><time>2026-05-02T10:09:03Z</time></trkpt><trkpt lat="43.234626091141365" lon="-3.9462431512890457"><ele>143.4</ele><time>2026-05-02T10:09:04Z</time></trkpt><trkpt lat="43.23453553261635" lon="-3.946151834897854"><ele>141.2</ele><time>2026-05-02T10:09:05Z</time></trkpt><trkpt lat="43.234440951601094" lon="-3.9460733070226093"><ele>139.0</ele><time>2026-05-02T10:09:06Z</time></trkpt><trkpt lat="43.234343582828046" lon="-3.945996971642004"><ele>139.0</ele><time>2026-05-02T10:09:07Z</time></trkpt><trkpt lat="43.23424574890183" lon="-3.9459346867272433"><ele>139.0</ele><time>2026-05-02T10:09:08Z</time></trkpt><trkpt lat="43.23413490450085" lon="-3.9458925027211245"><ele>139.0</ele><time>2026-05-02T10:09:09Z</time></trkpt><trkpt lat="43.23403064100491" lon="-3.9458450727421983"><ele>139.0</ele><time>2026-05-02T10:09:10Z</time></trkpt><trkpt lat="43.23392209592572" lon="-3.9458073023218123"><ele>139.0</ele><time>2026-05-02T10:09:11Z</time></trkpt><trkpt lat="43.233814364171224" lon="-3.945781604817718"><ele>136.4</ele><time>2026-05-02T10:09:12Z</time></trkpt><trkpt lat="43.23370511535483" lon="-3.94576029014277"><ele>133.8</ele><time>2026-05-02T10:09:13.001Z</time></trkpt><trkpt lat="43.23359339673897" lon="-3.945743659502513"><ele>131.2</ele><time>2026-05-02T10:09:14.001Z</time></trkpt><trkpt lat="43.233483375886244" lon="-3.945735796508086"><ele>128.6</ele><time>2026-05-02T10:09:15.001Z</time></trkpt><trkpt lat="43.233371751329344" lon="-3.945716232720891"><ele>126.0</ele><time>2026-05-02T10:09:16.001Z</time></trkpt><trkpt lat="43.23326186139137" lon="-3.9457224278591654"><ele>126.0</ele><time>2026-05-02T10:09:17.001Z</time></trkpt><trkpt lat="43.23314991035292" lon="-3.945732676737864"><ele>126.0</ele><time>2026-05-02T10:09:18.001Z</time></trkpt><trkpt lat="43.23303827619635" lon="-3.945740876023902"><ele>126.0</ele><time>2026-05-02T10:09:19.001Z</time></trkpt><trkpt lat="43.232927372118446" lon="-3.94574551945464"><ele>126.0</ele><time>2026-05-02T10:09:20.001Z</time></trkpt><trkpt lat="43.23281613879966" lon="-3.9457529752708598"><ele>126.0</ele><time>2026-05-02T10:09:21.001Z</time></trkpt><trkpt lat="43.23270468407037" lon="-3.945767605880991"><ele>126.8</ele><time>2026-05-02T10:09:22.001Z</time></trkpt><trkpt lat="43.23259360092054" lon="-3.9457709751900922"><ele>127.6</ele><time>2026-05-02T10:09:23.001Z</time></trkpt><trkpt lat="43.23248204321569" lon="-3.945779182970418"><ele>128.4</ele><time>2026-05-02T10:09:24.001Z</time></trkpt><trkpt lat="43.232369035306085" lon="-3.945787495581665"><ele>129.2</ele><time>2026-05-02T10:09:25.001Z</time></trkpt><trkpt lat="43.2322564188411" lon="-3.945795401335989"><ele>130.0</ele><time>2026-05-02T10:09:26.001Z</time></trkpt><trkpt lat="43.23214418721258" lon="-3.94580358307045"><ele>130.0</ele><time>2026-05-02T10:09:27.001Z</time></trkpt><trkpt lat="43.23203167489517" lon="-3.9458106018509205"><ele>130.0</ele><time>2026-05-02T10:09:28.001Z</time></trkpt><trkpt lat="43.231917229254734" lon="-3.9458135089895117"><ele>130.0</ele><time>2026-05-02T10:09:29.001Z</time></trkpt><trkpt lat="43.231806075885316" lon="-3.945823133310151"><ele>130.0</ele><time>2026-05-02T10:09:30.001Z</time></trkpt><trkpt lat="43.23169265663197" lon="-3.9458293669851745"><ele>130.0</ele><time>2026-05-02T10:09:31.001Z</time></trkpt><trkpt lat="43.23158008321545" lon="-3.9458417836504953"><ele>130.0</ele><time>2026-05-02T10:09:32.001Z</time></trkpt><trkpt lat="43.23146807515333" lon="-3.9458521983674233"><ele>130.0</ele><time>2026-05-02T10:09:33.001Z</time></trkpt><trkpt lat="43.23135632188802" lon="-3.945864617959953"><ele>130.0</ele><time>2026-05-02T10:09:34.001Z</time></trkpt><trkpt lat="43.23124181489795" lon="-3.94587470266068"><ele>136.0</ele><time>2026-05-02T10:09:35.001Z</time></trkpt><trkpt lat="43.231128360865526" lon="-3.9458882187510667"><ele>142.0</ele><time>2026-05-02T10:09:36.001Z</time></trkpt><trkpt lat="43.2310171715604" lon="-3.9459061556006567"><ele>148.0</ele><time>2026-05-02T10:09:37.001Z</time></trkpt><trkpt lat="43.230905424330224" lon="-3.9459263779855993"><ele>154.0</ele><time>2026-05-02T10:09:38.001Z</time></trkpt><trkpt lat="43.230791855095106" lon="-3.945943241765085"><ele>154.0</ele><time>2026-05-02T10:09:39.001Z</time></trkpt><trkpt lat="43.23068186044127" lon="-3.9459718655778646"><ele>154.0</ele><time>2026-05-02T10:09:40.001Z</time></trkpt><trkpt lat="43.230569605001826" lon="-3.9459970138701155"><ele>154.0</ele><time>2026-05-02T10:09:41.001Z</time></trkpt><trkpt lat="43.230461726145144" lon="-3.946029252685896"><ele>154.0</ele><time>2026-05-02T10:09:42.001Z</time></trkpt><trkpt lat="43.23035496527893" lon="-3.946065676181627"><ele>154.0</ele><time>2026-05-02T10:09:43.001Z</time></trkpt><trkpt lat="43.230244427640606" lon="-3.9460950422866987"><ele>152.25</ele><time>2026-05-02T10:09:44.001Z</time></trkpt><trkpt lat="43.23013486382021" lon="-3.9461239076615144"><ele>150.5</ele><time>2026-05-02T10:09:45.001Z</time></trkpt><trkpt lat="43.23002591859767" lon="-3.9461570616190254"><ele>148.75</ele><time>2026-05-02T10:09:46.001Z</time></trkpt><trkpt lat="43.22991220849404" lon="-3.9461883092897785"><ele>147.0</ele><time>2026-05-02T10:09:47.001Z</time></trkpt><trkpt lat="43.22980188030418" lon="-3.946224779604529"><ele>145.5</ele><time>2026-05-02T10:09:48.001Z</time></trkpt><trkpt lat="43.22969572682099" lon="-3.946262197825141"><ele>144.0</ele><time>2026-05-02T10:09:49.001Z</time></trkpt><trkpt lat="43.22958313806394" lon="-3.946291521200407"><ele>142.5</ele><time>2026-05-02T10:09:50.001Z</time></trkpt><trkpt lat="43.22947347982541" lon="-3.9463298634615525"><ele>141.0</ele><time>2026-05-02T10:09:51.001Z</time></trkpt><trkpt lat="43.22936351445361" lon="-3.9463667267205738"><ele>141.0</ele><time>2026-05-02T10:09:52.001Z</time></trkpt><trkpt lat="43.22925182122162" lon="-3.946399776426569"><ele>141.0</ele><time>2026-05-02T10:09:53.001Z</time></trkpt><trkpt lat="43.22914106869068" lon="-3.9464327551673772"><ele>141.0</ele><time>2026-05-02T10:09:54.001Z</time></trkpt><trkpt lat="43.22902991829055" lon="-3.9464662254233076"><ele>141.0</ele><time>2026-05-02T10:09:55.001Z</time></trkpt><trkpt lat="43.22891859313762" lon="-3.9464983587494404"><ele>140.0</ele><time>2026-05-02T10:09:56.001Z</time></trkpt><trkpt lat="43.22880737954548" lon="-3.9465291761198786"><ele>139.0</ele><time>2026-05-02T10:09:57.001Z</time></trkpt><trkpt lat="43.22869718832625" lon="-3.9465587872053236"><ele>138.0</ele><time>2026-05-02T10:09:58.001Z</time></trkpt><trkpt lat="43.228587966427" lon="-3.946585560019637"><ele>137.0</ele><time>2026-05-02T10:09:59.001Z</time></trkpt><trkpt lat="43.228475652284786" lon="-3.946604191630703"><ele>137.0</ele><time>2026-05-02T10:10:00.001Z</time></trkpt><trkpt lat="43.228363323804444" lon="-3.946619057220841"><ele>137.0</ele><time>2026-05-02T10:10:01.001Z</time></trkpt><trkpt lat="43.228251520332066" lon="-3.946634118020786"><ele>137.0</ele><time>2026-05-02T10:10:02.001Z</time></trkpt><trkpt lat="43.22814170346971" lon="-3.9466461309673972"><ele>137.0</ele><time>2026-05-02T10:10:03.002Z</time></trkpt><trkpt lat="43.228028107820734" lon="-3.9466505058477757"><ele>137.0</ele><time>2026-05-02T10:10:04.002Z</time></trkpt><trkpt lat="43.22792011932687" lon="-3.94665777866924"><ele>136.75</ele><time>2026-05-02T10:10:05.002Z</time></trkpt><trkpt lat="43.22780792656541" lon="-3.9466571006354387"><ele>136.5</ele><time>2026-05-02T10:10:06.002Z</time></trkpt><trkpt lat="43.22769492948612" lon="-3.946652668172037"><ele>136.25</ele><time>2026-05-02T10:10:07.002Z</time></trkpt><trkpt lat="43.22758348252803" lon="-3.946643954966441"><ele>136.0</ele><time>2026-05-02T10:10:08.002Z</time></trkpt><trkpt lat="43.22747066792313" lon="-3.946630907521212"><ele>136.0</ele><time>2026-05-02T10:10:09.002Z</time></trkpt><trkpt lat="43.22736057222176" lon="-3.9466164868106604"><ele>136.0</ele><time>2026-05-02T10:10:10.002Z</time></trkpt><trkpt lat="43.22724821428356" lon="-3.9465977476537897"><ele>136.0</ele><time>2026-05-02T10:10:11.002Z</time></trkpt><trkpt lat="43.227137903064715" lon="-3.946577992133832"><ele>136.0</ele><time>2026-05-02T10:10:12.002Z</time></trkpt><trkpt lat="43.227029123062245" lon="-3.9465552969838433"><ele>136.0</ele><time>2026-05-02T10:10:13.002Z</time></trkpt><trkpt lat="43.22692020296384" lon="-3.9465276045384865"><ele>137.2</ele><time>2026-05-02T10:10:14.002Z</time></trkpt><trkpt lat="43.22681182947564" lon="-3.946494818024598"><ele>138.39999999999998</ele><time>2026-05-02T10:10:15.002Z</time></trkpt><trkpt lat="43.22670402951235" lon="-3.9464614775566877"><ele>139.6</ele><time>2026-05-02T10:10:16.002Z</time></trkpt><trkpt lat="43.2265953800407" lon="-3.9464196619051273"><ele>140.79999999999998</ele><time>2026-05-02T10:10:17.002Z</time></trkpt><trkpt lat="43.22648977980283" lon="-3.9463823760284433"><ele>142.0</ele><time>2026-05-02T10:10:18.002Z</time></trkpt><trkpt lat="43.226383806861186" lon="-3.946338327836972"><ele>143.79999999999998</ele><time>2026-05-02T10:10:19.002Z</time></trkpt><trkpt lat="43.22627955467622" lon="-3.9462951341374684"><ele>145.6</ele><time>2026-05-02T10:10:20.002Z</time></trkpt><trkpt lat="43.226173978975176" lon="-3.946245625073212"><ele>147.39999999999998</ele><time>2026-05-02T10:10:21.002Z</time></trkpt><trkpt lat="43.22606880864128" lon="-3.94619118869653"><ele>149.2</ele><time>2026-05-02T10:10:22.002Z</time></trkpt><trkpt lat="43.22596611993912" lon="-3.946140185672511"><ele>151.0</ele><time>2026-05-02T10:10:23.002Z</time></trkpt><trkpt lat="43.22586176077888" lon="-3.946090821658415"><ele>151.0</ele><time>2026-05-02T10:10:24.002Z</time></trkpt><trkpt lat="43.22575709450531" lon="-3.9460388753233047"><ele>151.0</ele><time>2026-05-02T10:10:24.999Z</time></trkpt><trkpt lat="43.225653260856696" lon="-3.9459867767637253"><ele>151.0</ele><time>2026-05-02T10:10:25.999Z</time></trkpt><trkpt lat="43.22554630547634" lon="-3.9459345435002384"><ele>151.0</ele><time>2026-05-02T10:10:26.999Z</time></trkpt><trkpt lat="43.22544656772325" lon="-3.945891152954081"><ele>151.0</ele><time>2026-05-02T10:10:27.999Z</time></trkpt><trkpt lat="43.22534095711346" lon="-3.945842075438482"><ele>148.4</ele><time>2026-05-02T10:10:28.999Z</time></trkpt><trkpt lat="43.22523340206103" lon="-3.9457949138591806"><ele>145.8</ele><time>2026-05-02T10:10:29.999Z</time></trkpt><trkpt lat="43.22513098085115" lon="-3.945743344978646"><ele>143.20000000000002</ele><time>2026-05-02T10:10:30.999Z</time></trkpt><trkpt lat="43.225026365289466" lon="-3.94569250091447"><ele>140.6</ele><time>2026-05-02T10:10:31.999Z</time></trkpt><trkpt lat="43.22492460230696" lon="-3.9456344890701254"><ele>138.0</ele><time>2026-05-02T10:10:33Z</time></trkpt><trkpt lat="43.224820562504576" lon="-3.945578166722432"><ele>139.8</ele><time>2026-05-02T10:10:34Z</time></trkpt><trkpt lat="43.22471681285425" lon="-3.9455296987859434"><ele>141.60000000000002</ele><time>2026-05-02T10:10:35Z</time></trkpt><trkpt lat="43.22461030613649" lon="-3.945474704902828"><ele>143.39999999999998</ele><time>2026-05-02T10:10:36Z</time></trkpt><trkpt lat="43.22450496805167" lon="-3.9454223961126424"><ele>145.2</ele><time>2026-05-02T10:10:37Z</time></trkpt><trkpt lat="43.22440058707742" lon="-3.945373002709991"><ele>147.0</ele><time>2026-05-02T10:10:38Z</time></trkpt><trkpt lat="43.22429439020252" lon="-3.9453187863236443"><ele>147.0</ele><time>2026-05-02T10:10:39Z</time></trkpt><trkpt lat="43.224189151491174" lon="-3.9452647083402144"><ele>147.0</ele><time>2026-05-02T10:10:40Z</time></trkpt><trkpt lat="43.224082610770935" lon="-3.9452130109791863"><ele>147.0</ele><time>2026-05-02T10:10:41Z</time></trkpt><trkpt lat="43.223977933189715" lon="-3.945163922524756"><ele>147.0</ele><time>2026-05-02T10:10:42Z</time></trkpt><trkpt lat="43.223872107549354" lon="-3.945114243373389"><ele>147.0</ele><time>2026-05-02T10:10:43Z</time></trkpt><trkpt lat="43.22376617603454" lon="-3.9450654701519987"><ele>145.4</ele><time>2026-05-02T10:10:44Z</time></trkpt><trkpt lat="43.223660479147426" lon="-3.945020221538792"><ele>143.79999999999998</ele><time>2026-05-02T10:10:45Z</time></trkpt><trkpt lat="43.22355456394243" lon="-3.944979796805649"><ele>142.2</ele><time>2026-05-02T10:10:46Z</time></trkpt><trkpt lat="43.223447090273496" lon="-3.9449427207149768"><ele>140.6</ele><time>2026-05-02T10:10:47Z</time></trkpt><trkpt lat="43.22333824087539" lon="-3.9449183062393383"><ele>139.0</ele><time>2026-05-02T10:10:48Z</time></trkpt><trkpt lat="43.22323105152572" lon="-3.944897862012346"><ele>139.2</ele><time>2026-05-02T10:10:49Z</time></trkpt><trkpt lat="43.22311987238064" lon="-3.9448833127429954"><ele>139.4</ele><time>2026-05-02T10:10:50Z</time></trkpt><trkpt lat="43.22301081121165" lon="-3.9448762586143693"><ele>139.6</ele><time>2026-05-02T10:10:51Z</time></trkpt><trkpt lat="43.222896660986265" lon="-3.944875955865828"><ele>139.8</ele><time>2026-05-02T10:10:52Z</time></trkpt><trkpt lat="43.222793115433156" lon="-3.944870329127627"><ele>140.0</ele><time>2026-05-02T10:10:53Z</time></trkpt><trkpt lat="43.222687021188115" lon="-3.944886922195271"><ele>140.0</ele><time>2026-05-02T10:10:54Z</time></trkpt><trkpt lat="43.222583660521245" lon="-3.9448980070217545"><ele>140.0</ele><time>2026-05-02T10:10:55Z</time></trkpt><trkpt lat="43.22247892645585" lon="-3.9449093586516377"><ele>140.0</ele><time>2026-05-02T10:10:56Z</time></trkpt><trkpt lat="43.222372335816104" lon="-3.944916556150833"><ele>140.0</ele><time>2026-05-02T10:10:57Z</time></trkpt><trkpt lat="43.22226947301691" lon="-3.9449304476531863"><ele>140.0</ele><time>2026-05-02T10:10:58Z</time></trkpt><trkpt lat="43.22216480457678" lon="-3.9449470344607445"><ele>140.4</ele><time>2026-05-02T10:10:59Z</time></trkpt><trkpt lat="43.2220612777846" lon="-3.9449615388952606"><ele>140.8</ele><time>2026-05-02T10:11:00Z</time></trkpt><trkpt lat="43.22195755908821" lon="-3.944971620236858"><ele>141.2</ele><time>2026-05-02T10:11:01Z</time></trkpt><trkpt lat="43.22185683114477" lon="-3.9449855260733866"><ele>141.6</ele><time>2026-05-02T10:11:02Z</time></trkpt><trkpt lat="43.22175506279478" lon="-3.944989639309618"><ele>142.0</ele><time>2026-05-02T10:11:03Z</time></trkpt><trkpt lat="43.22165538926225" lon="-3.944988885545241"><ele>142.0</ele><time>2026-05-02T10:11:04Z</time></trkpt><trkpt lat="43.22155229294194" lon="-3.9449776270543464"><ele>142.0</ele><time>2026-05-02T10:11:05Z</time></trkpt><trkpt lat="43.22145331922935" lon="-3.9449677057371293"><ele>142.0</ele><time>2026-05-02T10:11:06Z</time></trkpt><trkpt lat="43.221352300474" lon="-3.944946996898004"><ele>142.0</ele><time>2026-05-02T10:11:07Z</time></trkpt><trkpt lat="43.22125158170435" lon="-3.9449191848403347"><ele>142.0</ele><time>2026-05-02T10:11:08Z</time></trkpt><trkpt lat="43.221151361475876" lon="-3.9448845323294788"><ele>142.4</ele><time>2026-05-02T10:11:09Z</time></trkpt><trkpt lat="43.22105201230101" lon="-3.9448465276081244"><ele>142.79999999999998</ele><time>2026-05-02T10:11:10Z</time></trkpt><trkpt lat="43.220953234223195" lon="-3.9447973866263766"><ele>143.2</ele><time>2026-05-02T10:11:11Z</time></trkpt><trkpt lat="43.22085299410493" lon="-3.944739943544114"><ele>143.6</ele><time>2026-05-02T10:11:12Z</time></trkpt><trkpt lat="43.22075522338696" lon="-3.944681578190655"><ele>144.0</ele><time>2026-05-02T10:11:13Z</time></trkpt><trkpt lat="43.22065954415194" lon="-3.944623564830513"><ele>144.4</ele><time>2026-05-02T10:11:14Z</time></trkpt><trkpt lat="43.22056293828145" lon="-3.94457889593608"><ele>144.8</ele><time>2026-05-02T10:11:15Z</time></trkpt><trkpt lat="43.2204773990334" lon="-3.944559673649163"><ele>145.2</ele><time>2026-05-02T10:11:16Z</time></trkpt><trkpt lat="43.220360954833446" lon="-3.944437477924069"><ele>145.6</ele><time>2026-05-02T10:11:17Z</time></trkpt><trkpt lat="43.22027216397203" lon="-3.94438085656267"><ele>146.0</ele><time>2026-05-02T10:11:18Z</time></trkpt><trkpt lat="43.220186612179006" lon="-3.944328530433637"><ele>146.0</ele><time>2026-05-02T10:11:19Z</time></trkpt><trkpt lat="43.22010694811709" lon="-3.9442793209423486"><ele>146.0</ele><time>2026-05-02T10:11:20Z</time></trkpt><trkpt lat="43.22003221937019" lon="-3.9442339213490922"><ele>146.0</ele><time>2026-05-02T10:11:21Z</time></trkpt><trkpt lat="43.21995838852885" lon="-3.944187865608779"><ele>146.0</ele><time>2026-05-02T10:11:22Z</time></trkpt><trkpt lat="43.21988983772029" lon="-3.9441483433850983"><ele>146.0</ele><time>2026-05-02T10:11:23Z</time></trkpt><trkpt lat="43.2198292005794" lon="-3.9441140322582897"><ele>146.0</ele><time>2026-05-02T10:11:24Z</time></trkpt><trkpt lat="43.219713002829664" lon="-3.944100557875556"><ele>145.66666666666666</ele><time>2026-05-02T10:11:26Z</time></trkpt><trkpt lat="43.219616875064865" lon="-3.9441196355951833"><ele>145.33333333333331</ele><time>2026-05-02T10:11:28Z</time></trkpt><trkpt lat="43.219535846770945" lon="-3.9441183910182653"><ele>145.0</ele><time>2026-05-02T10:11:30Z</time></trkpt><trkpt lat="43.21953704150454" lon="-3.9440011361134557"><ele>144.66666666666666</ele><time>2026-05-02T10:11:31Z</time></trkpt><trkpt lat="43.21947658780604" lon="-3.9440941962036744"><ele>144.33333333333334</ele><time>2026-05-02T10:11:32Z</time></trkpt><trkpt lat="43.21954128575405" lon="-3.944003892178623"><ele>144.0</ele><time>2026-05-02T10:11:51.001Z</time></trkpt><trkpt lat="43.21943491132244" lon="-3.9441687828380716"><ele>144.0</ele><time>2026-05-02T10:20:29.001Z</time></trkpt><trkpt lat="43.219410672306175" lon="-3.9440850237898513"><ele>144.0</ele><time>2026-05-02T10:42:32Z</time></trkpt><trkpt lat="43.21936587910384" lon="-3.9440203600832566"><ele>144.0</ele><time>2026-05-02T10:42:35Z</time></trkpt><trkpt lat="43.21930735706982" lon="-3.943986871784525"><ele>144.0</ele><time>2026-05-02T10:42:38Z</time></trkpt><trkpt lat="43.219267399593186" lon="-3.9438965595752036"><ele>144.0</ele><time>2026-05-02T10:42:40Z</time></trkpt><trkpt lat="43.21921848112599" lon="-3.943784467764592"><ele>144.0</ele><time>2026-05-02T10:42:42Z</time></trkpt><trkpt lat="43.21913812214538" lon="-3.9436918140087096"><ele>144.0</ele><time>2026-05-02T10:42:44Z</time></trkpt><trkpt lat="43.219049231922895" lon="-3.943604679515589"><ele>144.0</ele><time>2026-05-02T10:42:46Z</time></trkpt><trkpt lat="43.218946578533874" lon="-3.9435240698436083"><ele>144.0</ele><time>2026-05-02T10:42:48Z</time></trkpt><trkpt lat="43.218889525620895" lon="-3.9434749400354425"><ele>144.0</ele><time>2026-05-02T10:42:49Z</time></trkpt><trkpt lat="43.21882770389077" lon="-3.9434307468551806"><ele>144.0</ele><time>2026-05-02T10:42:50Z</time></trkpt><trkpt lat="43.218760173625675" lon="-3.943389119605381"><ele>144.0</ele><time>2026-05-02T10:42:51Z</time></trkpt><trkpt lat="43.21868995851707" lon="-3.943340160491103"><ele>144.33333333333334</ele><time>2026-05-02T10:42:52Z</time></trkpt><trkpt lat="43.218616611832815" lon="-3.9432878221497396"><ele>144.66666666666666</ele><time>2026-05-02T10:42:53Z</time></trkpt><trkpt lat="43.21854166434478" lon="-3.9432400285510614"><ele>145.0</ele><time>2026-05-02T10:42:54Z</time></trkpt><trkpt lat="43.218465340038584" lon="-3.94319573367258"><ele>145.33333333333331</ele><time>2026-05-02T10:42:55Z</time></trkpt><trkpt lat="43.21838739211671" lon="-3.94314288445845"><ele>145.66666666666666</ele><time>2026-05-02T10:42:56Z</time></trkpt><trkpt lat="43.218310533758164" lon="-3.9430875812455994"><ele>146.0</ele><time>2026-05-02T10:42:57Z</time></trkpt><trkpt lat="43.21822849659325" lon="-3.9430341028163105"><ele>146.4</ele><time>2026-05-02T10:42:58Z</time></trkpt><trkpt lat="43.2181461651237" lon="-3.94298744336444"><ele>146.8</ele><time>2026-05-02T10:42:59Z</time></trkpt><trkpt lat="43.21806571405281" lon="-3.942934535810135"><ele>147.20000000000002</ele><time>2026-05-02T10:43:00Z</time></trkpt><trkpt lat="43.217984278414384" lon="-3.9428765287241125"><ele>147.6</ele><time>2026-05-02T10:43:01Z</time></trkpt><trkpt lat="43.21790519246119" lon="-3.942820510118461"><ele>148.0</ele><time>2026-05-02T10:43:02Z</time></trkpt><trkpt lat="43.2178217206156" lon="-3.942763345217653"><ele>148.0</ele><time>2026-05-02T10:43:03Z</time></trkpt><trkpt lat="43.217737350290356" lon="-3.9427088904997003"><ele>148.0</ele><time>2026-05-02T10:43:04Z</time></trkpt><trkpt lat="43.217652734425094" lon="-3.9426521691398073"><ele>148.0</ele><time>2026-05-02T10:43:05Z</time></trkpt><trkpt lat="43.21756993795163" lon="-3.942595370896485"><ele>148.0</ele><time>2026-05-02T10:43:06Z</time></trkpt><trkpt lat="43.217485561947974" lon="-3.942541263984779"><ele>148.0</ele><time>2026-05-02T10:43:07Z</time></trkpt><trkpt lat="43.21739699816183" lon="-3.9424817186486014"><ele>149.0</ele><time>2026-05-02T10:43:08Z</time></trkpt><trkpt lat="43.21730803284975" lon="-3.9424254878011116"><ele>150.0</ele><time>2026-05-02T10:43:09Z</time></trkpt><trkpt lat="43.21721754925324" lon="-3.942368162293817"><ele>151.0</ele><time>2026-05-02T10:43:10Z</time></trkpt><trkpt lat="43.21712845458313" lon="-3.942309955436791"><ele>152.0</ele><time>2026-05-02T10:43:11Z</time></trkpt><trkpt lat="43.21703674895664" lon="-3.942249745649355"><ele>153.0</ele><time>2026-05-02T10:43:12Z</time></trkpt><trkpt lat="43.21694620745038" lon="-3.942191983856774"><ele>153.0</ele><time>2026-05-02T10:43:13Z</time></trkpt><trkpt lat="43.216854034893295" lon="-3.9421320576231267"><ele>153.0</ele><time>2026-05-02T10:43:14Z</time></trkpt><trkpt lat="43.21676353860704" lon="-3.9420755096245816"><ele>153.0</ele><time>2026-05-02T10:43:15Z</time></trkpt><trkpt lat="43.21667338675515" lon="-3.9420189379884634"><ele>153.0</ele><time>2026-05-02T10:43:16.001Z</time></trkpt><trkpt lat="43.21658193154068" lon="-3.9419590970120857"><ele>153.0</ele><time>2026-05-02T10:43:17.001Z</time></trkpt><trkpt lat="43.2164910876257" lon="-3.941899931101764"><ele>153.20000000000002</ele><time>2026-05-02T10:43:18.001Z</time></trkpt><trkpt lat="43.216398679251995" lon="-3.9418373052919615"><ele>153.4</ele><time>2026-05-02T10:43:19.001Z</time></trkpt><trkpt lat="43.21630863712967" lon="-3.941782126713759"><ele>153.60000000000002</ele><time>2026-05-02T10:43:20.001Z</time></trkpt><trkpt lat="43.21621843795975" lon="-3.9417212355121234"><ele>153.8</ele><time>2026-05-02T10:43:21.001Z</time></trkpt><trkpt lat="43.21612390238422" lon="-3.941659549034347"><ele>154.0</ele><time>2026-05-02T10:43:22.001Z</time></trkpt><trkpt lat="43.21602995609044" lon="-3.9416007953492533"><ele>154.0</ele><time>2026-05-02T10:43:23.001Z</time></trkpt><trkpt lat="43.21593489757085" lon="-3.9415385040725104"><ele>154.0</ele><time>2026-05-02T10:43:24.001Z</time></trkpt><trkpt lat="43.21583917032202" lon="-3.941477029815723"><ele>154.0</ele><time>2026-05-02T10:43:25.001Z</time></trkpt><trkpt lat="43.215744723156575" lon="-3.9414155378805784"><ele>154.0</ele><time>2026-05-02T10:43:26.001Z</time></trkpt><trkpt lat="43.21564980928405" lon="-3.9413516080278064"><ele>154.0</ele><time>2026-05-02T10:43:27.001Z</time></trkpt><trkpt lat="43.21555468114609" lon="-3.941293214701881"><ele>154.2</ele><time>2026-05-02T10:43:28.001Z</time></trkpt><trkpt lat="43.21545895310677" lon="-3.941231951752222"><ele>154.4</ele><time>2026-05-02T10:43:29.001Z</time></trkpt><trkpt lat="43.215363423222925" lon="-3.9411769732914"><ele>154.6</ele><time>2026-05-02T10:43:30.001Z</time></trkpt><trkpt lat="43.215268030846616" lon="-3.9411125310555666"><ele>154.8</ele><time>2026-05-02T10:43:31.001Z</time></trkpt><trkpt lat="43.21517358966299" lon="-3.9410540027033942"><ele>155.0</ele><time>2026-05-02T10:43:32.001Z</time></trkpt><trkpt lat="43.215079171565996" lon="-3.940993061262628"><ele>155.0</ele><time>2026-05-02T10:43:33.001Z</time></trkpt><trkpt lat="43.214984423260226" lon="-3.9409320106120314"><ele>155.0</ele><time>2026-05-02T10:43:34.001Z</time></trkpt><trkpt lat="43.214889483369426" lon="-3.9408690837271867"><ele>155.0</ele><time>2026-05-02T10:43:35.001Z</time></trkpt><trkpt lat="43.21479381571198" lon="-3.9408088422804024"><ele>155.0</ele><time>2026-05-02T10:43:36.001Z</time></trkpt><trkpt lat="43.21469735390945" lon="-3.9407452399134852"><ele>155.0</ele><time>2026-05-02T10:43:37.001Z</time></trkpt><trkpt lat="43.21460199289976" lon="-3.9406823689681554"><ele>155.6</ele><time>2026-05-02T10:43:38.001Z</time></trkpt><trkpt lat="43.21450702198554" lon="-3.9406246808239427"><ele>156.2</ele><time>2026-05-02T10:43:39.001Z</time></trkpt><trkpt lat="43.214411687857194" lon="-3.940566256229375"><ele>156.8</ele><time>2026-05-02T10:43:40.001Z</time></trkpt><trkpt lat="43.214316752071745" lon="-3.940500006499459"><ele>157.4</ele><time>2026-05-02T10:43:41.001Z</time></trkpt><trkpt lat="43.214222207131634" lon="-3.9404383159699123"><ele>158.0</ele><time>2026-05-02T10:43:42.001Z</time></trkpt><trkpt lat="43.21412826031592" lon="-3.940378872181299"><ele>158.0</ele><time>2026-05-02T10:43:43.001Z</time></trkpt><trkpt lat="43.21403254908309" lon="-3.9403179368220775"><ele>158.0</ele><time>2026-05-02T10:43:44.001Z</time></trkpt><trkpt lat="43.21393705024454" lon="-3.9402584772571783"><ele>158.0</ele><time>2026-05-02T10:43:45.001Z</time></trkpt><trkpt lat="43.213839718558106" lon="-3.9401963279094248"><ele>158.0</ele><time>2026-05-02T10:43:46.001Z</time></trkpt><trkpt lat="43.213741602594865" lon="-3.9401359782153085"><ele>158.0</ele><time>2026-05-02T10:43:47.001Z</time></trkpt><trkpt lat="43.213641809492024" lon="-3.940076108396879"><ele>158.20000000000002</ele><time>2026-05-02T10:43:48.001Z</time></trkpt><trkpt lat="43.21354367228669" lon="-3.9400137706072966"><ele>158.4</ele><time>2026-05-02T10:43:49.001Z</time></trkpt><trkpt lat="43.21344852788884" lon="-3.9399566935618386"><ele>158.60000000000002</ele><time>2026-05-02T10:43:50.001Z</time></trkpt><trkpt lat="43.21335356650024" lon="-3.9398935991577546"><ele>158.8</ele><time>2026-05-02T10:43:51.001Z</time></trkpt><trkpt lat="43.2132573855594" lon="-3.9398356127454104"><ele>159.0</ele><time>2026-05-02T10:43:52.001Z</time></trkpt><trkpt lat="43.21316286892263" lon="-3.9397768769032337"><ele>159.6</ele><time>2026-05-02T10:43:53.001Z</time></trkpt><trkpt lat="43.213071108908316" lon="-3.9397221429393565"><ele>160.2</ele><time>2026-05-02T10:43:54.001Z</time></trkpt><trkpt lat="43.21298169064892" lon="-3.939667631374974"><ele>160.79999999999998</ele><time>2026-05-02T10:43:55.001Z</time></trkpt><trkpt lat="43.21289654020407" lon="-3.939622784648949"><ele>161.4</ele><time>2026-05-02T10:43:56.001Z</time></trkpt><trkpt lat="43.21281439984149" lon="-3.9395972193628936"><ele>162.0</ele><time>2026-05-02T10:43:57.001Z</time></trkpt><trkpt lat="43.21272976745965" lon="-3.939580690937583"><ele>162.0</ele><time>2026-05-02T10:43:58.001Z</time></trkpt><trkpt lat="43.212646538814056" lon="-3.939577047307244"><ele>162.0</ele><time>2026-05-02T10:43:59.001Z</time></trkpt><trkpt lat="43.21257072776164" lon="-3.9395841101281603"><ele>162.0</ele><time>2026-05-02T10:44:00.001Z</time></trkpt><trkpt lat="43.21250175577431" lon="-3.939586617509195"><ele>162.0</ele><time>2026-05-02T10:44:00.999Z</time></trkpt><trkpt lat="43.21244161560337" lon="-3.9395540134301403"><ele>162.0</ele><time>2026-05-02T10:44:01.999Z</time></trkpt><trkpt lat="43.212363562597666" lon="-3.939409164467951"><ele>162.0</ele><time>2026-05-02T10:44:03.999Z</time></trkpt><trkpt lat="43.21234297830957" lon="-3.939302123172308"><ele>162.66666666666666</ele><time>2026-05-02T10:44:04.999Z</time></trkpt><trkpt lat="43.21229457384919" lon="-3.9392117671606455"><ele>163.33333333333334</ele><time>2026-05-02T10:44:05.999Z</time></trkpt><trkpt lat="43.21221898871088" lon="-3.9391468602623267"><ele>164.0</ele><time>2026-05-02T10:44:06.999Z</time></trkpt><trkpt lat="43.21213975241597" lon="-3.939097607948637"><ele>164.66666666666669</ele><time>2026-05-02T10:44:07.999Z</time></trkpt><trkpt lat="43.21205727722186" lon="-3.9390482820131534"><ele>165.33333333333334</ele><time>2026-05-02T10:44:08.999Z</time></trkpt><trkpt lat="43.211973028836276" lon="-3.9389986396642813"><ele>166.0</ele><time>2026-05-02T10:44:09.999Z</time></trkpt><trkpt lat="43.21189074013747" lon="-3.938946947433578"><ele>166.0</ele><time>2026-05-02T10:44:10.999Z</time></trkpt><trkpt lat="43.21180706695208" lon="-3.9388913378458708"><ele>166.0</ele><time>2026-05-02T10:44:11.999Z</time></trkpt><trkpt lat="43.21171781562396" lon="-3.938837639489687"><ele>166.0</ele><time>2026-05-02T10:44:12.999Z</time></trkpt><trkpt lat="43.21163211358579" lon="-3.938781080889255"><ele>166.0</ele><time>2026-05-02T10:44:13.999Z</time></trkpt><trkpt lat="43.211544486751336" lon="-3.9387195566411832"><ele>166.0</ele><time>2026-05-02T10:44:14.999Z</time></trkpt><trkpt lat="43.211456773030484" lon="-3.938658669350272"><ele>166.16666666666669</ele><time>2026-05-02T10:44:15.999Z</time></trkpt><trkpt lat="43.21137138166465" lon="-3.938604720948701"><ele>166.33333333333334</ele><time>2026-05-02T10:44:16.999Z</time></trkpt><trkpt lat="43.211291271098844" lon="-3.9385525448956504"><ele>166.5</ele><time>2026-05-02T10:44:17.999Z</time></trkpt><trkpt lat="43.21121440514092" lon="-3.9385042094231433"><ele>166.66666666666666</ele><time>2026-05-02T10:44:19Z</time></trkpt><trkpt lat="43.21113901601297" lon="-3.9384544876393246"><ele>166.83333333333331</ele><time>2026-05-02T10:44:20Z</time></trkpt><trkpt lat="43.211063109054024" lon="-3.938404806438283"><ele>167.0</ele><time>2026-05-02T10:44:21Z</time></trkpt><trkpt lat="43.21098213018586" lon="-3.9383550809026304"><ele>167.2</ele><time>2026-05-02T10:44:22Z</time></trkpt><trkpt lat="43.210897405141424" lon="-3.9383028039822925"><ele>167.39999999999998</ele><time>2026-05-02T10:44:23Z</time></trkpt><trkpt lat="43.210812522714434" lon="-3.9382483004242324"><ele>167.60000000000002</ele><time>2026-05-02T10:44:24Z</time></trkpt><trkpt lat="43.21072584155389" lon="-3.938190608175103"><ele>167.8</ele><time>2026-05-02T10:44:25Z</time></trkpt><trkpt lat="43.210635860923034" lon="-3.938133365453259"><ele>168.0</ele><time>2026-05-02T10:44:26Z</time></trkpt><trkpt lat="43.21054512214416" lon="-3.9380741578720615"><ele>168.0</ele><time>2026-05-02T10:44:27Z</time></trkpt><trkpt lat="43.21045009262934" lon="-3.938009271881623"><ele>168.0</ele><time>2026-05-02T10:44:28Z</time></trkpt><trkpt lat="43.21035399446122" lon="-3.9379481442182516"><ele>168.0</ele><time>2026-05-02T10:44:29Z</time></trkpt><trkpt lat="43.21025772701627" lon="-3.9378875067895547"><ele>168.0</ele><time>2026-05-02T10:44:30Z</time></trkpt><trkpt lat="43.21016355740495" lon="-3.9378267173367147"><ele>168.0</ele><time>2026-05-02T10:44:31Z</time></trkpt><trkpt lat="43.21006857673704" lon="-3.937755696191627"><ele>168.0</ele><time>2026-05-02T10:44:32Z</time></trkpt><trkpt lat="43.20996928041955" lon="-3.937691616204036"><ele>168.0</ele><time>2026-05-02T10:44:33Z</time></trkpt><trkpt lat="43.20986544926233" lon="-3.9376269931967425"><ele>168.0</ele><time>2026-05-02T10:44:34Z</time></trkpt><trkpt lat="43.20976661925268" lon="-3.937564141771783"><ele>168.0</ele><time>2026-05-02T10:44:35Z</time></trkpt><trkpt lat="43.209662793622854" lon="-3.9375022725062347"><ele>168.0</ele><time>2026-05-02T10:44:36Z</time></trkpt><trkpt lat="43.20955404328031" lon="-3.9374488354970447"><ele>167.0</ele><time>2026-05-02T10:44:37Z</time></trkpt><trkpt lat="43.20943840041712" lon="-3.9373890753307506"><ele>166.0</ele><time>2026-05-02T10:44:38Z</time></trkpt><trkpt lat="43.209316178895634" lon="-3.937319691633047"><ele>165.0</ele><time>2026-05-02T10:44:39Z</time></trkpt><trkpt lat="43.20918134756877" lon="-3.937253481988073"><ele>164.0</ele><time>2026-05-02T10:44:40Z</time></trkpt><trkpt lat="43.209083370559135" lon="-3.937120984054609"><ele>164.2</ele><time>2026-05-02T10:44:42Z</time></trkpt><trkpt lat="43.20898225283636" lon="-3.9370605785951267"><ele>164.39999999999998</ele><time>2026-05-02T10:44:43Z</time></trkpt><trkpt lat="43.208880136645185" lon="-3.9369956882524733"><ele>164.6</ele><time>2026-05-02T10:44:44Z</time></trkpt><trkpt lat="43.20878283554076" lon="-3.9369327252026696"><ele>164.8</ele><time>2026-05-02T10:44:45Z</time></trkpt><trkpt lat="43.20868970507654" lon="-3.9368606570192535"><ele>165.0</ele><time>2026-05-02T10:44:46Z</time></trkpt><trkpt lat="43.20859821554826" lon="-3.9367873376917575"><ele>164.4</ele><time>2026-05-02T10:44:47Z</time></trkpt><trkpt lat="43.20850935142636" lon="-3.936702967301036"><ele>163.8</ele><time>2026-05-02T10:44:48Z</time></trkpt><trkpt lat="43.208427378338214" lon="-3.9366105829780107"><ele>163.2</ele><time>2026-05-02T10:44:49Z</time></trkpt><trkpt lat="43.20835464717668" lon="-3.9365130699420443"><ele>162.6</ele><time>2026-05-02T10:44:50Z</time></trkpt><trkpt lat="43.20828258752602" lon="-3.9364157971641425"><ele>162.0</ele><time>2026-05-02T10:44:51Z</time></trkpt><trkpt lat="43.20821001679526" lon="-3.936311781002512"><ele>166.0</ele><time>2026-05-02T10:44:52Z</time></trkpt><trkpt lat="43.20814112784322" lon="-3.936218159807963"><ele>170.0</ele><time>2026-05-02T10:44:53Z</time></trkpt><trkpt lat="43.20807926600739" lon="-3.936118945346455"><ele>174.0</ele><time>2026-05-02T10:44:54Z</time></trkpt><trkpt lat="43.208015464997054" lon="-3.9360153168633305"><ele>178.0</ele><time>2026-05-02T10:44:55Z</time></trkpt><trkpt lat="43.20795588604639" lon="-3.9359029144329707"><ele>182.0</ele><time>2026-05-02T10:44:56Z</time></trkpt><trkpt lat="43.20790014879447" lon="-3.9357933604443907"><ele>182.0</ele><time>2026-05-02T10:44:57Z</time></trkpt><trkpt lat="43.20784211889493" lon="-3.9356831688947875"><ele>182.0</ele><time>2026-05-02T10:44:58Z</time></trkpt><trkpt lat="43.20778741084838" lon="-3.9355707878397137"><ele>182.0</ele><time>2026-05-02T10:44:59Z</time></trkpt><trkpt lat="43.207733475553376" lon="-3.9354531056309137"><ele>182.0</ele><time>2026-05-02T10:45:00Z</time></trkpt><trkpt lat="43.207676698264805" lon="-3.9353401255784615"><ele>182.0</ele><time>2026-05-02T10:45:01Z</time></trkpt><trkpt lat="43.20761830487234" lon="-3.9352289182001114"><ele>182.0</ele><time>2026-05-02T10:45:02Z</time></trkpt><trkpt lat="43.20755670501027" lon="-3.9351158293046287"><ele>182.0</ele><time>2026-05-02T10:45:03Z</time></trkpt><trkpt lat="43.207493344493415" lon="-3.9349888054369173"><ele>182.0</ele><time>2026-05-02T10:45:04Z</time></trkpt><trkpt lat="43.207428163193704" lon="-3.9348729453677564"><ele>182.0</ele><time>2026-05-02T10:45:05Z</time></trkpt><trkpt lat="43.20735991127696" lon="-3.934759621948462"><ele>182.0</ele><time>2026-05-02T10:45:06Z</time></trkpt><trkpt lat="43.207283886135095" lon="-3.9346595649791487"><ele>183.2</ele><time>2026-05-02T10:45:07Z</time></trkpt><trkpt lat="43.20720178221329" lon="-3.934559937297339"><ele>184.39999999999998</ele><time>2026-05-02T10:45:08Z</time></trkpt><trkpt lat="43.20711530050938" lon="-3.9344641398300237"><ele>185.60000000000002</ele><time>2026-05-02T10:45:09Z</time></trkpt><trkpt lat="43.207028432088656" lon="-3.9343726995690163"><ele>186.8</ele><time>2026-05-02T10:45:10Z</time></trkpt><trkpt lat="43.20693638256098" lon="-3.934282946886273"><ele>188.0</ele><time>2026-05-02T10:45:11Z</time></trkpt><trkpt lat="43.20684078958551" lon="-3.934203870565341"><ele>187.0</ele><time>2026-05-02T10:45:12Z</time></trkpt><trkpt lat="43.2067390675616" lon="-3.934175792638071"><ele>186.0</ele><time>2026-05-02T10:45:13Z</time></trkpt><trkpt lat="43.20663531098229" lon="-3.934091819499191"><ele>185.0</ele><time>2026-05-02T10:45:14Z</time></trkpt><trkpt lat="43.206530431436754" lon="-3.933990515810663"><ele>184.0</ele><time>2026-05-02T10:45:15Z</time></trkpt><trkpt lat="43.206468634279126" lon="-3.933863236823138"><ele>184.0</ele><time>2026-05-02T10:45:16Z</time></trkpt><trkpt lat="43.20639292190621" lon="-3.933725777086466"><ele>184.0</ele><time>2026-05-02T10:45:17Z</time></trkpt><trkpt lat="43.2063036962098" lon="-3.9336416110649806"><ele>184.0</ele><time>2026-05-02T10:45:18Z</time></trkpt><trkpt lat="43.20620239288511" lon="-3.9335866608675016"><ele>184.0</ele><time>2026-05-02T10:45:19Z</time></trkpt><trkpt lat="43.20611253233334" lon="-3.933497633134613"><ele>184.0</ele><time>2026-05-02T10:45:20Z</time></trkpt><trkpt lat="43.20602668825484" lon="-3.933406306883635"><ele>184.0</ele><time>2026-05-02T10:45:21Z</time></trkpt><trkpt lat="43.20593588001758" lon="-3.9333196115656626"><ele>184.0</ele><time>2026-05-02T10:45:22Z</time></trkpt><trkpt lat="43.20584059186827" lon="-3.933244434324571"><ele>184.0</ele><time>2026-05-02T10:45:23Z</time></trkpt><trkpt lat="43.205751714649516" lon="-3.933154006031102"><ele>184.0</ele><time>2026-05-02T10:45:24Z</time></trkpt><trkpt lat="43.20566538936473" lon="-3.9330656738707575"><ele>183.79999999999998</ele><time>2026-05-02T10:45:25Z</time></trkpt><trkpt lat="43.20557907095965" lon="-3.9329803381304975"><ele>183.6</ele><time>2026-05-02T10:45:26Z</time></trkpt><trkpt lat="43.20548892719831" lon="-3.9328981077445384"><ele>183.4</ele><time>2026-05-02T10:45:27Z</time></trkpt><trkpt lat="43.205399287167154" lon="-3.93281300377235"><ele>183.2</ele><time>2026-05-02T10:45:28Z</time></trkpt><trkpt lat="43.20531219657065" lon="-3.9327253058949116"><ele>183.0</ele><time>2026-05-02T10:45:29Z</time></trkpt><trkpt lat="43.20522555704713" lon="-3.9326343454219863"><ele>183.8</ele><time>2026-05-02T10:45:30Z</time></trkpt><trkpt lat="43.205136536461325" lon="-3.9325490573505233"><ele>184.60000000000002</ele><time>2026-05-02T10:45:31Z</time></trkpt><trkpt lat="43.205047393331306" lon="-3.932463098447078"><ele>185.39999999999998</ele><time>2026-05-02T10:45:32.001Z</time></trkpt><trkpt lat="43.20496576459716" lon="-3.932368422417933"><ele>186.2</ele><time>2026-05-02T10:45:33.001Z</time></trkpt><trkpt lat="43.20488208917304" lon="-3.932274058050039"><ele>187.0</ele><time>2026-05-02T10:45:34.001Z</time></trkpt><trkpt lat="43.20480313284115" lon="-3.9321716553283417"><ele>187.0</ele><time>2026-05-02T10:45:35.001Z</time></trkpt><trkpt lat="43.20472346576872" lon="-3.9320703850136973"><ele>187.0</ele><time>2026-05-02T10:45:36.001Z</time></trkpt><trkpt lat="43.20464786809094" lon="-3.931967898360474"><ele>187.0</ele><time>2026-05-02T10:45:37.001Z</time></trkpt><trkpt lat="43.204572080172206" lon="-3.9318644378603955"><ele>187.0</ele><time>2026-05-02T10:45:38.001Z</time></trkpt><trkpt lat="43.2044981552994" lon="-3.931759474256194"><ele>187.0</ele><time>2026-05-02T10:45:39.001Z</time></trkpt><trkpt lat="43.204424429614726" lon="-3.931652672816536"><ele>183.8</ele><time>2026-05-02T10:45:40.001Z</time></trkpt><trkpt lat="43.20435160411459" lon="-3.931547410459463"><ele>180.6</ele><time>2026-05-02T10:45:41.001Z</time></trkpt><trkpt lat="43.20427691624087" lon="-3.931447757161111"><ele>177.4</ele><time>2026-05-02T10:45:42.001Z</time></trkpt><trkpt lat="43.20420128960668" lon="-3.931341117809665"><ele>174.20000000000002</ele><time>2026-05-02T10:45:43.001Z</time></trkpt><trkpt lat="43.20412419987526" lon="-3.9312388162630603"><ele>171.0</ele><time>2026-05-02T10:45:44.001Z</time></trkpt><trkpt lat="43.20404428093822" lon="-3.931139468489254"><ele>171.0</ele><time>2026-05-02T10:45:45.001Z</time></trkpt><trkpt lat="43.203960825091414" lon="-3.9310450369014593"><ele>171.0</ele><time>2026-05-02T10:45:46.001Z</time></trkpt><trkpt lat="43.203873554046055" lon="-3.9309639883884184"><ele>171.0</ele><time>2026-05-02T10:45:47.001Z</time></trkpt><trkpt lat="43.20378151106117" lon="-3.9308692570942863"><ele>171.0</ele><time>2026-05-02T10:45:48.001Z</time></trkpt><trkpt lat="43.20368175268768" lon="-3.930807830192502"><ele>171.0</ele><time>2026-05-02T10:45:49.001Z</time></trkpt><trkpt lat="43.203588931533645" lon="-3.9307374871294622"><ele>171.0</ele><time>2026-05-02T10:45:50.001Z</time></trkpt><trkpt lat="43.20349420748048" lon="-3.930665835666017"><ele>171.0</ele><time>2026-05-02T10:45:51.001Z</time></trkpt><trkpt lat="43.20339632259275" lon="-3.9306074969162426"><ele>171.0</ele><time>2026-05-02T10:45:52.001Z</time></trkpt><trkpt lat="43.20329602652081" lon="-3.9305530595013276"><ele>171.0</ele><time>2026-05-02T10:45:53.001Z</time></trkpt><trkpt lat="43.203196469186146" lon="-3.9304932234031447"><ele>171.0</ele><time>2026-05-02T10:45:54.001Z</time></trkpt><trkpt lat="43.20310046161444" lon="-3.9304253589548037"><ele>174.60000000000002</ele><time>2026-05-02T10:45:55.001Z</time></trkpt><trkpt lat="43.20299646698378" lon="-3.9303626000224123"><ele>178.2</ele><time>2026-05-02T10:45:56.001Z</time></trkpt><trkpt lat="43.20290243584784" lon="-3.930301627244769"><ele>181.8</ele><time>2026-05-02T10:45:57.001Z</time></trkpt><trkpt lat="43.20280558396073" lon="-3.93023709648378"><ele>185.39999999999998</ele><time>2026-05-02T10:45:58.001Z</time></trkpt><trkpt lat="43.202712205137495" lon="-3.9301655621561866"><ele>189.0</ele><time>2026-05-02T10:45:59.001Z</time></trkpt><trkpt lat="43.202619876568995" lon="-3.930091820147237"><ele>188.39999999999998</ele><time>2026-05-02T10:46:00.001Z</time></trkpt><trkpt lat="43.20252897235005" lon="-3.9300095955304033"><ele>187.8</ele><time>2026-05-02T10:46:01.001Z</time></trkpt><trkpt lat="43.20243813811999" lon="-3.9299323429325552"><ele>187.2</ele><time>2026-05-02T10:46:02.001Z</time></trkpt><trkpt lat="43.20234796964335" lon="-3.9298552594327054"><ele>186.60000000000002</ele><time>2026-05-02T10:46:03.001Z</time></trkpt><trkpt lat="43.202257511029835" lon="-3.929772198622556"><ele>186.0</ele><time>2026-05-02T10:46:04.001Z</time></trkpt><trkpt lat="43.20216932403459" lon="-3.929688877907013"><ele>186.0</ele><time>2026-05-02T10:46:05.001Z</time></trkpt><trkpt lat="43.20208095300105" lon="-3.9296080585828532"><ele>186.0</ele><time>2026-05-02T10:46:06.001Z</time></trkpt><trkpt lat="43.20198860774393" lon="-3.929527295167613"><ele>186.0</ele><time>2026-05-02T10:46:06.999Z</time></trkpt><trkpt lat="43.20189980449775" lon="-3.9294466129093957"><ele>186.0</ele><time>2026-05-02T10:46:07.999Z</time></trkpt><trkpt lat="43.20181055620921" lon="-3.929366700435369"><ele>186.0</ele><time>2026-05-02T10:46:08.999Z</time></trkpt><trkpt lat="43.2017188334124" lon="-3.9292962409253755"><ele>186.0</ele><time>2026-05-02T10:46:09.999Z</time></trkpt><trkpt lat="43.20161883763944" lon="-3.9292480056523873"><ele>186.0</ele><time>2026-05-02T10:46:10.999Z</time></trkpt><trkpt lat="43.201508276752605" lon="-3.9292183157665286"><ele>186.0</ele><time>2026-05-02T10:46:11.999Z</time></trkpt><trkpt lat="43.20140507444143" lon="-3.9292103057707743"><ele>186.0</ele><time>2026-05-02T10:46:12.999Z</time></trkpt><trkpt lat="43.20129900166898" lon="-3.9291873660010848"><ele>186.0</ele><time>2026-05-02T10:46:13.999Z</time></trkpt><trkpt lat="43.201209402768164" lon="-3.929072141884802"><ele>185.8</ele><time>2026-05-02T10:46:14.999Z</time></trkpt><trkpt lat="43.201114706334444" lon="-3.928976524866775"><ele>185.60000000000002</ele><time>2026-05-02T10:46:15.999Z</time></trkpt><trkpt lat="43.20101637569275" lon="-3.928897831463265"><ele>185.4</ele><time>2026-05-02T10:46:16.999Z</time></trkpt><trkpt lat="43.20092344753998" lon="-3.9288482053465734"><ele>185.2</ele><time>2026-05-02T10:46:17.999Z</time></trkpt><trkpt lat="43.2008276362612" lon="-3.928783345624383"><ele>185.0</ele><time>2026-05-02T10:46:18.999Z</time></trkpt><trkpt lat="43.200732448256595" lon="-3.928721215379798"><ele>189.6</ele><time>2026-05-02T10:46:19.999Z</time></trkpt><trkpt lat="43.20064144613284" lon="-3.9286598974742346"><ele>194.2</ele><time>2026-05-02T10:46:20.999Z</time></trkpt><trkpt lat="43.20054784361384" lon="-3.9285933551263508"><ele>198.8</ele><time>2026-05-02T10:46:21.999Z</time></trkpt><trkpt lat="43.2004553626571" lon="-3.9285355583702852"><ele>203.4</ele><time>2026-05-02T10:46:22.999Z</time></trkpt><trkpt lat="43.20036655825759" lon="-3.9284730694841"><ele>208.0</ele><time>2026-05-02T10:46:23.999Z</time></trkpt><trkpt lat="43.20027765148772" lon="-3.928395874619801"><ele>203.2</ele><time>2026-05-02T10:46:24.999Z</time></trkpt><trkpt lat="43.20019592609516" lon="-3.928306837415092"><ele>198.4</ele><time>2026-05-02T10:46:26Z</time></trkpt><trkpt lat="43.20012397142" lon="-3.9282088800391417"><ele>193.6</ele><time>2026-05-02T10:46:27Z</time></trkpt><trkpt lat="43.200051836732236" lon="-3.9281060418685207"><ele>188.79999999999998</ele><time>2026-05-02T10:46:28Z</time></trkpt><trkpt lat="43.199985148132996" lon="-3.9279982566128044"><ele>184.0</ele><time>2026-05-02T10:46:29Z</time></trkpt><trkpt lat="43.19992226320083" lon="-3.927885486389134"><ele>184.0</ele><time>2026-05-02T10:46:30Z</time></trkpt><trkpt lat="43.199858318403244" lon="-3.9277733989567896"><ele>184.0</ele><time>2026-05-02T10:46:31Z</time></trkpt><trkpt lat="43.19979784362142" lon="-3.927654074628869"><ele>184.0</ele><time>2026-05-02T10:46:32Z</time></trkpt><trkpt lat="43.199739913123004" lon="-3.9275313361352415"><ele>184.0</ele><time>2026-05-02T10:46:33Z</time></trkpt><trkpt lat="43.199677453314685" lon="-3.927414162783567"><ele>184.0</ele><time>2026-05-02T10:46:34Z</time></trkpt><trkpt lat="43.19961655145965" lon="-3.927298614616321"><ele>182.2</ele><time>2026-05-02T10:46:35Z</time></trkpt><trkpt lat="43.19955351976475" lon="-3.9271878401169706"><ele>180.39999999999998</ele><time>2026-05-02T10:46:36Z</time></trkpt><trkpt lat="43.199491298784" lon="-3.927071113308398"><ele>178.6</ele><time>2026-05-02T10:46:37Z</time></trkpt><trkpt lat="43.19943035506971" lon="-3.9269567689507485"><ele>176.8</ele><time>2026-05-02T10:46:38Z</time></trkpt><trkpt lat="43.199371173818534" lon="-3.926840514809292"><ele>175.0</ele><time>2026-05-02T10:46:39Z</time></trkpt><trkpt lat="43.199317808612264" lon="-3.926719309550825"><ele>175.0</ele><time>2026-05-02T10:46:40Z</time></trkpt><trkpt lat="43.1992660717908" lon="-3.9265932286431955"><ele>175.0</ele><time>2026-05-02T10:46:41Z</time></trkpt><trkpt lat="43.19921792171949" lon="-3.926465684475181"><ele>175.0</ele><time>2026-05-02T10:46:42Z</time></trkpt><trkpt lat="43.19917011116265" lon="-3.926338311497362"><ele>175.0</ele><time>2026-05-02T10:46:43Z</time></trkpt><trkpt lat="43.19911885448653" lon="-3.9262163874834917"><ele>175.0</ele><time>2026-05-02T10:46:44Z</time></trkpt><trkpt lat="43.199065862775036" lon="-3.926092143987124"><ele>175.0</ele><time>2026-05-02T10:46:45Z</time></trkpt><trkpt lat="43.19900909197712" lon="-3.92597278706428"><ele>175.0</ele><time>2026-05-02T10:46:46Z</time></trkpt><trkpt lat="43.198946011916654" lon="-3.925863754385702"><ele>175.0</ele><time>2026-05-02T10:46:47Z</time></trkpt><trkpt lat="43.19888132100847" lon="-3.9257591643568666"><ele>175.0</ele><time>2026-05-02T10:46:48Z</time></trkpt><trkpt lat="43.19880532713738" lon="-3.925655163565434"><ele>175.0</ele><time>2026-05-02T10:46:49Z</time></trkpt><trkpt lat="43.19873645825465" lon="-3.925548448398272"><ele>175.0</ele><time>2026-05-02T10:46:50Z</time></trkpt><trkpt lat="43.19866519268234" lon="-3.9254436734169857"><ele>175.0</ele><time>2026-05-02T10:46:51Z</time></trkpt><trkpt lat="43.198593295084585" lon="-3.9253389042496756"><ele>175.0</ele><time>2026-05-02T10:46:52Z</time></trkpt><trkpt lat="43.19852332202417" lon="-3.925233637144946"><ele>175.0</ele><time>2026-05-02T10:46:53Z</time></trkpt><trkpt lat="43.19845536924506" lon="-3.9251304448689432"><ele>175.0</ele><time>2026-05-02T10:46:54Z</time></trkpt><trkpt lat="43.19838833585189" lon="-3.9250260367667855"><ele>175.0</ele><time>2026-05-02T10:46:55Z</time></trkpt><trkpt lat="43.19832100930181" lon="-3.9249243354005263"><ele>175.0</ele><time>2026-05-02T10:46:56Z</time></trkpt><trkpt lat="43.19825591812969" lon="-3.9248225287631113"><ele>175.0</ele><time>2026-05-02T10:46:57Z</time></trkpt><trkpt lat="43.198189862124075" lon="-3.9247163690557043"><ele>175.0</ele><time>2026-05-02T10:46:58Z</time></trkpt><trkpt lat="43.198128813709836" lon="-3.9246016521880316"><ele>175.0</ele><time>2026-05-02T10:46:59Z</time></trkpt><trkpt lat="43.1980693406195" lon="-3.924497020558567"><ele>175.66666666666669</ele><time>2026-05-02T10:47:00Z</time></trkpt><trkpt lat="43.19801375244638" lon="-3.9244001857341715"><ele>176.33333333333334</ele><time>2026-05-02T10:47:01Z</time></trkpt><trkpt lat="43.19795788351961" lon="-3.924306113730937"><ele>177.0</ele><time>2026-05-02T10:47:02Z</time></trkpt><trkpt lat="43.197910944188884" lon="-3.924212713891658"><ele>177.66666666666666</ele><time>2026-05-02T10:47:03Z</time></trkpt><trkpt lat="43.19784867944071" lon="-3.9241305716662667"><ele>178.33333333333331</ele><time>2026-05-02T10:47:04Z</time></trkpt><trkpt lat="43.197790215854305" lon="-3.9240503939735327"><ele>179.0</ele><time>2026-05-02T10:47:05Z</time></trkpt><trkpt lat="43.19772983785465" lon="-3.923968802185373"><ele>179.0</ele><time>2026-05-02T10:47:06Z</time></trkpt><trkpt lat="43.197670675943954" lon="-3.9238765666683393"><ele>179.0</ele><time>2026-05-02T10:47:07Z</time></trkpt><trkpt lat="43.19760290680872" lon="-3.923782262810659"><ele>179.0</ele><time>2026-05-02T10:47:08Z</time></trkpt><trkpt lat="43.197537845534725" lon="-3.923689786434013"><ele>179.0</ele><time>2026-05-02T10:47:09Z</time></trkpt><trkpt lat="43.197476423313525" lon="-3.9235921596802816"><ele>179.0</ele><time>2026-05-02T10:47:10Z</time></trkpt><trkpt lat="43.19741324620809" lon="-3.9234985086770138"><ele>179.0</ele><time>2026-05-02T10:47:11Z</time></trkpt><trkpt lat="43.19735046731768" lon="-3.923408056452601"><ele>179.0</ele><time>2026-05-02T10:47:12Z</time></trkpt><trkpt lat="43.197285846281666" lon="-3.923318272943157"><ele>179.0</ele><time>2026-05-02T10:47:13Z</time></trkpt><trkpt lat="43.197222012108874" lon="-3.9232217296495286"><ele>179.0</ele><time>2026-05-02T10:47:14Z</time></trkpt><trkpt lat="43.197157004432896" lon="-3.9231336080042194"><ele>179.0</ele><time>2026-05-02T10:47:15Z</time></trkpt><trkpt lat="43.19708651322109" lon="-3.9230310219222995"><ele>178.79999999999998</ele><time>2026-05-02T10:47:16Z</time></trkpt><trkpt lat="43.19701603615444" lon="-3.922964658533719"><ele>178.6</ele><time>2026-05-02T10:47:17Z</time></trkpt><trkpt lat="43.19694999952781" lon="-3.922872692203565"><ele>178.4</ele><time>2026-05-02T10:47:18Z</time></trkpt><trkpt lat="43.196883445054844" lon="-3.9227798619333893"><ele>178.2</ele><time>2026-05-02T10:47:19Z</time></trkpt><trkpt lat="43.1968287527619" lon="-3.9226744893471257"><ele>178.0</ele><time>2026-05-02T10:47:20Z</time></trkpt><trkpt lat="43.196753318686184" lon="-3.9225983639164745"><ele>177.8</ele><time>2026-05-02T10:47:21Z</time></trkpt><trkpt lat="43.19668608235765" lon="-3.922505317137722"><ele>177.60000000000002</ele><time>2026-05-02T10:47:22Z</time></trkpt><trkpt lat="43.196619357599545" lon="-3.922413766629062"><ele>177.39999999999998</ele><time>2026-05-02T10:47:23Z</time></trkpt><trkpt lat="43.19655983905677" lon="-3.9223149793960967"><ele>177.2</ele><time>2026-05-02T10:47:24Z</time></trkpt><trkpt lat="43.19649350002384" lon="-3.9222258537933645"><ele>177.0</ele><time>2026-05-02T10:47:25.001Z</time></trkpt><trkpt lat="43.19642885625323" lon="-3.9221391145991453"><ele>177.0</ele><time>2026-05-02T10:47:26.001Z</time></trkpt><trkpt lat="43.19636157968187" lon="-3.9220447920823447"><ele>177.0</ele><time>2026-05-02T10:47:27.001Z</time></trkpt><trkpt lat="43.19629639017914" lon="-3.921950298575956"><ele>177.0</ele><time>2026-05-02T10:47:28.001Z</time></trkpt><trkpt lat="43.196225470648805" lon="-3.921865537217575"><ele>177.0</ele><time>2026-05-02T10:47:29.001Z</time></trkpt><trkpt lat="43.19615793794055" lon="-3.921774199667126"><ele>177.0</ele><time>2026-05-02T10:47:30.001Z</time></trkpt><trkpt lat="43.196088027652884" lon="-3.9216858625390296"><ele>176.6</ele><time>2026-05-02T10:47:31.001Z</time></trkpt><trkpt lat="43.19601985034247" lon="-3.9215922193368384"><ele>176.2</ele><time>2026-05-02T10:47:32.001Z</time></trkpt><trkpt lat="43.195952150799044" lon="-3.9214938596572684"><ele>175.8</ele><time>2026-05-02T10:47:33.001Z</time></trkpt><trkpt lat="43.19588237178614" lon="-3.9213983475615075"><ele>175.4</ele><time>2026-05-02T10:47:34.001Z</time></trkpt><trkpt lat="43.195814484532875" lon="-3.9213018656289735"><ele>175.0</ele><time>2026-05-02T10:47:35.001Z</time></trkpt><trkpt lat="43.19574284652486" lon="-3.9212032957039376"><ele>175.0</ele><time>2026-05-02T10:47:36.001Z</time></trkpt><trkpt lat="43.195676151200686" lon="-3.9211045883869726"><ele>175.0</ele><time>2026-05-02T10:47:37.001Z</time></trkpt><trkpt lat="43.19560486199651" lon="-3.921000906444989"><ele>175.0</ele><time>2026-05-02T10:47:38.001Z</time></trkpt><trkpt lat="43.19554039108125" lon="-3.9208973571647365"><ele>175.0</ele><time>2026-05-02T10:47:39.001Z</time></trkpt><trkpt lat="43.19547124186255" lon="-3.9207972655508065"><ele>175.0</ele><time>2026-05-02T10:47:40.001Z</time></trkpt><trkpt lat="43.19539481780638" lon="-3.9206925562682917"><ele>176.2</ele><time>2026-05-02T10:47:41.001Z</time></trkpt><trkpt lat="43.1953203728044" lon="-3.920596333651733"><ele>177.4</ele><time>2026-05-02T10:47:42.001Z</time></trkpt><trkpt lat="43.19525079961144" lon="-3.920513686193778"><ele>178.60000000000002</ele><time>2026-05-02T10:47:43.001Z</time></trkpt><trkpt lat="43.19518620338192" lon="-3.920411046127579"><ele>179.8</ele><time>2026-05-02T10:47:44.001Z</time></trkpt><trkpt lat="43.1951119292234" lon="-3.9203140889569097"><ele>181.0</ele><time>2026-05-02T10:47:45.001Z</time></trkpt><trkpt lat="43.19503934565665" lon="-3.9202198952939553"><ele>181.0</ele><time>2026-05-02T10:47:46.001Z</time></trkpt><trkpt lat="43.19497008066388" lon="-3.920118818882358"><ele>181.0</ele><time>2026-05-02T10:47:47.001Z</time></trkpt><trkpt lat="43.19489505140461" lon="-3.9200264239817026"><ele>181.0</ele><time>2026-05-02T10:47:48.001Z</time></trkpt><trkpt lat="43.19482404342707" lon="-3.919921684656208"><ele>181.0</ele><time>2026-05-02T10:47:49.001Z</time></trkpt><trkpt lat="43.194753147375444" lon="-3.919820682864176"><ele>181.0</ele><time>2026-05-02T10:47:50.001Z</time></trkpt><trkpt lat="43.19468026369358" lon="-3.9197221311813526"><ele>180.8</ele><time>2026-05-02T10:47:51.001Z</time></trkpt><trkpt lat="43.194608864888885" lon="-3.919617986623604"><ele>180.60000000000002</ele><time>2026-05-02T10:47:52.001Z</time></trkpt><trkpt lat="43.19453775115228" lon="-3.91951532435469"><ele>180.4</ele><time>2026-05-02T10:47:53.001Z</time></trkpt><trkpt lat="43.194476964789956" lon="-3.9193977234855617"><ele>180.2</ele><time>2026-05-02T10:47:54.001Z</time></trkpt><trkpt lat="43.19442522153977" lon="-3.919273098483558"><ele>180.0</ele><time>2026-05-02T10:47:55.001Z</time></trkpt><trkpt lat="43.19436587129422" lon="-3.9191509320484013"><ele>180.0</ele><time>2026-05-02T10:47:56.001Z</time></trkpt><trkpt lat="43.19429213510094" lon="-3.9190395920354053"><ele>180.0</ele><time>2026-05-02T10:47:57.001Z</time></trkpt><trkpt lat="43.19421429160794" lon="-3.91894007844312"><ele>180.0</ele><time>2026-05-02T10:47:58.001Z</time></trkpt><trkpt lat="43.19413545137891" lon="-3.9188356412867176"><ele>180.0</ele><time>2026-05-02T10:47:59.001Z</time></trkpt><trkpt lat="43.194067417157875" lon="-3.9187314216875424"><ele>180.0</ele><time>2026-05-02T10:48:00.001Z</time></trkpt><trkpt lat="43.19400213386468" lon="-3.918628163861596"><ele>182.2</ele><time>2026-05-02T10:48:01.001Z</time></trkpt><trkpt lat="43.193938884949" lon="-3.9185200864767786"><ele>184.4</ele><time>2026-05-02T10:48:02.001Z</time></trkpt><trkpt lat="43.193890889744026" lon="-3.91839462498003"><ele>186.60000000000002</ele><time>2026-05-02T10:48:03.001Z</time></trkpt><trkpt lat="43.19384635896803" lon="-3.918265091286713"><ele>188.8</ele><time>2026-05-02T10:48:04.001Z</time></trkpt><trkpt lat="43.19380573144248" lon="-3.9181254191687724"><ele>191.0</ele><time>2026-05-02T10:48:05.001Z</time></trkpt><trkpt lat="43.193769648971454" lon="-3.9179944484317155"><ele>191.0</ele><time>2026-05-02T10:48:06.001Z</time></trkpt><trkpt lat="43.193726951578064" lon="-3.9178438605129453"><ele>191.0</ele><time>2026-05-02T10:48:07.001Z</time></trkpt><trkpt lat="43.19367201222327" lon="-3.9176961386658613"><ele>191.0</ele><time>2026-05-02T10:48:08.001Z</time></trkpt><trkpt lat="43.193594566192665" lon="-3.917513119473994"><ele>191.0</ele><time>2026-05-02T10:48:09.001Z</time></trkpt><trkpt lat="43.19357340448469" lon="-3.917424175950002"><ele>189.60000000000002</ele><time>2026-05-02T10:48:10.001Z</time></trkpt><trkpt lat="43.193528453147145" lon="-3.917300770021405"><ele>188.2</ele><time>2026-05-02T10:48:11.001Z</time></trkpt><trkpt lat="43.19347110107396" lon="-3.917170841551852"><ele>186.8</ele><time>2026-05-02T10:48:12.001Z</time></trkpt><trkpt lat="43.19340778672845" lon="-3.917048894370051"><ele>185.39999999999998</ele><time>2026-05-02T10:48:13Z</time></trkpt><trkpt lat="43.19331953345301" lon="-3.916951699862908"><ele>184.0</ele><time>2026-05-02T10:48:14Z</time></trkpt><trkpt lat="43.19324285840948" lon="-3.916844221223151"><ele>184.6</ele><time>2026-05-02T10:48:15Z</time></trkpt><trkpt lat="43.193167299150865" lon="-3.916738632284709"><ele>185.2</ele><time>2026-05-02T10:48:16Z</time></trkpt><trkpt lat="43.1930899155376" lon="-3.9166310249534426"><ele>185.79999999999998</ele><time>2026-05-02T10:48:17Z</time></trkpt><trkpt lat="43.19301044612918" lon="-3.9165229228488743"><ele>186.39999999999998</ele><time>2026-05-02T10:48:18Z</time></trkpt><trkpt lat="43.19293405777548" lon="-3.916414218712728"><ele>187.0</ele><time>2026-05-02T10:48:19Z</time></trkpt><trkpt lat="43.19285693807465" lon="-3.916310698407963"><ele>187.0</ele><time>2026-05-02T10:48:20Z</time></trkpt><trkpt lat="43.19277868530135" lon="-3.9162050020925463"><ele>187.0</ele><time>2026-05-02T10:48:21Z</time></trkpt><trkpt lat="43.192698434389825" lon="-3.916113225517221"><ele>187.0</ele><time>2026-05-02T10:48:22Z</time></trkpt><trkpt lat="43.19260941705525" lon="-3.9160328641886744"><ele>187.0</ele><time>2026-05-02T10:48:23Z</time></trkpt><trkpt lat="43.19251804435386" lon="-3.9159525421704116"><ele>187.0</ele><time>2026-05-02T10:48:24Z</time></trkpt><trkpt lat="43.19242451007715" lon="-3.915878318278541"><ele>186.6</ele><time>2026-05-02T10:48:25Z</time></trkpt><trkpt lat="43.19233452459317" lon="-3.915798180347691"><ele>186.2</ele><time>2026-05-02T10:48:26Z</time></trkpt><trkpt lat="43.19225516226169" lon="-3.915696247564389"><ele>185.8</ele><time>2026-05-02T10:48:27Z</time></trkpt><trkpt lat="43.192191737456675" lon="-3.9155777303607886"><ele>185.4</ele><time>2026-05-02T10:48:28Z</time></trkpt><trkpt lat="43.192123588720655" lon="-3.915460461777373"><ele>185.0</ele><time>2026-05-02T10:48:29Z</time></trkpt><trkpt lat="43.19205661340697" lon="-3.915340028699986"><ele>185.0</ele><time>2026-05-02T10:48:30Z</time></trkpt><trkpt lat="43.19198551762894" lon="-3.915228716635867"><ele>185.0</ele><time>2026-05-02T10:48:31Z</time></trkpt><trkpt lat="43.19190707063962" lon="-3.9151215355041193"><ele>185.0</ele><time>2026-05-02T10:48:32Z</time></trkpt><trkpt lat="43.191824839741734" lon="-3.9150622575863614"><ele>185.0</ele><time>2026-05-02T10:48:33Z</time></trkpt><trkpt lat="43.1917240925616" lon="-3.914948270488701"><ele>185.0</ele><time>2026-05-02T10:48:34Z</time></trkpt><trkpt lat="43.191632163460255" lon="-3.9148709275597264"><ele>184.0</ele><time>2026-05-02T10:48:35Z</time></trkpt><trkpt lat="43.19154190711119" lon="-3.9147950942245164"><ele>183.0</ele><time>2026-05-02T10:48:36Z</time></trkpt><trkpt lat="43.19144901550705" lon="-3.914714864489819"><ele>182.0</ele><time>2026-05-02T10:48:37Z</time></trkpt><trkpt lat="43.191359757282925" lon="-3.91463103963185"><ele>181.0</ele><time>2026-05-02T10:48:38Z</time></trkpt><trkpt lat="43.19128002050712" lon="-3.914543661181429"><ele>180.0</ele><time>2026-05-02T10:48:39Z</time></trkpt><trkpt lat="43.19120455754542" lon="-3.9144451295967224"><ele>183.2</ele><time>2026-05-02T10:48:40Z</time></trkpt><trkpt lat="43.1911440447145" lon="-3.9143335966362094"><ele>186.4</ele><time>2026-05-02T10:48:41Z</time></trkpt><trkpt lat="43.19109794371694" lon="-3.9142160389775293"><ele>189.60000000000002</ele><time>2026-05-02T10:48:42Z</time></trkpt><trkpt lat="43.1910649563126" lon="-3.914086608352344"><ele>192.8</ele><time>2026-05-02T10:48:43Z</time></trkpt><trkpt lat="43.1910310881804" lon="-3.9139669807806934"><ele>196.0</ele><time>2026-05-02T10:48:44Z</time></trkpt><trkpt lat="43.19099583829406" lon="-3.913855166521233"><ele>195.99999999999997</ele><time>2026-05-02T10:48:45Z</time></trkpt><trkpt lat="43.19095265555786" lon="-3.913748322066393"><ele>196.0</ele><time>2026-05-02T10:48:46Z</time></trkpt><trkpt lat="43.19090256150705" lon="-3.913645012579691"><ele>196.0</ele><time>2026-05-02T10:48:47Z</time></trkpt><trkpt lat="43.19085092279861" lon="-3.913546666474516"><ele>196.0</ele><time>2026-05-02T10:48:48Z</time></trkpt><trkpt lat="43.19079852585922" lon="-3.913455478251275"><ele>195.99999999999997</ele><time>2026-05-02T10:48:49Z</time></trkpt><trkpt lat="43.190739410100036" lon="-3.9133680362464234"><ele>196.0</ele><time>2026-05-02T10:48:50Z</time></trkpt><trkpt lat="43.19067824661376" lon="-3.913293760969274"><ele>195.99999999999997</ele><time>2026-05-02T10:48:51Z</time></trkpt><trkpt lat="43.19061151844739" lon="-3.913220901052885"><ele>196.0</ele><time>2026-05-02T10:48:52Z</time></trkpt><trkpt lat="43.19054146962643" lon="-3.913151953901832"><ele>196.0</ele><time>2026-05-02T10:48:53Z</time></trkpt><trkpt lat="43.190468401557446" lon="-3.9130887461942465"><ele>196.0</ele><time>2026-05-02T10:48:54Z</time></trkpt><trkpt lat="43.1903931053431" lon="-3.9130327916207985"><ele>195.99999999999997</ele><time>2026-05-02T10:48:55Z</time></trkpt><trkpt lat="43.19031314541596" lon="-3.9129836335320944"><ele>196.0</ele><time>2026-05-02T10:48:56Z</time></trkpt><trkpt lat="43.19023005648799" lon="-3.9129414269075684"><ele>196.0</ele><time>2026-05-02T10:48:57Z</time></trkpt><trkpt lat="43.1901393146911" lon="-3.9129040630055654"><ele>196.0</ele><time>2026-05-02T10:48:58Z</time></trkpt><trkpt lat="43.19004108100593" lon="-3.912875019286859"><ele>196.0</ele><time>2026-05-02T10:48:59Z</time></trkpt><trkpt lat="43.18993903625373" lon="-3.912857717742275"><ele>196.0</ele><time>2026-05-02T10:49:00Z</time></trkpt><trkpt lat="43.18982949094006" lon="-3.9128518229254747"><ele>196.0</ele><time>2026-05-02T10:49:01Z</time></trkpt><trkpt lat="43.18971483332907" lon="-3.9128525546364763"><ele>197.20000000000002</ele><time>2026-05-02T10:49:02Z</time></trkpt><trkpt lat="43.189603425877756" lon="-3.9128703635917446"><ele>198.4</ele><time>2026-05-02T10:49:03Z</time></trkpt><trkpt lat="43.189495146851435" lon="-3.912879363910525"><ele>199.6</ele><time>2026-05-02T10:49:04Z</time></trkpt><trkpt lat="43.189384989782404" lon="-3.9128984280075647"><ele>200.8</ele><time>2026-05-02T10:49:05Z</time></trkpt><trkpt lat="43.189272694159065" lon="-3.9129150313786987"><ele>202.0</ele><time>2026-05-02T10:49:06Z</time></trkpt><trkpt lat="43.189168049577376" lon="-3.9129315813675603"><ele>202.0</ele><time>2026-05-02T10:49:07Z</time></trkpt><trkpt lat="43.18906094763741" lon="-3.912944883283351"><ele>202.0</ele><time>2026-05-02T10:49:08Z</time></trkpt><trkpt lat="43.188962825869986" lon="-3.9129522775838907"><ele>202.0</ele><time>2026-05-02T10:49:09Z</time></trkpt><trkpt lat="43.18886176304581" lon="-3.9129441941171"><ele>202.0</ele><time>2026-05-02T10:49:10Z</time></trkpt><trkpt lat="43.18876055684164" lon="-3.9129232340912603"><ele>202.0</ele><time>2026-05-02T10:49:11Z</time></trkpt><trkpt lat="43.1886640996696" lon="-3.9128935090601256"><ele>203.2</ele><time>2026-05-02T10:49:12Z</time></trkpt><trkpt lat="43.18857003039128" lon="-3.9128606214402453"><ele>204.39999999999998</ele><time>2026-05-02T10:49:13.001Z</time></trkpt><trkpt lat="43.18847828548712" lon="-3.9128271324989248"><ele>205.60000000000002</ele><time>2026-05-02T10:49:14.001Z</time></trkpt><trkpt lat="43.18838713039213" lon="-3.9127933196699645"><ele>206.8</ele><time>2026-05-02T10:49:15.001Z</time></trkpt><trkpt lat="43.18829099526349" lon="-3.912754074605961"><ele>208.0</ele><time>2026-05-02T10:49:16.001Z</time></trkpt><trkpt lat="43.18819432876172" lon="-3.9127168388693923"><ele>208.8</ele><time>2026-05-02T10:49:17.001Z</time></trkpt><trkpt lat="43.188097896059936" lon="-3.912686254041784"><ele>209.60000000000002</ele><time>2026-05-02T10:49:18.001Z</time></trkpt><trkpt lat="43.18800070829042" lon="-3.912651616845949"><ele>210.39999999999998</ele><time>2026-05-02T10:49:19.001Z</time></trkpt><trkpt lat="43.187903891936415" lon="-3.9126158140513176"><ele>211.2</ele><time>2026-05-02T10:49:20.001Z</time></trkpt><trkpt lat="43.18780793116551" lon="-3.912581422483297"><ele>212.0</ele><time>2026-05-02T10:49:21.001Z</time></trkpt><trkpt lat="43.18771488772399" lon="-3.9125429082564644"><ele>210.8</ele><time>2026-05-02T10:49:22.001Z</time></trkpt><trkpt lat="43.18762021518973" lon="-3.91251724413304"><ele>209.6</ele><time>2026-05-02T10:49:23.001Z</time></trkpt><trkpt lat="43.18752797300362" lon="-3.9124914553519337"><ele>208.4</ele><time>2026-05-02T10:49:24.001Z</time></trkpt><trkpt lat="43.1874355509353" lon="-3.9124672814809465"><ele>207.20000000000002</ele><time>2026-05-02T10:49:25.001Z</time></trkpt><trkpt lat="43.18734833249434" lon="-3.9124523744969286"><ele>206.0</ele><time>2026-05-02T10:49:26.001Z</time></trkpt><trkpt lat="43.18725892505061" lon="-3.9124372044957605"><ele>206.0</ele><time>2026-05-02T10:49:27.001Z</time></trkpt><trkpt lat="43.18717049991548" lon="-3.9124329377821514"><ele>206.0</ele><time>2026-05-02T10:49:28.001Z</time></trkpt><trkpt lat="43.18708085685747" lon="-3.9124312153369902"><ele>206.0</ele><time>2026-05-02T10:49:29.001Z</time></trkpt><trkpt lat="43.18698992340812" lon="-3.912442774128531"><ele>206.0</ele><time>2026-05-02T10:49:30.001Z</time></trkpt><trkpt lat="43.18689699504417" lon="-3.912459609741996"><ele>206.0</ele><time>2026-05-02T10:49:31.001Z</time></trkpt><trkpt lat="43.186807178813325" lon="-3.9124829204534124"><ele>206.0</ele><time>2026-05-02T10:49:32.001Z</time></trkpt><trkpt lat="43.186711306746346" lon="-3.912504351795397"><ele>206.0</ele><time>2026-05-02T10:49:33.001Z</time></trkpt><trkpt lat="43.18661630082692" lon="-3.912521999616423"><ele>206.0</ele><time>2026-05-02T10:49:34.001Z</time></trkpt><trkpt lat="43.18651728852119" lon="-3.912538710926981"><ele>206.0</ele><time>2026-05-02T10:49:35.001Z</time></trkpt><trkpt lat="43.18642225512086" lon="-3.912555575962358"><ele>206.0</ele><time>2026-05-02T10:49:36.001Z</time></trkpt><trkpt lat="43.186325744713386" lon="-3.912564020044802"><ele>207.60000000000002</ele><time>2026-05-02T10:49:37.001Z</time></trkpt><trkpt lat="43.18623001682077" lon="-3.91255190942642"><ele>209.2</ele><time>2026-05-02T10:49:38.001Z</time></trkpt><trkpt lat="43.186133402840184" lon="-3.9125229816341225"><ele>210.79999999999998</ele><time>2026-05-02T10:49:39.001Z</time></trkpt><trkpt lat="43.186042442128695" lon="-3.9124907442740615"><ele>212.39999999999998</ele><time>2026-05-02T10:49:40.001Z</time></trkpt><trkpt lat="43.18595288721841" lon="-3.9124367895254912"><ele>214.0</ele><time>2026-05-02T10:49:41.001Z</time></trkpt><trkpt lat="43.185864469391284" lon="-3.9123689984066905"><ele>214.0</ele><time>2026-05-02T10:49:42.001Z</time></trkpt><trkpt lat="43.185780633266255" lon="-3.912290019887869"><ele>213.99999999999997</ele><time>2026-05-02T10:49:43.001Z</time></trkpt><trkpt lat="43.18570042087113" lon="-3.9121974257366885"><ele>213.99999999999997</ele><time>2026-05-02T10:49:44.001Z</time></trkpt><trkpt lat="43.18562301357552" lon="-3.9120963456105216"><ele>214.0</ele><time>2026-05-02T10:49:45.001Z</time></trkpt><trkpt lat="43.1855442149128" lon="-3.9120014318933323"><ele>214.0</ele><time>2026-05-02T10:49:46.001Z</time></trkpt><trkpt lat="43.18546691433509" lon="-3.911903853518969"><ele>215.79999999999998</ele><time>2026-05-02T10:49:47.001Z</time></trkpt><trkpt lat="43.18539392654215" lon="-3.911803961248551"><ele>217.59999999999997</ele><time>2026-05-02T10:49:48.001Z</time></trkpt><trkpt lat="43.18532336407986" lon="-3.9117002877717475"><ele>219.4</ele><time>2026-05-02T10:49:49.001Z</time></trkpt><trkpt lat="43.18525221704991" lon="-3.911601646350961"><ele>221.2</ele><time>2026-05-02T10:49:50.001Z</time></trkpt><trkpt lat="43.18518498512314" lon="-3.9115091290105"><ele>223.0</ele><time>2026-05-02T10:49:51.001Z</time></trkpt><trkpt lat="43.185120779786985" lon="-3.9114207188895946"><ele>222.99999999999997</ele><time>2026-05-02T10:49:52.001Z</time></trkpt><trkpt lat="43.1850553206093" lon="-3.911332392138047"><ele>223.0</ele><time>2026-05-02T10:49:53.001Z</time></trkpt><trkpt lat="43.18498782420786" lon="-3.911254510398207"><ele>223.0</ele><time>2026-05-02T10:49:54.001Z</time></trkpt><trkpt lat="43.184925289863195" lon="-3.9111746390557554"><ele>223.0</ele><time>2026-05-02T10:49:55.001Z</time></trkpt><trkpt lat="43.18486130551968" lon="-3.9110977391754123"><ele>222.99999999999997</ele><time>2026-05-02T10:49:56.001Z</time></trkpt><trkpt lat="43.18479656632894" lon="-3.9110228034093444"><ele>223.0</ele><time>2026-05-02T10:49:57.001Z</time></trkpt><trkpt lat="43.184724664186994" lon="-3.910957140777367"><ele>223.4</ele><time>2026-05-02T10:49:58.001Z</time></trkpt><trkpt lat="43.18465233683043" lon="-3.910889885278228"><ele>223.8</ele><time>2026-05-02T10:49:59.001Z</time></trkpt><trkpt lat="43.18457640911709" lon="-3.910820564828362"><ele>224.2</ele><time>2026-05-02T10:50:00.001Z</time></trkpt><trkpt lat="43.1844910847461" lon="-3.9107601649151182"><ele>224.6</ele><time>2026-05-02T10:50:01.001Z</time></trkpt><trkpt lat="43.18440399512519" lon="-3.9107068109416856"><ele>225.0</ele><time>2026-05-02T10:50:02.001Z</time></trkpt><trkpt lat="43.18431069374264" lon="-3.9106546483017417"><ele>225.0</ele><time>2026-05-02T10:50:03.001Z</time></trkpt><trkpt lat="43.18421252295197" lon="-3.910607743400261"><ele>225.0</ele><time>2026-05-02T10:50:04.001Z</time></trkpt><trkpt lat="43.1841059693042" lon="-3.91057236507939"><ele>225.0</ele><time>2026-05-02T10:50:05.001Z</time></trkpt><trkpt lat="43.18400057475239" lon="-3.910543296066788"><ele>225.0</ele><time>2026-05-02T10:50:06.001Z</time></trkpt><trkpt lat="43.18389154437848" lon="-3.9105216618600993"><ele>225.0</ele><time>2026-05-02T10:50:07.001Z</time></trkpt><trkpt lat="43.1837663676946" lon="-3.9104979951756014"><ele>225.75</ele><time>2026-05-02T10:50:08.001Z</time></trkpt><trkpt lat="43.18361143246706" lon="-3.91051330500264"><ele>226.5</ele><time>2026-05-02T10:50:09.001Z</time></trkpt><trkpt lat="43.18347354456224" lon="-3.910514704396696"><ele>227.25</ele><time>2026-05-02T10:50:10.001Z</time></trkpt><trkpt lat="43.183343327923176" lon="-3.9105252031101454"><ele>228.0</ele><time>2026-05-02T10:50:12.001Z</time></trkpt><trkpt lat="43.18326181241097" lon="-3.910531482041576"><ele>227.0</ele><time>2026-05-02T10:50:13.001Z</time></trkpt><trkpt lat="43.183170303442694" lon="-3.9105420770894823"><ele>226.0</ele><time>2026-05-02T10:50:14.001Z</time></trkpt><trkpt lat="43.1829929903312" lon="-3.9105211237279147"><ele>225.0</ele><time>2026-05-02T10:50:15.001Z</time></trkpt><trkpt lat="43.1828799032337" lon="-3.9105043811016844"><ele>224.0</ele><time>2026-05-02T10:50:16.001Z</time></trkpt><trkpt lat="43.182769737735725" lon="-3.910498869626499"><ele>224.00000000000003</ele><time>2026-05-02T10:50:17.001Z</time></trkpt><trkpt lat="43.18265811924592" lon="-3.9104834741635024"><ele>224.0</ele><time>2026-05-02T10:50:18.001Z</time></trkpt><trkpt lat="43.182557490857384" lon="-3.910473724939439"><ele>224.0</ele><time>2026-05-02T10:50:19Z</time></trkpt><trkpt lat="43.182481345591796" lon="-3.910479993844788"><ele>224.0</ele><time>2026-05-02T10:50:20Z</time></trkpt><trkpt lat="43.18240838587824" lon="-3.9104696354386745"><ele>224.00000000000003</ele><time>2026-05-02T10:50:21Z</time></trkpt><trkpt lat="43.182376268240446" lon="-3.910394166957933"><ele>224.0</ele><time>2026-05-02T10:50:22Z</time></trkpt><trkpt lat="43.182320390232896" lon="-3.910342443339595"><ele>228.66666666666669</ele><time>2026-05-02T10:50:23Z</time></trkpt><trkpt lat="43.18221889539728" lon="-3.910297967572341"><ele>233.33333333333331</ele><time>2026-05-02T10:50:24Z</time></trkpt><trkpt lat="43.18197221146553" lon="-3.9102108434260514"><ele>238.0</ele><time>2026-05-02T10:50:25Z</time></trkpt><trkpt lat="43.18181006099983" lon="-3.9101581306912316"><ele>238.0</ele><time>2026-05-02T10:50:26Z</time></trkpt><trkpt lat="43.18167749554482" lon="-3.9101015044965544"><ele>238.0</ele><time>2026-05-02T10:50:27Z</time></trkpt><trkpt lat="43.181612369554465" lon="-3.910035138220644"><ele>238.0</ele><time>2026-05-02T10:50:28Z</time></trkpt><trkpt lat="43.1815148043189" lon="-3.9099702088446975"><ele>238.0</ele><time>2026-05-02T10:50:29Z</time></trkpt><trkpt lat="43.18140936780383" lon="-3.9099011407474697"><ele>238.0</ele><time>2026-05-02T10:50:30Z</time></trkpt><trkpt lat="43.18130496774456" lon="-3.909831164389097"><ele>237.0</ele><time>2026-05-02T10:50:31Z</time></trkpt><trkpt lat="43.18120114756522" lon="-3.909762627396929"><ele>236.0</ele><time>2026-05-02T10:50:32Z</time></trkpt><trkpt lat="43.18109897530117" lon="-3.9096939025594417"><ele>235.0</ele><time>2026-05-02T10:50:33Z</time></trkpt><trkpt lat="43.18099874897273" lon="-3.909623199753002"><ele>234.0</ele><time>2026-05-02T10:50:34Z</time></trkpt><trkpt lat="43.18089896532814" lon="-3.909552540882203"><ele>234.0</ele><time>2026-05-02T10:50:35Z</time></trkpt><trkpt lat="43.18080105999338" lon="-3.9094777119113178"><ele>234.0</ele><time>2026-05-02T10:50:36Z</time></trkpt><trkpt lat="43.18070754761072" lon="-3.9093870011483887"><ele>234.0</ele><time>2026-05-02T10:50:37Z</time></trkpt><trkpt lat="43.18061935051625" lon="-3.90928310466908"><ele>234.0</ele><time>2026-05-02T10:50:38Z</time></trkpt><trkpt lat="43.18053451735784" lon="-3.909183577732993"><ele>234.5</ele><time>2026-05-02T10:50:39Z</time></trkpt><trkpt lat="43.18044867639197" lon="-3.909077195179376"><ele>235.0</ele><time>2026-05-02T10:50:40Z</time></trkpt><trkpt lat="43.1803646173512" lon="-3.9089701337066294"><ele>235.5</ele><time>2026-05-02T10:50:41Z</time></trkpt><trkpt lat="43.18028019284173" lon="-3.9088618012835235"><ele>236.0</ele><time>2026-05-02T10:50:42Z</time></trkpt><trkpt lat="43.18019584652265" lon="-3.9087551895797943"><ele>236.0</ele><time>2026-05-02T10:50:43Z</time></trkpt><trkpt lat="43.18011527704128" lon="-3.9086468076334326"><ele>236.00000000000003</ele><time>2026-05-02T10:50:44Z</time></trkpt><trkpt lat="43.180036933936805" lon="-3.908539449923414"><ele>236.00000000000003</ele><time>2026-05-02T10:50:45Z</time></trkpt><trkpt lat="43.17995717697342" lon="-3.9084351026068456"><ele>236.0</ele><time>2026-05-02T10:50:46Z</time></trkpt><trkpt lat="43.17987917016929" lon="-3.908331267543895"><ele>236.0</ele><time>2026-05-02T10:50:47Z</time></trkpt><trkpt lat="43.179803905877776" lon="-3.9082260542301004"><ele>236.60000000000002</ele><time>2026-05-02T10:50:48Z</time></trkpt><trkpt lat="43.17974008602038" lon="-3.9081257478942795"><ele>237.20000000000002</ele><time>2026-05-02T10:50:49Z</time></trkpt><trkpt lat="43.1796971010346" lon="-3.908028064621199"><ele>237.79999999999998</ele><time>2026-05-02T10:50:50Z</time></trkpt><trkpt lat="43.179641386569536" lon="-3.907974272753926"><ele>238.39999999999998</ele><time>2026-05-02T10:50:51Z</time></trkpt><trkpt lat="43.17953607409695" lon="-3.9078519528428903"><ele>239.0</ele><time>2026-05-02T10:50:53Z</time></trkpt><trkpt lat="43.1794807171936" lon="-3.907788218683581"><ele>239.0</ele><time>2026-05-02T10:50:54Z</time></trkpt><trkpt lat="43.1794131518251" lon="-3.9077103144515113"><ele>239.0</ele><time>2026-05-02T10:50:55Z</time></trkpt><trkpt lat="43.17931251993187" lon="-3.907581314534834"><ele>239.0</ele><time>2026-05-02T10:50:56Z</time></trkpt><trkpt lat="43.17909714814224" lon="-3.907363803429761"><ele>239.0</ele><time>2026-05-02T10:50:57Z</time></trkpt><trkpt lat="43.17901747641071" lon="-3.907270177746821"><ele>238.99999999999997</ele><time>2026-05-02T10:50:58Z</time></trkpt><trkpt lat="43.17893752218859" lon="-3.907177840982423"><ele>238.99999999999997</ele><time>2026-05-02T10:50:59Z</time></trkpt><trkpt lat="43.17885476269378" lon="-3.9070911556764396"><ele>239.0</ele><time>2026-05-02T10:51:00Z</time></trkpt><trkpt lat="43.17877363514828" lon="-3.9070008105140386"><ele>239.0</ele><time>2026-05-02T10:51:01Z</time></trkpt><trkpt lat="43.17868973010666" lon="-3.9069127947213986"><ele>239.0</ele><time>2026-05-02T10:51:02Z</time></trkpt><trkpt lat="43.17860267659165" lon="-3.906823960427098"><ele>238.99999999999997</ele><time>2026-05-02T10:51:03.001Z</time></trkpt><trkpt lat="43.17851814469148" lon="-3.9067304225676387"><ele>238.99999999999997</ele><time>2026-05-02T10:51:04.001Z</time></trkpt><trkpt lat="43.17843447562785" lon="-3.9066391162458434"><ele>239.0</ele><time>2026-05-02T10:51:05.001Z</time></trkpt><trkpt lat="43.17835216070714" lon="-3.9065457554586325"><ele>239.0</ele><time>2026-05-02T10:51:06.001Z</time></trkpt><trkpt lat="43.17826731329351" lon="-3.906453061444412"><ele>239.2</ele><time>2026-05-02T10:51:07.001Z</time></trkpt><trkpt lat="43.178182544336394" lon="-3.906367349216709"><ele>239.39999999999998</ele><time>2026-05-02T10:51:08.001Z</time></trkpt><trkpt lat="43.17809591467702" lon="-3.9062790743631246"><ele>239.6</ele><time>2026-05-02T10:51:09.001Z</time></trkpt><trkpt lat="43.17801167062306" lon="-3.9061817171692135"><ele>239.8</ele><time>2026-05-02T10:51:10.001Z</time></trkpt><trkpt lat="43.177927107005345" lon="-3.9060890408640168"><ele>240.0</ele><time>2026-05-02T10:51:11.001Z</time></trkpt><trkpt lat="43.17784224325717" lon="-3.905993434574018"><ele>234.8</ele><time>2026-05-02T10:51:12.001Z</time></trkpt><trkpt lat="43.17775336943316" lon="-3.9059052936752154"><ele>229.6</ele><time>2026-05-02T10:51:13.001Z</time></trkpt><trkpt lat="43.177669389925" lon="-3.9058119145551937"><ele>224.39999999999998</ele><time>2026-05-02T10:51:14.001Z</time></trkpt><trkpt lat="43.17758391359593" lon="-3.9057206127363457"><ele>219.2</ele><time>2026-05-02T10:51:15.001Z</time></trkpt><trkpt lat="43.17749857124853" lon="-3.9056269079188275"><ele>214.0</ele><time>2026-05-02T10:51:16.001Z</time></trkpt><trkpt lat="43.177410812133445" lon="-3.9055347597692007"><ele>222.5</ele><time>2026-05-02T10:51:17.001Z</time></trkpt><trkpt lat="43.17732166571288" lon="-3.9054423798043"><ele>231.0</ele><time>2026-05-02T10:51:18.001Z</time></trkpt><trkpt lat="43.177232504622985" lon="-3.9053466496082794"><ele>239.5</ele><time>2026-05-02T10:51:19.001Z</time></trkpt><trkpt lat="43.17714102774203" lon="-3.9052507843364777"><ele>248.0</ele><time>2026-05-02T10:51:20.001Z</time></trkpt><trkpt lat="43.17705356528646" lon="-3.905158596525447"><ele>240.60000000000002</ele><time>2026-05-02T10:51:21.001Z</time></trkpt><trkpt lat="43.17696564868765" lon="-3.905063320554471"><ele>233.20000000000002</ele><time>2026-05-02T10:51:22.001Z</time></trkpt><trkpt lat="43.17687880002596" lon="-3.904969367674612"><ele>225.8</ele><time>2026-05-02T10:51:23.001Z</time></trkpt><trkpt lat="43.176795248001774" lon="-3.9048751625476332"><ele>218.4</ele><time>2026-05-02T10:51:24.001Z</time></trkpt><trkpt lat="43.17670795162748" lon="-3.904775033846891"><ele>211.0</ele><time>2026-05-02T10:51:25.001Z</time></trkpt><trkpt lat="43.17662090719647" lon="-3.904681140292556"><ele>211.0</ele><time>2026-05-02T10:51:26.001Z</time></trkpt><trkpt lat="43.176535634834174" lon="-3.9045836388191355"><ele>211.0</ele><time>2026-05-02T10:51:27.001Z</time></trkpt><trkpt lat="43.1764517054078" lon="-3.9044912572659767"><ele>211.0</ele><time>2026-05-02T10:51:28.001Z</time></trkpt><trkpt lat="43.17636694485437" lon="-3.9043951335025553"><ele>211.0</ele><time>2026-05-02T10:51:29.001Z</time></trkpt><trkpt lat="43.17628120830694" lon="-3.9043065455494026"><ele>211.0</ele><time>2026-05-02T10:51:30.001Z</time></trkpt><trkpt lat="43.17619411491752" lon="-3.904215657941844"><ele>210.8</ele><time>2026-05-02T10:51:31.001Z</time></trkpt><trkpt lat="43.17611076274823" lon="-3.9041228600210025"><ele>210.60000000000002</ele><time>2026-05-02T10:51:32.001Z</time></trkpt><trkpt lat="43.176025521522604" lon="-3.9040324260312245"><ele>210.4</ele><time>2026-05-02T10:51:33.001Z</time></trkpt><trkpt lat="43.17593984798207" lon="-3.903938125178341"><ele>210.2</ele><time>2026-05-02T10:51:34.001Z</time></trkpt><trkpt lat="43.17585403098483" lon="-3.9038430932278527"><ele>210.0</ele><time>2026-05-02T10:51:35.001Z</time></trkpt><trkpt lat="43.17577566947813" lon="-3.9037324455926505"><ele>210.0</ele><time>2026-05-02T10:51:36.001Z</time></trkpt><trkpt lat="43.17568885383517" lon="-3.903632455572319"><ele>210.0</ele><time>2026-05-02T10:51:37.001Z</time></trkpt><trkpt lat="43.17560454303164" lon="-3.903534157787388"><ele>210.0</ele><time>2026-05-02T10:51:38.001Z</time></trkpt><trkpt lat="43.175515395299584" lon="-3.903443494036376"><ele>210.0</ele><time>2026-05-02T10:51:39.001Z</time></trkpt><trkpt lat="43.17542799523224" lon="-3.9033477800652134"><ele>210.0</ele><time>2026-05-02T10:51:40.001Z</time></trkpt><trkpt lat="43.175343377345904" lon="-3.9032491599480212"><ele>209.25</ele><time>2026-05-02T10:51:41.001Z</time></trkpt><trkpt lat="43.175247103607475" lon="-3.9031722138255787"><ele>208.5</ele><time>2026-05-02T10:51:42.001Z</time></trkpt><trkpt lat="43.175119841188085" lon="-3.903080294718601"><ele>207.75</ele><time>2026-05-02T10:51:43.001Z</time></trkpt><trkpt lat="43.174983200403524" lon="-3.902986025709222"><ele>207.0</ele><time>2026-05-02T10:51:44.001Z</time></trkpt><trkpt lat="43.174903730190074" lon="-3.9028933631872578"><ele>212.2</ele><time>2026-05-02T10:51:45.001Z</time></trkpt><trkpt lat="43.174830923026015" lon="-3.9027931271514253"><ele>217.39999999999998</ele><time>2026-05-02T10:51:46.001Z</time></trkpt><trkpt lat="43.17481500667305" lon="-3.9027003228079007"><ele>222.60000000000002</ele><time>2026-05-02T10:51:47.001Z</time></trkpt><trkpt lat="43.174759637076114" lon="-3.90263157910976"><ele>227.8</ele><time>2026-05-02T10:51:48.001Z</time></trkpt><trkpt lat="43.17466322280282" lon="-3.9025164776409795"><ele>233.0</ele><time>2026-05-02T10:51:49.001Z</time></trkpt><trkpt lat="43.17457831122194" lon="-3.9024367428074145"><ele>233.0</ele><time>2026-05-02T10:51:50.001Z</time></trkpt><trkpt lat="43.17449153395146" lon="-3.902424716915966"><ele>233.0</ele><time>2026-05-02T10:51:51.001Z</time></trkpt><trkpt lat="43.17438471106697" lon="-3.90232672316124"><ele>233.0</ele><time>2026-05-02T10:51:54.001Z</time></trkpt><trkpt lat="43.17404484630242" lon="-3.9018725719952005"><ele>235.0</ele><time>2026-05-02T10:51:56.001Z</time></trkpt><trkpt lat="43.17395769467635" lon="-3.901778546108097"><ele>237.0</ele><time>2026-05-02T10:51:57.001Z</time></trkpt><trkpt lat="43.1738710284297" lon="-3.9016886427018687"><ele>239.0</ele><time>2026-05-02T10:51:58.001Z</time></trkpt><trkpt lat="43.17378431388173" lon="-3.9015947813575473"><ele>241.0</ele><time>2026-05-02T10:51:59.001Z</time></trkpt><trkpt lat="43.17369953902953" lon="-3.9015046716327113"><ele>243.0</ele><time>2026-05-02T10:52:00.001Z</time></trkpt><trkpt lat="43.173613850894654" lon="-3.9014144203206484"><ele>243.0</ele><time>2026-05-02T10:52:01.001Z</time></trkpt><trkpt lat="43.17352865229325" lon="-3.9013239582357775"><ele>243.0</ele><time>2026-05-02T10:52:02.001Z</time></trkpt><trkpt lat="43.17344451470143" lon="-3.9012318577444196"><ele>243.0</ele><time>2026-05-02T10:52:03.001Z</time></trkpt><trkpt lat="43.173360469367196" lon="-3.9011433344045616"><ele>243.0</ele><time>2026-05-02T10:52:04.001Z</time></trkpt><trkpt lat="43.17327997992949" lon="-3.9010566502354798"><ele>243.0</ele><time>2026-05-02T10:52:05.001Z</time></trkpt><trkpt lat="43.17319499516456" lon="-3.900975249759533"><ele>239.4</ele><time>2026-05-02T10:52:06.001Z</time></trkpt><trkpt lat="43.17310651466583" lon="-3.900890406176601"><ele>235.8</ele><time>2026-05-02T10:52:07.001Z</time></trkpt><trkpt lat="43.17302231165559" lon="-3.9008089912294572"><ele>232.2</ele><time>2026-05-02T10:52:08.001Z</time></trkpt><trkpt lat="43.17293642013042" lon="-3.9007335338690647"><ele>228.6</ele><time>2026-05-02T10:52:09.001Z</time></trkpt><trkpt lat="43.17284241293231" lon="-3.90067201124035"><ele>225.0</ele><time>2026-05-02T10:52:10.001Z</time></trkpt><trkpt lat="43.17275167206784" lon="-3.9006220187205387"><ele>225.0</ele><time>2026-05-02T10:52:11.001Z</time></trkpt><trkpt lat="43.172656652514604" lon="-3.9005839727254084"><ele>225.0</ele><time>2026-05-02T10:52:12.001Z</time></trkpt><trkpt lat="43.17255803624783" lon="-3.9005589429848073"><ele>225.0</ele><time>2026-05-02T10:52:13.001Z</time></trkpt><trkpt lat="43.1724619710635" lon="-3.900549361044638"><ele>225.0</ele><time>2026-05-02T10:52:14.002Z</time></trkpt><trkpt lat="43.172364590738894" lon="-3.9005552642497956"><ele>225.0</ele><time>2026-05-02T10:52:15.002Z</time></trkpt><trkpt lat="43.17226548812903" lon="-3.900558387355257"><ele>224.4</ele><time>2026-05-02T10:52:16.002Z</time></trkpt><trkpt lat="43.17216966445282" lon="-3.9005655465721345"><ele>223.8</ele><time>2026-05-02T10:52:17.002Z</time></trkpt><trkpt lat="43.1720856272884" lon="-3.9005950342553595"><ele>223.2</ele><time>2026-05-02T10:52:18.002Z</time></trkpt><trkpt lat="43.17199160156245" lon="-3.9006043736737004"><ele>222.6</ele><time>2026-05-02T10:52:19.002Z</time></trkpt><trkpt lat="43.17189760733268" lon="-3.9006039133020667"><ele>222.0</ele><time>2026-05-02T10:52:20.002Z</time></trkpt><trkpt lat="43.1718038301926" lon="-3.900607879090897"><ele>222.0</ele><time>2026-05-02T10:52:21.002Z</time></trkpt><trkpt lat="43.1717109023688" lon="-3.900592065324038"><ele>222.0</ele><time>2026-05-02T10:52:22.002Z</time></trkpt><trkpt lat="43.17161780748807" lon="-3.900564412362128"><ele>222.0</ele><time>2026-05-02T10:52:23.002Z</time></trkpt><trkpt lat="43.17152439137243" lon="-3.900520904352113"><ele>222.0</ele><time>2026-05-02T10:52:24.002Z</time></trkpt><trkpt lat="43.17143444528687" lon="-3.9004612828294323"><ele>222.0</ele><time>2026-05-02T10:52:25Z</time></trkpt><trkpt lat="43.17134799595712" lon="-3.9003856920122852"><ele>222.0</ele><time>2026-05-02T10:52:26Z</time></trkpt><trkpt lat="43.17126322017476" lon="-3.900304388369408"><ele>222.0</ele><time>2026-05-02T10:52:27Z</time></trkpt><trkpt lat="43.1711835815611" lon="-3.900211604082125"><ele>222.0</ele><time>2026-05-02T10:52:28Z</time></trkpt><trkpt lat="43.17110611905362" lon="-3.900105140574055"><ele>222.0</ele><time>2026-05-02T10:52:29Z</time></trkpt><trkpt lat="43.17103512641387" lon="-3.899993897867329"><ele>222.0</ele><time>2026-05-02T10:52:30Z</time></trkpt><trkpt lat="43.17096128559802" lon="-3.899895603516122"><ele>222.0</ele><time>2026-05-02T10:52:31Z</time></trkpt><trkpt lat="43.17088722462246" lon="-3.899797435886715"><ele>222.0</ele><time>2026-05-02T10:52:32Z</time></trkpt><trkpt lat="43.17081083933653" lon="-3.8996958861676405"><ele>222.0</ele><time>2026-05-02T10:52:33Z</time></trkpt><trkpt lat="43.170735370774054" lon="-3.8995892522033095"><ele>222.0</ele><time>2026-05-02T10:52:34Z</time></trkpt><trkpt lat="43.17065870290968" lon="-3.8994812928319593"><ele>222.0</ele><time>2026-05-02T10:52:35Z</time></trkpt><trkpt lat="43.170584428435106" lon="-3.899376810856033"><ele>227.5</ele><time>2026-05-02T10:52:36Z</time></trkpt><trkpt lat="43.17051138334152" lon="-3.8992736990425505"><ele>233.0</ele><time>2026-05-02T10:52:37Z</time></trkpt><trkpt lat="43.170435541061885" lon="-3.899158824743273"><ele>238.5</ele><time>2026-05-02T10:52:38Z</time></trkpt><trkpt lat="43.170346428989184" lon="-3.8990225577559774"><ele>244.0</ele><time>2026-05-02T10:52:39Z</time></trkpt><trkpt lat="43.17024975398524" lon="-3.8988913717981775"><ele>244.0</ele><time>2026-05-02T10:52:40Z</time></trkpt><trkpt lat="43.17017511543034" lon="-3.898799758591618"><ele>243.99999999999997</ele><time>2026-05-02T10:52:41Z</time></trkpt><trkpt lat="43.170118963055735" lon="-3.898721698954919"><ele>243.99999999999997</ele><time>2026-05-02T10:52:42Z</time></trkpt><trkpt lat="43.17002618909701" lon="-3.8986383468065493"><ele>244.0</ele><time>2026-05-02T10:52:43Z</time></trkpt><trkpt lat="43.16994311523242" lon="-3.898548769631964"><ele>244.0</ele><time>2026-05-02T10:52:44Z</time></trkpt><trkpt lat="43.16985914457307" lon="-3.89845299555599"><ele>244.6</ele><time>2026-05-02T10:52:45Z</time></trkpt><trkpt lat="43.16977746604392" lon="-3.8983591497922747"><ele>245.2</ele><time>2026-05-02T10:52:46Z</time></trkpt><trkpt lat="43.16969729067089" lon="-3.898254075896101"><ele>245.79999999999998</ele><time>2026-05-02T10:52:47Z</time></trkpt><trkpt lat="43.16962836886115" lon="-3.898143177032683"><ele>246.39999999999998</ele><time>2026-05-02T10:52:48Z</time></trkpt><trkpt lat="43.169556470741234" lon="-3.8980304789318985"><ele>247.0</ele><time>2026-05-02T10:52:49Z</time></trkpt><trkpt lat="43.16948268489382" lon="-3.897919403718519"><ele>247.0</ele><time>2026-05-02T10:52:50Z</time></trkpt><trkpt lat="43.16941560022969" lon="-3.8978120893726156"><ele>247.0</ele><time>2026-05-02T10:52:51Z</time></trkpt><trkpt lat="43.16934715775134" lon="-3.8976979578754247"><ele>247.0</ele><time>2026-05-02T10:52:52Z</time></trkpt><trkpt lat="43.169273615535346" lon="-3.897592657863947"><ele>247.0</ele><time>2026-05-02T10:52:53Z</time></trkpt><trkpt lat="43.16919674702135" lon="-3.8974931004494153"><ele>247.0</ele><time>2026-05-02T10:52:54Z</time></trkpt><trkpt lat="43.16912652501482" lon="-3.897389721683495"><ele>250.39999999999998</ele><time>2026-05-02T10:52:55Z</time></trkpt><trkpt lat="43.16905987173961" lon="-3.897286850281859"><ele>253.79999999999998</ele><time>2026-05-02T10:52:56Z</time></trkpt><trkpt lat="43.16900367081038" lon="-3.897171412542783"><ele>257.2</ele><time>2026-05-02T10:52:57Z</time></trkpt><trkpt lat="43.16895614473183" lon="-3.897049519770411"><ele>260.59999999999997</ele><time>2026-05-02T10:52:58Z</time></trkpt><trkpt lat="43.168919345603065" lon="-3.896919411933763"><ele>264.0</ele><time>2026-05-02T10:52:59Z</time></trkpt><trkpt lat="43.168880514907876" lon="-3.8967837466622046"><ele>262.0</ele><time>2026-05-02T10:53:00Z</time></trkpt><trkpt lat="43.16883771067972" lon="-3.8966554351040843"><ele>260.0</ele><time>2026-05-02T10:53:01Z</time></trkpt><trkpt lat="43.168789393485554" lon="-3.896526437944775"><ele>258.0</ele><time>2026-05-02T10:53:02Z</time></trkpt><trkpt lat="43.168738767966246" lon="-3.8964004003520287"><ele>256.0</ele><time>2026-05-02T10:53:03Z</time></trkpt><trkpt lat="43.16869086313213" lon="-3.8962772343201824"><ele>254.0</ele><time>2026-05-02T10:53:04Z</time></trkpt><trkpt lat="43.1686426619756" lon="-3.8961542520299637"><ele>254.0</ele><time>2026-05-02T10:53:05Z</time></trkpt><trkpt lat="43.16858375434875" lon="-3.8960402645405163"><ele>253.99999999999997</ele><time>2026-05-02T10:53:06Z</time></trkpt><trkpt lat="43.168515541556296" lon="-3.895934551576271"><ele>253.99999999999997</ele><time>2026-05-02T10:53:07Z</time></trkpt><trkpt lat="43.16843426597162" lon="-3.895849350404833"><ele>254.0</ele><time>2026-05-02T10:53:08Z</time></trkpt><trkpt lat="43.16834796292301" lon="-3.8957796569621226"><ele>254.0</ele><time>2026-05-02T10:53:09Z</time></trkpt><trkpt lat="43.168256202944896" lon="-3.895717996912905"><ele>250.0</ele><time>2026-05-02T10:53:10Z</time></trkpt><trkpt lat="43.16816212251358" lon="-3.8956745627139724"><ele>245.99999999999997</ele><time>2026-05-02T10:53:11.001Z</time></trkpt><trkpt lat="43.16806407311877" lon="-3.89565327995924"><ele>241.99999999999997</ele><time>2026-05-02T10:53:12.001Z</time></trkpt><trkpt lat="43.167964027289976" lon="-3.895644848770104"><ele>238.0</ele><time>2026-05-02T10:53:13.001Z</time></trkpt><trkpt lat="43.16786797950868" lon="-3.8956559642488515"><ele>234.0</ele><time>2026-05-02T10:53:14.001Z</time></trkpt><trkpt lat="43.16777129849139" lon="-3.8956797000642527"><ele>234.0</ele><time>2026-05-02T10:53:15.001Z</time></trkpt><trkpt lat="43.1676770491251" lon="-3.895713665916587"><ele>233.99999999999997</ele><time>2026-05-02T10:53:16.001Z</time></trkpt><trkpt lat="43.167586473119485" lon="-3.8957637132434524"><ele>233.99999999999997</ele><time>2026-05-02T10:53:17.001Z</time></trkpt><trkpt lat="43.16750021728484" lon="-3.8958209093330187"><ele>234.0</ele><time>2026-05-02T10:53:18.001Z</time></trkpt><trkpt lat="43.1674129630835" lon="-3.895881097328138"><ele>234.0</ele><time>2026-05-02T10:53:19.001Z</time></trkpt><trkpt lat="43.16731916256117" lon="-3.8959291972010965"><ele>235.79999999999998</ele><time>2026-05-02T10:53:20.001Z</time></trkpt><trkpt lat="43.16722648123162" lon="-3.895977396835717"><ele>237.59999999999997</ele><time>2026-05-02T10:53:21.001Z</time></trkpt><trkpt lat="43.16713324379198" lon="-3.896032339768565"><ele>239.4</ele><time>2026-05-02T10:53:22.001Z</time></trkpt><trkpt lat="43.16704010587822" lon="-3.896091407727857"><ele>241.2</ele><time>2026-05-02T10:53:23.001Z</time></trkpt><trkpt lat="43.16694717205903" lon="-3.8961553829147944"><ele>243.0</ele><time>2026-05-02T10:53:24.001Z</time></trkpt><trkpt lat="43.166850148466494" lon="-3.896214176757147"><ele>243.0</ele><time>2026-05-02T10:53:25.001Z</time></trkpt><trkpt lat="43.16675719267485" lon="-3.896275668496806"><ele>243.0</ele><time>2026-05-02T10:53:26.001Z</time></trkpt><trkpt lat="43.16666628783262" lon="-3.896334890550225"><ele>243.0</ele><time>2026-05-02T10:53:27.001Z</time></trkpt><trkpt lat="43.16656911854732" lon="-3.896393430611352"><ele>243.0</ele><time>2026-05-02T10:53:28.001Z</time></trkpt><trkpt lat="43.16647971493719" lon="-3.8964582784816977"><ele>243.0</ele><time>2026-05-02T10:53:29.001Z</time></trkpt><trkpt lat="43.16639300729721" lon="-3.896530575029838"><ele>241.8</ele><time>2026-05-02T10:53:30.001Z</time></trkpt><trkpt lat="43.16630957334452" lon="-3.896605562444024"><ele>240.60000000000002</ele><time>2026-05-02T10:53:31.001Z</time></trkpt><trkpt lat="43.16621979760132" lon="-3.8966778930979094"><ele>239.39999999999998</ele><time>2026-05-02T10:53:32.001Z</time></trkpt><trkpt lat="43.166134844198076" lon="-3.8967577981817314"><ele>238.2</ele><time>2026-05-02T10:53:33.001Z</time></trkpt><trkpt lat="43.16605594406821" lon="-3.8968412024904713"><ele>237.0</ele><time>2026-05-02T10:53:34.001Z</time></trkpt><trkpt lat="43.16598319781665" lon="-3.8969347703601454"><ele>237.0</ele><time>2026-05-02T10:53:35.001Z</time></trkpt><trkpt lat="43.16591024534162" lon="-3.8970279911525103"><ele>237.0</ele><time>2026-05-02T10:53:36.001Z</time></trkpt><trkpt lat="43.16583277812199" lon="-3.897116430859853"><ele>237.0</ele><time>2026-05-02T10:53:37.001Z</time></trkpt><trkpt lat="43.16575641552311" lon="-3.8972070901316074"><ele>237.0</ele><time>2026-05-02T10:53:38.001Z</time></trkpt><trkpt lat="43.165685115548214" lon="-3.8972936780013354"><ele>237.0</ele><time>2026-05-02T10:53:39.001Z</time></trkpt><trkpt lat="43.16561340291159" lon="-3.8973875219948324"><ele>238.6</ele><time>2026-05-02T10:53:40.001Z</time></trkpt><trkpt lat="43.16554292225151" lon="-3.8974796864350325"><ele>240.2</ele><time>2026-05-02T10:53:41.001Z</time></trkpt><trkpt lat="43.16546563956837" lon="-3.8975720761041375"><ele>241.8</ele><time>2026-05-02T10:53:42.001Z</time></trkpt><trkpt lat="43.165391077764106" lon="-3.897672370171593"><ele>243.4</ele><time>2026-05-02T10:53:43.001Z</time></trkpt><trkpt lat="43.16531122501187" lon="-3.8977711172577814"><ele>245.0</ele><time>2026-05-02T10:53:44.001Z</time></trkpt><trkpt lat="43.16522911786571" lon="-3.8978677832360344"><ele>245.0</ele><time>2026-05-02T10:53:45.001Z</time></trkpt><trkpt lat="43.16514513627449" lon="-3.897974055840645"><ele>245.0</ele><time>2026-05-02T10:53:46.001Z</time></trkpt><trkpt lat="43.16505843053567" lon="-3.8980707964747214"><ele>245.0</ele><time>2026-05-02T10:53:47.001Z</time></trkpt><trkpt lat="43.164957182542835" lon="-3.8981521845893194"><ele>245.0</ele><time>2026-05-02T10:53:48.001Z</time></trkpt><trkpt lat="43.16486664585129" lon="-3.8982463733976473"><ele>248.0</ele><time>2026-05-02T10:53:49.001Z</time></trkpt><trkpt lat="43.16477067323296" lon="-3.898323350953315"><ele>251.0</ele><time>2026-05-02T10:53:50.001Z</time></trkpt><trkpt lat="43.16469057656425" lon="-3.898422498833982"><ele>254.0</ele><time>2026-05-02T10:53:51.001Z</time></trkpt><trkpt lat="43.1645937076911" lon="-3.898513522163378"><ele>257.0</ele><time>2026-05-02T10:53:52.001Z</time></trkpt><trkpt lat="43.164497010151216" lon="-3.8985934112916056"><ele>260.0</ele><time>2026-05-02T10:53:53.001Z</time></trkpt><trkpt lat="43.16439402553425" lon="-3.898662517516232"><ele>260.0</ele><time>2026-05-02T10:53:54.001Z</time></trkpt><trkpt lat="43.16428910309356" lon="-3.89871501557723"><ele>260.0</ele><time>2026-05-02T10:53:55.001Z</time></trkpt><trkpt lat="43.164184057119414" lon="-3.898760546146099"><ele>260.0</ele><time>2026-05-02T10:53:56.001Z</time></trkpt><trkpt lat="43.164071820481794" lon="-3.8987981747418043"><ele>260.0</ele><time>2026-05-02T10:53:57.001Z</time></trkpt><trkpt lat="43.16396348888745" lon="-3.8988206529210503"><ele>260.0</ele><time>2026-05-02T10:53:58.001Z</time></trkpt><trkpt lat="43.16385173595521" lon="-3.8988345876732367"><ele>259.2</ele><time>2026-05-02T10:53:59.001Z</time></trkpt><trkpt lat="43.163741502335235" lon="-3.898830346966357"><ele>258.4</ele><time>2026-05-02T10:54:00.001Z</time></trkpt><trkpt lat="43.16362867139311" lon="-3.8988238718192916"><ele>257.6</ele><time>2026-05-02T10:54:01.001Z</time></trkpt><trkpt lat="43.163524377082396" lon="-3.8988171352674006"><ele>256.8</ele><time>2026-05-02T10:54:02.001Z</time></trkpt><trkpt lat="43.163421287300096" lon="-3.8987987304247302"><ele>256.0</ele><time>2026-05-02T10:54:03.001Z</time></trkpt><trkpt lat="43.16331516594917" lon="-3.898786503267187"><ele>256.0</ele><time>2026-05-02T10:54:04.001Z</time></trkpt><trkpt lat="43.16321354224417" lon="-3.8987691581967048"><ele>256.0</ele><time>2026-05-02T10:54:05.001Z</time></trkpt><trkpt lat="43.1631093787395" lon="-3.8987315409386536"><ele>256.0</ele><time>2026-05-02T10:54:06.001Z</time></trkpt><trkpt lat="43.163014241310634" lon="-3.8986925361982037"><ele>256.0</ele><time>2026-05-02T10:54:07.001Z</time></trkpt><trkpt lat="43.16291684279213" lon="-3.89865015559523"><ele>256.0</ele><time>2026-05-02T10:54:08.001Z</time></trkpt><trkpt lat="43.16282539717872" lon="-3.8986045267826"><ele>253.20000000000002</ele><time>2026-05-02T10:54:09.001Z</time></trkpt><trkpt lat="43.16273360855032" lon="-3.898556342888846"><ele>250.40000000000003</ele><time>2026-05-02T10:54:10.001Z</time></trkpt><trkpt lat="43.162642813953916" lon="-3.8985090037461303"><ele>247.6</ele><time>2026-05-02T10:54:11.001Z</time></trkpt><trkpt lat="43.1625520138428" lon="-3.8984603826970066"><ele>244.8</ele><time>2026-05-02T10:54:12.001Z</time></trkpt><trkpt lat="43.162462713762835" lon="-3.8984091646978243"><ele>242.0</ele><time>2026-05-02T10:54:13.001Z</time></trkpt><trkpt lat="43.16237401020384" lon="-3.8983651206033674"><ele>244.8</ele><time>2026-05-02T10:54:14.001Z</time></trkpt><trkpt lat="43.162287977698924" lon="-3.8983038110073673"><ele>247.6</ele><time>2026-05-02T10:54:15.001Z</time></trkpt><trkpt lat="43.16220058106123" lon="-3.898256342841849"><ele>250.40000000000003</ele><time>2026-05-02T10:54:16.001Z</time></trkpt><trkpt lat="43.16211860703667" lon="-3.8982137146207734"><ele>253.20000000000002</ele><time>2026-05-02T10:54:17.001Z</time></trkpt><trkpt lat="43.16203621652237" lon="-3.898134882830028"><ele>256.0</ele><time>2026-05-02T10:54:18.001Z</time></trkpt><trkpt lat="43.161958374154274" lon="-3.898075666946132"><ele>256.0</ele><time>2026-05-02T10:54:19.001Z</time></trkpt><trkpt lat="43.16187950924174" lon="-3.8980056222847272"><ele>256.0</ele><time>2026-05-02T10:54:20.001Z</time></trkpt><trkpt lat="43.16180186801709" lon="-3.8979291725233844"><ele>256.0</ele><time>2026-05-02T10:54:21.001Z</time></trkpt><trkpt lat="43.16172554189853" lon="-3.8978542674397914"><ele>256.0</ele><time>2026-05-02T10:54:22.001Z</time></trkpt><trkpt lat="43.1616453369456" lon="-3.897775149399784"><ele>256.0</ele><time>2026-05-02T10:54:23.001Z</time></trkpt><trkpt lat="43.16156648382979" lon="-3.8976922814920014"><ele>255.4</ele><time>2026-05-02T10:54:24.001Z</time></trkpt><trkpt lat="43.1614821382763" lon="-3.8976085193817656"><ele>254.8</ele><time>2026-05-02T10:54:25.001Z</time></trkpt><trkpt lat="43.16140407126801" lon="-3.897518653228468"><ele>254.20000000000002</ele><time>2026-05-02T10:54:26.001Z</time></trkpt><trkpt lat="43.16132276703078" lon="-3.897430536816846"><ele>253.60000000000002</ele><time>2026-05-02T10:54:27.001Z</time></trkpt><trkpt lat="43.16124114866575" lon="-3.897351355789089"><ele>253.0</ele><time>2026-05-02T10:54:28.001Z</time></trkpt><trkpt lat="43.161160717672914" lon="-3.8972811363991635"><ele>253.0</ele><time>2026-05-02T10:54:29.001Z</time></trkpt><trkpt lat="43.161079691461964" lon="-3.8972083019126624"><ele>253.0</ele><time>2026-05-02T10:54:30.001Z</time></trkpt><trkpt lat="43.16099575369309" lon="-3.897143587401074"><ele>253.0</ele><time>2026-05-02T10:54:31Z</time></trkpt><trkpt lat="43.160912127492466" lon="-3.8970955944030283"><ele>253.0</ele><time>2026-05-02T10:54:32Z</time></trkpt><trkpt lat="43.160833418968586" lon="-3.8970504732222286"><ele>253.0</ele><time>2026-05-02T10:54:33.001Z</time></trkpt><trkpt lat="43.160747619849374" lon="-3.8970083748515933"><ele>255.33333333333331</ele><time>2026-05-02T10:54:34.001Z</time></trkpt><trkpt lat="43.16066598581829" lon="-3.896968514442976"><ele>257.66666666666663</ele><time>2026-05-02T10:54:35.001Z</time></trkpt><trkpt lat="43.16058614488808" lon="-3.8969308343491105"><ele>260.0</ele><time>2026-05-02T10:54:36.001Z</time></trkpt><trkpt lat="43.160503881219796" lon="-3.896894162930457"><ele>262.3333333333333</ele><time>2026-05-02T10:54:37Z</time></trkpt><trkpt lat="43.160423963719666" lon="-3.8968485923924825"><ele>264.6666666666667</ele><time>2026-05-02T10:54:38Z</time></trkpt><trkpt lat="43.16034235811461" lon="-3.8968112209981527"><ele>267.0</ele><time>2026-05-02T10:54:39Z</time></trkpt><trkpt lat="43.16026771534652" lon="-3.8967781315797745"><ele>268.3333333333333</ele><time>2026-05-02T10:54:40Z</time></trkpt><trkpt lat="43.160191460532666" lon="-3.8967405446192847"><ele>269.6666666666667</ele><time>2026-05-02T10:54:41Z</time></trkpt><trkpt lat="43.16011700224835" lon="-3.896701334117034"><ele>271.0</ele><time>2026-05-02T10:54:42Z</time></trkpt><trkpt lat="43.16004285073573" lon="-3.896663801953608"><ele>272.33333333333337</ele><time>2026-05-02T10:54:43Z</time></trkpt><trkpt lat="43.15997123931727" lon="-3.8966276907234447"><ele>273.6666666666667</ele><time>2026-05-02T10:54:44Z</time></trkpt><trkpt lat="43.15990144689533" lon="-3.8965962852951725"><ele>275.0</ele><time>2026-05-02T10:54:45Z</time></trkpt><trkpt lat="43.159833997956795" lon="-3.8965605553035223"><ele>275.0</ele><time>2026-05-02T10:54:46Z</time></trkpt><trkpt lat="43.159767747330875" lon="-3.896519291919634"><ele>275.0</ele><time>2026-05-02T10:54:47Z</time></trkpt><trkpt lat="43.15970201830924" lon="-3.896482413322869"><ele>275.0</ele><time>2026-05-02T10:54:48Z</time></trkpt><trkpt lat="43.15963858309028" lon="-3.896448346006169"><ele>275.0</ele><time>2026-05-02T10:54:49Z</time></trkpt><trkpt lat="43.15957568171514" lon="-3.896414455428961"><ele>275.0</ele><time>2026-05-02T10:54:50Z</time></trkpt><trkpt lat="43.15951527828832" lon="-3.896376534110685"><ele>275.0</ele><time>2026-05-02T10:54:51Z</time></trkpt><trkpt lat="43.15945318698541" lon="-3.896338083784051"><ele>275.0</ele><time>2026-05-02T10:54:52Z</time></trkpt><trkpt lat="43.15939132269164" lon="-3.896300989413601"><ele>275.0</ele><time>2026-05-02T10:54:53Z</time></trkpt><trkpt lat="43.15933148796664" lon="-3.896266502566526"><ele>275.0</ele><time>2026-05-02T10:54:54Z</time></trkpt><trkpt lat="43.15927209657089" lon="-3.8962321014122194"><ele>275.0</ele><time>2026-05-02T10:54:55Z</time></trkpt><trkpt lat="43.15921209517466" lon="-3.8962021600977366"><ele>275.0</ele><time>2026-05-02T10:54:56Z</time></trkpt><trkpt lat="43.15915189186825" lon="-3.8961657691818172"><ele>275.0</ele><time>2026-05-02T10:54:57Z</time></trkpt><trkpt lat="43.15908962400774" lon="-3.896131368733758"><ele>275.0</ele><time>2026-05-02T10:54:58Z</time></trkpt><trkpt lat="43.159028046898776" lon="-3.896098690872366"><ele>275.0</ele><time>2026-05-02T10:54:59Z</time></trkpt><trkpt lat="43.15890772999274" lon="-3.8960296434132022"><ele>274.57142857142856</ele><time>2026-05-02T10:55:01Z</time></trkpt><trkpt lat="43.15884318179997" lon="-3.8959960938059375"><ele>274.1428571428571</ele><time>2026-05-02T10:55:02Z</time></trkpt><trkpt lat="43.15878016081189" lon="-3.8959680463349406"><ele>273.71428571428567</ele><time>2026-05-02T10:55:03Z</time></trkpt><trkpt lat="43.15871392776589" lon="-3.8959443978324804"><ele>273.2857142857143</ele><time>2026-05-02T10:55:04.001Z</time></trkpt><trkpt lat="43.15864456033447" lon="-3.895918463844604"><ele>272.85714285714283</ele><time>2026-05-02T10:55:05.001Z</time></trkpt><trkpt lat="43.15857931098224" lon="-3.895915670180828"><ele>272.4285714285714</ele><time>2026-05-02T10:55:06.001Z</time></trkpt><trkpt lat="43.158506603794045" lon="-3.8958773978658043"><ele>272.0</ele><time>2026-05-02T10:55:07.001Z</time></trkpt><trkpt lat="43.15843403788961" lon="-3.895853215594058"><ele>272.0</ele><time>2026-05-02T10:55:08.001Z</time></trkpt><trkpt lat="43.15836003779906" lon="-3.8958386208107223"><ele>272.0</ele><time>2026-05-02T10:55:09.001Z</time></trkpt><trkpt lat="43.15828525769127" lon="-3.8958281311027494"><ele>272.0</ele><time>2026-05-02T10:55:10.001Z</time></trkpt><trkpt lat="43.15820565472636" lon="-3.895830320783495"><ele>272.0</ele><time>2026-05-02T10:55:11.001Z</time></trkpt><trkpt lat="43.158128710322416" lon="-3.8958272452082996"><ele>272.0</ele><time>2026-05-02T10:55:12.001Z</time></trkpt><trkpt lat="43.158050052587015" lon="-3.8958427172774828"><ele>272.0</ele><time>2026-05-02T10:55:13.001Z</time></trkpt><trkpt lat="43.15797152586423" lon="-3.8958669636776655"><ele>270.1666666666667</ele><time>2026-05-02T10:55:14.001Z</time></trkpt><trkpt lat="43.15789300247212" lon="-3.895902175809891"><ele>268.33333333333337</ele><time>2026-05-02T10:55:15.001Z</time></trkpt><trkpt lat="43.157812864728726" lon="-3.8959534550160546"><ele>266.5</ele><time>2026-05-02T10:55:16.001Z</time></trkpt><trkpt lat="43.15773823663441" lon="-3.896010356045777"><ele>264.6666666666667</ele><time>2026-05-02T10:55:17.001Z</time></trkpt><trkpt lat="43.1576656859318" lon="-3.896076110561628"><ele>262.8333333333333</ele><time>2026-05-02T10:55:18.001Z</time></trkpt><trkpt lat="43.15759330081278" lon="-3.8961438890480062"><ele>261.0</ele><time>2026-05-02T10:55:19.001Z</time></trkpt><trkpt lat="43.157514746919915" lon="-3.8962101974231973"><ele>262.0</ele><time>2026-05-02T10:55:20.001Z</time></trkpt><trkpt lat="43.15743199600055" lon="-3.8962883974123907"><ele>263.0</ele><time>2026-05-02T10:55:21.001Z</time></trkpt><trkpt lat="43.157347671260524" lon="-3.896364895056699"><ele>264.0</ele><time>2026-05-02T10:55:22.001Z</time></trkpt><trkpt lat="43.157259826309925" lon="-3.8964476669783688"><ele>265.0</ele><time>2026-05-02T10:55:23.001Z</time></trkpt><trkpt lat="43.15717080110807" lon="-3.89652354332141"><ele>266.0</ele><time>2026-05-02T10:55:24.001Z</time></trkpt><trkpt lat="43.15707641499972" lon="-3.8966059429623603"><ele>266.0</ele><time>2026-05-02T10:55:25.001Z</time></trkpt><trkpt lat="43.15697474864193" lon="-3.8966889105812035"><ele>266.0</ele><time>2026-05-02T10:55:26.001Z</time></trkpt><trkpt lat="43.156868222860965" lon="-3.896805248944453"><ele>266.0</ele><time>2026-05-02T10:55:27.001Z</time></trkpt><trkpt lat="43.15675319864389" lon="-3.896905610867917"><ele>266.0</ele><time>2026-05-02T10:55:28.001Z</time></trkpt><trkpt lat="43.156697721640654" lon="-3.896946721021196"><ele>268.8</ele><time>2026-05-02T10:55:29.001Z</time></trkpt><trkpt lat="43.15660525186595" lon="-3.8970297036925325"><ele>271.6</ele><time>2026-05-02T10:55:30.001Z</time></trkpt><trkpt lat="43.15651119819162" lon="-3.89711258671042"><ele>274.4</ele><time>2026-05-02T10:55:31.001Z</time></trkpt><trkpt lat="43.156415802230974" lon="-3.8971930482860278"><ele>277.2</ele><time>2026-05-02T10:55:32.001Z</time></trkpt><trkpt lat="43.15631846310459" lon="-3.8972752797534094"><ele>280.0</ele><time>2026-05-02T10:55:33.001Z</time></trkpt><trkpt lat="43.15622527652105" lon="-3.897362858670509"><ele>280.0</ele><time>2026-05-02T10:55:34.001Z</time></trkpt><trkpt lat="43.156113313678745" lon="-3.897415587522435"><ele>280.0</ele><time>2026-05-02T10:55:35.001Z</time></trkpt><trkpt lat="43.15600354267892" lon="-3.8974661303195592"><ele>280.0</ele><time>2026-05-02T10:55:36.001Z</time></trkpt><trkpt lat="43.15589350123422" lon="-3.897502128741415"><ele>280.0</ele><time>2026-05-02T10:55:37.001Z</time></trkpt><trkpt lat="43.15577779885353" lon="-3.897525584340288"><ele>280.6</ele><time>2026-05-02T10:55:38.001Z</time></trkpt><trkpt lat="43.155666736427705" lon="-3.897546292241366"><ele>281.2</ele><time>2026-05-02T10:55:39.001Z</time></trkpt><trkpt lat="43.15555550702924" lon="-3.897562880225645"><ele>281.8</ele><time>2026-05-02T10:55:40.001Z</time></trkpt><trkpt lat="43.15544775999647" lon="-3.8975852003840603"><ele>282.4</ele><time>2026-05-02T10:55:41.001Z</time></trkpt><trkpt lat="43.15533649637235" lon="-3.8975743349803613"><ele>283.0</ele><time>2026-05-02T10:55:42.001Z</time></trkpt><trkpt lat="43.15522729231868" lon="-3.897545612628892"><ele>283.0</ele><time>2026-05-02T10:55:43.001Z</time></trkpt><trkpt lat="43.1551149261179" lon="-3.8975022146928717"><ele>283.0</ele><time>2026-05-02T10:55:44.001Z</time></trkpt><trkpt lat="43.15498483305312" lon="-3.8974419604798927"><ele>283.0</ele><time>2026-05-02T10:55:45.001Z</time></trkpt><trkpt lat="43.15491068029004" lon="-3.8973939168232703"><ele>283.0</ele><time>2026-05-02T10:55:46.001Z</time></trkpt><trkpt lat="43.15480806718742" lon="-3.8973309823842417"><ele>283.0</ele><time>2026-05-02T10:55:47.001Z</time></trkpt><trkpt lat="43.15470173266744" lon="-3.8972713370217313"><ele>286.5</ele><time>2026-05-02T10:55:48.001Z</time></trkpt><trkpt lat="43.15459610758415" lon="-3.8972149410736416"><ele>290.0</ele><time>2026-05-02T10:55:49.001Z</time></trkpt><trkpt lat="43.15449100905456" lon="-3.8971602014113538"><ele>293.5</ele><time>2026-05-02T10:55:50.001Z</time></trkpt><trkpt lat="43.1543855686403" lon="-3.897105438803178"><ele>297.0</ele><time>2026-05-02T10:55:51.001Z</time></trkpt><trkpt lat="43.15428021445926" lon="-3.897047123380215"><ele>297.0</ele><time>2026-05-02T10:55:52.001Z</time></trkpt><trkpt lat="43.15417413280669" lon="-3.8969881373009443"><ele>297.0</ele><time>2026-05-02T10:55:53.001Z</time></trkpt><trkpt lat="43.15406956481613" lon="-3.8969438813251847"><ele>297.0</ele><time>2026-05-02T10:55:54.001Z</time></trkpt><trkpt lat="43.1539613745138" lon="-3.8969031049092915"><ele>297.0</ele><time>2026-05-02T10:55:55.001Z</time></trkpt><trkpt lat="43.15385138538973" lon="-3.896875633447424"><ele>297.0</ele><time>2026-05-02T10:55:56.001Z</time></trkpt><trkpt lat="43.15374066633197" lon="-3.896889133954653"><ele>294.2</ele><time>2026-05-02T10:55:57.001Z</time></trkpt><trkpt lat="43.15363489805337" lon="-3.8968911446703984"><ele>291.4</ele><time>2026-05-02T10:55:58.001Z</time></trkpt><trkpt lat="43.153532835281574" lon="-3.8969054242930423"><ele>288.6</ele><time>2026-05-02T10:55:59.001Z</time></trkpt><trkpt lat="43.153430503775034" lon="-3.8969140278006957"><ele>285.8</ele><time>2026-05-02T10:56:00.001Z</time></trkpt><trkpt lat="43.15333127722265" lon="-3.8969602844750364"><ele>283.0</ele><time>2026-05-02T10:56:01.001Z</time></trkpt><trkpt lat="43.153232541642296" lon="-3.89701812848729"><ele>280.4</ele><time>2026-05-02T10:56:02.001Z</time></trkpt><trkpt lat="43.153136435290676" lon="-3.8970830497284856"><ele>277.8</ele><time>2026-05-02T10:56:03.001Z</time></trkpt><trkpt lat="43.1530436509617" lon="-3.897159562014177"><ele>275.2</ele><time>2026-05-02T10:56:04.001Z</time></trkpt><trkpt lat="43.15295563389983" lon="-3.897244216895829"><ele>272.6</ele><time>2026-05-02T10:56:05.001Z</time></trkpt><trkpt lat="43.15286062132858" lon="-3.897328115867618"><ele>270.0</ele><time>2026-05-02T10:56:06.001Z</time></trkpt><trkpt lat="43.15276231213028" lon="-3.89739971719178"><ele>270.0</ele><time>2026-05-02T10:56:07.001Z</time></trkpt><trkpt lat="43.152665673999074" lon="-3.8974717429735874"><ele>270.0</ele><time>2026-05-02T10:56:08.001Z</time></trkpt><trkpt lat="43.15256496203458" lon="-3.89754318446314"><ele>270.0</ele><time>2026-05-02T10:56:09.001Z</time></trkpt><trkpt lat="43.15245956738497" lon="-3.8975945478431004"><ele>270.0</ele><time>2026-05-02T10:56:10.001Z</time></trkpt><trkpt lat="43.1523477070162" lon="-3.897623262137722"><ele>270.0</ele><time>2026-05-02T10:56:11.001Z</time></trkpt><trkpt lat="43.152235419826745" lon="-3.8976371894443593"><ele>273.2</ele><time>2026-05-02T10:56:12.001Z</time></trkpt><trkpt lat="43.15212360177333" lon="-3.8976419268001234"><ele>276.4</ele><time>2026-05-02T10:56:13.001Z</time></trkpt><trkpt lat="43.1520113741299" lon="-3.8976334951700937"><ele>279.6</ele><time>2026-05-02T10:56:14.001Z</time></trkpt><trkpt lat="43.15190055251563" lon="-3.89762388827585"><ele>282.8</ele><time>2026-05-02T10:56:15.001Z</time></trkpt><trkpt lat="43.151789528785756" lon="-3.89762366464716"><ele>286.0</ele><time>2026-05-02T10:56:16.001Z</time></trkpt><trkpt lat="43.15168098646098" lon="-3.897622377083989"><ele>286.0</ele><time>2026-05-02T10:56:17.001Z</time></trkpt><trkpt lat="43.15157071138946" lon="-3.8976185269475816"><ele>286.0</ele><time>2026-05-02T10:56:18.001Z</time></trkpt><trkpt lat="43.15145705894406" lon="-3.897618046539837"><ele>286.0</ele><time>2026-05-02T10:56:19.001Z</time></trkpt><trkpt lat="43.15134705953922" lon="-3.8976158297874375"><ele>286.0</ele><time>2026-05-02T10:56:20.001Z</time></trkpt><trkpt lat="43.15124093165431" lon="-3.897621955585368"><ele>286.0</ele><time>2026-05-02T10:56:21.001Z</time></trkpt><trkpt lat="43.15113774363889" lon="-3.897646548594399"><ele>286.0</ele><time>2026-05-02T10:56:22.001Z</time></trkpt><trkpt lat="43.15103110551578" lon="-3.8976616709464755"><ele>286.0</ele><time>2026-05-02T10:56:23.001Z</time></trkpt><trkpt lat="43.15092814539727" lon="-3.89770275774984"><ele>286.0</ele><time>2026-05-02T10:56:24.001Z</time></trkpt><trkpt lat="43.15082803770628" lon="-3.8977375579277274"><ele>286.0</ele><time>2026-05-02T10:56:25.001Z</time></trkpt><trkpt lat="43.150727230841035" lon="-3.897775591036174"><ele>286.0</ele><time>2026-05-02T10:56:26.001Z</time></trkpt><trkpt lat="43.15062783637424" lon="-3.8978123110590466"><ele>286.0</ele><time>2026-05-02T10:56:27.001Z</time></trkpt><trkpt lat="43.15053022913113" lon="-3.8978508285640343"><ele>286.0</ele><time>2026-05-02T10:56:28.001Z</time></trkpt><trkpt lat="43.15042995080314" lon="-3.8978910217035696"><ele>286.0</ele><time>2026-05-02T10:56:29.001Z</time></trkpt><trkpt lat="43.15032896778551" lon="-3.897927951586728"><ele>286.0</ele><time>2026-05-02T10:56:30.001Z</time></trkpt><trkpt lat="43.15023068875091" lon="-3.897962890442747"><ele>286.0</ele><time>2026-05-02T10:56:31.001Z</time></trkpt><trkpt lat="43.15012941450632" lon="-3.897996522467292"><ele>286.0</ele><time>2026-05-02T10:56:32.001Z</time></trkpt><trkpt lat="43.15002423486661" lon="-3.8980323324366504"><ele>286.0</ele><time>2026-05-02T10:56:33.001Z</time></trkpt><trkpt lat="43.149920427571175" lon="-3.898061448396621"><ele>286.0</ele><time>2026-05-02T10:56:34.001Z</time></trkpt><trkpt lat="43.149813012225444" lon="-3.89809788936615"><ele>286.0</ele><time>2026-05-02T10:56:35.001Z</time></trkpt><trkpt lat="43.149704507861294" lon="-3.8981312747992214"><ele>286.0</ele><time>2026-05-02T10:56:36.001Z</time></trkpt><trkpt lat="43.149596538356576" lon="-3.898167904443446"><ele>284.6</ele><time>2026-05-02T10:56:37.001Z</time></trkpt><trkpt lat="43.149489742829225" lon="-3.898202406039748"><ele>283.20000000000005</ele><time>2026-05-02T10:56:38.001Z</time></trkpt><trkpt lat="43.14938206419205" lon="-3.898232222931333"><ele>281.79999999999995</ele><time>2026-05-02T10:56:39.001Z</time></trkpt><trkpt lat="43.14926896019918" lon="-3.8982618008468193"><ele>280.4</ele><time>2026-05-02T10:56:40.001Z</time></trkpt><trkpt lat="43.14915851553287" lon="-3.89828984702416"><ele>279.0</ele><time>2026-05-02T10:56:41Z</time></trkpt><trkpt lat="43.149047169518425" lon="-3.8983185981420436"><ele>276.59999999999997</ele><time>2026-05-02T10:56:42Z</time></trkpt><trkpt lat="43.14893716824039" lon="-3.8983427755630258"><ele>274.2</ele><time>2026-05-02T10:56:43Z</time></trkpt><trkpt lat="43.148823659352914" lon="-3.8983696554562846"><ele>271.79999999999995</ele><time>2026-05-02T10:56:44Z</time></trkpt><trkpt lat="43.14871247111188" lon="-3.8983955497565237"><ele>269.4</ele><time>2026-05-02T10:56:45Z</time></trkpt><trkpt lat="43.14860842834048" lon="-3.898420991775392"><ele>267.0</ele><time>2026-05-02T10:56:46Z</time></trkpt><trkpt lat="43.148501870371945" lon="-3.8984609773742585"><ele>269.8</ele><time>2026-05-02T10:56:47Z</time></trkpt><trkpt lat="43.14839233061163" lon="-3.8985021836329485"><ele>272.6</ele><time>2026-05-02T10:56:48Z</time></trkpt><trkpt lat="43.14828946950043" lon="-3.898548483609615"><ele>275.40000000000003</ele><time>2026-05-02T10:56:49Z</time></trkpt><trkpt lat="43.14818899494868" lon="-3.898606438981297"><ele>278.2</ele><time>2026-05-02T10:56:50Z</time></trkpt><trkpt lat="43.14809168676753" lon="-3.898658000371283"><ele>281.0</ele><time>2026-05-02T10:56:51Z</time></trkpt><trkpt lat="43.14798870244992" lon="-3.898724585362342"><ele>281.0</ele><time>2026-05-02T10:56:52Z</time></trkpt><trkpt lat="43.14789475105638" lon="-3.8988132349419673"><ele>281.0</ele><time>2026-05-02T10:56:53Z</time></trkpt><trkpt lat="43.14784153426854" lon="-3.898890851898326"><ele>281.0</ele><time>2026-05-02T10:56:54Z</time></trkpt><trkpt lat="43.147729424062334" lon="-3.899023742698107"><ele>281.0</ele><time>2026-05-02T10:56:55Z</time></trkpt><trkpt lat="43.14759642416442" lon="-3.8991990068237024"><ele>273.6666666666667</ele><time>2026-05-02T10:56:56Z</time></trkpt><trkpt lat="43.147472226869816" lon="-3.8994078633087104"><ele>266.3333333333333</ele><time>2026-05-02T10:56:57Z</time></trkpt><trkpt lat="43.14728720122529" lon="-3.8991730992536517"><ele>259.0</ele><time>2026-05-02T10:56:59Z</time></trkpt><trkpt lat="43.14718528274226" lon="-3.8992473610850698"><ele>263.75</ele><time>2026-05-02T10:57:00Z</time></trkpt><trkpt lat="43.14708276150611" lon="-3.899316873870248"><ele>268.5</ele><time>2026-05-02T10:57:01Z</time></trkpt><trkpt lat="43.146981968793185" lon="-3.8993872799211906"><ele>273.25</ele><time>2026-05-02T10:57:02Z</time></trkpt><trkpt lat="43.146888198453816" lon="-3.8994818653264267"><ele>278.0</ele><time>2026-05-02T10:57:03Z</time></trkpt><trkpt lat="43.146782754630806" lon="-3.899548663910219"><ele>278.0</ele><time>2026-05-02T10:57:04Z</time></trkpt><trkpt lat="43.14668383380058" lon="-3.899613341263049"><ele>278.0</ele><time>2026-05-02T10:57:05Z</time></trkpt><trkpt lat="43.146584609428196" lon="-3.8996846727880476"><ele>278.0</ele><time>2026-05-02T10:57:06Z</time></trkpt><trkpt lat="43.14648478615612" lon="-3.899752841673019"><ele>278.0</ele><time>2026-05-02T10:57:07Z</time></trkpt><trkpt lat="43.14638330396339" lon="-3.899818643775552"><ele>278.0</ele><time>2026-05-02T10:57:08Z</time></trkpt><trkpt lat="43.14627548989472" lon="-3.8998672766209013"><ele>277.2</ele><time>2026-05-02T10:57:09Z</time></trkpt><trkpt lat="43.14616899921563" lon="-3.8999040209227283"><ele>276.4</ele><time>2026-05-02T10:57:10Z</time></trkpt><trkpt lat="43.1460596127255" lon="-3.899928999790917"><ele>275.59999999999997</ele><time>2026-05-02T10:57:11Z</time></trkpt><trkpt lat="43.145949797260386" lon="-3.8999147532195133"><ele>274.8</ele><time>2026-05-02T10:57:12Z</time></trkpt><trkpt lat="43.145837354834626" lon="-3.8998810094783782"><ele>274.0</ele><time>2026-05-02T10:57:13Z</time></trkpt><trkpt lat="43.14572831670406" lon="-3.8998469362140913"><ele>280.4</ele><time>2026-05-02T10:57:14Z</time></trkpt><trkpt lat="43.14562754155074" lon="-3.899796184235967"><ele>286.79999999999995</ele><time>2026-05-02T10:57:15Z</time></trkpt><trkpt lat="43.14552651100848" lon="-3.899745945112488"><ele>293.20000000000005</ele><time>2026-05-02T10:57:16Z</time></trkpt><trkpt lat="43.145435725104555" lon="-3.8996798257643115"><ele>299.6</ele><time>2026-05-02T10:57:17Z</time></trkpt><trkpt lat="43.14534548221408" lon="-3.899611812153903"><ele>306.0</ele><time>2026-05-02T10:57:18Z</time></trkpt><trkpt lat="43.145252705902436" lon="-3.899544751618156"><ele>306.0</ele><time>2026-05-02T10:57:19Z</time></trkpt><trkpt lat="43.1451732497917" lon="-3.899465151208947"><ele>306.0</ele><time>2026-05-02T10:57:20Z</time></trkpt><trkpt lat="43.14508632041388" lon="-3.8994028096523445"><ele>306.0</ele><time>2026-05-02T10:57:21Z</time></trkpt><trkpt lat="43.144990630266605" lon="-3.899342207925243"><ele>306.0</ele><time>2026-05-02T10:57:22Z</time></trkpt><trkpt lat="43.14489981616134" lon="-3.899286009983003"><ele>306.0</ele><time>2026-05-02T10:57:23.001Z</time></trkpt><trkpt lat="43.14480406337809" lon="-3.89923855548255"><ele>299.2</ele><time>2026-05-02T10:57:24.001Z</time></trkpt><trkpt lat="43.144703146744135" lon="-3.8992014009288707"><ele>292.40000000000003</ele><time>2026-05-02T10:57:25.001Z</time></trkpt><trkpt lat="43.144604495071135" lon="-3.8991741388816528"><ele>285.6</ele><time>2026-05-02T10:57:26.001Z</time></trkpt><trkpt lat="43.144501781445086" lon="-3.8991770839232562"><ele>278.8</ele><time>2026-05-02T10:57:27.001Z</time></trkpt><trkpt lat="43.14439721916815" lon="-3.899189326459183"><ele>272.0</ele><time>2026-05-02T10:57:28.001Z</time></trkpt><trkpt lat="43.14429942531902" lon="-3.8992165180990384"><ele>278.2</ele><time>2026-05-02T10:57:29.001Z</time></trkpt><trkpt lat="43.144201413795656" lon="-3.899256003508524"><ele>284.4</ele><time>2026-05-02T10:57:30.001Z</time></trkpt><trkpt lat="43.144106019638016" lon="-3.8992939400561863"><ele>290.6</ele><time>2026-05-02T10:57:31.001Z</time></trkpt><trkpt lat="43.14401283447934" lon="-3.899337522585936"><ele>296.8</ele><time>2026-05-02T10:57:32.001Z</time></trkpt><trkpt lat="43.14391857175989" lon="-3.899378970956613"><ele>303.0</ele><time>2026-05-02T10:57:33.001Z</time></trkpt><trkpt lat="43.14382165294093" lon="-3.8994175195485776"><ele>303.0</ele><time>2026-05-02T10:57:34.001Z</time></trkpt><trkpt lat="43.14372823825901" lon="-3.8994571013246517"><ele>303.0</ele><time>2026-05-02T10:57:35.001Z</time></trkpt><trkpt lat="43.143633170241316" lon="-3.8995026732080067"><ele>303.0</ele><time>2026-05-02T10:57:36.001Z</time></trkpt><trkpt lat="43.1435385292688" lon="-3.8995444345197794"><ele>303.0</ele><time>2026-05-02T10:57:37.001Z</time></trkpt><trkpt lat="43.1434429869734" lon="-3.899583751283869"><ele>303.0</ele><time>2026-05-02T10:57:38.001Z</time></trkpt><trkpt lat="43.14335010055225" lon="-3.8996205382009377"><ele>303.0</ele><time>2026-05-02T10:57:39.001Z</time></trkpt><trkpt lat="43.14325478078343" lon="-3.8996601438089162"><ele>303.0</ele><time>2026-05-02T10:57:40.001Z</time></trkpt><trkpt lat="43.1431589687317" lon="-3.899700951201899"><ele>303.0</ele><time>2026-05-02T10:57:41.001Z</time></trkpt><trkpt lat="43.143065602569685" lon="-3.8997395080959314"><ele>303.0</ele><time>2026-05-02T10:57:42.001Z</time></trkpt><trkpt lat="43.14297454342335" lon="-3.899776993042169"><ele>303.0</ele><time>2026-05-02T10:57:43.001Z</time></trkpt><trkpt lat="43.14288256985568" lon="-3.8998160109434052"><ele>300.8</ele><time>2026-05-02T10:57:44.001Z</time></trkpt><trkpt lat="43.14278987454701" lon="-3.8998631522353984"><ele>298.6</ele><time>2026-05-02T10:57:45.001Z</time></trkpt><trkpt lat="43.14270110363706" lon="-3.899897391687552"><ele>296.4</ele><time>2026-05-02T10:57:46.001Z</time></trkpt><trkpt lat="43.142616533544086" lon="-3.899939308439988"><ele>294.2</ele><time>2026-05-02T10:57:47.001Z</time></trkpt><trkpt lat="43.142526804887446" lon="-3.899970605414797"><ele>292.0</ele><time>2026-05-02T10:57:48.001Z</time></trkpt><trkpt lat="43.1424315497791" lon="-3.900010122536802"><ele>292.6</ele><time>2026-05-02T10:57:49.001Z</time></trkpt><trkpt lat="43.14234694813343" lon="-3.9000434209321733"><ele>293.2</ele><time>2026-05-02T10:57:50.001Z</time></trkpt><trkpt lat="43.14225474573818" lon="-3.9000538378230267"><ele>293.8</ele><time>2026-05-02T10:57:51.001Z</time></trkpt><trkpt lat="43.14216294059378" lon="-3.9000678950533936"><ele>294.4</ele><time>2026-05-02T10:57:52.001Z</time></trkpt><trkpt lat="43.14207308319679" lon="-3.900068104100078"><ele>295.0</ele><time>2026-05-02T10:57:53.001Z</time></trkpt><trkpt lat="43.14198550288666" lon="-3.9000675637143285"><ele>295.0</ele><time>2026-05-02T10:57:54.001Z</time></trkpt><trkpt lat="43.141892164291725" lon="-3.9000510547588263"><ele>295.0</ele><time>2026-05-02T10:57:55.001Z</time></trkpt><trkpt lat="43.14180196050296" lon="-3.900018950356645"><ele>295.0</ele><time>2026-05-02T10:57:56.001Z</time></trkpt><trkpt lat="43.141717381406124" lon="-3.8999978624935796"><ele>295.0</ele><time>2026-05-02T10:57:57.001Z</time></trkpt><trkpt lat="43.14163021087671" lon="-3.899959307045707"><ele>295.0</ele><time>2026-05-02T10:57:58.001Z</time></trkpt><trkpt lat="43.141544365087334" lon="-3.8999192290589817"><ele>297.8</ele><time>2026-05-02T10:57:59.001Z</time></trkpt><trkpt lat="43.14146114345606" lon="-3.8998788776125224"><ele>300.6</ele><time>2026-05-02T10:58:00.001Z</time></trkpt><trkpt lat="43.14137582453326" lon="-3.899835106152383"><ele>303.4</ele><time>2026-05-02T10:58:01.001Z</time></trkpt><trkpt lat="43.141291467079405" lon="-3.899787980704939"><ele>306.2</ele><time>2026-05-02T10:58:02.001Z</time></trkpt><trkpt lat="43.14120445752865" lon="-3.8997499441111545"><ele>309.0</ele><time>2026-05-02T10:58:03.001Z</time></trkpt><trkpt lat="43.14111876531716" lon="-3.8997115677994074"><ele>309.0</ele><time>2026-05-02T10:58:04.001Z</time></trkpt><trkpt lat="43.14103287367444" lon="-3.8996892637595755"><ele>309.0</ele><time>2026-05-02T10:58:05.001Z</time></trkpt><trkpt lat="43.14094340640473" lon="-3.899679343314731"><ele>309.0</ele><time>2026-05-02T10:58:06.001Z</time></trkpt><trkpt lat="43.14085101326464" lon="-3.8996848393332986"><ele>309.0</ele><time>2026-05-02T10:58:07.001Z</time></trkpt><trkpt lat="43.14075999118548" lon="-3.8997110703602655"><ele>309.0</ele><time>2026-05-02T10:58:08.001Z</time></trkpt><trkpt lat="43.14067324721506" lon="-3.8997529241054965"><ele>304.2</ele><time>2026-05-02T10:58:09.001Z</time></trkpt><trkpt lat="43.14058917667928" lon="-3.899800936365483"><ele>299.4</ele><time>2026-05-02T10:58:10.001Z</time></trkpt><trkpt lat="43.140511539272794" lon="-3.8998694930007733"><ele>294.6</ele><time>2026-05-02T10:58:11.001Z</time></trkpt><trkpt lat="43.14043496325224" lon="-3.8999451131377443"><ele>289.8</ele><time>2026-05-02T10:58:12.001Z</time></trkpt><trkpt lat="43.14036529065729" lon="-3.9000218603389523"><ele>285.0</ele><time>2026-05-02T10:58:13.001Z</time></trkpt><trkpt lat="43.14029011342485" lon="-3.9001113033604007"><ele>295.6</ele><time>2026-05-02T10:58:14.001Z</time></trkpt><trkpt lat="43.140219183213816" lon="-3.9001944964690125"><ele>306.2</ele><time>2026-05-02T10:58:15.001Z</time></trkpt><trkpt lat="43.14014459973311" lon="-3.9002753018665675"><ele>316.79999999999995</ele><time>2026-05-02T10:58:16.001Z</time></trkpt><trkpt lat="43.140065338036784" lon="-3.900356532031929"><ele>327.4</ele><time>2026-05-02T10:58:17.001Z</time></trkpt><trkpt lat="43.13998474791018" lon="-3.9004381842340132"><ele>338.0</ele><time>2026-05-02T10:58:18.001Z</time></trkpt><trkpt lat="43.13990250846804" lon="-3.900513007952588"><ele>333.59999999999997</ele><time>2026-05-02T10:58:19.001Z</time></trkpt><trkpt lat="43.13981340780599" lon="-3.900585227103217"><ele>329.2</ele><time>2026-05-02T10:58:20.001Z</time></trkpt><trkpt lat="43.13972494923886" lon="-3.900653756447547"><ele>324.8</ele><time>2026-05-02T10:58:21.001Z</time></trkpt><trkpt lat="43.139630565476786" lon="-3.9007081088709366"><ele>320.4</ele><time>2026-05-02T10:58:22.001Z</time></trkpt><trkpt lat="43.1395369863139" lon="-3.9007584814113523"><ele>316.0</ele><time>2026-05-02T10:58:23.001Z</time></trkpt><trkpt lat="43.13943727201627" lon="-3.9007977979209283"><ele>316.0</ele><time>2026-05-02T10:58:24.001Z</time></trkpt><trkpt lat="43.139340249948546" lon="-3.900836293117981"><ele>316.0</ele><time>2026-05-02T10:58:25.001Z</time></trkpt><trkpt lat="43.13923892970348" lon="-3.900862243278439"><ele>316.0</ele><time>2026-05-02T10:58:26.001Z</time></trkpt><trkpt lat="43.13913355367752" lon="-3.9008794061933"><ele>316.0</ele><time>2026-05-02T10:58:27.001Z</time></trkpt><trkpt lat="43.13902989182137" lon="-3.900887075793603"><ele>316.0</ele><time>2026-05-02T10:58:28.001Z</time></trkpt><trkpt lat="43.1389247265066" lon="-3.900877034022423"><ele>316.6</ele><time>2026-05-02T10:58:29.001Z</time></trkpt><trkpt lat="43.13881936595437" lon="-3.9008693113054083"><ele>317.20000000000005</ele><time>2026-05-02T10:58:30.001Z</time></trkpt><trkpt lat="43.138712264542626" lon="-3.9008538245641815"><ele>317.79999999999995</ele><time>2026-05-02T10:58:31.001Z</time></trkpt><trkpt lat="43.1386052583005" lon="-3.9008304772155835"><ele>318.4</ele><time>2026-05-02T10:58:32.001Z</time></trkpt><trkpt lat="43.138499522335955" lon="-3.900801532450388"><ele>319.0</ele><time>2026-05-02T10:58:33.001Z</time></trkpt><trkpt lat="43.138393978172196" lon="-3.900769776390087"><ele>319.0</ele><time>2026-05-02T10:58:34.001Z</time></trkpt><trkpt lat="43.13828929416519" lon="-3.9007395566326237"><ele>319.0</ele><time>2026-05-02T10:58:35.001Z</time></trkpt><trkpt lat="43.13818446807004" lon="-3.9007115364329206"><ele>319.0</ele><time>2026-05-02T10:58:36.001Z</time></trkpt><trkpt lat="43.138079703147625" lon="-3.9006838964396664"><ele>319.0</ele><time>2026-05-02T10:58:37.001Z</time></trkpt><trkpt lat="43.13797233554261" lon="-3.9006505461978698"><ele>319.0</ele><time>2026-05-02T10:58:38.001Z</time></trkpt><trkpt lat="43.13786724375635" lon="-3.9006241130341603"><ele>319.2</ele><time>2026-05-02T10:58:39.001Z</time></trkpt><trkpt lat="43.13776281297352" lon="-3.9005951541930037"><ele>319.4</ele><time>2026-05-02T10:58:40.001Z</time></trkpt><trkpt lat="43.137649970346935" lon="-3.900561809587486"><ele>319.6</ele><time>2026-05-02T10:58:41.001Z</time></trkpt><trkpt lat="43.13754617177799" lon="-3.90054167128961"><ele>319.8</ele><time>2026-05-02T10:58:42.001Z</time></trkpt><trkpt lat="43.13744065832357" lon="-3.9005085449794796"><ele>320.0</ele><time>2026-05-02T10:58:43Z</time></trkpt><trkpt lat="43.137336028321755" lon="-3.900480514634143"><ele>321.4</ele><time>2026-05-02T10:58:44Z</time></trkpt><trkpt lat="43.1372303334946" lon="-3.9004466427604325"><ele>322.8</ele><time>2026-05-02T10:58:45Z</time></trkpt><trkpt lat="43.13712726762625" lon="-3.900416617297019"><ele>324.20000000000005</ele><time>2026-05-02T10:58:46Z</time></trkpt><trkpt lat="43.13701891310146" lon="-3.900383047741621"><ele>325.6</ele><time>2026-05-02T10:58:47Z</time></trkpt><trkpt lat="43.136914425766484" lon="-3.900355833121392"><ele>327.0</ele><time>2026-05-02T10:58:48Z</time></trkpt><trkpt lat="43.13681070676091" lon="-3.9003302381314526"><ele>327.0</ele><time>2026-05-02T10:58:49Z</time></trkpt><trkpt lat="43.1367055086541" lon="-3.900306188213781"><ele>327.0</ele><time>2026-05-02T10:58:50Z</time></trkpt><trkpt lat="43.136602598333" lon="-3.900292488068648"><ele>327.0</ele><time>2026-05-02T10:58:51Z</time></trkpt><trkpt lat="43.13649527447883" lon="-3.900274856355222"><ele>327.0</ele><time>2026-05-02T10:58:52Z</time></trkpt><trkpt lat="43.136387143189864" lon="-3.9002599230536794"><ele>327.0</ele><time>2026-05-02T10:58:53Z</time></trkpt><trkpt lat="43.136277869426245" lon="-3.9002527286157878"><ele>326.6</ele><time>2026-05-02T10:58:54Z</time></trkpt><trkpt lat="43.13617183234381" lon="-3.90025222577179"><ele>326.20000000000005</ele><time>2026-05-02T10:58:55Z</time></trkpt><trkpt lat="43.136056935996194" lon="-3.900247279040737"><ele>325.8</ele><time>2026-05-02T10:58:56Z</time></trkpt><trkpt lat="43.13594674348862" lon="-3.900245060710998"><ele>325.4</ele><time>2026-05-02T10:58:57Z</time></trkpt><trkpt lat="43.13583017621869" lon="-3.9002546166761816"><ele>325.0</ele><time>2026-05-02T10:58:58Z</time></trkpt><trkpt lat="43.13571752278363" lon="-3.900267329395396"><ele>323.5</ele><time>2026-05-02T10:58:59Z</time></trkpt><trkpt lat="43.13560607427412" lon="-3.900277228573851"><ele>322.0</ele><time>2026-05-02T10:59:00Z</time></trkpt><trkpt lat="43.135493524969775" lon="-3.9002873967537486"><ele>320.5</ele><time>2026-05-02T10:59:01Z</time></trkpt><trkpt lat="43.135377281367255" lon="-3.900291354293396"><ele>319.0</ele><time>2026-05-02T10:59:02Z</time></trkpt><trkpt lat="43.135260356678835" lon="-3.9002965231222557"><ele>319.0</ele><time>2026-05-02T10:59:03Z</time></trkpt><trkpt lat="43.13514511514071" lon="-3.9003057898157567"><ele>319.0</ele><time>2026-05-02T10:59:04Z</time></trkpt><trkpt lat="43.13503390437437" lon="-3.900318184368566"><ele>319.0</ele><time>2026-05-02T10:59:05Z</time></trkpt><trkpt lat="43.13491978106259" lon="-3.900330113242595"><ele>319.0</ele><time>2026-05-02T10:59:06Z</time></trkpt><trkpt lat="43.134805617033514" lon="-3.900328778058527"><ele>320.4</ele><time>2026-05-02T10:59:07Z</time></trkpt><trkpt lat="43.1346932344435" lon="-3.9003311247686177"><ele>321.79999999999995</ele><time>2026-05-02T10:59:08Z</time></trkpt><trkpt lat="43.134580751425815" lon="-3.9003326390695805"><ele>323.20000000000005</ele><time>2026-05-02T10:59:09Z</time></trkpt><trkpt lat="43.1344702398416" lon="-3.9003292592729846"><ele>324.6</ele><time>2026-05-02T10:59:10Z</time></trkpt><trkpt lat="43.13436024625246" lon="-3.900319514146526"><ele>326.0</ele><time>2026-05-02T10:59:11Z</time></trkpt><trkpt lat="43.13425279861075" lon="-3.900302485267042"><ele>326.0</ele><time>2026-05-02T10:59:12Z</time></trkpt><trkpt lat="43.134144496305105" lon="-3.9003005345799346"><ele>326.0</ele><time>2026-05-02T10:59:13Z</time></trkpt><trkpt lat="43.13404465246293" lon="-3.9003346294117165"><ele>326.0</ele><time>2026-05-02T10:59:14Z</time></trkpt><trkpt lat="43.133947791690105" lon="-3.900312354670758"><ele>326.0</ele><time>2026-05-02T10:59:15Z</time></trkpt><trkpt lat="43.133849097827884" lon="-3.9002393768534556"><ele>326.0</ele><time>2026-05-02T10:59:16Z</time></trkpt><trkpt lat="43.13375201124652" lon="-3.900203939362665"><ele>330.4</ele><time>2026-05-02T10:59:17Z</time></trkpt><trkpt lat="43.13365727217973" lon="-3.900179283070477"><ele>334.8</ele><time>2026-05-02T10:59:18Z</time></trkpt><trkpt lat="43.13356366973589" lon="-3.9001560363509458"><ele>339.2</ele><time>2026-05-02T10:59:19Z</time></trkpt><trkpt lat="43.13347479221803" lon="-3.900130285206324"><ele>343.59999999999997</ele><time>2026-05-02T10:59:20Z</time></trkpt><trkpt lat="43.13338445158059" lon="-3.9001086758809245"><ele>348.0</ele><time>2026-05-02T10:59:21Z</time></trkpt><trkpt lat="43.133297118153166" lon="-3.900089132634791"><ele>343.0</ele><time>2026-05-02T10:59:22Z</time></trkpt><trkpt lat="43.13320997998605" lon="-3.900071256321251"><ele>338.0</ele><time>2026-05-02T10:59:23Z</time></trkpt><trkpt lat="43.13312420954399" lon="-3.900060844413646"><ele>333.0</ele><time>2026-05-02T10:59:24Z</time></trkpt><trkpt lat="43.133040251104454" lon="-3.900035303279975"><ele>328.0</ele><time>2026-05-02T10:59:25Z</time></trkpt><trkpt lat="43.132957730758555" lon="-3.900025560458692"><ele>323.0</ele><time>2026-05-02T10:59:26Z</time></trkpt><trkpt lat="43.13287319167791" lon="-3.9000038291313954"><ele>318.0</ele><time>2026-05-02T10:59:27Z</time></trkpt><trkpt lat="43.13279180092556" lon="-3.8999907689989954"><ele>318.0</ele><time>2026-05-02T10:59:28Z</time></trkpt><trkpt lat="43.1327132851749" lon="-3.899976899413811"><ele>318.0</ele><time>2026-05-02T10:59:29Z</time></trkpt><trkpt lat="43.13262806507247" lon="-3.8999735818890002"><ele>318.0</ele><time>2026-05-02T10:59:30Z</time></trkpt><trkpt lat="43.13255503389793" lon="-3.8999527202970112"><ele>318.0</ele><time>2026-05-02T10:59:31Z</time></trkpt><trkpt lat="43.132482436993726" lon="-3.899948138443021"><ele>318.0</ele><time>2026-05-02T10:59:32Z</time></trkpt><trkpt lat="43.132407928847414" lon="-3.8999328452531143"><ele>318.0</ele><time>2026-05-02T10:59:33.001Z</time></trkpt><trkpt lat="43.13232961187158" lon="-3.8999180166983463"><ele>318.5</ele><time>2026-05-02T10:59:34.001Z</time></trkpt><trkpt lat="43.1322536158373" lon="-3.899912785105211"><ele>319.0</ele><time>2026-05-02T10:59:35.001Z</time></trkpt><trkpt lat="43.13218184791917" lon="-3.8999057820819165"><ele>319.5</ele><time>2026-05-02T10:59:36.001Z</time></trkpt><trkpt lat="43.13210837006901" lon="-3.899897059406229"><ele>320.0</ele><time>2026-05-02T10:59:37.001Z</time></trkpt><trkpt lat="43.13203793532838" lon="-3.899907613071777"><ele>320.5</ele><time>2026-05-02T10:59:38.001Z</time></trkpt><trkpt lat="43.13195987083563" lon="-3.8998940621831157"><ele>321.0</ele><time>2026-05-02T10:59:39.001Z</time></trkpt><trkpt lat="43.13188041548342" lon="-3.899889283611066"><ele>321.0</ele><time>2026-05-02T10:59:40.001Z</time></trkpt><trkpt lat="43.13180259265378" lon="-3.899888794387233"><ele>321.0</ele><time>2026-05-02T10:59:41.001Z</time></trkpt><trkpt lat="43.131718885288855" lon="-3.8998815972809666"><ele>321.0</ele><time>2026-05-02T10:59:42.001Z</time></trkpt><trkpt lat="43.13163302129094" lon="-3.8998709623267316"><ele>321.0</ele><time>2026-05-02T10:59:43.001Z</time></trkpt><trkpt lat="43.13154694135059" lon="-3.899863708592265"><ele>321.0</ele><time>2026-05-02T10:59:44.001Z</time></trkpt><trkpt lat="43.13145640939552" lon="-3.8998611346391927"><ele>321.0</ele><time>2026-05-02T10:59:45.001Z</time></trkpt><trkpt lat="43.13136240894425" lon="-3.899843448011313"><ele>322.0</ele><time>2026-05-02T10:59:46.001Z</time></trkpt><trkpt lat="43.131272946282486" lon="-3.8998455558588887"><ele>323.0</ele><time>2026-05-02T10:59:47.001Z</time></trkpt><trkpt lat="43.13117999350248" lon="-3.899829003470736"><ele>324.0</ele><time>2026-05-02T10:59:48.001Z</time></trkpt><trkpt lat="43.13108686504337" lon="-3.8998252587092113"><ele>325.0</ele><time>2026-05-02T10:59:49.001Z</time></trkpt><trkpt lat="43.13099012836968" lon="-3.8998009873335016"><ele>326.0</ele><time>2026-05-02T10:59:50.001Z</time></trkpt><trkpt lat="43.130895596345674" lon="-3.8997893242763038"><ele>326.0</ele><time>2026-05-02T10:59:51.001Z</time></trkpt><trkpt lat="43.13079555973306" lon="-3.8997808941184067"><ele>326.0</ele><time>2026-05-02T10:59:52.001Z</time></trkpt><trkpt lat="43.13069427053359" lon="-3.8997714983673357"><ele>326.0</ele><time>2026-05-02T10:59:53.001Z</time></trkpt><trkpt lat="43.130591941866236" lon="-3.8997659902662396"><ele>326.0</ele><time>2026-05-02T10:59:54.001Z</time></trkpt><trkpt lat="43.13048749188661" lon="-3.899757494303865"><ele>326.0</ele><time>2026-05-02T10:59:55.001Z</time></trkpt><trkpt lat="43.13037992810327" lon="-3.89975785007211"><ele>325.4</ele><time>2026-05-02T10:59:56.001Z</time></trkpt><trkpt lat="43.13029364193418" lon="-3.8997456763547538"><ele>324.8</ele><time>2026-05-02T10:59:57.001Z</time></trkpt><trkpt lat="43.13018991527543" lon="-3.8997570683684057"><ele>324.2</ele><time>2026-05-02T10:59:58.001Z</time></trkpt><trkpt lat="43.13008073220879" lon="-3.8997797983952727"><ele>323.59999999999997</ele><time>2026-05-02T10:59:59.001Z</time></trkpt><trkpt lat="43.12997180560836" lon="-3.899808137443968"><ele>323.0</ele><time>2026-05-02T11:00:00.001Z</time></trkpt><trkpt lat="43.12986424791546" lon="-3.899846037141945"><ele>325.59999999999997</ele><time>2026-05-02T11:00:01.001Z</time></trkpt><trkpt lat="43.12975569438569" lon="-3.899892538455639"><ele>328.2</ele><time>2026-05-02T11:00:02.001Z</time></trkpt><trkpt lat="43.129654659220215" lon="-3.8999457796067674"><ele>330.8</ele><time>2026-05-02T11:00:03.001Z</time></trkpt><trkpt lat="43.129557965389814" lon="-3.900003363259704"><ele>333.4</ele><time>2026-05-02T11:00:04.001Z</time></trkpt><trkpt lat="43.12945636506047" lon="-3.9000576100902755"><ele>336.0</ele><time>2026-05-02T11:00:05.001Z</time></trkpt><trkpt lat="43.12935595796707" lon="-3.9001221486974362"><ele>336.0</ele><time>2026-05-02T11:00:06.001Z</time></trkpt><trkpt lat="43.12925811792384" lon="-3.9001908652503787"><ele>336.0</ele><time>2026-05-02T11:00:07.001Z</time></trkpt><trkpt lat="43.129154985973656" lon="-3.9002637341933903"><ele>336.0</ele><time>2026-05-02T11:00:08.001Z</time></trkpt><trkpt lat="43.129055000118754" lon="-3.900327978039713"><ele>336.0</ele><time>2026-05-02T11:00:09.001Z</time></trkpt><trkpt lat="43.12895034881501" lon="-3.9003929603874066"><ele>331.8</ele><time>2026-05-02T11:00:10.001Z</time></trkpt><trkpt lat="43.12885564393853" lon="-3.9004598597604843"><ele>327.6</ele><time>2026-05-02T11:00:11.001Z</time></trkpt><trkpt lat="43.12875646794995" lon="-3.900527469870347"><ele>323.4</ele><time>2026-05-02T11:00:12.001Z</time></trkpt><trkpt lat="43.12866241206097" lon="-3.900592031211865"><ele>319.2</ele><time>2026-05-02T11:00:13.001Z</time></trkpt><trkpt lat="43.12856645221938" lon="-3.9006575939810624"><ele>315.0</ele><time>2026-05-02T11:00:14.001Z</time></trkpt><trkpt lat="43.12846929978933" lon="-3.9007185945232807"><ele>315.0</ele><time>2026-05-02T11:00:15.001Z</time></trkpt><trkpt lat="43.12837212427381" lon="-3.9007780757965014"><ele>315.0</ele><time>2026-05-02T11:00:16.001Z</time></trkpt><trkpt lat="43.1282769642971" lon="-3.900841151894313"><ele>315.0</ele><time>2026-05-02T11:00:17.001Z</time></trkpt><trkpt lat="43.12817781302595" lon="-3.9009059885690824"><ele>315.0</ele><time>2026-05-02T11:00:18.001Z</time></trkpt><trkpt lat="43.12808403331212" lon="-3.900965721187481"><ele>315.0</ele><time>2026-05-02T11:00:19.001Z</time></trkpt><trkpt lat="43.12798515410578" lon="-3.9010262520289625"><ele>317.4</ele><time>2026-05-02T11:00:20.001Z</time></trkpt><trkpt lat="43.12788794652643" lon="-3.9010851299563347"><ele>319.8</ele><time>2026-05-02T11:00:21.001Z</time></trkpt><trkpt lat="43.12779739058974" lon="-3.9011533216634398"><ele>322.20000000000005</ele><time>2026-05-02T11:00:22.001Z</time></trkpt><trkpt lat="43.1276995933596" lon="-3.9012055197735416"><ele>324.6</ele><time>2026-05-02T11:00:23.001Z</time></trkpt><trkpt lat="43.12760096503879" lon="-3.9012575549415973"><ele>327.0</ele><time>2026-05-02T11:00:24.001Z</time></trkpt><trkpt lat="43.127501881546934" lon="-3.901305339828954"><ele>325.40000000000003</ele><time>2026-05-02T11:00:25.001Z</time></trkpt><trkpt lat="43.12739295884181" lon="-3.9013459595452695"><ele>323.8</ele><time>2026-05-02T11:00:26.001Z</time></trkpt><trkpt lat="43.12728769143658" lon="-3.90138109355775"><ele>322.2</ele><time>2026-05-02T11:00:27.001Z</time></trkpt><trkpt lat="43.127179231110034" lon="-3.901409044639079"><ele>320.6</ele><time>2026-05-02T11:00:28.001Z</time></trkpt><trkpt lat="43.127076759767505" lon="-3.901420221645509"><ele>319.0</ele><time>2026-05-02T11:00:29.001Z</time></trkpt><trkpt lat="43.12697183159912" lon="-3.9014417012198046"><ele>319.0</ele><time>2026-05-02T11:00:30.001Z</time></trkpt><trkpt lat="43.12686728538698" lon="-3.901451169382231"><ele>319.0</ele><time>2026-05-02T11:00:31.001Z</time></trkpt><trkpt lat="43.12675853645342" lon="-3.901460260817441"><ele>319.0</ele><time>2026-05-02T11:00:32.001Z</time></trkpt><trkpt lat="43.12665078988541" lon="-3.901466157027964"><ele>319.0</ele><time>2026-05-02T11:00:33.001Z</time></trkpt><trkpt lat="43.12653854662572" lon="-3.9014790221424884"><ele>319.0</ele><time>2026-05-02T11:00:34.001Z</time></trkpt><trkpt lat="43.126430336322976" lon="-3.9015490432702955"><ele>317.75</ele><time>2026-05-02T11:00:35.001Z</time></trkpt><trkpt lat="43.12631600288017" lon="-3.9015717218816657"><ele>316.5</ele><time>2026-05-02T11:00:36.001Z</time></trkpt><trkpt lat="43.12620399170684" lon="-3.9014957984267746"><ele>315.25</ele><time>2026-05-02T11:00:37.001Z</time></trkpt><trkpt lat="43.12609284344805" lon="-3.9014969160727038"><ele>314.0</ele><time>2026-05-02T11:00:38.001Z</time></trkpt><trkpt lat="43.12597677255715" lon="-3.9014979244312715"><ele>314.0</ele><time>2026-05-02T11:00:39.001Z</time></trkpt><trkpt lat="43.125861212931035" lon="-3.9014950915494766"><ele>314.0</ele><time>2026-05-02T11:00:40.001Z</time></trkpt><trkpt lat="43.12575056324203" lon="-3.9014950140172444"><ele>314.0</ele><time>2026-05-02T11:00:41.001Z</time></trkpt><trkpt lat="43.12563937210487" lon="-3.901498073962266"><ele>314.0</ele><time>2026-05-02T11:00:42.001Z</time></trkpt><trkpt lat="43.12553185888269" lon="-3.901496732161986"><ele>314.0</ele><time>2026-05-02T11:00:43.001Z</time></trkpt><trkpt lat="43.12542302389073" lon="-3.9015012929521493"><ele>315.4</ele><time>2026-05-02T11:00:44.001Z</time></trkpt><trkpt lat="43.125314860381984" lon="-3.9015023803523343"><ele>316.79999999999995</ele><time>2026-05-02T11:00:45.001Z</time></trkpt><trkpt lat="43.125209795526295" lon="-3.901521608894507"><ele>318.20000000000005</ele><time>2026-05-02T11:00:46.001Z</time></trkpt><trkpt lat="43.125121632805204" lon="-3.9015545402353937"><ele>319.6</ele><time>2026-05-02T11:00:47.001Z</time></trkpt><trkpt lat="43.12498651714465" lon="-3.9015226230735585"><ele>321.0</ele><time>2026-05-02T11:00:48.001Z</time></trkpt><trkpt lat="43.124808093483445" lon="-3.9015141121074666"><ele>323.25</ele><time>2026-05-02T11:00:49Z</time></trkpt><trkpt lat="43.124629484714816" lon="-3.9015188786636195"><ele>325.5</ele><time>2026-05-02T11:00:50Z</time></trkpt><trkpt lat="43.12452853369797" lon="-3.901521572748863"><ele>327.75</ele><time>2026-05-02T11:00:51Z</time></trkpt><trkpt lat="43.12446905317762" lon="-3.90155703127322"><ele>330.0</ele><time>2026-05-02T11:00:54Z</time></trkpt><trkpt lat="43.124322812199445" lon="-3.9015394176374647"><ele>330.0</ele><time>2026-05-02T11:00:55Z</time></trkpt><trkpt lat="43.124196345914214" lon="-3.9015396343205646"><ele>330.0</ele><time>2026-05-02T11:00:56Z</time></trkpt><trkpt lat="43.12410225838995" lon="-3.90154292178553"><ele>330.0</ele><time>2026-05-02T11:00:57Z</time></trkpt><trkpt lat="43.12401234060159" lon="-3.90154784705754"><ele>330.0</ele><time>2026-05-02T11:00:58Z</time></trkpt><trkpt lat="43.123926823843284" lon="-3.9015635819250836"><ele>330.0</ele><time>2026-05-02T11:00:59Z</time></trkpt><trkpt lat="43.12383989226828" lon="-3.9015746570702468"><ele>329.8333333333333</ele><time>2026-05-02T11:01:00Z</time></trkpt><trkpt lat="43.1237559014785" lon="-3.901596180749632"><ele>329.6666666666667</ele><time>2026-05-02T11:01:01Z</time></trkpt><trkpt lat="43.12367253155638" lon="-3.9016230220581116"><ele>329.5</ele><time>2026-05-02T11:01:02Z</time></trkpt><trkpt lat="43.12358679282666" lon="-3.901642259715"><ele>329.33333333333337</ele><time>2026-05-02T11:01:03Z</time></trkpt><trkpt lat="43.123501475235074" lon="-3.9016717181306673"><ele>329.1666666666667</ele><time>2026-05-02T11:01:04Z</time></trkpt><trkpt lat="43.12341838323977" lon="-3.901703394346967"><ele>329.0</ele><time>2026-05-02T11:01:05Z</time></trkpt><trkpt lat="43.12333327479462" lon="-3.901741700890799"><ele>329.6</ele><time>2026-05-02T11:01:06Z</time></trkpt><trkpt lat="43.12324601181313" lon="-3.9017757761290355"><ele>330.2</ele><time>2026-05-02T11:01:07Z</time></trkpt><trkpt lat="43.12315851387476" lon="-3.9018155131485885"><ele>330.8</ele><time>2026-05-02T11:01:08Z</time></trkpt><trkpt lat="43.12306992275352" lon="-3.9018528851809298"><ele>331.40000000000003</ele><time>2026-05-02T11:01:09Z</time></trkpt><trkpt lat="43.12298164315535" lon="-3.901901628873611"><ele>332.0</ele><time>2026-05-02T11:01:10Z</time></trkpt><trkpt lat="43.12288673786427" lon="-3.9019424907733304"><ele>332.0</ele><time>2026-05-02T11:01:11Z</time></trkpt><trkpt lat="43.12279155844988" lon="-3.901989073879922"><ele>332.0</ele><time>2026-05-02T11:01:12Z</time></trkpt><trkpt lat="43.1226954738075" lon="-3.9020460122157896"><ele>332.0</ele><time>2026-05-02T11:01:13Z</time></trkpt><trkpt lat="43.12259394350068" lon="-3.902094894547328"><ele>332.0</ele><time>2026-05-02T11:01:14Z</time></trkpt><trkpt lat="43.12251425328086" lon="-3.9021826126266266"><ele>332.0</ele><time>2026-05-02T11:01:15Z</time></trkpt><trkpt lat="43.12243038682125" lon="-3.9022589331597817"><ele>329.5</ele><time>2026-05-02T11:01:16Z</time></trkpt><trkpt lat="43.122282533526594" lon="-3.902239092276641"><ele>327.0</ele><time>2026-05-02T11:01:17Z</time></trkpt><trkpt lat="43.12216590147856" lon="-3.9022946499733093"><ele>324.5</ele><time>2026-05-02T11:01:18Z</time></trkpt><trkpt lat="43.122099234285855" lon="-3.9023259964787083"><ele>322.0</ele><time>2026-05-02T11:01:19Z</time></trkpt><trkpt lat="43.12197547440701" lon="-3.902386562742046"><ele>322.0</ele><time>2026-05-02T11:01:20Z</time></trkpt><trkpt lat="43.12186669681909" lon="-3.902434237550764"><ele>322.0</ele><time>2026-05-02T11:01:21Z</time></trkpt><trkpt lat="43.12175757531546" lon="-3.9024812842978864"><ele>322.0</ele><time>2026-05-02T11:01:22Z</time></trkpt><trkpt lat="43.121652027515395" lon="-3.9025298980154806"><ele>322.0</ele><time>2026-05-02T11:01:23Z</time></trkpt><trkpt lat="43.12154419266422" lon="-3.9025796133292565"><ele>324.40000000000003</ele><time>2026-05-02T11:01:24Z</time></trkpt><trkpt lat="43.121437686507" lon="-3.902626111251723"><ele>326.8</ele><time>2026-05-02T11:01:25Z</time></trkpt><trkpt lat="43.12133373979738" lon="-3.9026719842380975"><ele>329.2</ele><time>2026-05-02T11:01:26Z</time></trkpt><trkpt lat="43.12122989419575" lon="-3.9027208916224336"><ele>331.6</ele><time>2026-05-02T11:01:27Z</time></trkpt><trkpt lat="43.12112836019437" lon="-3.902767085272873"><ele>334.0</ele><time>2026-05-02T11:01:28Z</time></trkpt><trkpt lat="43.121029187403025" lon="-3.9028142863398494"><ele>334.0</ele><time>2026-05-02T11:01:29Z</time></trkpt><trkpt lat="43.12092830856105" lon="-3.9028548488547643"><ele>334.0</ele><time>2026-05-02T11:01:30Z</time></trkpt><trkpt lat="43.1208249012991" lon="-3.90287728353881"><ele>334.0</ele><time>2026-05-02T11:01:31Z</time></trkpt><trkpt lat="43.12071685209769" lon="-3.9028869045417984"><ele>334.0</ele><time>2026-05-02T11:01:32Z</time></trkpt><trkpt lat="43.120612116251586" lon="-3.9028901973487202"><ele>334.0</ele><time>2026-05-02T11:01:33Z</time></trkpt><trkpt lat="43.12050751633328" lon="-3.902885531452866"><ele>337.4</ele><time>2026-05-02T11:01:34Z</time></trkpt><trkpt lat="43.12040315770056" lon="-3.9028660116099565"><ele>340.79999999999995</ele><time>2026-05-02T11:01:35Z</time></trkpt><trkpt lat="43.12030435048791" lon="-3.9028384440064614"><ele>344.20000000000005</ele><time>2026-05-02T11:01:36Z</time></trkpt><trkpt lat="43.120210112628136" lon="-3.902797520881065"><ele>347.6</ele><time>2026-05-02T11:01:37Z</time></trkpt><trkpt lat="43.120123712383474" lon="-3.9027472895831687"><ele>351.0</ele><time>2026-05-02T11:01:38Z</time></trkpt><trkpt lat="43.120038901332094" lon="-3.9026784121538474"><ele>351.0</ele><time>2026-05-02T11:01:39Z</time></trkpt><trkpt lat="43.119959304703926" lon="-3.9026054505602943"><ele>351.0</ele><time>2026-05-02T11:01:40Z</time></trkpt><trkpt lat="43.119886230285864" lon="-3.90253502376105"><ele>351.0</ele><time>2026-05-02T11:01:41Z</time></trkpt><trkpt lat="43.11981152562133" lon="-3.9024340849268686"><ele>351.0</ele><time>2026-05-02T11:01:42Z</time></trkpt><trkpt lat="43.119738739666765" lon="-3.902364456771556"><ele>351.0</ele><time>2026-05-02T11:01:43Z</time></trkpt><trkpt lat="43.11966655269348" lon="-3.902291010085688"><ele>349.8333333333333</ele><time>2026-05-02T11:01:44Z</time></trkpt><trkpt lat="43.11959018395545" lon="-3.902220355583599"><ele>348.6666666666667</ele><time>2026-05-02T11:01:45Z</time></trkpt><trkpt lat="43.11951793497256" lon="-3.902156981199756"><ele>347.5</ele><time>2026-05-02T11:01:46Z</time></trkpt><trkpt lat="43.119438390465824" lon="-3.9021003185986327"><ele>346.33333333333337</ele><time>2026-05-02T11:01:47Z</time></trkpt><trkpt lat="43.119362266031274" lon="-3.9020490859674677"><ele>345.1666666666667</ele><time>2026-05-02T11:01:48Z</time></trkpt><trkpt lat="43.11927835653615" lon="-3.9020042247295383"><ele>344.0</ele><time>2026-05-02T11:01:49Z</time></trkpt><trkpt lat="43.119198362801434" lon="-3.9019815324569436"><ele>344.0</ele><time>2026-05-02T11:01:50.001Z</time></trkpt><trkpt lat="43.11911400704716" lon="-3.901964164447379"><ele>344.0</ele><time>2026-05-02T11:01:51.001Z</time></trkpt><trkpt lat="43.11902452867917" lon="-3.9019484117569396"><ele>344.0</ele><time>2026-05-02T11:01:52.001Z</time></trkpt><trkpt lat="43.11893906857565" lon="-3.901941134653583"><ele>344.0</ele><time>2026-05-02T11:01:53.001Z</time></trkpt><trkpt lat="43.118850875128025" lon="-3.9019500935640874"><ele>344.0</ele><time>2026-05-02T11:01:54.001Z</time></trkpt><trkpt lat="43.11876127846776" lon="-3.9019705281893504"><ele>344.0</ele><time>2026-05-02T11:01:55.001Z</time></trkpt><trkpt lat="43.11866682764897" lon="-3.9019980112191286"><ele>346.2</ele><time>2026-05-02T11:01:56.001Z</time></trkpt><trkpt lat="43.11857332656957" lon="-3.902023928588781"><ele>348.4</ele><time>2026-05-02T11:01:57.001Z</time></trkpt><trkpt lat="43.1184837534733" lon="-3.902056513121966"><ele>350.6</ele><time>2026-05-02T11:01:58.001Z</time></trkpt><trkpt lat="43.11839015152784" lon="-3.902090873321681"><ele>352.8</ele><time>2026-05-02T11:01:59.001Z</time></trkpt><trkpt lat="43.118297554664814" lon="-3.9021254718643"><ele>355.0</ele><time>2026-05-02T11:02:00.001Z</time></trkpt><trkpt lat="43.1182037068073" lon="-3.9021600002710333"><ele>357.8</ele><time>2026-05-02T11:02:01.001Z</time></trkpt><trkpt lat="43.118108290090674" lon="-3.90219014242908"><ele>360.6</ele><time>2026-05-02T11:02:02.001Z</time></trkpt><trkpt lat="43.11801301171398" lon="-3.902222028687984"><ele>363.4</ele><time>2026-05-02T11:02:03.001Z</time></trkpt><trkpt lat="43.117915450672136" lon="-3.9022402307382626"><ele>366.2</ele><time>2026-05-02T11:02:04.001Z</time></trkpt><trkpt lat="43.11781580791105" lon="-3.9022533551321055"><ele>369.0</ele><time>2026-05-02T11:02:05.001Z</time></trkpt><trkpt lat="43.11771357294897" lon="-3.902258431323412"><ele>369.0</ele><time>2026-05-02T11:02:06.001Z</time></trkpt><trkpt lat="43.11761478577354" lon="-3.902256150756264"><ele>369.0</ele><time>2026-05-02T11:02:07.001Z</time></trkpt><trkpt lat="43.117513133676326" lon="-3.9022396780012794"><ele>369.0</ele><time>2026-05-02T11:02:08.001Z</time></trkpt><trkpt lat="43.117412423273635" lon="-3.902226789658468"><ele>369.0</ele><time>2026-05-02T11:02:09.001Z</time></trkpt><trkpt lat="43.1173127128442" lon="-3.9022214383283536"><ele>369.0</ele><time>2026-05-02T11:02:10.001Z</time></trkpt><trkpt lat="43.11721383440679" lon="-3.9022004118705125"><ele>369.4</ele><time>2026-05-02T11:02:11.001Z</time></trkpt><trkpt lat="43.11711080044832" lon="-3.9021815015697525"><ele>369.79999999999995</ele><time>2026-05-02T11:02:12.001Z</time></trkpt><trkpt lat="43.11701226364043" lon="-3.902170903940938"><ele>370.20000000000005</ele><time>2026-05-02T11:02:13.001Z</time></trkpt><trkpt lat="43.116913329910446" lon="-3.9021502452492594"><ele>370.6</ele><time>2026-05-02T11:02:14.001Z</time></trkpt><trkpt lat="43.11681548953563" lon="-3.9021359946412333"><ele>371.0</ele><time>2026-05-02T11:02:15.001Z</time></trkpt><trkpt lat="43.11671688731262" lon="-3.9021154238415017"><ele>371.0</ele><time>2026-05-02T11:02:16.001Z</time></trkpt><trkpt lat="43.116618855765005" lon="-3.902105204207732"><ele>371.0</ele><time>2026-05-02T11:02:17.001Z</time></trkpt><trkpt lat="43.11652240121661" lon="-3.902089332072706"><ele>371.0</ele><time>2026-05-02T11:02:18.001Z</time></trkpt><trkpt lat="43.11642264946942" lon="-3.90206866918833"><ele>371.0</ele><time>2026-05-02T11:02:19.001Z</time></trkpt><trkpt lat="43.11632570958456" lon="-3.902072313519748"><ele>371.0</ele><time>2026-05-02T11:02:20.001Z</time></trkpt><trkpt lat="43.11622149622287" lon="-3.902051301492125"><ele>369.8</ele><time>2026-05-02T11:02:21.001Z</time></trkpt><trkpt lat="43.11611831797626" lon="-3.9020362252382834"><ele>368.6</ele><time>2026-05-02T11:02:22.001Z</time></trkpt><trkpt lat="43.11601610352706" lon="-3.902017714003345"><ele>367.4</ele><time>2026-05-02T11:02:23.001Z</time></trkpt><trkpt lat="43.11591042538453" lon="-3.9019985702486535"><ele>366.2</ele><time>2026-05-02T11:02:24.001Z</time></trkpt><trkpt lat="43.11580340035537" lon="-3.901979861836958"><ele>365.0</ele><time>2026-05-02T11:02:25.001Z</time></trkpt><trkpt lat="43.11569648898688" lon="-3.901964718995116"><ele>365.0</ele><time>2026-05-02T11:02:26.001Z</time></trkpt><trkpt lat="43.115587461686545" lon="-3.9019413296212075"><ele>365.0</ele><time>2026-05-02T11:02:27.001Z</time></trkpt><trkpt lat="43.115480325005784" lon="-3.9019254492773947"><ele>365.0</ele><time>2026-05-02T11:02:28.001Z</time></trkpt><trkpt lat="43.115371559121854" lon="-3.901905069713621"><ele>365.0</ele><time>2026-05-02T11:02:29.001Z</time></trkpt><trkpt lat="43.11526622285146" lon="-3.9019014113151465"><ele>365.0</ele><time>2026-05-02T11:02:30.001Z</time></trkpt><trkpt lat="43.1151591233022" lon="-3.9018807507861166"><ele>365.0</ele><time>2026-05-02T11:02:31.001Z</time></trkpt><trkpt lat="43.115054580133425" lon="-3.9018648942833"><ele>365.0</ele><time>2026-05-02T11:02:32.001Z</time></trkpt><trkpt lat="43.114946868826244" lon="-3.9018540323303776"><ele>365.0</ele><time>2026-05-02T11:02:33.001Z</time></trkpt><trkpt lat="43.114835432486295" lon="-3.9018441679040117"><ele>365.0</ele><time>2026-05-02T11:02:34.001Z</time></trkpt><trkpt lat="43.11473188973624" lon="-3.9018318904161258"><ele>365.0</ele><time>2026-05-02T11:02:35.001Z</time></trkpt><trkpt lat="43.11462239117372" lon="-3.901826784678894"><ele>365.6</ele><time>2026-05-02T11:02:36.001Z</time></trkpt><trkpt lat="43.114502042677316" lon="-3.9018263317734427"><ele>366.2</ele><time>2026-05-02T11:02:37.001Z</time></trkpt><trkpt lat="43.114397850570406" lon="-3.9018212677387125"><ele>366.79999999999995</ele><time>2026-05-02T11:02:38.001Z</time></trkpt><trkpt lat="43.11429661181548" lon="-3.901821428390191"><ele>367.4</ele><time>2026-05-02T11:02:39.001Z</time></trkpt><trkpt lat="43.11421701578188" lon="-3.9018204390052924"><ele>368.0</ele><time>2026-05-02T11:02:40.001Z</time></trkpt><trkpt lat="43.11416303069737" lon="-3.901866493416142"><ele>368.0</ele><time>2026-05-02T11:02:41.001Z</time></trkpt><trkpt lat="43.114111157211696" lon="-3.901919886702492"><ele>368.0</ele><time>2026-05-02T11:02:42.001Z</time></trkpt><trkpt lat="43.11385687185299" lon="-3.9018129911493142"><ele>368.0</ele><time>2026-05-02T11:02:43.001Z</time></trkpt><trkpt lat="43.11374662472219" lon="-3.901814563040606"><ele>368.0</ele><time>2026-05-02T11:02:44.001Z</time></trkpt><trkpt lat="43.11363958277095" lon="-3.9018302714750077"><ele>369.0</ele><time>2026-05-02T11:02:45.001Z</time></trkpt><trkpt lat="43.11352792854001" lon="-3.9018293350366164"><ele>370.0</ele><time>2026-05-02T11:02:46.001Z</time></trkpt><trkpt lat="43.113414184219515" lon="-3.9018273479024437"><ele>371.0</ele><time>2026-05-02T11:02:47.001Z</time></trkpt><trkpt lat="43.11330888236743" lon="-3.9018239452082524"><ele>372.0</ele><time>2026-05-02T11:02:48.001Z</time></trkpt><trkpt lat="43.113199741629465" lon="-3.90182354657699"><ele>373.0</ele><time>2026-05-02T11:02:49.001Z</time></trkpt><trkpt lat="43.11309508514356" lon="-3.901815620009163"><ele>374.0</ele><time>2026-05-02T11:02:50.001Z</time></trkpt><trkpt lat="43.112990470652996" lon="-3.901810345651051"><ele>375.0</ele><time>2026-05-02T11:02:51.001Z</time></trkpt><trkpt lat="43.11288862417761" lon="-3.9018109085459907"><ele>376.0</ele><time>2026-05-02T11:02:52.001Z</time></trkpt><trkpt lat="43.11278480506217" lon="-3.9018122104631234"><ele>377.0</ele><time>2026-05-02T11:02:53.001Z</time></trkpt><trkpt lat="43.11267894145992" lon="-3.901823152649312"><ele>378.0</ele><time>2026-05-02T11:02:54.001Z</time></trkpt><trkpt lat="43.11257130931556" lon="-3.901838491656872"><ele>378.0</ele><time>2026-05-02T11:02:55Z</time></trkpt><trkpt lat="43.11246049103835" lon="-3.9018477878102473"><ele>378.0</ele><time>2026-05-02T11:02:56Z</time></trkpt><trkpt lat="43.11235221512198" lon="-3.9018524941949786"><ele>378.0</ele><time>2026-05-02T11:02:57Z</time></trkpt><trkpt lat="43.11224734082792" lon="-3.90185938062357"><ele>378.0</ele><time>2026-05-02T11:02:58Z</time></trkpt><trkpt lat="43.11213731559259" lon="-3.9018689217461073"><ele>378.0</ele><time>2026-05-02T11:02:59Z</time></trkpt><trkpt lat="43.11203098450761" lon="-3.9018798166211637"><ele>376.79999999999995</ele><time>2026-05-02T11:03:00Z</time></trkpt><trkpt lat="43.11192490843902" lon="-3.9018868891442566"><ele>375.6</ele><time>2026-05-02T11:03:01Z</time></trkpt><trkpt lat="43.11181428266064" lon="-3.9018835127887717"><ele>374.4</ele><time>2026-05-02T11:03:02Z</time></trkpt><trkpt lat="43.11170778618111" lon="-3.901891991852389"><ele>373.20000000000005</ele><time>2026-05-02T11:03:03Z</time></trkpt><trkpt lat="43.111599419453206" lon="-3.901904540526218"><ele>372.0</ele><time>2026-05-02T11:03:04Z</time></trkpt><trkpt lat="43.11149627027414" lon="-3.9019391573257183"><ele>372.0</ele><time>2026-05-02T11:03:05Z</time></trkpt><trkpt lat="43.11139199878336" lon="-3.9019490178699536"><ele>372.0</ele><time>2026-05-02T11:03:06Z</time></trkpt><trkpt lat="43.1112893802599" lon="-3.9019578207030676"><ele>372.0</ele><time>2026-05-02T11:03:07Z</time></trkpt><trkpt lat="43.11118437102255" lon="-3.90196834836715"><ele>372.0</ele><time>2026-05-02T11:03:08Z</time></trkpt><trkpt lat="43.11107928217094" lon="-3.901982250018454"><ele>372.0</ele><time>2026-05-02T11:03:09Z</time></trkpt><trkpt lat="43.110977935760616" lon="-3.9020030092218825"><ele>372.0</ele><time>2026-05-02T11:03:10Z</time></trkpt><trkpt lat="43.110873227535436" lon="-3.9020295969019867"><ele>372.0</ele><time>2026-05-02T11:03:11Z</time></trkpt><trkpt lat="43.110775268113464" lon="-3.9020670991341726"><ele>372.0</ele><time>2026-05-02T11:03:12Z</time></trkpt><trkpt lat="43.11067842189821" lon="-3.9021030512875776"><ele>372.0</ele><time>2026-05-02T11:03:13Z</time></trkpt><trkpt lat="43.11058098288814" lon="-3.9021468937438244"><ele>372.0</ele><time>2026-05-02T11:03:14Z</time></trkpt><trkpt lat="43.11048543080613" lon="-3.9021917273238933"><ele>370.8</ele><time>2026-05-02T11:03:15Z</time></trkpt><trkpt lat="43.11038900082625" lon="-3.902235766872525"><ele>369.6</ele><time>2026-05-02T11:03:16Z</time></trkpt><trkpt lat="43.11029359196956" lon="-3.9022777717210793"><ele>368.40000000000003</ele><time>2026-05-02T11:03:17Z</time></trkpt><trkpt lat="43.11020062101691" lon="-3.9023216496453523"><ele>367.20000000000005</ele><time>2026-05-02T11:03:18Z</time></trkpt><trkpt lat="43.11010758044338" lon="-3.9023644424648576"><ele>366.0</ele><time>2026-05-02T11:03:19Z</time></trkpt><trkpt lat="43.110018048622024" lon="-3.9024052846849924"><ele>366.0</ele><time>2026-05-02T11:03:20Z</time></trkpt><trkpt lat="43.109927244129025" lon="-3.902442770756886"><ele>366.0</ele><time>2026-05-02T11:03:21Z</time></trkpt><trkpt lat="43.10983921918732" lon="-3.902472677877181"><ele>366.0</ele><time>2026-05-02T11:03:22Z</time></trkpt><trkpt lat="43.10975235126199" lon="-3.902500158009232"><ele>366.0</ele><time>2026-05-02T11:03:23Z</time></trkpt><trkpt lat="43.10966459512066" lon="-3.9025194732993174"><ele>366.0</ele><time>2026-05-02T11:03:24Z</time></trkpt><trkpt lat="43.10957750384607" lon="-3.9025223304005703"><ele>367.0</ele><time>2026-05-02T11:03:25Z</time></trkpt><trkpt lat="43.109488853280624" lon="-3.902519778007344"><ele>368.0</ele><time>2026-05-02T11:03:26Z</time></trkpt><trkpt lat="43.10940394986053" lon="-3.9025326437169965"><ele>369.0</ele><time>2026-05-02T11:03:27Z</time></trkpt><trkpt lat="43.10931733456625" lon="-3.9025285102998386"><ele>370.0</ele><time>2026-05-02T11:03:28Z</time></trkpt><trkpt lat="43.10923196043839" lon="-3.9025199183402504"><ele>371.0</ele><time>2026-05-02T11:03:29Z</time></trkpt><trkpt lat="43.109145949113035" lon="-3.9025050378547994"><ele>372.0</ele><time>2026-05-02T11:03:30Z</time></trkpt><trkpt lat="43.10906052402936" lon="-3.9024931718685414"><ele>373.40000000000003</ele><time>2026-05-02T11:03:31Z</time></trkpt><trkpt lat="43.10897271520538" lon="-3.902478764353072"><ele>374.8</ele><time>2026-05-02T11:03:32Z</time></trkpt><trkpt lat="43.10888153871291" lon="-3.9024672445458424"><ele>376.2</ele><time>2026-05-02T11:03:33Z</time></trkpt><trkpt lat="43.108793066233126" lon="-3.902449214045091"><ele>377.6</ele><time>2026-05-02T11:03:34Z</time></trkpt><trkpt lat="43.10870133410143" lon="-3.902432607702153"><ele>379.0</ele><time>2026-05-02T11:03:35Z</time></trkpt><trkpt lat="43.10860631115427" lon="-3.9024202988603656"><ele>379.0</ele><time>2026-05-02T11:03:36Z</time></trkpt><trkpt lat="43.10851430788894" lon="-3.9024027039363807"><ele>379.0</ele><time>2026-05-02T11:03:37Z</time></trkpt><trkpt lat="43.10841695415015" lon="-3.9023797080376186"><ele>379.0</ele><time>2026-05-02T11:03:38Z</time></trkpt><trkpt lat="43.10832527276644" lon="-3.902360764365018"><ele>379.0</ele><time>2026-05-02T11:03:39Z</time></trkpt><trkpt lat="43.10822445087178" lon="-3.9023569894153867"><ele>379.0</ele><time>2026-05-02T11:03:40Z</time></trkpt><trkpt lat="43.10812717374645" lon="-3.9023467933096407"><ele>381.6</ele><time>2026-05-02T11:03:41Z</time></trkpt><trkpt lat="43.10802279347425" lon="-3.9023303630811292"><ele>384.2</ele><time>2026-05-02T11:03:42Z</time></trkpt><trkpt lat="43.10792101541869" lon="-3.902313200651166"><ele>386.8</ele><time>2026-05-02T11:03:43Z</time></trkpt><trkpt lat="43.1078359083945" lon="-3.9023000470235507"><ele>389.40000000000003</ele><time>2026-05-02T11:03:44Z</time></trkpt><trkpt lat="43.107768718422975" lon="-3.9022999826004536"><ele>392.0</ele><time>2026-05-02T11:03:45Z</time></trkpt><trkpt lat="43.10767124423687" lon="-3.902266830701824"><ele>392.0</ele><time>2026-05-02T11:03:47Z</time></trkpt><trkpt lat="43.10760278208058" lon="-3.9022583870799874"><ele>392.0</ele><time>2026-05-02T11:05:27Z</time></trkpt><trkpt lat="43.10753285672256" lon="-3.902226463180683"><ele>392.0</ele><time>2026-05-02T11:05:29Z</time></trkpt><trkpt lat="43.107444840203264" lon="-3.902175115042074"><ele>392.0</ele><time>2026-05-02T11:05:31Z</time></trkpt><trkpt lat="43.107352183787086" lon="-3.9021151406051655"><ele>392.0</ele><time>2026-05-02T11:05:32Z</time></trkpt><trkpt lat="43.107239535136074" lon="-3.9020486993535006"><ele>393.42857142857144</ele><time>2026-05-02T11:05:34Z</time></trkpt><trkpt lat="43.107174598672735" lon="-3.9020133178000282"><ele>394.8571428571429</ele><time>2026-05-02T11:05:35Z</time></trkpt><trkpt lat="43.10710720526704" lon="-3.9019786776893755"><ele>396.2857142857143</ele><time>2026-05-02T11:05:36Z</time></trkpt><trkpt lat="43.10703864487783" lon="-3.9019458109035767"><ele>397.7142857142857</ele><time>2026-05-02T11:05:37Z</time></trkpt><trkpt lat="43.10696881428289" lon="-3.901915378067198"><ele>399.14285714285717</ele><time>2026-05-02T11:05:38Z</time></trkpt><trkpt lat="43.106896067730254" lon="-3.9018864063933374"><ele>400.57142857142856</ele><time>2026-05-02T11:05:39Z</time></trkpt><trkpt lat="43.10682146144325" lon="-3.9018579849522617"><ele>402.0</ele><time>2026-05-02T11:05:40Z</time></trkpt><trkpt lat="43.10674492587972" lon="-3.9018327272419797"><ele>402.0</ele><time>2026-05-02T11:05:41Z</time></trkpt><trkpt lat="43.10666554501863" lon="-3.9017918407928587"><ele>402.0</ele><time>2026-05-02T11:05:42Z</time></trkpt><trkpt lat="43.10657801825153" lon="-3.9017645045769895"><ele>402.0</ele><time>2026-05-02T11:05:43Z</time></trkpt><trkpt lat="43.10649251841678" lon="-3.901748059780392"><ele>402.0</ele><time>2026-05-02T11:05:44Z</time></trkpt><trkpt lat="43.10640396080141" lon="-3.9017280423784872"><ele>402.0</ele><time>2026-05-02T11:05:45Z</time></trkpt><trkpt lat="43.10631506386396" lon="-3.90171209406001"><ele>402.0</ele><time>2026-05-02T11:05:46Z</time></trkpt><trkpt lat="43.106221773999415" lon="-3.901702848919112"><ele>401.20000000000005</ele><time>2026-05-02T11:05:47Z</time></trkpt><trkpt lat="43.10612698334269" lon="-3.9017071568137527"><ele>400.4</ele><time>2026-05-02T11:05:48Z</time></trkpt><trkpt lat="43.106035158464955" lon="-3.901755252853233"><ele>399.6</ele><time>2026-05-02T11:05:49Z</time></trkpt><trkpt lat="43.10593482414919" lon="-3.9017552772722617"><ele>398.79999999999995</ele><time>2026-05-02T11:05:50Z</time></trkpt><trkpt lat="43.105837597109094" lon="-3.901782524930771"><ele>398.0</ele><time>2026-05-02T11:05:51Z</time></trkpt><trkpt lat="43.10574281879763" lon="-3.9018103777639874"><ele>395.59999999999997</ele><time>2026-05-02T11:05:52Z</time></trkpt><trkpt lat="43.10564881169726" lon="-3.9018354067350347"><ele>393.2</ele><time>2026-05-02T11:05:53Z</time></trkpt><trkpt lat="43.10555141925562" lon="-3.901867674980211"><ele>390.8</ele><time>2026-05-02T11:05:54Z</time></trkpt><trkpt lat="43.105456328947426" lon="-3.9018976772691745"><ele>388.4</ele><time>2026-05-02T11:05:55Z</time></trkpt><trkpt lat="43.10535777495628" lon="-3.9019234602078767"><ele>386.0</ele><time>2026-05-02T11:05:56Z</time></trkpt><trkpt lat="43.10526086065021" lon="-3.9019510393501453"><ele>386.0</ele><time>2026-05-02T11:05:57.001Z</time></trkpt><trkpt lat="43.105165853514585" lon="-3.9019877614468967"><ele>386.0</ele><time>2026-05-02T11:05:58.001Z</time></trkpt><trkpt lat="43.10506814992517" lon="-3.902010198767432"><ele>386.0</ele><time>2026-05-02T11:05:59.001Z</time></trkpt><trkpt lat="43.10497125625566" lon="-3.902038813640168"><ele>386.0</ele><time>2026-05-02T11:06:00.001Z</time></trkpt><trkpt lat="43.10487629624317" lon="-3.9020632882008988"><ele>386.0</ele><time>2026-05-02T11:06:01.001Z</time></trkpt><trkpt lat="43.10478473123137" lon="-3.90209671909151"><ele>385.0</ele><time>2026-05-02T11:06:02.001Z</time></trkpt><trkpt lat="43.104688777597886" lon="-3.9021205407965236"><ele>384.0</ele><time>2026-05-02T11:06:03.001Z</time></trkpt><trkpt lat="43.1045894899144" lon="-3.9021475692084397"><ele>383.0</ele><time>2026-05-02T11:06:04.001Z</time></trkpt><trkpt lat="43.104490221292444" lon="-3.9021744503381552"><ele>382.0</ele><time>2026-05-02T11:06:05.001Z</time></trkpt><trkpt lat="43.10439070211755" lon="-3.9022025845011026"><ele>381.0</ele><time>2026-05-02T11:06:06.001Z</time></trkpt><trkpt lat="43.10428874976834" lon="-3.902227963464831"><ele>381.0</ele><time>2026-05-02T11:06:07.001Z</time></trkpt><trkpt lat="43.10418759550609" lon="-3.9022618114495424"><ele>381.0</ele><time>2026-05-02T11:06:08.001Z</time></trkpt><trkpt lat="43.10408243790482" lon="-3.902285328459866"><ele>381.0</ele><time>2026-05-02T11:06:09.001Z</time></trkpt><trkpt lat="43.103980037611976" lon="-3.902306701070797"><ele>381.0</ele><time>2026-05-02T11:06:10.001Z</time></trkpt><trkpt lat="43.10387561118099" lon="-3.9023310515899623"><ele>381.0</ele><time>2026-05-02T11:06:11.001Z</time></trkpt><trkpt lat="43.10377210202077" lon="-3.9023555045593055"><ele>380.0</ele><time>2026-05-02T11:06:12.001Z</time></trkpt><trkpt lat="43.10366701827665" lon="-3.9023786627844785"><ele>379.0</ele><time>2026-05-02T11:06:13.001Z</time></trkpt><trkpt lat="43.103559607879134" lon="-3.902400919998252"><ele>378.0</ele><time>2026-05-02T11:06:14.001Z</time></trkpt><trkpt lat="43.103454688139045" lon="-3.9024210670116624"><ele>377.0</ele><time>2026-05-02T11:06:15.001Z</time></trkpt><trkpt lat="43.10334400645628" lon="-3.9024533015232645"><ele>376.0</ele><time>2026-05-02T11:06:16.001Z</time></trkpt><trkpt lat="43.103244392671634" lon="-3.9024717545692647"><ele>375.20000000000005</ele><time>2026-05-02T11:06:17.001Z</time></trkpt><trkpt lat="43.10314012184186" lon="-3.9024991891877745"><ele>374.40000000000003</ele><time>2026-05-02T11:06:18.001Z</time></trkpt><trkpt lat="43.10303315205409" lon="-3.90251868267811"><ele>373.6</ele><time>2026-05-02T11:06:19.001Z</time></trkpt><trkpt lat="43.10292590316799" lon="-3.9025372722513243"><ele>372.8</ele><time>2026-05-02T11:06:20.001Z</time></trkpt><trkpt lat="43.10282089047537" lon="-3.902556550024205"><ele>372.0</ele><time>2026-05-02T11:06:21.001Z</time></trkpt><trkpt lat="43.102716225145166" lon="-3.9025747703709355"><ele>372.0</ele><time>2026-05-02T11:06:22.001Z</time></trkpt><trkpt lat="43.102609914586544" lon="-3.9025864597346294"><ele>372.0</ele><time>2026-05-02T11:06:23.001Z</time></trkpt><trkpt lat="43.10250141935873" lon="-3.902578549711482"><ele>372.0</ele><time>2026-05-02T11:06:24.001Z</time></trkpt><trkpt lat="43.102398822537474" lon="-3.90256789462356"><ele>372.0</ele><time>2026-05-02T11:06:25.001Z</time></trkpt><trkpt lat="43.10229240482309" lon="-3.9025717483375946"><ele>372.0</ele><time>2026-05-02T11:06:26.001Z</time></trkpt><trkpt lat="43.1021899393584" lon="-3.902568243910127"><ele>372.8</ele><time>2026-05-02T11:06:27.001Z</time></trkpt><trkpt lat="43.102085366336645" lon="-3.9025635549574815"><ele>373.6</ele><time>2026-05-02T11:06:28.001Z</time></trkpt><trkpt lat="43.10197927915516" lon="-3.9025568330572242"><ele>374.40000000000003</ele><time>2026-05-02T11:06:29.001Z</time></trkpt><trkpt lat="43.10187347525197" lon="-3.902551563318757"><ele>375.20000000000005</ele><time>2026-05-02T11:06:30.001Z</time></trkpt><trkpt lat="43.1017673826241" lon="-3.902556892071635"><ele>376.0</ele><time>2026-05-02T11:06:31.001Z</time></trkpt><trkpt lat="43.10166190586716" lon="-3.9025588240897173"><ele>376.20000000000005</ele><time>2026-05-02T11:06:32.001Z</time></trkpt><trkpt lat="43.10155334550401" lon="-3.9025477748815818"><ele>376.40000000000003</ele><time>2026-05-02T11:06:33.001Z</time></trkpt><trkpt lat="43.101446986299486" lon="-3.9025694150001176"><ele>376.6</ele><time>2026-05-02T11:06:34.001Z</time></trkpt><trkpt lat="43.101343003265676" lon="-3.9025519719396593"><ele>376.8</ele><time>2026-05-02T11:06:35.001Z</time></trkpt><trkpt lat="43.1012382625099" lon="-3.902560208490248"><ele>377.0</ele><time>2026-05-02T11:06:36.001Z</time></trkpt><trkpt lat="43.10113306908842" lon="-3.9025632533985384"><ele>377.0</ele><time>2026-05-02T11:06:37.001Z</time></trkpt><trkpt lat="43.10102112256912" lon="-3.902566805930441"><ele>377.0</ele><time>2026-05-02T11:06:38.001Z</time></trkpt><trkpt lat="43.10094025362427" lon="-3.9025734879007348"><ele>377.0</ele><time>2026-05-02T11:06:39.001Z</time></trkpt><trkpt lat="43.100865421170084" lon="-3.902574374073157"><ele>377.0</ele><time>2026-05-02T11:06:40.001Z</time></trkpt><trkpt lat="43.10078329864407" lon="-3.902543541197377"><ele>377.0</ele><time>2026-05-02T11:06:41.001Z</time></trkpt><trkpt lat="43.1006186926299" lon="-3.9025645716142443"><ele>378.5</ele><time>2026-05-02T11:06:42.001Z</time></trkpt><trkpt lat="43.10047385720678" lon="-3.9025682101297043"><ele>380.0</ele><time>2026-05-02T11:06:43.001Z</time></trkpt><trkpt lat="43.10036537011378" lon="-3.9025703946319172"><ele>381.5</ele><time>2026-05-02T11:06:44.001Z</time></trkpt><trkpt lat="43.10026216775706" lon="-3.902582997223558"><ele>383.0</ele><time>2026-05-02T11:06:45.001Z</time></trkpt><trkpt lat="43.10016454592069" lon="-3.902609877662913"><ele>385.79999999999995</ele><time>2026-05-02T11:06:46.001Z</time></trkpt><trkpt lat="43.10006322887993" lon="-3.9026398907676025"><ele>388.6</ele><time>2026-05-02T11:06:47.001Z</time></trkpt><trkpt lat="43.09996374451325" lon="-3.902672195607199"><ele>391.4</ele><time>2026-05-02T11:06:48.001Z</time></trkpt><trkpt lat="43.0998620109626" lon="-3.9027043561974697"><ele>394.20000000000005</ele><time>2026-05-02T11:06:49.001Z</time></trkpt><trkpt lat="43.09976918760652" lon="-3.9027332392399288"><ele>397.0</ele><time>2026-05-02T11:06:50.001Z</time></trkpt><trkpt lat="43.099679898574415" lon="-3.9027791080075382"><ele>397.0</ele><time>2026-05-02T11:06:51.001Z</time></trkpt><trkpt lat="43.099580012531405" lon="-3.902788489452486"><ele>397.0</ele><time>2026-05-02T11:06:52.001Z</time></trkpt><trkpt lat="43.09947214105659" lon="-3.902773677874657"><ele>397.0</ele><time>2026-05-02T11:06:53.001Z</time></trkpt><trkpt lat="43.099368716971746" lon="-3.9027386560901816"><ele>397.0</ele><time>2026-05-02T11:06:54.001Z</time></trkpt><trkpt lat="43.09926837609868" lon="-3.9026746137884567"><ele>397.0</ele><time>2026-05-02T11:06:55.001Z</time></trkpt><trkpt lat="43.099174326339316" lon="-3.9025873888036076"><ele>392.5</ele><time>2026-05-02T11:06:56.001Z</time></trkpt><trkpt lat="43.09909076291792" lon="-3.9024727000168764"><ele>388.0</ele><time>2026-05-02T11:06:57.001Z</time></trkpt><trkpt lat="43.099013765026584" lon="-3.9023513134535626"><ele>383.5</ele><time>2026-05-02T11:06:58.001Z</time></trkpt><trkpt lat="43.098950251670736" lon="-3.902221758091011"><ele>379.0</ele><time>2026-05-02T11:06:59.001Z</time></trkpt><trkpt lat="43.098882873103335" lon="-3.90209795928538"><ele>379.0</ele><time>2026-05-02T11:07:00.001Z</time></trkpt><trkpt lat="43.098821031204274" lon="-3.9019732824114888"><ele>379.0</ele><time>2026-05-02T11:07:01.001Z</time></trkpt><trkpt lat="43.09876035141825" lon="-3.9018498860209716"><ele>379.0</ele><time>2026-05-02T11:07:02.001Z</time></trkpt><trkpt lat="43.09869795089692" lon="-3.9017259584493975"><ele>379.0</ele><time>2026-05-02T11:07:03.001Z</time></trkpt><trkpt lat="43.09863772103346" lon="-3.9016068048060055"><ele>379.0</ele><time>2026-05-02T11:07:04.001Z</time></trkpt><trkpt lat="43.098573378290766" lon="-3.9014880191743178"><ele>379.79999999999995</ele><time>2026-05-02T11:07:05.001Z</time></trkpt><trkpt lat="43.098509930932686" lon="-3.9013746702326597"><ele>380.59999999999997</ele><time>2026-05-02T11:07:06.001Z</time></trkpt><trkpt lat="43.09845358630858" lon="-3.9012682136081422"><ele>381.4</ele><time>2026-05-02T11:07:07Z</time></trkpt><trkpt lat="43.09839210282633" lon="-3.901160076823219"><ele>382.2</ele><time>2026-05-02T11:07:08Z</time></trkpt><trkpt lat="43.0983315568881" lon="-3.901051273030624"><ele>383.0</ele><time>2026-05-02T11:07:09Z</time></trkpt><trkpt lat="43.098273073738994" lon="-3.9009470039554643"><ele>387.0</ele><time>2026-05-02T11:07:10Z</time></trkpt><trkpt lat="43.09821369710958" lon="-3.900842593415272"><ele>391.0</ele><time>2026-05-02T11:07:11Z</time></trkpt><trkpt lat="43.09815024910987" lon="-3.9007412517926494"><ele>395.0</ele><time>2026-05-02T11:07:12Z</time></trkpt><trkpt lat="43.09808267565157" lon="-3.9006510237052656"><ele>399.0</ele><time>2026-05-02T11:07:13Z</time></trkpt><trkpt lat="43.09800748171281" lon="-3.9005695425424496"><ele>403.0</ele><time>2026-05-02T11:07:14Z</time></trkpt><trkpt lat="43.097922324510705" lon="-3.9005071022469977"><ele>403.0</ele><time>2026-05-02T11:07:15Z</time></trkpt><trkpt lat="43.09782711935296" lon="-3.9004648772377988"><ele>403.0</ele><time>2026-05-02T11:07:16Z</time></trkpt><trkpt lat="43.09773064567754" lon="-3.9004481723298796"><ele>403.0</ele><time>2026-05-02T11:07:17Z</time></trkpt><trkpt lat="43.09763510290007" lon="-3.900435124473963"><ele>403.0</ele><time>2026-05-02T11:07:18Z</time></trkpt><trkpt lat="43.097540793764416" lon="-3.900408383451411"><ele>403.0</ele><time>2026-05-02T11:07:19Z</time></trkpt><trkpt lat="43.097449325066236" lon="-3.900378619274952"><ele>405.0</ele><time>2026-05-02T11:07:20Z</time></trkpt><trkpt lat="43.097356083036196" lon="-3.9003475393052174"><ele>407.0</ele><time>2026-05-02T11:07:21Z</time></trkpt><trkpt lat="43.09726548917696" lon="-3.900315980502209"><ele>409.0</ele><time>2026-05-02T11:07:22Z</time></trkpt><trkpt lat="43.09717181924162" lon="-3.900286243204102"><ele>411.0</ele><time>2026-05-02T11:07:23Z</time></trkpt><trkpt lat="43.09708473552908" lon="-3.9002517968538704"><ele>413.0</ele><time>2026-05-02T11:07:24Z</time></trkpt><trkpt lat="43.096997228831235" lon="-3.9002143082726337"><ele>412.99999999999994</ele><time>2026-05-02T11:07:25Z</time></trkpt><trkpt lat="43.096910660983454" lon="-3.900173292493259"><ele>413.0</ele><time>2026-05-02T11:07:26Z</time></trkpt><trkpt lat="43.09682816901654" lon="-3.900124523945465"><ele>413.0</ele><time>2026-05-02T11:07:27Z</time></trkpt><trkpt lat="43.09674879052044" lon="-3.900073494729815"><ele>413.0</ele><time>2026-05-02T11:07:28Z</time></trkpt><trkpt lat="43.096670403087764" lon="-3.900021265750722"><ele>412.99999999999994</ele><time>2026-05-02T11:07:29Z</time></trkpt><trkpt lat="43.0965962343919" lon="-3.8999641041346185"><ele>413.0</ele><time>2026-05-02T11:07:30Z</time></trkpt><trkpt lat="43.09652275460347" lon="-3.8999070369100868"><ele>413.49999999999994</ele><time>2026-05-02T11:07:31Z</time></trkpt><trkpt lat="43.096451634503076" lon="-3.8998502054393325"><ele>414.0</ele><time>2026-05-02T11:07:32Z</time></trkpt><trkpt lat="43.09638121439212" lon="-3.8997981206404346"><ele>414.5</ele><time>2026-05-02T11:07:33Z</time></trkpt><trkpt lat="43.096314150030224" lon="-3.8997450219621643"><ele>415.0</ele><time>2026-05-02T11:07:34Z</time></trkpt><trkpt lat="43.09624642703336" lon="-3.8996905081469158"><ele>415.49999999999994</ele><time>2026-05-02T11:07:35Z</time></trkpt><trkpt lat="43.0961810574234" lon="-3.8996385145937653"><ele>416.0</ele><time>2026-05-02T11:07:36Z</time></trkpt><trkpt lat="43.096113025658425" lon="-3.899584760496551"><ele>415.99999999999994</ele><time>2026-05-02T11:07:37Z</time></trkpt><trkpt lat="43.09604493985736" lon="-3.8995306603471294"><ele>416.0</ele><time>2026-05-02T11:07:38Z</time></trkpt><trkpt lat="43.09597578788397" lon="-3.8994766262072496"><ele>416.0</ele><time>2026-05-02T11:07:39Z</time></trkpt><trkpt lat="43.095904481686475" lon="-3.899422969653067"><ele>416.0</ele><time>2026-05-02T11:07:40Z</time></trkpt><trkpt lat="43.09583714471209" lon="-3.899370438698954"><ele>415.99999999999994</ele><time>2026-05-02T11:07:41Z</time></trkpt><trkpt lat="43.09576669360726" lon="-3.899316732765985"><ele>416.0</ele><time>2026-05-02T11:07:42Z</time></trkpt><trkpt lat="43.095699049839844" lon="-3.8992661730529323"><ele>416.3333333333333</ele><time>2026-05-02T11:07:43Z</time></trkpt><trkpt lat="43.09563354483361" lon="-3.8992136927670105"><ele>416.66666666666663</ele><time>2026-05-02T11:07:44Z</time></trkpt><trkpt lat="43.095568235287054" lon="-3.899161506980876"><ele>417.0</ele><time>2026-05-02T11:07:45Z</time></trkpt><trkpt lat="43.095505658475815" lon="-3.899105384252694"><ele>417.33333333333337</ele><time>2026-05-02T11:07:46Z</time></trkpt><trkpt lat="43.09544276900431" lon="-3.899046265305556"><ele>417.6666666666667</ele><time>2026-05-02T11:07:47Z</time></trkpt><trkpt lat="43.09538095538504" lon="-3.898984353366183"><ele>418.0</ele><time>2026-05-02T11:07:48Z</time></trkpt><trkpt lat="43.095320455589885" lon="-3.8989223492685596"><ele>418.00000000000006</ele><time>2026-05-02T11:07:49Z</time></trkpt><trkpt lat="43.09525973575489" lon="-3.898852245082944"><ele>418.0</ele><time>2026-05-02T11:07:50Z</time></trkpt><trkpt lat="43.09519989445361" lon="-3.898789688359208"><ele>418.0</ele><time>2026-05-02T11:07:51Z</time></trkpt><trkpt lat="43.09513977383568" lon="-3.8987289103156084"><ele>418.0</ele><time>2026-05-02T11:07:52Z</time></trkpt><trkpt lat="43.09507895414292" lon="-3.8986610354553974"><ele>418.00000000000006</ele><time>2026-05-02T11:07:53Z</time></trkpt><trkpt lat="43.09501552959036" lon="-3.89859911113845"><ele>418.0</ele><time>2026-05-02T11:07:54Z</time></trkpt><trkpt lat="43.09495246915512" lon="-3.898540615246553"><ele>418.33333333333337</ele><time>2026-05-02T11:07:55Z</time></trkpt><trkpt lat="43.094885244881596" lon="-3.8984865082005533"><ele>418.6666666666667</ele><time>2026-05-02T11:07:56Z</time></trkpt><trkpt lat="43.09481148827426" lon="-3.8984223229682984"><ele>419.0</ele><time>2026-05-02T11:07:57Z</time></trkpt><trkpt lat="43.094738526604274" lon="-3.8983928858304915"><ele>419.33333333333337</ele><time>2026-05-02T11:07:58Z</time></trkpt><trkpt lat="43.09465937450878" lon="-3.8983447873980994"><ele>419.6666666666667</ele><time>2026-05-02T11:07:59Z</time></trkpt><trkpt lat="43.09457870957622" lon="-3.89829699888635"><ele>420.0</ele><time>2026-05-02T11:08:00Z</time></trkpt><trkpt lat="43.09450055721294" lon="-3.8982453829183936"><ele>419.3333333333333</ele><time>2026-05-02T11:08:01Z</time></trkpt><trkpt lat="43.09442279787853" lon="-3.898185642883156"><ele>418.66666666666663</ele><time>2026-05-02T11:08:02Z</time></trkpt><trkpt lat="43.09434529167837" lon="-3.8981306460901903"><ele>418.0</ele><time>2026-05-02T11:08:03Z</time></trkpt><trkpt lat="43.09426303826933" lon="-3.8980787783423936"><ele>417.3333333333333</ele><time>2026-05-02T11:08:04Z</time></trkpt><trkpt lat="43.094185005574474" lon="-3.8980310440683605"><ele>416.66666666666663</ele><time>2026-05-02T11:08:05Z</time></trkpt><trkpt lat="43.09411177357751" lon="-3.897979922722327"><ele>416.0</ele><time>2026-05-02T11:08:06Z</time></trkpt><trkpt lat="43.09404022334304" lon="-3.8979300746023253"><ele>418.16666666666663</ele><time>2026-05-02T11:08:07Z</time></trkpt><trkpt lat="43.09397398582809" lon="-3.8978835634810407"><ele>420.3333333333333</ele><time>2026-05-02T11:08:08Z</time></trkpt><trkpt lat="43.09390979380716" lon="-3.8978407567032254"><ele>422.5</ele><time>2026-05-02T11:08:09Z</time></trkpt><trkpt lat="43.09384802510779" lon="-3.897797457793786"><ele>424.66666666666663</ele><time>2026-05-02T11:08:10Z</time></trkpt><trkpt lat="43.093788130105516" lon="-3.8977634980189935"><ele>426.8333333333333</ele><time>2026-05-02T11:08:11Z</time></trkpt><trkpt lat="43.093671283445666" lon="-3.897720105408273"><ele>429.0</ele><time>2026-05-02T11:08:13Z</time></trkpt><trkpt lat="43.093562532235474" lon="-3.897714816381023"><ele>429.0</ele><time>2026-05-02T11:08:15Z</time></trkpt><trkpt lat="43.09346002945714" lon="-3.897731867654917"><ele>429.0</ele><time>2026-05-02T11:08:17.001Z</time></trkpt><trkpt lat="43.09336507355959" lon="-3.8977668306455033"><ele>429.0</ele><time>2026-05-02T11:08:19.001Z</time></trkpt><trkpt lat="43.093275723628004" lon="-3.897822682643753"><ele>429.0</ele><time>2026-05-02T11:08:21.001Z</time></trkpt><trkpt lat="43.09319790817634" lon="-3.897902437100459"><ele>429.0</ele><time>2026-05-02T11:08:23.001Z</time></trkpt><trkpt lat="43.093128460927154" lon="-3.8979956739161103"><ele>430.79999999999995</ele><time>2026-05-02T11:08:25.001Z</time></trkpt><trkpt lat="43.093058796246645" lon="-3.898099259173001"><ele>432.59999999999997</ele><time>2026-05-02T11:08:27.001Z</time></trkpt><trkpt lat="43.09298745883991" lon="-3.8981996865060724"><ele>434.4</ele><time>2026-05-02T11:08:29.001Z</time></trkpt><trkpt lat="43.09290774449297" lon="-3.898291510865465"><ele>436.2</ele><time>2026-05-02T11:08:31.001Z</time></trkpt><trkpt lat="43.09281964208907" lon="-3.898374438490492"><ele>438.0</ele><time>2026-05-02T11:08:33.001Z</time></trkpt><trkpt lat="43.09272354191413" lon="-3.8984438750089203"><ele>441.2</ele><time>2026-05-02T11:08:35.001Z</time></trkpt><trkpt lat="43.09262023498416" lon="-3.8985000524166407"><ele>444.4</ele><time>2026-05-02T11:08:37.001Z</time></trkpt><trkpt lat="43.09251951600987" lon="-3.8985528974123422"><ele>447.59999999999997</ele><time>2026-05-02T11:08:39.001Z</time></trkpt><trkpt lat="43.09241543438576" lon="-3.898611075856886"><ele>450.79999999999995</ele><time>2026-05-02T11:08:41.001Z</time></trkpt><trkpt lat="43.09231214844301" lon="-3.898665373273765"><ele>454.0</ele><time>2026-05-02T11:08:43.001Z</time></trkpt><trkpt lat="43.09221071021012" lon="-3.8987250794867774"><ele>456.0</ele><time>2026-05-02T11:08:45.001Z</time></trkpt><trkpt lat="43.09210710155732" lon="-3.898782424038499"><ele>458.0</ele><time>2026-05-02T11:08:47.001Z</time></trkpt><trkpt lat="43.09200969953125" lon="-3.8988312418139266"><ele>460.0</ele><time>2026-05-02T11:08:49.001Z</time></trkpt><trkpt lat="43.091910309036585" lon="-3.898886231477621"><ele>462.0</ele><time>2026-05-02T11:08:51.001Z</time></trkpt><trkpt lat="43.09180533257483" lon="-3.8989343540714807"><ele>464.0</ele><time>2026-05-02T11:08:53.001Z</time></trkpt><trkpt lat="43.09167667180684" lon="-3.8988933989592915"><ele>464.00000000000006</ele><time>2026-05-02T11:08:55.001Z</time></trkpt><trkpt lat="43.091623489109594" lon="-3.8988315987875577"><ele>464.0</ele><time>2026-05-02T11:08:56.001Z</time></trkpt><trkpt lat="43.09159058475053" lon="-3.898742894592417"><ele>464.00000000000006</ele><time>2026-05-02T11:08:57.001Z</time></trkpt><trkpt lat="43.09155731660451" lon="-3.8986621195890114"><ele>464.00000000000006</ele><time>2026-05-02T11:08:58.001Z</time></trkpt><trkpt lat="43.091533502851135" lon="-3.8985707913166885"><ele>464.0</ele><time>2026-05-02T11:08:59.001Z</time></trkpt><trkpt lat="43.091516755467104" lon="-3.898470380451208"><ele>464.00000000000006</ele><time>2026-05-02T11:09:00.001Z</time></trkpt><trkpt lat="43.091502191763155" lon="-3.898380098339501"><ele>464.00000000000006</ele><time>2026-05-02T11:09:01.001Z</time></trkpt><trkpt lat="43.09148959300954" lon="-3.898283288843089"><ele>465.00000000000006</ele><time>2026-05-02T11:09:02.001Z</time></trkpt><trkpt lat="43.091482452354846" lon="-3.8981921869070097"><ele>466.0</ele><time>2026-05-02T11:09:03.001Z</time></trkpt><trkpt lat="43.091488596533395" lon="-3.8980966250481672"><ele>467.00000000000006</ele><time>2026-05-02T11:09:04.001Z</time></trkpt><trkpt lat="43.091498454927184" lon="-3.8980026472266367"><ele>468.00000000000006</ele><time>2026-05-02T11:09:05.001Z</time></trkpt><trkpt lat="43.091509529646245" lon="-3.8979094172409603"><ele>469.0</ele><time>2026-05-02T11:09:06.001Z</time></trkpt><trkpt lat="43.091516299383535" lon="-3.8978119674962275"><ele>470.00000000000006</ele><time>2026-05-02T11:09:07.001Z</time></trkpt><trkpt lat="43.09151574481298" lon="-3.8977156177105403"><ele>471.00000000000006</ele><time>2026-05-02T11:09:08.001Z</time></trkpt><trkpt lat="43.091523695857276" lon="-3.8976195917216256"><ele>471.00000000000006</ele><time>2026-05-02T11:09:09.001Z</time></trkpt><trkpt lat="43.091531955269275" lon="-3.897521400238504"><ele>471.0</ele><time>2026-05-02T11:09:10.001Z</time></trkpt><trkpt lat="43.0915363563176" lon="-3.897424175984982"><ele>471.00000000000006</ele><time>2026-05-02T11:09:11.001Z</time></trkpt><trkpt lat="43.09153397681679" lon="-3.8973255913266702"><ele>471.00000000000006</ele><time>2026-05-02T11:09:12.001Z</time></trkpt><trkpt lat="43.091525142743876" lon="-3.8972236309341683"><ele>471.0</ele><time>2026-05-02T11:09:13Z</time></trkpt><trkpt lat="43.09150099266952" lon="-3.897126228974283"><ele>471.00000000000006</ele><time>2026-05-02T11:09:14Z</time></trkpt><trkpt lat="43.09147025060105" lon="-3.897029941127"><ele>471.00000000000006</ele><time>2026-05-02T11:09:15Z</time></trkpt><trkpt lat="43.09142503529272" lon="-3.896944444801898"><ele>471.0</ele><time>2026-05-02T11:09:16Z</time></trkpt><trkpt lat="43.09137062161275" lon="-3.896873768150826"><ele>471.0</ele><time>2026-05-02T11:09:17Z</time></trkpt><trkpt lat="43.091295131886625" lon="-3.8968358064774895"><ele>471.0</ele><time>2026-05-02T11:09:18Z</time></trkpt><trkpt lat="43.09121954427456" lon="-3.896814150922825"><ele>471.0</ele><time>2026-05-02T11:09:19Z</time></trkpt><trkpt lat="43.09114053403974" lon="-3.8968144109639278"><ele>471.0</ele><time>2026-05-02T11:09:20Z</time></trkpt><trkpt lat="43.091065537093485" lon="-3.896840537863278"><ele>471.0</ele><time>2026-05-02T11:09:21Z</time></trkpt><trkpt lat="43.09099892251749" lon="-3.896896590339795"><ele>471.0</ele><time>2026-05-02T11:09:22Z</time></trkpt><trkpt lat="43.09094000267944" lon="-3.8969641655898104"><ele>471.0</ele><time>2026-05-02T11:09:23Z</time></trkpt><trkpt lat="43.090898575035965" lon="-3.897051340732841"><ele>471.0</ele><time>2026-05-02T11:09:24Z</time></trkpt><trkpt lat="43.090872909409214" lon="-3.897149838616094"><ele>471.0</ele><time>2026-05-02T11:09:25Z</time></trkpt><trkpt lat="43.09085894285132" lon="-3.897251604775313"><ele>471.0</ele><time>2026-05-02T11:09:26Z</time></trkpt><trkpt lat="43.0908604650454" lon="-3.8973572288516487"><ele>471.0</ele><time>2026-05-02T11:09:27Z</time></trkpt><trkpt lat="43.090876056228986" lon="-3.897461041556401"><ele>471.0</ele><time>2026-05-02T11:09:28Z</time></trkpt><trkpt lat="43.09089307850852" lon="-3.8975646812182427"><ele>471.0</ele><time>2026-05-02T11:09:29Z</time></trkpt><trkpt lat="43.09090730713326" lon="-3.8976644882694775"><ele>471.0</ele><time>2026-05-02T11:09:30Z</time></trkpt><trkpt lat="43.090919054099736" lon="-3.8977672959755667"><ele>471.0</ele><time>2026-05-02T11:09:31Z</time></trkpt><trkpt lat="43.09092678526214" lon="-3.8978708010118375"><ele>471.0</ele><time>2026-05-02T11:09:32Z</time></trkpt><trkpt lat="43.09092118755489" lon="-3.8979763754366217"><ele>471.0</ele><time>2026-05-02T11:09:33Z</time></trkpt><trkpt lat="43.09090196798604" lon="-3.898080111319142"><ele>471.0</ele><time>2026-05-02T11:09:34Z</time></trkpt><trkpt lat="43.090863125809534" lon="-3.8981773254874708"><ele>471.0</ele><time>2026-05-02T11:09:35Z</time></trkpt><trkpt lat="43.09081007860414" lon="-3.8982603432569687"><ele>471.0</ele><time>2026-05-02T11:09:36Z</time></trkpt><trkpt lat="43.09075203707817" lon="-3.8983362180239634"><ele>471.0</ele><time>2026-05-02T11:09:37Z</time></trkpt><trkpt lat="43.090681755268264" lon="-3.8983716402039836"><ele>471.0</ele><time>2026-05-02T11:09:38Z</time></trkpt><trkpt lat="43.0906012871671" lon="-3.898418342538055"><ele>471.0</ele><time>2026-05-02T11:09:39Z</time></trkpt><trkpt lat="43.09051683225424" lon="-3.8984311398822022"><ele>474.3333333333333</ele><time>2026-05-02T11:09:40Z</time></trkpt><trkpt lat="43.09043259993203" lon="-3.8984213586686147"><ele>477.66666666666663</ele><time>2026-05-02T11:09:41Z</time></trkpt><trkpt lat="43.090352676214934" lon="-3.8983839229303703"><ele>481.0</ele><time>2026-05-02T11:09:42Z</time></trkpt><trkpt lat="43.09027836463624" lon="-3.8983256328453426"><ele>484.3333333333333</ele><time>2026-05-02T11:09:43Z</time></trkpt><trkpt lat="43.090217154719056" lon="-3.8982492152205794"><ele>487.66666666666663</ele><time>2026-05-02T11:09:44Z</time></trkpt><trkpt lat="43.090168343152364" lon="-3.898155424381797"><ele>491.0</ele><time>2026-05-02T11:09:45Z</time></trkpt><trkpt lat="43.09013154454133" lon="-3.8980525714255445"><ele>490.99999999999994</ele><time>2026-05-02T11:09:46Z</time></trkpt><trkpt lat="43.09010285003066" lon="-3.8979478747861"><ele>491.0</ele><time>2026-05-02T11:09:47Z</time></trkpt><trkpt lat="43.09007625391423" lon="-3.8978417855497796"><ele>491.0</ele><time>2026-05-02T11:09:48Z</time></trkpt><trkpt lat="43.09005037229903" lon="-3.897738927298138"><ele>491.0</ele><time>2026-05-02T11:09:49Z</time></trkpt><trkpt lat="43.09002146202684" lon="-3.8976312065742724"><ele>490.99999999999994</ele><time>2026-05-02T11:09:50Z</time></trkpt><trkpt lat="43.08999516794178" lon="-3.8975260360007273"><ele>491.0</ele><time>2026-05-02T11:09:51Z</time></trkpt><trkpt lat="43.08997047169629" lon="-3.8974200391944893"><ele>490.3333333333333</ele><time>2026-05-02T11:09:52Z</time></trkpt><trkpt lat="43.089946625230695" lon="-3.8973169742068117"><ele>489.66666666666663</ele><time>2026-05-02T11:09:53Z</time></trkpt><trkpt lat="43.089921188937595" lon="-3.897219445555107"><ele>489.0</ele><time>2026-05-02T11:09:54Z</time></trkpt><trkpt lat="43.08989408478456" lon="-3.897121748366582"><ele>488.33333333333337</ele><time>2026-05-02T11:09:55Z</time></trkpt><trkpt lat="43.089865584243555" lon="-3.8970253359493787"><ele>487.6666666666667</ele><time>2026-05-02T11:09:56Z</time></trkpt><trkpt lat="43.0898387363402" lon="-3.896932677052836"><ele>487.0</ele><time>2026-05-02T11:09:57Z</time></trkpt><trkpt lat="43.08981546307168" lon="-3.8968377699450936"><ele>490.7142857142857</ele><time>2026-05-02T11:09:58Z</time></trkpt><trkpt lat="43.08979300776198" lon="-3.8967470518914444"><ele>494.42857142857144</ele><time>2026-05-02T11:09:59Z</time></trkpt><trkpt lat="43.0897742405895" lon="-3.8966558056284977"><ele>498.14285714285717</ele><time>2026-05-02T11:10:00Z</time></trkpt><trkpt lat="43.089758755978956" lon="-3.896564543025728"><ele>501.8571428571429</ele><time>2026-05-02T11:10:01Z</time></trkpt><trkpt lat="43.08974033501627" lon="-3.8964776292912227"><ele>505.57142857142856</ele><time>2026-05-02T11:10:02Z</time></trkpt><trkpt lat="43.08971869002436" lon="-3.896390578630156"><ele>509.28571428571433</ele><time>2026-05-02T11:10:03Z</time></trkpt><trkpt lat="43.089694262287004" lon="-3.8963069977974696"><ele>513.0</ele><time>2026-05-02T11:10:04Z</time></trkpt><trkpt lat="43.08966395416021" lon="-3.8962256313612675"><ele>513.0000000000001</ele><time>2026-05-02T11:10:05Z</time></trkpt><trkpt lat="43.08962893987436" lon="-3.8961478096583"><ele>513.0</ele><time>2026-05-02T11:10:06Z</time></trkpt><trkpt lat="43.08958760755663" lon="-3.8960751171520567"><ele>513.0</ele><time>2026-05-02T11:10:07Z</time></trkpt><trkpt lat="43.08952853642553" lon="-3.896027572087054"><ele>513.0</ele><time>2026-05-02T11:10:08Z</time></trkpt><trkpt lat="43.089479519100884" lon="-3.8959680160855665"><ele>513.0</ele><time>2026-05-02T11:10:09Z</time></trkpt><trkpt lat="43.08942784184104" lon="-3.895906997002754"><ele>513.0000000000001</ele><time>2026-05-02T11:10:10Z</time></trkpt><trkpt lat="43.089382980030386" lon="-3.895833169516291"><ele>513.0</ele><time>2026-05-02T11:10:11Z</time></trkpt><trkpt lat="43.08933151947951" lon="-3.8957758993283256"><ele>512.0000000000001</ele><time>2026-05-02T11:10:12Z</time></trkpt><trkpt lat="43.08928387143824" lon="-3.8957150477416187"><ele>511.0</ele><time>2026-05-02T11:10:13Z</time></trkpt><trkpt lat="43.08923470498622" lon="-3.8956573426091414"><ele>510.00000000000006</ele><time>2026-05-02T11:10:14Z</time></trkpt><trkpt lat="43.08918286373405" lon="-3.895600934244015"><ele>509.00000000000006</ele><time>2026-05-02T11:10:15Z</time></trkpt><trkpt lat="43.08913061420024" lon="-3.895543809222666"><ele>508.0</ele><time>2026-05-02T11:10:16Z</time></trkpt><trkpt lat="43.08908180678575" lon="-3.895487427947598"><ele>507.00000000000006</ele><time>2026-05-02T11:10:17Z</time></trkpt><trkpt lat="43.0890316187129" lon="-3.8954326215330526"><ele>506.00000000000006</ele><time>2026-05-02T11:10:18Z</time></trkpt><trkpt lat="43.088979581135554" lon="-3.8953761456323477"><ele>508.6</ele><time>2026-05-02T11:10:19Z</time></trkpt><trkpt lat="43.088929795022764" lon="-3.895316957103935"><ele>511.20000000000005</ele><time>2026-05-02T11:10:20Z</time></trkpt><trkpt lat="43.088884143855445" lon="-3.8952569929441956"><ele>513.8</ele><time>2026-05-02T11:10:21Z</time></trkpt><trkpt lat="43.08878576487463" lon="-3.89515069028893"><ele>516.4</ele><time>2026-05-02T11:10:23Z</time></trkpt><trkpt lat="43.08868387172111" lon="-3.895050988632807"><ele>519.0</ele><time>2026-05-02T11:10:25Z</time></trkpt><trkpt lat="43.088578724935445" lon="-3.894967587280089"><ele>519.0</ele><time>2026-05-02T11:10:27Z</time></trkpt><trkpt lat="43.088464843133" lon="-3.894899287656987"><ele>519.0</ele><time>2026-05-02T11:10:29Z</time></trkpt><trkpt lat="43.08840630806262" lon="-3.894867512549635"><ele>519.0</ele><time>2026-05-02T11:10:30.001Z</time></trkpt><trkpt lat="43.08829014801661" lon="-3.894801220720342"><ele>519.0</ele><time>2026-05-02T11:10:32.001Z</time></trkpt><trkpt lat="43.08823366144045" lon="-3.894762061881328"><ele>519.0</ele><time>2026-05-02T11:10:33.001Z</time></trkpt><trkpt lat="43.08817814165414" lon="-3.894719255218556"><ele>519.0</ele><time>2026-05-02T11:10:34.001Z</time></trkpt><trkpt lat="43.08812326841951" lon="-3.8946720651148508"><ele>525.0</ele><time>2026-05-02T11:10:35.001Z</time></trkpt><trkpt lat="43.08801854905708" lon="-3.8945843930371415"><ele>531.0</ele><time>2026-05-02T11:10:37.001Z</time></trkpt><trkpt lat="43.08791684038232" lon="-3.8944968301961587"><ele>537.0</ele><time>2026-05-02T11:10:39.001Z</time></trkpt><trkpt lat="43.08781437088986" lon="-3.8944082931274284"><ele>543.0</ele><time>2026-05-02T11:10:41.001Z</time></trkpt><trkpt lat="43.087712736418965" lon="-3.894325717693676"><ele>544.75</ele><time>2026-05-02T11:10:43.001Z</time></trkpt><trkpt lat="43.087610885638476" lon="-3.894248063272658"><ele>546.5</ele><time>2026-05-02T11:10:45.001Z</time></trkpt><trkpt lat="43.0875052437105" lon="-3.894173199009174"><ele>548.25</ele><time>2026-05-02T11:10:47.001Z</time></trkpt><trkpt lat="43.08739841485382" lon="-3.8941028558323008"><ele>550.0</ele><time>2026-05-02T11:10:49.001Z</time></trkpt><trkpt lat="43.08729075148317" lon="-3.894036254680101"><ele>550.0</ele><time>2026-05-02T11:10:51.001Z</time></trkpt><trkpt lat="43.08718357979338" lon="-3.893967712761459"><ele>550.0</ele><time>2026-05-02T11:10:53.001Z</time></trkpt><trkpt lat="43.08707097837964" lon="-3.89391505248267"><ele>550.0</ele><time>2026-05-02T11:10:55.001Z</time></trkpt><trkpt lat="43.086954965869054" lon="-3.893863303472709"><ele>550.0</ele><time>2026-05-02T11:10:57.001Z</time></trkpt><trkpt lat="43.08683331648822" lon="-3.8938165147271815"><ele>550.0</ele><time>2026-05-02T11:10:59.001Z</time></trkpt><trkpt lat="43.086768728282046" lon="-3.893794595214986"><ele>550.0</ele><time>2026-05-02T11:11:00.001Z</time></trkpt><trkpt lat="43.08670316098203" lon="-3.8937689100505746"><ele>550.0</ele><time>2026-05-02T11:11:01.001Z</time></trkpt><trkpt lat="43.086637906452644" lon="-3.89374102467579"><ele>550.0</ele><time>2026-05-02T11:11:02.001Z</time></trkpt><trkpt lat="43.08657227468121" lon="-3.893708794091579"><ele>550.0</ele><time>2026-05-02T11:11:03.001Z</time></trkpt><trkpt lat="43.08650621736143" lon="-3.893677849377586"><ele>550.0</ele><time>2026-05-02T11:11:04.001Z</time></trkpt><trkpt lat="43.086437857750546" lon="-3.8936449140994887"><ele>550.0</ele><time>2026-05-02T11:11:05.001Z</time></trkpt><trkpt lat="43.086366727603696" lon="-3.893621621857254"><ele>551.8571428571429</ele><time>2026-05-02T11:11:06.001Z</time></trkpt><trkpt lat="43.08629432674333" lon="-3.89360382649753"><ele>553.7142857142857</ele><time>2026-05-02T11:11:07.001Z</time></trkpt><trkpt lat="43.08622026826206" lon="-3.893597889566371"><ele>555.5714285714286</ele><time>2026-05-02T11:11:08.001Z</time></trkpt><trkpt lat="43.086147388595734" lon="-3.8935999700575112"><ele>557.4285714285714</ele><time>2026-05-02T11:11:09.001Z</time></trkpt><trkpt lat="43.08607343308666" lon="-3.8936103466314234"><ele>559.2857142857143</ele><time>2026-05-02T11:11:11.001Z</time></trkpt><trkpt lat="43.0860085703506" lon="-3.893599783524913"><ele>561.1428571428571</ele><time>2026-05-02T11:14:21Z</time></trkpt><trkpt lat="43.08593047407555" lon="-3.8936051417570123"><ele>563.0</ele><time>2026-05-02T11:14:23Z</time></trkpt><trkpt lat="43.0858325032668" lon="-3.8936144812929405"><ele>564.4</ele><time>2026-05-02T11:14:25Z</time></trkpt><trkpt lat="43.08572569888709" lon="-3.8936303020657066"><ele>565.8</ele><time>2026-05-02T11:14:27Z</time></trkpt><trkpt lat="43.085611673736636" lon="-3.8936370844994506"><ele>567.2</ele><time>2026-05-02T11:14:29Z</time></trkpt><trkpt lat="43.08550103702389" lon="-3.8936710740735356"><ele>568.6</ele><time>2026-05-02T11:14:31Z</time></trkpt><trkpt lat="43.08539010195908" lon="-3.893695734352771"><ele>570.0</ele><time>2026-05-02T11:14:33Z</time></trkpt><trkpt lat="43.085279769747686" lon="-3.8937257503480796"><ele>570.0</ele><time>2026-05-02T11:14:35Z</time></trkpt><trkpt lat="43.08517210896706" lon="-3.8937685502572617"><ele>570.0</ele><time>2026-05-02T11:14:37Z</time></trkpt><trkpt lat="43.08506368496092" lon="-3.893799352938925"><ele>570.0</ele><time>2026-05-02T11:14:39Z</time></trkpt><trkpt lat="43.08495612342011" lon="-3.893828383991329"><ele>570.0</ele><time>2026-05-02T11:14:41Z</time></trkpt><trkpt lat="43.08484856510294" lon="-3.8938614135475915"><ele>570.0</ele><time>2026-05-02T11:14:43Z</time></trkpt><trkpt lat="43.08474098384207" lon="-3.8938926719514972"><ele>572.75</ele><time>2026-05-02T11:14:45Z</time></trkpt><trkpt lat="43.084632112431436" lon="-3.893925972365118"><ele>575.5</ele><time>2026-05-02T11:14:47Z</time></trkpt><trkpt lat="43.08452158228971" lon="-3.8939537926484453"><ele>578.25</ele><time>2026-05-02T11:14:49Z</time></trkpt><trkpt lat="43.0844103118298" lon="-3.8939682281579397"><ele>581.0</ele><time>2026-05-02T11:14:51Z</time></trkpt><trkpt lat="43.084295658332984" lon="-3.893965455135224"><ele>581.0</ele><time>2026-05-02T11:14:53Z</time></trkpt><trkpt lat="43.084182216357554" lon="-3.893939804392077"><ele>581.0</ele><time>2026-05-02T11:14:55Z</time></trkpt><trkpt lat="43.084075024103456" lon="-3.893899150973354"><ele>581.0</ele><time>2026-05-02T11:14:57Z</time></trkpt><trkpt lat="43.08397443492467" lon="-3.893826911939309"><ele>581.0</ele><time>2026-05-02T11:14:59Z</time></trkpt><trkpt lat="43.08387961134782" lon="-3.8937454434532444"><ele>580.4</ele><time>2026-05-02T11:15:01Z</time></trkpt><trkpt lat="43.08379282095187" lon="-3.893656219627611"><ele>579.8</ele><time>2026-05-02T11:15:03.001Z</time></trkpt><trkpt lat="43.083707841255624" lon="-3.8935720576384663"><ele>579.1999999999999</ele><time>2026-05-02T11:15:05.001Z</time></trkpt><trkpt lat="43.083616386329915" lon="-3.8934835390776397"><ele>578.6</ele><time>2026-05-02T11:15:07.001Z</time></trkpt><trkpt lat="43.08352661087401" lon="-3.893401136005717"><ele>578.0</ele><time>2026-05-02T11:15:09.001Z</time></trkpt><trkpt lat="43.083442513711354" lon="-3.893315351529877"><ele>578.0</ele><time>2026-05-02T11:15:11.001Z</time></trkpt><trkpt lat="43.083352933149484" lon="-3.893240965971772"><ele>578.0</ele><time>2026-05-02T11:15:13.001Z</time></trkpt><trkpt lat="43.08326109187707" lon="-3.893181295223532"><ele>578.0</ele><time>2026-05-02T11:15:15.001Z</time></trkpt><trkpt lat="43.0831645779517" lon="-3.893135685189287"><ele>578.0</ele><time>2026-05-02T11:15:17.001Z</time></trkpt><trkpt lat="43.083065377024234" lon="-3.8931149854603952"><ele>578.0</ele><time>2026-05-02T11:15:19.001Z</time></trkpt><trkpt lat="43.082965696432616" lon="-3.8931009570360304"><ele>580.8</ele><time>2026-05-02T11:15:21.001Z</time></trkpt><trkpt lat="43.082867077289905" lon="-3.8931086481923987"><ele>583.5999999999999</ele><time>2026-05-02T11:15:23.001Z</time></trkpt><trkpt lat="43.082767377530864" lon="-3.8931247041931427"><ele>586.4000000000001</ele><time>2026-05-02T11:15:25.001Z</time></trkpt><trkpt lat="43.08266202809396" lon="-3.893145384034282"><ele>589.2</ele><time>2026-05-02T11:15:27.001Z</time></trkpt><trkpt lat="43.08255851688206" lon="-3.893161148632688"><ele>592.0</ele><time>2026-05-02T11:15:29.001Z</time></trkpt><trkpt lat="43.08245627636309" lon="-3.893185074587571"><ele>593.8000000000001</ele><time>2026-05-02T11:15:31Z</time></trkpt><trkpt lat="43.08235463924197" lon="-3.8932031226487647"><ele>595.6</ele><time>2026-05-02T11:15:33Z</time></trkpt><trkpt lat="43.08225188044606" lon="-3.8932277706481098"><ele>597.4000000000001</ele><time>2026-05-02T11:15:35Z</time></trkpt><trkpt lat="43.082147590305304" lon="-3.8932452973564207"><ele>599.2</ele><time>2026-05-02T11:15:37Z</time></trkpt><trkpt lat="43.08204509434156" lon="-3.8932687728992703"><ele>601.0</ele><time>2026-05-02T11:15:39Z</time></trkpt><trkpt lat="43.08194513125583" lon="-3.893290609963321"><ele>601.0</ele><time>2026-05-02T11:15:41Z</time></trkpt><trkpt lat="43.08184827576884" lon="-3.89331187472563"><ele>601.0</ele><time>2026-05-02T11:15:43Z</time></trkpt><trkpt lat="43.08174787953057" lon="-3.8933271212919167"><ele>601.0</ele><time>2026-05-02T11:15:45Z</time></trkpt><trkpt lat="43.0816475835382" lon="-3.893350254766021"><ele>601.0</ele><time>2026-05-02T11:15:47Z</time></trkpt><trkpt lat="43.08154328982154" lon="-3.893374396439461"><ele>601.0</ele><time>2026-05-02T11:15:49Z</time></trkpt><trkpt lat="43.08144277056445" lon="-3.893419118930657"><ele>604.5</ele><time>2026-05-02T11:15:51Z</time></trkpt><trkpt lat="43.081338643148925" lon="-3.8934591782882366"><ele>608.0</ele><time>2026-05-02T11:15:53Z</time></trkpt><trkpt lat="43.08122984826101" lon="-3.893500721534109"><ele>611.5</ele><time>2026-05-02T11:15:55Z</time></trkpt><trkpt lat="43.08111639149555" lon="-3.893558977676818"><ele>615.0</ele><time>2026-05-02T11:15:57Z</time></trkpt><trkpt lat="43.080997950385644" lon="-3.893608618024821"><ele>615.0</ele><time>2026-05-02T11:15:59Z</time></trkpt><trkpt lat="43.08087943963752" lon="-3.8936657403671235"><ele>615.0</ele><time>2026-05-02T11:16:01Z</time></trkpt><trkpt lat="43.08081882775108" lon="-3.893691146626408"><ele>615.0</ele><time>2026-05-02T11:16:02Z</time></trkpt><trkpt lat="43.08070023579946" lon="-3.893736375708636"><ele>615.0</ele><time>2026-05-02T11:16:04Z</time></trkpt><trkpt lat="43.08058751124046" lon="-3.893780807927283"><ele>615.0</ele><time>2026-05-02T11:16:06Z</time></trkpt><trkpt lat="43.080479771940894" lon="-3.8938231164078165"><ele>617.6</ele><time>2026-05-02T11:16:08Z</time></trkpt><trkpt lat="43.080371552447474" lon="-3.893864270179463"><ele>620.2</ele><time>2026-05-02T11:16:10Z</time></trkpt><trkpt lat="43.08026633628511" lon="-3.8938933869546455"><ele>622.8</ele><time>2026-05-02T11:16:12Z</time></trkpt><trkpt lat="43.08016255748257" lon="-3.893914074412471"><ele>625.4</ele><time>2026-05-02T11:16:14Z</time></trkpt><trkpt lat="43.08005621361641" lon="-3.8939136779786474"><ele>628.0</ele><time>2026-05-02T11:16:16Z</time></trkpt><trkpt lat="43.0799541308128" lon="-3.893904198416808"><ele>630.5999999999999</ele><time>2026-05-02T11:16:18Z</time></trkpt><trkpt lat="43.07985751581418" lon="-3.8938756613588463"><ele>633.1999999999999</ele><time>2026-05-02T11:16:20Z</time></trkpt><trkpt lat="43.07975774080748" lon="-3.8938543931224907"><ele>635.8</ele><time>2026-05-02T11:16:22Z</time></trkpt><trkpt lat="43.07966283095767" lon="-3.893802418724576"><ele>638.4</ele><time>2026-05-02T11:16:24Z</time></trkpt><trkpt lat="43.079566720256075" lon="-3.893733510595763"><ele>641.0</ele><time>2026-05-02T11:16:26Z</time></trkpt><trkpt lat="43.07947704967023" lon="-3.893637274322402"><ele>641.0</ele><time>2026-05-02T11:16:28Z</time></trkpt><trkpt lat="43.079373376898175" lon="-3.8935473022531686"><ele>641.0</ele><time>2026-05-02T11:16:30Z</time></trkpt><trkpt lat="43.07931946141021" lon="-3.8934983018401086"><ele>641.0</ele><time>2026-05-02T11:16:31Z</time></trkpt><trkpt lat="43.07926610426445" lon="-3.893450841576318"><ele>641.0</ele><time>2026-05-02T11:16:32Z</time></trkpt><trkpt lat="43.079212318885176" lon="-3.8933991218487067"><ele>641.0</ele><time>2026-05-02T11:16:33Z</time></trkpt><trkpt lat="43.07915436770434" lon="-3.8933527559475793"><ele>641.0</ele><time>2026-05-02T11:16:34Z</time></trkpt><trkpt lat="43.07909865062585" lon="-3.8933023621746434"><ele>641.2857142857143</ele><time>2026-05-02T11:16:35Z</time></trkpt><trkpt lat="43.07904340029011" lon="-3.8932495085626475"><ele>641.5714285714286</ele><time>2026-05-02T11:16:36Z</time></trkpt><trkpt lat="43.07898733841722" lon="-3.893196040962942"><ele>641.8571428571429</ele><time>2026-05-02T11:16:37Z</time></trkpt><trkpt lat="43.07893020687386" lon="-3.893143022642418"><ele>642.1428571428571</ele><time>2026-05-02T11:16:38Z</time></trkpt><trkpt lat="43.07886997573958" lon="-3.8930939467632646"><ele>642.4285714285714</ele><time>2026-05-02T11:16:39Z</time></trkpt><trkpt lat="43.07881398373142" lon="-3.8930403368939173"><ele>642.7142857142857</ele><time>2026-05-02T11:16:40Z</time></trkpt><trkpt lat="43.0787543678998" lon="-3.8929929871154627"><ele>643.0</ele><time>2026-05-02T11:16:41Z</time></trkpt><trkpt lat="43.07869693256313" lon="-3.892939874503082"><ele>643.0</ele><time>2026-05-02T11:16:42Z</time></trkpt><trkpt lat="43.07863627063308" lon="-3.892887670547749"><ele>643.0</ele><time>2026-05-02T11:16:43Z</time></trkpt><trkpt lat="43.07857286181118" lon="-3.8928340186022323"><ele>643.0</ele><time>2026-05-02T11:16:44Z</time></trkpt><trkpt lat="43.07850851796217" lon="-3.8927785328934084"><ele>643.0</ele><time>2026-05-02T11:16:45Z</time></trkpt><trkpt lat="43.07844282231651" lon="-3.892719632192201"><ele>643.0</ele><time>2026-05-02T11:16:46Z</time></trkpt><trkpt lat="43.078377577432434" lon="-3.892658875843303"><ele>643.0</ele><time>2026-05-02T11:16:47Z</time></trkpt><trkpt lat="43.07830774953849" lon="-3.892592386286016"><ele>644.8333333333334</ele><time>2026-05-02T11:16:48Z</time></trkpt><trkpt lat="43.07823547590179" lon="-3.892528671898837"><ele>646.6666666666667</ele><time>2026-05-02T11:16:49Z</time></trkpt><trkpt lat="43.078162891856756" lon="-3.892464068990115"><ele>648.5</ele><time>2026-05-02T11:16:50Z</time></trkpt><trkpt lat="43.07808847160315" lon="-3.892402350281447"><ele>650.3333333333334</ele><time>2026-05-02T11:16:51Z</time></trkpt><trkpt lat="43.078014755945574" lon="-3.8923387356435835"><ele>652.1666666666666</ele><time>2026-05-02T11:16:52Z</time></trkpt><trkpt lat="43.077947071040185" lon="-3.8922709707518592"><ele>654.0</ele><time>2026-05-02T11:16:53Z</time></trkpt><trkpt lat="43.07787667230182" lon="-3.8921955059995996"><ele>654.0</ele><time>2026-05-02T11:16:54Z</time></trkpt><trkpt lat="43.077811751621745" lon="-3.892108248778101"><ele>654.0</ele><time>2026-05-02T11:16:55Z</time></trkpt><trkpt lat="43.07774748563062" lon="-3.89201573317064"><ele>654.0</ele><time>2026-05-02T11:16:56Z</time></trkpt><trkpt lat="43.077692036576856" lon="-3.8919163887767056"><ele>654.0</ele><time>2026-05-02T11:16:57Z</time></trkpt><trkpt lat="43.077639245020926" lon="-3.8918067610158107"><ele>654.0</ele><time>2026-05-02T11:16:58Z</time></trkpt><trkpt lat="43.07759109642186" lon="-3.8916950333608797"><ele>652.4000000000001</ele><time>2026-05-02T11:16:59Z</time></trkpt><trkpt lat="43.07755060264853" lon="-3.8915758296868237"><ele>650.8</ele><time>2026-05-02T11:17:00Z</time></trkpt><trkpt lat="43.07751277204732" lon="-3.891454263982244"><ele>649.2</ele><time>2026-05-02T11:17:01Z</time></trkpt><trkpt lat="43.07747715185901" lon="-3.891330089364421"><ele>647.5999999999999</ele><time>2026-05-02T11:17:02Z</time></trkpt><trkpt lat="43.077446254312136" lon="-3.891207438812464"><ele>646.0</ele><time>2026-05-02T11:17:03Z</time></trkpt><trkpt lat="43.07741728704516" lon="-3.891088172107691"><ele>650.0</ele><time>2026-05-02T11:17:04Z</time></trkpt><trkpt lat="43.077390865646485" lon="-3.8909675332104756"><ele>654.0</ele><time>2026-05-02T11:17:05Z</time></trkpt><trkpt lat="43.07735726881047" lon="-3.8908560463291653"><ele>658.0</ele><time>2026-05-02T11:17:06Z</time></trkpt><trkpt lat="43.07733017986239" lon="-3.8907471667091684"><ele>662.0</ele><time>2026-05-02T11:17:07Z</time></trkpt><trkpt lat="43.0773014173694" lon="-3.8906436673411307"><ele>666.0</ele><time>2026-05-02T11:17:08Z</time></trkpt><trkpt lat="43.07727039755881" lon="-3.890547390819948"><ele>670.0</ele><time>2026-05-02T11:17:09Z</time></trkpt><trkpt lat="43.07723626900859" lon="-3.890459445197297"><ele>670.0</ele><time>2026-05-02T11:17:10Z</time></trkpt><trkpt lat="43.07720016732462" lon="-3.8903779259482056"><ele>670.0</ele><time>2026-05-02T11:17:11Z</time></trkpt><trkpt lat="43.07716326197134" lon="-3.8903032425877586"><ele>670.0</ele><time>2026-05-02T11:17:12Z</time></trkpt><trkpt lat="43.07712349075446" lon="-3.8902322435291"><ele>670.0</ele><time>2026-05-02T11:17:13Z</time></trkpt><trkpt lat="43.07703961411237" lon="-3.890112001639842"><ele>670.0</ele><time>2026-05-02T11:17:15Z</time></trkpt><trkpt lat="43.076945074749645" lon="-3.8900265221602313"><ele>670.0</ele><time>2026-05-02T11:17:17Z</time></trkpt><trkpt lat="43.07685843963524" lon="-3.8899456310268925"><ele>668.8</ele><time>2026-05-02T11:17:19.001Z</time></trkpt><trkpt lat="43.07677029048561" lon="-3.8898721963390073"><ele>667.6</ele><time>2026-05-02T11:17:21.001Z</time></trkpt><trkpt lat="43.07668831842888" lon="-3.8897879870869683"><ele>666.4000000000001</ele><time>2026-05-02T11:17:23.001Z</time></trkpt><trkpt lat="43.076591202908325" lon="-3.8897459912112953"><ele>665.2</ele><time>2026-05-02T11:17:25.001Z</time></trkpt><trkpt lat="43.076498587394894" lon="-3.889685248658573"><ele>664.0</ele><time>2026-05-02T11:17:27.001Z</time></trkpt><trkpt lat="43.0763983102992" lon="-3.889628695896815"><ele>668.0</ele><time>2026-05-02T11:17:29.001Z</time></trkpt><trkpt lat="43.076296565651" lon="-3.88957177936897"><ele>672.0</ele><time>2026-05-02T11:17:31.001Z</time></trkpt><trkpt lat="43.07618678397628" lon="-3.8895044152881293"><ele>676.0</ele><time>2026-05-02T11:17:33.001Z</time></trkpt><trkpt lat="43.07608311150399" lon="-3.8894256066051334"><ele>680.0</ele><time>2026-05-02T11:17:35.001Z</time></trkpt><trkpt lat="43.07596462274789" lon="-3.889359030785624"><ele>680.0</ele><time>2026-05-02T11:17:37Z</time></trkpt><trkpt lat="43.0759045308019" lon="-3.8893221087410494"><ele>680.0</ele><time>2026-05-02T11:17:38Z</time></trkpt><trkpt lat="43.075843894932675" lon="-3.889283374212752"><ele>680.0</ele><time>2026-05-02T11:17:39Z</time></trkpt><trkpt lat="43.07578034817977" lon="-3.889246522347401"><ele>680.0</ele><time>2026-05-02T11:17:40Z</time></trkpt><trkpt lat="43.07571386395187" lon="-3.8892074140653063"><ele>680.0</ele><time>2026-05-02T11:17:41Z</time></trkpt><trkpt lat="43.075643374710985" lon="-3.8891673908067954"><ele>680.0</ele><time>2026-05-02T11:17:42Z</time></trkpt><trkpt lat="43.0755694390645" lon="-3.889139297629251"><ele>680.0</ele><time>2026-05-02T11:17:43Z</time></trkpt><trkpt lat="43.07549065667925" lon="-3.8891215061731357"><ele>679.1666666666666</ele><time>2026-05-02T11:17:44Z</time></trkpt><trkpt lat="43.07541117520425" lon="-3.8891042786715646"><ele>678.3333333333333</ele><time>2026-05-02T11:17:45Z</time></trkpt><trkpt lat="43.07532472413867" lon="-3.889101125816635"><ele>677.5</ele><time>2026-05-02T11:17:46Z</time></trkpt><trkpt lat="43.07524192640306" lon="-3.889101197212719"><ele>676.6666666666666</ele><time>2026-05-02T11:17:47Z</time></trkpt><trkpt lat="43.0751512392943" lon="-3.889111087557325"><ele>675.8333333333334</ele><time>2026-05-02T11:17:48Z</time></trkpt><trkpt lat="43.07505609678628" lon="-3.8891248733804975"><ele>675.0</ele><time>2026-05-02T11:17:49Z</time></trkpt><trkpt lat="43.07495973311339" lon="-3.889129223912964"><ele>673.8</ele><time>2026-05-02T11:17:50Z</time></trkpt><trkpt lat="43.07486371165765" lon="-3.8891374016010105"><ele>672.6</ele><time>2026-05-02T11:17:51Z</time></trkpt><trkpt lat="43.07476173107164" lon="-3.8891510604344495"><ele>671.4000000000001</ele><time>2026-05-02T11:17:52Z</time></trkpt><trkpt lat="43.074661999668855" lon="-3.88916473978221"><ele>670.2</ele><time>2026-05-02T11:17:53Z</time></trkpt><trkpt lat="43.074557490436334" lon="-3.889175794229135"><ele>669.0</ele><time>2026-05-02T11:17:54Z</time></trkpt><trkpt lat="43.074461680179404" lon="-3.88921946669488"><ele>669.0</ele><time>2026-05-02T11:17:55Z</time></trkpt><trkpt lat="43.074355236989874" lon="-3.8892488602772133"><ele>669.0</ele><time>2026-05-02T11:17:56Z</time></trkpt><trkpt lat="43.074247218595154" lon="-3.8892673935415902"><ele>669.0</ele><time>2026-05-02T11:17:57Z</time></trkpt><trkpt lat="43.07413859497721" lon="-3.8892749651012255"><ele>669.0</ele><time>2026-05-02T11:17:58Z</time></trkpt><trkpt lat="43.0740316667537" lon="-3.8892647804284888"><ele>669.0</ele><time>2026-05-02T11:17:59Z</time></trkpt><trkpt lat="43.07392853198684" lon="-3.889241998677697"><ele>672.0</ele><time>2026-05-02T11:18:00Z</time></trkpt><trkpt lat="43.0738310737492" lon="-3.8891830798867324"><ele>675.0</ele><time>2026-05-02T11:18:01Z</time></trkpt><trkpt lat="43.07373477630271" lon="-3.889143146795914"><ele>678.0</ele><time>2026-05-02T11:18:02Z</time></trkpt><trkpt lat="43.07364851301697" lon="-3.889077831232364"><ele>681.0</ele><time>2026-05-02T11:18:03Z</time></trkpt><trkpt lat="43.07357414861437" lon="-3.8889972728235738"><ele>684.0</ele><time>2026-05-02T11:18:04Z</time></trkpt><trkpt lat="43.073504385802465" lon="-3.8889076143174055"><ele>684.0</ele><time>2026-05-02T11:18:05Z</time></trkpt><trkpt lat="43.073446327084675" lon="-3.8888122144786355"><ele>684.0</ele><time>2026-05-02T11:18:06Z</time></trkpt><trkpt lat="43.07340540159622" lon="-3.8887059009032137"><ele>684.0</ele><time>2026-05-02T11:18:07Z</time></trkpt><trkpt lat="43.07337233354953" lon="-3.888601314524213"><ele>684.0</ele><time>2026-05-02T11:18:08Z</time></trkpt><trkpt lat="43.07333939433775" lon="-3.8884988714399227"><ele>684.0</ele><time>2026-05-02T11:18:09Z</time></trkpt><trkpt lat="43.073304071485666" lon="-3.888407229546987"><ele>684.0</ele><time>2026-05-02T11:18:10Z</time></trkpt><trkpt lat="43.073274005872236" lon="-3.888313291901817"><ele>687.1428571428571</ele><time>2026-05-02T11:18:11Z</time></trkpt><trkpt lat="43.07324372019939" lon="-3.888225093781764"><ele>690.2857142857142</ele><time>2026-05-02T11:18:12Z</time></trkpt><trkpt lat="43.073209772833394" lon="-3.8881422806362553"><ele>693.4285714285713</ele><time>2026-05-02T11:18:13Z</time></trkpt><trkpt lat="43.073174757854325" lon="-3.888065968854342"><ele>696.5714285714286</ele><time>2026-05-02T11:18:14Z</time></trkpt><trkpt lat="43.07313616048294" lon="-3.887990184153237"><ele>699.7142857142858</ele><time>2026-05-02T11:18:15Z</time></trkpt><trkpt lat="43.07309199726215" lon="-3.8879241801075834"><ele>702.8571428571428</ele><time>2026-05-02T11:18:16Z</time></trkpt><trkpt lat="43.07304527303107" lon="-3.8878607302024735"><ele>706.0</ele><time>2026-05-02T11:18:17Z</time></trkpt><trkpt lat="43.07295555521504" lon="-3.8877527610662015"><ele>706.0</ele><time>2026-05-02T11:18:19Z</time></trkpt><trkpt lat="43.07284807585857" lon="-3.887684141093722"><ele>706.0</ele><time>2026-05-02T11:18:21Z</time></trkpt><trkpt lat="43.07275154805232" lon="-3.8876057622421687"><ele>706.0</ele><time>2026-05-02T11:18:23Z</time></trkpt><trkpt lat="43.072660553888" lon="-3.887519034681866"><ele>706.0</ele><time>2026-05-02T11:18:25Z</time></trkpt><trkpt lat="43.07256938081622" lon="-3.88744587204401"><ele>706.0</ele><time>2026-05-02T11:18:27Z</time></trkpt><trkpt lat="43.07247624849788" lon="-3.887371457166465"><ele>709.0</ele><time>2026-05-02T11:18:29Z</time></trkpt><trkpt lat="43.07238379827075" lon="-3.887293272616654"><ele>712.0</ele><time>2026-05-02T11:18:31Z</time></trkpt><trkpt lat="43.07229123634003" lon="-3.887216969277146"><ele>715.0</ele><time>2026-05-02T11:18:33Z</time></trkpt><trkpt lat="43.0722002192337" lon="-3.8871409134266512"><ele>718.0</ele><time>2026-05-02T11:18:35Z</time></trkpt><trkpt lat="43.072114567992294" lon="-3.8870651269544916"><ele>721.0</ele><time>2026-05-02T11:18:37Z</time></trkpt><trkpt lat="43.072027064266734" lon="-3.886994498377534"><ele>721.0</ele><time>2026-05-02T11:18:39Z</time></trkpt><trkpt lat="43.07193896443297" lon="-3.8869204539424858"><ele>721.0</ele><time>2026-05-02T11:18:41Z</time></trkpt><trkpt lat="43.07185045651291" lon="-3.886845878480058"><ele>721.0</ele><time>2026-05-02T11:18:43Z</time></trkpt><trkpt lat="43.07175884348488" lon="-3.8867772809438033"><ele>721.0</ele><time>2026-05-02T11:18:45Z</time></trkpt><trkpt lat="43.071676997189414" lon="-3.8866990352001047"><ele>721.0</ele><time>2026-05-02T11:18:47Z</time></trkpt><trkpt lat="43.071602121970436" lon="-3.8866031371616674"><ele>723.0</ele><time>2026-05-02T11:18:49Z</time></trkpt><trkpt lat="43.07153594692089" lon="-3.886495364013062"><ele>725.0</ele><time>2026-05-02T11:18:51Z</time></trkpt><trkpt lat="43.071470629751964" lon="-3.886383569568513"><ele>727.0</ele><time>2026-05-02T11:18:53Z</time></trkpt><trkpt lat="43.071407492828435" lon="-3.886267730052059"><ele>729.0</ele><time>2026-05-02T11:18:55Z</time></trkpt><trkpt lat="43.07135171167059" lon="-3.8861568215249"><ele>731.0</ele><time>2026-05-02T11:18:57Z</time></trkpt><trkpt lat="43.071296754352154" lon="-3.8860463152891707"><ele>731.0</ele><time>2026-05-02T11:18:59Z</time></trkpt><trkpt lat="43.071241130905996" lon="-3.8859359961319786"><ele>731.0</ele><time>2026-05-02T11:19:01Z</time></trkpt><trkpt lat="43.071183123428426" lon="-3.8858290370579947"><ele>731.0</ele><time>2026-05-02T11:19:03Z</time></trkpt><trkpt lat="43.07112525577316" lon="-3.8857228020622796"><ele>731.0</ele><time>2026-05-02T11:19:05Z</time></trkpt><trkpt lat="43.07106744432277" lon="-3.885618430100811"><ele>731.0</ele><time>2026-05-02T11:19:07Z</time></trkpt><trkpt lat="43.07101060557781" lon="-3.885512360082664"><ele>730.8</ele><time>2026-05-02T11:19:09Z</time></trkpt><trkpt lat="43.07095566499179" lon="-3.885410213465545"><ele>730.5999999999999</ele><time>2026-05-02T11:19:11Z</time></trkpt><trkpt lat="43.07090187344961" lon="-3.885307029629377"><ele>730.4</ele><time>2026-05-02T11:19:13Z</time></trkpt><trkpt lat="43.07084776749435" lon="-3.885202397111485"><ele>730.2</ele><time>2026-05-02T11:19:15Z</time></trkpt><trkpt lat="43.070788858377306" lon="-3.885101370882244"><ele>730.0</ele><time>2026-05-02T11:19:17Z</time></trkpt><trkpt lat="43.07072951812317" lon="-3.884998751251025"><ele>732.2</ele><time>2026-05-02T11:19:19Z</time></trkpt><trkpt lat="43.07067184116759" lon="-3.8848867220021863"><ele>734.4</ele><time>2026-05-02T11:19:21Z</time></trkpt><trkpt lat="43.07061286776597" lon="-3.8847784178203444"><ele>736.5999999999999</ele><time>2026-05-02T11:19:23Z</time></trkpt><trkpt lat="43.070555354294115" lon="-3.8846679501278514"><ele>738.8</ele><time>2026-05-02T11:19:25Z</time></trkpt><trkpt lat="43.07049628000541" lon="-3.884553665917457"><ele>741.0</ele><time>2026-05-02T11:19:27Z</time></trkpt><trkpt lat="43.070431820377614" lon="-3.8844436236665727"><ele>741.0</ele><time>2026-05-02T11:19:29Z</time></trkpt><trkpt lat="43.07036990362567" lon="-3.884324751460352"><ele>741.0</ele><time>2026-05-02T11:19:31Z</time></trkpt><trkpt lat="43.07030223389914" lon="-3.884211019935745"><ele>741.0</ele><time>2026-05-02T11:19:33Z</time></trkpt><trkpt lat="43.070233838429026" lon="-3.8841021939503513"><ele>741.0</ele><time>2026-05-02T11:19:35.001Z</time></trkpt><trkpt lat="43.07015935193784" lon="-3.88399607834704"><ele>741.0</ele><time>2026-05-02T11:19:37.001Z</time></trkpt><trkpt lat="43.070077102176555" lon="-3.8838988161163996"><ele>741.8</ele><time>2026-05-02T11:19:39.001Z</time></trkpt><trkpt lat="43.069993006862816" lon="-3.8838057119952336"><ele>742.5999999999999</ele><time>2026-05-02T11:19:41.001Z</time></trkpt><trkpt lat="43.06990244088501" lon="-3.8837246061531645"><ele>743.4</ele><time>2026-05-02T11:19:43Z</time></trkpt><trkpt lat="43.06980546096052" lon="-3.8836504187499497"><ele>744.2</ele><time>2026-05-02T11:19:45Z</time></trkpt><trkpt lat="43.06970425552401" lon="-3.8835866467476308"><ele>745.0</ele><time>2026-05-02T11:19:47Z</time></trkpt><trkpt lat="43.06960129192734" lon="-3.883535357181908"><ele>747.8</ele><time>2026-05-02T11:19:49Z</time></trkpt><trkpt lat="43.06949264326888" lon="-3.8834956744705975"><ele>750.6</ele><time>2026-05-02T11:19:51Z</time></trkpt><trkpt lat="43.06938473200798" lon="-3.883467750288398"><ele>753.4000000000001</ele><time>2026-05-02T11:19:53Z</time></trkpt><trkpt lat="43.069273196498465" lon="-3.88344707322077"><ele>756.2</ele><time>2026-05-02T11:19:55Z</time></trkpt><trkpt lat="43.06916013606031" lon="-3.8834370284849338"><ele>759.0</ele><time>2026-05-02T11:19:57Z</time></trkpt><trkpt lat="43.06904276663627" lon="-3.88346017519485"><ele>761.25</ele><time>2026-05-02T11:19:59Z</time></trkpt><trkpt lat="43.068926628577906" lon="-3.883457991390645"><ele>763.5</ele><time>2026-05-02T11:20:01Z</time></trkpt><trkpt lat="43.068811726691926" lon="-3.883490549594136"><ele>765.75</ele><time>2026-05-02T11:20:03Z</time></trkpt><trkpt lat="43.0686955640181" lon="-3.883539015841035"><ele>768.0</ele><time>2026-05-02T11:20:05Z</time></trkpt><trkpt lat="43.06858654564414" lon="-3.88360073099298"><ele>768.0</ele><time>2026-05-02T11:20:07Z</time></trkpt><trkpt lat="43.0684796145132" lon="-3.8836771020377827"><ele>768.0</ele><time>2026-05-02T11:20:09Z</time></trkpt><trkpt lat="43.06838074371941" lon="-3.8837624531667725"><ele>768.0</ele><time>2026-05-02T11:20:11Z</time></trkpt><trkpt lat="43.06828329310004" lon="-3.883855722611808"><ele>768.0</ele><time>2026-05-02T11:20:13Z</time></trkpt><trkpt lat="43.06819102266645" lon="-3.883957531579551"><ele>770.75</ele><time>2026-05-02T11:20:15Z</time></trkpt><trkpt lat="43.06810760308215" lon="-3.8840683672985223"><ele>773.5</ele><time>2026-05-02T11:20:17Z</time></trkpt><trkpt lat="43.0680265052616" lon="-3.884183014298743"><ele>776.25</ele><time>2026-05-02T11:20:19Z</time></trkpt><trkpt lat="43.06794526426906" lon="-3.8842984022080986"><ele>779.0</ele><time>2026-05-02T11:20:21Z</time></trkpt><trkpt lat="43.067865833901024" lon="-3.884414056746384"><ele>780.0</ele><time>2026-05-02T11:20:23Z</time></trkpt><trkpt lat="43.0677841663212" lon="-3.884530461349533"><ele>781.0</ele><time>2026-05-02T11:20:25Z</time></trkpt><trkpt lat="43.06770389482941" lon="-3.884644991069684"><ele>782.0</ele><time>2026-05-02T11:20:27Z</time></trkpt><trkpt lat="43.06761817455089" lon="-3.8847455866787364"><ele>783.0</ele><time>2026-05-02T11:20:29Z</time></trkpt><trkpt lat="43.06752453461759" lon="-3.8848398314611514"><ele>784.75</ele><time>2026-05-02T11:20:31Z</time></trkpt><trkpt lat="43.067428031267525" lon="-3.884928089211877"><ele>786.5</ele><time>2026-05-02T11:20:33Z</time></trkpt><trkpt lat="43.06732636946857" lon="-3.8850098298702376"><ele>788.25</ele><time>2026-05-02T11:20:35Z</time></trkpt><trkpt lat="43.067213963760494" lon="-3.8850756593735314"><ele>790.0</ele><time>2026-05-02T11:20:37Z</time></trkpt><trkpt lat="43.06709495508" lon="-3.88513003931964"><ele>790.4285714285714</ele><time>2026-05-02T11:20:39Z</time></trkpt><trkpt lat="43.067033272453806" lon="-3.885153732818187"><ele>790.8571428571429</ele><time>2026-05-02T11:20:40Z</time></trkpt><trkpt lat="43.06696732191172" lon="-3.8851729536375963"><ele>791.2857142857143</ele><time>2026-05-02T11:20:41Z</time></trkpt><trkpt lat="43.06689741930428" lon="-3.885187217482691"><ele>791.7142857142858</ele><time>2026-05-02T11:20:42Z</time></trkpt><trkpt lat="43.06682628674229" lon="-3.8851973458798317"><ele>792.1428571428571</ele><time>2026-05-02T11:20:43Z</time></trkpt><trkpt lat="43.06675277192965" lon="-3.8852108349135013"><ele>792.5714285714287</ele><time>2026-05-02T11:20:44Z</time></trkpt><trkpt lat="43.066677307252064" lon="-3.885217157718236"><ele>793.0</ele><time>2026-05-02T11:20:45Z</time></trkpt><trkpt lat="43.06659944257858" lon="-3.8852209752207436"><ele>793.3333333333333</ele><time>2026-05-02T11:20:46Z</time></trkpt><trkpt lat="43.066520356472836" lon="-3.8852199197104667"><ele>793.6666666666666</ele><time>2026-05-02T11:20:47Z</time></trkpt><trkpt lat="43.0664369680199" lon="-3.885220736771357"><ele>794.0</ele><time>2026-05-02T11:20:48Z</time></trkpt><trkpt lat="43.06635362508991" lon="-3.8852192728308994"><ele>794.3333333333333</ele><time>2026-05-02T11:20:49Z</time></trkpt><trkpt lat="43.06626689242849" lon="-3.8852158757738198"><ele>794.6666666666666</ele><time>2026-05-02T11:20:50Z</time></trkpt><trkpt lat="43.06618019877573" lon="-3.885217365370411"><ele>795.0</ele><time>2026-05-02T11:20:51Z</time></trkpt><trkpt lat="43.06608927082881" lon="-3.8852167602642207"><ele>795.0</ele><time>2026-05-02T11:20:52Z</time></trkpt><trkpt lat="43.0659943301541" lon="-3.8852194408242764"><ele>795.0</ele><time>2026-05-02T11:20:53Z</time></trkpt><trkpt lat="43.06589444282725" lon="-3.8852238711877"><ele>795.0</ele><time>2026-05-02T11:20:54Z</time></trkpt><trkpt lat="43.06579657600839" lon="-3.885228974428384"><ele>795.0</ele><time>2026-05-02T11:20:55Z</time></trkpt><trkpt lat="43.065697376605534" lon="-3.885233224459501"><ele>795.0</ele><time>2026-05-02T11:20:56Z</time></trkpt><trkpt lat="43.06559745151469" lon="-3.8852337943490083"><ele>794.8</ele><time>2026-05-02T11:20:57Z</time></trkpt><trkpt lat="43.06549822408142" lon="-3.885238522787623"><ele>794.6</ele><time>2026-05-02T11:20:58Z</time></trkpt><trkpt lat="43.06540175326499" lon="-3.8852447641403565"><ele>794.4000000000001</ele><time>2026-05-02T11:20:59Z</time></trkpt><trkpt lat="43.06530512566208" lon="-3.885243650417249"><ele>794.2</ele><time>2026-05-02T11:21:00Z</time></trkpt><trkpt lat="43.065206673331446" lon="-3.8852365342088877"><ele>794.0</ele><time>2026-05-02T11:21:01Z</time></trkpt><trkpt lat="43.06510440342868" lon="-3.8852246984926446"><ele>794.0</ele><time>2026-05-02T11:21:02Z</time></trkpt><trkpt lat="43.06500442742683" lon="-3.8852134022668428"><ele>794.0</ele><time>2026-05-02T11:21:03Z</time></trkpt><trkpt lat="43.064910704186374" lon="-3.8852026779538"><ele>794.0</ele><time>2026-05-02T11:21:04Z</time></trkpt><trkpt lat="43.06481670279146" lon="-3.8851896086505837"><ele>794.0</ele><time>2026-05-02T11:21:05Z</time></trkpt><trkpt lat="43.06472899856283" lon="-3.8851686829446956"><ele>794.0</ele><time>2026-05-02T11:21:06Z</time></trkpt><trkpt lat="43.064642750023594" lon="-3.8851450811615162"><ele>794.5000000000001</ele><time>2026-05-02T11:21:07Z</time></trkpt><trkpt lat="43.06456083429918" lon="-3.8851160604740658"><ele>795.0</ele><time>2026-05-02T11:21:08Z</time></trkpt><trkpt lat="43.06448560679512" lon="-3.885085645596005"><ele>795.5</ele><time>2026-05-02T11:21:09Z</time></trkpt><trkpt lat="43.064413368518885" lon="-3.885052244014886"><ele>796.0</ele><time>2026-05-02T11:21:10Z</time></trkpt><trkpt lat="43.064344516677636" lon="-3.885019719402216"><ele>796.5000000000001</ele><time>2026-05-02T11:21:11Z</time></trkpt><trkpt lat="43.06427643106627" lon="-3.8849894113949324"><ele>797.0</ele><time>2026-05-02T11:21:12Z</time></trkpt><trkpt lat="43.06421165289688" lon="-3.8849638212907758"><ele>797.0</ele><time>2026-05-02T11:21:13Z</time></trkpt><trkpt lat="43.064148545504686" lon="-3.88493995201677"><ele>797.0</ele><time>2026-05-02T11:21:14Z</time></trkpt><trkpt lat="43.064086936128696" lon="-3.88491797685083"><ele>797.0</ele><time>2026-05-02T11:21:15Z</time></trkpt><trkpt lat="43.06396841305681" lon="-3.8848785844442366"><ele>797.0</ele><time>2026-05-02T11:21:17Z</time></trkpt><trkpt lat="43.063852407224374" lon="-3.884855551984576"><ele>797.0</ele><time>2026-05-02T11:21:19Z</time></trkpt><trkpt lat="43.06374116879556" lon="-3.884861756977586"><ele>799.0</ele><time>2026-05-02T11:21:21Z</time></trkpt><trkpt lat="43.06363535930733" lon="-3.884891148030711"><ele>801.0</ele><time>2026-05-02T11:21:23Z</time></trkpt><trkpt lat="43.063534622652604" lon="-3.8849428304296754"><ele>803.0</ele><time>2026-05-02T11:21:25Z</time></trkpt><trkpt lat="43.06344567867564" lon="-3.885015400663933"><ele>805.0</ele><time>2026-05-02T11:21:27.001Z</time></trkpt><trkpt lat="43.063361585165076" lon="-3.885096480245266"><ele>807.0</ele><time>2026-05-02T11:21:29.001Z</time></trkpt><trkpt lat="43.06328636495221" lon="-3.885187088752026"><ele>809.6</ele><time>2026-05-02T11:21:31.001Z</time></trkpt><trkpt lat="43.06321646293221" lon="-3.885288055822814"><ele>812.2</ele><time>2026-05-02T11:21:33.001Z</time></trkpt><trkpt lat="43.06314599003048" lon="-3.8853798648969895"><ele>814.8</ele><time>2026-05-02T11:21:35.001Z</time></trkpt><trkpt lat="43.06307495871775" lon="-3.88547508247477"><ele>817.4</ele><time>2026-05-02T11:21:37.001Z</time></trkpt><trkpt lat="43.06300660117656" lon="-3.8855728425872145"><ele>820.0</ele><time>2026-05-02T11:21:39.001Z</time></trkpt><trkpt lat="43.06293780070771" lon="-3.8856712300807006"><ele>820.0</ele><time>2026-05-02T11:21:41.001Z</time></trkpt><trkpt lat="43.0628688302597" lon="-3.8857643203686374"><ele>820.0</ele><time>2026-05-02T11:21:43.001Z</time></trkpt><trkpt lat="43.06280077778904" lon="-3.885858728782766"><ele>820.0</ele><time>2026-05-02T11:21:45.001Z</time></trkpt><trkpt lat="43.06273208589676" lon="-3.885953728197583"><ele>820.0</ele><time>2026-05-02T11:21:47.001Z</time></trkpt><trkpt lat="43.06266286063318" lon="-3.8860454415727945"><ele>820.0</ele><time>2026-05-02T11:21:49Z</time></trkpt><trkpt lat="43.06259586212623" lon="-3.886141256658699"><ele>822.8</ele><time>2026-05-02T11:21:51Z</time></trkpt><trkpt lat="43.06252780364625" lon="-3.8862339794939094"><ele>825.6</ele><time>2026-05-02T11:21:53Z</time></trkpt><trkpt lat="43.06245723954557" lon="-3.886326153095229"><ele>828.4000000000001</ele><time>2026-05-02T11:21:55Z</time></trkpt><trkpt lat="43.06238282043769" lon="-3.886409506605834"><ele>831.2</ele><time>2026-05-02T11:21:57Z</time></trkpt><trkpt lat="43.062307658161885" lon="-3.886487124970472"><ele>834.0</ele><time>2026-05-02T11:21:59Z</time></trkpt><trkpt lat="43.06222035576186" lon="-3.886550187876136"><ele>835.6</ele><time>2026-05-02T11:22:01Z</time></trkpt><trkpt lat="43.06213376399411" lon="-3.8866048074166906"><ele>837.2</ele><time>2026-05-02T11:22:03Z</time></trkpt><trkpt lat="43.06203801387459" lon="-3.8866354526795197"><ele>838.8000000000001</ele><time>2026-05-02T11:22:05Z</time></trkpt><trkpt lat="43.061938101677995" lon="-3.8866443456354385"><ele>840.4000000000001</ele><time>2026-05-02T11:22:07Z</time></trkpt><trkpt lat="43.06183736693619" lon="-3.886647362513718"><ele>842.0</ele><time>2026-05-02T11:22:09Z</time></trkpt><trkpt lat="43.06173782251517" lon="-3.88663657609803"><ele>842.0</ele><time>2026-05-02T11:22:11Z</time></trkpt><trkpt lat="43.06164086237053" lon="-3.8866058220419966"><ele>842.0</ele><time>2026-05-02T11:22:13Z</time></trkpt><trkpt lat="43.06154139180112" lon="-3.88657927759984"><ele>842.0</ele><time>2026-05-02T11:22:15Z</time></trkpt><trkpt lat="43.06144347335375" lon="-3.886552690332277"><ele>842.0</ele><time>2026-05-02T11:22:17Z</time></trkpt><trkpt lat="43.06134725733353" lon="-3.886528054947457"><ele>842.0</ele><time>2026-05-02T11:22:19Z</time></trkpt><trkpt lat="43.061250971148354" lon="-3.8865112857731465"><ele>843.6</ele><time>2026-05-02T11:22:21Z</time></trkpt><trkpt lat="43.0611536914812" lon="-3.8865045177229804"><ele>845.2</ele><time>2026-05-02T11:22:23Z</time></trkpt><trkpt lat="43.061058052314635" lon="-3.886521284861962"><ele>846.8</ele><time>2026-05-02T11:22:25Z</time></trkpt><trkpt lat="43.06096548150962" lon="-3.8865611002141973"><ele>848.4</ele><time>2026-05-02T11:22:27Z</time></trkpt><trkpt lat="43.06087740794657" lon="-3.8866193279777668"><ele>850.0</ele><time>2026-05-02T11:22:29Z</time></trkpt><trkpt lat="43.06080007774918" lon="-3.886697900802396"><ele>853.0</ele><time>2026-05-02T11:22:31Z</time></trkpt><trkpt lat="43.060729140468844" lon="-3.8867945384858413"><ele>856.0</ele><time>2026-05-02T11:22:33Z</time></trkpt><trkpt lat="43.060659517973704" lon="-3.8868990505480796"><ele>859.0</ele><time>2026-05-02T11:22:35Z</time></trkpt><trkpt lat="43.06058613509203" lon="-3.8870136791358667"><ele>862.0</ele><time>2026-05-02T11:22:37Z</time></trkpt><trkpt lat="43.06051631948443" lon="-3.8871401352463852"><ele>865.0</ele><time>2026-05-02T11:22:39Z</time></trkpt><trkpt lat="43.060440939374125" lon="-3.8872549344494094"><ele>865.0</ele><time>2026-05-02T11:22:41Z</time></trkpt><trkpt lat="43.06036093801519" lon="-3.887356953695063"><ele>865.0</ele><time>2026-05-02T11:22:43Z</time></trkpt><trkpt lat="43.06027403020676" lon="-3.8874403431586866"><ele>865.0</ele><time>2026-05-02T11:22:45Z</time></trkpt><trkpt lat="43.06017705537087" lon="-3.8875021310381253"><ele>865.0</ele><time>2026-05-02T11:22:47Z</time></trkpt><trkpt lat="43.06007671146019" lon="-3.887541190574424"><ele>865.0</ele><time>2026-05-02T11:22:49Z</time></trkpt><trkpt lat="43.05997281787449" lon="-3.8875650590185984"><ele>868.8</ele><time>2026-05-02T11:22:51Z</time></trkpt><trkpt lat="43.05986032985804" lon="-3.8875543862360593"><ele>872.6</ele><time>2026-05-02T11:22:53Z</time></trkpt><trkpt lat="43.05975182869557" lon="-3.8875250622490745"><ele>876.4000000000001</ele><time>2026-05-02T11:22:55Z</time></trkpt><trkpt lat="43.05965177607932" lon="-3.8874703535258193"><ele>880.2</ele><time>2026-05-02T11:22:57Z</time></trkpt><trkpt lat="43.05955450379619" lon="-3.8874017440115454"><ele>884.0</ele><time>2026-05-02T11:22:59Z</time></trkpt><trkpt lat="43.05946144399715" lon="-3.8873258741726207"><ele>884.0</ele><time>2026-05-02T11:23:01Z</time></trkpt><trkpt lat="43.05937307208442" lon="-3.8872383050351758"><ele>884.0000000000001</ele><time>2026-05-02T11:23:03Z</time></trkpt><trkpt lat="43.059283088991435" lon="-3.887165533962356"><ele>884.0000000000001</ele><time>2026-05-02T11:23:05Z</time></trkpt><trkpt lat="43.059198506103286" lon="-3.887089985459715"><ele>884.0</ele><time>2026-05-02T11:23:07Z</time></trkpt><trkpt lat="43.05912068285332" lon="-3.887014355004899"><ele>884.0</ele><time>2026-05-02T11:23:09Z</time></trkpt><trkpt lat="43.059043255240866" lon="-3.886955349382513"><ele>886.5000000000001</ele><time>2026-05-02T11:23:11Z</time></trkpt><trkpt lat="43.05897066931699" lon="-3.886904853352059"><ele>889.0</ele><time>2026-05-02T11:23:13Z</time></trkpt><trkpt lat="43.05889252881176" lon="-3.886868662146215"><ele>891.5</ele><time>2026-05-02T11:23:15Z</time></trkpt><trkpt lat="43.058812021158175" lon="-3.8868383191545557"><ele>894.0</ele><time>2026-05-02T11:23:17.001Z</time></trkpt><trkpt lat="43.05873270007764" lon="-3.8868166634376813"><ele>896.5000000000001</ele><time>2026-05-02T11:23:19.001Z</time></trkpt><trkpt lat="43.05864986778095" lon="-3.8868188474147947"><ele>899.0</ele><time>2026-05-02T11:23:21.001Z</time></trkpt><trkpt lat="43.05856798754018" lon="-3.886821774012618"><ele>899.0000000000001</ele><time>2026-05-02T11:23:23.001Z</time></trkpt><trkpt lat="43.05848774893836" lon="-3.886835726584653"><ele>899.0</ele><time>2026-05-02T11:23:25.001Z</time></trkpt><trkpt lat="43.05840846498087" lon="-3.8868625260145837"><ele>899.0</ele><time>2026-05-02T11:23:27.001Z</time></trkpt><trkpt lat="43.05832672568264" lon="-3.886888634352556"><ele>899.0</ele><time>2026-05-02T11:23:29.001Z</time></trkpt><trkpt lat="43.05824647993602" lon="-3.8869188824031577"><ele>899.0000000000001</ele><time>2026-05-02T11:23:31.001Z</time></trkpt><trkpt lat="43.05816365644981" lon="-3.8869425005133196"><ele>899.0</ele><time>2026-05-02T11:23:33.001Z</time></trkpt><trkpt lat="43.05807944602151" lon="-3.886963721730797"><ele>900.8000000000001</ele><time>2026-05-02T11:23:35.001Z</time></trkpt><trkpt lat="43.05799130207881" lon="-3.886989476999552"><ele>902.6000000000001</ele><time>2026-05-02T11:23:37.001Z</time></trkpt><trkpt lat="43.057896633110076" lon="-3.8870056753769595"><ele>904.4</ele><time>2026-05-02T11:23:39.001Z</time></trkpt><trkpt lat="43.05779929145645" lon="-3.887022378281634"><ele>906.2</ele><time>2026-05-02T11:23:41.001Z</time></trkpt><trkpt lat="43.05770016779823" lon="-3.887032954118408"><ele>908.0</ele><time>2026-05-02T11:23:43.001Z</time></trkpt><trkpt lat="43.057600234198844" lon="-3.887029099333896"><ele>908.0</ele><time>2026-05-02T11:23:45.001Z</time></trkpt><trkpt lat="43.05750021431804" lon="-3.8870215342474657"><ele>908.0</ele><time>2026-05-02T11:23:47.001Z</time></trkpt><trkpt lat="43.0573972755291" lon="-3.8870101160569392"><ele>908.0</ele><time>2026-05-02T11:23:49.001Z</time></trkpt><trkpt lat="43.05729534397938" lon="-3.8869959462989976"><ele>908.0</ele><time>2026-05-02T11:23:51.001Z</time></trkpt><trkpt lat="43.0571957410348" lon="-3.8869815714829192"><ele>908.0</ele><time>2026-05-02T11:23:53.001Z</time></trkpt><trkpt lat="43.05709872004635" lon="-3.8869660026064357"><ele>910.8</ele><time>2026-05-02T11:23:55Z</time></trkpt><trkpt lat="43.05700313243924" lon="-3.8869537901354168"><ele>913.5999999999999</ele><time>2026-05-02T11:23:57Z</time></trkpt><trkpt lat="43.056910770925214" lon="-3.8869423609769767"><ele>916.4000000000001</ele><time>2026-05-02T11:23:59Z</time></trkpt><trkpt lat="43.05682028208138" lon="-3.886933615396711"><ele>919.2</ele><time>2026-05-02T11:24:01Z</time></trkpt><trkpt lat="43.05673490537121" lon="-3.886922157668196"><ele>922.0</ele><time>2026-05-02T11:24:03Z</time></trkpt><trkpt lat="43.05664703081818" lon="-3.8869125976599217"><ele>923.4000000000001</ele><time>2026-05-02T11:24:05Z</time></trkpt><trkpt lat="43.056556003407124" lon="-3.8869017112001765"><ele>924.8000000000001</ele><time>2026-05-02T11:24:07Z</time></trkpt><trkpt lat="43.05646329113072" lon="-3.886889824370709"><ele>926.2</ele><time>2026-05-02T11:24:09Z</time></trkpt><trkpt lat="43.056367030321326" lon="-3.886872727604688"><ele>927.6</ele><time>2026-05-02T11:24:11Z</time></trkpt><trkpt lat="43.056262969204624" lon="-3.886865922829237"><ele>929.0</ele><time>2026-05-02T11:24:13Z</time></trkpt><trkpt lat="43.05614930054958" lon="-3.886851893055188"><ele>929.0</ele><time>2026-05-02T11:24:15Z</time></trkpt><trkpt lat="43.05603577710683" lon="-3.8868371430071305"><ele>929.0</ele><time>2026-05-02T11:24:17Z</time></trkpt><trkpt lat="43.05591873826424" lon="-3.8868194563421263"><ele>929.0</ele><time>2026-05-02T11:24:19Z</time></trkpt><trkpt lat="43.055797745550755" lon="-3.886806338412302"><ele>929.0</ele><time>2026-05-02T11:24:21Z</time></trkpt><trkpt lat="43.055674345288644" lon="-3.8867884442498095"><ele>930.0</ele><time>2026-05-02T11:24:23Z</time></trkpt><trkpt lat="43.055553947736186" lon="-3.88677481886504"><ele>931.0</ele><time>2026-05-02T11:24:25Z</time></trkpt><trkpt lat="43.05543396172344" lon="-3.8867558209829083"><ele>932.0</ele><time>2026-05-02T11:24:27Z</time></trkpt><trkpt lat="43.05531615338036" lon="-3.8867273843040233"><ele>933.0</ele><time>2026-05-02T11:24:29Z</time></trkpt><trkpt lat="43.055205236442085" lon="-3.886680743928932"><ele>933.0</ele><time>2026-05-02T11:24:31Z</time></trkpt><trkpt lat="43.05510190752158" lon="-3.886614571252429"><ele>933.0</ele><time>2026-05-02T11:24:33Z</time></trkpt><trkpt lat="43.05500633764249" lon="-3.8865288365798016"><ele>933.0</ele><time>2026-05-02T11:24:35Z</time></trkpt><trkpt lat="43.054915975506425" lon="-3.8864234759906413"><ele>933.0</ele><time>2026-05-02T11:24:37Z</time></trkpt><trkpt lat="43.054832332769166" lon="-3.8862965623032952"><ele>935.5</ele><time>2026-05-02T11:24:39Z</time></trkpt><trkpt lat="43.05479249568622" lon="-3.886227570932608"><ele>938.0</ele><time>2026-05-02T11:24:40Z</time></trkpt><trkpt lat="43.05475409278981" lon="-3.886157373992396"><ele>940.5</ele><time>2026-05-02T11:24:41Z</time></trkpt><trkpt lat="43.0547161896627" lon="-3.8860866823862588"><ele>943.0</ele><time>2026-05-02T11:24:42Z</time></trkpt><trkpt lat="43.05467948866379" lon="-3.8860148203622726"><ele>945.5</ele><time>2026-05-02T11:24:43Z</time></trkpt><trkpt lat="43.054601907353046" lon="-3.885881212301465"><ele>948.0</ele><time>2026-05-02T11:24:45Z</time></trkpt><trkpt lat="43.05452868285549" lon="-3.885759216622858"><ele>948.0</ele><time>2026-05-02T11:24:47Z</time></trkpt><trkpt lat="43.054457274782834" lon="-3.8856532791752523"><ele>948.0</ele><time>2026-05-02T11:24:49Z</time></trkpt><trkpt lat="43.05438359335242" lon="-3.8855603502441913"><ele>948.0</ele><time>2026-05-02T11:24:51Z</time></trkpt><trkpt lat="43.05430596595511" lon="-3.8854830479960243"><ele>948.0</ele><time>2026-05-02T11:24:53Z</time></trkpt><trkpt lat="43.05422943188506" lon="-3.8854151138339508"><ele>948.0</ele><time>2026-05-02T11:24:55Z</time></trkpt><trkpt lat="43.054150755400144" lon="-3.885357907159268"><ele>950.2</ele><time>2026-05-02T11:24:57Z</time></trkpt><trkpt lat="43.05406215794021" lon="-3.88530608002032"><ele>952.4</ele><time>2026-05-02T11:24:59Z</time></trkpt><trkpt lat="43.05396768423451" lon="-3.885248861433584"><ele>954.6000000000001</ele><time>2026-05-02T11:25:01Z</time></trkpt><trkpt lat="43.05386887381016" lon="-3.885192048628647"><ele>956.8000000000001</ele><time>2026-05-02T11:25:03Z</time></trkpt><trkpt lat="43.05377567397679" lon="-3.8851345244004567"><ele>959.0</ele><time>2026-05-02T11:25:05Z</time></trkpt><trkpt lat="43.05368065003347" lon="-3.885082519921702"><ele>959.0</ele><time>2026-05-02T11:25:07Z</time></trkpt><trkpt lat="43.053589303416814" lon="-3.8850304588892697"><ele>959.0000000000001</ele><time>2026-05-02T11:25:09Z</time></trkpt><trkpt lat="43.05350269191002" lon="-3.8849790708285648"><ele>959.0000000000001</ele><time>2026-05-02T11:25:11Z</time></trkpt><trkpt lat="43.053416561528664" lon="-3.884931488470348"><ele>959.0</ele><time>2026-05-02T11:25:13Z</time></trkpt><trkpt lat="43.05333210502243" lon="-3.884883976581788"><ele>959.0</ele><time>2026-05-02T11:25:15Z</time></trkpt><trkpt lat="43.05324552850386" lon="-3.884849654135364"><ele>962.0</ele><time>2026-05-02T11:25:17Z</time></trkpt><trkpt lat="43.05316092292756" lon="-3.884818509968556"><ele>965.0000000000001</ele><time>2026-05-02T11:25:19Z</time></trkpt><trkpt lat="43.05307453976835" lon="-3.8847836105401674"><ele>968.0000000000001</ele><time>2026-05-02T11:25:21Z</time></trkpt><trkpt lat="43.05298757249727" lon="-3.8847532811450307"><ele>971.0</ele><time>2026-05-02T11:25:23Z</time></trkpt><trkpt lat="43.052895765118414" lon="-3.884729739365155"><ele>974.0</ele><time>2026-05-02T11:25:25.001Z</time></trkpt><trkpt lat="43.05280523860892" lon="-3.884695106125931"><ele>974.0</ele><time>2026-05-02T11:25:27.001Z</time></trkpt><trkpt lat="43.05271205208425" lon="-3.884658171056994"><ele>974.0000000000001</ele><time>2026-05-02T11:25:29.001Z</time></trkpt><trkpt lat="43.05261715373323" lon="-3.88463137391682"><ele>974.0000000000001</ele><time>2026-05-02T11:25:31.001Z</time></trkpt><trkpt lat="43.05251977432781" lon="-3.8846021434871374"><ele>974.0</ele><time>2026-05-02T11:25:33.001Z</time></trkpt><trkpt lat="43.052425794266746" lon="-3.8845715733229835"><ele>974.0</ele><time>2026-05-02T11:25:35.001Z</time></trkpt><trkpt lat="43.05233135010681" lon="-3.884536417488884"><ele>976.6</ele><time>2026-05-02T11:25:37.001Z</time></trkpt><trkpt lat="43.052240042630025" lon="-3.884504778540646"><ele>979.2</ele><time>2026-05-02T11:25:39.001Z</time></trkpt><trkpt lat="43.05215078026521" lon="-3.8844688960839218"><ele>981.8000000000001</ele><time>2026-05-02T11:25:41.001Z</time></trkpt><trkpt lat="43.052060730738354" lon="-3.884431410529355"><ele>984.4000000000001</ele><time>2026-05-02T11:25:43.001Z</time></trkpt><trkpt lat="43.051972599737965" lon="-3.884386938033649"><ele>987.0</ele><time>2026-05-02T11:25:45.001Z</time></trkpt><trkpt lat="43.05188341883466" lon="-3.8843223999369707"><ele>985.25</ele><time>2026-05-02T11:25:47.001Z</time></trkpt><trkpt lat="43.05179485810866" lon="-3.8842371840646357"><ele>983.5</ele><time>2026-05-02T11:25:49.001Z</time></trkpt><trkpt lat="43.0517154952474" lon="-3.884130388871045"><ele>981.75</ele><time>2026-05-02T11:25:51.001Z</time></trkpt><trkpt lat="43.05164126270196" lon="-3.883999192136397"><ele>980.0</ele><time>2026-05-02T11:25:53.001Z</time></trkpt><trkpt lat="43.05157302977553" lon="-3.8838608963504733"><ele>984.0</ele><time>2026-05-02T11:25:55.001Z</time></trkpt><trkpt lat="43.051510197869966" lon="-3.8837143260238998"><ele>988.0</ele><time>2026-05-02T11:25:57.001Z</time></trkpt><trkpt lat="43.051454412158634" lon="-3.883565002397134"><ele>992.0</ele><time>2026-05-02T11:25:59.001Z</time></trkpt><trkpt lat="43.05139297064899" lon="-3.8834169032131314"><ele>996.0</ele><time>2026-05-02T11:26:01Z</time></trkpt><trkpt lat="43.051333737948895" lon="-3.8832683320118853"><ele>996.1999999999999</ele><time>2026-05-02T11:26:03Z</time></trkpt><trkpt lat="43.051304442541905" lon="-3.883191871347888"><ele>996.3999999999999</ele><time>2026-05-02T11:26:04Z</time></trkpt><trkpt lat="43.05127175054769" lon="-3.8831164341490827"><ele>996.6</ele><time>2026-05-02T11:26:05Z</time></trkpt><trkpt lat="43.05120684624846" lon="-3.882969745821917"><ele>996.8</ele><time>2026-05-02T11:26:07Z</time></trkpt><trkpt lat="43.05115044267062" lon="-3.8828209333617263"><ele>997.0</ele><time>2026-05-02T11:26:09Z</time></trkpt><trkpt lat="43.05109710023334" lon="-3.8826712720235133"><ele>997.2</ele><time>2026-05-02T11:26:11Z</time></trkpt><trkpt lat="43.05105191426207" lon="-3.882521152817926"><ele>997.4000000000001</ele><time>2026-05-02T11:26:13Z</time></trkpt><trkpt lat="43.05100648653431" lon="-3.8823750870925773"><ele>997.5999999999999</ele><time>2026-05-02T11:26:15Z</time></trkpt><trkpt lat="43.05102018301898" lon="-3.882283939520005"><ele>997.8</ele><time>2026-05-02T11:26:16Z</time></trkpt><trkpt lat="43.051015581704874" lon="-3.882115295006275"><ele>998.0</ele><time>2026-05-02T11:26:18Z</time></trkpt><trkpt lat="43.051010343862195" lon="-3.8819426603680087"><ele>998.0000000000001</ele><time>2026-05-02T11:26:20Z</time></trkpt><trkpt lat="43.05100776709247" lon="-3.881856200821116"><ele>998.0</ele><time>2026-05-02T11:26:21Z</time></trkpt><trkpt lat="43.05100405503245" lon="-3.8817697924380625"><ele>998.0000000000001</ele><time>2026-05-02T11:26:22Z</time></trkpt><trkpt lat="43.05099763239442" lon="-3.881682094031593"><ele>998.0000000000001</ele><time>2026-05-02T11:26:23Z</time></trkpt><trkpt lat="43.050987577230146" lon="-3.881593767091574"><ele>998.0</ele><time>2026-05-02T11:26:24Z</time></trkpt><trkpt lat="43.05097307611147" lon="-3.8815072112612077"><ele>998.0000000000001</ele><time>2026-05-02T11:26:25Z</time></trkpt><trkpt lat="43.050952892837344" lon="-3.8814192314734144"><ele>998.0000000000001</ele><time>2026-05-02T11:26:26Z</time></trkpt><trkpt lat="43.05092604325154" lon="-3.8813351759116426"><ele>998.5714285714287</ele><time>2026-05-02T11:26:27Z</time></trkpt><trkpt lat="43.05089055774283" lon="-3.881255909340404"><ele>999.1428571428571</ele><time>2026-05-02T11:26:28Z</time></trkpt><trkpt lat="43.050845184738584" lon="-3.8811848562553974"><ele>999.7142857142858</ele><time>2026-05-02T11:26:29Z</time></trkpt><trkpt lat="43.05079694310261" lon="-3.8811222838282915"><ele>1000.2857142857143</ele><time>2026-05-02T11:26:30Z</time></trkpt><trkpt lat="43.05074399469361" lon="-3.881060014787169"><ele>1000.8571428571429</ele><time>2026-05-02T11:26:31Z</time></trkpt><trkpt lat="43.0506894673834" lon="-3.881004066389604"><ele>1001.4285714285714</ele><time>2026-05-02T11:26:32Z</time></trkpt><trkpt lat="43.05063037040578" lon="-3.880953181295035"><ele>1002.0</ele><time>2026-05-02T11:26:33Z</time></trkpt><trkpt lat="43.0505697878993" lon="-3.880913218433647"><ele>1002.8571428571429</ele><time>2026-05-02T11:26:34Z</time></trkpt><trkpt lat="43.050508895240085" lon="-3.880876171522779"><ele>1003.7142857142857</ele><time>2026-05-02T11:26:35Z</time></trkpt><trkpt lat="43.05044577771524" lon="-3.8808420833052955"><ele>1004.5714285714286</ele><time>2026-05-02T11:26:36Z</time></trkpt><trkpt lat="43.050380367931005" lon="-3.8808117312523254"><ele>1005.4285714285714</ele><time>2026-05-02T11:26:37Z</time></trkpt><trkpt lat="43.05031565501579" lon="-3.8807813356020264"><ele>1006.2857142857142</ele><time>2026-05-02T11:26:38Z</time></trkpt><trkpt lat="43.050249173493775" lon="-3.880752929747316"><ele>1007.1428571428571</ele><time>2026-05-02T11:26:39Z</time></trkpt><trkpt lat="43.05018229511365" lon="-3.8807225007049264"><ele>1008.0</ele><time>2026-05-02T11:26:40Z</time></trkpt><trkpt lat="43.050113389537145" lon="-3.8806920963286604"><ele>1008.0</ele><time>2026-05-02T11:26:41Z</time></trkpt><trkpt lat="43.050045813179935" lon="-3.8806619907867157"><ele>1008.0</ele><time>2026-05-02T11:26:42Z</time></trkpt><trkpt lat="43.049977653853894" lon="-3.88063136421509"><ele>1008.0</ele><time>2026-05-02T11:26:43Z</time></trkpt><trkpt lat="43.049908632384884" lon="-3.88060035624071"><ele>1008.0</ele><time>2026-05-02T11:26:44Z</time></trkpt><trkpt lat="43.04983983160116" lon="-3.880568644177176"><ele>1008.0</ele><time>2026-05-02T11:26:45Z</time></trkpt><trkpt lat="43.04976915639207" lon="-3.8805349735505246"><ele>1008.0</ele><time>2026-05-02T11:26:46Z</time></trkpt><trkpt lat="43.04969641634259" lon="-3.8805001064148974"><ele>1008.0</ele><time>2026-05-02T11:26:47Z</time></trkpt><trkpt lat="43.049620568700036" lon="-3.8804639177037834"><ele>1009.6666666666666</ele><time>2026-05-02T11:26:48Z</time></trkpt><trkpt lat="43.049543281382306" lon="-3.8804272992328963"><ele>1011.3333333333333</ele><time>2026-05-02T11:26:49Z</time></trkpt><trkpt lat="43.049465470226366" lon="-3.8803884006889406"><ele>1013.0</ele><time>2026-05-02T11:26:50Z</time></trkpt><trkpt lat="43.04938732918425" lon="-3.880346923200769"><ele>1014.6666666666666</ele><time>2026-05-02T11:26:51Z</time></trkpt><trkpt lat="43.049306729563895" lon="-3.88030551310507"><ele>1016.3333333333333</ele><time>2026-05-02T11:26:52Z</time></trkpt><trkpt lat="43.04922349301563" lon="-3.880262048996581"><ele>1018.0</ele><time>2026-05-02T11:26:53Z</time></trkpt><trkpt lat="43.04914256919313" lon="-3.880216217423224"><ele>1019.0</ele><time>2026-05-02T11:26:54Z</time></trkpt><trkpt lat="43.04906130976469" lon="-3.8801743401262216"><ele>1020.0</ele><time>2026-05-02T11:26:55Z</time></trkpt><trkpt lat="43.04897747905921" lon="-3.880129077713165"><ele>1021.0</ele><time>2026-05-02T11:26:56Z</time></trkpt><trkpt lat="43.04889544394915" lon="-3.880080516347164"><ele>1022.0</ele><time>2026-05-02T11:26:57Z</time></trkpt><trkpt lat="43.04880809386411" lon="-3.88002726488158"><ele>1023.0</ele><time>2026-05-02T11:26:58Z</time></trkpt><trkpt lat="43.048724049087134" lon="-3.8799729758672257"><ele>1020.5999999999999</ele><time>2026-05-02T11:26:59Z</time></trkpt><trkpt lat="43.04863759144953" lon="-3.879921296044206"><ele>1018.1999999999999</ele><time>2026-05-02T11:27:00Z</time></trkpt><trkpt lat="43.048553201054986" lon="-3.879871219711717"><ele>1015.8</ele><time>2026-05-02T11:27:01Z</time></trkpt><trkpt lat="43.048469724048864" lon="-3.87981596245135"><ele>1013.4</ele><time>2026-05-02T11:27:02Z</time></trkpt><trkpt lat="43.048385507559715" lon="-3.879757510997842"><ele>1011.0</ele><time>2026-05-02T11:27:03Z</time></trkpt><trkpt lat="43.04830604223397" lon="-3.8796972936659917"><ele>1012.4</ele><time>2026-05-02T11:27:04Z</time></trkpt><trkpt lat="43.04822805106295" lon="-3.879632293886649"><ele>1013.8</ele><time>2026-05-02T11:27:05Z</time></trkpt><trkpt lat="43.04814662804841" lon="-3.8795761772103226"><ele>1015.1999999999999</ele><time>2026-05-02T11:27:06Z</time></trkpt><trkpt lat="43.04807576623502" lon="-3.879492382242375"><ele>1016.5999999999999</ele><time>2026-05-02T11:27:07Z</time></trkpt><trkpt lat="43.04802331705247" lon="-3.8793819186513705"><ele>1018.0</ele><time>2026-05-02T11:27:08Z</time></trkpt><trkpt lat="43.04796778325163" lon="-3.8792813001124284"><ele>1017.8</ele><time>2026-05-02T11:27:09Z</time></trkpt><trkpt lat="43.0479166168335" lon="-3.8791724383977315"><ele>1017.5999999999999</ele><time>2026-05-02T11:27:10.001Z</time></trkpt><trkpt lat="43.047867972813336" lon="-3.8790574095628765"><ele>1017.4000000000001</ele><time>2026-05-02T11:27:11.001Z</time></trkpt><trkpt lat="43.04782018603811" lon="-3.8789410656825485"><ele>1017.2</ele><time>2026-05-02T11:27:12.001Z</time></trkpt><trkpt lat="43.0477730631766" lon="-3.8788182344296103"><ele>1017.0</ele><time>2026-05-02T11:27:13.001Z</time></trkpt><trkpt lat="43.04772312076349" lon="-3.8786986860818513"><ele>1017.0</ele><time>2026-05-02T11:27:14.001Z</time></trkpt><trkpt lat="43.04766556686344" lon="-3.8785880817096956"><ele>1017.0</ele><time>2026-05-02T11:27:15.001Z</time></trkpt><trkpt lat="43.04761002719254" lon="-3.8784810592608485"><ele>1017.0</ele><time>2026-05-02T11:27:16.001Z</time></trkpt><trkpt lat="43.04754864060565" lon="-3.8783736897331393"><ele>1017.0</ele><time>2026-05-02T11:27:17.001Z</time></trkpt><trkpt lat="43.04748106198049" lon="-3.8782749456889425"><ele>1017.0</ele><time>2026-05-02T11:27:18.001Z</time></trkpt><trkpt lat="43.04740772035707" lon="-3.87817956125488"><ele>1015.4000000000001</ele><time>2026-05-02T11:27:19.001Z</time></trkpt><trkpt lat="43.047328192327846" lon="-3.878094176560685"><ele>1013.8000000000001</ele><time>2026-05-02T11:27:20.001Z</time></trkpt><trkpt lat="43.047240731310175" lon="-3.878018724301263"><ele>1012.2</ele><time>2026-05-02T11:27:21.001Z</time></trkpt><trkpt lat="43.04715023077411" lon="-3.8779432862290717"><ele>1010.6</ele><time>2026-05-02T11:27:22.001Z</time></trkpt><trkpt lat="43.047051593908215" lon="-3.8778896018184614"><ele>1009.0</ele><time>2026-05-02T11:27:23.001Z</time></trkpt><trkpt lat="43.0469527550046" lon="-3.877840320590427"><ele>1009.0</ele><time>2026-05-02T11:27:24.001Z</time></trkpt><trkpt lat="43.046852758406665" lon="-3.8777899874787556"><ele>1009.0000000000001</ele><time>2026-05-02T11:27:25.001Z</time></trkpt><trkpt lat="43.04675489503981" lon="-3.877746909471943"><ele>1009.0000000000001</ele><time>2026-05-02T11:27:26.001Z</time></trkpt><trkpt lat="43.046655499565475" lon="-3.8777039476210464"><ele>1009.0</ele><time>2026-05-02T11:27:27.001Z</time></trkpt><trkpt lat="43.04655279220713" lon="-3.877667075634046"><ele>1009.0</ele><time>2026-05-02T11:27:28.001Z</time></trkpt><trkpt lat="43.04644937739061" lon="-3.8776326459136707"><ele>1006.8000000000001</ele><time>2026-05-02T11:27:29.001Z</time></trkpt><trkpt lat="43.046348597071024" lon="-3.8776080791580494"><ele>1004.6000000000001</ele><time>2026-05-02T11:27:30.001Z</time></trkpt><trkpt lat="43.04624783730813" lon="-3.87758484864203"><ele>1002.4</ele><time>2026-05-02T11:27:31.001Z</time></trkpt><trkpt lat="43.04614547101053" lon="-3.8775742475365793"><ele>1000.2</ele><time>2026-05-02T11:27:32.001Z</time></trkpt><trkpt lat="43.04604239102564" lon="-3.877567158089214"><ele>998.0</ele><time>2026-05-02T11:27:33.001Z</time></trkpt><trkpt lat="43.0459400038115" lon="-3.8775764677682334"><ele>998.0</ele><time>2026-05-02T11:27:34.001Z</time></trkpt><trkpt lat="43.04583720560889" lon="-3.877596219143581"><ele>998.0</ele><time>2026-05-02T11:27:35.001Z</time></trkpt><trkpt lat="43.04573501448724" lon="-3.8776303641149665"><ele>998.0</ele><time>2026-05-02T11:27:36.001Z</time></trkpt><trkpt lat="43.04563587805196" lon="-3.8776613653450203"><ele>998.0</ele><time>2026-05-02T11:27:37.001Z</time></trkpt><trkpt lat="43.04553291789761" lon="-3.8776972864938375"><ele>998.0</ele><time>2026-05-02T11:27:38.001Z</time></trkpt><trkpt lat="43.045434004880434" lon="-3.8777399518428934"><ele>997.0</ele><time>2026-05-02T11:27:39.001Z</time></trkpt><trkpt lat="43.045335547492385" lon="-3.8777870187752175"><ele>996.0</ele><time>2026-05-02T11:27:40.001Z</time></trkpt><trkpt lat="43.045237394325085" lon="-3.877830304907857"><ele>995.0</ele><time>2026-05-02T11:27:41.001Z</time></trkpt><trkpt lat="43.045137597248875" lon="-3.877872353201878"><ele>994.0</ele><time>2026-05-02T11:27:42.001Z</time></trkpt><trkpt lat="43.045039132730004" lon="-3.8779174821064393"><ele>993.0</ele><time>2026-05-02T11:27:43.001Z</time></trkpt><trkpt lat="43.044942201431304" lon="-3.8779593524299325"><ele>993.0</ele><time>2026-05-02T11:27:44.001Z</time></trkpt><trkpt lat="43.04484278228547" lon="-3.8780020714927135"><ele>993.0</ele><time>2026-05-02T11:27:45.001Z</time></trkpt><trkpt lat="43.04474709332319" lon="-3.8780482380103654"><ele>993.0</ele><time>2026-05-02T11:27:46.001Z</time></trkpt><trkpt lat="43.04464693311681" lon="-3.878089576383404"><ele>993.0</ele><time>2026-05-02T11:27:47.001Z</time></trkpt><trkpt lat="43.044548371000054" lon="-3.8781344163981792"><ele>993.0</ele><time>2026-05-02T11:27:48.001Z</time></trkpt><trkpt lat="43.04444965709107" lon="-3.8781765072934817"><ele>993.0</ele><time>2026-05-02T11:27:49.001Z</time></trkpt><trkpt lat="43.04435440769956" lon="-3.878215338386318"><ele>993.0</ele><time>2026-05-02T11:27:50.001Z</time></trkpt><trkpt lat="43.04425550660837" lon="-3.8782566266437497"><ele>993.0</ele><time>2026-05-02T11:27:51.001Z</time></trkpt><trkpt lat="43.04415854046346" lon="-3.8783049277421355"><ele>993.0</ele><time>2026-05-02T11:27:52.001Z</time></trkpt><trkpt lat="43.044058130258456" lon="-3.878351535145502"><ele>993.0</ele><time>2026-05-02T11:27:53.001Z</time></trkpt><trkpt lat="43.04395815475448" lon="-3.87839453477996"><ele>990.0</ele><time>2026-05-02T11:27:54.001Z</time></trkpt><trkpt lat="43.04385858018006" lon="-3.87843876672856"><ele>987.0</ele><time>2026-05-02T11:27:55.001Z</time></trkpt><trkpt lat="43.04375969162771" lon="-3.878483017175929"><ele>984.0</ele><time>2026-05-02T11:27:56.001Z</time></trkpt><trkpt lat="43.04366263889339" lon="-3.878524991300883"><ele>981.0</ele><time>2026-05-02T11:27:57.001Z</time></trkpt><trkpt lat="43.0435661950105" lon="-3.87856754385041"><ele>978.0</ele><time>2026-05-02T11:27:58.001Z</time></trkpt><trkpt lat="43.043466850434854" lon="-3.87861320185943"><ele>978.0</ele><time>2026-05-02T11:27:59.001Z</time></trkpt><trkpt lat="43.04337007724582" lon="-3.878654637114356"><ele>978.0</ele><time>2026-05-02T11:28:00.001Z</time></trkpt><trkpt lat="43.04327505898041" lon="-3.8786979600242497"><ele>978.0</ele><time>2026-05-02T11:28:01.001Z</time></trkpt><trkpt lat="43.043179999900374" lon="-3.8787344270008166"><ele>978.0</ele><time>2026-05-02T11:28:02.001Z</time></trkpt><trkpt lat="43.043079763159234" lon="-3.87875984244565"><ele>978.0</ele><time>2026-05-02T11:28:03.001Z</time></trkpt><trkpt lat="43.04297749200997" lon="-3.8787775537364775"><ele>977.5999999999999</ele><time>2026-05-02T11:28:04.001Z</time></trkpt><trkpt lat="43.042874449633885" lon="-3.8788051301640345"><ele>977.1999999999999</ele><time>2026-05-02T11:28:05.001Z</time></trkpt><trkpt lat="43.04276859628949" lon="-3.878769857769403"><ele>976.8</ele><time>2026-05-02T11:28:06.001Z</time></trkpt><trkpt lat="43.042667481133705" lon="-3.878740015418002"><ele>976.4</ele><time>2026-05-02T11:28:07Z</time></trkpt><trkpt lat="43.04257051017799" lon="-3.8786905509037317"><ele>976.0</ele><time>2026-05-02T11:28:08Z</time></trkpt><trkpt lat="43.04247952321378" lon="-3.8786218761090607"><ele>975.4</ele><time>2026-05-02T11:28:09Z</time></trkpt><trkpt lat="43.04239144245071" lon="-3.8785433414982347"><ele>974.8</ele><time>2026-05-02T11:28:10Z</time></trkpt><trkpt lat="43.04230538542375" lon="-3.8784566446501025"><ele>974.1999999999999</ele><time>2026-05-02T11:28:11Z</time></trkpt><trkpt lat="43.04222446058868" lon="-3.878371819476649"><ele>973.5999999999999</ele><time>2026-05-02T11:28:12Z</time></trkpt><trkpt lat="43.04214408750194" lon="-3.8782782460150034"><ele>973.0</ele><time>2026-05-02T11:28:13Z</time></trkpt><trkpt lat="43.04206573408163" lon="-3.878189001243135"><ele>973.0</ele><time>2026-05-02T11:28:14Z</time></trkpt><trkpt lat="43.04198796673174" lon="-3.8780993765710026"><ele>973.0</ele><time>2026-05-02T11:28:15Z</time></trkpt><trkpt lat="43.04190973291559" lon="-3.8780111958329027"><ele>973.0</ele><time>2026-05-02T11:28:16Z</time></trkpt><trkpt lat="43.04183082408563" lon="-3.877924431746869"><ele>973.0</ele><time>2026-05-02T11:28:17Z</time></trkpt><trkpt lat="43.04175275806901" lon="-3.8778375578346163"><ele>973.0</ele><time>2026-05-02T11:28:18Z</time></trkpt><trkpt lat="43.04167443451333" lon="-3.8777512117025466"><ele>974.5999999999999</ele><time>2026-05-02T11:28:19Z</time></trkpt><trkpt lat="43.04159356043499" lon="-3.8776664252950637"><ele>976.1999999999999</ele><time>2026-05-02T11:28:20Z</time></trkpt><trkpt lat="43.04150548274529" lon="-3.877596840561254"><ele>977.8</ele><time>2026-05-02T11:28:21Z</time></trkpt><trkpt lat="43.04141502761662" lon="-3.877532530551732"><ele>979.4</ele><time>2026-05-02T11:28:22Z</time></trkpt><trkpt lat="43.041320211319466" lon="-3.8774778738195805"><ele>981.0</ele><time>2026-05-02T11:28:23Z</time></trkpt><trkpt lat="43.04122344231517" lon="-3.877429831400775"><ele>981.0</ele><time>2026-05-02T11:28:24Z</time></trkpt><trkpt lat="43.04113013778868" lon="-3.877371139641802"><ele>980.9999999999999</ele><time>2026-05-02T11:28:25Z</time></trkpt><trkpt lat="43.04103970981258" lon="-3.8773043366697917"><ele>980.9999999999999</ele><time>2026-05-02T11:28:26Z</time></trkpt><trkpt lat="43.0409540544781" lon="-3.8772297816709957"><ele>981.0</ele><time>2026-05-02T11:28:27Z</time></trkpt><trkpt lat="43.040874026164126" lon="-3.877141568542291"><ele>981.0</ele><time>2026-05-02T11:28:28Z</time></trkpt><trkpt lat="43.04080139097412" lon="-3.8770397636028244"><ele>981.1999999999999</ele><time>2026-05-02T11:28:29Z</time></trkpt><trkpt lat="43.040735593732165" lon="-3.876930463232895"><ele>981.3999999999999</ele><time>2026-05-02T11:28:30Z</time></trkpt><trkpt lat="43.0406801276264" lon="-3.8768066366271743"><ele>981.6</ele><time>2026-05-02T11:28:31Z</time></trkpt><trkpt lat="43.04062774681649" lon="-3.8766839277600393"><ele>981.8</ele><time>2026-05-02T11:28:32Z</time></trkpt><trkpt lat="43.0405793688329" lon="-3.876555470918859"><ele>982.0</ele><time>2026-05-02T11:28:33Z</time></trkpt><trkpt lat="43.040539215923026" lon="-3.8764223638051822"><ele>980.8</ele><time>2026-05-02T11:28:34Z</time></trkpt><trkpt lat="43.04049879672006" lon="-3.8762825914597374"><ele>979.6</ele><time>2026-05-02T11:28:35Z</time></trkpt><trkpt lat="43.040460839824185" lon="-3.87614470573463"><ele>978.3999999999999</ele><time>2026-05-02T11:28:36Z</time></trkpt><trkpt lat="43.04042207431648" lon="-3.876009604931482"><ele>977.1999999999999</ele><time>2026-05-02T11:28:37Z</time></trkpt><trkpt lat="43.0403816208257" lon="-3.87588200807159"><ele>976.0</ele><time>2026-05-02T11:28:38Z</time></trkpt><trkpt lat="43.040340127663534" lon="-3.8757529837088"><ele>974.1999999999999</ele><time>2026-05-02T11:28:39Z</time></trkpt><trkpt lat="43.04030436360711" lon="-3.8756171245464994"><ele>972.3999999999999</ele><time>2026-05-02T11:28:40Z</time></trkpt><trkpt lat="43.04026487588801" lon="-3.875485471152561"><ele>970.6</ele><time>2026-05-02T11:28:41Z</time></trkpt><trkpt lat="43.04022601516482" lon="-3.87535554616787"><ele>968.8</ele><time>2026-05-02T11:28:42Z</time></trkpt><trkpt lat="43.04018785035148" lon="-3.875221978085062"><ele>967.0</ele><time>2026-05-02T11:28:43Z</time></trkpt><trkpt lat="43.04014896635301" lon="-3.875089836789682"><ele>966.0</ele><time>2026-05-02T11:28:44Z</time></trkpt><trkpt lat="43.040109270269895" lon="-3.8749582330975594"><ele>965.0</ele><time>2026-05-02T11:28:45Z</time></trkpt><trkpt lat="43.04006925005786" lon="-3.8748249468094733"><ele>964.0</ele><time>2026-05-02T11:28:46Z</time></trkpt><trkpt lat="43.0400329354996" lon="-3.8746895350806283"><ele>963.0</ele><time>2026-05-02T11:28:47Z</time></trkpt><trkpt lat="43.03999476020867" lon="-3.8745546600687124"><ele>962.0</ele><time>2026-05-02T11:28:48Z</time></trkpt><trkpt lat="43.039953794099375" lon="-3.8744201926109505"><ele>961.0</ele><time>2026-05-02T11:28:49Z</time></trkpt><trkpt lat="43.039910977682595" lon="-3.874286766907132"><ele>960.0</ele><time>2026-05-02T11:28:50Z</time></trkpt><trkpt lat="43.03986761865306" lon="-3.8741514332681226"><ele>959.0</ele><time>2026-05-02T11:28:51Z</time></trkpt><trkpt lat="43.039830378573924" lon="-3.8740121958325267"><ele>958.0</ele><time>2026-05-02T11:28:52Z</time></trkpt><trkpt lat="43.039792775529484" lon="-3.873881293572593"><ele>957.0</ele><time>2026-05-02T11:28:53Z</time></trkpt><trkpt lat="43.03975448539201" lon="-3.873751292987524"><ele>957.0</ele><time>2026-05-02T11:28:54Z</time></trkpt><trkpt lat="43.039718336426326" lon="-3.873619570459569"><ele>957.0</ele><time>2026-05-02T11:28:55Z</time></trkpt><trkpt lat="43.03968008059299" lon="-3.8734913748787054"><ele>957.0</ele><time>2026-05-02T11:28:56Z</time></trkpt><trkpt lat="43.039642964300675" lon="-3.873359645757678"><ele>957.0</ele><time>2026-05-02T11:28:57Z</time></trkpt><trkpt lat="43.03960616265388" lon="-3.8732261433321518"><ele>957.0</ele><time>2026-05-02T11:28:58Z</time></trkpt><trkpt lat="43.039570032120864" lon="-3.8730938158871706"><ele>957.0</ele><time>2026-05-02T11:28:59Z</time></trkpt><trkpt lat="43.0395351137706" lon="-3.8729626404805546"><ele>957.0</ele><time>2026-05-02T11:29:00Z</time></trkpt><trkpt lat="43.0395011076117" lon="-3.8728306604980096"><ele>957.0</ele><time>2026-05-02T11:29:01Z</time></trkpt><trkpt lat="43.03946566866232" lon="-3.872701004093418"><ele>957.0</ele><time>2026-05-02T11:29:02Z</time></trkpt><trkpt lat="43.03943156010023" lon="-3.8725706069288286"><ele>957.0</ele><time>2026-05-02T11:29:03Z</time></trkpt><trkpt lat="43.039397099748946" lon="-3.8724432819314165"><ele>956.0</ele><time>2026-05-02T11:29:04Z</time></trkpt><trkpt lat="43.03935817373917" lon="-3.8723190611462694"><ele>955.0</ele><time>2026-05-02T11:29:05Z</time></trkpt><trkpt lat="43.03931272739747" lon="-3.872199397618391"><ele>954.0</ele><time>2026-05-02T11:29:06Z</time></trkpt><trkpt lat="43.03925267165048" lon="-3.8720855473842755"><ele>953.0</ele><time>2026-05-02T11:29:07Z</time></trkpt><trkpt lat="43.039180402204714" lon="-3.8719800145582552"><ele>952.0</ele><time>2026-05-02T11:29:08Z</time></trkpt><trkpt lat="43.039097983105" lon="-3.8718801303394472"><ele>952.0</ele><time>2026-05-02T11:29:09Z</time></trkpt><trkpt lat="43.039010844300265" lon="-3.8717879127693426"><ele>952.0</ele><time>2026-05-02T11:29:10Z</time></trkpt><trkpt lat="43.03892469784614" lon="-3.871700640999965"><ele>952.0</ele><time>2026-05-02T11:29:11Z</time></trkpt><trkpt lat="43.038835054602934" lon="-3.8716149764779115"><ele>952.0</ele><time>2026-05-02T11:29:12Z</time></trkpt><trkpt lat="43.038750394020646" lon="-3.8715209799449957"><ele>952.0</ele><time>2026-05-02T11:29:13Z</time></trkpt><trkpt lat="43.038672092125225" lon="-3.8714210850084125"><ele>951.0</ele><time>2026-05-02T11:29:14Z</time></trkpt><trkpt lat="43.038592007040364" lon="-3.8713299608943883"><ele>950.0</ele><time>2026-05-02T11:29:15Z</time></trkpt><trkpt lat="43.038520959680525" lon="-3.871226220042095"><ele>949.0</ele><time>2026-05-02T11:29:16Z</time></trkpt><trkpt lat="43.03845025588438" lon="-3.87112135148591"><ele>948.0</ele><time>2026-05-02T11:29:17Z</time></trkpt><trkpt lat="43.03838675750785" lon="-3.871004133682279"><ele>947.0</ele><time>2026-05-02T11:29:18Z</time></trkpt><trkpt lat="43.03832978389899" lon="-3.8708811417416977"><ele>947.0</ele><time>2026-05-02T11:29:19Z</time></trkpt><trkpt lat="43.03827373783035" lon="-3.870761527498787"><ele>947.0</ele><time>2026-05-02T11:29:20Z</time></trkpt><trkpt lat="43.038217795687004" lon="-3.8706428243850586"><ele>947.0</ele><time>2026-05-02T11:29:21Z</time></trkpt><trkpt lat="43.03816524857009" lon="-3.8705187166017927"><ele>947.0</ele><time>2026-05-02T11:29:22Z</time></trkpt><trkpt lat="43.03810860791085" lon="-3.870397692905679"><ele>947.0</ele><time>2026-05-02T11:29:23Z</time></trkpt><trkpt lat="43.03805030126132" lon="-3.8702767138371708"><ele>947.0</ele><time>2026-05-02T11:29:24Z</time></trkpt><trkpt lat="43.037991860488496" lon="-3.870157138255322"><ele>947.0</ele><time>2026-05-02T11:29:25Z</time></trkpt><trkpt lat="43.0379319474559" lon="-3.8700381166653184"><ele>947.0</ele><time>2026-05-02T11:29:26Z</time></trkpt><trkpt lat="43.037872324985784" lon="-3.8699144195098514"><ele>947.0</ele><time>2026-05-02T11:29:27Z</time></trkpt><trkpt lat="43.037806782241965" lon="-3.869799728760766"><ele>947.0</ele><time>2026-05-02T11:29:28Z</time></trkpt><trkpt lat="43.03773685869179" lon="-3.8696914710862007"><ele>946.0</ele><time>2026-05-02T11:29:29Z</time></trkpt><trkpt lat="43.037669752974374" lon="-3.869572406252846"><ele>945.0</ele><time>2026-05-02T11:29:30Z</time></trkpt><trkpt lat="43.037599700850485" lon="-3.8694560614173783"><ele>944.0</ele><time>2026-05-02T11:29:31Z</time></trkpt><trkpt lat="43.037529574226774" lon="-3.8693452137941606"><ele>943.0</ele><time>2026-05-02T11:29:32Z</time></trkpt><trkpt lat="43.03746044100706" lon="-3.8692362161272187"><ele>942.0</ele><time>2026-05-02T11:29:33.001Z</time></trkpt><trkpt lat="43.03739526955886" lon="-3.8691245738024254"><ele>941.2</ele><time>2026-05-02T11:29:34.001Z</time></trkpt><trkpt lat="43.03733143357798" lon="-3.8690093881179277"><ele>940.4000000000001</ele><time>2026-05-02T11:29:35.001Z</time></trkpt><trkpt lat="43.037266820075025" lon="-3.868898609280958"><ele>939.5999999999999</ele><time>2026-05-02T11:29:36.001Z</time></trkpt><trkpt lat="43.0372008267305" lon="-3.8687899431993458"><ele>938.8</ele><time>2026-05-02T11:29:37.001Z</time></trkpt><trkpt lat="43.037132671887264" lon="-3.868683797619838"><ele>938.0</ele><time>2026-05-02T11:29:38.001Z</time></trkpt><trkpt lat="43.03706923524117" lon="-3.8685707460738925"><ele>938.0</ele><time>2026-05-02T11:29:39.001Z</time></trkpt><trkpt lat="43.03700681372302" lon="-3.8684610850558396"><ele>938.0</ele><time>2026-05-02T11:29:40.001Z</time></trkpt><trkpt lat="43.036944442492775" lon="-3.868354840702411"><ele>938.0</ele><time>2026-05-02T11:29:41.001Z</time></trkpt><trkpt lat="43.03688095297608" lon="-3.8682491670350143"><ele>938.0</ele><time>2026-05-02T11:29:42.001Z</time></trkpt><trkpt lat="43.03681737039283" lon="-3.8681434003735373"><ele>938.0</ele><time>2026-05-02T11:29:43.001Z</time></trkpt><trkpt lat="43.03675009988784" lon="-3.8680377035208333"><ele>937.4</ele><time>2026-05-02T11:29:44.001Z</time></trkpt><trkpt lat="43.036679978401246" lon="-3.8679382877591824"><ele>936.8</ele><time>2026-05-02T11:29:45.001Z</time></trkpt><trkpt lat="43.036605701551935" lon="-3.867839856028985"><ele>936.2</ele><time>2026-05-02T11:29:46.001Z</time></trkpt><trkpt lat="43.036525981305665" lon="-3.8677512755071493"><ele>935.6</ele><time>2026-05-02T11:29:47.001Z</time></trkpt><trkpt lat="43.03644074508084" lon="-3.86766975518053"><ele>935.0</ele><time>2026-05-02T11:29:48.001Z</time></trkpt><trkpt lat="43.03635095689077" lon="-3.8676009193196625"><ele>932.6</ele><time>2026-05-02T11:29:49.001Z</time></trkpt><trkpt lat="43.036257535938326" lon="-3.8675400149953414"><ele>930.2</ele><time>2026-05-02T11:29:50.001Z</time></trkpt><trkpt lat="43.036160192830145" lon="-3.8674925505550726"><ele>927.8</ele><time>2026-05-02T11:29:51.001Z</time></trkpt><trkpt lat="43.036058510954646" lon="-3.867455935812964"><ele>925.4</ele><time>2026-05-02T11:29:52.001Z</time></trkpt><trkpt lat="43.03595623802559" lon="-3.8674295644210033"><ele>923.0</ele><time>2026-05-02T11:29:53.001Z</time></trkpt><trkpt lat="43.03585184852379" lon="-3.867405238106436"><ele>923.8</ele><time>2026-05-02T11:29:54.001Z</time></trkpt><trkpt lat="43.03574950632718" lon="-3.8673790564999386"><ele>924.5999999999999</ele><time>2026-05-02T11:29:55.001Z</time></trkpt><trkpt lat="43.03564986443914" lon="-3.8673531777367876"><ele>925.4000000000001</ele><time>2026-05-02T11:29:56.001Z</time></trkpt><trkpt lat="43.03554668836518" lon="-3.8673465993199434"><ele>926.2</ele><time>2026-05-02T11:29:57.001Z</time></trkpt><trkpt lat="43.03544700738235" lon="-3.86732031330178"><ele>927.0</ele><time>2026-05-02T11:29:58.001Z</time></trkpt><trkpt lat="43.03534498103674" lon="-3.8672886499601304"><ele>927.0</ele><time>2026-05-02T11:29:59.001Z</time></trkpt><trkpt lat="43.03524263882382" lon="-3.86725549885425"><ele>927.0</ele><time>2026-05-02T11:30:00.001Z</time></trkpt><trkpt lat="43.035141613650445" lon="-3.8672150446883777"><ele>927.0</ele><time>2026-05-02T11:30:01.001Z</time></trkpt><trkpt lat="43.03504858495216" lon="-3.8671497560181756"><ele>927.0</ele><time>2026-05-02T11:30:02.001Z</time></trkpt><trkpt lat="43.034951071881245" lon="-3.867100630662099"><ele>927.0</ele><time>2026-05-02T11:30:03.001Z</time></trkpt><trkpt lat="43.034854499698966" lon="-3.8670414412688707"><ele>927.4000000000001</ele><time>2026-05-02T11:30:04.001Z</time></trkpt><trkpt lat="43.03474977463989" lon="-3.8669970545520176"><ele>927.8000000000001</ele><time>2026-05-02T11:30:05.001Z</time></trkpt><trkpt lat="43.03465917494032" lon="-3.866922036270069"><ele>928.2</ele><time>2026-05-02T11:30:06.001Z</time></trkpt><trkpt lat="43.034577207174856" lon="-3.866830775284306"><ele>928.6</ele><time>2026-05-02T11:30:07.001Z</time></trkpt><trkpt lat="43.03448387861721" lon="-3.8667609630361417"><ele>929.0</ele><time>2026-05-02T11:30:08.001Z</time></trkpt><trkpt lat="43.03439412122528" lon="-3.8667010757657394"><ele>926.0</ele><time>2026-05-02T11:30:09.001Z</time></trkpt><trkpt lat="43.03430045032568" lon="-3.8666406851264976"><ele>923.0000000000001</ele><time>2026-05-02T11:30:10.001Z</time></trkpt><trkpt lat="43.03420590767178" lon="-3.8665802617287723"><ele>920.0000000000001</ele><time>2026-05-02T11:30:11.001Z</time></trkpt><trkpt lat="43.034103907053414" lon="-3.8665324134878833"><ele>917.0</ele><time>2026-05-02T11:30:12.001Z</time></trkpt><trkpt lat="43.03400351028971" lon="-3.8664945399967428"><ele>914.0</ele><time>2026-05-02T11:30:13Z</time></trkpt><trkpt lat="43.0339046485499" lon="-3.8664626656718126"><ele>913.6</ele><time>2026-05-02T11:30:14Z</time></trkpt><trkpt lat="43.033801479573604" lon="-3.8664368337212545"><ele>913.2</ele><time>2026-05-02T11:30:15Z</time></trkpt><trkpt lat="43.03369707876786" lon="-3.8664087531268247"><ele>912.8000000000001</ele><time>2026-05-02T11:30:16Z</time></trkpt><trkpt lat="43.03359349291582" lon="-3.8663753319868808"><ele>912.4000000000001</ele><time>2026-05-02T11:30:17Z</time></trkpt><trkpt lat="43.033491696794286" lon="-3.8663427379794415"><ele>912.0</ele><time>2026-05-02T11:30:18Z</time></trkpt><trkpt lat="43.033385270023814" lon="-3.8663006548580956"><ele>909.2</ele><time>2026-05-02T11:30:19Z</time></trkpt><trkpt lat="43.03328603517243" lon="-3.866268786616592"><ele>906.4000000000001</ele><time>2026-05-02T11:30:20Z</time></trkpt><trkpt lat="43.0331794770428" lon="-3.86621626944438"><ele>903.5999999999999</ele><time>2026-05-02T11:30:21Z</time></trkpt><trkpt lat="43.03308161766312" lon="-3.866169082350235"><ele>900.8</ele><time>2026-05-02T11:30:22Z</time></trkpt><trkpt lat="43.032981950878366" lon="-3.866098720898146"><ele>898.0</ele><time>2026-05-02T11:30:23Z</time></trkpt><trkpt lat="43.03288377644095" lon="-3.866043443697164"><ele>898.0</ele><time>2026-05-02T11:30:24Z</time></trkpt><trkpt lat="43.03278545008156" lon="-3.8659717614121147"><ele>898.0</ele><time>2026-05-02T11:30:25Z</time></trkpt><trkpt lat="43.03269256119695" lon="-3.8659010074488407"><ele>898.0</ele><time>2026-05-02T11:30:26Z</time></trkpt><trkpt lat="43.03257368902913" lon="-3.8658072934277143"><ele>898.0</ele><time>2026-05-02T11:30:27Z</time></trkpt><trkpt lat="43.032381964632215" lon="-3.865694536144267"><ele>895.0</ele><time>2026-05-02T11:30:28Z</time></trkpt><trkpt lat="43.032423591242775" lon="-3.865626899109316"><ele>892.0</ele><time>2026-05-02T11:30:29Z</time></trkpt><trkpt lat="43.03234043215036" lon="-3.8655243829761585"><ele>889.0</ele><time>2026-05-02T11:30:30Z</time></trkpt><trkpt lat="43.032252845265084" lon="-3.865421911743365"><ele>886.0</ele><time>2026-05-02T11:30:31Z</time></trkpt><trkpt lat="43.032165059261125" lon="-3.8653185112014956"><ele>883.0</ele><time>2026-05-02T11:30:32Z</time></trkpt><trkpt lat="43.03208105844808" lon="-3.8652148008276193"><ele>882.8</ele><time>2026-05-02T11:30:33Z</time></trkpt><trkpt lat="43.03199894242148" lon="-3.865112043702206"><ele>882.5999999999999</ele><time>2026-05-02T11:30:34Z</time></trkpt><trkpt lat="43.03191141573885" lon="-3.8650124151716208"><ele>882.4000000000001</ele><time>2026-05-02T11:30:35Z</time></trkpt><trkpt lat="43.031824517641994" lon="-3.864921522567669"><ele>882.2</ele><time>2026-05-02T11:30:36Z</time></trkpt><trkpt lat="43.03173187040147" lon="-3.864843967312959"><ele>882.0</ele><time>2026-05-02T11:30:37Z</time></trkpt><trkpt lat="43.03164349766039" lon="-3.864766274548907"><ele>880.2</ele><time>2026-05-02T11:30:38Z</time></trkpt><trkpt lat="43.031550505315515" lon="-3.864697398687263"><ele>878.4000000000001</ele><time>2026-05-02T11:30:39Z</time></trkpt><trkpt lat="43.03145105644308" lon="-3.8646329807295086"><ele>876.5999999999999</ele><time>2026-05-02T11:30:40Z</time></trkpt><trkpt lat="43.03135207678866" lon="-3.8645644498474736"><ele>874.8</ele><time>2026-05-02T11:30:41Z</time></trkpt><trkpt lat="43.03125472328274" lon="-3.864497345945991"><ele>873.0</ele><time>2026-05-02T11:30:42Z</time></trkpt><trkpt lat="43.031150009573295" lon="-3.8644300836403365"><ele>873.0</ele><time>2026-05-02T11:30:43Z</time></trkpt><trkpt lat="43.03104611521412" lon="-3.8643585340452598"><ele>873.0</ele><time>2026-05-02T11:30:44Z</time></trkpt><trkpt lat="43.03094955685046" lon="-3.8642970735468665"><ele>873.0</ele><time>2026-05-02T11:30:45Z</time></trkpt><trkpt lat="43.03085428367757" lon="-3.864220334239554"><ele>873.0</ele><time>2026-05-02T11:30:46Z</time></trkpt><trkpt lat="43.03076173031504" lon="-3.8641429160147185"><ele>873.0</ele><time>2026-05-02T11:30:47Z</time></trkpt><trkpt lat="43.03067644035852" lon="-3.864057490927092"><ele>871.5999999999999</ele><time>2026-05-02T11:30:48Z</time></trkpt><trkpt lat="43.03058535796754" lon="-3.8639691226923607"><ele>870.1999999999999</ele><time>2026-05-02T11:30:49Z</time></trkpt><trkpt lat="43.03049487903515" lon="-3.8638785565429092"><ele>868.8</ele><time>2026-05-02T11:30:50Z</time></trkpt><trkpt lat="43.03040723473047" lon="-3.8637914442390735"><ele>867.4</ele><time>2026-05-02T11:30:51Z</time></trkpt><trkpt lat="43.03031889805745" lon="-3.863703824371978"><ele>866.0</ele><time>2026-05-02T11:30:52Z</time></trkpt><trkpt lat="43.03022746271489" lon="-3.8636261070372098"><ele>866.0</ele><time>2026-05-02T11:30:53Z</time></trkpt><trkpt lat="43.03012587058473" lon="-3.863589306892085"><ele>865.9999999999999</ele><time>2026-05-02T11:30:54Z</time></trkpt><trkpt lat="43.030023261057956" lon="-3.8635482249451125"><ele>865.9999999999999</ele><time>2026-05-02T11:30:55Z</time></trkpt><trkpt lat="43.029923082631356" lon="-3.8635067752453867"><ele>866.0</ele><time>2026-05-02T11:30:56Z</time></trkpt><trkpt lat="43.02981577273272" lon="-3.863482355424523"><ele>866.0</ele><time>2026-05-02T11:30:57Z</time></trkpt><trkpt lat="43.02970768297094" lon="-3.863452512221156"><ele>864.1999999999999</ele><time>2026-05-02T11:30:58Z</time></trkpt><trkpt lat="43.02960572972679" lon="-3.8634357998824305"><ele>862.3999999999999</ele><time>2026-05-02T11:30:59Z</time></trkpt><trkpt lat="43.02949848044082" lon="-3.8634228979133347"><ele>860.6</ele><time>2026-05-02T11:31:00Z</time></trkpt><trkpt lat="43.02939079375098" lon="-3.86341808079609"><ele>858.8</ele><time>2026-05-02T11:31:01Z</time></trkpt><trkpt lat="43.02928278452828" lon="-3.863416720911274"><ele>857.0</ele><time>2026-05-02T11:31:02Z</time></trkpt><trkpt lat="43.02917603863345" lon="-3.8634153769312407"><ele>856.0</ele><time>2026-05-02T11:31:03Z</time></trkpt><trkpt lat="43.02906601226957" lon="-3.863412616788138"><ele>855.0</ele><time>2026-05-02T11:31:04Z</time></trkpt><trkpt lat="43.02895758226489" lon="-3.8633825468769714"><ele>854.0</ele><time>2026-05-02T11:31:05Z</time></trkpt><trkpt lat="43.028849459461355" lon="-3.86337696102618"><ele>853.0</ele><time>2026-05-02T11:31:06Z</time></trkpt><trkpt lat="43.028741611749716" lon="-3.8633535627052034"><ele>852.0</ele><time>2026-05-02T11:31:07Z</time></trkpt><trkpt lat="43.02863304025477" lon="-3.8633190790376495"><ele>852.0</ele><time>2026-05-02T11:31:08Z</time></trkpt><trkpt lat="43.02852886443152" lon="-3.8632776294824445"><ele>852.0</ele><time>2026-05-02T11:31:09Z</time></trkpt><trkpt lat="43.02842817604574" lon="-3.8632289580204886"><ele>852.0</ele><time>2026-05-02T11:31:10Z</time></trkpt><trkpt lat="43.028329009858425" lon="-3.8631682859836314"><ele>852.0</ele><time>2026-05-02T11:31:11Z</time></trkpt><trkpt lat="43.02823509983" lon="-3.8631013566976655"><ele>852.0</ele><time>2026-05-02T11:31:12Z</time></trkpt><trkpt lat="43.02814193014611" lon="-3.863029727316595"><ele>851.6</ele><time>2026-05-02T11:31:13Z</time></trkpt><trkpt lat="43.02805071636798" lon="-3.8629551932160795"><ele>851.2</ele><time>2026-05-02T11:31:14Z</time></trkpt><trkpt lat="43.027963423640735" lon="-3.86287536271853"><ele>850.8</ele><time>2026-05-02T11:31:15Z</time></trkpt><trkpt lat="43.02787994205277" lon="-3.8627926621913042"><ele>850.4</ele><time>2026-05-02T11:31:16Z</time></trkpt><trkpt lat="43.02779388799267" lon="-3.8627066157661263"><ele>850.0</ele><time>2026-05-02T11:31:17Z</time></trkpt><trkpt lat="43.02771318344298" lon="-3.8626192802514074"><ele>850.0</ele><time>2026-05-02T11:31:18Z</time></trkpt><trkpt lat="43.02763228462787" lon="-3.8625269197862164"><ele>850.0</ele><time>2026-05-02T11:31:19Z</time></trkpt><trkpt lat="43.027550412174044" lon="-3.862434963258331"><ele>850.0</ele><time>2026-05-02T11:31:20Z</time></trkpt><trkpt lat="43.02747275181777" lon="-3.86234381734994"><ele>850.0</ele><time>2026-05-02T11:31:21Z</time></trkpt><trkpt lat="43.02739531617145" lon="-3.862255848255467"><ele>850.0</ele><time>2026-05-02T11:31:22Z</time></trkpt><trkpt lat="43.02731704040553" lon="-3.862161802050481"><ele>849.4</ele><time>2026-05-02T11:31:23Z</time></trkpt><trkpt lat="43.02724027622091" lon="-3.862071400076414"><ele>848.8</ele><time>2026-05-02T11:31:24Z</time></trkpt><trkpt lat="43.027163588372495" lon="-3.8619820452745146"><ele>848.2</ele><time>2026-05-02T11:31:25Z</time></trkpt><trkpt lat="43.027085200344665" lon="-3.8618933660358192"><ele>847.6</ele><time>2026-05-02T11:31:26Z</time></trkpt><trkpt lat="43.02700961908959" lon="-3.8618033450680453"><ele>847.0</ele><time>2026-05-02T11:31:27Z</time></trkpt><trkpt lat="43.026934912054024" lon="-3.8617143065262067"><ele>847.0</ele><time>2026-05-02T11:31:28Z</time></trkpt><trkpt lat="43.026861659070526" lon="-3.8616236599464866"><ele>847.0</ele><time>2026-05-02T11:31:29Z</time></trkpt><trkpt lat="43.02678797419675" lon="-3.86153722398772"><ele>847.0</ele><time>2026-05-02T11:31:30.001Z</time></trkpt><trkpt lat="43.02671236801953" lon="-3.861449200127064"><ele>847.0</ele><time>2026-05-02T11:31:31.001Z</time></trkpt><trkpt lat="43.02663748683992" lon="-3.8613640785240513"><ele>847.0</ele><time>2026-05-02T11:31:32.001Z</time></trkpt><trkpt lat="43.026561612135346" lon="-3.861275069977945"><ele>846.6</ele><time>2026-05-02T11:31:33.001Z</time></trkpt><trkpt lat="43.026486519049314" lon="-3.8611862668282884"><ele>846.2</ele><time>2026-05-02T11:31:34.001Z</time></trkpt><trkpt lat="43.02640918355163" lon="-3.8610960195200734"><ele>845.8</ele><time>2026-05-02T11:31:35.001Z</time></trkpt><trkpt lat="43.026330067638625" lon="-3.8610044753309523"><ele>845.4</ele><time>2026-05-02T11:31:36.001Z</time></trkpt><trkpt lat="43.02624728115285" lon="-3.8609137632360517"><ele>845.0</ele><time>2026-05-02T11:31:37.001Z</time></trkpt><trkpt lat="43.02616597283712" lon="-3.8608204712307015"><ele>844.8</ele><time>2026-05-02T11:31:38.001Z</time></trkpt><trkpt lat="43.02608579239373" lon="-3.8607249158129315"><ele>844.6</ele><time>2026-05-02T11:31:39.001Z</time></trkpt><trkpt lat="43.02600482202419" lon="-3.860631010310489"><ele>844.4000000000001</ele><time>2026-05-02T11:31:40.001Z</time></trkpt><trkpt lat="43.02592362037084" lon="-3.8605394743417936"><ele>844.2</ele><time>2026-05-02T11:31:41.001Z</time></trkpt><trkpt lat="43.02584171983114" lon="-3.860447593626909"><ele>844.0</ele><time>2026-05-02T11:31:42.001Z</time></trkpt><trkpt lat="43.02576259668831" lon="-3.860357164707372"><ele>843.8000000000001</ele><time>2026-05-02T11:31:43.001Z</time></trkpt><trkpt lat="43.02568343121826" lon="-3.860264036650485"><ele>843.6</ele><time>2026-05-02T11:31:44.001Z</time></trkpt><trkpt lat="43.02560468139637" lon="-3.860172701570807"><ele>843.4</ele><time>2026-05-02T11:31:45.001Z</time></trkpt><trkpt lat="43.02552592912773" lon="-3.8600803865738205"><ele>843.2</ele><time>2026-05-02T11:31:46.001Z</time></trkpt><trkpt lat="43.02544936165588" lon="-3.8599902440245732"><ele>843.0</ele><time>2026-05-02T11:31:47.001Z</time></trkpt><trkpt lat="43.025371731588194" lon="-3.859898607322761"><ele>843.4</ele><time>2026-05-02T11:31:48.001Z</time></trkpt><trkpt lat="43.02529521781666" lon="-3.8598134860774587"><ele>843.8</ele><time>2026-05-02T11:31:49.001Z</time></trkpt><trkpt lat="43.02521625001356" lon="-3.859722991459626"><ele>844.2</ele><time>2026-05-02T11:31:50.001Z</time></trkpt><trkpt lat="43.025137454991615" lon="-3.8596354399170347"><ele>844.6</ele><time>2026-05-02T11:31:51.001Z</time></trkpt><trkpt lat="43.02505760621469" lon="-3.859545151233026"><ele>845.0</ele><time>2026-05-02T11:31:52.001Z</time></trkpt><trkpt lat="43.02497948372899" lon="-3.8594518689410093"><ele>844.8</ele><time>2026-05-02T11:31:53.001Z</time></trkpt><trkpt lat="43.02489739402481" lon="-3.8593588843478543"><ele>844.6</ele><time>2026-05-02T11:31:54.001Z</time></trkpt><trkpt lat="43.024815445282016" lon="-3.859267014915778"><ele>844.4000000000001</ele><time>2026-05-02T11:31:55.001Z</time></trkpt><trkpt lat="43.024735098217995" lon="-3.85916969610353"><ele>844.2</ele><time>2026-05-02T11:31:56.001Z</time></trkpt><trkpt lat="43.0246552024666" lon="-3.859072080524572"><ele>844.0</ele><time>2026-05-02T11:31:57.001Z</time></trkpt><trkpt lat="43.024567827092255" lon="-3.8589810519474836"><ele>844.0</ele><time>2026-05-02T11:31:58.001Z</time></trkpt><trkpt lat="43.0244847723912" lon="-3.858884753449068"><ele>844.0</ele><time>2026-05-02T11:31:59.001Z</time></trkpt><trkpt lat="43.02440415369355" lon="-3.8587893737192016"><ele>844.0</ele><time>2026-05-02T11:32:00.001Z</time></trkpt><trkpt lat="43.02432380950857" lon="-3.8586970005305736"><ele>844.0</ele><time>2026-05-02T11:32:01.001Z</time></trkpt><trkpt lat="43.02424428325853" lon="-3.8586023470877224"><ele>844.0</ele><time>2026-05-02T11:32:02.001Z</time></trkpt><trkpt lat="43.02416527096091" lon="-3.8585081332370157"><ele>844.2</ele><time>2026-05-02T11:32:03.001Z</time></trkpt><trkpt lat="43.02408572877717" lon="-3.858415054289625"><ele>844.4000000000001</ele><time>2026-05-02T11:32:04.001Z</time></trkpt><trkpt lat="43.024006642150624" lon="-3.858323223979179"><ele>844.6</ele><time>2026-05-02T11:32:05.001Z</time></trkpt><trkpt lat="43.0239242358152" lon="-3.858231542487348"><ele>844.8</ele><time>2026-05-02T11:32:06.001Z</time></trkpt><trkpt lat="43.023844705205825" lon="-3.858140570793496"><ele>845.0</ele><time>2026-05-02T11:32:07.001Z</time></trkpt><trkpt lat="43.023764950913275" lon="-3.8580491213451404"><ele>845.0</ele><time>2026-05-02T11:32:08.001Z</time></trkpt><trkpt lat="43.02368607501313" lon="-3.8579554666130322"><ele>845.0</ele><time>2026-05-02T11:32:09.001Z</time></trkpt><trkpt lat="43.023605573216386" lon="-3.857865028810278"><ele>845.0</ele><time>2026-05-02T11:32:10.001Z</time></trkpt><trkpt lat="43.023526090392366" lon="-3.8577723925789336"><ele>845.0</ele><time>2026-05-02T11:32:11.001Z</time></trkpt><trkpt lat="43.02344554338593" lon="-3.8576822987934607"><ele>845.0</ele><time>2026-05-02T11:32:12.001Z</time></trkpt><trkpt lat="43.023367526998086" lon="-3.8575889838148703"><ele>844.4</ele><time>2026-05-02T11:32:13.001Z</time></trkpt><trkpt lat="43.023287349481734" lon="-3.8574974349239466"><ele>843.8</ele><time>2026-05-02T11:32:14.001Z</time></trkpt><trkpt lat="43.02320803995771" lon="-3.8574072319136463"><ele>843.2</ele><time>2026-05-02T11:32:15.001Z</time></trkpt><trkpt lat="43.023129090239635" lon="-3.857320673281601"><ele>842.6</ele><time>2026-05-02T11:32:16.001Z</time></trkpt><trkpt lat="43.02304527868591" lon="-3.8572336936382414"><ele>842.0</ele><time>2026-05-02T11:32:17.001Z</time></trkpt><trkpt lat="43.02296167876786" lon="-3.8571533484227447"><ele>842.0</ele><time>2026-05-02T11:32:18.001Z</time></trkpt><trkpt lat="43.02287502297785" lon="-3.8570736065806406"><ele>842.0</ele><time>2026-05-02T11:32:19Z</time></trkpt><trkpt lat="43.022787842962714" lon="-3.8569964491665067"><ele>842.0</ele><time>2026-05-02T11:32:20Z</time></trkpt><trkpt lat="43.02269942226464" lon="-3.8569234304045628"><ele>842.0</ele><time>2026-05-02T11:32:21Z</time></trkpt><trkpt lat="43.022607565647895" lon="-3.8568563557995215"><ele>842.0</ele><time>2026-05-02T11:32:22Z</time></trkpt><trkpt lat="43.02251183877009" lon="-3.8567944643999916"><ele>842.0</ele><time>2026-05-02T11:32:23Z</time></trkpt><trkpt lat="43.022416509361506" lon="-3.856741193888935"><ele>842.0</ele><time>2026-05-02T11:32:24Z</time></trkpt><trkpt lat="43.02232169661454" lon="-3.8566878294764226"><ele>842.0</ele><time>2026-05-02T11:32:25Z</time></trkpt><trkpt lat="43.02222717994274" lon="-3.856642902597187"><ele>842.0</ele><time>2026-05-02T11:32:26Z</time></trkpt><trkpt lat="43.0221300805109" lon="-3.8566029206748853"><ele>842.0</ele><time>2026-05-02T11:32:27Z</time></trkpt><trkpt lat="43.022033881143564" lon="-3.856558561100546"><ele>842.0</ele><time>2026-05-02T11:32:28Z</time></trkpt><trkpt lat="43.021935358914455" lon="-3.856516509587851"><ele>842.0</ele><time>2026-05-02T11:32:29Z</time></trkpt><trkpt lat="43.021836991740194" lon="-3.8564773055008774"><ele>842.0</ele><time>2026-05-02T11:32:30Z</time></trkpt><trkpt lat="43.02173514974068" lon="-3.856435061657209"><ele>842.0</ele><time>2026-05-02T11:32:31Z</time></trkpt><trkpt lat="43.021635884997664" lon="-3.8563960374460677"><ele>842.0</ele><time>2026-05-02T11:32:32Z</time></trkpt><trkpt lat="43.021534651497625" lon="-3.856356731838069"><ele>841.8</ele><time>2026-05-02T11:32:33Z</time></trkpt><trkpt lat="43.021430873890544" lon="-3.8563156114563264"><ele>841.6</ele><time>2026-05-02T11:32:34Z</time></trkpt><trkpt lat="43.02133176022501" lon="-3.8562712030186312"><ele>841.4</ele><time>2026-05-02T11:32:35Z</time></trkpt><trkpt lat="43.021234563961954" lon="-3.856231134933582"><ele>841.1999999999999</ele><time>2026-05-02T11:32:36Z</time></trkpt><trkpt lat="43.0211357307408" lon="-3.8561891643999484"><ele>841.0</ele><time>2026-05-02T11:32:37Z</time></trkpt><trkpt lat="43.021034722903096" lon="-3.8561528039748825"><ele>841.0</ele><time>2026-05-02T11:32:38Z</time></trkpt><trkpt lat="43.02093599239551" lon="-3.8561110318080223"><ele>841.0</ele><time>2026-05-02T11:32:39Z</time></trkpt><trkpt lat="43.020839043783255" lon="-3.8560700036170985"><ele>841.0</ele><time>2026-05-02T11:32:40Z</time></trkpt><trkpt lat="43.02073933312818" lon="-3.856029745910682"><ele>841.0</ele><time>2026-05-02T11:32:41Z</time></trkpt><trkpt lat="43.02064217301864" lon="-3.8559943086560167"><ele>841.0</ele><time>2026-05-02T11:32:42Z</time></trkpt><trkpt lat="43.02054028023526" lon="-3.85595570827031"><ele>841.1999999999999</ele><time>2026-05-02T11:32:43Z</time></trkpt><trkpt lat="43.020444305540224" lon="-3.8559186844127984"><ele>841.4</ele><time>2026-05-02T11:32:44Z</time></trkpt><trkpt lat="43.02034201679029" lon="-3.855876693931904"><ele>841.6</ele><time>2026-05-02T11:32:45Z</time></trkpt><trkpt lat="43.020240866502576" lon="-3.8558366816222556"><ele>841.8</ele><time>2026-05-02T11:32:46Z</time></trkpt><trkpt lat="43.02014107222667" lon="-3.855799217512916"><ele>842.0</ele><time>2026-05-02T11:32:47Z</time></trkpt><trkpt lat="43.02004204642877" lon="-3.855756634783126"><ele>842.2</ele><time>2026-05-02T11:32:48Z</time></trkpt><trkpt lat="43.01994252710317" lon="-3.8557162349370855"><ele>842.4000000000001</ele><time>2026-05-02T11:32:49Z</time></trkpt><trkpt lat="43.01984517948836" lon="-3.8556813414387463"><ele>842.5999999999999</ele><time>2026-05-02T11:32:50Z</time></trkpt><trkpt lat="43.01974576015165" lon="-3.8556417497302498"><ele>842.8</ele><time>2026-05-02T11:32:51Z</time></trkpt><trkpt lat="43.019644382795256" lon="-3.8556021561674876"><ele>843.0</ele><time>2026-05-02T11:32:52Z</time></trkpt><trkpt lat="43.01954502716029" lon="-3.8555632622965454"><ele>843.0</ele><time>2026-05-02T11:32:53Z</time></trkpt><trkpt lat="43.01944682116681" lon="-3.855521633905832"><ele>843.0</ele><time>2026-05-02T11:32:54Z</time></trkpt><trkpt lat="43.01934860498776" lon="-3.8554821554085494"><ele>843.0</ele><time>2026-05-02T11:32:55Z</time></trkpt><trkpt lat="43.01925075588139" lon="-3.8554432087968578"><ele>843.0</ele><time>2026-05-02T11:32:56Z</time></trkpt><trkpt lat="43.019151818379804" lon="-3.855402735609947"><ele>843.0</ele><time>2026-05-02T11:32:57Z</time></trkpt><trkpt lat="43.01905092820894" lon="-3.8553663699582748"><ele>843.2</ele><time>2026-05-02T11:32:58Z</time></trkpt><trkpt lat="43.01895358182933" lon="-3.855330008420335"><ele>843.4</ele><time>2026-05-02T11:32:59Z</time></trkpt><trkpt lat="43.018851923131876" lon="-3.8552910139239773"><ele>843.6</ele><time>2026-05-02T11:33:00Z</time></trkpt><trkpt lat="43.01875524034624" lon="-3.855252632144769"><ele>843.8000000000001</ele><time>2026-05-02T11:33:01Z</time></trkpt><trkpt lat="43.018658959266645" lon="-3.8552109963295735"><ele>844.0</ele><time>2026-05-02T11:33:02Z</time></trkpt><trkpt lat="43.018559535869706" lon="-3.855171175635505"><ele>844.0</ele><time>2026-05-02T11:33:03Z</time></trkpt><trkpt lat="43.01846217702462" lon="-3.8551326912897417"><ele>844.0</ele><time>2026-05-02T11:33:04Z</time></trkpt><trkpt lat="43.01836303259184" lon="-3.8550927031759525"><ele>844.0</ele><time>2026-05-02T11:33:05Z</time></trkpt><trkpt lat="43.01826702468552" lon="-3.855055176716163"><ele>844.0</ele><time>2026-05-02T11:33:06Z</time></trkpt><trkpt lat="43.01816671325437" lon="-3.8550143165453368"><ele>844.0</ele><time>2026-05-02T11:33:07Z</time></trkpt><trkpt lat="43.01806726097456" lon="-3.8549755735892024"><ele>844.4000000000001</ele><time>2026-05-02T11:33:08Z</time></trkpt><trkpt lat="43.017967704390635" lon="-3.854936429037807"><ele>844.8</ele><time>2026-05-02T11:33:09Z</time></trkpt><trkpt lat="43.017869208388895" lon="-3.8548967847952036"><ele>845.2</ele><time>2026-05-02T11:33:10Z</time></trkpt><trkpt lat="43.01776776574074" lon="-3.8548552892854375"><ele>845.5999999999999</ele><time>2026-05-02T11:33:11Z</time></trkpt><trkpt lat="43.01767090657409" lon="-3.8548148022281303"><ele>846.0</ele><time>2026-05-02T11:33:12Z</time></trkpt><trkpt lat="43.01757095215014" lon="-3.8547748754957705"><ele>845.4</ele><time>2026-05-02T11:33:13Z</time></trkpt><trkpt lat="43.01747029370814" lon="-3.854738121041785"><ele>844.8</ele><time>2026-05-02T11:33:14Z</time></trkpt><trkpt lat="43.017373500945375" lon="-3.854696535696119"><ele>844.1999999999999</ele><time>2026-05-02T11:33:15Z</time></trkpt><trkpt lat="43.017277836104014" lon="-3.8546585477890423"><ele>843.5999999999999</ele><time>2026-05-02T11:33:16Z</time></trkpt><trkpt lat="43.017181627395345" lon="-3.8546230549316682"><ele>843.0</ele><time>2026-05-02T11:33:17Z</time></trkpt><trkpt lat="43.01708589279285" lon="-3.8545866737264474"><ele>843.0</ele><time>2026-05-02T11:33:18Z</time></trkpt><trkpt lat="43.01699040918092" lon="-3.8545481967120008"><ele>843.0</ele><time>2026-05-02T11:33:19Z</time></trkpt><trkpt lat="43.01689667454317" lon="-3.854508290255083"><ele>843.0</ele><time>2026-05-02T11:33:20Z</time></trkpt><trkpt lat="43.01680123035753" lon="-3.854468850258234"><ele>843.0</ele><time>2026-05-02T11:33:21Z</time></trkpt><trkpt lat="43.01670724700047" lon="-3.854432536445962"><ele>843.0</ele><time>2026-05-02T11:33:22Z</time></trkpt><trkpt lat="43.01661441544628" lon="-3.8543965391439796"><ele>842.8</ele><time>2026-05-02T11:33:23Z</time></trkpt><trkpt lat="43.016521774734784" lon="-3.85436050201742"><ele>842.5999999999999</ele><time>2026-05-02T11:33:24Z</time></trkpt><trkpt lat="43.016435406091645" lon="-3.8543239312556032"><ele>842.4000000000001</ele><time>2026-05-02T11:33:25Z</time></trkpt><trkpt lat="43.01634409376512" lon="-3.854285885123345"><ele>842.2</ele><time>2026-05-02T11:33:26Z</time></trkpt><trkpt lat="43.01625278109925" lon="-3.8542478910276485"><ele>842.0</ele><time>2026-05-02T11:33:27Z</time></trkpt><trkpt lat="43.016162104074" lon="-3.8542108125617927"><ele>842.6</ele><time>2026-05-02T11:33:28Z</time></trkpt><trkpt lat="43.01607163001668" lon="-3.854173224561704"><ele>843.2</ele><time>2026-05-02T11:33:29Z</time></trkpt><trkpt lat="43.015980267933934" lon="-3.854138158407989"><ele>843.8</ele><time>2026-05-02T11:33:30Z</time></trkpt><trkpt lat="43.015884942942726" lon="-3.854102560956585"><ele>844.4</ele><time>2026-05-02T11:33:31Z</time></trkpt><trkpt lat="43.01579170260409" lon="-3.8540636846421115"><ele>845.0</ele><time>2026-05-02T11:33:32Z</time></trkpt><trkpt lat="43.015697968703115" lon="-3.8540239276196355"><ele>845.0</ele><time>2026-05-02T11:33:33Z</time></trkpt><trkpt lat="43.01560486788348" lon="-3.8539869018723762"><ele>845.0</ele><time>2026-05-02T11:33:34.001Z</time></trkpt><trkpt lat="43.015512290024084" lon="-3.8539479547737643"><ele>845.0</ele><time>2026-05-02T11:33:35.001Z</time></trkpt><trkpt lat="43.01541711259562" lon="-3.8539136050308"><ele>845.0</ele><time>2026-05-02T11:33:36.001Z</time></trkpt><trkpt lat="43.015321401877955" lon="-3.853873338280955"><ele>845.0</ele><time>2026-05-02T11:33:37.001Z</time></trkpt><trkpt lat="43.01522639848403" lon="-3.8538322924805217"><ele>845.0</ele><time>2026-05-02T11:33:38.001Z</time></trkpt><trkpt lat="43.01513109672248" lon="-3.8537949061767707"><ele>845.0</ele><time>2026-05-02T11:33:39.001Z</time></trkpt><trkpt lat="43.01503612517801" lon="-3.8537596856332392"><ele>845.0</ele><time>2026-05-02T11:33:40.001Z</time></trkpt><trkpt lat="43.01494052387831" lon="-3.853721878226488"><ele>845.0</ele><time>2026-05-02T11:33:41.001Z</time></trkpt><trkpt lat="43.01484627750638" lon="-3.8536854696021807"><ele>845.0</ele><time>2026-05-02T11:33:42.001Z</time></trkpt><trkpt lat="43.01474979119116" lon="-3.8536451353172074"><ele>845.0</ele><time>2026-05-02T11:33:43.001Z</time></trkpt><trkpt lat="43.0146546460476" lon="-3.853606355065911"><ele>845.0</ele><time>2026-05-02T11:33:44.001Z</time></trkpt><trkpt lat="43.01455819083688" lon="-3.853570230918652"><ele>845.0</ele><time>2026-05-02T11:33:45.001Z</time></trkpt><trkpt lat="43.014461264892965" lon="-3.853530490270803"><ele>845.0</ele><time>2026-05-02T11:33:46.001Z</time></trkpt><trkpt lat="43.01436387851145" lon="-3.8534913005598503"><ele>845.0</ele><time>2026-05-02T11:33:47.001Z</time></trkpt><trkpt lat="43.01426451226867" lon="-3.8534532133168633"><ele>845.0</ele><time>2026-05-02T11:33:48.001Z</time></trkpt><trkpt lat="43.014164749502676" lon="-3.8534185909434884"><ele>845.0</ele><time>2026-05-02T11:33:49.001Z</time></trkpt><trkpt lat="43.01406170025939" lon="-3.8533873616509005"><ele>845.0</ele><time>2026-05-02T11:33:50.001Z</time></trkpt><trkpt lat="43.013958273442945" lon="-3.8533582458889235"><ele>845.0</ele><time>2026-05-02T11:33:51.001Z</time></trkpt><trkpt lat="43.0138554221921" lon="-3.8533367596682173"><ele>845.0</ele><time>2026-05-02T11:33:52.001Z</time></trkpt><trkpt lat="43.01375510665373" lon="-3.853316037849072"><ele>844.8</ele><time>2026-05-02T11:33:53.001Z</time></trkpt><trkpt lat="43.013650507349816" lon="-3.8533042254261614"><ele>844.6</ele><time>2026-05-02T11:33:54.001Z</time></trkpt><trkpt lat="43.01354486855787" lon="-3.853298350498232"><ele>844.4000000000001</ele><time>2026-05-02T11:33:55.001Z</time></trkpt><trkpt lat="43.01343296019613" lon="-3.853312793165337"><ele>844.2</ele><time>2026-05-02T11:33:56.001Z</time></trkpt><trkpt lat="43.013327611606655" lon="-3.8533082319844576"><ele>844.0</ele><time>2026-05-02T11:33:57.001Z</time></trkpt><trkpt lat="43.013225317953804" lon="-3.8533072659987586"><ele>844.0</ele><time>2026-05-02T11:33:58.001Z</time></trkpt><trkpt lat="43.013118816380704" lon="-3.853307255679624"><ele>844.0</ele><time>2026-05-02T11:33:59.001Z</time></trkpt><trkpt lat="43.01301159468736" lon="-3.853311595982357"><ele>844.0</ele><time>2026-05-02T11:34:00.001Z</time></trkpt><trkpt lat="43.012904082276194" lon="-3.853317905166028"><ele>844.0</ele><time>2026-05-02T11:34:01.001Z</time></trkpt><trkpt lat="43.01279922607882" lon="-3.853325528085273"><ele>844.0</ele><time>2026-05-02T11:34:02.001Z</time></trkpt><trkpt lat="43.01269504105721" lon="-3.8533337168128696"><ele>844.0</ele><time>2026-05-02T11:34:03.001Z</time></trkpt><trkpt lat="43.01258858565846" lon="-3.8533310262844647"><ele>844.0</ele><time>2026-05-02T11:34:04.001Z</time></trkpt><trkpt lat="43.0124872740278" lon="-3.8533490891861284"><ele>844.0</ele><time>2026-05-02T11:34:05.001Z</time></trkpt><trkpt lat="43.012378476138196" lon="-3.8533703273875233"><ele>844.0</ele><time>2026-05-02T11:34:06.001Z</time></trkpt><trkpt lat="43.01227187830965" lon="-3.853390590283752"><ele>844.0</ele><time>2026-05-02T11:34:07.001Z</time></trkpt><trkpt lat="43.012170884469114" lon="-3.853427200276341"><ele>843.8000000000001</ele><time>2026-05-02T11:34:08.001Z</time></trkpt><trkpt lat="43.01206485491388" lon="-3.85345611681639"><ele>843.6</ele><time>2026-05-02T11:34:09.001Z</time></trkpt><trkpt lat="43.01195935567838" lon="-3.8534910297419254"><ele>843.4</ele><time>2026-05-02T11:34:10.001Z</time></trkpt><trkpt lat="43.01185856452367" lon="-3.85353878150637"><ele>843.2</ele><time>2026-05-02T11:34:11.001Z</time></trkpt><trkpt lat="43.011755163085574" lon="-3.8535771225304822"><ele>843.0</ele><time>2026-05-02T11:34:12.001Z</time></trkpt><trkpt lat="43.01164992241078" lon="-3.8536225797257924"><ele>843.0</ele><time>2026-05-02T11:34:13.001Z</time></trkpt><trkpt lat="43.01155480329125" lon="-3.853691404794243"><ele>843.0</ele><time>2026-05-02T11:34:14.001Z</time></trkpt><trkpt lat="43.01145191870294" lon="-3.8537392876772842"><ele>843.0</ele><time>2026-05-02T11:34:15.001Z</time></trkpt><trkpt lat="43.01135261162817" lon="-3.8538047690171493"><ele>843.0</ele><time>2026-05-02T11:34:16.001Z</time></trkpt><trkpt lat="43.011255019272255" lon="-3.8538721915967606"><ele>843.0</ele><time>2026-05-02T11:34:17.001Z</time></trkpt><trkpt lat="43.01116410555065" lon="-3.853945281079549"><ele>843.0</ele><time>2026-05-02T11:34:18.001Z</time></trkpt><trkpt lat="43.01106959366751" lon="-3.8540206110234765"><ele>843.0</ele><time>2026-05-02T11:34:19.001Z</time></trkpt><trkpt lat="43.01097467297114" lon="-3.854099362737679"><ele>843.0</ele><time>2026-05-02T11:34:20.001Z</time></trkpt><trkpt lat="43.0108862605653" lon="-3.8541898435883337"><ele>843.0</ele><time>2026-05-02T11:34:21.001Z</time></trkpt><trkpt lat="43.01079124854888" lon="-3.854274087966968"><ele>843.0</ele><time>2026-05-02T11:34:22.001Z</time></trkpt><trkpt lat="43.010707402393415" lon="-3.8543636198985562"><ele>842.4</ele><time>2026-05-02T11:34:23.001Z</time></trkpt><trkpt lat="43.01062168100227" lon="-3.854453360255723"><ele>841.8</ele><time>2026-05-02T11:34:24.001Z</time></trkpt><trkpt lat="43.01053463997676" lon="-3.854538578836552"><ele>841.2</ele><time>2026-05-02T11:34:25Z</time></trkpt><trkpt lat="43.01044704493785" lon="-3.8546240444736943"><ele>840.6</ele><time>2026-05-02T11:34:26Z</time></trkpt><trkpt lat="43.010360708279066" lon="-3.854713225061346"><ele>840.0</ele><time>2026-05-02T11:34:27Z</time></trkpt><trkpt lat="43.01027496501827" lon="-3.8547993415652186"><ele>840.0</ele><time>2026-05-02T11:34:28Z</time></trkpt><trkpt lat="43.01019042046138" lon="-3.8548872233821405"><ele>840.0</ele><time>2026-05-02T11:34:29Z</time></trkpt><trkpt lat="43.010104699279324" lon="-3.854973507165486"><ele>840.0</ele><time>2026-05-02T11:34:30Z</time></trkpt><trkpt lat="43.010020172078754" lon="-3.8550617949013715"><ele>840.0</ele><time>2026-05-02T11:34:31Z</time></trkpt><trkpt lat="43.009936777276664" lon="-3.855158907377798"><ele>840.0</ele><time>2026-05-02T11:34:32Z</time></trkpt><trkpt lat="43.00984865721116" lon="-3.855244088383236"><ele>840.6</ele><time>2026-05-02T11:34:33Z</time></trkpt><trkpt lat="43.00975822364971" lon="-3.855326893300386"><ele>841.2</ele><time>2026-05-02T11:34:34Z</time></trkpt><trkpt lat="43.00967957549275" lon="-3.855418077289532"><ele>841.8</ele><time>2026-05-02T11:34:35Z</time></trkpt><trkpt lat="43.0095949097282" lon="-3.85550255659576"><ele>842.4</ele><time>2026-05-02T11:34:36Z</time></trkpt><trkpt lat="43.009511311571316" lon="-3.855586967212839"><ele>843.0</ele><time>2026-05-02T11:34:37Z</time></trkpt><trkpt lat="43.00943146300624" lon="-3.8556708414404857"><ele>843.0</ele><time>2026-05-02T11:34:38Z</time></trkpt><trkpt lat="43.00935826345994" lon="-3.8557484888984286"><ele>843.0</ele><time>2026-05-02T11:34:39Z</time></trkpt><trkpt lat="43.00928119377571" lon="-3.8558318775786624"><ele>843.0</ele><time>2026-05-02T11:34:40Z</time></trkpt><trkpt lat="43.00920453855187" lon="-3.855913818670165"><ele>843.0</ele><time>2026-05-02T11:34:41Z</time></trkpt><trkpt lat="43.00913117407663" lon="-3.8559940105211017"><ele>843.0</ele><time>2026-05-02T11:34:42Z</time></trkpt><trkpt lat="43.009057447764164" lon="-3.856075143077896"><ele>844.0</ele><time>2026-05-02T11:34:43Z</time></trkpt><trkpt lat="43.008983334598746" lon="-3.856155975828228"><ele>845.0</ele><time>2026-05-02T11:34:44Z</time></trkpt><trkpt lat="43.008907454198045" lon="-3.856235184616309"><ele>846.0</ele><time>2026-05-02T11:34:45Z</time></trkpt><trkpt lat="43.00883178797325" lon="-3.856310291333202"><ele>847.0</ele><time>2026-05-02T11:34:46Z</time></trkpt><trkpt lat="43.008759136309315" lon="-3.856387303599005"><ele>848.0</ele><time>2026-05-02T11:34:47Z</time></trkpt><trkpt lat="43.00868524425842" lon="-3.8564627554862922"><ele>848.0</ele><time>2026-05-02T11:34:48Z</time></trkpt><trkpt lat="43.00861181750831" lon="-3.856533907272368"><ele>848.0</ele><time>2026-05-02T11:34:49Z</time></trkpt><trkpt lat="43.00853758428454" lon="-3.856611563762045"><ele>848.0</ele><time>2026-05-02T11:34:50Z</time></trkpt><trkpt lat="43.00846523188108" lon="-3.856690056668905"><ele>848.0</ele><time>2026-05-02T11:34:51Z</time></trkpt><trkpt lat="43.00839253550702" lon="-3.85676652260523"><ele>848.0</ele><time>2026-05-02T11:34:52Z</time></trkpt><trkpt lat="43.00831556290436" lon="-3.856840614688615"><ele>848.0</ele><time>2026-05-02T11:34:53Z</time></trkpt><trkpt lat="43.008237279575695" lon="-3.856922708320991"><ele>848.0</ele><time>2026-05-02T11:34:54Z</time></trkpt><trkpt lat="43.00816249424848" lon="-3.857002653884648"><ele>848.0</ele><time>2026-05-02T11:34:55Z</time></trkpt><trkpt lat="43.008079991808344" lon="-3.857078984033111"><ele>848.0</ele><time>2026-05-02T11:34:56Z</time></trkpt><trkpt lat="43.00800152708528" lon="-3.8571570970455946"><ele>848.0</ele><time>2026-05-02T11:34:57Z</time></trkpt><trkpt lat="43.007919299107655" lon="-3.8572349211797996"><ele>848.0</ele><time>2026-05-02T11:34:58Z</time></trkpt><trkpt lat="43.00783432055925" lon="-3.8573131919501815"><ele>848.0</ele><time>2026-05-02T11:34:59Z</time></trkpt><trkpt lat="43.00774936528778" lon="-3.8573913229136543"><ele>848.0</ele><time>2026-05-02T11:35:00Z</time></trkpt><trkpt lat="43.00766486892726" lon="-3.8574628338173156"><ele>848.0</ele><time>2026-05-02T11:35:01Z</time></trkpt><trkpt lat="43.007575399181285" lon="-3.8575355618840317"><ele>848.0</ele><time>2026-05-02T11:35:02Z</time></trkpt><trkpt lat="43.00748730745059" lon="-3.857606091575154"><ele>847.8</ele><time>2026-05-02T11:35:03Z</time></trkpt><trkpt lat="43.00739693958338" lon="-3.8576726987791248"><ele>847.5999999999999</ele><time>2026-05-02T11:35:04Z</time></trkpt><trkpt lat="43.00730644871647" lon="-3.8577369492910067"><ele>847.4000000000001</ele><time>2026-05-02T11:35:05Z</time></trkpt><trkpt lat="43.00721177405455" lon="-3.857797611681763"><ele>847.2</ele><time>2026-05-02T11:35:06Z</time></trkpt><trkpt lat="43.00711552406655" lon="-3.8578535361043085"><ele>847.0</ele><time>2026-05-02T11:35:07Z</time></trkpt><trkpt lat="43.00702115340168" lon="-3.8579088344243613"><ele>847.0</ele><time>2026-05-02T11:35:08Z</time></trkpt><trkpt lat="43.0069246592405" lon="-3.857961749494162"><ele>847.0</ele><time>2026-05-02T11:35:09Z</time></trkpt><trkpt lat="43.006828184899966" lon="-3.8580177817913612"><ele>847.0</ele><time>2026-05-02T11:35:10Z</time></trkpt><trkpt lat="43.006734606909454" lon="-3.858070716909535"><ele>847.0</ele><time>2026-05-02T11:35:11Z</time></trkpt><trkpt lat="43.006636517734975" lon="-3.858122812613026"><ele>847.0</ele><time>2026-05-02T11:35:12Z</time></trkpt><trkpt lat="43.006538116087796" lon="-3.8581795195981354"><ele>847.0</ele><time>2026-05-02T11:35:13Z</time></trkpt><trkpt lat="43.00644344828196" lon="-3.858233609922491"><ele>847.0</ele><time>2026-05-02T11:35:14Z</time></trkpt><trkpt lat="43.00634671707119" lon="-3.858287016704564"><ele>847.0</ele><time>2026-05-02T11:35:15Z</time></trkpt><trkpt lat="43.006250330867836" lon="-3.8583435986349586"><ele>847.0</ele><time>2026-05-02T11:35:16Z</time></trkpt><trkpt lat="43.00615604240803" lon="-3.8583948097613603"><ele>847.0</ele><time>2026-05-02T11:35:17Z</time></trkpt><trkpt lat="43.00605935685667" lon="-3.8584447272031017"><ele>846.6</ele><time>2026-05-02T11:35:18Z</time></trkpt><trkpt lat="43.00596606659668" lon="-3.8584944546774302"><ele>846.2</ele><time>2026-05-02T11:35:19Z</time></trkpt><trkpt lat="43.00587219495386" lon="-3.8585418543544208"><ele>845.8</ele><time>2026-05-02T11:35:20Z</time></trkpt><trkpt lat="43.00577741612823" lon="-3.8585884535121684"><ele>845.4</ele><time>2026-05-02T11:35:21Z</time></trkpt><trkpt lat="43.00568263699404" lon="-3.8586259012061994"><ele>845.0</ele><time>2026-05-02T11:35:22Z</time></trkpt><trkpt lat="43.00558264839394" lon="-3.8586560331930335"><ele>845.0</ele><time>2026-05-02T11:35:23Z</time></trkpt><trkpt lat="43.005480406780585" lon="-3.85868154285658"><ele>845.0</ele><time>2026-05-02T11:35:24Z</time></trkpt><trkpt lat="43.00537833526571" lon="-3.858697860710939"><ele>845.0</ele><time>2026-05-02T11:35:25Z</time></trkpt><trkpt lat="43.005275164287355" lon="-3.858705875851901"><ele>845.0</ele><time>2026-05-02T11:35:26Z</time></trkpt><trkpt lat="43.00517316443336" lon="-3.8587138176757327"><ele>845.0</ele><time>2026-05-02T11:35:27Z</time></trkpt><trkpt lat="43.005071107878514" lon="-3.858720666638113"><ele>845.4</ele><time>2026-05-02T11:35:28Z</time></trkpt><trkpt lat="43.004971932181185" lon="-3.8587232335567303"><ele>845.8</ele><time>2026-05-02T11:35:29Z</time></trkpt><trkpt lat="43.00487104879231" lon="-3.8587300225549095"><ele>846.2</ele><time>2026-05-02T11:35:30Z</time></trkpt><trkpt lat="43.00476924780128" lon="-3.8587347900863325"><ele>846.6</ele><time>2026-05-02T11:35:31Z</time></trkpt><trkpt lat="43.00466634360715" lon="-3.8587380018525965"><ele>847.0</ele><time>2026-05-02T11:35:32Z</time></trkpt><trkpt lat="43.00456571984811" lon="-3.8587434175042237"><ele>847.0</ele><time>2026-05-02T11:35:33Z</time></trkpt><trkpt lat="43.004464250764855" lon="-3.8587458724094246"><ele>847.0</ele><time>2026-05-02T11:35:34Z</time></trkpt><trkpt lat="43.004362196185696" lon="-3.858748886356531"><ele>847.0</ele><time>2026-05-02T11:35:35Z</time></trkpt><trkpt lat="43.00426206695686" lon="-3.8587554488424045"><ele>847.0</ele><time>2026-05-02T11:35:36Z</time></trkpt><trkpt lat="43.0041601775" lon="-3.8587624941244862"><ele>847.0</ele><time>2026-05-02T11:35:37Z</time></trkpt><trkpt lat="43.004058699850304" lon="-3.8587721041728487"><ele>846.6</ele><time>2026-05-02T11:35:38Z</time></trkpt><trkpt lat="43.00395523298621" lon="-3.8587791602517476"><ele>846.2</ele><time>2026-05-02T11:35:39Z</time></trkpt><trkpt lat="43.003850791825876" lon="-3.8587839606304417"><ele>845.8</ele><time>2026-05-02T11:35:40.001Z</time></trkpt><trkpt lat="43.00374615297002" lon="-3.858788328753201"><ele>845.4</ele><time>2026-05-02T11:35:41.001Z</time></trkpt><trkpt lat="43.003637511589694" lon="-3.8587919579534726"><ele>845.0</ele><time>2026-05-02T11:35:42.001Z</time></trkpt><trkpt lat="43.003533962325584" lon="-3.858797172816563"><ele>845.0</ele><time>2026-05-02T11:35:43.001Z</time></trkpt><trkpt lat="43.003422735050776" lon="-3.858801521198785"><ele>845.0</ele><time>2026-05-02T11:35:44.001Z</time></trkpt><trkpt lat="43.00331545405125" lon="-3.8588083159384867"><ele>845.0</ele><time>2026-05-02T11:35:45.001Z</time></trkpt><trkpt lat="43.00321026717142" lon="-3.858816612458116"><ele>845.0</ele><time>2026-05-02T11:35:46.001Z</time></trkpt><trkpt lat="43.00310536327683" lon="-3.858815160141097"><ele>845.0</ele><time>2026-05-02T11:35:47.001Z</time></trkpt><trkpt lat="43.002997141703084" lon="-3.858819101938469"><ele>844.8</ele><time>2026-05-02T11:35:48.001Z</time></trkpt><trkpt lat="43.00289004948799" lon="-3.8588286190625842"><ele>844.6</ele><time>2026-05-02T11:35:49.001Z</time></trkpt><trkpt lat="43.00278490695647" lon="-3.858843609103212"><ele>844.4000000000001</ele><time>2026-05-02T11:35:50.001Z</time></trkpt><trkpt lat="43.00268022275099" lon="-3.858847766786574"><ele>844.2</ele><time>2026-05-02T11:35:51.001Z</time></trkpt><trkpt lat="43.002575030987344" lon="-3.858853431461281"><ele>844.0</ele><time>2026-05-02T11:35:52.001Z</time></trkpt><trkpt lat="43.002471107249775" lon="-3.858860101975893"><ele>844.0</ele><time>2026-05-02T11:35:53.001Z</time></trkpt><trkpt lat="43.00236653921371" lon="-3.8588652017648877"><ele>844.0</ele><time>2026-05-02T11:35:54.001Z</time></trkpt><trkpt lat="43.00226325933849" lon="-3.858869810348677"><ele>844.0</ele><time>2026-05-02T11:35:55.001Z</time></trkpt><trkpt lat="43.00215717245942" lon="-3.8588720835761015"><ele>844.0</ele><time>2026-05-02T11:35:56.001Z</time></trkpt><trkpt lat="43.00205219322585" lon="-3.858877738035209"><ele>844.0</ele><time>2026-05-02T11:35:57.001Z</time></trkpt><trkpt lat="43.00194967768976" lon="-3.858884867926006"><ele>844.0</ele><time>2026-05-02T11:35:58.001Z</time></trkpt><trkpt lat="43.00184525471576" lon="-3.8588932570242322"><ele>844.0</ele><time>2026-05-02T11:35:59.001Z</time></trkpt><trkpt lat="43.001742962714815" lon="-3.8589006545252036"><ele>844.0</ele><time>2026-05-02T11:36:00.001Z</time></trkpt><trkpt lat="43.00164059985998" lon="-3.858904639511868"><ele>844.0</ele><time>2026-05-02T11:36:01.001Z</time></trkpt><trkpt lat="43.0015399068936" lon="-3.858908301715516"><ele>844.0</ele><time>2026-05-02T11:36:02.001Z</time></trkpt><trkpt lat="43.001438591765606" lon="-3.8589192015734173"><ele>844.2</ele><time>2026-05-02T11:36:03.001Z</time></trkpt><trkpt lat="43.00133692819245" lon="-3.858921425475884"><ele>844.4000000000001</ele><time>2026-05-02T11:36:04.001Z</time></trkpt><trkpt lat="43.001236207606574" lon="-3.8589297960965254"><ele>844.6</ele><time>2026-05-02T11:36:05.001Z</time></trkpt><trkpt lat="43.00113514653783" lon="-3.8589335487610628"><ele>844.8</ele><time>2026-05-02T11:36:06.001Z</time></trkpt><trkpt lat="43.0010376111834" lon="-3.8589381201776485"><ele>845.0</ele><time>2026-05-02T11:36:07.001Z</time></trkpt><trkpt lat="43.00093865007253" lon="-3.858943595431559"><ele>845.0</ele><time>2026-05-02T11:36:08.001Z</time></trkpt><trkpt lat="43.00084004261733" lon="-3.85895142365585"><ele>845.0</ele><time>2026-05-02T11:36:09.001Z</time></trkpt><trkpt lat="43.00074181978387" lon="-3.8589594930589435"><ele>845.0</ele><time>2026-05-02T11:36:10.001Z</time></trkpt><trkpt lat="43.000642572262514" lon="-3.8589696750379923"><ele>845.0</ele><time>2026-05-02T11:36:11.001Z</time></trkpt><trkpt lat="43.000545937405526" lon="-3.8589693482599454"><ele>845.0</ele><time>2026-05-02T11:36:12.001Z</time></trkpt><trkpt lat="43.000452152899136" lon="-3.85897315044598"><ele>845.2</ele><time>2026-05-02T11:36:13.001Z</time></trkpt><trkpt lat="43.000356646350234" lon="-3.858977601609739"><ele>845.4</ele><time>2026-05-02T11:36:14.001Z</time></trkpt><trkpt lat="43.000261952180836" lon="-3.8589839327469444"><ele>845.5999999999999</ele><time>2026-05-02T11:36:15.001Z</time></trkpt><trkpt lat="43.00016880177825" lon="-3.858987262581316"><ele>845.8</ele><time>2026-05-02T11:36:16.001Z</time></trkpt><trkpt lat="43.00007302653215" lon="-3.858994193945267"><ele>846.0</ele><time>2026-05-02T11:36:17.001Z</time></trkpt><trkpt lat="42.99997771205694" lon="-3.8590010870915363"><ele>846.0</ele><time>2026-05-02T11:36:18.001Z</time></trkpt><trkpt lat="42.99988260759672" lon="-3.8590057539058167"><ele>846.0</ele><time>2026-05-02T11:36:19.001Z</time></trkpt><trkpt lat="42.99978404382004" lon="-3.8590112872781104"><ele>846.0</ele><time>2026-05-02T11:36:20.001Z</time></trkpt><trkpt lat="42.99968632978322" lon="-3.8590209490010516"><ele>846.0</ele><time>2026-05-02T11:36:21.001Z</time></trkpt><trkpt lat="42.99959064858255" lon="-3.8590259128227093"><ele>846.0</ele><time>2026-05-02T11:36:22.001Z</time></trkpt><trkpt lat="42.99949632345847" lon="-3.859026715866481"><ele>846.0</ele><time>2026-05-02T11:36:23.001Z</time></trkpt><trkpt lat="42.99940405497945" lon="-3.8590348513925576"><ele>846.0</ele><time>2026-05-02T11:36:24.001Z</time></trkpt><trkpt lat="42.99930815966424" lon="-3.859035716167818"><ele>846.0</ele><time>2026-05-02T11:36:25.001Z</time></trkpt><trkpt lat="42.99921475742871" lon="-3.8590442273729155"><ele>846.0</ele><time>2026-05-02T11:36:26.001Z</time></trkpt><trkpt lat="42.99911670231323" lon="-3.8590496821504416"><ele>846.0</ele><time>2026-05-02T11:36:27.001Z</time></trkpt><trkpt lat="42.999016762734776" lon="-3.8590595581734957"><ele>845.4</ele><time>2026-05-02T11:36:28.001Z</time></trkpt><trkpt lat="42.99891753832318" lon="-3.859065399701977"><ele>844.8</ele><time>2026-05-02T11:36:29.001Z</time></trkpt><trkpt lat="42.99881678140772" lon="-3.8590685693798754"><ele>844.1999999999999</ele><time>2026-05-02T11:36:30.001Z</time></trkpt><trkpt lat="42.998717646145565" lon="-3.8590740118923588"><ele>843.5999999999999</ele><time>2026-05-02T11:36:31Z</time></trkpt><trkpt lat="42.99861810259431" lon="-3.8590794368012578"><ele>843.0</ele><time>2026-05-02T11:36:32Z</time></trkpt><trkpt lat="42.998514886249616" lon="-3.8590834858754186"><ele>843.0</ele><time>2026-05-02T11:36:33Z</time></trkpt><trkpt lat="42.998413040142054" lon="-3.85908864898082"><ele>843.0</ele><time>2026-05-02T11:36:34Z</time></trkpt><trkpt lat="42.99831279225524" lon="-3.859114429355693"><ele>843.0</ele><time>2026-05-02T11:36:35Z</time></trkpt><trkpt lat="42.99821358676966" lon="-3.8591205074380084"><ele>843.0</ele><time>2026-05-02T11:36:36Z</time></trkpt><trkpt lat="42.998112029082215" lon="-3.859126729636208"><ele>843.0</ele><time>2026-05-02T11:36:37Z</time></trkpt><trkpt lat="42.9980123061137" lon="-3.859132839422399"><ele>843.4</ele><time>2026-05-02T11:36:38Z</time></trkpt><trkpt lat="42.99791228193131" lon="-3.8591384843642405"><ele>843.8</ele><time>2026-05-02T11:36:39Z</time></trkpt><trkpt lat="42.997812548910304" lon="-3.859143953172226"><ele>844.2</ele><time>2026-05-02T11:36:40Z</time></trkpt><trkpt lat="42.99771407252601" lon="-3.859149353073999"><ele>844.6</ele><time>2026-05-02T11:36:41Z</time></trkpt><trkpt lat="42.997613715106226" lon="-3.859140587416007"><ele>845.0</ele><time>2026-05-02T11:36:42Z</time></trkpt><trkpt lat="42.99751227892108" lon="-3.859144200548492"><ele>845.0</ele><time>2026-05-02T11:36:43Z</time></trkpt><trkpt lat="42.99741326728173" lon="-3.8591493088407294"><ele>845.0</ele><time>2026-05-02T11:36:44Z</time></trkpt><trkpt lat="42.9973112682995" lon="-3.8591542356549113"><ele>845.0</ele><time>2026-05-02T11:36:45Z</time></trkpt><trkpt lat="42.99721687381209" lon="-3.8591600720421413"><ele>845.0</ele><time>2026-05-02T11:36:46Z</time></trkpt><trkpt lat="42.99711975987104" lon="-3.859166666216115"><ele>845.0</ele><time>2026-05-02T11:36:47Z</time></trkpt><trkpt lat="42.997025237722525" lon="-3.8591693892288004"><ele>845.0</ele><time>2026-05-02T11:36:48Z</time></trkpt><trkpt lat="42.99692589939875" lon="-3.859177374653136"><ele>845.0</ele><time>2026-05-02T11:36:49Z</time></trkpt><trkpt lat="42.99683067489697" lon="-3.85917968290779"><ele>845.0</ele><time>2026-05-02T11:36:50Z</time></trkpt><trkpt lat="42.99673164633033" lon="-3.8591883675196565"><ele>845.0</ele><time>2026-05-02T11:36:51Z</time></trkpt><trkpt lat="42.99663906685015" lon="-3.8591918446880804"><ele>845.0</ele><time>2026-05-02T11:36:52Z</time></trkpt><trkpt lat="42.99654094262959" lon="-3.8591964971986537"><ele>845.4</ele><time>2026-05-02T11:36:53Z</time></trkpt><trkpt lat="42.99644598727578" lon="-3.859199141515991"><ele>845.8</ele><time>2026-05-02T11:36:54Z</time></trkpt><trkpt lat="42.99635238072905" lon="-3.85921074299222"><ele>846.2</ele><time>2026-05-02T11:36:55Z</time></trkpt><trkpt lat="42.996259971614236" lon="-3.8592157901036086"><ele>846.6</ele><time>2026-05-02T11:36:56Z</time></trkpt><trkpt lat="42.9961673502982" lon="-3.859224171864007"><ele>847.0</ele><time>2026-05-02T11:36:57Z</time></trkpt><trkpt lat="42.99607141455012" lon="-3.8592292489232944"><ele>847.0</ele><time>2026-05-02T11:36:58Z</time></trkpt><trkpt lat="42.99597591971397" lon="-3.859235543137707"><ele>847.0</ele><time>2026-05-02T11:36:59Z</time></trkpt><trkpt lat="42.99588123489425" lon="-3.859240489308899"><ele>847.0</ele><time>2026-05-02T11:37:00Z</time></trkpt><trkpt lat="42.99578702925237" lon="-3.8592450605383175"><ele>847.0</ele><time>2026-05-02T11:37:01Z</time></trkpt><trkpt lat="42.99569168153316" lon="-3.859252587790247"><ele>847.0</ele><time>2026-05-02T11:37:02Z</time></trkpt><trkpt lat="42.995599787170185" lon="-3.8592602401031137"><ele>846.8</ele><time>2026-05-02T11:37:03Z</time></trkpt><trkpt lat="42.995506506263396" lon="-3.859267065513242"><ele>846.6</ele><time>2026-05-02T11:37:04Z</time></trkpt><trkpt lat="42.99541547177706" lon="-3.8592737534126984"><ele>846.4</ele><time>2026-05-02T11:37:05Z</time></trkpt><trkpt lat="42.99532327649888" lon="-3.859280277128005"><ele>846.1999999999999</ele><time>2026-05-02T11:37:06Z</time></trkpt><trkpt lat="42.99522717321489" lon="-3.8592797459228625"><ele>846.0</ele><time>2026-05-02T11:37:07Z</time></trkpt><trkpt lat="42.995136784481026" lon="-3.859286757078264"><ele>846.0</ele><time>2026-05-02T11:37:08Z</time></trkpt><trkpt lat="42.995046088760716" lon="-3.8592949660437696"><ele>846.0</ele><time>2026-05-02T11:37:09Z</time></trkpt><trkpt lat="42.994955707157" lon="-3.859298056845174"><ele>846.0</ele><time>2026-05-02T11:37:10Z</time></trkpt><trkpt lat="42.99486539612922" lon="-3.8593030587919737"><ele>846.0</ele><time>2026-05-02T11:37:11Z</time></trkpt><trkpt lat="42.99477588704804" lon="-3.859304824724356"><ele>846.0</ele><time>2026-05-02T11:37:12Z</time></trkpt><trkpt lat="42.99468690492807" lon="-3.8593054814816763"><ele>846.1999999999999</ele><time>2026-05-02T11:37:13Z</time></trkpt><trkpt lat="42.994595338910216" lon="-3.859310136787278"><ele>846.4</ele><time>2026-05-02T11:37:14Z</time></trkpt><trkpt lat="42.99450046557611" lon="-3.8593169372127303"><ele>846.6</ele><time>2026-05-02T11:37:15Z</time></trkpt><trkpt lat="42.99440623232249" lon="-3.85932445796492"><ele>846.8</ele><time>2026-05-02T11:37:16Z</time></trkpt><trkpt lat="42.99431461580501" lon="-3.859333223846642"><ele>847.0</ele><time>2026-05-02T11:37:17Z</time></trkpt><trkpt lat="42.99422291597069" lon="-3.8593366732919936"><ele>847.3333333333333</ele><time>2026-05-02T11:37:18Z</time></trkpt><trkpt lat="42.994133818573125" lon="-3.8593445208532753"><ele>847.6666666666666</ele><time>2026-05-02T11:37:19Z</time></trkpt><trkpt lat="42.99404463211547" lon="-3.859348418385381"><ele>848.0</ele><time>2026-05-02T11:37:20Z</time></trkpt><trkpt lat="42.99395550087575" lon="-3.8593493750184558"><ele>848.3333333333333</ele><time>2026-05-02T11:37:21Z</time></trkpt><trkpt lat="42.99386568881915" lon="-3.8593602447435678"><ele>848.6666666666666</ele><time>2026-05-02T11:37:22Z</time></trkpt><trkpt lat="42.99377492643324" lon="-3.859363619720661"><ele>849.0</ele><time>2026-05-02T11:37:23Z</time></trkpt><trkpt lat="42.99368238847004" lon="-3.8593684752599433"><ele>849.0</ele><time>2026-05-02T11:37:24Z</time></trkpt><trkpt lat="42.99358941556813" lon="-3.8593752132911674"><ele>849.0</ele><time>2026-05-02T11:37:25Z</time></trkpt><trkpt lat="42.9934952826298" lon="-3.8593803730817324"><ele>849.0</ele><time>2026-05-02T11:37:26Z</time></trkpt><trkpt lat="42.99339855482142" lon="-3.859384864596412"><ele>849.0</ele><time>2026-05-02T11:37:27Z</time></trkpt><trkpt lat="42.99330600548478" lon="-3.8593875753044595"><ele>849.0</ele><time>2026-05-02T11:37:28Z</time></trkpt><trkpt lat="42.99321010580456" lon="-3.859398198427148"><ele>849.4000000000001</ele><time>2026-05-02T11:37:29Z</time></trkpt><trkpt lat="42.99311453035065" lon="-3.8594051425424842"><ele>849.8</ele><time>2026-05-02T11:37:30Z</time></trkpt><trkpt lat="42.9930220167236" lon="-3.859410910664184"><ele>850.2</ele><time>2026-05-02T11:37:31Z</time></trkpt><trkpt lat="42.99292723610763" lon="-3.859415739631177"><ele>850.5999999999999</ele><time>2026-05-02T11:37:32Z</time></trkpt><trkpt lat="42.99283051760084" lon="-3.8594195648691856"><ele>851.0</ele><time>2026-05-02T11:37:33Z</time></trkpt><trkpt lat="42.99273511578867" lon="-3.8594265827114707"><ele>851.0</ele><time>2026-05-02T11:37:34Z</time></trkpt><trkpt lat="42.992637570166615" lon="-3.8594299654248196"><ele>851.0</ele><time>2026-05-02T11:37:35Z</time></trkpt><trkpt lat="42.99254272054005" lon="-3.8594395196409166"><ele>851.0</ele><time>2026-05-02T11:37:36Z</time></trkpt><trkpt lat="42.99244700519353" lon="-3.859441107214312"><ele>851.0</ele><time>2026-05-02T11:37:37Z</time></trkpt><trkpt lat="42.99235237002872" lon="-3.859450069616902"><ele>851.0</ele><time>2026-05-02T11:37:38Z</time></trkpt><trkpt lat="42.99225545357521" lon="-3.859453186817759"><ele>851.0</ele><time>2026-05-02T11:37:39Z</time></trkpt><trkpt lat="42.992162093890194" lon="-3.859463438303348"><ele>851.0</ele><time>2026-05-02T11:37:40Z</time></trkpt><trkpt lat="42.99206868454136" lon="-3.859466099497555"><ele>851.0</ele><time>2026-05-02T11:37:41Z</time></trkpt><trkpt lat="42.991975341635325" lon="-3.8594690888088103"><ele>851.0</ele><time>2026-05-02T11:37:42Z</time></trkpt><trkpt lat="42.99187905821888" lon="-3.85948070048846"><ele>851.0</ele><time>2026-05-02T11:37:43Z</time></trkpt><trkpt lat="42.991781633656764" lon="-3.8594852479105866"><ele>851.0</ele><time>2026-05-02T11:37:44Z</time></trkpt><trkpt lat="42.9916850431714" lon="-3.859495108914237"><ele>851.0</ele><time>2026-05-02T11:37:45.001Z</time></trkpt><trkpt lat="42.9915912727551" lon="-3.8595003779570582"><ele>851.0</ele><time>2026-05-02T11:37:46.001Z</time></trkpt><trkpt lat="42.99149736642968" lon="-3.8595060551334153"><ele>851.0</ele><time>2026-05-02T11:37:47.001Z</time></trkpt><trkpt lat="42.99140574171378" lon="-3.8595122625196443"><ele>851.0</ele><time>2026-05-02T11:37:48.001Z</time></trkpt><trkpt lat="42.991314505447384" lon="-3.859520610014387"><ele>851.1999999999999</ele><time>2026-05-02T11:37:49.001Z</time></trkpt><trkpt lat="42.991223137782825" lon="-3.859519533086451"><ele>851.4</ele><time>2026-05-02T11:37:50.001Z</time></trkpt><trkpt lat="42.99113082605079" lon="-3.85952433174283"><ele>851.6</ele><time>2026-05-02T11:37:51.001Z</time></trkpt><trkpt lat="42.991041554685786" lon="-3.8595260073299906"><ele>851.8</ele><time>2026-05-02T11:37:52.001Z</time></trkpt><trkpt lat="42.99095163662214" lon="-3.859532093865088"><ele>852.0</ele><time>2026-05-02T11:37:53.001Z</time></trkpt><trkpt lat="42.990863161233726" lon="-3.8595305084454337"><ele>851.5</ele><time>2026-05-02T11:37:54.001Z</time></trkpt><trkpt lat="42.99077479406292" lon="-3.8595344106602867"><ele>851.0</ele><time>2026-05-02T11:37:55.001Z</time></trkpt><trkpt lat="42.990687698413936" lon="-3.8595283617567513"><ele>850.5</ele><time>2026-05-02T11:37:56.001Z</time></trkpt><trkpt lat="42.990599998259086" lon="-3.859522709133355"><ele>850.0</ele><time>2026-05-02T11:37:57.001Z</time></trkpt><trkpt lat="42.99051509929664" lon="-3.8595195658602073"><ele>849.5</ele><time>2026-05-02T11:37:58.001Z</time></trkpt><trkpt lat="42.99043238687336" lon="-3.859507348233031"><ele>849.0</ele><time>2026-05-02T11:37:59.001Z</time></trkpt><trkpt lat="42.99034817179295" lon="-3.859501300895871"><ele>849.0</ele><time>2026-05-02T11:38:00.001Z</time></trkpt><trkpt lat="42.99026643466194" lon="-3.8594864862903604"><ele>849.0</ele><time>2026-05-02T11:38:01.001Z</time></trkpt><trkpt lat="42.990185157071835" lon="-3.8594736320947844"><ele>849.0</ele><time>2026-05-02T11:38:02.001Z</time></trkpt><trkpt lat="42.99010437446029" lon="-3.859456008654934"><ele>849.0</ele><time>2026-05-02T11:38:03.001Z</time></trkpt><trkpt lat="42.99002654143511" lon="-3.85943698831239"><ele>849.0</ele><time>2026-05-02T11:38:04.001Z</time></trkpt><trkpt lat="42.989948316601115" lon="-3.8594189583112697"><ele>849.0</ele><time>2026-05-02T11:38:05.001Z</time></trkpt><trkpt lat="42.989868561980025" lon="-3.8593963896421584"><ele>848.6666666666666</ele><time>2026-05-02T11:38:06.001Z</time></trkpt><trkpt lat="42.989787619642904" lon="-3.8593771866064"><ele>848.3333333333333</ele><time>2026-05-02T11:38:07.001Z</time></trkpt><trkpt lat="42.98970910957651" lon="-3.8593475914952076"><ele>848.0</ele><time>2026-05-02T11:38:08.001Z</time></trkpt><trkpt lat="42.98962714840814" lon="-3.859319599927079"><ele>847.6666666666666</ele><time>2026-05-02T11:38:09.001Z</time></trkpt><trkpt lat="42.989546397556424" lon="-3.859292092101765"><ele>847.3333333333333</ele><time>2026-05-02T11:38:10.001Z</time></trkpt><trkpt lat="42.98946380543279" lon="-3.859259663923113"><ele>847.0</ele><time>2026-05-02T11:38:11.001Z</time></trkpt><trkpt lat="42.98938048477487" lon="-3.859223681569173"><ele>847.4000000000001</ele><time>2026-05-02T11:38:12.001Z</time></trkpt><trkpt lat="42.9892979704246" lon="-3.8591847074725427"><ele>847.8000000000001</ele><time>2026-05-02T11:38:13.001Z</time></trkpt><trkpt lat="42.989212968083976" lon="-3.8591428588333763"><ele>848.2</ele><time>2026-05-02T11:38:14.001Z</time></trkpt><trkpt lat="42.98912865798971" lon="-3.8591000035194862"><ele>848.6</ele><time>2026-05-02T11:38:15.001Z</time></trkpt><trkpt lat="42.989042253618756" lon="-3.859057453673561"><ele>849.0</ele><time>2026-05-02T11:38:16.001Z</time></trkpt><trkpt lat="42.98895623316001" lon="-3.8590122029117735"><ele>849.0</ele><time>2026-05-02T11:38:17.001Z</time></trkpt><trkpt lat="42.98887154280964" lon="-3.858964273552476"><ele>849.0</ele><time>2026-05-02T11:38:18.001Z</time></trkpt><trkpt lat="42.9887847704974" lon="-3.858914492320247"><ele>849.0</ele><time>2026-05-02T11:38:19.001Z</time></trkpt><trkpt lat="42.98869260289028" lon="-3.8588681387083947"><ele>849.0</ele><time>2026-05-02T11:38:20.001Z</time></trkpt><trkpt lat="42.98860059843257" lon="-3.8588191750692005"><ele>849.0</ele><time>2026-05-02T11:38:21.001Z</time></trkpt><trkpt lat="42.98850652182617" lon="-3.8587679989225756"><ele>849.0</ele><time>2026-05-02T11:38:22.001Z</time></trkpt><trkpt lat="42.988410662390216" lon="-3.858717618360729"><ele>849.0</ele><time>2026-05-02T11:38:23.001Z</time></trkpt><trkpt lat="42.988313107409674" lon="-3.8586697891046997"><ele>849.0</ele><time>2026-05-02T11:38:24.001Z</time></trkpt><trkpt lat="42.988217867439175" lon="-3.8586185717714176"><ele>849.0</ele><time>2026-05-02T11:38:25.001Z</time></trkpt><trkpt lat="42.98812246933731" lon="-3.8585676333001278"><ele>849.0</ele><time>2026-05-02T11:38:26.001Z</time></trkpt><trkpt lat="42.98802424291878" lon="-3.8585213751418976"><ele>848.6</ele><time>2026-05-02T11:38:27.001Z</time></trkpt><trkpt lat="42.98792627905241" lon="-3.858471016862662"><ele>848.2</ele><time>2026-05-02T11:38:28.001Z</time></trkpt><trkpt lat="42.98782853708918" lon="-3.858421003151855"><ele>847.8000000000001</ele><time>2026-05-02T11:38:29.001Z</time></trkpt><trkpt lat="42.987732070988145" lon="-3.858371037677046"><ele>847.4000000000001</ele><time>2026-05-02T11:38:30.001Z</time></trkpt><trkpt lat="42.9876351659101" lon="-3.858321986623424"><ele>847.0</ele><time>2026-05-02T11:38:31.001Z</time></trkpt><trkpt lat="42.987537913482285" lon="-3.8582740884572133"><ele>848.0</ele><time>2026-05-02T11:38:32.001Z</time></trkpt><trkpt lat="42.98743924235546" lon="-3.8582286396584866"><ele>849.0</ele><time>2026-05-02T11:38:33.001Z</time></trkpt><trkpt lat="42.987342454261245" lon="-3.8581806917060937"><ele>850.0</ele><time>2026-05-02T11:38:34.001Z</time></trkpt><trkpt lat="42.98724469005358" lon="-3.8581330927537594"><ele>851.0</ele><time>2026-05-02T11:38:35.001Z</time></trkpt><trkpt lat="42.98714653703422" lon="-3.858087616311246"><ele>852.0</ele><time>2026-05-02T11:38:36.001Z</time></trkpt><trkpt lat="42.98704802958687" lon="-3.858039568044433"><ele>852.0</ele><time>2026-05-02T11:38:37Z</time></trkpt><trkpt lat="42.98694860825923" lon="-3.8579927547535715"><ele>852.0</ele><time>2026-05-02T11:38:38Z</time></trkpt><trkpt lat="42.986849953562" lon="-3.8579496520384726"><ele>852.0</ele><time>2026-05-02T11:38:39Z</time></trkpt><trkpt lat="42.986749638193736" lon="-3.857907569787628"><ele>852.0</ele><time>2026-05-02T11:38:40Z</time></trkpt><trkpt lat="42.9866504378142" lon="-3.857869814806319"><ele>852.0</ele><time>2026-05-02T11:38:41Z</time></trkpt><trkpt lat="42.986549271190135" lon="-3.8578302445420523"><ele>851.6</ele><time>2026-05-02T11:38:42Z</time></trkpt><trkpt lat="42.98644789018012" lon="-3.857792802106989"><ele>851.2</ele><time>2026-05-02T11:38:43Z</time></trkpt><trkpt lat="42.98634452146727" lon="-3.857755504624498"><ele>850.8</ele><time>2026-05-02T11:38:44Z</time></trkpt><trkpt lat="42.98623931865142" lon="-3.8577170447270333"><ele>850.4</ele><time>2026-05-02T11:38:45Z</time></trkpt><trkpt lat="42.98613827646571" lon="-3.85767659759876"><ele>850.0</ele><time>2026-05-02T11:38:46Z</time></trkpt><trkpt lat="42.986036875097994" lon="-3.8576310731071493"><ele>850.0</ele><time>2026-05-02T11:38:47Z</time></trkpt><trkpt lat="42.985936751919795" lon="-3.857592254269343"><ele>850.0</ele><time>2026-05-02T11:38:48Z</time></trkpt><trkpt lat="42.98583399325303" lon="-3.857555749169921"><ele>850.0</ele><time>2026-05-02T11:38:49Z</time></trkpt><trkpt lat="42.985734049037326" lon="-3.85751390446264"><ele>850.0</ele><time>2026-05-02T11:38:50Z</time></trkpt><trkpt lat="42.9856325297687" lon="-3.8574764305075226"><ele>850.0</ele><time>2026-05-02T11:38:51Z</time></trkpt><trkpt lat="42.98553380856993" lon="-3.857433408540855"><ele>850.0</ele><time>2026-05-02T11:38:52Z</time></trkpt><trkpt lat="42.98543356282103" lon="-3.8573946444664315"><ele>850.0</ele><time>2026-05-02T11:38:53Z</time></trkpt><trkpt lat="42.985335315775245" lon="-3.857357361184324"><ele>850.0</ele><time>2026-05-02T11:38:54Z</time></trkpt><trkpt lat="42.98523730495324" lon="-3.8573176542346466"><ele>850.0</ele><time>2026-05-02T11:38:55Z</time></trkpt><trkpt lat="42.98513953098898" lon="-3.857276652874865"><ele>850.0</ele><time>2026-05-02T11:38:56Z</time></trkpt><trkpt lat="42.9850421206785" lon="-3.857238212013463"><ele>849.8</ele><time>2026-05-02T11:38:57Z</time></trkpt><trkpt lat="42.98494535757221" lon="-3.857198475280713"><ele>849.6</ele><time>2026-05-02T11:38:58Z</time></trkpt><trkpt lat="42.984850903493175" lon="-3.8571619442397935"><ele>849.4000000000001</ele><time>2026-05-02T11:38:59Z</time></trkpt><trkpt lat="42.9847544528354" lon="-3.8571305864530414"><ele>849.2</ele><time>2026-05-02T11:39:00Z</time></trkpt><trkpt lat="42.98466001399175" lon="-3.8570957633317633"><ele>849.0</ele><time>2026-05-02T11:39:01Z</time></trkpt><trkpt lat="42.98456927333482" lon="-3.857059566739199"><ele>849.0</ele><time>2026-05-02T11:39:02Z</time></trkpt><trkpt lat="42.98447690656802" lon="-3.8570166715391303"><ele>849.0</ele><time>2026-05-02T11:39:03Z</time></trkpt><trkpt lat="42.98438416200241" lon="-3.8569868349666465"><ele>849.0</ele><time>2026-05-02T11:39:04Z</time></trkpt><trkpt lat="42.98429620760483" lon="-3.856950602638414"><ele>849.0</ele><time>2026-05-02T11:39:05Z</time></trkpt><trkpt lat="42.984202808104534" lon="-3.8569213194330634"><ele>849.0</ele><time>2026-05-02T11:39:06Z</time></trkpt><trkpt lat="42.9841123488188" lon="-3.856884989323084"><ele>849.2</ele><time>2026-05-02T11:39:07Z</time></trkpt><trkpt lat="42.98402079323429" lon="-3.8568478495236134"><ele>849.4000000000001</ele><time>2026-05-02T11:39:08Z</time></trkpt><trkpt lat="42.983925383169144" lon="-3.8568096978955677"><ele>849.6</ele><time>2026-05-02T11:39:09Z</time></trkpt><trkpt lat="42.98383350401976" lon="-3.8567767516146745"><ele>849.8</ele><time>2026-05-02T11:39:10Z</time></trkpt><trkpt lat="42.98374273933281" lon="-3.856737143746476"><ele>850.0</ele><time>2026-05-02T11:39:11Z</time></trkpt><trkpt lat="42.983649471758774" lon="-3.8567006464649434"><ele>850.8</ele><time>2026-05-02T11:39:12Z</time></trkpt><trkpt lat="42.98355303478924" lon="-3.8566654651995056"><ele>851.6</ele><time>2026-05-02T11:39:13Z</time></trkpt><trkpt lat="42.98346104919109" lon="-3.8566278304385624"><ele>852.4000000000001</ele><time>2026-05-02T11:39:14Z</time></trkpt><trkpt lat="42.98336199066123" lon="-3.8565952458091437"><ele>853.2</ele><time>2026-05-02T11:39:15Z</time></trkpt><trkpt lat="42.983266184649096" lon="-3.8565589890466896"><ele>854.0</ele><time>2026-05-02T11:39:16Z</time></trkpt><trkpt lat="42.983171268971326" lon="-3.856523904351693"><ele>854.2</ele><time>2026-05-02T11:39:17Z</time></trkpt><trkpt lat="42.983074545929895" lon="-3.8564856825466793"><ele>854.4000000000001</ele><time>2026-05-02T11:39:18Z</time></trkpt><trkpt lat="42.98298047049753" lon="-3.8564495581096487"><ele>854.6</ele><time>2026-05-02T11:39:19Z</time></trkpt><trkpt lat="42.98288668980605" lon="-3.856413300700726"><ele>854.8</ele><time>2026-05-02T11:39:20Z</time></trkpt><trkpt lat="42.9827949014129" lon="-3.8563760919626344"><ele>855.0</ele><time>2026-05-02T11:39:21Z</time></trkpt><trkpt lat="42.982701909261124" lon="-3.8563398288370103"><ele>855.0</ele><time>2026-05-02T11:39:22Z</time></trkpt><trkpt lat="42.98261159125028" lon="-3.856305110588512"><ele>855.0</ele><time>2026-05-02T11:39:23Z</time></trkpt><trkpt lat="42.98252102333591" lon="-3.8562673949805824"><ele>855.0</ele><time>2026-05-02T11:39:24Z</time></trkpt><trkpt lat="42.98243334711238" lon="-3.8562286493174716"><ele>855.0</ele><time>2026-05-02T11:39:25Z</time></trkpt><trkpt lat="42.98234712758452" lon="-3.856189201223796"><ele>855.0</ele><time>2026-05-02T11:39:26Z</time></trkpt><trkpt lat="42.98225942892041" lon="-3.8561464761208333"><ele>854.2</ele><time>2026-05-02T11:39:27Z</time></trkpt><trkpt lat="42.982175067962814" lon="-3.8560931511961267"><ele>853.4</ele><time>2026-05-02T11:39:28Z</time></trkpt><trkpt lat="42.98209352071587" lon="-3.8560392944066217"><ele>852.5999999999999</ele><time>2026-05-02T11:39:29Z</time></trkpt><trkpt lat="42.98201118463994" lon="-3.85598009295307"><ele>851.8</ele><time>2026-05-02T11:39:30Z</time></trkpt><trkpt lat="42.98192805596101" lon="-3.8559180412830973"><ele>851.0</ele><time>2026-05-02T11:39:31Z</time></trkpt><trkpt lat="42.981846871266356" lon="-3.8558560342805217"><ele>852.4</ele><time>2026-05-02T11:39:32Z</time></trkpt><trkpt lat="42.98176993465643" lon="-3.8557876764037964"><ele>853.8</ele><time>2026-05-02T11:39:33Z</time></trkpt><trkpt lat="42.981687682612346" lon="-3.855725384390655"><ele>855.1999999999999</ele><time>2026-05-02T11:39:34Z</time></trkpt><trkpt lat="42.98160371631936" lon="-3.8556638233389227"><ele>856.5999999999999</ele><time>2026-05-02T11:39:35Z</time></trkpt><trkpt lat="42.98151650207442" lon="-3.8555988212235324"><ele>858.0</ele><time>2026-05-02T11:39:36Z</time></trkpt><trkpt lat="42.98142987391451" lon="-3.855528297555157"><ele>858.0</ele><time>2026-05-02T11:39:37Z</time></trkpt><trkpt lat="42.98134234623898" lon="-3.855462481465089"><ele>858.0</ele><time>2026-05-02T11:39:38Z</time></trkpt><trkpt lat="42.981257651987384" lon="-3.8553920709214036"><ele>858.0</ele><time>2026-05-02T11:39:39Z</time></trkpt><trkpt lat="42.98117184617258" lon="-3.855323711040843"><ele>858.0</ele><time>2026-05-02T11:39:40Z</time></trkpt><trkpt lat="42.981087466168304" lon="-3.855260378812833"><ele>858.0</ele><time>2026-05-02T11:39:41Z</time></trkpt><trkpt lat="42.98100017578167" lon="-3.8551953514392343"><ele>858.0</ele><time>2026-05-02T11:39:42Z</time></trkpt><trkpt lat="42.98091080966381" lon="-3.855128215047688"><ele>858.0</ele><time>2026-05-02T11:39:43Z</time></trkpt><trkpt lat="42.980826348063346" lon="-3.855062999101676"><ele>858.0</ele><time>2026-05-02T11:39:44Z</time></trkpt><trkpt lat="42.98073293781146" lon="-3.8549989020898083"><ele>858.0</ele><time>2026-05-02T11:39:45.001Z</time></trkpt><trkpt lat="42.98064332630319" lon="-3.854928804613904"><ele>858.0</ele><time>2026-05-02T11:39:46.001Z</time></trkpt><trkpt lat="42.980556296293265" lon="-3.8548619715710477"><ele>858.0</ele><time>2026-05-02T11:39:47.001Z</time></trkpt><trkpt lat="42.98047074068286" lon="-3.8547931219341995"><ele>858.0</ele><time>2026-05-02T11:39:48.001Z</time></trkpt><trkpt lat="42.98038173291492" lon="-3.854725213324388"><ele>858.0</ele><time>2026-05-02T11:39:49.001Z</time></trkpt><trkpt lat="42.980293446727664" lon="-3.854660988252315"><ele>858.0</ele><time>2026-05-02T11:39:50.001Z</time></trkpt><trkpt lat="42.98020525257287" lon="-3.854591567777599"><ele>858.0</ele><time>2026-05-02T11:39:51.001Z</time></trkpt><trkpt lat="42.98011566674417" lon="-3.8545255079511067"><ele>858.0</ele><time>2026-05-02T11:39:52.001Z</time></trkpt><trkpt lat="42.980026873421416" lon="-3.854456482283272"><ele>858.0</ele><time>2026-05-02T11:39:53.001Z</time></trkpt><trkpt lat="42.97993822317512" lon="-3.8543882608872027"><ele>858.0</ele><time>2026-05-02T11:39:54.001Z</time></trkpt><trkpt lat="42.97985020584502" lon="-3.8543217642810075"><ele>858.0</ele><time>2026-05-02T11:39:55.001Z</time></trkpt><trkpt lat="42.979760979276556" lon="-3.854253777921099"><ele>858.0</ele><time>2026-05-02T11:39:56.001Z</time></trkpt><trkpt lat="42.97967235325387" lon="-3.8541842429886644"><ele>858.0</ele><time>2026-05-02T11:39:57.001Z</time></trkpt><trkpt lat="42.979579152004646" lon="-3.8541203446873635"><ele>858.0</ele><time>2026-05-02T11:39:58.001Z</time></trkpt><trkpt lat="42.979488502623745" lon="-3.854054218535084"><ele>858.0</ele><time>2026-05-02T11:39:59.001Z</time></trkpt><trkpt lat="42.979400944784786" lon="-3.8539837250834155"><ele>858.0</ele><time>2026-05-02T11:40:00.001Z</time></trkpt><trkpt lat="42.979311725980374" lon="-3.8539137733112163"><ele>858.0</ele><time>2026-05-02T11:40:01.001Z</time></trkpt><trkpt lat="42.97921943180954" lon="-3.853850969474044"><ele>857.2</ele><time>2026-05-02T11:40:02.001Z</time></trkpt><trkpt lat="42.97912831079284" lon="-3.8537824577244084"><ele>856.4</ele><time>2026-05-02T11:40:03.001Z</time></trkpt><trkpt lat="42.97903885783706" lon="-3.853716952044388"><ele>855.6000000000001</ele><time>2026-05-02T11:40:04.001Z</time></trkpt><trkpt lat="42.97894906723079" lon="-3.853649638451529"><ele>854.8000000000001</ele><time>2026-05-02T11:40:05.001Z</time></trkpt><trkpt lat="42.978857800260755" lon="-3.853580934936573"><ele>854.0</ele><time>2026-05-02T11:40:06.001Z</time></trkpt><trkpt lat="42.978766050023886" lon="-3.8535114883399455"><ele>855.0</ele><time>2026-05-02T11:40:07.001Z</time></trkpt><trkpt lat="42.97867565230835" lon="-3.853443216087321"><ele>856.0000000000001</ele><time>2026-05-02T11:40:08.001Z</time></trkpt><trkpt lat="42.97858633110177" lon="-3.8533733648715036"><ele>857.0000000000001</ele><time>2026-05-02T11:40:09.001Z</time></trkpt><trkpt lat="42.97849812307472" lon="-3.8533075137994004"><ele>858.0</ele><time>2026-05-02T11:40:10.001Z</time></trkpt><trkpt lat="42.9784085196683" lon="-3.853241893066929"><ele>859.0</ele><time>2026-05-02T11:40:11.001Z</time></trkpt><trkpt lat="42.97832037295031" lon="-3.8531751045218847"><ele>859.0</ele><time>2026-05-02T11:40:12.001Z</time></trkpt><trkpt lat="42.9782318416561" lon="-3.8531085727948162"><ele>859.0000000000001</ele><time>2026-05-02T11:40:13.001Z</time></trkpt><trkpt lat="42.978142440636134" lon="-3.8530397489045405"><ele>859.0000000000001</ele><time>2026-05-02T11:40:14.001Z</time></trkpt><trkpt lat="42.97805990103168" lon="-3.8529723694633944"><ele>859.0</ele><time>2026-05-02T11:40:15.001Z</time></trkpt><trkpt lat="42.97797198030368" lon="-3.852904520808185"><ele>859.0</ele><time>2026-05-02T11:40:16.001Z</time></trkpt><trkpt lat="42.977883446580506" lon="-3.852837302987338"><ele>859.0</ele><time>2026-05-02T11:40:17.001Z</time></trkpt><trkpt lat="42.97779027228237" lon="-3.8527710942847957"><ele>859.0000000000001</ele><time>2026-05-02T11:40:18.001Z</time></trkpt><trkpt lat="42.97770108413394" lon="-3.8527018631446213"><ele>859.0000000000001</ele><time>2026-05-02T11:40:19.001Z</time></trkpt><trkpt lat="42.97761468180467" lon="-3.8526308683979584"><ele>859.0</ele><time>2026-05-02T11:40:20.001Z</time></trkpt><trkpt lat="42.977533343599276" lon="-3.8525586090131743"><ele>859.0</ele><time>2026-05-02T11:40:21.001Z</time></trkpt><trkpt lat="42.97744742240376" lon="-3.8524945813356064"><ele>860.2</ele><time>2026-05-02T11:40:22.001Z</time></trkpt><trkpt lat="42.977361407778936" lon="-3.8524227987715745"><ele>861.4000000000001</ele><time>2026-05-02T11:40:23.001Z</time></trkpt><trkpt lat="42.9772741603082" lon="-3.852351587061369"><ele>862.6</ele><time>2026-05-02T11:40:24.001Z</time></trkpt><trkpt lat="42.97718500577924" lon="-3.8522774487976497"><ele>863.8</ele><time>2026-05-02T11:40:25.001Z</time></trkpt><trkpt lat="42.977093176561105" lon="-3.8522038018956013"><ele>865.0</ele><time>2026-05-02T11:40:26.001Z</time></trkpt><trkpt lat="42.97700496649113" lon="-3.8521280836137706"><ele>865.0</ele><time>2026-05-02T11:40:27.001Z</time></trkpt><trkpt lat="42.97691367502045" lon="-3.8520583111895133"><ele>865.0</ele><time>2026-05-02T11:40:28.001Z</time></trkpt><trkpt lat="42.97682604731998" lon="-3.85198573373914"><ele>865.0</ele><time>2026-05-02T11:40:29.001Z</time></trkpt><trkpt lat="42.976740070599455" lon="-3.8519118441687366"><ele>865.0</ele><time>2026-05-02T11:40:30.001Z</time></trkpt><trkpt lat="42.97664871321662" lon="-3.851842744171009"><ele>865.0</ele><time>2026-05-02T11:40:31.001Z</time></trkpt><trkpt lat="42.97656370673988" lon="-3.8517679036413117"><ele>864.6</ele><time>2026-05-02T11:40:32.001Z</time></trkpt><trkpt lat="42.97647681459461" lon="-3.8516963591959854"><ele>864.2</ele><time>2026-05-02T11:40:33.001Z</time></trkpt><trkpt lat="42.976393107829615" lon="-3.8516239627435316"><ele>863.8</ele><time>2026-05-02T11:40:34.001Z</time></trkpt><trkpt lat="42.976306974959186" lon="-3.8515521547316616"><ele>863.4</ele><time>2026-05-02T11:40:35.001Z</time></trkpt><trkpt lat="42.97621824095085" lon="-3.851480062069707"><ele>863.0</ele><time>2026-05-02T11:40:36.001Z</time></trkpt><trkpt lat="42.97612927030085" lon="-3.8514008415901935"><ele>863.0</ele><time>2026-05-02T11:40:37.001Z</time></trkpt><trkpt lat="42.97604023505749" lon="-3.8513246427505434"><ele>863.0</ele><time>2026-05-02T11:40:38.001Z</time></trkpt><trkpt lat="42.97594418245744" lon="-3.8512721615212095"><ele>863.0</ele><time>2026-05-02T11:40:39.001Z</time></trkpt><trkpt lat="42.97586309626336" lon="-3.851179598078446"><ele>863.0</ele><time>2026-05-02T11:40:40.001Z</time></trkpt><trkpt lat="42.97576844256239" lon="-3.8511058083525334"><ele>863.0</ele><time>2026-05-02T11:40:41.001Z</time></trkpt><trkpt lat="42.975674214308626" lon="-3.8510288658236553"><ele>862.8</ele><time>2026-05-02T11:40:42.001Z</time></trkpt><trkpt lat="42.975582809669746" lon="-3.850952896392977"><ele>862.5999999999999</ele><time>2026-05-02T11:40:43Z</time></trkpt><trkpt lat="42.9754943339023" lon="-3.8508790400353456"><ele>862.4000000000001</ele><time>2026-05-02T11:40:44Z</time></trkpt><trkpt lat="42.9754068941175" lon="-3.8508039462626464"><ele>862.2</ele><time>2026-05-02T11:40:45Z</time></trkpt><trkpt lat="42.97531855368353" lon="-3.850729508282118"><ele>862.0</ele><time>2026-05-02T11:40:46Z</time></trkpt><trkpt lat="42.975230060169636" lon="-3.850653172898813"><ele>862.0</ele><time>2026-05-02T11:40:47Z</time></trkpt><trkpt lat="42.97513873531652" lon="-3.850585197546918"><ele>862.0</ele><time>2026-05-02T11:40:48Z</time></trkpt><trkpt lat="42.975048924536246" lon="-3.8505139966637705"><ele>862.0</ele><time>2026-05-02T11:40:49Z</time></trkpt><trkpt lat="42.974961713470684" lon="-3.85044164132045"><ele>862.0</ele><time>2026-05-02T11:40:50Z</time></trkpt><trkpt lat="42.97487522881249" lon="-3.8503652042828675"><ele>862.0</ele><time>2026-05-02T11:40:51Z</time></trkpt><trkpt lat="42.974786073292634" lon="-3.8503082127074855"><ele>861.8333333333333</ele><time>2026-05-02T11:40:52Z</time></trkpt><trkpt lat="42.97471026986638" lon="-3.8502451928111374"><ele>861.6666666666666</ele><time>2026-05-02T11:40:53Z</time></trkpt><trkpt lat="42.97462804594768" lon="-3.850176834143587"><ele>861.5</ele><time>2026-05-02T11:40:54Z</time></trkpt><trkpt lat="42.974553032369656" lon="-3.85011503156464"><ele>861.3333333333333</ele><time>2026-05-02T11:40:55Z</time></trkpt><trkpt lat="42.97448219499255" lon="-3.8500564613300545"><ele>861.1666666666666</ele><time>2026-05-02T11:40:56Z</time></trkpt><trkpt lat="42.974407914254485" lon="-3.849995044153769"><ele>861.0</ele><time>2026-05-02T11:40:57Z</time></trkpt><trkpt lat="42.97433183197442" lon="-3.849932137396344"><ele>861.0</ele><time>2026-05-02T11:40:58Z</time></trkpt><trkpt lat="42.974257200456044" lon="-3.8498704300603213"><ele>861.0</ele><time>2026-05-02T11:40:59Z</time></trkpt><trkpt lat="42.974182531861196" lon="-3.849808692291327"><ele>861.0</ele><time>2026-05-02T11:41:00Z</time></trkpt><trkpt lat="42.97410887543747" lon="-3.849747791280473"><ele>861.0</ele><time>2026-05-02T11:41:01Z</time></trkpt><trkpt lat="42.974036488484074" lon="-3.849687628612294"><ele>861.0</ele><time>2026-05-02T11:41:02Z</time></trkpt><trkpt lat="42.97396514421637" lon="-3.849628316684694"><ele>861.0</ele><time>2026-05-02T11:41:03Z</time></trkpt><trkpt lat="42.97389236609956" lon="-3.849567811771914"><ele>862.0</ele><time>2026-05-02T11:41:04Z</time></trkpt><trkpt lat="42.973818942259314" lon="-3.849506672015759"><ele>863.0</ele><time>2026-05-02T11:41:05Z</time></trkpt><trkpt lat="42.97374667604786" lon="-3.8494465326795395"><ele>864.0</ele><time>2026-05-02T11:41:06Z</time></trkpt><trkpt lat="42.97367505125704" lon="-3.8493874200554865"><ele>865.0</ele><time>2026-05-02T11:41:07Z</time></trkpt><trkpt lat="42.973600958529005" lon="-3.8493270230714822"><ele>866.0</ele><time>2026-05-02T11:41:08Z</time></trkpt><trkpt lat="42.97352781949258" lon="-3.8492689272391467"><ele>867.0</ele><time>2026-05-02T11:41:09Z</time></trkpt><trkpt lat="42.97345358039243" lon="-3.8492226027265217"><ele>867.3333333333334</ele><time>2026-05-02T11:41:10Z</time></trkpt><trkpt lat="42.97337742111331" lon="-3.8491820793832123"><ele>867.6666666666667</ele><time>2026-05-02T11:41:11Z</time></trkpt><trkpt lat="42.973298318390164" lon="-3.849155782429489"><ele>868.0</ele><time>2026-05-02T11:41:12Z</time></trkpt><trkpt lat="42.973215200069006" lon="-3.8491317650432646"><ele>868.3333333333334</ele><time>2026-05-02T11:41:13Z</time></trkpt><trkpt lat="42.973132023560574" lon="-3.849118901697376"><ele>868.6666666666667</ele><time>2026-05-02T11:41:14Z</time></trkpt><trkpt lat="42.97304745202716" lon="-3.84911191447745"><ele>869.0</ele><time>2026-05-02T11:41:15Z</time></trkpt><trkpt lat="42.97295946946221" lon="-3.849118006708776"><ele>869.8000000000001</ele><time>2026-05-02T11:41:16Z</time></trkpt><trkpt lat="42.972869939219684" lon="-3.8491242693470684"><ele>870.6000000000001</ele><time>2026-05-02T11:41:17Z</time></trkpt><trkpt lat="42.9727806469213" lon="-3.849130416857944"><ele>871.4</ele><time>2026-05-02T11:41:18Z</time></trkpt><trkpt lat="42.97268883716487" lon="-3.849137812817973"><ele>872.2</ele><time>2026-05-02T11:41:19Z</time></trkpt><trkpt lat="42.972593550744726" lon="-3.849145395817418"><ele>873.0</ele><time>2026-05-02T11:41:20Z</time></trkpt><trkpt lat="42.97249673538551" lon="-3.8491531019505283"><ele>873.0</ele><time>2026-05-02T11:41:21Z</time></trkpt><trkpt lat="42.97239821786715" lon="-3.849160966721753"><ele>873.0</ele><time>2026-05-02T11:41:22Z</time></trkpt><trkpt lat="42.97229825775363" lon="-3.849168946648602"><ele>873.0</ele><time>2026-05-02T11:41:23Z</time></trkpt><trkpt lat="42.972194848799205" lon="-3.8491772019087263"><ele>873.0</ele><time>2026-05-02T11:41:24Z</time></trkpt><trkpt lat="42.972092360580724" lon="-3.849185383664331"><ele>873.0</ele><time>2026-05-02T11:41:25Z</time></trkpt><trkpt lat="42.97199125251518" lon="-3.849193455226544"><ele>873.0</ele><time>2026-05-02T11:41:26Z</time></trkpt><trkpt lat="42.971889162516504" lon="-3.8492008695234845"><ele>873.0</ele><time>2026-05-02T11:41:27Z</time></trkpt><trkpt lat="42.971789120306205" lon="-3.849208058325229"><ele>873.0</ele><time>2026-05-02T11:41:28Z</time></trkpt><trkpt lat="42.97168793881031" lon="-3.8492153289799735"><ele>873.0</ele><time>2026-05-02T11:41:29Z</time></trkpt><trkpt lat="42.97158617064718" lon="-3.849222641791972"><ele>873.0</ele><time>2026-05-02T11:41:30Z</time></trkpt><trkpt lat="42.97148736807584" lon="-3.849229981730458"><ele>872.5999999999999</ele><time>2026-05-02T11:41:31Z</time></trkpt><trkpt lat="42.97138571282501" lon="-3.8492381628835988"><ele>872.1999999999999</ele><time>2026-05-02T11:41:32Z</time></trkpt><trkpt lat="42.97128147101924" lon="-3.8492465522032258"><ele>871.8</ele><time>2026-05-02T11:41:33Z</time></trkpt><trkpt lat="42.97117720506452" lon="-3.849255722506543"><ele>871.4</ele><time>2026-05-02T11:41:34Z</time></trkpt><trkpt lat="42.97107488413291" lon="-3.8492643284630317"><ele>871.0</ele><time>2026-05-02T11:41:35Z</time></trkpt><trkpt lat="42.97097031409129" lon="-3.849273114167704"><ele>871.0</ele><time>2026-05-02T11:41:36Z</time></trkpt><trkpt lat="42.97086633922582" lon="-3.849282325740896"><ele>870.9999999999999</ele><time>2026-05-02T11:41:37Z</time></trkpt><trkpt lat="42.9707626614833" lon="-3.849261667111274"><ele>870.9999999999999</ele><time>2026-05-02T11:41:38Z</time></trkpt><trkpt lat="42.9706596109481" lon="-3.8492766387939055"><ele>871.0</ele><time>2026-05-02T11:41:39Z</time></trkpt><trkpt lat="42.97055700915413" lon="-3.849290177112317"><ele>871.0</ele><time>2026-05-02T11:41:40Z</time></trkpt><trkpt lat="42.97045236967844" lon="-3.8492930771271583"><ele>870.5999999999999</ele><time>2026-05-02T11:41:41Z</time></trkpt><trkpt lat="42.97034968013605" lon="-3.8493253104410416"><ele>870.1999999999999</ele><time>2026-05-02T11:41:42Z</time></trkpt><trkpt lat="42.97024501947245" lon="-3.84932162579547"><ele>869.8000000000001</ele><time>2026-05-02T11:41:43Z</time></trkpt><trkpt lat="42.9701409394646" lon="-3.8493127658566"><ele>869.4000000000001</ele><time>2026-05-02T11:41:44Z</time></trkpt><trkpt lat="42.97003825695531" lon="-3.849301592375255"><ele>869.0</ele><time>2026-05-02T11:41:45Z</time></trkpt><trkpt lat="42.969933166166165" lon="-3.849284225707715"><ele>867.8000000000001</ele><time>2026-05-02T11:41:46Z</time></trkpt><trkpt lat="42.96983101135454" lon="-3.8492651054206024"><ele>866.6000000000001</ele><time>2026-05-02T11:41:47Z</time></trkpt><trkpt lat="42.96972823971149" lon="-3.8492458029248247"><ele>865.4</ele><time>2026-05-02T11:41:48Z</time></trkpt><trkpt lat="42.96962454970731" lon="-3.8492280385090516"><ele>864.2</ele><time>2026-05-02T11:41:49Z</time></trkpt><trkpt lat="42.96951961995916" lon="-3.849210061716716"><ele>863.0</ele><time>2026-05-02T11:41:50Z</time></trkpt><trkpt lat="42.96941377421926" lon="-3.849191927996402"><ele>863.0</ele><time>2026-05-02T11:41:51Z</time></trkpt><trkpt lat="42.96930970048128" lon="-3.849151148240052"><ele>863.0</ele><time>2026-05-02T11:41:52Z</time></trkpt><trkpt lat="42.96920250212956" lon="-3.849132408872882"><ele>863.0</ele><time>2026-05-02T11:41:53Z</time></trkpt><trkpt lat="42.96909426683922" lon="-3.849134716500144"><ele>863.0</ele><time>2026-05-02T11:41:54Z</time></trkpt><trkpt lat="42.96898952261031" lon="-3.8491157513355865"><ele>863.0</ele><time>2026-05-02T11:41:55Z</time></trkpt><trkpt lat="42.968886438966486" lon="-3.84909703524067"><ele>862.2</ele><time>2026-05-02T11:41:56Z</time></trkpt><trkpt lat="42.96878007491089" lon="-3.849077454827766"><ele>861.4</ele><time>2026-05-02T11:41:57.001Z</time></trkpt><trkpt lat="42.968674089644715" lon="-3.849057944140222"><ele>860.6000000000001</ele><time>2026-05-02T11:41:58.001Z</time></trkpt><trkpt lat="42.968568280145014" lon="-3.8490384658092176"><ele>859.8000000000001</ele><time>2026-05-02T11:41:59.001Z</time></trkpt><trkpt lat="42.968461722655626" lon="-3.849018849783305"><ele>859.0</ele><time>2026-05-02T11:42:00.001Z</time></trkpt><trkpt lat="42.96835780649152" lon="-3.84899972000568"><ele>858.4000000000001</ele><time>2026-05-02T11:42:01.001Z</time></trkpt><trkpt lat="42.96825363646389" lon="-3.8489797462609685"><ele>857.8000000000001</ele><time>2026-05-02T11:42:02.001Z</time></trkpt><trkpt lat="42.96814918311073" lon="-3.848958672343696"><ele>857.1999999999999</ele><time>2026-05-02T11:42:03.001Z</time></trkpt><trkpt lat="42.968043863900604" lon="-3.8489372057572186"><ele>856.5999999999999</ele><time>2026-05-02T11:42:04.001Z</time></trkpt><trkpt lat="42.96793748216541" lon="-3.848914228385908"><ele>856.0</ele><time>2026-05-02T11:42:05.001Z</time></trkpt><trkpt lat="42.96783466597744" lon="-3.8488898759325716"><ele>856.0</ele><time>2026-05-02T11:42:06.001Z</time></trkpt><trkpt lat="42.96772968123356" lon="-3.8488631188600166"><ele>855.9999999999999</ele><time>2026-05-02T11:42:07.001Z</time></trkpt><trkpt lat="42.96762687259765" lon="-3.8488345997814477"><ele>855.9999999999999</ele><time>2026-05-02T11:42:08.001Z</time></trkpt><trkpt lat="42.96752283050118" lon="-3.848803141697858"><ele>856.0</ele><time>2026-05-02T11:42:09.001Z</time></trkpt><trkpt lat="42.96742058852065" lon="-3.848770506786893"><ele>856.0</ele><time>2026-05-02T11:42:10.001Z</time></trkpt><trkpt lat="42.967322231870305" lon="-3.848715228792641"><ele>855.4</ele><time>2026-05-02T11:42:11.001Z</time></trkpt><trkpt lat="42.96721825926265" lon="-3.8486832218268328"><ele>854.8</ele><time>2026-05-02T11:42:12.001Z</time></trkpt><trkpt lat="42.96711468692881" lon="-3.8486457899399715"><ele>854.1999999999999</ele><time>2026-05-02T11:42:13.001Z</time></trkpt><trkpt lat="42.96701279287406" lon="-3.848603614647821"><ele>853.5999999999999</ele><time>2026-05-02T11:42:14.001Z</time></trkpt><trkpt lat="42.96691262954084" lon="-3.8485627066791377"><ele>853.0</ele><time>2026-05-02T11:42:15.001Z</time></trkpt><trkpt lat="42.96681016806404" lon="-3.8485221179601146"><ele>853.0</ele><time>2026-05-02T11:42:16.001Z</time></trkpt><trkpt lat="42.96670730248635" lon="-3.8484835638549577"><ele>853.0</ele><time>2026-05-02T11:42:17.001Z</time></trkpt><trkpt lat="42.96660877446425" lon="-3.8484400515969406"><ele>853.0</ele><time>2026-05-02T11:42:18.001Z</time></trkpt><trkpt lat="42.96651133497983" lon="-3.8483957376017615"><ele>853.0</ele><time>2026-05-02T11:42:19.001Z</time></trkpt><trkpt lat="42.96641350226265" lon="-3.848351335621662"><ele>853.0</ele><time>2026-05-02T11:42:20.001Z</time></trkpt><trkpt lat="42.96631587437881" lon="-3.848307282945957"><ele>852.8</ele><time>2026-05-02T11:42:21.001Z</time></trkpt><trkpt lat="42.96621827130311" lon="-3.8482645152068717"><ele>852.5999999999999</ele><time>2026-05-02T11:42:22.001Z</time></trkpt><trkpt lat="42.96612286548326" lon="-3.8482198096800078"><ele>852.4000000000001</ele><time>2026-05-02T11:42:23.001Z</time></trkpt><trkpt lat="42.96602831921812" lon="-3.848178820964386"><ele>852.2</ele><time>2026-05-02T11:42:24.001Z</time></trkpt><trkpt lat="42.96593282060695" lon="-3.8481332615707244"><ele>852.0</ele><time>2026-05-02T11:42:25.001Z</time></trkpt><trkpt lat="42.96583968615772" lon="-3.848096719882804"><ele>853.0</ele><time>2026-05-02T11:42:26.001Z</time></trkpt><trkpt lat="42.9657489893286" lon="-3.848054125990961"><ele>854.0</ele><time>2026-05-02T11:42:27.001Z</time></trkpt><trkpt lat="42.96565875128249" lon="-3.848022731135012"><ele>855.0</ele><time>2026-05-02T11:42:28.001Z</time></trkpt><trkpt lat="42.96557302520383" lon="-3.8479847161315166"><ele>856.0</ele><time>2026-05-02T11:42:29.001Z</time></trkpt><trkpt lat="42.96548791812869" lon="-3.8479473227005765"><ele>857.0</ele><time>2026-05-02T11:42:30.001Z</time></trkpt><trkpt lat="42.965400703104905" lon="-3.8479090805846052"><ele>857.0</ele><time>2026-05-02T11:42:31.001Z</time></trkpt><trkpt lat="42.96531254399539" lon="-3.8478782282353086"><ele>857.0</ele><time>2026-05-02T11:42:32.001Z</time></trkpt><trkpt lat="42.965222434936614" lon="-3.8478735713411485"><ele>857.0</ele><time>2026-05-02T11:42:33.001Z</time></trkpt><trkpt lat="42.96513706497863" lon="-3.8478346278603777"><ele>857.0</ele><time>2026-05-02T11:42:34.001Z</time></trkpt><trkpt lat="42.96504583376497" lon="-3.847815295347186"><ele>857.0</ele><time>2026-05-02T11:42:35.001Z</time></trkpt><trkpt lat="42.96495250213093" lon="-3.847797536832748"><ele>857.8</ele><time>2026-05-02T11:42:36.001Z</time></trkpt><trkpt lat="42.96485950236214" lon="-3.8477744848713655"><ele>858.6</ele><time>2026-05-02T11:42:37.001Z</time></trkpt><trkpt lat="42.96476408357512" lon="-3.8477546612990348"><ele>859.3999999999999</ele><time>2026-05-02T11:42:38.001Z</time></trkpt><trkpt lat="42.96466906076895" lon="-3.847732827945528"><ele>860.1999999999999</ele><time>2026-05-02T11:42:39.001Z</time></trkpt><trkpt lat="42.964571316421306" lon="-3.8477140414024693"><ele>861.0</ele><time>2026-05-02T11:42:40.001Z</time></trkpt><trkpt lat="42.96447187783753" lon="-3.847692172256119"><ele>861.0</ele><time>2026-05-02T11:42:41.001Z</time></trkpt><trkpt lat="42.96437111041329" lon="-3.8476771084579524"><ele>860.9999999999999</ele><time>2026-05-02T11:42:42.001Z</time></trkpt><trkpt lat="42.96426909667412" lon="-3.847660971113846"><ele>860.9999999999999</ele><time>2026-05-02T11:42:43.001Z</time></trkpt><trkpt lat="42.96416534685547" lon="-3.8476449903990297"><ele>861.0</ele><time>2026-05-02T11:42:44.001Z</time></trkpt><trkpt lat="42.964061063246916" lon="-3.847625838258323"><ele>861.0</ele><time>2026-05-02T11:42:45.001Z</time></trkpt><trkpt lat="42.96395847476509" lon="-3.847610072624965"><ele>860.8</ele><time>2026-05-02T11:42:46.001Z</time></trkpt><trkpt lat="42.963852906257785" lon="-3.8476022197636963"><ele>860.5999999999999</ele><time>2026-05-02T11:42:47.001Z</time></trkpt><trkpt lat="42.963742283988154" lon="-3.8476016231860855"><ele>860.4</ele><time>2026-05-02T11:42:48.001Z</time></trkpt><trkpt lat="42.96363454912392" lon="-3.8475962143201667"><ele>860.2</ele><time>2026-05-02T11:42:49Z</time></trkpt><trkpt lat="42.96352622222671" lon="-3.847591632385467"><ele>860.0</ele><time>2026-05-02T11:42:50Z</time></trkpt><trkpt lat="42.96341669788361" lon="-3.8475878079731634"><ele>859.2</ele><time>2026-05-02T11:42:51Z</time></trkpt><trkpt lat="42.96330671035408" lon="-3.847586078638788"><ele>858.4</ele><time>2026-05-02T11:42:52Z</time></trkpt><trkpt lat="42.963199886357295" lon="-3.847582611185978"><ele>857.5999999999999</ele><time>2026-05-02T11:42:53Z</time></trkpt><trkpt lat="42.96309479707334" lon="-3.8475792710893018"><ele>856.8</ele><time>2026-05-02T11:42:54Z</time></trkpt><trkpt lat="42.962990272108506" lon="-3.847575586737827"><ele>856.0</ele><time>2026-05-02T11:42:55Z</time></trkpt><trkpt lat="42.962885115883935" lon="-3.847575960569972"><ele>856.0</ele><time>2026-05-02T11:42:56Z</time></trkpt><trkpt lat="42.96277899112979" lon="-3.84757031125605"><ele>855.9999999999999</ele><time>2026-05-02T11:42:57Z</time></trkpt><trkpt lat="42.96267220776407" lon="-3.8475687133844074"><ele>855.9999999999999</ele><time>2026-05-02T11:42:58Z</time></trkpt><trkpt lat="42.96256481774264" lon="-3.84756555620647"><ele>856.0</ele><time>2026-05-02T11:42:59Z</time></trkpt><trkpt lat="42.96245857745372" lon="-3.8475638780637738"><ele>856.0</ele><time>2026-05-02T11:43:00Z</time></trkpt><trkpt lat="42.96234988074773" lon="-3.847556489735088"><ele>855.0</ele><time>2026-05-02T11:43:01Z</time></trkpt><trkpt lat="42.96224255334216" lon="-3.8475549713696444"><ele>853.9999999999999</ele><time>2026-05-02T11:43:02Z</time></trkpt><trkpt lat="42.96213589033749" lon="-3.847555619192559"><ele>853.0</ele><time>2026-05-02T11:43:03Z</time></trkpt><trkpt lat="42.96202809092435" lon="-3.8475554030215546"><ele>852.0</ele><time>2026-05-02T11:43:04Z</time></trkpt><trkpt lat="42.96191926272862" lon="-3.8475433105453587"><ele>851.0</ele><time>2026-05-02T11:43:05Z</time></trkpt><trkpt lat="42.96181698752886" lon="-3.847553999615751"><ele>851.0000000000001</ele><time>2026-05-02T11:43:06Z</time></trkpt><trkpt lat="42.96173756670466" lon="-3.8475775421137914"><ele>851.0</ele><time>2026-05-02T11:43:07Z</time></trkpt><trkpt lat="42.9616689530996" lon="-3.8475732498963993"><ele>851.0</ele><time>2026-05-02T11:43:08Z</time></trkpt><trkpt lat="42.961605626382095" lon="-3.847567028442857"><ele>851.0</ele><time>2026-05-02T11:43:09Z</time></trkpt><trkpt lat="42.9614975069553" lon="-3.847574950274296"><ele>851.0000000000001</ele><time>2026-05-02T11:43:11Z</time></trkpt><trkpt lat="42.96140654637463" lon="-3.8475854532241818"><ele>851.0</ele><time>2026-05-02T11:43:13Z</time></trkpt><trkpt lat="42.96120586114462" lon="-3.8475686641417024"><ele>851.0</ele><time>2026-05-02T11:43:15Z</time></trkpt><trkpt lat="42.961018386683875" lon="-3.847547774998112"><ele>851.0</ele><time>2026-05-02T11:43:16Z</time></trkpt><trkpt lat="42.960875208740845" lon="-3.847532681410221"><ele>851.0</ele><time>2026-05-02T11:43:17Z</time></trkpt><trkpt lat="42.960753663250024" lon="-3.847520881630561"><ele>851.0</ele><time>2026-05-02T11:43:18Z</time></trkpt><trkpt lat="42.96063887690572" lon="-3.8475018879329834"><ele>851.0</ele><time>2026-05-02T11:43:19Z</time></trkpt><trkpt lat="42.960520918792845" lon="-3.8474858968224104"><ele>851.0</ele><time>2026-05-02T11:43:20Z</time></trkpt><trkpt lat="42.960406837020756" lon="-3.847474464501765"><ele>851.0</ele><time>2026-05-02T11:43:21Z</time></trkpt><trkpt lat="42.96030035502015" lon="-3.8474582527865095"><ele>851.0</ele><time>2026-05-02T11:43:22Z</time></trkpt><trkpt lat="42.960198866775904" lon="-3.84745327092192"><ele>851.0</ele><time>2026-05-02T11:43:23Z</time></trkpt><trkpt lat="42.96010118515524" lon="-3.8474330782623887"><ele>851.0</ele><time>2026-05-02T11:43:24Z</time></trkpt><trkpt lat="42.960005486412925" lon="-3.8474130454966113"><ele>851.0</ele><time>2026-05-02T11:43:25Z</time></trkpt><trkpt lat="42.95991203745568" lon="-3.8474002823462667"><ele>851.0</ele><time>2026-05-02T11:43:26Z</time></trkpt><trkpt lat="42.95981819093106" lon="-3.8473826726342977"><ele>852.8</ele><time>2026-05-02T11:43:27Z</time></trkpt><trkpt lat="42.95972674733586" lon="-3.8473699996469484"><ele>854.5999999999999</ele><time>2026-05-02T11:43:28Z</time></trkpt><trkpt lat="42.95963609097698" lon="-3.8473524487708084"><ele>856.4</ele><time>2026-05-02T11:43:29Z</time></trkpt><trkpt lat="42.95954548823168" lon="-3.847330041871735"><ele>858.2</ele><time>2026-05-02T11:43:30Z</time></trkpt><trkpt lat="42.95945632457653" lon="-3.847305453728445"><ele>860.0</ele><time>2026-05-02T11:43:31Z</time></trkpt><trkpt lat="42.9593703328937" lon="-3.8472767994468455"><ele>860.0000000000001</ele><time>2026-05-02T11:43:32Z</time></trkpt><trkpt lat="42.959286577463395" lon="-3.847248230001283"><ele>860.0</ele><time>2026-05-02T11:43:33Z</time></trkpt><trkpt lat="42.959197604019515" lon="-3.8472378549424016"><ele>860.0</ele><time>2026-05-02T11:43:34Z</time></trkpt><trkpt lat="42.95911452596525" lon="-3.8472027295269746"><ele>860.0</ele><time>2026-05-02T11:43:35Z</time></trkpt><trkpt lat="42.95903420247414" lon="-3.8471486513579363"><ele>860.0000000000001</ele><time>2026-05-02T11:43:36Z</time></trkpt><trkpt lat="42.958945631232126" lon="-3.8471208423247947"><ele>860.0</ele><time>2026-05-02T11:43:37Z</time></trkpt><trkpt lat="42.95885878686011" lon="-3.847083589196524"><ele>861.0000000000001</ele><time>2026-05-02T11:43:38Z</time></trkpt><trkpt lat="42.95877315666077" lon="-3.8470445194593053"><ele>862.0</ele><time>2026-05-02T11:43:39Z</time></trkpt><trkpt lat="42.95869067517037" lon="-3.847002881864638"><ele>863.0</ele><time>2026-05-02T11:43:40Z</time></trkpt><trkpt lat="42.958607150626115" lon="-3.8469645554287295"><ele>864.0</ele><time>2026-05-02T11:43:41Z</time></trkpt><trkpt lat="42.95852507040053" lon="-3.846926648524194"><ele>865.0000000000001</ele><time>2026-05-02T11:43:42Z</time></trkpt><trkpt lat="42.958443399111275" lon="-3.846890023536366"><ele>866.0</ele><time>2026-05-02T11:43:43Z</time></trkpt><trkpt lat="42.95836174420608" lon="-3.8468524220415077"><ele>867.1666666666667</ele><time>2026-05-02T11:43:44Z</time></trkpt><trkpt lat="42.958282653577726" lon="-3.846817482512438"><ele>868.3333333333334</ele><time>2026-05-02T11:43:45Z</time></trkpt><trkpt lat="42.95820195786604" lon="-3.846777846505508"><ele>869.5</ele><time>2026-05-02T11:43:46Z</time></trkpt><trkpt lat="42.9581212786718" lon="-3.846737838323659"><ele>870.6666666666667</ele><time>2026-05-02T11:43:47Z</time></trkpt><trkpt lat="42.9580427662613" lon="-3.8466995903636585"><ele>871.8333333333334</ele><time>2026-05-02T11:43:48Z</time></trkpt><trkpt lat="42.957963676147024" lon="-3.8466602572192854"><ele>873.0</ele><time>2026-05-02T11:43:49Z</time></trkpt><trkpt lat="42.95788400717371" lon="-3.846621973181101"><ele>873.0</ele><time>2026-05-02T11:43:50Z</time></trkpt><trkpt lat="42.957804804066036" lon="-3.8465840033824708"><ele>873.0</ele><time>2026-05-02T11:43:51Z</time></trkpt><trkpt lat="42.95772423578183" lon="-3.8465536791637085"><ele>873.0</ele><time>2026-05-02T11:43:52Z</time></trkpt><trkpt lat="42.95764302601436" lon="-3.8465246017170083"><ele>873.0</ele><time>2026-05-02T11:43:53Z</time></trkpt><trkpt lat="42.95756177254548" lon="-3.846492585185067"><ele>873.0</ele><time>2026-05-02T11:43:54Z</time></trkpt><trkpt lat="42.95747995471381" lon="-3.846457487434002"><ele>873.0</ele><time>2026-05-02T11:43:55Z</time></trkpt><trkpt lat="42.9573961542021" lon="-3.8464273149996973"><ele>874.6666666666666</ele><time>2026-05-02T11:43:56Z</time></trkpt><trkpt lat="42.957313386812324" lon="-3.8463976920978564"><ele>876.3333333333333</ele><time>2026-05-02T11:43:57Z</time></trkpt><trkpt lat="42.957226699750954" lon="-3.8463703899457005"><ele>878.0</ele><time>2026-05-02T11:43:58Z</time></trkpt><trkpt lat="42.95713857810682" lon="-3.8463424525681593"><ele>879.6666666666666</ele><time>2026-05-02T11:43:59Z</time></trkpt><trkpt lat="42.95704984768173" lon="-3.846318512781837"><ele>881.3333333333333</ele><time>2026-05-02T11:44:00Z</time></trkpt><trkpt lat="42.95695962545717" lon="-3.846299411340481"><ele>883.0</ele><time>2026-05-02T11:44:01Z</time></trkpt><trkpt lat="42.95687117519593" lon="-3.84628077398547"><ele>883.0</ele><time>2026-05-02T11:44:02Z</time></trkpt><trkpt lat="42.95678307331378" lon="-3.846265405663388"><ele>883.0</ele><time>2026-05-02T11:44:03Z</time></trkpt><trkpt lat="42.95669558337656" lon="-3.8462583264646337"><ele>883.0</ele><time>2026-05-02T11:44:04Z</time></trkpt><trkpt lat="42.9565979055752" lon="-3.8462483233337315"><ele>883.0</ele><time>2026-05-02T11:44:05.001Z</time></trkpt><trkpt lat="42.95650153884744" lon="-3.84624319852116"><ele>883.0</ele><time>2026-05-02T11:44:06.001Z</time></trkpt><trkpt lat="42.956403306618256" lon="-3.846244940098234"><ele>884.0</ele><time>2026-05-02T11:44:07.001Z</time></trkpt><trkpt lat="42.95630212615614" lon="-3.8462361842016555"><ele>885.0</ele><time>2026-05-02T11:44:08.001Z</time></trkpt><trkpt lat="42.956204617493874" lon="-3.846237397511482"><ele>886.0</ele><time>2026-05-02T11:44:09.001Z</time></trkpt><trkpt lat="42.95610466173694" lon="-3.8462420113646987"><ele>887.0</ele><time>2026-05-02T11:44:10.001Z</time></trkpt><trkpt lat="42.95600590848608" lon="-3.846246476609156"><ele>888.0</ele><time>2026-05-02T11:44:11.001Z</time></trkpt><trkpt lat="42.95590706273176" lon="-3.84625524502903"><ele>887.4</ele><time>2026-05-02T11:44:12.001Z</time></trkpt><trkpt lat="42.95580619315088" lon="-3.846263422518844"><ele>886.8</ele><time>2026-05-02T11:44:13.001Z</time></trkpt><trkpt lat="42.95570475516348" lon="-3.8462738930162295"><ele>886.2</ele><time>2026-05-02T11:44:14.001Z</time></trkpt><trkpt lat="42.95560487626354" lon="-3.846279476296537"><ele>885.6</ele><time>2026-05-02T11:44:15.001Z</time></trkpt><trkpt lat="42.95550830904394" lon="-3.8462854656540095"><ele>885.0</ele><time>2026-05-02T11:44:16.001Z</time></trkpt><trkpt lat="42.95541093134905" lon="-3.846291483686067"><ele>885.0</ele><time>2026-05-02T11:44:17.001Z</time></trkpt><trkpt lat="42.95530855579022" lon="-3.8462942238573903"><ele>885.0</ele><time>2026-05-02T11:44:18.001Z</time></trkpt><trkpt lat="42.95520986695117" lon="-3.8462989117490545"><ele>885.0</ele><time>2026-05-02T11:44:19.001Z</time></trkpt><trkpt lat="42.95510632215152" lon="-3.846302422523475"><ele>885.0</ele><time>2026-05-02T11:44:20.001Z</time></trkpt><trkpt lat="42.955004237709176" lon="-3.8463105624784313"><ele>885.0</ele><time>2026-05-02T11:44:21.001Z</time></trkpt><trkpt lat="42.954905426888644" lon="-3.8463208893775724"><ele>886.2</ele><time>2026-05-02T11:44:22.001Z</time></trkpt><trkpt lat="42.95480606134359" lon="-3.8463267210669247"><ele>887.4</ele><time>2026-05-02T11:44:23.001Z</time></trkpt><trkpt lat="42.9547052931528" lon="-3.8463332855287575"><ele>888.5999999999999</ele><time>2026-05-02T11:44:24.001Z</time></trkpt><trkpt lat="42.95460645733322" lon="-3.8463456919759103"><ele>889.8</ele><time>2026-05-02T11:44:25.001Z</time></trkpt><trkpt lat="42.95450680910894" lon="-3.8463524422779276"><ele>891.0</ele><time>2026-05-02T11:44:26.001Z</time></trkpt><trkpt lat="42.95440483945193" lon="-3.846361259014525"><ele>891.0</ele><time>2026-05-02T11:44:27.001Z</time></trkpt><trkpt lat="42.95430301176008" lon="-3.8463670665364718"><ele>890.9999999999999</ele><time>2026-05-02T11:44:28.001Z</time></trkpt><trkpt lat="42.954200777427" lon="-3.846371138790811"><ele>890.9999999999999</ele><time>2026-05-02T11:44:29.001Z</time></trkpt><trkpt lat="42.954095901791916" lon="-3.8463736956420127"><ele>891.0</ele><time>2026-05-02T11:44:30.001Z</time></trkpt><trkpt lat="42.953996989778695" lon="-3.8463781847595206"><ele>891.0</ele><time>2026-05-02T11:44:31.001Z</time></trkpt><trkpt lat="42.953896627902544" lon="-3.8463764682068504"><ele>891.5999999999999</ele><time>2026-05-02T11:44:32.001Z</time></trkpt><trkpt lat="42.953792790054806" lon="-3.84636764418204"><ele>892.1999999999999</ele><time>2026-05-02T11:44:33.001Z</time></trkpt><trkpt lat="42.95369286790829" lon="-3.846359960897373"><ele>892.8000000000001</ele><time>2026-05-02T11:44:34.001Z</time></trkpt><trkpt lat="42.953594309256616" lon="-3.8463494698076803"><ele>893.4000000000001</ele><time>2026-05-02T11:44:35.001Z</time></trkpt><trkpt lat="42.95349414141122" lon="-3.846334325018739"><ele>894.0</ele><time>2026-05-02T11:44:36.001Z</time></trkpt><trkpt lat="42.95339189962538" lon="-3.8463146607553216"><ele>893.6</ele><time>2026-05-02T11:44:37.001Z</time></trkpt><trkpt lat="42.953292709362366" lon="-3.846290664805393"><ele>893.2</ele><time>2026-05-02T11:44:38.001Z</time></trkpt><trkpt lat="42.95319187500383" lon="-3.846265654769774"><ele>892.8000000000001</ele><time>2026-05-02T11:44:39.001Z</time></trkpt><trkpt lat="42.95309478838355" lon="-3.8462357778170646"><ele>892.4000000000001</ele><time>2026-05-02T11:44:40.001Z</time></trkpt><trkpt lat="42.95300065775578" lon="-3.846202735234408"><ele>892.0</ele><time>2026-05-02T11:44:41.001Z</time></trkpt><trkpt lat="42.952904294320746" lon="-3.846170287296009"><ele>892.0</ele><time>2026-05-02T11:44:42.001Z</time></trkpt><trkpt lat="42.952808503087894" lon="-3.846133635773482"><ele>892.0</ele><time>2026-05-02T11:44:43.001Z</time></trkpt><trkpt lat="42.95271384543649" lon="-3.8460952174533096"><ele>892.0</ele><time>2026-05-02T11:44:44.001Z</time></trkpt><trkpt lat="42.95262521153858" lon="-3.846058282377901"><ele>892.0</ele><time>2026-05-02T11:44:45.001Z</time></trkpt><trkpt lat="42.9525360960109" lon="-3.846013643039815"><ele>892.0</ele><time>2026-05-02T11:44:46.001Z</time></trkpt><trkpt lat="42.952444962938564" lon="-3.845959121268914"><ele>892.6</ele><time>2026-05-02T11:44:47.001Z</time></trkpt><trkpt lat="42.95235455058114" lon="-3.845907820861766"><ele>893.2</ele><time>2026-05-02T11:44:48.001Z</time></trkpt><trkpt lat="42.952265878344164" lon="-3.845857404571243"><ele>893.8</ele><time>2026-05-02T11:44:49.001Z</time></trkpt><trkpt lat="42.952181016636644" lon="-3.845808591440849"><ele>894.4</ele><time>2026-05-02T11:44:50.001Z</time></trkpt><trkpt lat="42.952097821764404" lon="-3.8457512002637686"><ele>895.0</ele><time>2026-05-02T11:44:51.001Z</time></trkpt><trkpt lat="42.952014703677015" lon="-3.8456936046332064"><ele>895.0</ele><time>2026-05-02T11:44:52.001Z</time></trkpt><trkpt lat="42.95193423396549" lon="-3.8456306229623283"><ele>895.0</ele><time>2026-05-02T11:44:53.001Z</time></trkpt><trkpt lat="42.951852851855534" lon="-3.8455685688721353"><ele>895.0</ele><time>2026-05-02T11:44:54.001Z</time></trkpt><trkpt lat="42.95177107615502" lon="-3.8455052693809146"><ele>895.0</ele><time>2026-05-02T11:44:55Z</time></trkpt><trkpt lat="42.95169231988255" lon="-3.8454383672385823"><ele>895.0</ele><time>2026-05-02T11:44:56Z</time></trkpt><trkpt lat="42.95161434615435" lon="-3.845370386976031"><ele>896.6</ele><time>2026-05-02T11:44:57Z</time></trkpt><trkpt lat="42.951533376240754" lon="-3.8453005706714793"><ele>898.2</ele><time>2026-05-02T11:44:58Z</time></trkpt><trkpt lat="42.95145528241266" lon="-3.8452340542423538"><ele>899.8</ele><time>2026-05-02T11:44:59Z</time></trkpt><trkpt lat="42.95137523456926" lon="-3.8451601255233916"><ele>901.4</ele><time>2026-05-02T11:45:00Z</time></trkpt><trkpt lat="42.95129543357894" lon="-3.8450914780654815"><ele>903.0</ele><time>2026-05-02T11:45:01Z</time></trkpt><trkpt lat="42.951214729924786" lon="-3.8450252505277085"><ele>903.0</ele><time>2026-05-02T11:45:02Z</time></trkpt><trkpt lat="42.95113551854189" lon="-3.8449620062152063"><ele>903.0</ele><time>2026-05-02T11:45:03Z</time></trkpt><trkpt lat="42.95105537144504" lon="-3.8448979794927545"><ele>903.0</ele><time>2026-05-02T11:45:04Z</time></trkpt><trkpt lat="42.950973593320285" lon="-3.8448291892216635"><ele>903.0</ele><time>2026-05-02T11:45:05Z</time></trkpt><trkpt lat="42.950890689872914" lon="-3.844762915387788"><ele>903.0</ele><time>2026-05-02T11:45:06Z</time></trkpt><trkpt lat="42.95080855269042" lon="-3.844694728241297"><ele>905.2</ele><time>2026-05-02T11:45:07Z</time></trkpt><trkpt lat="42.950724452901625" lon="-3.8446285621577676"><ele>907.4</ele><time>2026-05-02T11:45:08Z</time></trkpt><trkpt lat="42.95064441169217" lon="-3.844558622389002"><ele>909.6000000000001</ele><time>2026-05-02T11:45:09Z</time></trkpt><trkpt lat="42.95056637492168" lon="-3.844491566810472"><ele>911.8000000000001</ele><time>2026-05-02T11:45:10Z</time></trkpt><trkpt lat="42.95048504308184" lon="-3.844421425424499"><ele>914.0</ele><time>2026-05-02T11:45:11Z</time></trkpt><trkpt lat="42.95040328779163" lon="-3.8443512258202355"><ele>911.8000000000001</ele><time>2026-05-02T11:45:12Z</time></trkpt><trkpt lat="42.9503232711861" lon="-3.844282609601141"><ele>909.6000000000001</ele><time>2026-05-02T11:45:13Z</time></trkpt><trkpt lat="42.95024392308421" lon="-3.844214815758627"><ele>907.4</ele><time>2026-05-02T11:45:14Z</time></trkpt><trkpt lat="42.95016493764214" lon="-3.844145459317522"><ele>905.2</ele><time>2026-05-02T11:45:15Z</time></trkpt><trkpt lat="42.9500840238667" lon="-3.8440752285095585"><ele>903.0</ele><time>2026-05-02T11:45:16Z</time></trkpt><trkpt lat="42.95000373192213" lon="-3.844006294628176"><ele>907.4</ele><time>2026-05-02T11:45:17Z</time></trkpt><trkpt lat="42.94992802318955" lon="-3.8439279243570743"><ele>911.8</ele><time>2026-05-02T11:45:18Z</time></trkpt><trkpt lat="42.949852249704286" lon="-3.8438451090787185"><ele>916.2</ele><time>2026-05-02T11:45:19Z</time></trkpt><trkpt lat="42.9497538966165" lon="-3.843764543557513"><ele>920.6</ele><time>2026-05-02T11:45:20Z</time></trkpt><trkpt lat="42.94968627270509" lon="-3.843654947331817"><ele>925.0</ele><time>2026-05-02T11:45:21Z</time></trkpt><trkpt lat="42.94962153579645" lon="-3.8435415331124587"><ele>921.6</ele><time>2026-05-02T11:45:22Z</time></trkpt><trkpt lat="42.94955918085176" lon="-3.8434329014568247"><ele>918.2</ele><time>2026-05-02T11:45:23Z</time></trkpt><trkpt lat="42.94949869071305" lon="-3.843328039448952"><ele>914.8</ele><time>2026-05-02T11:45:24Z</time></trkpt><trkpt lat="42.949456162690026" lon="-3.843254315537735"><ele>911.4</ele><time>2026-05-02T11:45:25Z</time></trkpt><trkpt lat="42.94939981690567" lon="-3.843156784291268"><ele>908.0</ele><time>2026-05-02T11:45:26Z</time></trkpt><trkpt lat="42.949330379895756" lon="-3.8430695902382945"><ele>908.0</ele><time>2026-05-02T11:45:27Z</time></trkpt><trkpt lat="42.94928027062593" lon="-3.84296667199626"><ele>908.0</ele><time>2026-05-02T11:45:28Z</time></trkpt><trkpt lat="42.9492384239856" lon="-3.842855187524579"><ele>908.0</ele><time>2026-05-02T11:45:29Z</time></trkpt><trkpt lat="42.949217324625614" lon="-3.842735414031251"><ele>908.0</ele><time>2026-05-02T11:45:30Z</time></trkpt><trkpt lat="42.9491484508649" lon="-3.8426095893235095"><ele>908.0</ele><time>2026-05-02T11:45:32Z</time></trkpt><trkpt lat="42.9492617494064" lon="-3.8423775843041064"><ele>906.4</ele><time>2026-05-02T11:45:33Z</time></trkpt><trkpt lat="42.94928865268391" lon="-3.8422658828498983"><ele>904.8</ele><time>2026-05-02T11:45:34Z</time></trkpt><trkpt lat="42.94931562320753" lon="-3.842145392269996"><ele>903.2</ele><time>2026-05-02T11:45:35Z</time></trkpt><trkpt lat="42.94930433708814" lon="-3.842031169475306"><ele>901.6</ele><time>2026-05-02T11:45:36Z</time></trkpt><trkpt lat="42.94929708459638" lon="-3.841905114868632"><ele>900.0</ele><time>2026-05-02T11:45:37Z</time></trkpt><trkpt lat="42.94922705244468" lon="-3.8418062038642753"><ele>901.6</ele><time>2026-05-02T11:45:38Z</time></trkpt><trkpt lat="42.949086785817855" lon="-3.841768811029734"><ele>903.2</ele><time>2026-05-02T11:45:39Z</time></trkpt><trkpt lat="42.94900954385485" lon="-3.841689563210854"><ele>904.8</ele><time>2026-05-02T11:45:40Z</time></trkpt><trkpt lat="42.948949407489806" lon="-3.84160063811717"><ele>906.4</ele><time>2026-05-02T11:45:41Z</time></trkpt><trkpt lat="42.948885601094574" lon="-3.8415133053092796"><ele>908.0</ele><time>2026-05-02T11:45:42Z</time></trkpt><trkpt lat="42.948816112637424" lon="-3.841429180726995"><ele>908.0</ele><time>2026-05-02T11:45:43Z</time></trkpt><trkpt lat="42.948745472763186" lon="-3.8413439133857197"><ele>908.0</ele><time>2026-05-02T11:45:44Z</time></trkpt><trkpt lat="42.948669505904995" lon="-3.8412657876334224"><ele>908.0</ele><time>2026-05-02T11:45:45Z</time></trkpt><trkpt lat="42.94856352371763" lon="-3.8412059396996043"><ele>908.0</ele><time>2026-05-02T11:45:46Z</time></trkpt><trkpt lat="42.94846935401804" lon="-3.8411359733165913"><ele>908.0</ele><time>2026-05-02T11:45:47Z</time></trkpt><trkpt lat="42.948391961394236" lon="-3.841058787332499"><ele>910.6666666666667</ele><time>2026-05-02T11:45:48Z</time></trkpt><trkpt lat="42.94830552164817" lon="-3.84098948227202"><ele>913.3333333333333</ele><time>2026-05-02T11:45:49Z</time></trkpt><trkpt lat="42.94822470002096" lon="-3.840913127641162"><ele>916.0</ele><time>2026-05-02T11:45:50Z</time></trkpt><trkpt lat="42.947956077146465" lon="-3.8410401302427353"><ele>916.0</ele><time>2026-05-02T11:45:51Z</time></trkpt><trkpt lat="42.94789444187272" lon="-3.840935247035696"><ele>915.9999999999999</ele><time>2026-05-02T11:45:52Z</time></trkpt><trkpt lat="42.94783331771882" lon="-3.8408249768586353"><ele>915.9999999999999</ele><time>2026-05-02T11:45:53Z</time></trkpt><trkpt lat="42.94778102353839" lon="-3.8407271855422187"><ele>916.0</ele><time>2026-05-02T11:45:54Z</time></trkpt><trkpt lat="42.94772324805425" lon="-3.8406074435898527"><ele>916.0</ele><time>2026-05-02T11:45:55Z</time></trkpt><trkpt lat="42.94767240323253" lon="-3.8404819449393313"><ele>915.9999999999999</ele><time>2026-05-02T11:45:56Z</time></trkpt><trkpt lat="42.94763234343218" lon="-3.840364870963872"><ele>916.0</ele><time>2026-05-02T11:45:57Z</time></trkpt><trkpt lat="42.947597959480156" lon="-3.840248992259641"><ele>916.0</ele><time>2026-05-02T11:45:58Z</time></trkpt><trkpt lat="42.94756654901723" lon="-3.840141314349817"><ele>916.0</ele><time>2026-05-02T11:45:59Z</time></trkpt><trkpt lat="42.94753349030366" lon="-3.8400352015495693"><ele>915.9999999999999</ele><time>2026-05-02T11:46:00Z</time></trkpt><trkpt lat="42.94750141937919" lon="-3.8399412636429138"><ele>916.0</ele><time>2026-05-02T11:46:01Z</time></trkpt><trkpt lat="42.947470312014794" lon="-3.83986535024681"><ele>919.9999999999999</ele><time>2026-05-02T11:46:02Z</time></trkpt><trkpt lat="42.947407256273316" lon="-3.839733346336618"><ele>924.0</ele><time>2026-05-02T11:46:04Z</time></trkpt><trkpt lat="42.94735344395069" lon="-3.8396421391466764"><ele>928.0</ele><time>2026-05-02T11:46:06Z</time></trkpt><trkpt lat="42.947304245568986" lon="-3.8395658130381225"><ele>932.0</ele><time>2026-05-02T11:46:08Z</time></trkpt><trkpt lat="42.947255252127874" lon="-3.839495457260901"><ele>935.9999999999999</ele><time>2026-05-02T11:46:10Z</time></trkpt><trkpt lat="42.94717885746691" lon="-3.8394049567896262"><ele>940.0</ele><time>2026-05-02T11:46:12Z</time></trkpt><trkpt lat="42.947078047387606" lon="-3.8393247809837328"><ele>944.3333333333333</ele><time>2026-05-02T11:46:13Z</time></trkpt><trkpt lat="42.94689296904183" lon="-3.839225160802423"><ele>948.6666666666667</ele><time>2026-05-02T11:46:14Z</time></trkpt><trkpt lat="42.94676614534463" lon="-3.83917061941235"><ele>953.0</ele><time>2026-05-02T11:46:15Z</time></trkpt><trkpt lat="42.946636950169136" lon="-3.839087354678862"><ele>953.0</ele><time>2026-05-02T11:46:16Z</time></trkpt><trkpt lat="42.9465075112489" lon="-3.8389321826670537"><ele>953.0</ele><time>2026-05-02T11:46:17.001Z</time></trkpt><trkpt lat="42.94641945799003" lon="-3.838749149137517"><ele>953.0</ele><time>2026-05-02T11:46:18.001Z</time></trkpt><trkpt lat="42.94636418382014" lon="-3.8386046722860776"><ele>953.0000000000001</ele><time>2026-05-02T11:46:19.001Z</time></trkpt><trkpt lat="42.94632115363481" lon="-3.8384920445574915"><ele>953.0</ele><time>2026-05-02T11:46:20.001Z</time></trkpt><trkpt lat="42.946271767775" lon="-3.8383801184201243"><ele>953.0</ele><time>2026-05-02T11:46:21.001Z</time></trkpt><trkpt lat="42.94622207020793" lon="-3.838292386040794"><ele>953.0</ele><time>2026-05-02T11:46:22.001Z</time></trkpt><trkpt lat="42.94616400609424" lon="-3.8382015268910985"><ele>953.0000000000001</ele><time>2026-05-02T11:46:23.001Z</time></trkpt><trkpt lat="42.94610851142368" lon="-3.838120474033404"><ele>953.0</ele><time>2026-05-02T11:46:24.001Z</time></trkpt><trkpt lat="42.946042352587455" lon="-3.8380341583876008"><ele>955.5999999999999</ele><time>2026-05-02T11:46:25.001Z</time></trkpt><trkpt lat="42.945972610559124" lon="-3.837953486370083"><ele>958.1999999999999</ele><time>2026-05-02T11:46:26.001Z</time></trkpt><trkpt lat="42.9458965931853" lon="-3.837878828673616"><ele>960.8</ele><time>2026-05-02T11:46:27.001Z</time></trkpt><trkpt lat="42.94582496286848" lon="-3.837800815330466"><ele>963.4</ele><time>2026-05-02T11:46:28.001Z</time></trkpt><trkpt lat="42.945738092231885" lon="-3.83776079636645"><ele>966.0</ele><time>2026-05-02T11:46:29.001Z</time></trkpt><trkpt lat="42.945640042666476" lon="-3.837742948199287"><ele>966.0</ele><time>2026-05-02T11:46:30.001Z</time></trkpt><trkpt lat="42.94554848547774" lon="-3.837734077881381"><ele>966.0</ele><time>2026-05-02T11:46:31.001Z</time></trkpt><trkpt lat="42.9454601541412" lon="-3.8377329577642048"><ele>966.0</ele><time>2026-05-02T11:46:32.001Z</time></trkpt><trkpt lat="42.94537527070115" lon="-3.8377303800773066"><ele>966.0</ele><time>2026-05-02T11:46:33.001Z</time></trkpt><trkpt lat="42.94529632351263" lon="-3.8377109958565283"><ele>966.0</ele><time>2026-05-02T11:46:34.001Z</time></trkpt><trkpt lat="42.94522234233282" lon="-3.837684249152771"><ele>966.0</ele><time>2026-05-02T11:46:35.001Z</time></trkpt><trkpt lat="42.945144493160235" lon="-3.8376347592554514"><ele>966.0</ele><time>2026-05-02T11:46:36.001Z</time></trkpt><trkpt lat="42.94506837063975" lon="-3.8375772897035487"><ele>966.0</ele><time>2026-05-02T11:46:37.001Z</time></trkpt><trkpt lat="42.944995362728626" lon="-3.837510105232232"><ele>966.0</ele><time>2026-05-02T11:46:38.001Z</time></trkpt><trkpt lat="42.94493083513218" lon="-3.8374425818593894"><ele>966.0</ele><time>2026-05-02T11:46:39.001Z</time></trkpt><trkpt lat="42.944855637662705" lon="-3.8373915464223822"><ele>966.0</ele><time>2026-05-02T11:46:40.001Z</time></trkpt><trkpt lat="42.94478929313719" lon="-3.837304433037384"><ele>966.0</ele><time>2026-05-02T11:46:41.001Z</time></trkpt><trkpt lat="42.94474252260613" lon="-3.8371991685997986"><ele>966.0</ele><time>2026-05-02T11:46:42.001Z</time></trkpt><trkpt lat="42.94472957623066" lon="-3.8370717093055386"><ele>965.9999999999999</ele><time>2026-05-02T11:46:43.001Z</time></trkpt><trkpt lat="42.94474287135248" lon="-3.836969316730415"><ele>965.9999999999999</ele><time>2026-05-02T11:46:44.001Z</time></trkpt><trkpt lat="42.944762734018354" lon="-3.8368744022687773"><ele>966.0</ele><time>2026-05-02T11:46:45.001Z</time></trkpt><trkpt lat="42.94480279762609" lon="-3.8366959847846633"><ele>966.0</ele><time>2026-05-02T11:46:46.001Z</time></trkpt><trkpt lat="42.94481967948118" lon="-3.836571946678788"><ele>964.3333333333334</ele><time>2026-05-02T11:46:47.001Z</time></trkpt><trkpt lat="42.944822449586084" lon="-3.836451421018922"><ele>962.6666666666667</ele><time>2026-05-02T11:46:48.001Z</time></trkpt><trkpt lat="42.944811173983474" lon="-3.8363397762824865"><ele>961.0</ele><time>2026-05-02T11:46:49.001Z</time></trkpt><trkpt lat="42.9447870774519" lon="-3.83622601076761"><ele>959.3333333333334</ele><time>2026-05-02T11:46:50.001Z</time></trkpt><trkpt lat="42.94476200717859" lon="-3.836105151103696"><ele>957.6666666666667</ele><time>2026-05-02T11:46:51.001Z</time></trkpt><trkpt lat="42.944717220090986" lon="-3.836005150174461"><ele>956.0</ele><time>2026-05-02T11:46:52.001Z</time></trkpt><trkpt lat="42.94466704368273" lon="-3.8359050632655856"><ele>955.6666666666667</ele><time>2026-05-02T11:46:53.001Z</time></trkpt><trkpt lat="42.94461635266835" lon="-3.835811614918828"><ele>955.3333333333334</ele><time>2026-05-02T11:46:54.001Z</time></trkpt><trkpt lat="42.94456795843023" lon="-3.8357120776710136"><ele>955.0</ele><time>2026-05-02T11:46:55.001Z</time></trkpt><trkpt lat="42.9445194993297" lon="-3.8356109252660984"><ele>954.6666666666667</ele><time>2026-05-02T11:46:56.001Z</time></trkpt><trkpt lat="42.94446314429316" lon="-3.835515059373903"><ele>954.3333333333334</ele><time>2026-05-02T11:46:57.001Z</time></trkpt><trkpt lat="42.9444092556599" lon="-3.8354249457122043"><ele>954.0</ele><time>2026-05-02T11:46:58.001Z</time></trkpt><trkpt lat="42.944349933949134" lon="-3.8353364844198876"><ele>954.0</ele><time>2026-05-02T11:46:59.001Z</time></trkpt><trkpt lat="42.94428829577847" lon="-3.835252722537889"><ele>954.0</ele><time>2026-05-02T11:47:00.001Z</time></trkpt><trkpt lat="42.94422652047494" lon="-3.8351710448112883"><ele>954.0</ele><time>2026-05-02T11:47:01Z</time></trkpt><trkpt lat="42.94416443399561" lon="-3.8350895247331644"><ele>954.0</ele><time>2026-05-02T11:47:02Z</time></trkpt><trkpt lat="42.94409850035847" lon="-3.8350087986893056"><ele>954.0</ele><time>2026-05-02T11:47:03Z</time></trkpt><trkpt lat="42.94403745234454" lon="-3.8349250067546348"><ele>954.0</ele><time>2026-05-02T11:47:04Z</time></trkpt><trkpt lat="42.943971192675434" lon="-3.8348445603118937"><ele>956.3333333333334</ele><time>2026-05-02T11:47:05Z</time></trkpt><trkpt lat="42.94390792456606" lon="-3.8347645704606075"><ele>958.6666666666667</ele><time>2026-05-02T11:47:06Z</time></trkpt><trkpt lat="42.943841027255736" lon="-3.834690218236746"><ele>961.0</ele><time>2026-05-02T11:47:07Z</time></trkpt><trkpt lat="42.94377014272489" lon="-3.8346184152883187"><ele>963.3333333333334</ele><time>2026-05-02T11:47:08Z</time></trkpt><trkpt lat="42.94369904392933" lon="-3.8345515061287774"><ele>965.6666666666667</ele><time>2026-05-02T11:47:09Z</time></trkpt><trkpt lat="42.94362333408798" lon="-3.834486228992853"><ele>968.0</ele><time>2026-05-02T11:47:10Z</time></trkpt><trkpt lat="42.94354631264384" lon="-3.834429024788782"><ele>968.0000000000001</ele><time>2026-05-02T11:47:11Z</time></trkpt><trkpt lat="42.94346989992409" lon="-3.8343778850901877"><ele>968.0</ele><time>2026-05-02T11:47:12Z</time></trkpt><trkpt lat="42.94339158946086" lon="-3.834333201905123"><ele>968.0</ele><time>2026-05-02T11:47:13Z</time></trkpt><trkpt lat="42.943315974579704" lon="-3.8342902283525695"><ele>968.0</ele><time>2026-05-02T11:47:14Z</time></trkpt><trkpt lat="42.94324162177203" lon="-3.834245278334849"><ele>968.0000000000001</ele><time>2026-05-02T11:47:15Z</time></trkpt><trkpt lat="42.943170773414096" lon="-3.834192424586264"><ele>968.0</ele><time>2026-05-02T11:47:16Z</time></trkpt><trkpt lat="42.943105506558304" lon="-3.8341259598294766"><ele>969.2</ele><time>2026-05-02T11:47:17Z</time></trkpt><trkpt lat="42.943027424905495" lon="-3.834020196642816"><ele>970.4</ele><time>2026-05-02T11:47:19Z</time></trkpt><trkpt lat="42.94296473057937" lon="-3.833940014365253"><ele>971.6000000000001</ele><time>2026-05-02T11:47:21Z</time></trkpt><trkpt lat="42.94291497905917" lon="-3.8337925337873684"><ele>972.8000000000001</ele><time>2026-05-02T11:47:23Z</time></trkpt><trkpt lat="42.94288653484412" lon="-3.8336960124308277"><ele>974.0</ele><time>2026-05-02T11:47:24Z</time></trkpt><trkpt lat="42.942838348132305" lon="-3.8335324978908996"><ele>970.0</ele><time>2026-05-02T11:47:25Z</time></trkpt><trkpt lat="42.9427713224643" lon="-3.8333369398994717"><ele>966.0</ele><time>2026-05-02T11:47:26Z</time></trkpt><trkpt lat="42.94271915961694" lon="-3.8332223103965504"><ele>962.0</ele><time>2026-05-02T11:47:27Z</time></trkpt><trkpt lat="42.942650392959834" lon="-3.833085607689582"><ele>958.0</ele><time>2026-05-02T11:47:28Z</time></trkpt><trkpt lat="42.94257018357548" lon="-3.8329588144750515"><ele>965.5</ele><time>2026-05-02T11:47:29Z</time></trkpt><trkpt lat="42.94247962897652" lon="-3.8328443011393682"><ele>973.0</ele><time>2026-05-02T11:47:30Z</time></trkpt><trkpt lat="42.94237606669393" lon="-3.832733972349585"><ele>980.5</ele><time>2026-05-02T11:47:31Z</time></trkpt><trkpt lat="42.94226955450819" lon="-3.832676884801898"><ele>988.0</ele><time>2026-05-02T11:47:32Z</time></trkpt><trkpt lat="42.94218272618598" lon="-3.8326947855738815"><ele>988.0</ele><time>2026-05-02T11:47:33Z</time></trkpt><trkpt lat="42.9420922838537" lon="-3.8326761727781977"><ele>988.0</ele><time>2026-05-02T11:47:34Z</time></trkpt><trkpt lat="42.941991231677804" lon="-3.8326553765958935"><ele>988.0</ele><time>2026-05-02T11:47:36Z</time></trkpt><trkpt lat="42.94189985603791" lon="-3.8326163182186854"><ele>988.0</ele><time>2026-05-02T11:47:37Z</time></trkpt><trkpt lat="42.94180983647152" lon="-3.8325553832582617"><ele>988.0</ele><time>2026-05-02T11:47:38Z</time></trkpt><trkpt lat="42.94173658712931" lon="-3.832482502844621"><ele>988.4999999999999</ele><time>2026-05-02T11:47:39Z</time></trkpt><trkpt lat="42.94167577378233" lon="-3.832382909254892"><ele>989.0</ele><time>2026-05-02T11:47:40Z</time></trkpt><trkpt lat="42.94162810359445" lon="-3.8322883813625097"><ele>989.5</ele><time>2026-05-02T11:47:41Z</time></trkpt><trkpt lat="42.941618868013805" lon="-3.8321639653477506"><ele>990.0</ele><time>2026-05-02T11:47:42Z</time></trkpt><trkpt lat="42.941580075236445" lon="-3.8320709237873696"><ele>990.4999999999999</ele><time>2026-05-02T11:47:43Z</time></trkpt><trkpt lat="42.941546563597015" lon="-3.8319936019328784"><ele>991.0</ele><time>2026-05-02T11:47:44Z</time></trkpt><trkpt lat="42.94151695848138" lon="-3.8318979166601146"><ele>989.1666666666666</ele><time>2026-05-02T11:47:45Z</time></trkpt><trkpt lat="42.94148625703365" lon="-3.8317997952214866"><ele>987.3333333333333</ele><time>2026-05-02T11:47:46Z</time></trkpt><trkpt lat="42.941451806393125" lon="-3.831695597834186"><ele>985.5</ele><time>2026-05-02T11:47:47Z</time></trkpt><trkpt lat="42.94141875185777" lon="-3.8315962289359993"><ele>983.6666666666667</ele><time>2026-05-02T11:47:48Z</time></trkpt><trkpt lat="42.9413818162335" lon="-3.831497593108233"><ele>981.8333333333334</ele><time>2026-05-02T11:47:49Z</time></trkpt><trkpt lat="42.941338944629564" lon="-3.831398682864681"><ele>980.0</ele><time>2026-05-02T11:47:50Z</time></trkpt><trkpt lat="42.9412994455215" lon="-3.831306349918016"><ele>980.0000000000001</ele><time>2026-05-02T11:47:51Z</time></trkpt><trkpt lat="42.94125463638829" lon="-3.831215481821166"><ele>980.0</ele><time>2026-05-02T11:47:52Z</time></trkpt><trkpt lat="42.941205165300694" lon="-3.831130290654384"><ele>980.0</ele><time>2026-05-02T11:47:53Z</time></trkpt><trkpt lat="42.94115503447105" lon="-3.8310459321402712"><ele>980.0</ele><time>2026-05-02T11:47:54Z</time></trkpt><trkpt lat="42.94110200209582" lon="-3.8309657584474244"><ele>980.0000000000001</ele><time>2026-05-02T11:47:55Z</time></trkpt><trkpt lat="42.94104627797744" lon="-3.830889312742917"><ele>980.0</ele><time>2026-05-02T11:47:56Z</time></trkpt><trkpt lat="42.94097936783017" lon="-3.830824777715358"><ele>979.1666666666667</ele><time>2026-05-02T11:47:57Z</time></trkpt><trkpt lat="42.94092161562441" lon="-3.8307588828023174"><ele>978.3333333333334</ele><time>2026-05-02T11:47:58Z</time></trkpt><trkpt lat="42.94086289194022" lon="-3.8306946063757903"><ele>977.5</ele><time>2026-05-02T11:47:59Z</time></trkpt><trkpt lat="42.94080477853904" lon="-3.8306292379199762"><ele>976.6666666666667</ele><time>2026-05-02T11:48:00Z</time></trkpt><trkpt lat="42.94074659385793" lon="-3.8305641275116544"><ele>975.8333333333334</ele><time>2026-05-02T11:48:01Z</time></trkpt><trkpt lat="42.94068686303385" lon="-3.830497297500035"><ele>975.0</ele><time>2026-05-02T11:48:02Z</time></trkpt><trkpt lat="42.94062743225808" lon="-3.8304284546907064"><ele>977.0</ele><time>2026-05-02T11:48:03Z</time></trkpt><trkpt lat="42.94056682635729" lon="-3.830362711040917"><ele>979.0</ele><time>2026-05-02T11:48:04Z</time></trkpt><trkpt lat="42.94050778760742" lon="-3.830298416181545"><ele>981.0</ele><time>2026-05-02T11:48:05Z</time></trkpt><trkpt lat="42.940450881826266" lon="-3.830232447322305"><ele>983.0</ele><time>2026-05-02T11:48:06Z</time></trkpt><trkpt lat="42.94039176325821" lon="-3.830162953409393"><ele>985.0</ele><time>2026-05-02T11:48:07Z</time></trkpt><trkpt lat="42.940331538566404" lon="-3.8300946067765316"><ele>987.0</ele><time>2026-05-02T11:48:08Z</time></trkpt><trkpt lat="42.940266917610984" lon="-3.8300361978227793"><ele>987.0</ele><time>2026-05-02T11:48:09Z</time></trkpt><trkpt lat="42.940199143185346" lon="-3.829985452335194"><ele>987.0</ele><time>2026-05-02T11:48:10Z</time></trkpt><trkpt lat="42.94013294410767" lon="-3.829940534582229"><ele>987.0</ele><time>2026-05-02T11:48:11Z</time></trkpt><trkpt lat="42.940067196343776" lon="-3.829897833357596"><ele>987.0</ele><time>2026-05-02T11:48:12Z</time></trkpt><trkpt lat="42.9399983451668" lon="-3.82985651453416"><ele>987.0</ele><time>2026-05-02T11:48:13Z</time></trkpt><trkpt lat="42.93993263811256" lon="-3.829814230037588"><ele>987.0</ele><time>2026-05-02T11:48:14Z</time></trkpt><trkpt lat="42.93986217229098" lon="-3.8297743106155373"><ele>987.0</ele><time>2026-05-02T11:48:15Z</time></trkpt><trkpt lat="42.939792837891495" lon="-3.8297383252959767"><ele>990.6666666666666</ele><time>2026-05-02T11:48:16.001Z</time></trkpt><trkpt lat="42.93972306418209" lon="-3.8297026898199578"><ele>994.3333333333333</ele><time>2026-05-02T11:48:17.001Z</time></trkpt><trkpt lat="42.939650659398545" lon="-3.829667351333993"><ele>998.0</ele><time>2026-05-02T11:48:18.001Z</time></trkpt><trkpt lat="42.93957770743065" lon="-3.8296343805366972"><ele>1001.6666666666666</ele><time>2026-05-02T11:48:19.001Z</time></trkpt><trkpt lat="42.939505669464666" lon="-3.8296089442843035"><ele>1005.3333333333333</ele><time>2026-05-02T11:48:20.001Z</time></trkpt><trkpt lat="42.93943242896532" lon="-3.829585465988847"><ele>1009.0</ele><time>2026-05-02T11:48:21.001Z</time></trkpt><trkpt lat="42.93935550147475" lon="-3.8295792442440826"><ele>1008.9999999999999</ele><time>2026-05-02T11:48:22.001Z</time></trkpt><trkpt lat="42.939280808845844" lon="-3.8295638820630615"><ele>1009.0</ele><time>2026-05-02T11:48:23.001Z</time></trkpt><trkpt lat="42.93920569590415" lon="-3.829549402005482"><ele>1009.0</ele><time>2026-05-02T11:48:24.001Z</time></trkpt><trkpt lat="42.939132104000315" lon="-3.8295392765432177"><ele>1009.0</ele><time>2026-05-02T11:48:25.001Z</time></trkpt><trkpt lat="42.93905363104463" lon="-3.8295259332780245"><ele>1008.9999999999999</ele><time>2026-05-02T11:48:26.001Z</time></trkpt><trkpt lat="42.93897526401723" lon="-3.8295163944781714"><ele>1009.0</ele><time>2026-05-02T11:48:27.001Z</time></trkpt><trkpt lat="42.93889772018197" lon="-3.8295095750768766"><ele>1010.6666666666666</ele><time>2026-05-02T11:48:28.001Z</time></trkpt><trkpt lat="42.938818438605594" lon="-3.8295056260399174"><ele>1012.3333333333333</ele><time>2026-05-02T11:48:29.001Z</time></trkpt><trkpt lat="42.93873705102348" lon="-3.829502871613445"><ele>1014.0</ele><time>2026-05-02T11:48:30.001Z</time></trkpt><trkpt lat="42.93865437251155" lon="-3.8295084326128994"><ele>1015.6666666666667</ele><time>2026-05-02T11:48:31.001Z</time></trkpt><trkpt lat="42.93857128457127" lon="-3.829521559493363"><ele>1017.3333333333334</ele><time>2026-05-02T11:48:32.001Z</time></trkpt><trkpt lat="42.93849222542834" lon="-3.829564634828493"><ele>1019.0</ele><time>2026-05-02T11:48:33.001Z</time></trkpt><trkpt lat="42.93841534284642" lon="-3.829588833240552"><ele>1019.0000000000001</ele><time>2026-05-02T11:48:34.001Z</time></trkpt><trkpt lat="42.938338598043124" lon="-3.829618085269107"><ele>1019.0</ele><time>2026-05-02T11:48:35.001Z</time></trkpt><trkpt lat="42.93826077497349" lon="-3.8296456760470545"><ele>1019.0</ele><time>2026-05-02T11:48:36.001Z</time></trkpt><trkpt lat="42.9381790748828" lon="-3.829671713828102"><ele>1019.0</ele><time>2026-05-02T11:48:37.001Z</time></trkpt><trkpt lat="42.938099213638296" lon="-3.82970085235542"><ele>1019.0000000000001</ele><time>2026-05-02T11:48:38.001Z</time></trkpt><trkpt lat="42.93801607078462" lon="-3.829731717686555"><ele>1019.0</ele><time>2026-05-02T11:48:39.001Z</time></trkpt><trkpt lat="42.93793482111867" lon="-3.829767092302505"><ele>1019.0000000000001</ele><time>2026-05-02T11:48:40.001Z</time></trkpt><trkpt lat="42.93785615117398" lon="-3.8298029463975998"><ele>1019.0</ele><time>2026-05-02T11:48:41.001Z</time></trkpt><trkpt lat="42.93777420439725" lon="-3.829840887467414"><ele>1019.0</ele><time>2026-05-02T11:48:42.001Z</time></trkpt><trkpt lat="42.93769038523057" lon="-3.829882143248656"><ele>1019.0</ele><time>2026-05-02T11:48:43.001Z</time></trkpt><trkpt lat="42.93760623856805" lon="-3.8299207697663666"><ele>1019.0000000000001</ele><time>2026-05-02T11:48:44.001Z</time></trkpt><trkpt lat="42.93751952210525" lon="-3.829955426496079"><ele>1019.0</ele><time>2026-05-02T11:48:45.001Z</time></trkpt><trkpt lat="42.93743116335" lon="-3.8299817304058816"><ele>1017.6</ele><time>2026-05-02T11:48:46.001Z</time></trkpt><trkpt lat="42.937339867107966" lon="-3.8299973800027862"><ele>1016.2</ele><time>2026-05-02T11:48:47.001Z</time></trkpt><trkpt lat="42.93724197033784" lon="-3.8300042352156347"><ele>1014.8000000000001</ele><time>2026-05-02T11:48:48.001Z</time></trkpt><trkpt lat="42.93714163644042" lon="-3.830004621942592"><ele>1013.4000000000001</ele><time>2026-05-02T11:48:49.001Z</time></trkpt><trkpt lat="42.937044602208154" lon="-3.8300066244730155"><ele>1012.0</ele><time>2026-05-02T11:48:50.001Z</time></trkpt><trkpt lat="42.93694643514325" lon="-3.8299985177301896"><ele>1012.0</ele><time>2026-05-02T11:48:51.001Z</time></trkpt><trkpt lat="42.936844944042036" lon="-3.829976852888494"><ele>1012.0</ele><time>2026-05-02T11:48:52.001Z</time></trkpt><trkpt lat="42.93674444481353" lon="-3.829947401982905"><ele>1012.0</ele><time>2026-05-02T11:48:53.001Z</time></trkpt><trkpt lat="42.93664432301185" lon="-3.829910452985266"><ele>1012.0</ele><time>2026-05-02T11:48:54.001Z</time></trkpt><trkpt lat="42.936548369452126" lon="-3.829868740497436"><ele>1012.0</ele><time>2026-05-02T11:48:55.001Z</time></trkpt><trkpt lat="42.93644885739402" lon="-3.829819711726884"><ele>1010.2</ele><time>2026-05-02T11:48:56.001Z</time></trkpt><trkpt lat="42.936350718774506" lon="-3.8297666815595255"><ele>1008.4000000000001</ele><time>2026-05-02T11:48:57.001Z</time></trkpt><trkpt lat="42.93625057125172" lon="-3.8297136747534157"><ele>1006.5999999999999</ele><time>2026-05-02T11:48:58.001Z</time></trkpt><trkpt lat="42.93615655532332" lon="-3.8296666828104167"><ele>1004.8</ele><time>2026-05-02T11:48:59.001Z</time></trkpt><trkpt lat="42.936063527531346" lon="-3.829614813321422"><ele>1003.0</ele><time>2026-05-02T11:49:00.001Z</time></trkpt><trkpt lat="42.93597002664172" lon="-3.82955411918194"><ele>1001.2</ele><time>2026-05-02T11:49:01.001Z</time></trkpt><trkpt lat="42.935869039679936" lon="-3.8295254480852488"><ele>999.4</ele><time>2026-05-02T11:49:02.001Z</time></trkpt><trkpt lat="42.935779190017215" lon="-3.829462634856509"><ele>997.6000000000001</ele><time>2026-05-02T11:49:03.001Z</time></trkpt><trkpt lat="42.935678004842806" lon="-3.8294304396251633"><ele>995.8000000000001</ele><time>2026-05-02T11:49:04.001Z</time></trkpt><trkpt lat="42.93557812721751" lon="-3.8294032638586684"><ele>994.0</ele><time>2026-05-02T11:49:05.001Z</time></trkpt><trkpt lat="42.935478767634905" lon="-3.8293794721622993"><ele>994.0</ele><time>2026-05-02T11:49:06Z</time></trkpt><trkpt lat="42.935375163535795" lon="-3.829363607448744"><ele>994.0000000000001</ele><time>2026-05-02T11:49:07Z</time></trkpt><trkpt lat="42.93527316491265" lon="-3.8293592881230105"><ele>994.0000000000001</ele><time>2026-05-02T11:49:08Z</time></trkpt><trkpt lat="42.93517221750806" lon="-3.8293567687602503"><ele>994.0</ele><time>2026-05-02T11:49:09Z</time></trkpt><trkpt lat="42.93507243761504" lon="-3.829354100876506"><ele>994.0</ele><time>2026-05-02T11:49:10Z</time></trkpt><trkpt lat="42.9349697377531" lon="-3.829354161830186"><ele>993.4000000000001</ele><time>2026-05-02T11:49:11Z</time></trkpt><trkpt lat="42.934866277908874" lon="-3.8293555285027066"><ele>992.8000000000001</ele><time>2026-05-02T11:49:12Z</time></trkpt><trkpt lat="42.93476390631155" lon="-3.829354198283346"><ele>992.1999999999999</ele><time>2026-05-02T11:49:13Z</time></trkpt><trkpt lat="42.93466280829085" lon="-3.829351055148949"><ele>991.5999999999999</ele><time>2026-05-02T11:49:14Z</time></trkpt><trkpt lat="42.934560039172034" lon="-3.8293493749439746"><ele>991.0</ele><time>2026-05-02T11:49:15Z</time></trkpt><trkpt lat="42.9344588843184" lon="-3.829329702429198"><ele>993.0</ele><time>2026-05-02T11:49:16Z</time></trkpt><trkpt lat="42.93435650233473" lon="-3.8293035285240054"><ele>994.9999999999999</ele><time>2026-05-02T11:49:17Z</time></trkpt><trkpt lat="42.934255277652014" lon="-3.829268054371592"><ele>996.9999999999999</ele><time>2026-05-02T11:49:18Z</time></trkpt><trkpt lat="42.934155634315644" lon="-3.829225784422016"><ele>999.0</ele><time>2026-05-02T11:49:19Z</time></trkpt><trkpt lat="42.934052980455505" lon="-3.829174561170089"><ele>1001.0</ele><time>2026-05-02T11:49:20Z</time></trkpt><trkpt lat="42.93395011383157" lon="-3.8291256548298263"><ele>1001.0</ele><time>2026-05-02T11:49:21Z</time></trkpt><trkpt lat="42.93385267518914" lon="-3.829067850192072"><ele>1000.9999999999999</ele><time>2026-05-02T11:49:22Z</time></trkpt><trkpt lat="42.93375503995157" lon="-3.8290061069034684"><ele>1000.9999999999999</ele><time>2026-05-02T11:49:23Z</time></trkpt><trkpt lat="42.93366141376488" lon="-3.828943866783947"><ele>1001.0</ele><time>2026-05-02T11:49:24Z</time></trkpt><trkpt lat="42.93356766836558" lon="-3.828879198963146"><ele>1001.0</ele><time>2026-05-02T11:49:25Z</time></trkpt><trkpt lat="42.93346988323273" lon="-3.8288186581067634"><ele>998.4</ele><time>2026-05-02T11:49:26Z</time></trkpt><trkpt lat="42.93337347314579" lon="-3.8287619624335147"><ele>995.8</ele><time>2026-05-02T11:49:27Z</time></trkpt><trkpt lat="42.93327593915516" lon="-3.8287149356238666"><ele>993.1999999999999</ele><time>2026-05-02T11:49:28Z</time></trkpt><trkpt lat="42.93317341712688" lon="-3.828678337974895"><ele>990.5999999999999</ele><time>2026-05-02T11:49:29Z</time></trkpt><trkpt lat="42.933070994331125" lon="-3.828646982587965"><ele>988.0</ele><time>2026-05-02T11:49:30Z</time></trkpt><trkpt lat="42.932971147677364" lon="-3.828615087381743"><ele>988.0</ele><time>2026-05-02T11:49:31Z</time></trkpt><trkpt lat="42.932872288926546" lon="-3.82858669605208"><ele>988.0</ele><time>2026-05-02T11:49:32Z</time></trkpt><trkpt lat="42.93277438117518" lon="-3.8285538053528616"><ele>988.0</ele><time>2026-05-02T11:49:33Z</time></trkpt><trkpt lat="42.932676449352996" lon="-3.828518467740877"><ele>988.0</ele><time>2026-05-02T11:49:34Z</time></trkpt><trkpt lat="42.93257688672525" lon="-3.8284827863264783"><ele>988.0</ele><time>2026-05-02T11:49:35Z</time></trkpt><trkpt lat="42.93247619227163" lon="-3.828446804147414"><ele>988.8</ele><time>2026-05-02T11:49:36Z</time></trkpt><trkpt lat="42.93237381964211" lon="-3.828410357561264"><ele>989.5999999999999</ele><time>2026-05-02T11:49:37Z</time></trkpt><trkpt lat="42.93227106698104" lon="-3.8283652087646924"><ele>990.4000000000001</ele><time>2026-05-02T11:49:38Z</time></trkpt><trkpt lat="42.93216786738604" lon="-3.8283198649329977"><ele>991.2</ele><time>2026-05-02T11:49:39Z</time></trkpt><trkpt lat="42.93206581393128" lon="-3.828271192342725"><ele>992.0</ele><time>2026-05-02T11:49:40Z</time></trkpt><trkpt lat="42.931964093705425" lon="-3.8282220141901386"><ele>992.0</ele><time>2026-05-02T11:49:41Z</time></trkpt><trkpt lat="42.931862091580065" lon="-3.828175449038512"><ele>992.0</ele><time>2026-05-02T11:49:42Z</time></trkpt><trkpt lat="42.93175600366489" lon="-3.828129297306328"><ele>992.0</ele><time>2026-05-02T11:49:43Z</time></trkpt><trkpt lat="42.931652460589056" lon="-3.8280786466580126"><ele>992.0</ele><time>2026-05-02T11:49:44Z</time></trkpt><trkpt lat="42.93154952378609" lon="-3.8280311083077243"><ele>992.0</ele><time>2026-05-02T11:49:45Z</time></trkpt><trkpt lat="42.9314419435887" lon="-3.8279891561833175"><ele>991.0</ele><time>2026-05-02T11:49:46Z</time></trkpt><trkpt lat="42.93134049554785" lon="-3.8279457436375095"><ele>990.0</ele><time>2026-05-02T11:49:47Z</time></trkpt><trkpt lat="42.93123164219803" lon="-3.827913254881918"><ele>989.0</ele><time>2026-05-02T11:49:48Z</time></trkpt><trkpt lat="42.931108067411245" lon="-3.8278875102718453"><ele>988.0</ele><time>2026-05-02T11:49:49Z</time></trkpt><trkpt lat="42.93099437326018" lon="-3.8278873413472123"><ele>985.0</ele><time>2026-05-02T11:49:50Z</time></trkpt><trkpt lat="42.93081957738511" lon="-3.8278937642673956"><ele>982.0</ele><time>2026-05-02T11:49:51Z</time></trkpt><trkpt lat="42.93061209092685" lon="-3.8278802953940043"><ele>979.0</ele><time>2026-05-02T11:49:52Z</time></trkpt><trkpt lat="42.930684952290974" lon="-3.8278071901057364"><ele>979.0</ele><time>2026-05-02T11:49:53Z</time></trkpt><trkpt lat="42.93057654640237" lon="-3.8278065187741874"><ele>979.0000000000001</ele><time>2026-05-02T11:49:54Z</time></trkpt><trkpt lat="42.93046716883062" lon="-3.827790357640432"><ele>979.0000000000001</ele><time>2026-05-02T11:49:55Z</time></trkpt><trkpt lat="42.93035343708522" lon="-3.82777775982392"><ele>979.0</ele><time>2026-05-02T11:49:56Z</time></trkpt><trkpt lat="42.930243241713605" lon="-3.827766326319268"><ele>979.0</ele><time>2026-05-02T11:49:57Z</time></trkpt><trkpt lat="42.93012790561384" lon="-3.8277496806595184"><ele>977.4000000000001</ele><time>2026-05-02T11:49:58Z</time></trkpt><trkpt lat="42.930016798333234" lon="-3.8277335657778"><ele>975.8000000000001</ele><time>2026-05-02T11:49:59Z</time></trkpt><trkpt lat="42.92991223338305" lon="-3.8277180646403184"><ele>974.1999999999999</ele><time>2026-05-02T11:50:00Z</time></trkpt><trkpt lat="42.929799912021316" lon="-3.8277132358339263"><ele>972.5999999999999</ele><time>2026-05-02T11:50:01Z</time></trkpt><trkpt lat="42.929696710034285" lon="-3.827700467377262"><ele>971.0</ele><time>2026-05-02T11:50:02Z</time></trkpt><trkpt lat="42.929588132998376" lon="-3.8276877067169637"><ele>971.0</ele><time>2026-05-02T11:50:03Z</time></trkpt><trkpt lat="42.92947984371143" lon="-3.8276697730751623"><ele>970.9999999999999</ele><time>2026-05-02T11:50:04Z</time></trkpt><trkpt lat="42.92937295620866" lon="-3.8276553856236166"><ele>970.9999999999999</ele><time>2026-05-02T11:50:05Z</time></trkpt><trkpt lat="42.9292684268604" lon="-3.827641838655122"><ele>971.0</ele><time>2026-05-02T11:50:06Z</time></trkpt><trkpt lat="42.92916778905069" lon="-3.8276311826815914"><ele>971.0</ele><time>2026-05-02T11:50:07Z</time></trkpt><trkpt lat="42.92906577428512" lon="-3.8276214497439227"><ele>973.1999999999999</ele><time>2026-05-02T11:50:08Z</time></trkpt><trkpt lat="42.92896510123786" lon="-3.8276098696241676"><ele>975.3999999999999</ele><time>2026-05-02T11:50:09Z</time></trkpt><trkpt lat="42.928863682568846" lon="-3.8276045267171455"><ele>977.6</ele><time>2026-05-02T11:50:10Z</time></trkpt><trkpt lat="42.92876381443996" lon="-3.827594158817586"><ele>979.8</ele><time>2026-05-02T11:50:11Z</time></trkpt><trkpt lat="42.92866236706469" lon="-3.8275818639371315"><ele>982.0</ele><time>2026-05-02T11:50:12Z</time></trkpt><trkpt lat="42.92856083847528" lon="-3.8275694320558897"><ele>982.0</ele><time>2026-05-02T11:50:13Z</time></trkpt><trkpt lat="42.92846378220951" lon="-3.8275602326112845"><ele>982.0</ele><time>2026-05-02T11:50:14Z</time></trkpt><trkpt lat="42.92836439886956" lon="-3.8275516345021083"><ele>982.0</ele><time>2026-05-02T11:50:15Z</time></trkpt><trkpt lat="42.92826420775148" lon="-3.8275430722554376"><ele>982.0</ele><time>2026-05-02T11:50:16Z</time></trkpt><trkpt lat="42.9281564456309" lon="-3.8275392813076468"><ele>982.0</ele><time>2026-05-02T11:50:17Z</time></trkpt><trkpt lat="42.92804626407663" lon="-3.827530312155696"><ele>982.8</ele><time>2026-05-02T11:50:18Z</time></trkpt><trkpt lat="42.92793841790273" lon="-3.827531274150564"><ele>983.6</ele><time>2026-05-02T11:50:19Z</time></trkpt><trkpt lat="42.927829549759046" lon="-3.8275261074528952"><ele>984.3999999999999</ele><time>2026-05-02T11:50:20Z</time></trkpt><trkpt lat="42.92772299959998" lon="-3.827519013410117"><ele>985.1999999999999</ele><time>2026-05-02T11:50:21Z</time></trkpt><trkpt lat="42.92761504597305" lon="-3.827511002721213"><ele>986.0</ele><time>2026-05-02T11:50:22Z</time></trkpt><trkpt lat="42.927500835904475" lon="-3.827499544083542"><ele>986.1999999999999</ele><time>2026-05-02T11:50:23Z</time></trkpt><trkpt lat="42.9273918651572" lon="-3.827488700982662"><ele>986.3999999999999</ele><time>2026-05-02T11:50:24Z</time></trkpt><trkpt lat="42.92728761914633" lon="-3.8274808248546126"><ele>986.6</ele><time>2026-05-02T11:50:25Z</time></trkpt><trkpt lat="42.92718084075886" lon="-3.8274750780604228"><ele>986.8</ele><time>2026-05-02T11:50:26Z</time></trkpt><trkpt lat="42.92707283176225" lon="-3.827472443234813"><ele>987.0</ele><time>2026-05-02T11:50:27Z</time></trkpt><trkpt lat="42.92696596015882" lon="-3.8274683121689774"><ele>987.0</ele><time>2026-05-02T11:50:28.001Z</time></trkpt><trkpt lat="42.92685626708813" lon="-3.8274640299083202"><ele>987.0</ele><time>2026-05-02T11:50:29.001Z</time></trkpt><trkpt lat="42.92674998517199" lon="-3.827455949393077"><ele>987.0</ele><time>2026-05-02T11:50:30.001Z</time></trkpt><trkpt lat="42.92664574616171" lon="-3.8274442483262217"><ele>987.0</ele><time>2026-05-02T11:50:31.001Z</time></trkpt><trkpt lat="42.92654060357997" lon="-3.8274365341142715"><ele>987.0</ele><time>2026-05-02T11:50:32.001Z</time></trkpt><trkpt lat="42.92643101190249" lon="-3.8274294575005854"><ele>987.2</ele><time>2026-05-02T11:50:33.001Z</time></trkpt><trkpt lat="42.92632344196792" lon="-3.8274211445205784"><ele>987.4000000000001</ele><time>2026-05-02T11:50:34.001Z</time></trkpt><trkpt lat="42.926218655712624" lon="-3.8274189446312126"><ele>987.5999999999999</ele><time>2026-05-02T11:50:35.001Z</time></trkpt><trkpt lat="42.92611364635887" lon="-3.8274111215756443"><ele>987.8</ele><time>2026-05-02T11:50:36.001Z</time></trkpt><trkpt lat="42.92600806038436" lon="-3.82740482643691"><ele>988.0</ele><time>2026-05-02T11:50:37.001Z</time></trkpt><trkpt lat="42.92590017781833" lon="-3.827404790422893"><ele>987.2</ele><time>2026-05-02T11:50:38.001Z</time></trkpt><trkpt lat="42.92579300894644" lon="-3.827409872849507"><ele>986.4</ele><time>2026-05-02T11:50:39.001Z</time></trkpt><trkpt lat="42.92568430138069" lon="-3.827414504223621"><ele>985.6000000000001</ele><time>2026-05-02T11:50:40.001Z</time></trkpt><trkpt lat="42.92557831137687" lon="-3.8274252536050617"><ele>984.8000000000001</ele><time>2026-05-02T11:50:41.001Z</time></trkpt><trkpt lat="42.92547154212132" lon="-3.827452465567037"><ele>984.0</ele><time>2026-05-02T11:50:42.001Z</time></trkpt><trkpt lat="42.925363183632406" lon="-3.8274819181846946"><ele>984.0</ele><time>2026-05-02T11:50:43.001Z</time></trkpt><trkpt lat="42.925254463807825" lon="-3.8275122557282137"><ele>984.0000000000001</ele><time>2026-05-02T11:50:44.001Z</time></trkpt><trkpt lat="42.92514759150681" lon="-3.8275365290797163"><ele>984.0000000000001</ele><time>2026-05-02T11:50:45.001Z</time></trkpt><trkpt lat="42.92504157633514" lon="-3.8275642102158627"><ele>984.0</ele><time>2026-05-02T11:50:46.001Z</time></trkpt><trkpt lat="42.92493619935916" lon="-3.8275863341941783"><ele>984.0</ele><time>2026-05-02T11:50:47.001Z</time></trkpt><trkpt lat="42.92483146170109" lon="-3.8276098919527444"><ele>982.4000000000001</ele><time>2026-05-02T11:50:48.001Z</time></trkpt><trkpt lat="42.92472726329741" lon="-3.8276376228559013"><ele>980.8000000000001</ele><time>2026-05-02T11:50:49.001Z</time></trkpt><trkpt lat="42.92461988604448" lon="-3.827655938642535"><ele>979.1999999999999</ele><time>2026-05-02T11:50:50.001Z</time></trkpt><trkpt lat="42.92451282736414" lon="-3.827676547326816"><ele>977.5999999999999</ele><time>2026-05-02T11:50:51.001Z</time></trkpt><trkpt lat="42.92440544678908" lon="-3.8276943358338396"><ele>976.0</ele><time>2026-05-02T11:50:52.001Z</time></trkpt><trkpt lat="42.92429895536157" lon="-3.827707355911717"><ele>982.1999999999999</ele><time>2026-05-02T11:50:53.001Z</time></trkpt><trkpt lat="42.9241895777233" lon="-3.827724771227703"><ele>988.3999999999999</ele><time>2026-05-02T11:50:54.001Z</time></trkpt><trkpt lat="42.924079336014046" lon="-3.8277394689713287"><ele>994.6</ele><time>2026-05-02T11:50:55.001Z</time></trkpt><trkpt lat="42.923969601555356" lon="-3.8277524541033947"><ele>1000.8</ele><time>2026-05-02T11:50:56.001Z</time></trkpt><trkpt lat="42.92386120994141" lon="-3.827764343228285"><ele>1007.0</ele><time>2026-05-02T11:50:57.001Z</time></trkpt><trkpt lat="42.92375262223179" lon="-3.827783050095143"><ele>1007.0</ele><time>2026-05-02T11:50:58.001Z</time></trkpt><trkpt lat="42.92364770910752" lon="-3.827781694392391"><ele>1007.0</ele><time>2026-05-02T11:50:59.001Z</time></trkpt><trkpt lat="42.92354197201032" lon="-3.8277885228852386"><ele>1007.0</ele><time>2026-05-02T11:51:00.001Z</time></trkpt><trkpt lat="42.92343420996412" lon="-3.8278014315327376"><ele>1007.0</ele><time>2026-05-02T11:51:01.001Z</time></trkpt><trkpt lat="42.92332708765214" lon="-3.827820060131761"><ele>1007.0</ele><time>2026-05-02T11:51:02.001Z</time></trkpt><trkpt lat="42.92322201404548" lon="-3.8278467614545506"><ele>1004.4000000000001</ele><time>2026-05-02T11:51:03.001Z</time></trkpt><trkpt lat="42.923119820763986" lon="-3.8278845249259623"><ele>1001.8000000000001</ele><time>2026-05-02T11:51:04.001Z</time></trkpt><trkpt lat="42.923018765226" lon="-3.8279317813964724"><ele>999.2</ele><time>2026-05-02T11:51:05.001Z</time></trkpt><trkpt lat="42.92292134099895" lon="-3.827997209095397"><ele>996.6</ele><time>2026-05-02T11:51:06.001Z</time></trkpt><trkpt lat="42.922821981891445" lon="-3.8280587901896737"><ele>994.0</ele><time>2026-05-02T11:51:07.001Z</time></trkpt><trkpt lat="42.92272720781368" lon="-3.8281298901520575"><ele>994.0</ele><time>2026-05-02T11:51:08.001Z</time></trkpt><trkpt lat="42.92263309627205" lon="-3.828216457049899"><ele>994.0</ele><time>2026-05-02T11:51:09.001Z</time></trkpt><trkpt lat="42.9225407646506" lon="-3.8283311184849116"><ele>994.0</ele><time>2026-05-02T11:51:10.001Z</time></trkpt><trkpt lat="42.92239412568525" lon="-3.8285307356429437"><ele>994.0</ele><time>2026-05-02T11:51:11.001Z</time></trkpt><trkpt lat="42.92223661800799" lon="-3.828670450772969"><ele>994.4000000000001</ele><time>2026-05-02T11:51:12Z</time></trkpt><trkpt lat="42.92226368907261" lon="-3.828545858739407"><ele>994.8000000000001</ele><time>2026-05-02T11:51:13Z</time></trkpt><trkpt lat="42.92217379163772" lon="-3.8286199315871037"><ele>995.1999999999999</ele><time>2026-05-02T11:51:14Z</time></trkpt><trkpt lat="42.922081379859776" lon="-3.828697457145656"><ele>995.5999999999999</ele><time>2026-05-02T11:51:15Z</time></trkpt><trkpt lat="42.92198745296372" lon="-3.8287748769408965"><ele>996.0</ele><time>2026-05-02T11:51:16Z</time></trkpt><trkpt lat="42.921891537223" lon="-3.828850892686007"><ele>996.0</ele><time>2026-05-02T11:51:17Z</time></trkpt><trkpt lat="42.92179239363985" lon="-3.8289204886871593"><ele>996.0</ele><time>2026-05-02T11:51:18Z</time></trkpt><trkpt lat="42.921691581549716" lon="-3.8289924387607703"><ele>996.0</ele><time>2026-05-02T11:51:19Z</time></trkpt><trkpt lat="42.921588824803216" lon="-3.829060976262455"><ele>996.0</ele><time>2026-05-02T11:51:20Z</time></trkpt><trkpt lat="42.92148899210125" lon="-3.82912792680368"><ele>995.5999999999999</ele><time>2026-05-02T11:51:21Z</time></trkpt><trkpt lat="42.921387711111755" lon="-3.8291881015440623"><ele>995.1999999999999</ele><time>2026-05-02T11:51:22Z</time></trkpt><trkpt lat="42.92128326404001" lon="-3.829251136927309"><ele>994.8000000000001</ele><time>2026-05-02T11:51:23Z</time></trkpt><trkpt lat="42.921180781994885" lon="-3.829310798906402"><ele>994.4000000000001</ele><time>2026-05-02T11:51:24Z</time></trkpt><trkpt lat="42.92107574011939" lon="-3.8293670673922877"><ele>994.0</ele><time>2026-05-02T11:51:25Z</time></trkpt><trkpt lat="42.92097055658111" lon="-3.829422805095602"><ele>989.5</ele><time>2026-05-02T11:51:26Z</time></trkpt><trkpt lat="42.92086583299457" lon="-3.829480367568017"><ele>985.0</ele><time>2026-05-02T11:51:27Z</time></trkpt><trkpt lat="42.920766523928805" lon="-3.8295465329016927"><ele>980.5</ele><time>2026-05-02T11:51:28Z</time></trkpt><trkpt lat="42.92065668857384" lon="-3.8296130171084295"><ele>976.0</ele><time>2026-05-02T11:51:29Z</time></trkpt><trkpt lat="42.92055751594492" lon="-3.829676471424353"><ele>976.0</ele><time>2026-05-02T11:51:30Z</time></trkpt><trkpt lat="42.92045567467401" lon="-3.829748779884204"><ele>976.0</ele><time>2026-05-02T11:51:31Z</time></trkpt><trkpt lat="42.920354648900386" lon="-3.8298210780606947"><ele>976.0</ele><time>2026-05-02T11:51:32Z</time></trkpt><trkpt lat="42.92025512993661" lon="-3.829896324485581"><ele>976.0</ele><time>2026-05-02T11:51:33Z</time></trkpt><trkpt lat="42.920156796616915" lon="-3.829967957040174"><ele>976.5999999999999</ele><time>2026-05-02T11:51:34Z</time></trkpt><trkpt lat="42.92006017389731" lon="-3.830035445539045"><ele>977.1999999999999</ele><time>2026-05-02T11:51:35Z</time></trkpt><trkpt lat="42.91995732555413" lon="-3.8301023126449434"><ele>977.8000000000001</ele><time>2026-05-02T11:51:36Z</time></trkpt><trkpt lat="42.91985969030041" lon="-3.8301647311720384"><ele>978.4000000000001</ele><time>2026-05-02T11:51:37Z</time></trkpt><trkpt lat="42.91976505862396" lon="-3.8302215834267135"><ele>979.0</ele><time>2026-05-02T11:51:38Z</time></trkpt><trkpt lat="42.91966352779009" lon="-3.8302762275981457"><ele>979.0</ele><time>2026-05-02T11:51:39Z</time></trkpt><trkpt lat="42.91956426997971" lon="-3.8303357133805487"><ele>979.0000000000001</ele><time>2026-05-02T11:51:40Z</time></trkpt><trkpt lat="42.919462390165165" lon="-3.8303917695582284"><ele>979.0000000000001</ele><time>2026-05-02T11:51:41Z</time></trkpt><trkpt lat="42.919360790658935" lon="-3.830443462552323"><ele>979.0</ele><time>2026-05-02T11:51:42Z</time></trkpt><trkpt lat="42.919260160464326" lon="-3.830493894966287"><ele>979.0</ele><time>2026-05-02T11:51:43Z</time></trkpt><trkpt lat="42.91916111967646" lon="-3.8305468628460875"><ele>975.6</ele><time>2026-05-02T11:51:44Z</time></trkpt><trkpt lat="42.91906145744171" lon="-3.8306007546395975"><ele>972.2</ele><time>2026-05-02T11:51:45Z</time></trkpt><trkpt lat="42.91896003743439" lon="-3.83065601545118"><ele>968.8000000000001</ele><time>2026-05-02T11:51:46Z</time></trkpt><trkpt lat="42.91885689224996" lon="-3.830711520828464"><ele>965.4000000000001</ele><time>2026-05-02T11:51:47Z</time></trkpt><trkpt lat="42.91875770189756" lon="-3.8307702842432905"><ele>962.0</ele><time>2026-05-02T11:51:48Z</time></trkpt><trkpt lat="42.918655238618406" lon="-3.8308269359958063"><ele>962.0</ele><time>2026-05-02T11:51:49Z</time></trkpt><trkpt lat="42.9185527728974" lon="-3.830883913413619"><ele>962.0</ele><time>2026-05-02T11:51:50Z</time></trkpt><trkpt lat="42.918451782201195" lon="-3.830935585303329"><ele>962.0</ele><time>2026-05-02T11:51:51Z</time></trkpt><trkpt lat="42.918350036095184" lon="-3.8309868647054715"><ele>962.0</ele><time>2026-05-02T11:51:52Z</time></trkpt><trkpt lat="42.91824987941738" lon="-3.8310396784578566"><ele>962.0</ele><time>2026-05-02T11:51:53Z</time></trkpt><trkpt lat="42.918153559936115" lon="-3.8310856021080824"><ele>961.8</ele><time>2026-05-02T11:51:54Z</time></trkpt><trkpt lat="42.91805319853577" lon="-3.831133359259306"><ele>961.6</ele><time>2026-05-02T11:51:55Z</time></trkpt><trkpt lat="42.9179542931208" lon="-3.831178672514997"><ele>961.3999999999999</ele><time>2026-05-02T11:51:56Z</time></trkpt><trkpt lat="42.917851455617296" lon="-3.8312229540765936"><ele>961.1999999999999</ele><time>2026-05-02T11:51:57Z</time></trkpt><trkpt lat="42.91775095531278" lon="-3.8312683309844457"><ele>961.0</ele><time>2026-05-02T11:51:58Z</time></trkpt><trkpt lat="42.917562466417415" lon="-3.8313566340200302"><ele>958.1999999999999</ele><time>2026-05-02T11:52:00Z</time></trkpt><trkpt lat="42.91746732101167" lon="-3.831396895017488"><ele>955.3999999999999</ele><time>2026-05-02T11:52:01Z</time></trkpt><trkpt lat="42.91737521502415" lon="-3.831436443627648"><ele>952.6</ele><time>2026-05-02T11:52:02Z</time></trkpt><trkpt lat="42.91727725358884" lon="-3.8314822248386853"><ele>949.8</ele><time>2026-05-02T11:52:03Z</time></trkpt><trkpt lat="42.9171824353767" lon="-3.8315169702679404"><ele>947.0</ele><time>2026-05-02T11:52:04Z</time></trkpt><trkpt lat="42.91708732326353" lon="-3.831548961760196"><ele>947.0</ele><time>2026-05-02T11:52:05Z</time></trkpt><trkpt lat="42.91699530370631" lon="-3.8315878603850946"><ele>947.0</ele><time>2026-05-02T11:52:06Z</time></trkpt><trkpt lat="42.91690435281161" lon="-3.8316285141209834"><ele>947.0</ele><time>2026-05-02T11:52:07Z</time></trkpt><trkpt lat="42.91681051721413" lon="-3.8316721158117693"><ele>947.0</ele><time>2026-05-02T11:52:08Z</time></trkpt><trkpt lat="42.916720424722605" lon="-3.8317067751247977"><ele>947.0</ele><time>2026-05-02T11:52:09Z</time></trkpt><trkpt lat="42.916631746789434" lon="-3.831744340115672"><ele>947.1666666666667</ele><time>2026-05-02T11:52:10Z</time></trkpt><trkpt lat="42.9165446957216" lon="-3.8317878421564036"><ele>947.3333333333334</ele><time>2026-05-02T11:52:11Z</time></trkpt><trkpt lat="42.91646095738507" lon="-3.8318298625883194"><ele>947.5</ele><time>2026-05-02T11:52:12Z</time></trkpt><trkpt lat="42.91637868998133" lon="-3.8318750448438994"><ele>947.6666666666667</ele><time>2026-05-02T11:52:13Z</time></trkpt><trkpt lat="42.91629991725704" lon="-3.8319210552899867"><ele>947.8333333333334</ele><time>2026-05-02T11:52:14Z</time></trkpt><trkpt lat="42.91622204493735" lon="-3.831972089033162"><ele>948.0</ele><time>2026-05-02T11:52:15Z</time></trkpt><trkpt lat="42.91614689302502" lon="-3.832020370239912"><ele>948.0</ele><time>2026-05-02T11:52:16Z</time></trkpt><trkpt lat="42.91607601308537" lon="-3.8320766125801495"><ele>948.0</ele><time>2026-05-02T11:52:17Z</time></trkpt><trkpt lat="42.916005395131755" lon="-3.832135517760587"><ele>948.0</ele><time>2026-05-02T11:52:18Z</time></trkpt><trkpt lat="42.91593209435728" lon="-3.8321930627731358"><ele>948.0</ele><time>2026-05-02T11:52:19Z</time></trkpt><trkpt lat="42.9158646099434" lon="-3.832252843426959"><ele>948.0</ele><time>2026-05-02T11:52:20Z</time></trkpt><trkpt lat="42.91579347819233" lon="-3.8323169518102276"><ele>948.0</ele><time>2026-05-02T11:52:21Z</time></trkpt><trkpt lat="42.91572239795415" lon="-3.832376303337256"><ele>948.8333333333334</ele><time>2026-05-02T11:52:22.001Z</time></trkpt><trkpt lat="42.91565540089003" lon="-3.832441486683774"><ele>949.6666666666667</ele><time>2026-05-02T11:52:23.001Z</time></trkpt><trkpt lat="42.91558724964696" lon="-3.832507077820874"><ele>950.5</ele><time>2026-05-02T11:52:24.001Z</time></trkpt><trkpt lat="42.91551660006893" lon="-3.832574134673343"><ele>951.3333333333334</ele><time>2026-05-02T11:52:25.001Z</time></trkpt><trkpt lat="42.915454096320595" lon="-3.8326510103508187"><ele>952.1666666666667</ele><time>2026-05-02T11:52:26.001Z</time></trkpt><trkpt lat="42.91538998842177" lon="-3.8327285954083936"><ele>953.0</ele><time>2026-05-02T11:52:27.001Z</time></trkpt><trkpt lat="42.91532529892315" lon="-3.8328011116614458"><ele>953.0000000000001</ele><time>2026-05-02T11:52:28.001Z</time></trkpt><trkpt lat="42.91526478346575" lon="-3.8328784475914333"><ele>953.0</ele><time>2026-05-02T11:52:29.001Z</time></trkpt><trkpt lat="42.91520528406546" lon="-3.832962105674802"><ele>953.0</ele><time>2026-05-02T11:52:30.001Z</time></trkpt><trkpt lat="42.915155516137006" lon="-3.83305312649359"><ele>953.0</ele><time>2026-05-02T11:52:31.001Z</time></trkpt><trkpt lat="42.91510984892927" lon="-3.8331461711369332"><ele>953.0000000000001</ele><time>2026-05-02T11:52:32.001Z</time></trkpt><trkpt lat="42.91505615380586" lon="-3.833236636302474"><ele>953.0</ele><time>2026-05-02T11:52:33.001Z</time></trkpt><trkpt lat="42.9150013232671" lon="-3.833326285670166"><ele>954.0000000000001</ele><time>2026-05-02T11:52:34.001Z</time></trkpt><trkpt lat="42.91494946070176" lon="-3.8334136813466815"><ele>955.0</ele><time>2026-05-02T11:52:35.001Z</time></trkpt><trkpt lat="42.91490162005467" lon="-3.8335052901204385"><ele>956.0</ele><time>2026-05-02T11:52:36.001Z</time></trkpt><trkpt lat="42.9148530443719" lon="-3.8335931332618305"><ele>957.0</ele><time>2026-05-02T11:52:37.001Z</time></trkpt><trkpt lat="42.91480042735058" lon="-3.833680251737478"><ele>958.0000000000001</ele><time>2026-05-02T11:52:38.001Z</time></trkpt><trkpt lat="42.91474305986235" lon="-3.8337659142700335"><ele>959.0</ele><time>2026-05-02T11:52:39.001Z</time></trkpt><trkpt lat="42.91469365672891" lon="-3.833852508365967"><ele>959.0000000000001</ele><time>2026-05-02T11:52:40.001Z</time></trkpt><trkpt lat="42.91464268800573" lon="-3.8339368713706583"><ele>959.0</ele><time>2026-05-02T11:52:41.001Z</time></trkpt><trkpt lat="42.91459303903621" lon="-3.834027589088473"><ele>959.0</ele><time>2026-05-02T11:52:42.001Z</time></trkpt><trkpt lat="42.91454128834341" lon="-3.83411337433512"><ele>959.0</ele><time>2026-05-02T11:52:43.001Z</time></trkpt><trkpt lat="42.91448641369978" lon="-3.834196339832054"><ele>959.0000000000001</ele><time>2026-05-02T11:52:44.001Z</time></trkpt><trkpt lat="42.914430750088925" lon="-3.834281429079003"><ele>959.0</ele><time>2026-05-02T11:52:45.001Z</time></trkpt><trkpt lat="42.91437677793388" lon="-3.834369294604624"><ele>958.8333333333334</ele><time>2026-05-02T11:52:46.001Z</time></trkpt><trkpt lat="42.91432664930876" lon="-3.834457939877655"><ele>958.6666666666667</ele><time>2026-05-02T11:52:47.001Z</time></trkpt><trkpt lat="42.914272037788066" lon="-3.834544109156042"><ele>958.5</ele><time>2026-05-02T11:52:48.001Z</time></trkpt><trkpt lat="42.9142174898484" lon="-3.834629769753447"><ele>958.3333333333333</ele><time>2026-05-02T11:52:49.001Z</time></trkpt><trkpt lat="42.91415924891572" lon="-3.8347094057430793"><ele>958.1666666666666</ele><time>2026-05-02T11:52:50.001Z</time></trkpt><trkpt lat="42.914101665899125" lon="-3.834791393452585"><ele>958.0</ele><time>2026-05-02T11:52:51.001Z</time></trkpt><trkpt lat="42.914037310338784" lon="-3.8348636452898286"><ele>959.3333333333333</ele><time>2026-05-02T11:52:52.001Z</time></trkpt><trkpt lat="42.91397067029645" lon="-3.8349297728258556"><ele>960.6666666666666</ele><time>2026-05-02T11:52:53.001Z</time></trkpt><trkpt lat="42.91390529316133" lon="-3.8350054589155804"><ele>962.0</ele><time>2026-05-02T11:52:54.001Z</time></trkpt><trkpt lat="42.91383027256636" lon="-3.8350540329244542"><ele>963.3333333333333</ele><time>2026-05-02T11:52:55.001Z</time></trkpt><trkpt lat="42.91374678454823" lon="-3.8350877944458555"><ele>964.6666666666666</ele><time>2026-05-02T11:52:56.001Z</time></trkpt><trkpt lat="42.91366396483859" lon="-3.835108615957109"><ele>966.0</ele><time>2026-05-02T11:52:57.001Z</time></trkpt><trkpt lat="42.913575695166635" lon="-3.8351148451515065"><ele>966.0</ele><time>2026-05-02T11:52:58.001Z</time></trkpt><trkpt lat="42.91349273294134" lon="-3.8350872116219006"><ele>966.0</ele><time>2026-05-02T11:52:59.001Z</time></trkpt><trkpt lat="42.913405813739836" lon="-3.835091975837843"><ele>966.0</ele><time>2026-05-02T11:53:00.001Z</time></trkpt><trkpt lat="42.91332484182076" lon="-3.8350529963262763"><ele>966.0</ele><time>2026-05-02T11:53:01.001Z</time></trkpt><trkpt lat="42.91323820230894" lon="-3.835035499285486"><ele>966.0</ele><time>2026-05-02T11:53:02.001Z</time></trkpt><trkpt lat="42.91315387385899" lon="-3.835013698193097"><ele>966.0</ele><time>2026-05-02T11:53:03.001Z</time></trkpt><trkpt lat="42.913067452915705" lon="-3.8349977327019356"><ele>968.0</ele><time>2026-05-02T11:53:04.001Z</time></trkpt><trkpt lat="42.91298043760549" lon="-3.8349688706771805"><ele>969.9999999999999</ele><time>2026-05-02T11:53:05.001Z</time></trkpt><trkpt lat="42.912888595504334" lon="-3.834945801906633"><ele>971.9999999999999</ele><time>2026-05-02T11:53:06.001Z</time></trkpt><trkpt lat="42.91279608509708" lon="-3.8349207897095052"><ele>974.0</ele><time>2026-05-02T11:53:07.001Z</time></trkpt><trkpt lat="42.91270160775175" lon="-3.834891775482857"><ele>976.0</ele><time>2026-05-02T11:53:08.001Z</time></trkpt><trkpt lat="42.91260994901398" lon="-3.8348622579109475"><ele>976.8</ele><time>2026-05-02T11:53:09.001Z</time></trkpt><trkpt lat="42.91251373061709" lon="-3.834834961087334"><ele>977.5999999999999</ele><time>2026-05-02T11:53:10.001Z</time></trkpt><trkpt lat="42.9124155647083" lon="-3.8348114164097415"><ele>978.4</ele><time>2026-05-02T11:53:11.001Z</time></trkpt><trkpt lat="42.91231656659107" lon="-3.834781725927772"><ele>979.2</ele><time>2026-05-02T11:53:12.001Z</time></trkpt><trkpt lat="42.91221673247616" lon="-3.8347517397629063"><ele>980.0</ele><time>2026-05-02T11:53:13.001Z</time></trkpt><trkpt lat="42.912117217562155" lon="-3.8347236448499156"><ele>980.0</ele><time>2026-05-02T11:53:14.001Z</time></trkpt><trkpt lat="42.91201580419732" lon="-3.8346993851744697"><ele>980.0</ele><time>2026-05-02T11:53:15.001Z</time></trkpt><trkpt lat="42.911919047910494" lon="-3.8346699950550587"><ele>980.0</ele><time>2026-05-02T11:53:16.001Z</time></trkpt><trkpt lat="42.91182345757691" lon="-3.8346402486179234"><ele>980.0</ele><time>2026-05-02T11:53:17.001Z</time></trkpt><trkpt lat="42.91172517100431" lon="-3.834613818498474"><ele>980.0</ele><time>2026-05-02T11:53:17.999Z</time></trkpt><trkpt lat="42.911626613440774" lon="-3.834586262803142"><ele>980.4</ele><time>2026-05-02T11:53:18.999Z</time></trkpt><trkpt lat="42.9115297496096" lon="-3.834561328831959"><ele>980.8</ele><time>2026-05-02T11:53:19.999Z</time></trkpt><trkpt lat="42.91143194526288" lon="-3.8345317257060323"><ele>981.2</ele><time>2026-05-02T11:53:20.999Z</time></trkpt><trkpt lat="42.91133486666693" lon="-3.834501476281212"><ele>981.6</ele><time>2026-05-02T11:53:21.999Z</time></trkpt><trkpt lat="42.91123761052481" lon="-3.834472891895491"><ele>982.0</ele><time>2026-05-02T11:53:22.999Z</time></trkpt><trkpt lat="42.91113809211551" lon="-3.8344435623896667"><ele>982.0</ele><time>2026-05-02T11:53:23.999Z</time></trkpt><trkpt lat="42.911042333700436" lon="-3.834415040844826"><ele>982.0</ele><time>2026-05-02T11:53:24.999Z</time></trkpt><trkpt lat="42.9109423756848" lon="-3.8343852267020084"><ele>982.0</ele><time>2026-05-02T11:53:25.999Z</time></trkpt><trkpt lat="42.91084041555109" lon="-3.83435610437078"><ele>982.0</ele><time>2026-05-02T11:53:26.999Z</time></trkpt><trkpt lat="42.91073976735444" lon="-3.8343334759419663"><ele>982.0</ele><time>2026-05-02T11:53:27.999Z</time></trkpt><trkpt lat="42.91063733888467" lon="-3.8343064101784026"><ele>981.8</ele><time>2026-05-02T11:53:28.999Z</time></trkpt><trkpt lat="42.910535928142714" lon="-3.834279295045221"><ele>981.6</ele><time>2026-05-02T11:53:29.999Z</time></trkpt><trkpt lat="42.910433980276885" lon="-3.834248537585378"><ele>981.3999999999999</ele><time>2026-05-02T11:53:30.999Z</time></trkpt><trkpt lat="42.910332055449445" lon="-3.8342193404982297"><ele>981.1999999999999</ele><time>2026-05-02T11:53:31.999Z</time></trkpt><trkpt lat="42.910229038312885" lon="-3.834195865038091"><ele>981.0</ele><time>2026-05-02T11:53:32.999Z</time></trkpt><trkpt lat="42.91012644970028" lon="-3.8341677557806846"><ele>981.8</ele><time>2026-05-02T11:53:33.999Z</time></trkpt><trkpt lat="42.91002679071777" lon="-3.83413756998184"><ele>982.5999999999999</ele><time>2026-05-02T11:53:35Z</time></trkpt><trkpt lat="42.90992284148203" lon="-3.8341125354869097"><ele>983.4</ele><time>2026-05-02T11:53:36Z</time></trkpt><trkpt lat="42.909820500696775" lon="-3.8340799184957"><ele>984.2</ele><time>2026-05-02T11:53:37Z</time></trkpt><trkpt lat="42.909719152960065" lon="-3.83405115751356"><ele>985.0</ele><time>2026-05-02T11:53:38Z</time></trkpt><trkpt lat="42.90961781897028" lon="-3.8340209397765816"><ele>985.0</ele><time>2026-05-02T11:53:39Z</time></trkpt><trkpt lat="42.90951798737959" lon="-3.8339925656643166"><ele>985.0</ele><time>2026-05-02T11:53:40Z</time></trkpt><trkpt lat="42.90941414958762" lon="-3.8339624267131907"><ele>985.0</ele><time>2026-05-02T11:53:41Z</time></trkpt><trkpt lat="42.90931106739556" lon="-3.8339348854948327"><ele>985.0</ele><time>2026-05-02T11:53:42Z</time></trkpt><trkpt lat="42.909205479735036" lon="-3.8339087647323145"><ele>985.0</ele><time>2026-05-02T11:53:43Z</time></trkpt><trkpt lat="42.90909880863272" lon="-3.8338762976555514"><ele>985.2</ele><time>2026-05-02T11:53:44Z</time></trkpt><trkpt lat="42.90899173117368" lon="-3.8338505533127303"><ele>985.4</ele><time>2026-05-02T11:53:45Z</time></trkpt><trkpt lat="42.908885001511955" lon="-3.8338213533004644"><ele>985.5999999999999</ele><time>2026-05-02T11:53:46Z</time></trkpt><trkpt lat="42.90877995960291" lon="-3.8337895947657206"><ele>985.8</ele><time>2026-05-02T11:53:47Z</time></trkpt><trkpt lat="42.90867593633365" lon="-3.8337591945321816"><ele>986.0</ele><time>2026-05-02T11:53:48Z</time></trkpt><trkpt lat="42.90856742653293" lon="-3.833733173407481"><ele>986.0</ele><time>2026-05-02T11:53:49Z</time></trkpt><trkpt lat="42.90846160839972" lon="-3.833707056802031"><ele>985.9999999999999</ele><time>2026-05-02T11:53:50Z</time></trkpt><trkpt lat="42.90835625616956" lon="-3.833679281671732"><ele>985.9999999999999</ele><time>2026-05-02T11:53:51Z</time></trkpt><trkpt lat="42.90824945132001" lon="-3.833659810783688"><ele>986.0</ele><time>2026-05-02T11:53:52Z</time></trkpt><trkpt lat="42.90818634869319" lon="-3.8336429825384206"><ele>986.0</ele><time>2026-05-02T11:53:53Z</time></trkpt><trkpt lat="42.90811177273898" lon="-3.8336230480202977"><ele>985.5</ele><time>2026-05-02T11:53:54Z</time></trkpt><trkpt lat="42.90792092162019" lon="-3.83355528405095"><ele>985.0</ele><time>2026-05-02T11:53:55Z</time></trkpt><trkpt lat="42.90781106977948" lon="-3.8335336658804144"><ele>984.5</ele><time>2026-05-02T11:53:56Z</time></trkpt><trkpt lat="42.90770641675355" lon="-3.8335009414911854"><ele>984.0</ele><time>2026-05-02T11:53:57Z</time></trkpt><trkpt lat="42.90760032278516" lon="-3.833481007652719"><ele>983.8000000000001</ele><time>2026-05-02T11:53:58Z</time></trkpt><trkpt lat="42.90750030950896" lon="-3.833450896872524"><ele>983.6000000000001</ele><time>2026-05-02T11:53:59Z</time></trkpt><trkpt lat="42.90740414014286" lon="-3.8334243502711014"><ele>983.4</ele><time>2026-05-02T11:54:00Z</time></trkpt><trkpt lat="42.90731067851257" lon="-3.833391241312893"><ele>983.2</ele><time>2026-05-02T11:54:01Z</time></trkpt><trkpt lat="42.90722582766607" lon="-3.833364898981022"><ele>983.0</ele><time>2026-05-02T11:54:02Z</time></trkpt><trkpt lat="42.907147938890354" lon="-3.8333510063084146"><ele>983.0000000000001</ele><time>2026-05-02T11:54:03Z</time></trkpt><trkpt lat="42.90707633604193" lon="-3.833330014813888"><ele>983.0</ele><time>2026-05-02T11:54:04Z</time></trkpt><trkpt lat="42.90701291539063" lon="-3.8333133495017075"><ele>983.0</ele><time>2026-05-02T11:54:05Z</time></trkpt><trkpt lat="42.90691091891242" lon="-3.8333070901816195"><ele>983.0</ele><time>2026-05-02T11:54:07Z</time></trkpt><trkpt lat="42.90683901783054" lon="-3.8332874601719915"><ele>983.0000000000001</ele><time>2026-05-02T11:54:10Z</time></trkpt><trkpt lat="42.906760275538616" lon="-3.8332455451812466"><ele>983.0</ele><time>2026-05-02T11:57:53Z</time></trkpt><trkpt lat="42.90665354428125" lon="-3.8332010732485227"><ele>983.2</ele><time>2026-05-02T11:57:55Z</time></trkpt><trkpt lat="42.906521585990745" lon="-3.8331678772707596"><ele>983.4</ele><time>2026-05-02T11:57:57Z</time></trkpt><trkpt lat="42.90644694037341" lon="-3.8331469386417174"><ele>983.6000000000001</ele><time>2026-05-02T11:57:58Z</time></trkpt><trkpt lat="42.90636756587043" lon="-3.833123820350564"><ele>983.8000000000001</ele><time>2026-05-02T11:57:59Z</time></trkpt><trkpt lat="42.90628471177601" lon="-3.8330992314514196"><ele>984.0</ele><time>2026-05-02T11:58:00Z</time></trkpt><trkpt lat="42.906199578726195" lon="-3.8330775201015723"><ele>984.0</ele><time>2026-05-02T11:58:01Z</time></trkpt><trkpt lat="42.90610784504255" lon="-3.833053483912295"><ele>984.0000000000001</ele><time>2026-05-02T11:58:02Z</time></trkpt><trkpt lat="42.90601266523567" lon="-3.8330304674437152"><ele>984.0000000000001</ele><time>2026-05-02T11:58:03Z</time></trkpt><trkpt lat="42.905915154648206" lon="-3.8330024050883966"><ele>984.0</ele><time>2026-05-02T11:58:04Z</time></trkpt><trkpt lat="42.90581504541094" lon="-3.8329712766609023"><ele>984.0</ele><time>2026-05-02T11:58:05Z</time></trkpt><trkpt lat="42.90571399979064" lon="-3.832949886598459"><ele>983.8000000000001</ele><time>2026-05-02T11:58:06.001Z</time></trkpt><trkpt lat="42.905612868513586" lon="-3.832920857724317"><ele>983.6000000000001</ele><time>2026-05-02T11:58:07.001Z</time></trkpt><trkpt lat="42.90551127692986" lon="-3.8328916914300595"><ele>983.4</ele><time>2026-05-02T11:58:08.001Z</time></trkpt><trkpt lat="42.90541056753883" lon="-3.8328633441969386"><ele>983.2</ele><time>2026-05-02T11:58:09.001Z</time></trkpt><trkpt lat="42.905307615345095" lon="-3.8328334616957425"><ele>983.0</ele><time>2026-05-02T11:58:10.001Z</time></trkpt><trkpt lat="42.90520640841294" lon="-3.832804196611623"><ele>982.25</ele><time>2026-05-02T11:58:11.001Z</time></trkpt><trkpt lat="42.90500140677946" lon="-3.8327460438095793"><ele>981.5</ele><time>2026-05-02T11:58:13.001Z</time></trkpt><trkpt lat="42.904896140314456" lon="-3.832715985674387"><ele>980.75</ele><time>2026-05-02T11:58:14.001Z</time></trkpt><trkpt lat="42.90478930570763" lon="-3.8327079656791687"><ele>980.0</ele><time>2026-05-02T11:58:15.001Z</time></trkpt><trkpt lat="42.904686871365065" lon="-3.832679962065307"><ele>980.0</ele><time>2026-05-02T11:58:16.001Z</time></trkpt><trkpt lat="42.90458277158946" lon="-3.8326515031762662"><ele>980.0</ele><time>2026-05-02T11:58:17.001Z</time></trkpt><trkpt lat="42.90448020844341" lon="-3.8326234643522668"><ele>980.0</ele><time>2026-05-02T11:58:18.001Z</time></trkpt><trkpt lat="42.904375809012386" lon="-3.83259492354986"><ele>980.0</ele><time>2026-05-02T11:58:19.001Z</time></trkpt><trkpt lat="42.90427080849262" lon="-3.8325652276693063"><ele>980.0</ele><time>2026-05-02T11:58:20.001Z</time></trkpt><trkpt lat="42.90416480697659" lon="-3.8325348109058774"><ele>979.2</ele><time>2026-05-02T11:58:21.001Z</time></trkpt><trkpt lat="42.90405943718991" lon="-3.832504575404875"><ele>978.4</ele><time>2026-05-02T11:58:22.001Z</time></trkpt><trkpt lat="42.903956693259545" lon="-3.832475093397726"><ele>977.5999999999999</ele><time>2026-05-02T11:58:23.001Z</time></trkpt><trkpt lat="42.9038502265554" lon="-3.8324445431443466"><ele>976.8</ele><time>2026-05-02T11:58:24.001Z</time></trkpt><trkpt lat="42.90374420117226" lon="-3.8324141195347536"><ele>976.0</ele><time>2026-05-02T11:58:25.001Z</time></trkpt><trkpt lat="42.903636198297164" lon="-3.8323831284888117"><ele>976.0</ele><time>2026-05-02T11:58:26.001Z</time></trkpt><trkpt lat="42.903530430138986" lon="-3.832352778662451"><ele>975.9999999999999</ele><time>2026-05-02T11:58:27.001Z</time></trkpt><trkpt lat="42.90342868156035" lon="-3.8323242185488002"><ele>975.9999999999999</ele><time>2026-05-02T11:58:28.001Z</time></trkpt><trkpt lat="42.903328998833246" lon="-3.8322970039814783"><ele>976.0</ele><time>2026-05-02T11:58:29.001Z</time></trkpt><trkpt lat="42.903230418477754" lon="-3.832270090345726"><ele>976.0</ele><time>2026-05-02T11:58:30.001Z</time></trkpt><trkpt lat="42.9031314952679" lon="-3.8322430831201153"><ele>976.1999999999999</ele><time>2026-05-02T11:58:31.001Z</time></trkpt><trkpt lat="42.90302974565326" lon="-3.832215304253127"><ele>976.3999999999999</ele><time>2026-05-02T11:58:32.001Z</time></trkpt><trkpt lat="42.90292896490867" lon="-3.832187789899729"><ele>976.6</ele><time>2026-05-02T11:58:33.001Z</time></trkpt><trkpt lat="42.90282844314868" lon="-3.8321600428993357"><ele>976.8</ele><time>2026-05-02T11:58:34.001Z</time></trkpt><trkpt lat="42.90272748704044" lon="-3.832132051027608"><ele>977.0</ele><time>2026-05-02T11:58:35.001Z</time></trkpt><trkpt lat="42.90262228834198" lon="-3.83210288271639"><ele>977.4000000000001</ele><time>2026-05-02T11:58:36.001Z</time></trkpt><trkpt lat="42.902512273574885" lon="-3.832072379096672"><ele>977.8000000000001</ele><time>2026-05-02T11:58:37.001Z</time></trkpt><trkpt lat="42.90240636915526" lon="-3.832043015204393"><ele>978.2</ele><time>2026-05-02T11:58:38.001Z</time></trkpt><trkpt lat="42.90229817445053" lon="-3.832013016163522"><ele>978.6</ele><time>2026-05-02T11:58:39.001Z</time></trkpt><trkpt lat="42.902192735931315" lon="-3.8319837813931628"><ele>979.0</ele><time>2026-05-02T11:58:40.001Z</time></trkpt><trkpt lat="42.90208626409547" lon="-3.831954260136285"><ele>979.0</ele><time>2026-05-02T11:58:41.001Z</time></trkpt><trkpt lat="42.90197681441434" lon="-3.831923913161683"><ele>979.0000000000001</ele><time>2026-05-02T11:58:42.001Z</time></trkpt><trkpt lat="42.901869345412095" lon="-3.8318941153557806"><ele>979.0000000000001</ele><time>2026-05-02T11:58:43.001Z</time></trkpt><trkpt lat="42.90176354777536" lon="-3.831864632804291"><ele>979.0</ele><time>2026-05-02T11:58:44.001Z</time></trkpt><trkpt lat="42.901652413403255" lon="-3.831833573222534"><ele>979.0</ele><time>2026-05-02T11:58:45.001Z</time></trkpt><trkpt lat="42.90154543959403" lon="-3.831803676484885"><ele>978.4000000000001</ele><time>2026-05-02T11:58:46.001Z</time></trkpt><trkpt lat="42.90143569928891" lon="-3.831773006538992"><ele>977.8000000000001</ele><time>2026-05-02T11:58:47.001Z</time></trkpt><trkpt lat="42.90132911139078" lon="-3.8317218599291714"><ele>977.1999999999999</ele><time>2026-05-02T11:58:48.001Z</time></trkpt><trkpt lat="42.90121866615312" lon="-3.831696630375567"><ele>976.5999999999999</ele><time>2026-05-02T11:58:49.001Z</time></trkpt><trkpt lat="42.901108947908966" lon="-3.8316689283952936"><ele>976.0</ele><time>2026-05-02T11:58:50.001Z</time></trkpt><trkpt lat="42.90100019981428" lon="-3.8316461027204864"><ele>975.5999999999999</ele><time>2026-05-02T11:58:51.001Z</time></trkpt><trkpt lat="42.90089128130076" lon="-3.831609639392117"><ele>975.1999999999999</ele><time>2026-05-02T11:58:52.001Z</time></trkpt><trkpt lat="42.90078445358648" lon="-3.8315821362751463"><ele>974.8000000000001</ele><time>2026-05-02T11:58:53.001Z</time></trkpt><trkpt lat="42.9006715806243" lon="-3.831555434333641"><ele>974.4000000000001</ele><time>2026-05-02T11:58:54.001Z</time></trkpt><trkpt lat="42.90056109041394" lon="-3.8315199964826547"><ele>974.0</ele><time>2026-05-02T11:58:55.001Z</time></trkpt><trkpt lat="42.90045002914289" lon="-3.8314834493915693"><ele>974.0</ele><time>2026-05-02T11:58:56.001Z</time></trkpt><trkpt lat="42.90034068470848" lon="-3.8314505379411488"><ele>974.0000000000001</ele><time>2026-05-02T11:58:57.001Z</time></trkpt><trkpt lat="42.9002291769759" lon="-3.831425731168862"><ele>974.0000000000001</ele><time>2026-05-02T11:58:58.001Z</time></trkpt><trkpt lat="42.900119287483164" lon="-3.831388719776206"><ele>974.0</ele><time>2026-05-02T11:58:59.001Z</time></trkpt><trkpt lat="42.90001298789135" lon="-3.831367634942178"><ele>974.0</ele><time>2026-05-02T11:59:00.001Z</time></trkpt><trkpt lat="42.899906446454644" lon="-3.831334872387067"><ele>973.8000000000001</ele><time>2026-05-02T11:59:01.001Z</time></trkpt><trkpt lat="42.89979717061084" lon="-3.8313035912541293"><ele>973.6000000000001</ele><time>2026-05-02T11:59:02.001Z</time></trkpt><trkpt lat="42.899687830134376" lon="-3.8312759846662474"><ele>973.4</ele><time>2026-05-02T11:59:03.001Z</time></trkpt><trkpt lat="42.899584085098645" lon="-3.8312426945710785"><ele>973.2</ele><time>2026-05-02T11:59:04.001Z</time></trkpt><trkpt lat="42.8994791443762" lon="-3.8312094638767085"><ele>973.0</ele><time>2026-05-02T11:59:05.001Z</time></trkpt><trkpt lat="42.89937435238376" lon="-3.831183342751914"><ele>973.0</ele><time>2026-05-02T11:59:06.001Z</time></trkpt><trkpt lat="42.8992702597662" lon="-3.8311512056867265"><ele>973.0</ele><time>2026-05-02T11:59:07.001Z</time></trkpt><trkpt lat="42.899163658540125" lon="-3.8311224197154394"><ele>973.0</ele><time>2026-05-02T11:59:08.001Z</time></trkpt><trkpt lat="42.89905931224434" lon="-3.8310929903530053"><ele>973.0</ele><time>2026-05-02T11:59:09.001Z</time></trkpt><trkpt lat="42.898952501532406" lon="-3.831064467274337"><ele>973.0</ele><time>2026-05-02T11:59:10.001Z</time></trkpt><trkpt lat="42.89884613245155" lon="-3.8310394076555174"><ele>973.0</ele><time>2026-05-02T11:59:11.001Z</time></trkpt><trkpt lat="42.8987337345925" lon="-3.8310023728404836"><ele>973.0</ele><time>2026-05-02T11:59:12.001Z</time></trkpt><trkpt lat="42.89862930849291" lon="-3.8309739278217783"><ele>973.0</ele><time>2026-05-02T11:59:13.001Z</time></trkpt><trkpt lat="42.89852819692085" lon="-3.8309502949742824"><ele>973.0</ele><time>2026-05-02T11:59:14.001Z</time></trkpt><trkpt lat="42.89842346884094" lon="-3.830924053774183"><ele>973.0</ele><time>2026-05-02T11:59:15.001Z</time></trkpt><trkpt lat="42.89831850913738" lon="-3.830890896627385"><ele>973.0</ele><time>2026-05-02T11:59:16.001Z</time></trkpt><trkpt lat="42.89821306209116" lon="-3.8308574005498146"><ele>973.0</ele><time>2026-05-02T11:59:17.001Z</time></trkpt><trkpt lat="42.89810795845064" lon="-3.830833142025178"><ele>973.0</ele><time>2026-05-02T11:59:18.001Z</time></trkpt><trkpt lat="42.89800588388089" lon="-3.8308077416704136"><ele>973.0</ele><time>2026-05-02T11:59:19.002Z</time></trkpt><trkpt lat="42.89790204126409" lon="-3.8307754699069956"><ele>973.0</ele><time>2026-05-02T11:59:20.002Z</time></trkpt><trkpt lat="42.897798527546335" lon="-3.83074635879429"><ele>973.0</ele><time>2026-05-02T11:59:21.002Z</time></trkpt><trkpt lat="42.8976966453067" lon="-3.8307171403400213"><ele>973.0</ele><time>2026-05-02T11:59:22.002Z</time></trkpt><trkpt lat="42.89759108730429" lon="-3.8306871508531373"><ele>973.0</ele><time>2026-05-02T11:59:23.002Z</time></trkpt><trkpt lat="42.897483461992344" lon="-3.8306558609865515"><ele>973.0</ele><time>2026-05-02T11:59:24.002Z</time></trkpt><trkpt lat="42.89737375809233" lon="-3.8306289914158493"><ele>973.0</ele><time>2026-05-02T11:59:25.002Z</time></trkpt><trkpt lat="42.897261972816004" lon="-3.830613923073604"><ele>973.0</ele><time>2026-05-02T11:59:26.002Z</time></trkpt><trkpt lat="42.897146243469635" lon="-3.8305821044207544"><ele>973.0</ele><time>2026-05-02T11:59:27.002Z</time></trkpt><trkpt lat="42.89704490814625" lon="-3.830533657372617"><ele>973.0</ele><time>2026-05-02T11:59:28.002Z</time></trkpt><trkpt lat="42.89693997790966" lon="-3.8305030962035467"><ele>973.0</ele><time>2026-05-02T11:59:29.002Z</time></trkpt><trkpt lat="42.896826494358294" lon="-3.830494192363987"><ele>973.0</ele><time>2026-05-02T11:59:30.002Z</time></trkpt><trkpt lat="42.89672010793088" lon="-3.8304649423394044"><ele>972.5999999999999</ele><time>2026-05-02T11:59:31.002Z</time></trkpt><trkpt lat="42.896613638244816" lon="-3.8304356694632262"><ele>972.1999999999999</ele><time>2026-05-02T11:59:32.002Z</time></trkpt><trkpt lat="42.8965085632337" lon="-3.830406780193503"><ele>971.8</ele><time>2026-05-02T11:59:33.002Z</time></trkpt><trkpt lat="42.89640065183042" lon="-3.8303771109020963"><ele>971.4</ele><time>2026-05-02T11:59:34.002Z</time></trkpt><trkpt lat="42.89629583096975" lon="-3.830347851165218"><ele>971.0</ele><time>2026-05-02T11:59:35.002Z</time></trkpt><trkpt lat="42.8961974928753" lon="-3.8302967397008607"><ele>971.0</ele><time>2026-05-02T11:59:36Z</time></trkpt><trkpt lat="42.8960950471393" lon="-3.8302752897690895"><ele>970.9999999999999</ele><time>2026-05-02T11:59:37Z</time></trkpt><trkpt lat="42.895991761730045" lon="-3.8302512753686693"><ele>970.9999999999999</ele><time>2026-05-02T11:59:38Z</time></trkpt><trkpt lat="42.8958916615724" lon="-3.8302215572240197"><ele>971.0</ele><time>2026-05-02T11:59:39Z</time></trkpt><trkpt lat="42.89579248290883" lon="-3.8301885728395173"><ele>971.0</ele><time>2026-05-02T11:59:40Z</time></trkpt><trkpt lat="42.89569528081622" lon="-3.8301606622615436"><ele>972.0</ele><time>2026-05-02T11:59:41Z</time></trkpt><trkpt lat="42.895598721968554" lon="-3.830138171818246"><ele>972.9999999999999</ele><time>2026-05-02T11:59:42Z</time></trkpt><trkpt lat="42.8955018421484" lon="-3.830109645498351"><ele>973.9999999999999</ele><time>2026-05-02T11:59:43Z</time></trkpt><trkpt lat="42.895403670133696" lon="-3.8300782124385186"><ele>975.0</ele><time>2026-05-02T11:59:44Z</time></trkpt><trkpt lat="42.89530845272656" lon="-3.8300491618035593"><ele>976.0</ele><time>2026-05-02T11:59:45Z</time></trkpt><trkpt lat="42.895215543307756" lon="-3.8300215466409524"><ele>976.0</ele><time>2026-05-02T11:59:46Z</time></trkpt><trkpt lat="42.89511977787911" lon="-3.8300006825096267"><ele>975.9999999999999</ele><time>2026-05-02T11:59:47Z</time></trkpt><trkpt lat="42.89502151506891" lon="-3.829970962640436"><ele>975.9999999999999</ele><time>2026-05-02T11:59:48Z</time></trkpt><trkpt lat="42.89492094756218" lon="-3.8299429515534436"><ele>976.0</ele><time>2026-05-02T11:59:49Z</time></trkpt><trkpt lat="42.894823648292956" lon="-3.8299150379866096"><ele>976.0</ele><time>2026-05-02T11:59:50Z</time></trkpt><trkpt lat="42.89472832957366" lon="-3.8298902811985647"><ele>976.1999999999999</ele><time>2026-05-02T11:59:51Z</time></trkpt><trkpt lat="42.894631103265105" lon="-3.829860678266153"><ele>976.3999999999999</ele><time>2026-05-02T11:59:52Z</time></trkpt><trkpt lat="42.89453135136482" lon="-3.8298310145498164"><ele>976.6</ele><time>2026-05-02T11:59:53Z</time></trkpt><trkpt lat="42.89442954649521" lon="-3.8298064082851795"><ele>976.8</ele><time>2026-05-02T11:59:54Z</time></trkpt><trkpt lat="42.894328860219524" lon="-3.829777810226772"><ele>977.0</ele><time>2026-05-02T11:59:55Z</time></trkpt><trkpt lat="42.89422700201595" lon="-3.8297494735327438"><ele>976.6</ele><time>2026-05-02T11:59:56Z</time></trkpt><trkpt lat="42.894126494736526" lon="-3.829717757891247"><ele>976.2</ele><time>2026-05-02T11:59:57Z</time></trkpt><trkpt lat="42.894028565055955" lon="-3.8296905893662534"><ele>975.8</ele><time>2026-05-02T11:59:58Z</time></trkpt><trkpt lat="42.89393127557191" lon="-3.8296618293211298"><ele>975.4</ele><time>2026-05-02T11:59:59Z</time></trkpt><trkpt lat="42.8938316470362" lon="-3.8296349292737792"><ele>975.0</ele><time>2026-05-02T12:00:00Z</time></trkpt><trkpt lat="42.89373256104378" lon="-3.829607114635703"><ele>975.0</ele><time>2026-05-02T12:00:01Z</time></trkpt><trkpt lat="42.89363662125929" lon="-3.8295774483101"><ele>975.0</ele><time>2026-05-02T12:00:02Z</time></trkpt><trkpt lat="42.893539247111335" lon="-3.829553230297628"><ele>975.0</ele><time>2026-05-02T12:00:03Z</time></trkpt><trkpt lat="42.89344452040968" lon="-3.829528206647791"><ele>975.0</ele><time>2026-05-02T12:00:04Z</time></trkpt><trkpt lat="42.89334887254284" lon="-3.8294960001398124"><ele>975.0</ele><time>2026-05-02T12:00:05Z</time></trkpt><trkpt lat="42.89324999476782" lon="-3.8294813990079435"><ele>975.4</ele><time>2026-05-02T12:00:06Z</time></trkpt><trkpt lat="42.89315216670434" lon="-3.829437665262784"><ele>975.8</ele><time>2026-05-02T12:00:07Z</time></trkpt><trkpt lat="42.89305453431304" lon="-3.829410255621374"><ele>976.2</ele><time>2026-05-02T12:00:08Z</time></trkpt><trkpt lat="42.89295560037559" lon="-3.8293836166374984"><ele>976.6</ele><time>2026-05-02T12:00:09Z</time></trkpt><trkpt lat="42.89285576792565" lon="-3.829363695922261"><ele>977.0</ele><time>2026-05-02T12:00:10Z</time></trkpt><trkpt lat="42.89275567516291" lon="-3.829329945698769"><ele>977.8</ele><time>2026-05-02T12:00:11Z</time></trkpt><trkpt lat="42.892653474977884" lon="-3.8292854858031533"><ele>978.6</ele><time>2026-05-02T12:00:12Z</time></trkpt><trkpt lat="42.89255006396215" lon="-3.8292405193474006"><ele>979.3999999999999</ele><time>2026-05-02T12:00:13Z</time></trkpt><trkpt lat="42.89244873519425" lon="-3.829183536497638"><ele>980.1999999999999</ele><time>2026-05-02T12:00:14Z</time></trkpt><trkpt lat="42.89234754809163" lon="-3.8291290294522193"><ele>981.0</ele><time>2026-05-02T12:00:15Z</time></trkpt><trkpt lat="42.892246766255234" lon="-3.8290766888249754"><ele>981.0</ele><time>2026-05-02T12:00:16Z</time></trkpt><trkpt lat="42.89215318319299" lon="-3.82900121155321"><ele>980.9999999999999</ele><time>2026-05-02T12:00:17Z</time></trkpt><trkpt lat="42.892059703352814" lon="-3.828923556408685"><ele>980.9999999999999</ele><time>2026-05-02T12:00:18Z</time></trkpt><trkpt lat="42.89196862235733" lon="-3.8288389516379224"><ele>981.0</ele><time>2026-05-02T12:00:19Z</time></trkpt><trkpt lat="42.89188361026135" lon="-3.8287427514641297"><ele>981.0</ele><time>2026-05-02T12:00:20Z</time></trkpt><trkpt lat="42.891804180027506" lon="-3.8286452511566944"><ele>980.3333333333333</ele><time>2026-05-02T12:00:21Z</time></trkpt><trkpt lat="42.891717878951894" lon="-3.8285248953511917"><ele>979.6666666666666</ele><time>2026-05-02T12:00:22.001Z</time></trkpt><trkpt lat="42.8915820218242" lon="-3.828381125760354"><ele>979.0</ele><time>2026-05-02T12:00:23.001Z</time></trkpt><trkpt lat="42.891453414394846" lon="-3.8282022014102517"><ele>979.0</ele><time>2026-05-02T12:00:24.001Z</time></trkpt><trkpt lat="42.8914485069266" lon="-3.828062539913753"><ele>979.0000000000001</ele><time>2026-05-02T12:00:26.001Z</time></trkpt><trkpt lat="42.89138467782728" lon="-3.8279348625694047"><ele>979.0000000000001</ele><time>2026-05-02T12:00:27.001Z</time></trkpt><trkpt lat="42.891323684906126" lon="-3.827807537291319"><ele>979.0</ele><time>2026-05-02T12:00:28.001Z</time></trkpt><trkpt lat="42.89126025326535" lon="-3.827678406583917"><ele>979.0</ele><time>2026-05-02T12:00:29.001Z</time></trkpt><trkpt lat="42.89119676691757" lon="-3.8275523584166704"><ele>979.0</ele><time>2026-05-02T12:00:30.001Z</time></trkpt><trkpt lat="42.89113425578663" lon="-3.8274255803001065"><ele>979.0</ele><time>2026-05-02T12:00:31.001Z</time></trkpt><trkpt lat="42.891063605118255" lon="-3.827296361641202"><ele>979.0</ele><time>2026-05-02T12:00:32.001Z</time></trkpt><trkpt lat="42.89099776313413" lon="-3.8271737917122666"><ele>979.0</ele><time>2026-05-02T12:00:33.001Z</time></trkpt><trkpt lat="42.89093446404192" lon="-3.8270484318561646"><ele>978.0</ele><time>2026-05-02T12:00:34.001Z</time></trkpt><trkpt lat="42.890879222059176" lon="-3.8269166700007493"><ele>977.0000000000001</ele><time>2026-05-02T12:00:35.001Z</time></trkpt><trkpt lat="42.89081869300846" lon="-3.826791676219452"><ele>976.0000000000001</ele><time>2026-05-02T12:00:36.001Z</time></trkpt><trkpt lat="42.89076068943324" lon="-3.8266661904221206"><ele>975.0</ele><time>2026-05-02T12:00:37.001Z</time></trkpt><trkpt lat="42.89070973874646" lon="-3.8265370121490294"><ele>974.0</ele><time>2026-05-02T12:00:38.001Z</time></trkpt><trkpt lat="42.89065785095683" lon="-3.8264005393258174"><ele>973.5</ele><time>2026-05-02T12:00:39.001Z</time></trkpt><trkpt lat="42.8906084463818" lon="-3.8262615370759945"><ele>973.0</ele><time>2026-05-02T12:00:40.001Z</time></trkpt><trkpt lat="42.89056098274194" lon="-3.826117193059197"><ele>972.5</ele><time>2026-05-02T12:00:41.001Z</time></trkpt><trkpt lat="42.890520205247455" lon="-3.825978684986017"><ele>972.0</ele><time>2026-05-02T12:00:42.001Z</time></trkpt><trkpt lat="42.8904837766083" lon="-3.825834338297645"><ele>971.5</ele><time>2026-05-02T12:00:43.001Z</time></trkpt><trkpt lat="42.8904421334011" lon="-3.825685721147621"><ele>971.0</ele><time>2026-05-02T12:00:44.001Z</time></trkpt><trkpt lat="42.890408371653685" lon="-3.82553272531697"><ele>970.5</ele><time>2026-05-02T12:00:45.001Z</time></trkpt><trkpt lat="42.89037542790151" lon="-3.825382993244518"><ele>970.0</ele><time>2026-05-02T12:00:46.001Z</time></trkpt><trkpt lat="42.8903420872126" lon="-3.8252326692908607"><ele>969.5</ele><time>2026-05-02T12:00:47.001Z</time></trkpt><trkpt lat="42.89030899375414" lon="-3.8250802211226294"><ele>969.0</ele><time>2026-05-02T12:00:48.001Z</time></trkpt><trkpt lat="42.89027522489791" lon="-3.824931047088057"><ele>968.5</ele><time>2026-05-02T12:00:49.001Z</time></trkpt><trkpt lat="42.89024400343717" lon="-3.824787812052753"><ele>968.0</ele><time>2026-05-02T12:00:50.001Z</time></trkpt><trkpt lat="42.89020997727852" lon="-3.824639805984182"><ele>968.0</ele><time>2026-05-02T12:00:51.001Z</time></trkpt><trkpt lat="42.89017755784716" lon="-3.824492840149978"><ele>968.0</ele><time>2026-05-02T12:00:52.001Z</time></trkpt><trkpt lat="42.89014361146661" lon="-3.8243422078279496"><ele>968.0</ele><time>2026-05-02T12:00:53.001Z</time></trkpt><trkpt lat="42.890109062644164" lon="-3.824194836551034"><ele>968.0</ele><time>2026-05-02T12:00:54.001Z</time></trkpt><trkpt lat="42.89007787279605" lon="-3.8240437921884203"><ele>965.75</ele><time>2026-05-02T12:00:55.001Z</time></trkpt><trkpt lat="42.890035095542686" lon="-3.823896621308459"><ele>963.5</ele><time>2026-05-02T12:00:56.001Z</time></trkpt><trkpt lat="42.890005488875545" lon="-3.823753193812389"><ele>961.25</ele><time>2026-05-02T12:00:57.001Z</time></trkpt><trkpt lat="42.88997322363905" lon="-3.8236039794571424"><ele>959.0</ele><time>2026-05-02T12:00:58.001Z</time></trkpt><trkpt lat="42.88993942463723" lon="-3.823452015653778"><ele>958.75</ele><time>2026-05-02T12:00:59.001Z</time></trkpt><trkpt lat="42.88990167569582" lon="-3.8233049177881613"><ele>958.5</ele><time>2026-05-02T12:01:00.001Z</time></trkpt><trkpt lat="42.88987230356736" lon="-3.823151658676675"><ele>958.25</ele><time>2026-05-02T12:01:01.001Z</time></trkpt><trkpt lat="42.88983793289938" lon="-3.8230004558189554"><ele>958.0</ele><time>2026-05-02T12:01:02.001Z</time></trkpt><trkpt lat="42.889799639555484" lon="-3.8228504494348594"><ele>958.0</ele><time>2026-05-02T12:01:03.001Z</time></trkpt><trkpt lat="42.88976410367511" lon="-3.822699395797126"><ele>958.0</ele><time>2026-05-02T12:01:04.001Z</time></trkpt><trkpt lat="42.88972378013475" lon="-3.8225532177655257"><ele>958.0</ele><time>2026-05-02T12:01:05.001Z</time></trkpt><trkpt lat="42.88967601917645" lon="-3.822406408088046"><ele>958.0</ele><time>2026-05-02T12:01:06.001Z</time></trkpt><trkpt lat="42.889630811564814" lon="-3.8222611396107813"><ele>957.75</ele><time>2026-05-02T12:01:07.001Z</time></trkpt><trkpt lat="42.88958167972382" lon="-3.822114910556097"><ele>957.5</ele><time>2026-05-02T12:01:08.001Z</time></trkpt><trkpt lat="42.88952476494139" lon="-3.821974815587081"><ele>957.25</ele><time>2026-05-02T12:01:09.001Z</time></trkpt><trkpt lat="42.88946502919133" lon="-3.8218384311300753"><ele>957.0</ele><time>2026-05-02T12:01:10.001Z</time></trkpt><trkpt lat="42.88940114855192" lon="-3.821706290618272"><ele>956.5</ele><time>2026-05-02T12:01:11.001Z</time></trkpt><trkpt lat="42.889333553250495" lon="-3.821574820387251"><ele>956.0</ele><time>2026-05-02T12:01:12.001Z</time></trkpt><trkpt lat="42.889263255839886" lon="-3.8214495052854036"><ele>955.5</ele><time>2026-05-02T12:01:13.001Z</time></trkpt><trkpt lat="42.88919884368366" lon="-3.82131942437076"><ele>955.0</ele><time>2026-05-02T12:01:14.001Z</time></trkpt><trkpt lat="42.889131032676644" lon="-3.821196072738546"><ele>954.0</ele><time>2026-05-02T12:01:15.001Z</time></trkpt><trkpt lat="42.88906521654802" lon="-3.8210678998907723"><ele>953.0</ele><time>2026-05-02T12:01:16.001Z</time></trkpt><trkpt lat="42.888996736354315" lon="-3.8209428686128026"><ele>952.0</ele><time>2026-05-02T12:01:17.001Z</time></trkpt><trkpt lat="42.888925240847456" lon="-3.820821585265204"><ele>951.0</ele><time>2026-05-02T12:01:18.001Z</time></trkpt><trkpt lat="42.88884784085661" lon="-3.8207045498098084"><ele>950.75</ele><time>2026-05-02T12:01:19.001Z</time></trkpt><trkpt lat="42.888776723312155" lon="-3.8205806463240175"><ele>950.5</ele><time>2026-05-02T12:01:20.001Z</time></trkpt><trkpt lat="42.888705995264495" lon="-3.820457457547269"><ele>950.25</ele><time>2026-05-02T12:01:21.001Z</time></trkpt><trkpt lat="42.88863365439721" lon="-3.8203420443633784"><ele>950.0</ele><time>2026-05-02T12:01:22.001Z</time></trkpt><trkpt lat="42.88856449645405" lon="-3.8202208649394342"><ele>949.5</ele><time>2026-05-02T12:01:23.001Z</time></trkpt><trkpt lat="42.88849144605171" lon="-3.820097695324788"><ele>949.0</ele><time>2026-05-02T12:01:24.001Z</time></trkpt><trkpt lat="42.88842066119723" lon="-3.819975160508295"><ele>948.5</ele><time>2026-05-02T12:01:25.001Z</time></trkpt><trkpt lat="42.888350148386856" lon="-3.819852397638934"><ele>948.0</ele><time>2026-05-02T12:01:26.001Z</time></trkpt><trkpt lat="42.888278645914596" lon="-3.8197318953171826"><ele>947.25</ele><time>2026-05-02T12:01:27.001Z</time></trkpt><trkpt lat="42.88820742107559" lon="-3.819613185351703"><ele>946.5</ele><time>2026-05-02T12:01:28.001Z</time></trkpt><trkpt lat="42.88813572825808" lon="-3.8194939298288015"><ele>945.75</ele><time>2026-05-02T12:01:29.001Z</time></trkpt><trkpt lat="42.8880652027576" lon="-3.81936891303608"><ele>945.0</ele><time>2026-05-02T12:01:30.001Z</time></trkpt><trkpt lat="42.887996761584475" lon="-3.8192455946368233"><ele>944.25</ele><time>2026-05-02T12:01:31.001Z</time></trkpt><trkpt lat="42.88793038324191" lon="-3.819120298634354"><ele>943.5</ele><time>2026-05-02T12:01:32.001Z</time></trkpt><trkpt lat="42.88785101002104" lon="-3.819014210931633"><ele>942.75</ele><time>2026-05-02T12:01:33.001Z</time></trkpt><trkpt lat="42.88777812244538" lon="-3.818889879488313"><ele>942.0</ele><time>2026-05-02T12:01:34.001Z</time></trkpt><trkpt lat="42.88770543346834" lon="-3.818765887028392"><ele>942.0</ele><time>2026-05-02T12:01:35.001Z</time></trkpt><trkpt lat="42.887632511707544" lon="-3.818641497358262"><ele>942.0</ele><time>2026-05-02T12:01:36.001Z</time></trkpt><trkpt lat="42.887557210737185" lon="-3.818513049143674"><ele>942.0</ele><time>2026-05-02T12:01:37.001Z</time></trkpt><trkpt lat="42.88748590083255" lon="-3.8183914089632327"><ele>942.0</ele><time>2026-05-02T12:01:38.001Z</time></trkpt><trkpt lat="42.887413860244685" lon="-3.8182685224301953"><ele>940.75</ele><time>2026-05-02T12:01:39.001Z</time></trkpt><trkpt lat="42.88734225914958" lon="-3.8181463854873265"><ele>939.5</ele><time>2026-05-02T12:01:40.001Z</time></trkpt><trkpt lat="42.88726988792798" lon="-3.8180229350454216"><ele>938.25</ele><time>2026-05-02T12:01:41.002Z</time></trkpt><trkpt lat="42.88719949916513" lon="-3.817902923465161"><ele>937.0</ele><time>2026-05-02T12:01:42Z</time></trkpt><trkpt lat="42.887128432517585" lon="-3.8177821563579846"><ele>937.0</ele><time>2026-05-02T12:01:43Z</time></trkpt><trkpt lat="42.88705994354369" lon="-3.8176657697611525"><ele>937.0</ele><time>2026-05-02T12:01:44Z</time></trkpt><trkpt lat="42.88700146536918" lon="-3.817534262858817"><ele>937.0</ele><time>2026-05-02T12:01:45Z</time></trkpt><trkpt lat="42.8869144779164" lon="-3.817423334747724"><ele>937.0</ele><time>2026-05-02T12:01:46Z</time></trkpt><trkpt lat="42.88685292717752" lon="-3.817292880701018"><ele>937.25</ele><time>2026-05-02T12:01:47Z</time></trkpt><trkpt lat="42.88678235827701" lon="-3.8171723861509177"><ele>937.5</ele><time>2026-05-02T12:01:48Z</time></trkpt><trkpt lat="42.88671356304657" lon="-3.81705104641341"><ele>937.75</ele><time>2026-05-02T12:01:49Z</time></trkpt><trkpt lat="42.886637994666565" lon="-3.8169342322668007"><ele>938.0</ele><time>2026-05-02T12:01:50Z</time></trkpt><trkpt lat="42.88656922801949" lon="-3.8168161345165754"><ele>937.4</ele><time>2026-05-02T12:01:51Z</time></trkpt><trkpt lat="42.88649935741375" lon="-3.8166973649722187"><ele>936.8</ele><time>2026-05-02T12:01:52Z</time></trkpt><trkpt lat="42.88642923685437" lon="-3.8165765563972203"><ele>936.2</ele><time>2026-05-02T12:01:53Z</time></trkpt><trkpt lat="42.88636249663876" lon="-3.816455408000696"><ele>935.6</ele><time>2026-05-02T12:01:54Z</time></trkpt><trkpt lat="42.88629468832216" lon="-3.8163355793569016"><ele>935.0</ele><time>2026-05-02T12:01:55Z</time></trkpt><trkpt lat="42.88622227156099" lon="-3.8162176059822146"><ele>935.0</ele><time>2026-05-02T12:01:56Z</time></trkpt><trkpt lat="42.88615141667196" lon="-3.8160993587008263"><ele>935.0</ele><time>2026-05-02T12:01:57Z</time></trkpt><trkpt lat="42.886079116807196" lon="-3.8159823612757178"><ele>935.0</ele><time>2026-05-02T12:01:58Z</time></trkpt><trkpt lat="42.886008123868955" lon="-3.8158618424121284"><ele>935.0</ele><time>2026-05-02T12:01:59Z</time></trkpt><trkpt lat="42.88594211539848" lon="-3.815744296478045"><ele>935.0</ele><time>2026-05-02T12:02:00Z</time></trkpt><trkpt lat="42.8858719938806" lon="-3.8156244797584793"><ele>935.6</ele><time>2026-05-02T12:02:01Z</time></trkpt><trkpt lat="42.88580241759076" lon="-3.8155065376264528"><ele>936.2</ele><time>2026-05-02T12:02:02Z</time></trkpt><trkpt lat="42.88573450232084" lon="-3.815390482343489"><ele>936.8</ele><time>2026-05-02T12:02:03Z</time></trkpt><trkpt lat="42.88565965755942" lon="-3.8152772443707206"><ele>937.4</ele><time>2026-05-02T12:02:04Z</time></trkpt><trkpt lat="42.885595590167796" lon="-3.815153720965693"><ele>938.0</ele><time>2026-05-02T12:02:05Z</time></trkpt><trkpt lat="42.88552101527584" lon="-3.815030417463657"><ele>936.5999999999999</ele><time>2026-05-02T12:02:06Z</time></trkpt><trkpt lat="42.885467493904954" lon="-3.81493010685143"><ele>935.1999999999999</ele><time>2026-05-02T12:02:07Z</time></trkpt><trkpt lat="42.88541132950801" lon="-3.8148052682131595"><ele>933.8</ele><time>2026-05-02T12:02:08Z</time></trkpt><trkpt lat="42.885356632771064" lon="-3.814678409429635"><ele>932.4</ele><time>2026-05-02T12:02:09Z</time></trkpt><trkpt lat="42.88530505890971" lon="-3.8145519752256574"><ele>931.0</ele><time>2026-05-02T12:02:10Z</time></trkpt><trkpt lat="42.88524466628437" lon="-3.8144291907567243"><ele>930.8</ele><time>2026-05-02T12:02:11Z</time></trkpt><trkpt lat="42.88519501769327" lon="-3.8143053124536133"><ele>930.5999999999999</ele><time>2026-05-02T12:02:12Z</time></trkpt><trkpt lat="42.88514021873027" lon="-3.8141779781379364"><ele>930.4</ele><time>2026-05-02T12:02:13Z</time></trkpt><trkpt lat="42.88508851659432" lon="-3.8140536917015604"><ele>930.2</ele><time>2026-05-02T12:02:14Z</time></trkpt><trkpt lat="42.88503562523088" lon="-3.8139310740058985"><ele>930.0</ele><time>2026-05-02T12:02:15Z</time></trkpt><trkpt lat="42.88498363731649" lon="-3.81381755157976"><ele>930.8</ele><time>2026-05-02T12:02:16Z</time></trkpt><trkpt lat="42.88493044547994" lon="-3.8137009457471565"><ele>931.6</ele><time>2026-05-02T12:02:17Z</time></trkpt><trkpt lat="42.88487326223037" lon="-3.8135810608257463"><ele>932.4000000000001</ele><time>2026-05-02T12:02:18Z</time></trkpt><trkpt lat="42.884814281671446" lon="-3.8134701804294258"><ele>933.2</ele><time>2026-05-02T12:02:19Z</time></trkpt><trkpt lat="42.884752543011906" lon="-3.813361679118327"><ele>934.0</ele><time>2026-05-02T12:02:20Z</time></trkpt><trkpt lat="42.884688706618746" lon="-3.813255030257941"><ele>934.0</ele><time>2026-05-02T12:02:21Z</time></trkpt><trkpt lat="42.88461994166108" lon="-3.8131441548129588"><ele>934.0000000000001</ele><time>2026-05-02T12:02:22Z</time></trkpt><trkpt lat="42.88454712249477" lon="-3.8130364087168256"><ele>934.0000000000001</ele><time>2026-05-02T12:02:23Z</time></trkpt><trkpt lat="42.8844713749164" lon="-3.8129308064665586"><ele>934.0</ele><time>2026-05-02T12:02:24Z</time></trkpt><trkpt lat="42.88438875739574" lon="-3.8128263176805035"><ele>934.0</ele><time>2026-05-02T12:02:25Z</time></trkpt><trkpt lat="42.88430926575807" lon="-3.8127188714667977"><ele>934.6</ele><time>2026-05-02T12:02:26.001Z</time></trkpt><trkpt lat="42.88422787995329" lon="-3.8126123625004293"><ele>935.2</ele><time>2026-05-02T12:02:27.001Z</time></trkpt><trkpt lat="42.884146405877715" lon="-3.8125048609470618"><ele>935.8000000000001</ele><time>2026-05-02T12:02:28.001Z</time></trkpt><trkpt lat="42.884070230459955" lon="-3.812397353392267"><ele>936.4000000000001</ele><time>2026-05-02T12:02:29.001Z</time></trkpt><trkpt lat="42.88400177774654" lon="-3.812292343683997"><ele>937.0</ele><time>2026-05-02T12:02:30.001Z</time></trkpt><trkpt lat="42.88391208624272" lon="-3.812192096127578"><ele>937.0</ele><time>2026-05-02T12:02:31.001Z</time></trkpt><trkpt lat="42.883830551519466" lon="-3.8120700909080525"><ele>937.0</ele><time>2026-05-02T12:02:32.001Z</time></trkpt><trkpt lat="42.88374804109672" lon="-3.811953030818358"><ele>937.0</ele><time>2026-05-02T12:02:33.001Z</time></trkpt><trkpt lat="42.883674416804716" lon="-3.8118275951673546"><ele>937.0</ele><time>2026-05-02T12:02:34.001Z</time></trkpt><trkpt lat="42.88360222749821" lon="-3.8117043819466567"><ele>935.5</ele><time>2026-05-02T12:02:35.001Z</time></trkpt><trkpt lat="42.88353099999978" lon="-3.811577457442852"><ele>934.0</ele><time>2026-05-02T12:02:36.001Z</time></trkpt><trkpt lat="42.88346278260228" lon="-3.8114467097374556"><ele>932.5</ele><time>2026-05-02T12:02:37.001Z</time></trkpt><trkpt lat="42.88339685359114" lon="-3.8113186809695345"><ele>931.0</ele><time>2026-05-02T12:02:38.001Z</time></trkpt><trkpt lat="42.883329974749344" lon="-3.81118951457533"><ele>931.0</ele><time>2026-05-02T12:02:39.001Z</time></trkpt><trkpt lat="42.88326235387753" lon="-3.811062025662494"><ele>931.0</ele><time>2026-05-02T12:02:40.001Z</time></trkpt><trkpt lat="42.883194526581896" lon="-3.8109400897145678"><ele>931.0</ele><time>2026-05-02T12:02:41.001Z</time></trkpt><trkpt lat="42.883128138065004" lon="-3.8108151699277197"><ele>931.0</ele><time>2026-05-02T12:02:42.001Z</time></trkpt><trkpt lat="42.88306249960758" lon="-3.8106930982469542"><ele>931.0</ele><time>2026-05-02T12:02:43.001Z</time></trkpt><trkpt lat="42.883004120635" lon="-3.8105701965999117"><ele>930.9999999999999</ele><time>2026-05-02T12:02:44.001Z</time></trkpt><trkpt lat="42.882951423266796" lon="-3.8104568043587337"><ele>930.9999999999999</ele><time>2026-05-02T12:02:45.001Z</time></trkpt><trkpt lat="42.88288569980263" lon="-3.81033828630301"><ele>931.0</ele><time>2026-05-02T12:02:46.001Z</time></trkpt><trkpt lat="42.882821409155554" lon="-3.8102243755380423"><ele>931.0</ele><time>2026-05-02T12:02:47.001Z</time></trkpt><trkpt lat="42.88276157477586" lon="-3.810109400078615"><ele>931.5999999999999</ele><time>2026-05-02T12:02:48.001Z</time></trkpt><trkpt lat="42.882703180803716" lon="-3.809998311648631"><ele>932.1999999999999</ele><time>2026-05-02T12:02:49.001Z</time></trkpt><trkpt lat="42.88264513857506" lon="-3.8098890975068174"><ele>932.8000000000001</ele><time>2026-05-02T12:02:50.001Z</time></trkpt><trkpt lat="42.88258734136443" lon="-3.809781223267594"><ele>933.4000000000001</ele><time>2026-05-02T12:02:51.001Z</time></trkpt><trkpt lat="42.88252712070475" lon="-3.8096716082189417"><ele>934.0</ele><time>2026-05-02T12:02:52.001Z</time></trkpt><trkpt lat="42.88246546745017" lon="-3.80956154203765"><ele>934.0</ele><time>2026-05-02T12:02:53.001Z</time></trkpt><trkpt lat="42.88240692611184" lon="-3.8094506518669626"><ele>934.0000000000001</ele><time>2026-05-02T12:02:54.001Z</time></trkpt><trkpt lat="42.882349001665155" lon="-3.8093390304874606"><ele>934.0000000000001</ele><time>2026-05-02T12:02:55.001Z</time></trkpt><trkpt lat="42.882293193403626" lon="-3.8092264749871525"><ele>934.0</ele><time>2026-05-02T12:02:56.001Z</time></trkpt><trkpt lat="42.882234576162936" lon="-3.8091144171321423"><ele>934.0</ele><time>2026-05-02T12:02:57.001Z</time></trkpt><trkpt lat="42.882181428934814" lon="-3.8090008743304056"><ele>934.4000000000001</ele><time>2026-05-02T12:02:58.001Z</time></trkpt><trkpt lat="42.88210977495727" lon="-3.8089013205509312"><ele>934.8000000000001</ele><time>2026-05-02T12:02:59.001Z</time></trkpt><trkpt lat="42.88204902771494" lon="-3.808789242599597"><ele>935.1999999999999</ele><time>2026-05-02T12:03:00.001Z</time></trkpt><trkpt lat="42.88199052021718" lon="-3.8086812968336226"><ele>935.5999999999999</ele><time>2026-05-02T12:03:01.001Z</time></trkpt><trkpt lat="42.88193000078742" lon="-3.8085696390021897"><ele>936.0</ele><time>2026-05-02T12:03:02.001Z</time></trkpt><trkpt lat="42.881869581591424" lon="-3.808458166188186"><ele>936.4</ele><time>2026-05-02T12:03:03.001Z</time></trkpt><trkpt lat="42.88180843130807" lon="-3.808345344535702"><ele>936.8</ele><time>2026-05-02T12:03:04.001Z</time></trkpt><trkpt lat="42.881747266097825" lon="-3.808232495366289"><ele>937.1999999999999</ele><time>2026-05-02T12:03:05.001Z</time></trkpt><trkpt lat="42.88168477270202" lon="-3.8081171958094284"><ele>937.5999999999999</ele><time>2026-05-02T12:03:06.001Z</time></trkpt><trkpt lat="42.881622953829975" lon="-3.808003899564092"><ele>938.0</ele><time>2026-05-02T12:03:07.001Z</time></trkpt><trkpt lat="42.88155945070859" lon="-3.8078877611357296"><ele>938.0</ele><time>2026-05-02T12:03:08.001Z</time></trkpt><trkpt lat="42.88150651701788" lon="-3.8077601176879443"><ele>938.0</ele><time>2026-05-02T12:03:09.001Z</time></trkpt><trkpt lat="42.88143127621429" lon="-3.8076568354490425"><ele>938.0</ele><time>2026-05-02T12:03:10.001Z</time></trkpt><trkpt lat="42.88136780649909" lon="-3.8075411528766026"><ele>938.0</ele><time>2026-05-02T12:03:11.001Z</time></trkpt><trkpt lat="42.88130444233682" lon="-3.8074157409643212"><ele>938.0</ele><time>2026-05-02T12:03:12.001Z</time></trkpt><trkpt lat="42.8812519346108" lon="-3.807299664287834"><ele>938.0</ele><time>2026-05-02T12:03:13.001Z</time></trkpt><trkpt lat="42.881183728134744" lon="-3.8071697653719054"><ele>938.0</ele><time>2026-05-02T12:03:14.001Z</time></trkpt><trkpt lat="42.881106734209354" lon="-3.8070335213852946"><ele>938.0</ele><time>2026-05-02T12:03:15.001Z</time></trkpt><trkpt lat="42.88097600968313" lon="-3.8068207296959664"><ele>938.0</ele><time>2026-05-02T12:03:16.001Z</time></trkpt><trkpt lat="42.88091229576259" lon="-3.8066988608663244"><ele>938.0</ele><time>2026-05-02T12:03:18.001Z</time></trkpt><trkpt lat="42.88084992906423" lon="-3.8065804145673026"><ele>938.0</ele><time>2026-05-02T12:03:19.001Z</time></trkpt><trkpt lat="42.88078777907413" lon="-3.8064553369183587"><ele>938.0</ele><time>2026-05-02T12:03:20.001Z</time></trkpt><trkpt lat="42.88072650044574" lon="-3.806338525551171"><ele>938.0</ele><time>2026-05-02T12:03:21.001Z</time></trkpt><trkpt lat="42.880661778002406" lon="-3.806218768392785"><ele>938.0</ele><time>2026-05-02T12:03:22.001Z</time></trkpt><trkpt lat="42.88059030266111" lon="-3.8061058314057563"><ele>938.2</ele><time>2026-05-02T12:03:23.001Z</time></trkpt><trkpt lat="42.880522542324016" lon="-3.8059837724665853"><ele>938.4</ele><time>2026-05-02T12:03:24.001Z</time></trkpt><trkpt lat="42.880458847480256" lon="-3.8058671646430278"><ele>938.6000000000001</ele><time>2026-05-02T12:03:25.001Z</time></trkpt><trkpt lat="42.880394786281094" lon="-3.8057500076967195"><ele>938.8000000000001</ele><time>2026-05-02T12:03:26.001Z</time></trkpt><trkpt lat="42.880329654827285" lon="-3.8056308643419885"><ele>939.0</ele><time>2026-05-02T12:03:27.001Z</time></trkpt><trkpt lat="42.88026481224247" lon="-3.80551379321875"><ele>939.0</ele><time>2026-05-02T12:03:28.001Z</time></trkpt><trkpt lat="42.88020138345276" lon="-3.8053937672982134"><ele>939.0000000000001</ele><time>2026-05-02T12:03:29.001Z</time></trkpt><trkpt lat="42.880141375666135" lon="-3.8052731836266256"><ele>939.0000000000001</ele><time>2026-05-02T12:03:30.001Z</time></trkpt><trkpt lat="42.880076928707055" lon="-3.8051524015458638"><ele>939.0</ele><time>2026-05-02T12:03:31.001Z</time></trkpt><trkpt lat="42.88001181870647" lon="-3.8050345061467947"><ele>939.0</ele><time>2026-05-02T12:03:32.001Z</time></trkpt><trkpt lat="42.87994726947352" lon="-3.8049134944413963"><ele>939.0</ele><time>2026-05-02T12:03:33.001Z</time></trkpt><trkpt lat="42.87988263399997" lon="-3.804792631731551"><ele>939.0000000000001</ele><time>2026-05-02T12:03:34.001Z</time></trkpt><trkpt lat="42.8798092150011" lon="-3.804679511475328"><ele>939.0000000000001</ele><time>2026-05-02T12:03:35.001Z</time></trkpt><trkpt lat="42.879746468037126" lon="-3.804562597714747"><ele>939.0</ele><time>2026-05-02T12:03:36.001Z</time></trkpt><trkpt lat="42.879682610491905" lon="-3.8044389429861774"><ele>939.0</ele><time>2026-05-02T12:03:37.001Z</time></trkpt><trkpt lat="42.87961488427115" lon="-3.804318198063056"><ele>939.0</ele><time>2026-05-02T12:03:38.001Z</time></trkpt><trkpt lat="42.87955544844758" lon="-3.804200924423928"><ele>939.0000000000001</ele><time>2026-05-02T12:03:39.001Z</time></trkpt><trkpt lat="42.87948708291152" lon="-3.804070665029696"><ele>939.0000000000001</ele><time>2026-05-02T12:03:40.001Z</time></trkpt><trkpt lat="42.879430413283714" lon="-3.803953993809081"><ele>939.0</ele><time>2026-05-02T12:03:41.001Z</time></trkpt><trkpt lat="42.87935916215018" lon="-3.8038328576294393"><ele>939.0</ele><time>2026-05-02T12:03:42.001Z</time></trkpt><trkpt lat="42.87928926955334" lon="-3.8037169687757086"><ele>939.0</ele><time>2026-05-02T12:03:43.001Z</time></trkpt><trkpt lat="42.87922780045" lon="-3.8035849338552743"><ele>939.0000000000001</ele><time>2026-05-02T12:03:44.001Z</time></trkpt><trkpt lat="42.87914351700715" lon="-3.803464143189483"><ele>939.0000000000001</ele><time>2026-05-02T12:03:45.001Z</time></trkpt><trkpt lat="42.879076562334625" lon="-3.8033416571051206"><ele>939.0</ele><time>2026-05-02T12:03:46.001Z</time></trkpt><trkpt lat="42.879019314763205" lon="-3.8032369293800112"><ele>939.0</ele><time>2026-05-02T12:03:47.001Z</time></trkpt><trkpt lat="42.878953743965944" lon="-3.8031169747690354"><ele>939.0</ele><time>2026-05-02T12:03:48Z</time></trkpt><trkpt lat="42.87888070260748" lon="-3.8029975229761668"><ele>939.0000000000001</ele><time>2026-05-02T12:03:49Z</time></trkpt><trkpt lat="42.87882787550489" lon="-3.8028642929295167"><ele>939.0000000000001</ele><time>2026-05-02T12:03:50Z</time></trkpt><trkpt lat="42.878761361166696" lon="-3.8027398522744793"><ele>939.0</ele><time>2026-05-02T12:03:51Z</time></trkpt><trkpt lat="42.87869660228858" lon="-3.802616031097046"><ele>939.0</ele><time>2026-05-02T12:03:52Z</time></trkpt><trkpt lat="42.87862323835308" lon="-3.802496376433055"><ele>939.0</ele><time>2026-05-02T12:03:53Z</time></trkpt><trkpt lat="42.87855595033108" lon="-3.802374687509148"><ele>939.0</ele><time>2026-05-02T12:03:54Z</time></trkpt><trkpt lat="42.87848739583143" lon="-3.802252961716415"><ele>939.0</ele><time>2026-05-02T12:03:55Z</time></trkpt><trkpt lat="42.8784131808634" lon="-3.8021343285521203"><ele>939.0</ele><time>2026-05-02T12:03:56Z</time></trkpt><trkpt lat="42.87833243866251" lon="-3.8020260668606"><ele>938.5</ele><time>2026-05-02T12:03:57Z</time></trkpt><trkpt lat="42.87825105086748" lon="-3.8019174229494843"><ele>938.0</ele><time>2026-05-02T12:03:58Z</time></trkpt><trkpt lat="42.87816681642829" lon="-3.8018148923824198"><ele>937.5</ele><time>2026-05-02T12:03:59Z</time></trkpt><trkpt lat="42.878083205360234" lon="-3.8017133319319982"><ele>937.0</ele><time>2026-05-02T12:04:00Z</time></trkpt><trkpt lat="42.877995880122214" lon="-3.801611229709346"><ele>937.0</ele><time>2026-05-02T12:04:01Z</time></trkpt><trkpt lat="42.877908697397274" lon="-3.8015141734548554"><ele>937.0</ele><time>2026-05-02T12:04:02Z</time></trkpt><trkpt lat="42.87782008286478" lon="-3.8014147154176983"><ele>937.0</ele><time>2026-05-02T12:04:03Z</time></trkpt><trkpt lat="42.877732418143566" lon="-3.8013114203036085"><ele>937.0</ele><time>2026-05-02T12:04:04Z</time></trkpt><trkpt lat="42.877644362128095" lon="-3.8012095400681103"><ele>937.0</ele><time>2026-05-02T12:04:05Z</time></trkpt><trkpt lat="42.87755593841878" lon="-3.8011097350773944"><ele>937.0</ele><time>2026-05-02T12:04:06Z</time></trkpt><trkpt lat="42.87746857204879" lon="-3.801010212502107"><ele>937.0</ele><time>2026-05-02T12:04:07Z</time></trkpt><trkpt lat="42.87738637671766" lon="-3.8009125560447625"><ele>937.0</ele><time>2026-05-02T12:04:08Z</time></trkpt><trkpt lat="42.87730092610618" lon="-3.8008155580667413"><ele>937.0</ele><time>2026-05-02T12:04:09Z</time></trkpt><trkpt lat="42.8772148351692" lon="-3.8007219399011514"><ele>936.5</ele><time>2026-05-02T12:04:10Z</time></trkpt><trkpt lat="42.877125255536754" lon="-3.8006239393761594"><ele>936.0</ele><time>2026-05-02T12:04:11Z</time></trkpt><trkpt lat="42.877035652787754" lon="-3.8005260239118024"><ele>935.5</ele><time>2026-05-02T12:04:12Z</time></trkpt><trkpt lat="42.876944834403815" lon="-3.800428935530935"><ele>935.0</ele><time>2026-05-02T12:04:13Z</time></trkpt><trkpt lat="42.87685536181898" lon="-3.8003351658952265"><ele>934.5</ele><time>2026-05-02T12:04:14Z</time></trkpt><trkpt lat="42.87676046316843" lon="-3.800243510951773"><ele>934.0</ele><time>2026-05-02T12:04:15Z</time></trkpt><trkpt lat="42.87666422031065" lon="-3.800158726789386"><ele>933.5</ele><time>2026-05-02T12:04:16Z</time></trkpt><trkpt lat="42.87656610282904" lon="-3.800084457679082"><ele>933.0</ele><time>2026-05-02T12:04:17Z</time></trkpt><trkpt lat="42.87646482572135" lon="-3.800012274026301"><ele>931.5</ele><time>2026-05-02T12:04:18Z</time></trkpt><trkpt lat="42.876362066436805" lon="-3.7999443521806637"><ele>930.0</ele><time>2026-05-02T12:04:19Z</time></trkpt><trkpt lat="42.87625867211608" lon="-3.7998789923460725"><ele>928.5</ele><time>2026-05-02T12:04:20Z</time></trkpt><trkpt lat="42.87615167563963" lon="-3.799819595701813"><ele>927.0</ele><time>2026-05-02T12:04:21Z</time></trkpt><trkpt lat="42.87604300432718" lon="-3.799770634103061"><ele>926.0</ele><time>2026-05-02T12:04:22.001Z</time></trkpt><trkpt lat="42.87593236201622" lon="-3.7997283693637725"><ele>925.0</ele><time>2026-05-02T12:04:23.001Z</time></trkpt><trkpt lat="42.87582185665686" lon="-3.7996901910205385"><ele>924.0</ele><time>2026-05-02T12:04:24.001Z</time></trkpt><trkpt lat="42.87571134497804" lon="-3.799653183047059"><ele>923.0</ele><time>2026-05-02T12:04:25.001Z</time></trkpt><trkpt lat="42.87560121048243" lon="-3.7996218102127273"><ele>923.0</ele><time>2026-05-02T12:04:26.001Z</time></trkpt><trkpt lat="42.87549095306587" lon="-3.7995993443472407"><ele>923.0</ele><time>2026-05-02T12:04:27.001Z</time></trkpt><trkpt lat="42.87538438101817" lon="-3.799578800155375"><ele>923.0</ele><time>2026-05-02T12:04:28.001Z</time></trkpt><trkpt lat="42.87526658834603" lon="-3.7995676346547103"><ele>923.0</ele><time>2026-05-02T12:04:29.001Z</time></trkpt><trkpt lat="42.87513173070391" lon="-3.799583650962861"><ele>922.5999999999999</ele><time>2026-05-02T12:04:30.001Z</time></trkpt><trkpt lat="42.87502300430479" lon="-3.799577928276586"><ele>922.1999999999999</ele><time>2026-05-02T12:04:31.001Z</time></trkpt><trkpt lat="42.87495811330983" lon="-3.7995403211383696"><ele>921.8</ele><time>2026-05-02T12:04:32.001Z</time></trkpt><trkpt lat="42.874867936814425" lon="-3.7995186264396814"><ele>921.4</ele><time>2026-05-02T12:04:33.001Z</time></trkpt><trkpt lat="42.874768636993295" lon="-3.7994994230127648"><ele>921.0</ele><time>2026-05-02T12:04:34.001Z</time></trkpt><trkpt lat="42.8746722071777" lon="-3.799477333152502"><ele>921.0</ele><time>2026-05-02T12:04:35.001Z</time></trkpt><trkpt lat="42.87457749262084" lon="-3.799452359046145"><ele>920.9999999999999</ele><time>2026-05-02T12:04:36.001Z</time></trkpt><trkpt lat="42.874484985119096" lon="-3.799425552692067"><ele>920.9999999999999</ele><time>2026-05-02T12:04:37.001Z</time></trkpt><trkpt lat="42.87439478196989" lon="-3.7993931298015173"><ele>921.0</ele><time>2026-05-02T12:04:38.001Z</time></trkpt><trkpt lat="42.87430316762155" lon="-3.7993596679298256"><ele>921.0</ele><time>2026-05-02T12:04:39.001Z</time></trkpt><trkpt lat="42.874206628051574" lon="-3.7993254343722103"><ele>922.0</ele><time>2026-05-02T12:04:40.001Z</time></trkpt><trkpt lat="42.87411282150213" lon="-3.799285376752305"><ele>922.9999999999999</ele><time>2026-05-02T12:04:41.001Z</time></trkpt><trkpt lat="42.87401541844323" lon="-3.7992486569139516"><ele>923.9999999999999</ele><time>2026-05-02T12:04:42.001Z</time></trkpt><trkpt lat="42.873917246622945" lon="-3.799218510395172"><ele>925.0</ele><time>2026-05-02T12:04:43.001Z</time></trkpt><trkpt lat="42.873816542081784" lon="-3.799185948756367"><ele>926.0</ele><time>2026-05-02T12:04:44.001Z</time></trkpt><trkpt lat="42.87371477744607" lon="-3.799149828008384"><ele>926.0</ele><time>2026-05-02T12:04:45.001Z</time></trkpt><trkpt lat="42.87361097895609" lon="-3.7991129291571446"><ele>925.9999999999999</ele><time>2026-05-02T12:04:46.001Z</time></trkpt><trkpt lat="42.87350725151779" lon="-3.799076190508012"><ele>925.9999999999999</ele><time>2026-05-02T12:04:47.001Z</time></trkpt><trkpt lat="42.873402173482496" lon="-3.7990402176992886"><ele>926.0</ele><time>2026-05-02T12:04:48.001Z</time></trkpt><trkpt lat="42.87329976557296" lon="-3.799002264861779"><ele>926.0</ele><time>2026-05-02T12:04:49.001Z</time></trkpt><trkpt lat="42.87319569310932" lon="-3.7989626685278335"><ele>926.1999999999999</ele><time>2026-05-02T12:04:50.001Z</time></trkpt><trkpt lat="42.87309063951978" lon="-3.7989252136568674"><ele>926.3999999999999</ele><time>2026-05-02T12:04:51.001Z</time></trkpt><trkpt lat="42.87298828602313" lon="-3.798896313926119"><ele>926.6</ele><time>2026-05-02T12:04:52.001Z</time></trkpt><trkpt lat="42.87287262954526" lon="-3.7988603607533777"><ele>926.8</ele><time>2026-05-02T12:04:53.001Z</time></trkpt><trkpt lat="42.87277852701018" lon="-3.798828331670789"><ele>927.0</ele><time>2026-05-02T12:04:54.001Z</time></trkpt><trkpt lat="42.87269366612766" lon="-3.7988096837883463"><ele>926.0</ele><time>2026-05-02T12:04:55.001Z</time></trkpt><trkpt lat="42.87235883194563" lon="-3.7986709674270416"><ele>925.0</ele><time>2026-05-02T12:04:58.001Z</time></trkpt><trkpt lat="42.872250222732234" lon="-3.7986286805706078"><ele>925.0</ele><time>2026-05-02T12:04:59.001Z</time></trkpt><trkpt lat="42.87214272767289" lon="-3.798591416820761"><ele>925.0</ele><time>2026-05-02T12:05:00.001Z</time></trkpt><trkpt lat="42.872034173290956" lon="-3.798546716463819"><ele>925.0</ele><time>2026-05-02T12:05:01.001Z</time></trkpt><trkpt lat="42.87192343939746" lon="-3.798507237755393"><ele>925.0</ele><time>2026-05-02T12:05:02.001Z</time></trkpt><trkpt lat="42.87181423169471" lon="-3.7984731780892718"><ele>925.0</ele><time>2026-05-02T12:05:03.001Z</time></trkpt><trkpt lat="42.87170869287478" lon="-3.7984454665278524"><ele>925.0</ele><time>2026-05-02T12:05:04.001Z</time></trkpt><trkpt lat="42.8715998808068" lon="-3.798404131816002"><ele>925.0</ele><time>2026-05-02T12:05:05.001Z</time></trkpt><trkpt lat="42.871493402058725" lon="-3.7983673665460627"><ele>925.0</ele><time>2026-05-02T12:05:06.001Z</time></trkpt><trkpt lat="42.87138643892591" lon="-3.798326195191678"><ele>925.0</ele><time>2026-05-02T12:05:07.001Z</time></trkpt><trkpt lat="42.87128361522297" lon="-3.798287518541248"><ele>925.0</ele><time>2026-05-02T12:05:08.001Z</time></trkpt><trkpt lat="42.871179338315486" lon="-3.7982479836667666"><ele>925.0</ele><time>2026-05-02T12:05:09.001Z</time></trkpt><trkpt lat="42.87107484052909" lon="-3.7982186261064963"><ele>925.0</ele><time>2026-05-02T12:05:10.001Z</time></trkpt><trkpt lat="42.87097091143721" lon="-3.798181932567194"><ele>925.0</ele><time>2026-05-02T12:05:11.001Z</time></trkpt><trkpt lat="42.87087354726784" lon="-3.7981417092509706"><ele>925.0</ele><time>2026-05-02T12:05:12.001Z</time></trkpt><trkpt lat="42.8707755851692" lon="-3.798105530328281"><ele>925.4</ele><time>2026-05-02T12:05:13.001Z</time></trkpt><trkpt lat="42.87067405652355" lon="-3.79807129094402"><ele>925.8</ele><time>2026-05-02T12:05:14.001Z</time></trkpt><trkpt lat="42.870574581968654" lon="-3.798034186275077"><ele>926.2</ele><time>2026-05-02T12:05:15.001Z</time></trkpt><trkpt lat="42.87047016386062" lon="-3.7979990900065004"><ele>926.6</ele><time>2026-05-02T12:05:16.001Z</time></trkpt><trkpt lat="42.87037022829162" lon="-3.7979639174249478"><ele>927.0</ele><time>2026-05-02T12:05:17.001Z</time></trkpt><trkpt lat="42.8702668524605" lon="-3.7979277410518306"><ele>927.0</ele><time>2026-05-02T12:05:18.001Z</time></trkpt><trkpt lat="42.87016029767946" lon="-3.797893220221887"><ele>927.0</ele><time>2026-05-02T12:05:19.001Z</time></trkpt><trkpt lat="42.870057782768086" lon="-3.7978540891094386"><ele>927.0</ele><time>2026-05-02T12:05:20.001Z</time></trkpt><trkpt lat="42.86995416670922" lon="-3.797814046053589"><ele>927.0</ele><time>2026-05-02T12:05:21.001Z</time></trkpt><trkpt lat="42.86984896082994" lon="-3.7977726677613637"><ele>927.0</ele><time>2026-05-02T12:05:22.001Z</time></trkpt><trkpt lat="42.869748418589964" lon="-3.7977426751045815"><ele>927.4000000000001</ele><time>2026-05-02T12:05:23.001Z</time></trkpt><trkpt lat="42.86964817244098" lon="-3.7977118496157294"><ele>927.8000000000001</ele><time>2026-05-02T12:05:24.001Z</time></trkpt><trkpt lat="42.86955082801386" lon="-3.797673539366058"><ele>928.2</ele><time>2026-05-02T12:05:25.001Z</time></trkpt><trkpt lat="42.86945298813399" lon="-3.797634368154093"><ele>928.6</ele><time>2026-05-02T12:05:26.001Z</time></trkpt><trkpt lat="42.86935488712669" lon="-3.797594251428599"><ele>929.0</ele><time>2026-05-02T12:05:27.001Z</time></trkpt><trkpt lat="42.86925536637289" lon="-3.7975819000328106"><ele>929.6</ele><time>2026-05-02T12:05:28.001Z</time></trkpt><trkpt lat="42.86915851958641" lon="-3.797542015201635"><ele>930.2</ele><time>2026-05-02T12:05:29.001Z</time></trkpt><trkpt lat="42.86906384139724" lon="-3.7975026203164446"><ele>930.8000000000001</ele><time>2026-05-02T12:05:30.001Z</time></trkpt><trkpt lat="42.8689674704717" lon="-3.797467878324113"><ele>931.4000000000001</ele><time>2026-05-02T12:05:31.001Z</time></trkpt><trkpt lat="42.86887294718666" lon="-3.7974330065934017"><ele>932.0</ele><time>2026-05-02T12:05:32.001Z</time></trkpt><trkpt lat="42.868774058363606" lon="-3.7973964366789708"><ele>932.0</ele><time>2026-05-02T12:05:33.001Z</time></trkpt><trkpt lat="42.86867468651468" lon="-3.7973601694768093"><ele>932.0</ele><time>2026-05-02T12:05:34.001Z</time></trkpt><trkpt lat="42.86857310881581" lon="-3.7973208902284656"><ele>932.0</ele><time>2026-05-02T12:05:35.001Z</time></trkpt><trkpt lat="42.868468790832374" lon="-3.797283411580773"><ele>932.0</ele><time>2026-05-02T12:05:36.001Z</time></trkpt><trkpt lat="42.86836664389975" lon="-3.797244595012675"><ele>932.0</ele><time>2026-05-02T12:05:37.001Z</time></trkpt><trkpt lat="42.8682651045579" lon="-3.797207996320956"><ele>931.2</ele><time>2026-05-02T12:05:38.001Z</time></trkpt><trkpt lat="42.86816400402888" lon="-3.797175190507309"><ele>930.4000000000001</ele><time>2026-05-02T12:05:39.001Z</time></trkpt><trkpt lat="42.86806063905469" lon="-3.7971351930863833"><ele>929.5999999999999</ele><time>2026-05-02T12:05:40.001Z</time></trkpt><trkpt lat="42.8679574934213" lon="-3.797098651261774"><ele>928.8</ele><time>2026-05-02T12:05:41.001Z</time></trkpt><trkpt lat="42.86785299388048" lon="-3.7970608539994584"><ele>928.0</ele><time>2026-05-02T12:05:42.001Z</time></trkpt><trkpt lat="42.86774657745196" lon="-3.7970224925944653"><ele>928.0</ele><time>2026-05-02T12:05:43.001Z</time></trkpt><trkpt lat="42.867645104009426" lon="-3.796980734531148"><ele>928.0</ele><time>2026-05-02T12:05:44.001Z</time></trkpt><trkpt lat="42.86754208085906" lon="-3.7969407088906246"><ele>928.0</ele><time>2026-05-02T12:05:45.001Z</time></trkpt><trkpt lat="42.86744002620181" lon="-3.796903656999456"><ele>928.0</ele><time>2026-05-02T12:05:46.001Z</time></trkpt><trkpt lat="42.86733712182332" lon="-3.796869588241062"><ele>928.0</ele><time>2026-05-02T12:05:47.001Z</time></trkpt><trkpt lat="42.86723571320234" lon="-3.7968232401135253"><ele>927.5999999999999</ele><time>2026-05-02T12:05:48.001Z</time></trkpt><trkpt lat="42.86713327344898" lon="-3.796780891308017"><ele>927.1999999999999</ele><time>2026-05-02T12:05:49.001Z</time></trkpt><trkpt lat="42.867033870730644" lon="-3.796731121019417"><ele>926.8</ele><time>2026-05-02T12:05:50.001Z</time></trkpt><trkpt lat="42.86693252855099" lon="-3.796677328289064"><ele>926.4</ele><time>2026-05-02T12:05:51.001Z</time></trkpt><trkpt lat="42.86683519851733" lon="-3.7966202560581825"><ele>926.0</ele><time>2026-05-02T12:05:52.001Z</time></trkpt><trkpt lat="42.866732554396414" lon="-3.7965560349874425"><ele>926.0</ele><time>2026-05-02T12:05:53.001Z</time></trkpt><trkpt lat="42.866612261844956" lon="-3.796494241541525"><ele>926.0</ele><time>2026-05-02T12:05:54.001Z</time></trkpt><trkpt lat="42.866447677367546" lon="-3.796387263183719"><ele>926.0</ele><time>2026-05-02T12:05:55Z</time></trkpt><trkpt lat="42.866280179206" lon="-3.796275998816501"><ele>926.0</ele><time>2026-05-02T12:05:56.001Z</time></trkpt><trkpt lat="42.86622597384442" lon="-3.7962310070208547"><ele>925.9999999999999</ele><time>2026-05-02T12:05:58Z</time></trkpt><trkpt lat="42.86612330442724" lon="-3.7961606121614944"><ele>925.9999999999999</ele><time>2026-05-02T12:05:59Z</time></trkpt><trkpt lat="42.866020045909664" lon="-3.796088885858353"><ele>926.0</ele><time>2026-05-02T12:06:00Z</time></trkpt><trkpt lat="42.86591528843549" lon="-3.7960212342285193"><ele>926.0</ele><time>2026-05-02T12:06:01Z</time></trkpt><trkpt lat="42.86581169280056" lon="-3.795961240114666"><ele>925.25</ele><time>2026-05-02T12:06:02Z</time></trkpt><trkpt lat="42.865711984701825" lon="-3.7958950235998254"><ele>924.5</ele><time>2026-05-02T12:06:03Z</time></trkpt><trkpt lat="42.86561283895171" lon="-3.7958178574859365"><ele>923.75</ele><time>2026-05-02T12:06:04Z</time></trkpt><trkpt lat="42.86550644717172" lon="-3.7957608379178174"><ele>923.0</ele><time>2026-05-02T12:06:05Z</time></trkpt><trkpt lat="42.86540726497448" lon="-3.7956899999802385"><ele>923.0</ele><time>2026-05-02T12:06:06Z</time></trkpt><trkpt lat="42.86530306697392" lon="-3.7956309832772153"><ele>923.0</ele><time>2026-05-02T12:06:07Z</time></trkpt><trkpt lat="42.86520535424573" lon="-3.7955642968158303"><ele>923.0</ele><time>2026-05-02T12:06:08Z</time></trkpt><trkpt lat="42.8651045795457" lon="-3.7954944088996228"><ele>923.0</ele><time>2026-05-02T12:06:09Z</time></trkpt><trkpt lat="42.86500437543375" lon="-3.7954289523998144"><ele>923.0</ele><time>2026-05-02T12:06:10Z</time></trkpt><trkpt lat="42.8649017175159" lon="-3.795361591129205"><ele>922.8</ele><time>2026-05-02T12:06:11Z</time></trkpt><trkpt lat="42.864803080820884" lon="-3.7952892292601814"><ele>922.5999999999999</ele><time>2026-05-02T12:06:12Z</time></trkpt><trkpt lat="42.86470152264216" lon="-3.7952284685623083"><ele>922.4000000000001</ele><time>2026-05-02T12:06:13Z</time></trkpt><trkpt lat="42.86460363806997" lon="-3.795162393170432"><ele>922.2</ele><time>2026-05-02T12:06:14Z</time></trkpt><trkpt lat="42.8645077598521" lon="-3.795098555981075"><ele>922.0</ele><time>2026-05-02T12:06:15Z</time></trkpt><trkpt lat="42.864409309191956" lon="-3.795032773831458"><ele>922.0</ele><time>2026-05-02T12:06:16Z</time></trkpt><trkpt lat="42.864307415517516" lon="-3.7949656662322577"><ele>922.0</ele><time>2026-05-02T12:06:17Z</time></trkpt><trkpt lat="42.86420774356328" lon="-3.794899094024301"><ele>922.0</ele><time>2026-05-02T12:06:18Z</time></trkpt><trkpt lat="42.86410091305905" lon="-3.7948366469009884"><ele>922.0</ele><time>2026-05-02T12:06:19Z</time></trkpt><trkpt lat="42.86400092196554" lon="-3.7947702734901676"><ele>920.6</ele><time>2026-05-02T12:06:20Z</time></trkpt><trkpt lat="42.86390153392576" lon="-3.794708487440421"><ele>919.2</ele><time>2026-05-02T12:06:21Z</time></trkpt><trkpt lat="42.86380171684636" lon="-3.794641439976133"><ele>917.8</ele><time>2026-05-02T12:06:22Z</time></trkpt><trkpt lat="42.86370936729015" lon="-3.7945872308076756"><ele>916.4</ele><time>2026-05-02T12:06:23Z</time></trkpt><trkpt lat="42.86362151577058" lon="-3.794574912926708"><ele>915.0</ele><time>2026-05-02T12:06:25Z</time></trkpt><trkpt lat="42.86354688777643" lon="-3.7945920615484643"><ele>913.0</ele><time>2026-05-02T12:06:27Z</time></trkpt><trkpt lat="42.86320519134863" lon="-3.7942621559100176"><ele>911.0</ele><time>2026-05-02T12:06:28Z</time></trkpt><trkpt lat="42.86311642272134" lon="-3.7941794274646896"><ele>911.0</ele><time>2026-05-02T12:06:29Z</time></trkpt><trkpt lat="42.86301548266954" lon="-3.794114702205591"><ele>911.0</ele><time>2026-05-02T12:06:30Z</time></trkpt><trkpt lat="42.86291431300292" lon="-3.7940475042499022"><ele>911.0</ele><time>2026-05-02T12:06:31Z</time></trkpt><trkpt lat="42.86281100829264" lon="-3.7939820977086587"><ele>911.0</ele><time>2026-05-02T12:06:32Z</time></trkpt><trkpt lat="42.862703120997985" lon="-3.793934362804001"><ele>910.1999999999999</ele><time>2026-05-02T12:06:33.001Z</time></trkpt><trkpt lat="42.86259874801239" lon="-3.793866219494586"><ele>909.3999999999999</ele><time>2026-05-02T12:06:34.001Z</time></trkpt><trkpt lat="42.86249782205556" lon="-3.793800326697551"><ele>908.6</ele><time>2026-05-02T12:06:35.001Z</time></trkpt><trkpt lat="42.862398701558284" lon="-3.793735612668772"><ele>907.8</ele><time>2026-05-02T12:06:36.001Z</time></trkpt><trkpt lat="42.862298438715996" lon="-3.7936701527919467"><ele>907.0</ele><time>2026-05-02T12:06:37.001Z</time></trkpt><trkpt lat="42.86220058689973" lon="-3.7935929918082105"><ele>907.0</ele><time>2026-05-02T12:06:38.001Z</time></trkpt><trkpt lat="42.862098114371534" lon="-3.7935220713660196"><ele>907.0</ele><time>2026-05-02T12:06:39.001Z</time></trkpt><trkpt lat="42.86199312094316" lon="-3.7934536214402534"><ele>907.0</ele><time>2026-05-02T12:06:40.001Z</time></trkpt><trkpt lat="42.86189143919509" lon="-3.7933854716946867"><ele>907.0</ele><time>2026-05-02T12:06:41.001Z</time></trkpt><trkpt lat="42.86179205973166" lon="-3.7933211758613057"><ele>906.75</ele><time>2026-05-02T12:06:42.001Z</time></trkpt><trkpt lat="42.86168468597208" lon="-3.793260327933097"><ele>906.5</ele><time>2026-05-02T12:06:43.001Z</time></trkpt><trkpt lat="42.861581430112565" lon="-3.793187832801967"><ele>906.25</ele><time>2026-05-02T12:06:44.001Z</time></trkpt><trkpt lat="42.86147966599854" lon="-3.7931189990552308"><ele>906.0</ele><time>2026-05-02T12:06:45.001Z</time></trkpt><trkpt lat="42.86137380225921" lon="-3.793046593367829"><ele>906.0</ele><time>2026-05-02T12:06:46.001Z</time></trkpt><trkpt lat="42.86126767531538" lon="-3.7929840446855"><ele>906.0</ele><time>2026-05-02T12:06:47.001Z</time></trkpt><trkpt lat="42.861160680049174" lon="-3.792911264246845"><ele>906.0</ele><time>2026-05-02T12:06:48.001Z</time></trkpt><trkpt lat="42.86105869174926" lon="-3.7928432622793498"><ele>906.0</ele><time>2026-05-02T12:06:49.001Z</time></trkpt><trkpt lat="42.86095111516195" lon="-3.792770930460332"><ele>904.5</ele><time>2026-05-02T12:06:50.001Z</time></trkpt><trkpt lat="42.86084689592178" lon="-3.7927000460403253"><ele>903.0</ele><time>2026-05-02T12:06:51.001Z</time></trkpt><trkpt lat="42.8607411214105" lon="-3.792630797222409"><ele>901.5</ele><time>2026-05-02T12:06:52.001Z</time></trkpt><trkpt lat="42.86063935580314" lon="-3.7925631815336924"><ele>900.0</ele><time>2026-05-02T12:06:53.001Z</time></trkpt><trkpt lat="42.86053656541229" lon="-3.7924927005609317"><ele>900.0</ele><time>2026-05-02T12:06:54.001Z</time></trkpt><trkpt lat="42.86043102180171" lon="-3.7924310153183063"><ele>900.0</ele><time>2026-05-02T12:06:55.001Z</time></trkpt><trkpt lat="42.860329763856015" lon="-3.7923616885791254"><ele>900.0</ele><time>2026-05-02T12:06:56.001Z</time></trkpt><trkpt lat="42.860228990746975" lon="-3.7922949243574253"><ele>900.0</ele><time>2026-05-02T12:06:57.001Z</time></trkpt><trkpt lat="42.86012580854652" lon="-3.792234679874845"><ele>898.5</ele><time>2026-05-02T12:06:58.001Z</time></trkpt><trkpt lat="42.86002546549421" lon="-3.792159611810738"><ele>897.0</ele><time>2026-05-02T12:06:59.001Z</time></trkpt><trkpt lat="42.85992129836703" lon="-3.7920919547642775"><ele>895.5</ele><time>2026-05-02T12:07:00.001Z</time></trkpt><trkpt lat="42.85981827580772" lon="-3.7920265990787754"><ele>894.0</ele><time>2026-05-02T12:07:01.001Z</time></trkpt><trkpt lat="42.859714400321266" lon="-3.791962568121049"><ele>894.0</ele><time>2026-05-02T12:07:02.001Z</time></trkpt><trkpt lat="42.85961289817127" lon="-3.791891747788948"><ele>894.0</ele><time>2026-05-02T12:07:03.001Z</time></trkpt><trkpt lat="42.859508029342585" lon="-3.7918263541279362"><ele>894.0</ele><time>2026-05-02T12:07:04.001Z</time></trkpt><trkpt lat="42.859407777225734" lon="-3.791757681600514"><ele>894.0</ele><time>2026-05-02T12:07:05.001Z</time></trkpt><trkpt lat="42.85930207944542" lon="-3.7916918605985486"><ele>893.0</ele><time>2026-05-02T12:07:06.001Z</time></trkpt><trkpt lat="42.85920255528951" lon="-3.791619915593716"><ele>892.0000000000001</ele><time>2026-05-02T12:07:07.001Z</time></trkpt><trkpt lat="42.859103854420354" lon="-3.791554526985668"><ele>891.0000000000001</ele><time>2026-05-02T12:07:08.001Z</time></trkpt><trkpt lat="42.85900188392511" lon="-3.791488776001825"><ele>890.0</ele><time>2026-05-02T12:07:09.001Z</time></trkpt><trkpt lat="42.85889490868613" lon="-3.79143801267179"><ele>889.0</ele><time>2026-05-02T12:07:10.001Z</time></trkpt><trkpt lat="42.858802511352316" lon="-3.791355158014502"><ele>889.0</ele><time>2026-05-02T12:07:11.001Z</time></trkpt><trkpt lat="42.85870154299241" lon="-3.7912865281276695"><ele>889.0000000000001</ele><time>2026-05-02T12:07:12.001Z</time></trkpt><trkpt lat="42.85859887002344" lon="-3.7912237624308323"><ele>889.0000000000001</ele><time>2026-05-02T12:07:13.001Z</time></trkpt><trkpt lat="42.85850136487218" lon="-3.7911598275650964"><ele>889.0</ele><time>2026-05-02T12:07:14.001Z</time></trkpt><trkpt lat="42.85840205557866" lon="-3.791096639823051"><ele>889.0</ele><time>2026-05-02T12:07:15.001Z</time></trkpt><trkpt lat="42.85829095492309" lon="-3.7910419765200474"><ele>888.4000000000001</ele><time>2026-05-02T12:07:16.001Z</time></trkpt><trkpt lat="42.858165542307454" lon="-3.7909597385341427"><ele>887.8000000000001</ele><time>2026-05-02T12:07:17.001Z</time></trkpt><trkpt lat="42.858094845806356" lon="-3.790913380065552"><ele>887.1999999999999</ele><time>2026-05-02T12:07:18.001Z</time></trkpt><trkpt lat="42.85799295885223" lon="-3.790846568763034"><ele>886.5999999999999</ele><time>2026-05-02T12:07:19.001Z</time></trkpt><trkpt lat="42.85789263512848" lon="-3.7907807825562165"><ele>886.0</ele><time>2026-05-02T12:07:20.001Z</time></trkpt><trkpt lat="42.857791512663766" lon="-3.790714472605363"><ele>886.0</ele><time>2026-05-02T12:07:21.001Z</time></trkpt><trkpt lat="42.857688255609524" lon="-3.790646844483575"><ele>885.9999999999999</ele><time>2026-05-02T12:07:22.001Z</time></trkpt><trkpt lat="42.857587104425065" lon="-3.7905806701501272"><ele>885.9999999999999</ele><time>2026-05-02T12:07:23.001Z</time></trkpt><trkpt lat="42.857489744609" lon="-3.790516976159037"><ele>886.0</ele><time>2026-05-02T12:07:24.001Z</time></trkpt><trkpt lat="42.857392409962245" lon="-3.790453298672349"><ele>886.0</ele><time>2026-05-02T12:07:25.001Z</time></trkpt><trkpt lat="42.85729219399914" lon="-3.7903877362028164"><ele>885.5</ele><time>2026-05-02T12:07:26.001Z</time></trkpt><trkpt lat="42.85719128054922" lon="-3.7903217173999915"><ele>885.0</ele><time>2026-05-02T12:07:27.001Z</time></trkpt><trkpt lat="42.85709010256768" lon="-3.790255670849411"><ele>884.5</ele><time>2026-05-02T12:07:28.001Z</time></trkpt><trkpt lat="42.85698690328801" lon="-3.7901883607692124"><ele>884.0</ele><time>2026-05-02T12:07:29.001Z</time></trkpt><trkpt lat="42.856886655142034" lon="-3.790122975418457"><ele>884.0</ele><time>2026-05-02T12:07:30.001Z</time></trkpt><trkpt lat="42.856786201964816" lon="-3.7900405497784804"><ele>884.0</ele><time>2026-05-02T12:07:31.001Z</time></trkpt><trkpt lat="42.85668448083981" lon="-3.789969032624296"><ele>884.0</ele><time>2026-05-02T12:07:32.001Z</time></trkpt><trkpt lat="42.856578503422774" lon="-3.7899101367587473"><ele>884.0</ele><time>2026-05-02T12:07:33.001Z</time></trkpt><trkpt lat="42.85647798281967" lon="-3.7898441473727247"><ele>882.25</ele><time>2026-05-02T12:07:34.001Z</time></trkpt><trkpt lat="42.856376278090124" lon="-3.7897802210124603"><ele>880.5</ele><time>2026-05-02T12:07:35.001Z</time></trkpt><trkpt lat="42.85627369674588" lon="-3.7897111379267616"><ele>878.75</ele><time>2026-05-02T12:07:36.001Z</time></trkpt><trkpt lat="42.856166708915666" lon="-3.7896393173274285"><ele>877.0</ele><time>2026-05-02T12:07:37.001Z</time></trkpt><trkpt lat="42.85606299196222" lon="-3.789572183474969"><ele>877.0</ele><time>2026-05-02T12:07:38.001Z</time></trkpt><trkpt lat="42.855959573550486" lon="-3.7895021918675855"><ele>877.0</ele><time>2026-05-02T12:07:39.001Z</time></trkpt><trkpt lat="42.85585506467869" lon="-3.789432975744865"><ele>877.0</ele><time>2026-05-02T12:07:40.001Z</time></trkpt><trkpt lat="42.8557549593681" lon="-3.7893629761865455"><ele>877.0</ele><time>2026-05-02T12:07:41.001Z</time></trkpt><trkpt lat="42.85565017675329" lon="-3.789303688779817"><ele>876.0</ele><time>2026-05-02T12:07:42.001Z</time></trkpt><trkpt lat="42.85554877726926" lon="-3.7892310545049654"><ele>875.0</ele><time>2026-05-02T12:07:43.001Z</time></trkpt><trkpt lat="42.855445911661704" lon="-3.7891611751738514"><ele>874.0</ele><time>2026-05-02T12:07:44.001Z</time></trkpt><trkpt lat="42.8553450684407" lon="-3.7890982552948445"><ele>873.0</ele><time>2026-05-02T12:07:45.001Z</time></trkpt><trkpt lat="42.85524141638312" lon="-3.7890256254157224"><ele>873.0</ele><time>2026-05-02T12:07:46.001Z</time></trkpt><trkpt lat="42.8551343727348" lon="-3.7889588978456414"><ele>873.0</ele><time>2026-05-02T12:07:47.001Z</time></trkpt><trkpt lat="42.85503091174645" lon="-3.7888871591671274"><ele>873.0</ele><time>2026-05-02T12:07:48.001Z</time></trkpt><trkpt lat="42.8549282923123" lon="-3.7888258234622376"><ele>873.0</ele><time>2026-05-02T12:07:49.001Z</time></trkpt><trkpt lat="42.85482525392937" lon="-3.788755204234093"><ele>872.0</ele><time>2026-05-02T12:07:50.001Z</time></trkpt><trkpt lat="42.854720853336225" lon="-3.7886938946878606"><ele>871.0</ele><time>2026-05-02T12:07:51.001Z</time></trkpt><trkpt lat="42.85461883144316" lon="-3.78862357981538"><ele>870.0</ele><time>2026-05-02T12:07:52.001Z</time></trkpt><trkpt lat="42.85451679785754" lon="-3.788556891756114"><ele>869.0</ele><time>2026-05-02T12:07:53.001Z</time></trkpt><trkpt lat="42.854414421247974" lon="-3.7884888303005324"><ele>869.0</ele><time>2026-05-02T12:07:54.001Z</time></trkpt><trkpt lat="42.854311709081024" lon="-3.788419498463373"><ele>869.0</ele><time>2026-05-02T12:07:55.001Z</time></trkpt><trkpt lat="42.854208678046554" lon="-3.7883533907543834"><ele>869.0</ele><time>2026-05-02T12:07:56.001Z</time></trkpt><trkpt lat="42.854107348365496" lon="-3.7882850805837425"><ele>869.0</ele><time>2026-05-02T12:07:57.001Z</time></trkpt><trkpt lat="42.854002538503764" lon="-3.788218997989631"><ele>868.25</ele><time>2026-05-02T12:07:58.001Z</time></trkpt><trkpt lat="42.85389760390288" lon="-3.7881536670760205"><ele>867.5</ele><time>2026-05-02T12:07:59.001Z</time></trkpt><trkpt lat="42.85379494714979" lon="-3.7880840929116593"><ele>866.75</ele><time>2026-05-02T12:08:00Z</time></trkpt><trkpt lat="42.853688954035164" lon="-3.788016058650358"><ele>866.0</ele><time>2026-05-02T12:08:01Z</time></trkpt><trkpt lat="42.85358358477859" lon="-3.7879494877349273"><ele>866.0</ele><time>2026-05-02T12:08:02Z</time></trkpt><trkpt lat="42.853478623501715" lon="-3.7878814654534407"><ele>866.0</ele><time>2026-05-02T12:08:03Z</time></trkpt><trkpt lat="42.85337123701185" lon="-3.787810163164076"><ele>866.0</ele><time>2026-05-02T12:08:04Z</time></trkpt><trkpt lat="42.85326462772737" lon="-3.7877394907109108"><ele>866.0</ele><time>2026-05-02T12:08:05Z</time></trkpt><trkpt lat="42.853160387689435" lon="-3.7876691648879373"><ele>864.75</ele><time>2026-05-02T12:08:06Z</time></trkpt><trkpt lat="42.85305513422221" lon="-3.7875956352980955"><ele>863.5</ele><time>2026-05-02T12:08:07Z</time></trkpt><trkpt lat="42.85295000103488" lon="-3.787531455291898"><ele>862.25</ele><time>2026-05-02T12:08:08Z</time></trkpt><trkpt lat="42.85284572734458" lon="-3.7874600482679854"><ele>861.0</ele><time>2026-05-02T12:08:09Z</time></trkpt><trkpt lat="42.85274117380284" lon="-3.787392182694409"><ele>861.0</ele><time>2026-05-02T12:08:10Z</time></trkpt><trkpt lat="42.85263564131922" lon="-3.7873268808823086"><ele>861.0</ele><time>2026-05-02T12:08:11Z</time></trkpt><trkpt lat="42.85253292515172" lon="-3.787258192197802"><ele>861.0</ele><time>2026-05-02T12:08:12Z</time></trkpt><trkpt lat="42.85242933378583" lon="-3.7871926719027487"><ele>861.0</ele><time>2026-05-02T12:08:13Z</time></trkpt><trkpt lat="42.85232718581031" lon="-3.787123609953797"><ele>859.75</ele><time>2026-05-02T12:08:14Z</time></trkpt><trkpt lat="42.852223908666645" lon="-3.7870540832767787"><ele>858.5</ele><time>2026-05-02T12:08:15Z</time></trkpt><trkpt lat="42.8521184190749" lon="-3.786987055841074"><ele>857.25</ele><time>2026-05-02T12:08:16Z</time></trkpt><trkpt lat="42.85201112252343" lon="-3.786918392334586"><ele>856.0</ele><time>2026-05-02T12:08:17Z</time></trkpt><trkpt lat="42.851906552168316" lon="-3.786846898422584"><ele>856.25</ele><time>2026-05-02T12:08:18Z</time></trkpt><trkpt lat="42.851799585172884" lon="-3.7867836198942526"><ele>856.5</ele><time>2026-05-02T12:08:19Z</time></trkpt><trkpt lat="42.85169594631249" lon="-3.7867179018424912"><ele>856.75</ele><time>2026-05-02T12:08:20Z</time></trkpt><trkpt lat="42.851592452178025" lon="-3.7866457106816234"><ele>857.0</ele><time>2026-05-02T12:08:21Z</time></trkpt><trkpt lat="42.85149142679972" lon="-3.7865760775649417"><ele>856.0</ele><time>2026-05-02T12:08:22Z</time></trkpt><trkpt lat="42.85138805738801" lon="-3.7865112635489093"><ele>855.0</ele><time>2026-05-02T12:08:23Z</time></trkpt><trkpt lat="42.8512877176483" lon="-3.7864423605115487"><ele>854.0</ele><time>2026-05-02T12:08:24Z</time></trkpt><trkpt lat="42.851185313459446" lon="-3.786378238022296"><ele>853.0</ele><time>2026-05-02T12:08:25Z</time></trkpt><trkpt lat="42.85108184859952" lon="-3.786310448698102"><ele>853.0</ele><time>2026-05-02T12:08:26Z</time></trkpt><trkpt lat="42.85097713788811" lon="-3.7862427733402706"><ele>853.0</ele><time>2026-05-02T12:08:27Z</time></trkpt><trkpt lat="42.850873969116556" lon="-3.7861730793488775"><ele>853.0</ele><time>2026-05-02T12:08:28Z</time></trkpt><trkpt lat="42.85076841579781" lon="-3.7861083813722933"><ele>853.0</ele><time>2026-05-02T12:08:29Z</time></trkpt><trkpt lat="42.85066806517643" lon="-3.7860406363729613"><ele>853.0</ele><time>2026-05-02T12:08:30Z</time></trkpt><trkpt lat="42.85056745707267" lon="-3.7859738504477787"><ele>853.0</ele><time>2026-05-02T12:08:31Z</time></trkpt><trkpt lat="42.85046542587523" lon="-3.785910317815177"><ele>853.0</ele><time>2026-05-02T12:08:32Z</time></trkpt><trkpt lat="42.85036494923325" lon="-3.7858405379431272"><ele>853.0</ele><time>2026-05-02T12:08:33Z</time></trkpt><trkpt lat="42.85026348355987" lon="-3.78577692431305"><ele>853.0</ele><time>2026-05-02T12:08:34Z</time></trkpt><trkpt lat="42.850160334814696" lon="-3.7857141494031237"><ele>852.2</ele><time>2026-05-02T12:08:35Z</time></trkpt><trkpt lat="42.850059948281974" lon="-3.7856476565972548"><ele>851.4</ele><time>2026-05-02T12:08:36Z</time></trkpt><trkpt lat="42.84996088648287" lon="-3.7855800841947747"><ele>850.6</ele><time>2026-05-02T12:08:37Z</time></trkpt><trkpt lat="42.84986118209384" lon="-3.785511917210745"><ele>849.8000000000001</ele><time>2026-05-02T12:08:38Z</time></trkpt><trkpt lat="42.84976165576491" lon="-3.7854469137028715"><ele>849.0</ele><time>2026-05-02T12:08:39Z</time></trkpt><trkpt lat="42.84965968474032" lon="-3.7853827355869223"><ele>849.0</ele><time>2026-05-02T12:08:40Z</time></trkpt><trkpt lat="42.8495634866076" lon="-3.7853133521666082"><ele>849.0</ele><time>2026-05-02T12:08:41Z</time></trkpt><trkpt lat="42.84946523875917" lon="-3.7852361169064848"><ele>849.0</ele><time>2026-05-02T12:08:42Z</time></trkpt><trkpt lat="42.8493677893021" lon="-3.785152852432443"><ele>849.0</ele><time>2026-05-02T12:08:43Z</time></trkpt><trkpt lat="42.849271285283116" lon="-3.785066062910583"><ele>848.25</ele><time>2026-05-02T12:08:44Z</time></trkpt><trkpt lat="42.84917375548644" lon="-3.7849807846374763"><ele>847.5</ele><time>2026-05-02T12:08:45Z</time></trkpt><trkpt lat="42.849077721643155" lon="-3.784892933055591"><ele>846.75</ele><time>2026-05-02T12:08:46Z</time></trkpt><trkpt lat="42.84898355024496" lon="-3.784801302813146"><ele>846.0</ele><time>2026-05-02T12:08:47Z</time></trkpt><trkpt lat="42.84889079461957" lon="-3.78470451287901"><ele>846.0</ele><time>2026-05-02T12:08:48Z</time></trkpt><trkpt lat="42.84879587428236" lon="-3.784610500285955"><ele>846.0</ele><time>2026-05-02T12:08:49Z</time></trkpt><trkpt lat="42.84870169108367" lon="-3.784520989341558"><ele>846.0</ele><time>2026-05-02T12:08:50Z</time></trkpt><trkpt lat="42.84860806808945" lon="-3.7844265110636153"><ele>846.0</ele><time>2026-05-02T12:08:51Z</time></trkpt><trkpt lat="42.84851659004248" lon="-3.784330500295753"><ele>845.0</ele><time>2026-05-02T12:08:52Z</time></trkpt><trkpt lat="42.848424551898326" lon="-3.784233728480637"><ele>844.0</ele><time>2026-05-02T12:08:53Z</time></trkpt><trkpt lat="42.84833226372649" lon="-3.7841374948168967"><ele>843.0</ele><time>2026-05-02T12:08:54Z</time></trkpt><trkpt lat="42.84823997631856" lon="-3.7840480122316897"><ele>842.0</ele><time>2026-05-02T12:08:55Z</time></trkpt><trkpt lat="42.84814528453188" lon="-3.783957405703807"><ele>842.0</ele><time>2026-05-02T12:08:56Z</time></trkpt><trkpt lat="42.84804733701123" lon="-3.7838738904155313"><ele>842.0</ele><time>2026-05-02T12:08:57Z</time></trkpt><trkpt lat="42.84794700084163" lon="-3.783790849160837"><ele>842.0</ele><time>2026-05-02T12:08:58.001Z</time></trkpt><trkpt lat="42.84784323119437" lon="-3.7837127504744106"><ele>842.0</ele><time>2026-05-02T12:08:59.001Z</time></trkpt><trkpt lat="42.84773795603159" lon="-3.7836415795482665"><ele>842.0</ele><time>2026-05-02T12:09:00.001Z</time></trkpt><trkpt lat="42.84763101467175" lon="-3.7835768708792137"><ele>842.0</ele><time>2026-05-02T12:09:01.001Z</time></trkpt><trkpt lat="42.847521766021586" lon="-3.7835139850456025"><ele>842.0</ele><time>2026-05-02T12:09:02.001Z</time></trkpt><trkpt lat="42.847411247217366" lon="-3.783456847102316"><ele>842.0</ele><time>2026-05-02T12:09:03.001Z</time></trkpt><trkpt lat="42.84729909415314" lon="-3.7834079450340248"><ele>840.75</ele><time>2026-05-02T12:09:04.001Z</time></trkpt><trkpt lat="42.84718645041686" lon="-3.78336508019668"><ele>839.5</ele><time>2026-05-02T12:09:05.001Z</time></trkpt><trkpt lat="42.84707214223766" lon="-3.7833253800550213"><ele>838.25</ele><time>2026-05-02T12:09:06.001Z</time></trkpt><trkpt lat="42.84695648788159" lon="-3.783291974230162"><ele>837.0</ele><time>2026-05-02T12:09:07.001Z</time></trkpt><trkpt lat="42.84684023229698" lon="-3.783266683015688"><ele>836.0</ele><time>2026-05-02T12:09:08.001Z</time></trkpt><trkpt lat="42.84672299643012" lon="-3.783247726638304"><ele>835.0</ele><time>2026-05-02T12:09:09.001Z</time></trkpt><trkpt lat="42.846606163796224" lon="-3.7832340783250418"><ele>834.0</ele><time>2026-05-02T12:09:10.001Z</time></trkpt><trkpt lat="42.84649196723324" lon="-3.783223167460503"><ele>833.0</ele><time>2026-05-02T12:09:11.001Z</time></trkpt><trkpt lat="42.84637585770495" lon="-3.7832128588199496"><ele>833.0</ele><time>2026-05-02T12:09:12.001Z</time></trkpt><trkpt lat="42.846260691986714" lon="-3.7832103379861417"><ele>833.0</ele><time>2026-05-02T12:09:13.001Z</time></trkpt><trkpt lat="42.84614683361058" lon="-3.783208845371646"><ele>833.0</ele><time>2026-05-02T12:09:14.001Z</time></trkpt><trkpt lat="42.846033617653816" lon="-3.78320566444354"><ele>833.0</ele><time>2026-05-02T12:09:15.001Z</time></trkpt><trkpt lat="42.84592130172675" lon="-3.7832039740816636"><ele>831.5999999999999</ele><time>2026-05-02T12:09:16.001Z</time></trkpt><trkpt lat="42.845811150895486" lon="-3.7831998539092773"><ele>830.1999999999999</ele><time>2026-05-02T12:09:17.001Z</time></trkpt><trkpt lat="42.84570132661483" lon="-3.783196867908825"><ele>828.8</ele><time>2026-05-02T12:09:18.001Z</time></trkpt><trkpt lat="42.845596133710224" lon="-3.783195356228037"><ele>827.4</ele><time>2026-05-02T12:09:19.001Z</time></trkpt><trkpt lat="42.84549263069019" lon="-3.78319018222743"><ele>826.0</ele><time>2026-05-02T12:09:20.001Z</time></trkpt><trkpt lat="42.84539001428629" lon="-3.783184377807018"><ele>826.0</ele><time>2026-05-02T12:09:21.001Z</time></trkpt><trkpt lat="42.84529161498923" lon="-3.783178575759661"><ele>826.0</ele><time>2026-05-02T12:09:22.001Z</time></trkpt><trkpt lat="42.84519493236479" lon="-3.7831637827898574"><ele>826.0</ele><time>2026-05-02T12:09:23.001Z</time></trkpt><trkpt lat="42.84510002183408" lon="-3.783153893994716"><ele>826.0</ele><time>2026-05-02T12:09:24.001Z</time></trkpt><trkpt lat="42.845007630147606" lon="-3.78313239402106"><ele>826.0</ele><time>2026-05-02T12:09:25.001Z</time></trkpt><trkpt lat="42.84491685063602" lon="-3.7831029127723803"><ele>827.8</ele><time>2026-05-02T12:09:26.001Z</time></trkpt><trkpt lat="42.8448246822656" lon="-3.783073174891391"><ele>829.5999999999999</ele><time>2026-05-02T12:09:27.001Z</time></trkpt><trkpt lat="42.844735883675206" lon="-3.783039361627188"><ele>831.4</ele><time>2026-05-02T12:09:28.001Z</time></trkpt><trkpt lat="42.84465121925074" lon="-3.782998318825616"><ele>833.2</ele><time>2026-05-02T12:09:29.001Z</time></trkpt><trkpt lat="42.84456704607789" lon="-3.7829521993745114"><ele>835.0</ele><time>2026-05-02T12:09:30.001Z</time></trkpt><trkpt lat="42.844485342131435" lon="-3.78290400843715"><ele>835.0</ele><time>2026-05-02T12:09:31.001Z</time></trkpt><trkpt lat="42.84440383986893" lon="-3.782851404886166"><ele>835.0</ele><time>2026-05-02T12:09:32.001Z</time></trkpt><trkpt lat="42.84432340937647" lon="-3.782799862082265"><ele>835.0</ele><time>2026-05-02T12:09:33.001Z</time></trkpt><trkpt lat="42.84424197939656" lon="-3.782738439362918"><ele>835.0</ele><time>2026-05-02T12:09:34.001Z</time></trkpt><trkpt lat="42.844164554549295" lon="-3.782672634593502"><ele>835.0</ele><time>2026-05-02T12:09:35.001Z</time></trkpt><trkpt lat="42.8440890072958" lon="-3.782601601313677"><ele>836.6</ele><time>2026-05-02T12:09:36.001Z</time></trkpt><trkpt lat="42.84401643953444" lon="-3.7825251090863286"><ele>838.2</ele><time>2026-05-02T12:09:37.001Z</time></trkpt><trkpt lat="42.84394336944904" lon="-3.782445036144834"><ele>839.8</ele><time>2026-05-02T12:09:38.001Z</time></trkpt><trkpt lat="42.843872662292796" lon="-3.78236211672608"><ele>841.4</ele><time>2026-05-02T12:09:39.001Z</time></trkpt><trkpt lat="42.843807355967364" lon="-3.782272870231432"><ele>843.0</ele><time>2026-05-02T12:09:40.001Z</time></trkpt><trkpt lat="42.84374096527806" lon="-3.782179247796297"><ele>843.0</ele><time>2026-05-02T12:09:41.001Z</time></trkpt><trkpt lat="42.84367732792502" lon="-3.782082287433155"><ele>843.0</ele><time>2026-05-02T12:09:42.001Z</time></trkpt><trkpt lat="42.84361734842614" lon="-3.7819810987445956"><ele>843.0</ele><time>2026-05-02T12:09:43.001Z</time></trkpt><trkpt lat="42.84355665397264" lon="-3.781875977426833"><ele>843.0</ele><time>2026-05-02T12:09:44.001Z</time></trkpt><trkpt lat="42.8434953715361" lon="-3.7817681816686264"><ele>843.0</ele><time>2026-05-02T12:09:45.001Z</time></trkpt><trkpt lat="42.8434328733831" lon="-3.7816606369491508"><ele>842.8</ele><time>2026-05-02T12:09:46.001Z</time></trkpt><trkpt lat="42.843371681216915" lon="-3.781551107771571"><ele>842.5999999999999</ele><time>2026-05-02T12:09:47.001Z</time></trkpt><trkpt lat="42.843311932366944" lon="-3.7814407903858203"><ele>842.4000000000001</ele><time>2026-05-02T12:09:48.001Z</time></trkpt><trkpt lat="42.84325124742434" lon="-3.7813322801581304"><ele>842.2</ele><time>2026-05-02T12:09:49.001Z</time></trkpt><trkpt lat="42.84318558690673" lon="-3.7812255647280537"><ele>842.0</ele><time>2026-05-02T12:09:50.001Z</time></trkpt><trkpt lat="42.843117434997566" lon="-3.7811196981403543"><ele>842.0</ele><time>2026-05-02T12:09:51.001Z</time></trkpt><trkpt lat="42.84304979422933" lon="-3.781021426702371"><ele>842.0</ele><time>2026-05-02T12:09:52.001Z</time></trkpt><trkpt lat="42.84297887546456" lon="-3.7809204115789057"><ele>842.0</ele><time>2026-05-02T12:09:53.001Z</time></trkpt><trkpt lat="42.84290377284388" lon="-3.7808268100637723"><ele>842.0</ele><time>2026-05-02T12:09:54.001Z</time></trkpt><trkpt lat="42.84282045387317" lon="-3.7807408368566384"><ele>842.0</ele><time>2026-05-02T12:09:55.001Z</time></trkpt><trkpt lat="42.84273310086722" lon="-3.780658833079739"><ele>842.2</ele><time>2026-05-02T12:09:56.001Z</time></trkpt><trkpt lat="42.842638042174954" lon="-3.78060856525761"><ele>842.4000000000001</ele><time>2026-05-02T12:09:57.001Z</time></trkpt><trkpt lat="42.84255462857498" lon="-3.78052776277057"><ele>842.5999999999999</ele><time>2026-05-02T12:09:58.001Z</time></trkpt><trkpt lat="42.84246267210794" lon="-3.7804755832696064"><ele>842.8</ele><time>2026-05-02T12:09:59.001Z</time></trkpt><trkpt lat="42.84236989240982" lon="-3.7804261480527894"><ele>843.0</ele><time>2026-05-02T12:10:00.001Z</time></trkpt><trkpt lat="42.842275707620466" lon="-3.7803795993330502"><ele>843.0</ele><time>2026-05-02T12:10:01.001Z</time></trkpt><trkpt lat="42.842181081677694" lon="-3.780339045499211"><ele>843.0</ele><time>2026-05-02T12:10:02.001Z</time></trkpt><trkpt lat="42.84208860710452" lon="-3.7803001779400907"><ele>843.0</ele><time>2026-05-02T12:10:03.001Z</time></trkpt><trkpt lat="42.84199737239114" lon="-3.7802637987298824"><ele>843.0</ele><time>2026-05-02T12:10:04.001Z</time></trkpt><trkpt lat="42.84190984284568" lon="-3.780224867860207"><ele>843.0</ele><time>2026-05-02T12:10:05.001Z</time></trkpt><trkpt lat="42.84182081201619" lon="-3.780187165258215"><ele>844.8</ele><time>2026-05-02T12:10:06Z</time></trkpt><trkpt lat="42.84172906498395" lon="-3.7801468844526354"><ele>846.5999999999999</ele><time>2026-05-02T12:10:07Z</time></trkpt><trkpt lat="42.84163904308243" lon="-3.780109008189675"><ele>848.4000000000001</ele><time>2026-05-02T12:10:08Z</time></trkpt><trkpt lat="42.84155340245899" lon="-3.7800686643546357"><ele>850.2</ele><time>2026-05-02T12:10:09Z</time></trkpt><trkpt lat="42.84146730188738" lon="-3.7800261388665657"><ele>852.0</ele><time>2026-05-02T12:10:10Z</time></trkpt><trkpt lat="42.84137919629889" lon="-3.7799786066817718"><ele>852.0</ele><time>2026-05-02T12:10:11Z</time></trkpt><trkpt lat="42.84129462291228" lon="-3.779923996783647"><ele>852.0</ele><time>2026-05-02T12:10:12Z</time></trkpt><trkpt lat="42.841206697867705" lon="-3.779863966393666"><ele>852.0</ele><time>2026-05-02T12:10:13Z</time></trkpt><trkpt lat="42.84111938075723" lon="-3.779798519906418"><ele>852.0</ele><time>2026-05-02T12:10:14Z</time></trkpt><trkpt lat="42.84103250299557" lon="-3.779726388162997"><ele>852.0</ele><time>2026-05-02T12:10:15Z</time></trkpt><trkpt lat="42.84094696566238" lon="-3.7796453990929346"><ele>852.0</ele><time>2026-05-02T12:10:16Z</time></trkpt><trkpt lat="42.84086126591772" lon="-3.7795578889625125"><ele>852.0</ele><time>2026-05-02T12:10:17Z</time></trkpt><trkpt lat="42.84077776335785" lon="-3.7794696376119625"><ele>852.0</ele><time>2026-05-02T12:10:18Z</time></trkpt><trkpt lat="42.840694764490685" lon="-3.779365993916059"><ele>852.0</ele><time>2026-05-02T12:10:19Z</time></trkpt><trkpt lat="42.84061234513746" lon="-3.779259245871228"><ele>852.0</ele><time>2026-05-02T12:10:20Z</time></trkpt><trkpt lat="42.840533553116906" lon="-3.7791612794504377"><ele>852.0</ele><time>2026-05-02T12:10:21Z</time></trkpt><trkpt lat="42.84047970404335" lon="-3.779047290168115"><ele>852.0</ele><time>2026-05-02T12:10:22Z</time></trkpt><trkpt lat="42.840413653324354" lon="-3.7789246892198984"><ele>852.0</ele><time>2026-05-02T12:10:23Z</time></trkpt><trkpt lat="42.84034836604836" lon="-3.778797724363612"><ele>852.0</ele><time>2026-05-02T12:10:24Z</time></trkpt><trkpt lat="42.84029598856899" lon="-3.7786670563054696"><ele>852.0</ele><time>2026-05-02T12:10:25Z</time></trkpt><trkpt lat="42.840243508144056" lon="-3.7785351089985277"><ele>852.2</ele><time>2026-05-02T12:10:26Z</time></trkpt><trkpt lat="42.84019350789544" lon="-3.7784049882685706"><ele>852.4000000000001</ele><time>2026-05-02T12:10:27Z</time></trkpt><trkpt lat="42.84014221149972" lon="-3.7782697773111815"><ele>852.5999999999999</ele><time>2026-05-02T12:10:28Z</time></trkpt><trkpt lat="42.84009053048259" lon="-3.7781336803876306"><ele>852.8</ele><time>2026-05-02T12:10:29Z</time></trkpt><trkpt lat="42.84004148803326" lon="-3.777990665763554"><ele>853.0</ele><time>2026-05-02T12:10:30Z</time></trkpt><trkpt lat="42.839989313584084" lon="-3.777850205470777"><ele>850.5</ele><time>2026-05-02T12:10:31Z</time></trkpt><trkpt lat="42.839931889464175" lon="-3.7777138859754"><ele>848.0</ele><time>2026-05-02T12:10:32Z</time></trkpt><trkpt lat="42.8398771644056" lon="-3.777573038666499"><ele>845.5</ele><time>2026-05-02T12:10:33Z</time></trkpt><trkpt lat="42.83980557314335" lon="-3.7774490392704445"><ele>843.0</ele><time>2026-05-02T12:10:34Z</time></trkpt><trkpt lat="42.839739974953496" lon="-3.777325764378425"><ele>843.0</ele><time>2026-05-02T12:10:35Z</time></trkpt><trkpt lat="42.8396655321765" lon="-3.7772094908492395"><ele>843.0</ele><time>2026-05-02T12:10:36Z</time></trkpt><trkpt lat="42.83958736503425" lon="-3.777102235945346"><ele>843.0</ele><time>2026-05-02T12:10:37Z</time></trkpt><trkpt lat="42.839505412978426" lon="-3.776998678623862"><ele>843.0</ele><time>2026-05-02T12:10:38Z</time></trkpt><trkpt lat="42.83942252654397" lon="-3.7769071530805585"><ele>843.0</ele><time>2026-05-02T12:10:39Z</time></trkpt><trkpt lat="42.83933554546485" lon="-3.776823504775014"><ele>842.4</ele><time>2026-05-02T12:10:40Z</time></trkpt><trkpt lat="42.83924435083726" lon="-3.7767433523876397"><ele>841.8</ele><time>2026-05-02T12:10:41Z</time></trkpt><trkpt lat="42.83915171867024" lon="-3.776680405644571"><ele>841.2</ele><time>2026-05-02T12:10:42Z</time></trkpt><trkpt lat="42.83905697425138" lon="-3.7766198210627833"><ele>840.6</ele><time>2026-05-02T12:10:43Z</time></trkpt><trkpt lat="42.838962352543405" lon="-3.7765694062519466"><ele>840.0</ele><time>2026-05-02T12:10:44Z</time></trkpt><trkpt lat="42.83887096062042" lon="-3.776504349669992"><ele>840.0</ele><time>2026-05-02T12:10:45Z</time></trkpt><trkpt lat="42.838768413379995" lon="-3.7764899544343167"><ele>840.0</ele><time>2026-05-02T12:10:46Z</time></trkpt><trkpt lat="42.838671014825564" lon="-3.7764635199780936"><ele>840.0</ele><time>2026-05-02T12:10:47Z</time></trkpt><trkpt lat="42.83857258058432" lon="-3.7764439972990487"><ele>840.0</ele><time>2026-05-02T12:10:48Z</time></trkpt><trkpt lat="42.838479465712794" lon="-3.7764329913419585"><ele>840.0</ele><time>2026-05-02T12:10:49Z</time></trkpt><trkpt lat="42.838384549914345" lon="-3.776422851319861"><ele>841.0</ele><time>2026-05-02T12:10:50Z</time></trkpt><trkpt lat="42.83829198108322" lon="-3.776417894651813"><ele>842.0</ele><time>2026-05-02T12:10:51Z</time></trkpt><trkpt lat="42.83819957333075" lon="-3.7764187304663164"><ele>843.0</ele><time>2026-05-02T12:10:52Z</time></trkpt><trkpt lat="42.8381046220288" lon="-3.7764241125299205"><ele>844.0</ele><time>2026-05-02T12:10:53Z</time></trkpt><trkpt lat="42.838014098725225" lon="-3.7764317658917106"><ele>845.0</ele><time>2026-05-02T12:10:54Z</time></trkpt><trkpt lat="42.8379228824997" lon="-3.776439477838646"><ele>845.0</ele><time>2026-05-02T12:10:55Z</time></trkpt><trkpt lat="42.83783157773352" lon="-3.776447197256348"><ele>845.0</ele><time>2026-05-02T12:10:56Z</time></trkpt><trkpt lat="42.83773891607619" lon="-3.776433097859712"><ele>845.0</ele><time>2026-05-02T12:10:57Z</time></trkpt><trkpt lat="42.83765044822173" lon="-3.7764516138440096"><ele>845.0</ele><time>2026-05-02T12:10:58Z</time></trkpt><trkpt lat="42.83756112189543" lon="-3.776454665546878"><ele>845.0</ele><time>2026-05-02T12:10:59Z</time></trkpt><trkpt lat="42.83747185714843" lon="-3.776465577807168"><ele>846.5000000000001</ele><time>2026-05-02T12:11:00Z</time></trkpt><trkpt lat="42.83738049799804" lon="-3.7764666810316574"><ele>848.0</ele><time>2026-05-02T12:11:01Z</time></trkpt><trkpt lat="42.83729297751923" lon="-3.776472249895231"><ele>849.5</ele><time>2026-05-02T12:11:02Z</time></trkpt><trkpt lat="42.83720588822231" lon="-3.7764802334750054"><ele>851.0</ele><time>2026-05-02T12:11:03Z</time></trkpt><trkpt lat="42.83711662055794" lon="-3.7764839394021394"><ele>852.5000000000001</ele><time>2026-05-02T12:11:04Z</time></trkpt><trkpt lat="42.83702890527206" lon="-3.7764964484271486"><ele>854.0</ele><time>2026-05-02T12:11:05.001Z</time></trkpt><trkpt lat="42.836938248504005" lon="-3.776493448447559"><ele>854.0000000000001</ele><time>2026-05-02T12:11:06.001Z</time></trkpt><trkpt lat="42.83685032782902" lon="-3.776491802783801"><ele>854.0</ele><time>2026-05-02T12:11:07.001Z</time></trkpt><trkpt lat="42.83676356128442" lon="-3.7764905498529813"><ele>854.0</ele><time>2026-05-02T12:11:08.001Z</time></trkpt><trkpt lat="42.83667583560114" lon="-3.7764837271709455"><ele>854.0</ele><time>2026-05-02T12:11:09.001Z</time></trkpt><trkpt lat="42.836585396904866" lon="-3.77646927323713"><ele>854.0000000000001</ele><time>2026-05-02T12:11:10.001Z</time></trkpt><trkpt lat="42.836499691282896" lon="-3.7764553028167986"><ele>854.0</ele><time>2026-05-02T12:11:11.001Z</time></trkpt><trkpt lat="42.83641223523297" lon="-3.7764394010628837"><ele>854.5000000000001</ele><time>2026-05-02T12:11:12.001Z</time></trkpt><trkpt lat="42.836325339804205" lon="-3.7764191047029687"><ele>855.0</ele><time>2026-05-02T12:11:13.001Z</time></trkpt><trkpt lat="42.83623606588561" lon="-3.776397411100587"><ele>855.5</ele><time>2026-05-02T12:11:14.001Z</time></trkpt><trkpt lat="42.836146458461265" lon="-3.7763830723078895"><ele>856.0</ele><time>2026-05-02T12:11:15.001Z</time></trkpt><trkpt lat="42.8360589357387" lon="-3.7763564150031352"><ele>856.5000000000001</ele><time>2026-05-02T12:11:16.001Z</time></trkpt><trkpt lat="42.83597234016012" lon="-3.776329421065611"><ele>857.0</ele><time>2026-05-02T12:11:17.001Z</time></trkpt><trkpt lat="42.8358851250328" lon="-3.776299552284007"><ele>857.0000000000001</ele><time>2026-05-02T12:11:18.001Z</time></trkpt><trkpt lat="42.83579920611616" lon="-3.7762713581868037"><ele>857.0</ele><time>2026-05-02T12:11:19.001Z</time></trkpt><trkpt lat="42.83571214187576" lon="-3.7762453467790773"><ele>857.0</ele><time>2026-05-02T12:11:20.001Z</time></trkpt><trkpt lat="42.83562525268319" lon="-3.7762208301298172"><ele>857.0</ele><time>2026-05-02T12:11:21.001Z</time></trkpt><trkpt lat="42.835543562833884" lon="-3.7761940597088817"><ele>857.0000000000001</ele><time>2026-05-02T12:11:22.001Z</time></trkpt><trkpt lat="42.8354569930117" lon="-3.7761671913031067"><ele>857.0</ele><time>2026-05-02T12:11:23.001Z</time></trkpt><trkpt lat="42.835369348233634" lon="-3.776143072924997"><ele>857.0000000000001</ele><time>2026-05-02T12:11:24.001Z</time></trkpt><trkpt lat="42.83528644591221" lon="-3.776113446617712"><ele>857.0</ele><time>2026-05-02T12:11:25.001Z</time></trkpt><trkpt lat="42.83520324741349" lon="-3.77608315723913"><ele>857.0</ele><time>2026-05-02T12:11:26.001Z</time></trkpt><trkpt lat="42.835111640856866" lon="-3.7760781729458635"><ele>857.0</ele><time>2026-05-02T12:11:27.001Z</time></trkpt><trkpt lat="42.83503433620442" lon="-3.7760326172387324"><ele>857.0000000000001</ele><time>2026-05-02T12:11:28.001Z</time></trkpt><trkpt lat="42.83494998642587" lon="-3.776021923555842"><ele>857.0</ele><time>2026-05-02T12:11:29.001Z</time></trkpt><trkpt lat="42.834869262094806" lon="-3.7759880200639953"><ele>859.0000000000001</ele><time>2026-05-02T12:11:30.001Z</time></trkpt><trkpt lat="42.83478751271229" lon="-3.775964438036824"><ele>861.0</ele><time>2026-05-02T12:11:31.001Z</time></trkpt><trkpt lat="42.83470577219079" lon="-3.77594103717732"><ele>863.0</ele><time>2026-05-02T12:11:32.001Z</time></trkpt><trkpt lat="42.83462445460295" lon="-3.775913404008297"><ele>865.0</ele><time>2026-05-02T12:11:33.001Z</time></trkpt><trkpt lat="42.834541786577525" lon="-3.77588808990678"><ele>867.0000000000001</ele><time>2026-05-02T12:11:34.001Z</time></trkpt><trkpt lat="42.83446030028764" lon="-3.7758632340861626"><ele>869.0</ele><time>2026-05-02T12:11:35.001Z</time></trkpt><trkpt lat="42.83437888271119" lon="-3.775837832477271"><ele>868.8333333333334</ele><time>2026-05-02T12:11:36.001Z</time></trkpt><trkpt lat="42.83429879413284" lon="-3.7758138149116696"><ele>868.6666666666667</ele><time>2026-05-02T12:11:37.001Z</time></trkpt><trkpt lat="42.834214486658986" lon="-3.7757901907769287"><ele>868.5</ele><time>2026-05-02T12:11:38.001Z</time></trkpt><trkpt lat="42.83412953292505" lon="-3.7757630527527506"><ele>868.3333333333333</ele><time>2026-05-02T12:11:39.001Z</time></trkpt><trkpt lat="42.834044658554454" lon="-3.7757361369833395"><ele>868.1666666666666</ele><time>2026-05-02T12:11:40.001Z</time></trkpt><trkpt lat="42.83395318789994" lon="-3.7756973648325878"><ele>868.0</ele><time>2026-05-02T12:11:41.001Z</time></trkpt><trkpt lat="42.83385852901678" lon="-3.7756745609966704"><ele>868.0</ele><time>2026-05-02T12:11:42.001Z</time></trkpt><trkpt lat="42.83376522635019" lon="-3.7756421965761477"><ele>868.0</ele><time>2026-05-02T12:11:43.001Z</time></trkpt><trkpt lat="42.833666408770604" lon="-3.7756123046963204"><ele>868.0</ele><time>2026-05-02T12:11:44.001Z</time></trkpt><trkpt lat="42.83356258448517" lon="-3.7755863484348753"><ele>868.0</ele><time>2026-05-02T12:11:45.001Z</time></trkpt><trkpt lat="42.833463679719856" lon="-3.775558354098652"><ele>868.0</ele><time>2026-05-02T12:11:46.001Z</time></trkpt><trkpt lat="42.8333566751288" lon="-3.7755255797844964"><ele>867.5999999999999</ele><time>2026-05-02T12:11:47.001Z</time></trkpt><trkpt lat="42.833252038693" lon="-3.7754877110747485"><ele>867.1999999999999</ele><time>2026-05-02T12:11:48.001Z</time></trkpt><trkpt lat="42.83314735751783" lon="-3.7754623932980635"><ele>866.8</ele><time>2026-05-02T12:11:49.001Z</time></trkpt><trkpt lat="42.83304365450968" lon="-3.7754300946491917"><ele>866.4</ele><time>2026-05-02T12:11:50.001Z</time></trkpt><trkpt lat="42.832939975698544" lon="-3.7753919374045593"><ele>866.0</ele><time>2026-05-02T12:11:51.001Z</time></trkpt><trkpt lat="42.83283508008511" lon="-3.775366568745796"><ele>866.0</ele><time>2026-05-02T12:11:52.001Z</time></trkpt><trkpt lat="42.832730861790466" lon="-3.775336350533718"><ele>865.9999999999999</ele><time>2026-05-02T12:11:53.001Z</time></trkpt><trkpt lat="42.83262433669643" lon="-3.775305190862535"><ele>865.9999999999999</ele><time>2026-05-02T12:11:54.001Z</time></trkpt><trkpt lat="42.83252068123589" lon="-3.775274564461847"><ele>866.0</ele><time>2026-05-02T12:11:55.001Z</time></trkpt><trkpt lat="42.832415062929314" lon="-3.775248318171661"><ele>866.0</ele><time>2026-05-02T12:11:56.001Z</time></trkpt><trkpt lat="42.83231095658724" lon="-3.7752128901999735"><ele>865.8</ele><time>2026-05-02T12:11:57.001Z</time></trkpt><trkpt lat="42.83220209423615" lon="-3.775183813791527"><ele>865.5999999999999</ele><time>2026-05-02T12:11:58.001Z</time></trkpt><trkpt lat="42.832096403361206" lon="-3.7751518301133493"><ele>865.4</ele><time>2026-05-02T12:11:59.001Z</time></trkpt><trkpt lat="42.83199223360058" lon="-3.7751209146803824"><ele>865.2</ele><time>2026-05-02T12:12:00.001Z</time></trkpt><trkpt lat="42.8318885248564" lon="-3.775088074294413"><ele>865.0</ele><time>2026-05-02T12:12:01.001Z</time></trkpt><trkpt lat="42.831783738338444" lon="-3.775058060250543"><ele>865.0</ele><time>2026-05-02T12:12:02.001Z</time></trkpt><trkpt lat="42.83167944296012" lon="-3.7750320559168316"><ele>865.0</ele><time>2026-05-02T12:12:03.001Z</time></trkpt><trkpt lat="42.831577038986346" lon="-3.7749964770774085"><ele>865.0</ele><time>2026-05-02T12:12:04.001Z</time></trkpt><trkpt lat="42.83147278538521" lon="-3.774968621262758"><ele>865.0</ele><time>2026-05-02T12:12:05.001Z</time></trkpt><trkpt lat="42.8313687460054" lon="-3.7749330825852097"><ele>865.0</ele><time>2026-05-02T12:12:06.001Z</time></trkpt><trkpt lat="42.83126733812436" lon="-3.774904496372982"><ele>865.0</ele><time>2026-05-02T12:12:07.001Z</time></trkpt><trkpt lat="42.831164650953546" lon="-3.7748745796636194"><ele>865.0</ele><time>2026-05-02T12:12:08.001Z</time></trkpt><trkpt lat="42.83106492102018" lon="-3.7748445647456155"><ele>865.0</ele><time>2026-05-02T12:12:09.001Z</time></trkpt><trkpt lat="42.8309637264102" lon="-3.774820883800272"><ele>865.0</ele><time>2026-05-02T12:12:10.001Z</time></trkpt><trkpt lat="42.830864288379686" lon="-3.7747919905167544"><ele>865.0</ele><time>2026-05-02T12:12:11.001Z</time></trkpt><trkpt lat="42.83076426061913" lon="-3.7747675457550156"><ele>864.6</ele><time>2026-05-02T12:12:12Z</time></trkpt><trkpt lat="42.830665726382534" lon="-3.774737062883303"><ele>864.2</ele><time>2026-05-02T12:12:13Z</time></trkpt><trkpt lat="42.83056290313622" lon="-3.774705540818182"><ele>863.8</ele><time>2026-05-02T12:12:14Z</time></trkpt><trkpt lat="42.83045769682955" lon="-3.7746769695820857"><ele>863.4</ele><time>2026-05-02T12:12:15Z</time></trkpt><trkpt lat="42.830350776053805" lon="-3.774644238545245"><ele>863.0</ele><time>2026-05-02T12:12:16Z</time></trkpt><trkpt lat="42.83024860603227" lon="-3.7746125526943946"><ele>863.0</ele><time>2026-05-02T12:12:17Z</time></trkpt><trkpt lat="42.83014638116357" lon="-3.7745848810776095"><ele>863.0</ele><time>2026-05-02T12:12:18Z</time></trkpt><trkpt lat="42.830037692511624" lon="-3.77455586580256"><ele>863.0</ele><time>2026-05-02T12:12:19Z</time></trkpt><trkpt lat="42.82993351597462" lon="-3.7745237243127767"><ele>863.0</ele><time>2026-05-02T12:12:20Z</time></trkpt><trkpt lat="42.82982896995814" lon="-3.7744915684482114"><ele>863.0</ele><time>2026-05-02T12:12:21Z</time></trkpt><trkpt lat="42.829725296520074" lon="-3.7744602891336565"><ele>862.2</ele><time>2026-05-02T12:12:22Z</time></trkpt><trkpt lat="42.8296223366848" lon="-3.774432498454782"><ele>861.4</ele><time>2026-05-02T12:12:23Z</time></trkpt><trkpt lat="42.829519853077194" lon="-3.774398137795256"><ele>860.6000000000001</ele><time>2026-05-02T12:12:24Z</time></trkpt><trkpt lat="42.82941636273627" lon="-3.774372759777913"><ele>859.8000000000001</ele><time>2026-05-02T12:12:25Z</time></trkpt><trkpt lat="42.82931628717407" lon="-3.7743415002684357"><ele>859.0</ele><time>2026-05-02T12:12:26Z</time></trkpt><trkpt lat="42.82921496533176" lon="-3.7743121062758744"><ele>860.8000000000001</ele><time>2026-05-02T12:12:27Z</time></trkpt><trkpt lat="42.82911452320924" lon="-3.774281046269524"><ele>862.6000000000001</ele><time>2026-05-02T12:12:28Z</time></trkpt><trkpt lat="42.829012924854624" lon="-3.7742562533250705"><ele>864.4</ele><time>2026-05-02T12:12:29Z</time></trkpt><trkpt lat="42.828912153996995" lon="-3.7742213720466338"><ele>866.2</ele><time>2026-05-02T12:12:30Z</time></trkpt><trkpt lat="42.82881392828507" lon="-3.7741944262526053"><ele>868.0</ele><time>2026-05-02T12:12:31Z</time></trkpt><trkpt lat="42.82871580202746" lon="-3.7741718949150087"><ele>868.0</ele><time>2026-05-02T12:12:32Z</time></trkpt><trkpt lat="42.82861712541418" lon="-3.774142749533892"><ele>868.0</ele><time>2026-05-02T12:12:33Z</time></trkpt><trkpt lat="42.82851877347604" lon="-3.7741166528010583"><ele>868.0</ele><time>2026-05-02T12:12:34Z</time></trkpt><trkpt lat="42.82842089525338" lon="-3.7740927662653894"><ele>868.0</ele><time>2026-05-02T12:12:35Z</time></trkpt><trkpt lat="42.828325051284466" lon="-3.7740672750424658"><ele>868.0</ele><time>2026-05-02T12:12:36Z</time></trkpt><trkpt lat="42.82822680829134" lon="-3.774042496571926"><ele>867.5999999999999</ele><time>2026-05-02T12:12:37Z</time></trkpt><trkpt lat="42.82813030393076" lon="-3.774018243962211"><ele>867.1999999999999</ele><time>2026-05-02T12:12:38Z</time></trkpt><trkpt lat="42.82803476600905" lon="-3.773991144645066"><ele>866.8</ele><time>2026-05-02T12:12:39Z</time></trkpt><trkpt lat="42.827942345082334" lon="-3.7739678144505047"><ele>866.4</ele><time>2026-05-02T12:12:40Z</time></trkpt><trkpt lat="42.8278456937355" lon="-3.7739453733597994"><ele>866.0</ele><time>2026-05-02T12:12:41Z</time></trkpt><trkpt lat="42.82775140350565" lon="-3.7739141720332285"><ele>866.0</ele><time>2026-05-02T12:12:42Z</time></trkpt><trkpt lat="42.82766135515792" lon="-3.773886569493118"><ele>865.9999999999999</ele><time>2026-05-02T12:12:43Z</time></trkpt><trkpt lat="42.82756985089911" lon="-3.773846771099128"><ele>865.9999999999999</ele><time>2026-05-02T12:12:44Z</time></trkpt><trkpt lat="42.8274802004399" lon="-3.7738053385554378"><ele>866.0</ele><time>2026-05-02T12:12:45Z</time></trkpt><trkpt lat="42.82739013358207" lon="-3.7737608099815643"><ele>866.0</ele><time>2026-05-02T12:12:46Z</time></trkpt><trkpt lat="42.8273022451284" lon="-3.7737049001973375"><ele>866.0</ele><time>2026-05-02T12:12:47Z</time></trkpt><trkpt lat="42.8272110630652" lon="-3.7736459571466"><ele>865.9999999999999</ele><time>2026-05-02T12:12:48Z</time></trkpt><trkpt lat="42.82712023235176" lon="-3.7735786974336083"><ele>865.9999999999999</ele><time>2026-05-02T12:12:49Z</time></trkpt><trkpt lat="42.82703350871769" lon="-3.7735131212807014"><ele>866.0</ele><time>2026-05-02T12:12:50Z</time></trkpt><trkpt lat="42.82695249418148" lon="-3.7734307253491277"><ele>866.0</ele><time>2026-05-02T12:12:51Z</time></trkpt><trkpt lat="42.82687022260748" lon="-3.7733495243786543"><ele>866.4</ele><time>2026-05-02T12:12:52Z</time></trkpt><trkpt lat="42.82678914016185" lon="-3.7732650812759396"><ele>866.8</ele><time>2026-05-02T12:12:53Z</time></trkpt><trkpt lat="42.82670908800381" lon="-3.7731776070478573"><ele>867.1999999999999</ele><time>2026-05-02T12:12:54Z</time></trkpt><trkpt lat="42.82663401012869" lon="-3.773083718590681"><ele>867.5999999999999</ele><time>2026-05-02T12:12:55Z</time></trkpt><trkpt lat="42.82656028410964" lon="-3.772985963254913"><ele>868.0</ele><time>2026-05-02T12:12:56Z</time></trkpt><trkpt lat="42.826485750651415" lon="-3.772886757709097"><ele>868.0</ele><time>2026-05-02T12:12:57Z</time></trkpt><trkpt lat="42.82640900861348" lon="-3.772793229150814"><ele>868.0</ele><time>2026-05-02T12:12:58Z</time></trkpt><trkpt lat="42.8263314964269" lon="-3.772695198566303"><ele>868.0</ele><time>2026-05-02T12:12:59Z</time></trkpt><trkpt lat="42.82625382278769" lon="-3.772597252186331"><ele>868.0</ele><time>2026-05-02T12:13:00Z</time></trkpt><trkpt lat="42.82617740002278" lon="-3.772499236346333"><ele>868.0</ele><time>2026-05-02T12:13:01Z</time></trkpt><trkpt lat="42.826102085548605" lon="-3.7724046337929127"><ele>867.8</ele><time>2026-05-02T12:13:02Z</time></trkpt><trkpt lat="42.826023513019564" lon="-3.7723075202059952"><ele>867.5999999999999</ele><time>2026-05-02T12:13:03Z</time></trkpt><trkpt lat="42.82594724872748" lon="-3.7722131241256474"><ele>867.4000000000001</ele><time>2026-05-02T12:13:04Z</time></trkpt><trkpt lat="42.82587173266098" lon="-3.7721176243116092"><ele>867.2</ele><time>2026-05-02T12:13:05Z</time></trkpt><trkpt lat="42.825793587745764" lon="-3.772025063834214"><ele>867.0</ele><time>2026-05-02T12:13:06Z</time></trkpt><trkpt lat="42.825716984371056" lon="-3.7719295154098718"><ele>867.6</ele><time>2026-05-02T12:13:07Z</time></trkpt><trkpt lat="42.82564454304267" lon="-3.7718312951275097"><ele>868.2</ele><time>2026-05-02T12:13:08Z</time></trkpt><trkpt lat="42.8255713607061" lon="-3.7717334639151865"><ele>868.8</ele><time>2026-05-02T12:13:09Z</time></trkpt><trkpt lat="42.825500220552414" lon="-3.7716281555287585"><ele>869.4</ele><time>2026-05-02T12:13:10Z</time></trkpt><trkpt lat="42.82542724091503" lon="-3.771526031219627"><ele>870.0</ele><time>2026-05-02T12:13:11Z</time></trkpt><trkpt lat="42.82535639585052" lon="-3.77141404409847"><ele>870.0</ele><time>2026-05-02T12:13:12Z</time></trkpt><trkpt lat="42.82529027044651" lon="-3.771295942966426"><ele>870.0</ele><time>2026-05-02T12:13:13Z</time></trkpt><trkpt lat="42.825224946035675" lon="-3.7711806520424442"><ele>870.0</ele><time>2026-05-02T12:13:14Z</time></trkpt><trkpt lat="42.825162168444315" lon="-3.771061502949418"><ele>870.0</ele><time>2026-05-02T12:13:15Z</time></trkpt><trkpt lat="42.82508747313105" lon="-3.7709358030271667"><ele>870.0</ele><time>2026-05-02T12:13:16.001Z</time></trkpt><trkpt lat="42.82498727297646" lon="-3.770814648401517"><ele>869.2</ele><time>2026-05-02T12:13:17.001Z</time></trkpt><trkpt lat="42.82496030814299" lon="-3.770713454741476"><ele>868.4</ele><time>2026-05-02T12:13:18.001Z</time></trkpt><trkpt lat="42.82489984896208" lon="-3.7705900205629086"><ele>867.5999999999999</ele><time>2026-05-02T12:13:19.001Z</time></trkpt><trkpt lat="42.82483632580241" lon="-3.770470242152027"><ele>866.8</ele><time>2026-05-02T12:13:20.001Z</time></trkpt><trkpt lat="42.82476998861107" lon="-3.770350518169182"><ele>866.0</ele><time>2026-05-02T12:13:21.001Z</time></trkpt><trkpt lat="42.824704173110725" lon="-3.7702296881132296"><ele>865.5999999999999</ele><time>2026-05-02T12:13:22.001Z</time></trkpt><trkpt lat="42.82463835844834" lon="-3.770110355895355"><ele>865.1999999999999</ele><time>2026-05-02T12:13:23.001Z</time></trkpt><trkpt lat="42.824576601463676" lon="-3.7699953390498027"><ele>864.8000000000001</ele><time>2026-05-02T12:13:24.001Z</time></trkpt><trkpt lat="42.82451597044176" lon="-3.7698744461885085"><ele>864.4000000000001</ele><time>2026-05-02T12:13:25.001Z</time></trkpt><trkpt lat="42.82445389462693" lon="-3.7697610454930444"><ele>864.0</ele><time>2026-05-02T12:13:26.001Z</time></trkpt><trkpt lat="42.824391712975796" lon="-3.7696422543039083"><ele>864.0</ele><time>2026-05-02T12:13:27.001Z</time></trkpt><trkpt lat="42.82432838499179" lon="-3.7695282437794333"><ele>864.0000000000001</ele><time>2026-05-02T12:13:28.001Z</time></trkpt><trkpt lat="42.82426558253436" lon="-3.76940652160128"><ele>864.0000000000001</ele><time>2026-05-02T12:13:29.001Z</time></trkpt><trkpt lat="42.82420261410196" lon="-3.769286681578215"><ele>864.0</ele><time>2026-05-02T12:13:30.001Z</time></trkpt><trkpt lat="42.82413824400925" lon="-3.769169797841596"><ele>864.0</ele><time>2026-05-02T12:13:31.001Z</time></trkpt><trkpt lat="42.8240724604537" lon="-3.7690504338126525"><ele>863.8000000000001</ele><time>2026-05-02T12:13:32.001Z</time></trkpt><trkpt lat="42.82400722747591" lon="-3.768933555990936"><ele>863.6000000000001</ele><time>2026-05-02T12:13:33.001Z</time></trkpt><trkpt lat="42.82394590747016" lon="-3.768817932190091"><ele>863.4</ele><time>2026-05-02T12:13:34.001Z</time></trkpt><trkpt lat="42.82388692513327" lon="-3.7687061872918415"><ele>863.2</ele><time>2026-05-02T12:13:35.001Z</time></trkpt><trkpt lat="42.82382296503124" lon="-3.7685888104907073"><ele>863.0</ele><time>2026-05-02T12:13:36.001Z</time></trkpt><trkpt lat="42.82376088483758" lon="-3.7684708667458366"><ele>863.0</ele><time>2026-05-02T12:13:37.001Z</time></trkpt><trkpt lat="42.823698037033125" lon="-3.7683600591124304"><ele>863.0</ele><time>2026-05-02T12:13:38.001Z</time></trkpt><trkpt lat="42.82363673183845" lon="-3.7682431213330476"><ele>863.0</ele><time>2026-05-02T12:13:39.001Z</time></trkpt><trkpt lat="42.82357492286976" lon="-3.7681249309005755"><ele>863.0</ele><time>2026-05-02T12:13:40.001Z</time></trkpt><trkpt lat="42.82351033500446" lon="-3.7680098508070374"><ele>863.0</ele><time>2026-05-02T12:13:41.001Z</time></trkpt><trkpt lat="42.823446681012626" lon="-3.7678916191992324"><ele>861.8</ele><time>2026-05-02T12:13:42.001Z</time></trkpt><trkpt lat="42.82337937023093" lon="-3.7677794114681475"><ele>860.5999999999999</ele><time>2026-05-02T12:13:43.001Z</time></trkpt><trkpt lat="42.82332093139902" lon="-3.7676605942007177"><ele>859.4000000000001</ele><time>2026-05-02T12:13:44.001Z</time></trkpt><trkpt lat="42.823257573532274" lon="-3.7675409809363756"><ele>858.2</ele><time>2026-05-02T12:13:45.001Z</time></trkpt><trkpt lat="42.8231860374168" lon="-3.767428763324012"><ele>857.0</ele><time>2026-05-02T12:13:46.001Z</time></trkpt><trkpt lat="42.82310891431421" lon="-3.767321572736859"><ele>856.2</ele><time>2026-05-02T12:13:47.001Z</time></trkpt><trkpt lat="42.82300678056673" lon="-3.7672459216717247"><ele>855.4000000000001</ele><time>2026-05-02T12:13:48.001Z</time></trkpt><trkpt lat="42.82291364464055" lon="-3.7671782099239506"><ele>854.5999999999999</ele><time>2026-05-02T12:13:49.001Z</time></trkpt><trkpt lat="42.82281708362496" lon="-3.7671226448525963"><ele>853.8</ele><time>2026-05-02T12:13:50.001Z</time></trkpt><trkpt lat="42.82272064700844" lon="-3.767057479693211"><ele>853.0</ele><time>2026-05-02T12:13:51.001Z</time></trkpt><trkpt lat="42.82261946939435" lon="-3.767010507813113"><ele>853.0</ele><time>2026-05-02T12:13:52.001Z</time></trkpt><trkpt lat="42.82251402963781" lon="-3.7669676164684214"><ele>853.0</ele><time>2026-05-02T12:13:53.001Z</time></trkpt><trkpt lat="42.82240958787424" lon="-3.7669152124149643"><ele>853.0</ele><time>2026-05-02T12:13:54.001Z</time></trkpt><trkpt lat="42.82231481427512" lon="-3.7668621201489474"><ele>853.0</ele><time>2026-05-02T12:13:55.001Z</time></trkpt><trkpt lat="42.822215450184196" lon="-3.7668111540496763"><ele>853.0</ele><time>2026-05-02T12:13:56.001Z</time></trkpt><trkpt lat="42.82211729169135" lon="-3.7667620492220983"><ele>852.4</ele><time>2026-05-02T12:13:57.001Z</time></trkpt><trkpt lat="42.82201756566974" lon="-3.7667128406311967"><ele>851.8</ele><time>2026-05-02T12:13:58.001Z</time></trkpt><trkpt lat="42.821917468858445" lon="-3.7666650047916836"><ele>851.2</ele><time>2026-05-02T12:13:59.001Z</time></trkpt><trkpt lat="42.82181877568556" lon="-3.766621782911111"><ele>850.6</ele><time>2026-05-02T12:14:00.001Z</time></trkpt><trkpt lat="42.821718588634276" lon="-3.766580619914743"><ele>850.0</ele><time>2026-05-02T12:14:01.001Z</time></trkpt><trkpt lat="42.821617347304446" lon="-3.766553585223347"><ele>848.8</ele><time>2026-05-02T12:14:02.001Z</time></trkpt><trkpt lat="42.82151247139356" lon="-3.766576514503632"><ele>847.6</ele><time>2026-05-02T12:14:03.001Z</time></trkpt><trkpt lat="42.821406137486335" lon="-3.76657529365823"><ele>846.4000000000001</ele><time>2026-05-02T12:14:04.001Z</time></trkpt><trkpt lat="42.82130438440042" lon="-3.7666133316159773"><ele>845.2</ele><time>2026-05-02T12:14:05.001Z</time></trkpt><trkpt lat="42.82120946201342" lon="-3.7666776630983634"><ele>844.0</ele><time>2026-05-02T12:14:06.001Z</time></trkpt><trkpt lat="42.82112779875975" lon="-3.76677116102578"><ele>845.2</ele><time>2026-05-02T12:14:07.001Z</time></trkpt><trkpt lat="42.82106025192936" lon="-3.766884850860954"><ele>846.4000000000001</ele><time>2026-05-02T12:14:08.001Z</time></trkpt><trkpt lat="42.821005769397495" lon="-3.767013758918251"><ele>847.6</ele><time>2026-05-02T12:14:09.001Z</time></trkpt><trkpt lat="42.82096600516139" lon="-3.767159651308708"><ele>848.8</ele><time>2026-05-02T12:14:10.001Z</time></trkpt><trkpt lat="42.82091296887326" lon="-3.7672867897557256"><ele>850.0</ele><time>2026-05-02T12:14:11.001Z</time></trkpt><trkpt lat="42.820858029738524" lon="-3.767416770426032"><ele>848.6</ele><time>2026-05-02T12:14:12.001Z</time></trkpt><trkpt lat="42.82079110558138" lon="-3.767524506215206"><ele>847.2</ele><time>2026-05-02T12:14:13.001Z</time></trkpt><trkpt lat="42.82070963023787" lon="-3.7676226978340828"><ele>845.8</ele><time>2026-05-02T12:14:14.001Z</time></trkpt><trkpt lat="42.820619302317134" lon="-3.767701815726373"><ele>844.4</ele><time>2026-05-02T12:14:15.001Z</time></trkpt><trkpt lat="42.82051956736381" lon="-3.76775710249931"><ele>843.0</ele><time>2026-05-02T12:14:16.001Z</time></trkpt><trkpt lat="42.8204306919992" lon="-3.7678221385919572"><ele>843.0</ele><time>2026-05-02T12:14:17.001Z</time></trkpt><trkpt lat="42.82026512152395" lon="-3.7678619452528017"><ele>843.0</ele><time>2026-05-02T12:14:18Z</time></trkpt><trkpt lat="42.82008870319658" lon="-3.7678494162265763"><ele>843.0</ele><time>2026-05-02T12:14:19Z</time></trkpt><trkpt lat="42.819986435576645" lon="-3.7678449127404723"><ele>843.0</ele><time>2026-05-02T12:14:21Z</time></trkpt><trkpt lat="42.81987949835048" lon="-3.7678241580848892"><ele>842.0</ele><time>2026-05-02T12:14:22Z</time></trkpt><trkpt lat="42.819770990200254" lon="-3.7678159261217568"><ele>841.0</ele><time>2026-05-02T12:14:23Z</time></trkpt><trkpt lat="42.81966171641957" lon="-3.7678230807291357"><ele>840.0</ele><time>2026-05-02T12:14:24Z</time></trkpt><trkpt lat="42.81955724034839" lon="-3.767868443412619"><ele>839.0</ele><time>2026-05-02T12:14:25Z</time></trkpt><trkpt lat="42.819450885988736" lon="-3.7679026240028253"><ele>838.0</ele><time>2026-05-02T12:14:26Z</time></trkpt><trkpt lat="42.81935577835883" lon="-3.7679436165388625"><ele>835.5999999999999</ele><time>2026-05-02T12:14:27Z</time></trkpt><trkpt lat="42.819257125408825" lon="-3.767994653032439"><ele>833.1999999999999</ele><time>2026-05-02T12:14:28Z</time></trkpt><trkpt lat="42.81915450530768" lon="-3.7680561482734496"><ele>830.8</ele><time>2026-05-02T12:14:29Z</time></trkpt><trkpt lat="42.81905581198873" lon="-3.7681266722866487"><ele>828.4</ele><time>2026-05-02T12:14:30Z</time></trkpt><trkpt lat="42.818960704944274" lon="-3.7682057007306633"><ele>826.0</ele><time>2026-05-02T12:14:31Z</time></trkpt><trkpt lat="42.81887060489147" lon="-3.7682976423939234"><ele>826.0</ele><time>2026-05-02T12:14:32Z</time></trkpt><trkpt lat="42.81878202405708" lon="-3.768399940756446"><ele>826.0</ele><time>2026-05-02T12:14:33Z</time></trkpt><trkpt lat="42.8187013590386" lon="-3.768510017720566"><ele>826.0</ele><time>2026-05-02T12:14:34Z</time></trkpt><trkpt lat="42.81862580839819" lon="-3.768624010249801"><ele>826.0</ele><time>2026-05-02T12:14:35Z</time></trkpt><trkpt lat="42.818552870530695" lon="-3.7687344153968527"><ele>824.0</ele><time>2026-05-02T12:14:36Z</time></trkpt><trkpt lat="42.81848658634574" lon="-3.768859626738671"><ele>822.0</ele><time>2026-05-02T12:14:37Z</time></trkpt><trkpt lat="42.818422228665085" lon="-3.7689843208481717"><ele>820.0</ele><time>2026-05-02T12:14:38Z</time></trkpt><trkpt lat="42.818352676122174" lon="-3.7691097106196825"><ele>818.0</ele><time>2026-05-02T12:14:39Z</time></trkpt><trkpt lat="42.818280975665985" lon="-3.769224533085168"><ele>818.0</ele><time>2026-05-02T12:14:40Z</time></trkpt><trkpt lat="42.818206024799515" lon="-3.7693242949794463"><ele>818.0</ele><time>2026-05-02T12:14:41Z</time></trkpt><trkpt lat="42.818113204119925" lon="-3.769408107565193"><ele>818.0</ele><time>2026-05-02T12:14:42Z</time></trkpt><trkpt lat="42.81792377168452" lon="-3.769522770671905"><ele>818.0</ele><time>2026-05-02T12:14:44Z</time></trkpt><trkpt lat="42.817823196888796" lon="-3.76957341595291"><ele>819.4</ele><time>2026-05-02T12:14:45Z</time></trkpt><trkpt lat="42.81771747440888" lon="-3.7696265180806905"><ele>820.8</ele><time>2026-05-02T12:14:46Z</time></trkpt><trkpt lat="42.81761280038273" lon="-3.7696790935902302"><ele>822.2</ele><time>2026-05-02T12:14:47Z</time></trkpt><trkpt lat="42.817509443200635" lon="-3.769731007677189"><ele>823.6</ele><time>2026-05-02T12:14:48Z</time></trkpt><trkpt lat="42.81740908301746" lon="-3.769781416535269"><ele>825.0</ele><time>2026-05-02T12:14:49Z</time></trkpt><trkpt lat="42.817318262175334" lon="-3.7698407173133277"><ele>820.8</ele><time>2026-05-02T12:14:50Z</time></trkpt><trkpt lat="42.81723094027649" lon="-3.7699156533205804"><ele>816.6</ele><time>2026-05-02T12:14:51Z</time></trkpt><trkpt lat="42.817143685534646" lon="-3.770002135919025"><ele>812.4000000000001</ele><time>2026-05-02T12:14:52Z</time></trkpt><trkpt lat="42.81705177338909" lon="-3.770101669981598"><ele>808.2</ele><time>2026-05-02T12:14:53Z</time></trkpt><trkpt lat="42.81695908624773" lon="-3.7701829347890095"><ele>804.0</ele><time>2026-05-02T12:14:54Z</time></trkpt><trkpt lat="42.81687841629155" lon="-3.7702903253770064"><ele>803.25</ele><time>2026-05-02T12:14:55Z</time></trkpt><trkpt lat="42.81679222048127" lon="-3.7703934947231987"><ele>802.5</ele><time>2026-05-02T12:14:56Z</time></trkpt><trkpt lat="42.81670090778308" lon="-3.770489707923761"><ele>801.75</ele><time>2026-05-02T12:14:57Z</time></trkpt><trkpt lat="42.81661341061726" lon="-3.770590275379898"><ele>801.0</ele><time>2026-05-02T12:14:58Z</time></trkpt><trkpt lat="42.81652810021963" lon="-3.7706906701073883"><ele>801.0</ele><time>2026-05-02T12:14:59Z</time></trkpt><trkpt lat="42.81644426569298" lon="-3.770783275124231"><ele>801.0</ele><time>2026-05-02T12:15:00Z</time></trkpt><trkpt lat="42.81636764218672" lon="-3.7708822829146302"><ele>801.0</ele><time>2026-05-02T12:15:01Z</time></trkpt><trkpt lat="42.81628029525257" lon="-3.7709763431489898"><ele>801.0</ele><time>2026-05-02T12:15:02Z</time></trkpt><trkpt lat="42.816181632542" lon="-3.771061684113515"><ele>801.0</ele><time>2026-05-02T12:15:03Z</time></trkpt><trkpt lat="42.81608295071975" lon="-3.7711741424467964"><ele>797.4</ele><time>2026-05-02T12:15:04Z</time></trkpt><trkpt lat="42.81601400769254" lon="-3.7712418296932655"><ele>793.8</ele><time>2026-05-02T12:15:05Z</time></trkpt><trkpt lat="42.8159250927489" lon="-3.771301404804882"><ele>790.1999999999999</ele><time>2026-05-02T12:15:06Z</time></trkpt><trkpt lat="42.81582989125665" lon="-3.771359523377132"><ele>786.5999999999999</ele><time>2026-05-02T12:15:07Z</time></trkpt><trkpt lat="42.81573311900392" lon="-3.7714244533064316"><ele>783.0</ele><time>2026-05-02T12:15:08Z</time></trkpt><trkpt lat="42.81563649708653" lon="-3.7714884770055184"><ele>783.0</ele><time>2026-05-02T12:15:09Z</time></trkpt><trkpt lat="42.81553141408905" lon="-3.771532642329139"><ele>783.0</ele><time>2026-05-02T12:15:10Z</time></trkpt><trkpt lat="42.81542574507387" lon="-3.771581971239427"><ele>783.0</ele><time>2026-05-02T12:15:11Z</time></trkpt><trkpt lat="42.815318726437255" lon="-3.7716107866401622"><ele>783.0</ele><time>2026-05-02T12:15:12Z</time></trkpt><trkpt lat="42.81521218531985" lon="-3.771636621387742"><ele>783.0</ele><time>2026-05-02T12:15:13Z</time></trkpt><trkpt lat="42.815106789246144" lon="-3.7716587737646496"><ele>783.8</ele><time>2026-05-02T12:15:14Z</time></trkpt><trkpt lat="42.81500031331414" lon="-3.7716914349302826"><ele>784.5999999999999</ele><time>2026-05-02T12:15:15Z</time></trkpt><trkpt lat="42.8148999105678" lon="-3.7717040685898344"><ele>785.4000000000001</ele><time>2026-05-02T12:15:16Z</time></trkpt><trkpt lat="42.814805232586636" lon="-3.771709886826568"><ele>786.2</ele><time>2026-05-02T12:15:17Z</time></trkpt><trkpt lat="42.81470877182546" lon="-3.7716842838710605"><ele>787.0</ele><time>2026-05-02T12:15:18Z</time></trkpt><trkpt lat="42.81460630555827" lon="-3.7716894125963973"><ele>787.0</ele><time>2026-05-02T12:15:19Z</time></trkpt><trkpt lat="42.81450856594947" lon="-3.7716648364712677"><ele>787.0</ele><time>2026-05-02T12:15:20Z</time></trkpt><trkpt lat="42.81441003585078" lon="-3.7716312547858735"><ele>787.0</ele><time>2026-05-02T12:15:21Z</time></trkpt><trkpt lat="42.81431199733447" lon="-3.771591596936916"><ele>787.0</ele><time>2026-05-02T12:15:22Z</time></trkpt><trkpt lat="42.81421290054083" lon="-3.7715491477895204"><ele>787.0</ele><time>2026-05-02T12:15:23Z</time></trkpt><trkpt lat="42.814117032036314" lon="-3.7715060349742253"><ele>784.6</ele><time>2026-05-02T12:15:24Z</time></trkpt><trkpt lat="42.814016641224" lon="-3.7714615772464337"><ele>782.2</ele><time>2026-05-02T12:15:25Z</time></trkpt><trkpt lat="42.813915340406545" lon="-3.7714175580349996"><ele>779.8</ele><time>2026-05-02T12:15:26Z</time></trkpt><trkpt lat="42.81381952332084" lon="-3.7713759218088763"><ele>777.4</ele><time>2026-05-02T12:15:27Z</time></trkpt><trkpt lat="42.81372312588194" lon="-3.77133446617306"><ele>775.0</ele><time>2026-05-02T12:15:28Z</time></trkpt><trkpt lat="42.81362710655229" lon="-3.7712950090079187"><ele>775.0</ele><time>2026-05-02T12:15:29Z</time></trkpt><trkpt lat="42.81353196228586" lon="-3.7712577966468244"><ele>775.0</ele><time>2026-05-02T12:15:30.001Z</time></trkpt><trkpt lat="42.81343763724992" lon="-3.771236163841794"><ele>775.0</ele><time>2026-05-02T12:15:31.001Z</time></trkpt><trkpt lat="42.813345152748866" lon="-3.7712358027871824"><ele>775.0</ele><time>2026-05-02T12:15:32.001Z</time></trkpt><trkpt lat="42.81325474580604" lon="-3.771246422981963"><ele>775.0</ele><time>2026-05-02T12:15:33.001Z</time></trkpt><trkpt lat="42.81316863968571" lon="-3.7712615305512007"><ele>773.9999999999999</ele><time>2026-05-02T12:15:34.001Z</time></trkpt><trkpt lat="42.813087526649504" lon="-3.771269760521621"><ele>773.0</ele><time>2026-05-02T12:15:35.001Z</time></trkpt><trkpt lat="42.81300204788979" lon="-3.7712921978703964"><ele>772.0</ele><time>2026-05-02T12:15:36.001Z</time></trkpt><trkpt lat="42.81290621319891" lon="-3.771316882492845"><ele>771.0</ele><time>2026-05-02T12:15:37.001Z</time></trkpt><trkpt lat="42.81282301416108" lon="-3.7713305451332566"><ele>769.9999999999999</ele><time>2026-05-02T12:15:38.001Z</time></trkpt><trkpt lat="42.81274357190275" lon="-3.7713426847014078"><ele>769.0</ele><time>2026-05-02T12:15:39.001Z</time></trkpt><trkpt lat="42.81267001382302" lon="-3.7713822088740487"><ele>768.9999999999999</ele><time>2026-05-02T12:15:40.001Z</time></trkpt><trkpt lat="42.81259564409997" lon="-3.7714111055963646"><ele>769.0</ele><time>2026-05-02T12:15:41.001Z</time></trkpt><trkpt lat="42.81253356599839" lon="-3.7714576022222395"><ele>769.0</ele><time>2026-05-02T12:15:42.001Z</time></trkpt><trkpt lat="42.812523861409474" lon="-3.7715698205076182"><ele>769.0</ele><time>2026-05-02T12:15:43.001Z</time></trkpt><trkpt lat="42.81256275732048" lon="-3.7716854321973763"><ele>768.9999999999999</ele><time>2026-05-02T12:15:44.001Z</time></trkpt><trkpt lat="42.812631491201444" lon="-3.7717605861451546"><ele>769.0</ele><time>2026-05-02T12:15:45.001Z</time></trkpt><trkpt lat="42.81271671633178" lon="-3.7717798324458323"><ele>768.9999999999999</ele><time>2026-05-02T12:15:46.001Z</time></trkpt><trkpt lat="42.81278832382295" lon="-3.771716797401789"><ele>769.0</ele><time>2026-05-02T12:15:47.001Z</time></trkpt><trkpt lat="42.812858888910895" lon="-3.771693039331971"><ele>769.0</ele><time>2026-05-02T12:15:48.001Z</time></trkpt><trkpt lat="42.812923391247985" lon="-3.7716588675821874"><ele>769.0</ele><time>2026-05-02T12:15:49.001Z</time></trkpt><trkpt lat="42.81300036066115" lon="-3.771633771926446"><ele>768.9999999999999</ele><time>2026-05-02T12:15:50.001Z</time></trkpt><trkpt lat="42.81307745418744" lon="-3.7716045846036885"><ele>769.0</ele><time>2026-05-02T12:15:51.001Z</time></trkpt><trkpt lat="42.81315394437405" lon="-3.77157197433231"><ele>768.9999999999999</ele><time>2026-05-02T12:15:52.001Z</time></trkpt><trkpt lat="42.81323311405704" lon="-3.7715431284521284"><ele>769.0</ele><time>2026-05-02T12:15:53.001Z</time></trkpt><trkpt lat="42.81331251572236" lon="-3.771528006352375"><ele>769.0</ele><time>2026-05-02T12:15:54.001Z</time></trkpt><trkpt lat="42.81339401011066" lon="-3.7715210468548386"><ele>769.0</ele><time>2026-05-02T12:15:55.001Z</time></trkpt><trkpt lat="42.81348067269633" lon="-3.7715286178789547"><ele>768.9999999999999</ele><time>2026-05-02T12:15:56.001Z</time></trkpt><trkpt lat="42.81357170912335" lon="-3.771546448367196"><ele>769.0</ele><time>2026-05-02T12:15:57.001Z</time></trkpt><trkpt lat="42.81366308110454" lon="-3.771571517487215"><ele>770.2</ele><time>2026-05-02T12:15:58.001Z</time></trkpt><trkpt lat="42.81375824806505" lon="-3.7716103374227"><ele>771.4000000000001</ele><time>2026-05-02T12:15:59.001Z</time></trkpt><trkpt lat="42.81385538591009" lon="-3.7716562751662535"><ele>772.6</ele><time>2026-05-02T12:16:00.001Z</time></trkpt><trkpt lat="42.81395411263805" lon="-3.771713585820324"><ele>773.8</ele><time>2026-05-02T12:16:01.001Z</time></trkpt><trkpt lat="42.814048667872385" lon="-3.771776361143109"><ele>775.0</ele><time>2026-05-02T12:16:02.001Z</time></trkpt><trkpt lat="42.81414906855215" lon="-3.771839141215291"><ele>770.2</ele><time>2026-05-02T12:16:03.001Z</time></trkpt><trkpt lat="42.81424964184719" lon="-3.771897382093496"><ele>765.4</ele><time>2026-05-02T12:16:04.001Z</time></trkpt><trkpt lat="42.81434889657214" lon="-3.7719532397665487"><ele>760.5999999999999</ele><time>2026-05-02T12:16:05.001Z</time></trkpt><trkpt lat="42.814451003947326" lon="-3.771998846922091"><ele>755.8</ele><time>2026-05-02T12:16:06.001Z</time></trkpt><trkpt lat="42.81455590249406" lon="-3.772037646653736"><ele>751.0</ele><time>2026-05-02T12:16:07.001Z</time></trkpt><trkpt lat="42.814660964555564" lon="-3.7720724390090132"><ele>751.0</ele><time>2026-05-02T12:16:08.001Z</time></trkpt><trkpt lat="42.81476608172253" lon="-3.7720999899786873"><ele>751.0</ele><time>2026-05-02T12:16:09.001Z</time></trkpt><trkpt lat="42.81487408419951" lon="-3.7721146639800747"><ele>751.0</ele><time>2026-05-02T12:16:10.001Z</time></trkpt><trkpt lat="42.81498265852849" lon="-3.772116345674402"><ele>751.0</ele><time>2026-05-02T12:16:11.001Z</time></trkpt><trkpt lat="42.81508645096635" lon="-3.772104393158956"><ele>751.0</ele><time>2026-05-02T12:16:12.001Z</time></trkpt><trkpt lat="42.81519341963121" lon="-3.7720764282652124"><ele>750.1999999999999</ele><time>2026-05-02T12:16:13.001Z</time></trkpt><trkpt lat="42.8153018582233" lon="-3.772043591350969"><ele>749.4</ele><time>2026-05-02T12:16:14.001Z</time></trkpt><trkpt lat="42.81540792678054" lon="-3.772016698151313"><ele>748.6</ele><time>2026-05-02T12:16:15.001Z</time></trkpt><trkpt lat="42.815516803751215" lon="-3.7719984956277375"><ele>747.8</ele><time>2026-05-02T12:16:16.001Z</time></trkpt><trkpt lat="42.81562110119199" lon="-3.7719939259869117"><ele>747.0</ele><time>2026-05-02T12:16:17.001Z</time></trkpt><trkpt lat="42.81572527060837" lon="-3.7719958340575364"><ele>747.0</ele><time>2026-05-02T12:16:18.001Z</time></trkpt><trkpt lat="42.815831531707325" lon="-3.771998211368163"><ele>747.0</ele><time>2026-05-02T12:16:19.001Z</time></trkpt><trkpt lat="42.815936606119976" lon="-3.7719961314896078"><ele>747.0</ele><time>2026-05-02T12:16:20.001Z</time></trkpt><trkpt lat="42.816039714666985" lon="-3.771985665472022"><ele>747.0</ele><time>2026-05-02T12:16:21.001Z</time></trkpt><trkpt lat="42.816146281618494" lon="-3.7719689706499984"><ele>747.0</ele><time>2026-05-02T12:16:22.001Z</time></trkpt><trkpt lat="42.816255622751854" lon="-3.77194308737694"><ele>747.6</ele><time>2026-05-02T12:16:23.001Z</time></trkpt><trkpt lat="42.81636208774967" lon="-3.771912440214353"><ele>748.2</ele><time>2026-05-02T12:16:24Z</time></trkpt><trkpt lat="42.816467757252276" lon="-3.7718612139913317"><ele>748.8</ele><time>2026-05-02T12:16:25Z</time></trkpt><trkpt lat="42.81655880880384" lon="-3.771810038892429"><ele>749.4</ele><time>2026-05-02T12:16:26Z</time></trkpt><trkpt lat="42.81664196161712" lon="-3.771759352962575"><ele>750.0</ele><time>2026-05-02T12:16:27Z</time></trkpt><trkpt lat="42.816721474917614" lon="-3.7717110258392026"><ele>751.6666666666666</ele><time>2026-05-02T12:16:28Z</time></trkpt><trkpt lat="42.81679852033505" lon="-3.771668583274587"><ele>753.3333333333334</ele><time>2026-05-02T12:16:29Z</time></trkpt><trkpt lat="42.81687607160624" lon="-3.7716283529662173"><ele>755.0</ele><time>2026-05-02T12:16:30Z</time></trkpt><trkpt lat="42.81695381817174" lon="-3.7715941111413516"><ele>756.6666666666667</ele><time>2026-05-02T12:16:31Z</time></trkpt><trkpt lat="42.81703600779921" lon="-3.7715767823019135"><ele>758.3333333333334</ele><time>2026-05-02T12:16:32Z</time></trkpt><trkpt lat="42.81712150696518" lon="-3.7715877213777054"><ele>760.0</ele><time>2026-05-02T12:16:33Z</time></trkpt><trkpt lat="42.81720125440797" lon="-3.7716351262492496"><ele>763.8</ele><time>2026-05-02T12:16:34Z</time></trkpt><trkpt lat="42.81727287068066" lon="-3.7717206109101853"><ele>767.6</ele><time>2026-05-02T12:16:35Z</time></trkpt><trkpt lat="42.817320177665046" lon="-3.771829300187796"><ele>771.4000000000001</ele><time>2026-05-02T12:16:36Z</time></trkpt><trkpt lat="42.81732999781253" lon="-3.7719586289520928"><ele>775.2</ele><time>2026-05-02T12:16:37Z</time></trkpt><trkpt lat="42.8173108652588" lon="-3.7720847618566937"><ele>779.0</ele><time>2026-05-02T12:16:38Z</time></trkpt><trkpt lat="42.81727090923483" lon="-3.77219011702908"><ele>779.8333333333334</ele><time>2026-05-02T12:16:39Z</time></trkpt><trkpt lat="42.81721844846336" lon="-3.7722784458917498"><ele>780.6666666666667</ele><time>2026-05-02T12:16:40Z</time></trkpt><trkpt lat="42.8171485033211" lon="-3.7723342480302384"><ele>781.5</ele><time>2026-05-02T12:16:41Z</time></trkpt><trkpt lat="42.817082137889166" lon="-3.7723693824158873"><ele>782.3333333333333</ele><time>2026-05-02T12:16:42Z</time></trkpt><trkpt lat="42.81699755558239" lon="-3.7723722459780156"><ele>783.1666666666666</ele><time>2026-05-02T12:16:44Z</time></trkpt><trkpt lat="42.81693786109866" lon="-3.7723334358574188"><ele>784.0</ele><time>2026-05-02T12:17:28Z</time></trkpt><trkpt lat="42.81687494388944" lon="-3.772319193567467"><ele>778.3333333333333</ele><time>2026-05-02T12:17:32.001Z</time></trkpt><trkpt lat="42.81680211873361" lon="-3.772312421261239"><ele>772.6666666666666</ele><time>2026-05-02T12:26:37Z</time></trkpt><trkpt lat="42.81673531601929" lon="-3.772325968400667"><ele>767.0</ele><time>2026-05-02T12:26:41Z</time></trkpt><trkpt lat="42.81665775151831" lon="-3.772318414532098"><ele>761.3333333333333</ele><time>2026-05-02T12:26:44Z</time></trkpt><trkpt lat="42.81657337505535" lon="-3.772309601885906"><ele>755.6666666666666</ele><time>2026-05-02T12:26:46Z</time></trkpt><trkpt lat="42.816470976950264" lon="-3.7722867965254174"><ele>750.0</ele><time>2026-05-02T12:26:48Z</time></trkpt><trkpt lat="42.816349082035394" lon="-3.772284241882274"><ele>750.0</ele><time>2026-05-02T12:26:50Z</time></trkpt><trkpt lat="42.81628330248267" lon="-3.772285568431156"><ele>750.0</ele><time>2026-05-02T12:26:51Z</time></trkpt><trkpt lat="42.8162154431685" lon="-3.7722957776778343"><ele>750.0</ele><time>2026-05-02T12:26:52Z</time></trkpt><trkpt lat="42.81614152719983" lon="-3.7723097842705178"><ele>750.0</ele><time>2026-05-02T12:26:53Z</time></trkpt><trkpt lat="42.816063799446844" lon="-3.7723273463637708"><ele>750.0</ele><time>2026-05-02T12:26:54Z</time></trkpt><trkpt lat="42.81598582714754" lon="-3.772351854821413"><ele>750.0</ele><time>2026-05-02T12:26:55Z</time></trkpt><trkpt lat="42.81590301095018" lon="-3.77238165568168"><ele>749.4</ele><time>2026-05-02T12:26:56Z</time></trkpt><trkpt lat="42.815818723735646" lon="-3.772414269857633"><ele>748.8</ele><time>2026-05-02T12:26:57Z</time></trkpt><trkpt lat="42.81573179166832" lon="-3.7724466540038013"><ele>748.2</ele><time>2026-05-02T12:26:58Z</time></trkpt><trkpt lat="42.815640022407955" lon="-3.7724796962659037"><ele>747.6</ele><time>2026-05-02T12:26:59Z</time></trkpt><trkpt lat="42.815548105764584" lon="-3.7725155498526064"><ele>747.0</ele><time>2026-05-02T12:27:00Z</time></trkpt><trkpt lat="42.81545657785282" lon="-3.7725507323733685"><ele>747.0</ele><time>2026-05-02T12:27:01Z</time></trkpt><trkpt lat="42.81536432512786" lon="-3.7725853433662846"><ele>747.0</ele><time>2026-05-02T12:27:02Z</time></trkpt><trkpt lat="42.81527334537057" lon="-3.772618545500233"><ele>747.0</ele><time>2026-05-02T12:27:03Z</time></trkpt><trkpt lat="42.81518647945379" lon="-3.7726547388704548"><ele>747.0</ele><time>2026-05-02T12:27:04Z</time></trkpt><trkpt lat="42.81509756035734" lon="-3.7726904956805436"><ele>747.0</ele><time>2026-05-02T12:27:05Z</time></trkpt><trkpt lat="42.81500993374328" lon="-3.7727224332060803"><ele>743.0</ele><time>2026-05-02T12:27:06Z</time></trkpt><trkpt lat="42.81492312656307" lon="-3.7727519191444565"><ele>739.0</ele><time>2026-05-02T12:27:07Z</time></trkpt><trkpt lat="42.81483690782137" lon="-3.772787629712364"><ele>735.0</ele><time>2026-05-02T12:27:08Z</time></trkpt><trkpt lat="42.81475368826419" lon="-3.7728251168109357"><ele>731.0</ele><time>2026-05-02T12:27:09Z</time></trkpt><trkpt lat="42.81466888972776" lon="-3.7728538256772377"><ele>727.0</ele><time>2026-05-02T12:27:10Z</time></trkpt><trkpt lat="42.81458063067027" lon="-3.772866530911634"><ele>723.0</ele><time>2026-05-02T12:27:11Z</time></trkpt><trkpt lat="42.81448999729561" lon="-3.7728725343981724"><ele>723.0</ele><time>2026-05-02T12:27:12Z</time></trkpt><trkpt lat="42.8143977106532" lon="-3.7728779302154254"><ele>723.0</ele><time>2026-05-02T12:27:13Z</time></trkpt><trkpt lat="42.81430635703417" lon="-3.772879541937824"><ele>723.0</ele><time>2026-05-02T12:27:14Z</time></trkpt><trkpt lat="42.81421551650008" lon="-3.77287662723842"><ele>723.0</ele><time>2026-05-02T12:27:15Z</time></trkpt><trkpt lat="42.814122136036666" lon="-3.7728728948176213"><ele>723.0</ele><time>2026-05-02T12:27:16Z</time></trkpt><trkpt lat="42.81403055598192" lon="-3.772871682837695"><ele>722.8333333333334</ele><time>2026-05-02T12:27:17Z</time></trkpt><trkpt lat="42.81394204587839" lon="-3.7728702080854912"><ele>722.6666666666666</ele><time>2026-05-02T12:27:18Z</time></trkpt><trkpt lat="42.81385377249759" lon="-3.772866839140039"><ele>722.5</ele><time>2026-05-02T12:27:19Z</time></trkpt><trkpt lat="42.8137680887013" lon="-3.7728618744403626"><ele>722.3333333333333</ele><time>2026-05-02T12:27:20Z</time></trkpt><trkpt lat="42.81368445892407" lon="-3.7728582438951643"><ele>722.1666666666666</ele><time>2026-05-02T12:27:21Z</time></trkpt><trkpt lat="42.81360281235754" lon="-3.7728610757699377"><ele>722.0</ele><time>2026-05-02T12:27:22Z</time></trkpt><trkpt lat="42.81352051822716" lon="-3.772867816333125"><ele>722.1666666666666</ele><time>2026-05-02T12:27:23Z</time></trkpt><trkpt lat="42.8134364103199" lon="-3.7728847265391687"><ele>722.3333333333333</ele><time>2026-05-02T12:27:24Z</time></trkpt><trkpt lat="42.81335189214111" lon="-3.772914938349699"><ele>722.5</ele><time>2026-05-02T12:27:25Z</time></trkpt><trkpt lat="42.81326872910171" lon="-3.772947518616682"><ele>722.6666666666666</ele><time>2026-05-02T12:27:26Z</time></trkpt><trkpt lat="42.813184432989424" lon="-3.7729901625613396"><ele>722.8333333333334</ele><time>2026-05-02T12:27:27Z</time></trkpt><trkpt lat="42.81309937465915" lon="-3.7730367733466865"><ele>723.0</ele><time>2026-05-02T12:27:28Z</time></trkpt><trkpt lat="42.813012881445125" lon="-3.773086795447101"><ele>723.0</ele><time>2026-05-02T12:27:29Z</time></trkpt><trkpt lat="42.81292488094925" lon="-3.7731354549542755"><ele>723.0</ele><time>2026-05-02T12:27:30Z</time></trkpt><trkpt lat="42.81283937300185" lon="-3.7731845237876085"><ele>723.0</ele><time>2026-05-02T12:27:31Z</time></trkpt><trkpt lat="42.81275182015" lon="-3.7732368076962777"><ele>723.0</ele><time>2026-05-02T12:27:32Z</time></trkpt><trkpt lat="42.81266490279586" lon="-3.7732879850225824"><ele>723.0</ele><time>2026-05-02T12:27:33Z</time></trkpt><trkpt lat="42.812577423417714" lon="-3.7733384354578208"><ele>724.0</ele><time>2026-05-02T12:27:34Z</time></trkpt><trkpt lat="42.81248855925217" lon="-3.773391612146145"><ele>725.0</ele><time>2026-05-02T12:27:35Z</time></trkpt><trkpt lat="42.812399630554125" lon="-3.7734405965936895"><ele>726.0</ele><time>2026-05-02T12:27:36Z</time></trkpt><trkpt lat="42.81230762142389" lon="-3.7734935429354968"><ele>727.0</ele><time>2026-05-02T12:27:37Z</time></trkpt><trkpt lat="42.81221712060409" lon="-3.7735407577135165"><ele>728.0</ele><time>2026-05-02T12:27:38Z</time></trkpt><trkpt lat="42.812123597841776" lon="-3.773596508493074"><ele>724.5999999999999</ele><time>2026-05-02T12:27:39Z</time></trkpt><trkpt lat="42.812034328707526" lon="-3.773649335612114"><ele>721.1999999999999</ele><time>2026-05-02T12:27:40Z</time></trkpt><trkpt lat="42.811942336598655" lon="-3.773698241967003"><ele>717.8</ele><time>2026-05-02T12:27:41Z</time></trkpt><trkpt lat="42.81185235832057" lon="-3.7737472368352885"><ele>714.4</ele><time>2026-05-02T12:27:42Z</time></trkpt><trkpt lat="42.81176361175712" lon="-3.7737946722644793"><ele>711.0</ele><time>2026-05-02T12:27:43Z</time></trkpt><trkpt lat="42.811673718430335" lon="-3.773841280580976"><ele>711.0</ele><time>2026-05-02T12:27:44Z</time></trkpt><trkpt lat="42.81158031453041" lon="-3.7738954538601477"><ele>711.0</ele><time>2026-05-02T12:27:45Z</time></trkpt><trkpt lat="42.81148636413263" lon="-3.773947988254141"><ele>711.0</ele><time>2026-05-02T12:27:46Z</time></trkpt><trkpt lat="42.81139405608103" lon="-3.7739996987550235"><ele>711.0</ele><time>2026-05-02T12:27:47Z</time></trkpt><trkpt lat="42.811302725851576" lon="-3.7740488641893664"><ele>711.0</ele><time>2026-05-02T12:27:48Z</time></trkpt><trkpt lat="42.811210146777064" lon="-3.7740972382940594"><ele>711.0</ele><time>2026-05-02T12:27:49Z</time></trkpt><trkpt lat="42.81111887325856" lon="-3.7741437123229025"><ele>711.0</ele><time>2026-05-02T12:27:50Z</time></trkpt><trkpt lat="42.81103868220813" lon="-3.774211465939628"><ele>711.0</ele><time>2026-05-02T12:27:51Z</time></trkpt><trkpt lat="42.81095826866952" lon="-3.7742610379961268"><ele>711.0</ele><time>2026-05-02T12:27:52Z</time></trkpt><trkpt lat="42.810883993258365" lon="-3.7743029487183257"><ele>711.0</ele><time>2026-05-02T12:27:53Z</time></trkpt><trkpt lat="42.81082458037987" lon="-3.7743382803263303"><ele>711.0</ele><time>2026-05-02T12:27:54Z</time></trkpt><trkpt lat="42.81073603730027" lon="-3.774385549376297"><ele>707.6666666666666</ele><time>2026-05-02T12:27:56Z</time></trkpt><trkpt lat="42.81067208612743" lon="-3.7744149727280267"><ele>704.3333333333334</ele><time>2026-05-02T12:27:58Z</time></trkpt><trkpt lat="42.8105994031289" lon="-3.7744341842346447"><ele>701.0</ele><time>2026-05-02T12:28:56.001Z</time></trkpt><trkpt lat="42.810517864402954" lon="-3.7744642526800947"><ele>697.6666666666667</ele><time>2026-05-02T12:28:58.001Z</time></trkpt><trkpt lat="42.81039876088529" lon="-3.7744937668943255"><ele>694.3333333333334</ele><time>2026-05-02T12:29:00Z</time></trkpt><trkpt lat="42.810328974530876" lon="-3.7745070650752095"><ele>691.0</ele><time>2026-05-02T12:29:01Z</time></trkpt><trkpt lat="42.8102526756544" lon="-3.774519735660324"><ele>691.0</ele><time>2026-05-02T12:29:02Z</time></trkpt><trkpt lat="42.81016752793622" lon="-3.7745334862840725"><ele>691.0</ele><time>2026-05-02T12:29:03Z</time></trkpt><trkpt lat="42.81007990562276" lon="-3.774544216461137"><ele>691.0</ele><time>2026-05-02T12:29:04Z</time></trkpt><trkpt lat="42.8099882976263" lon="-3.774555434714346"><ele>691.0</ele><time>2026-05-02T12:29:05Z</time></trkpt><trkpt lat="42.80989461118079" lon="-3.7745729218809396"><ele>691.0</ele><time>2026-05-02T12:29:06Z</time></trkpt><trkpt lat="42.80979596608306" lon="-3.7745938534701935"><ele>690.5999999999999</ele><time>2026-05-02T12:29:07Z</time></trkpt><trkpt lat="42.80969343782595" lon="-3.7746100455430582"><ele>690.2</ele><time>2026-05-02T12:29:08Z</time></trkpt><trkpt lat="42.80959077044512" lon="-3.774620429058323"><ele>689.8</ele><time>2026-05-02T12:29:09Z</time></trkpt><trkpt lat="42.80948758125434" lon="-3.77463072257987"><ele>689.4000000000001</ele><time>2026-05-02T12:29:10Z</time></trkpt><trkpt lat="42.809382699958206" lon="-3.7746475083066264"><ele>689.0</ele><time>2026-05-02T12:29:11Z</time></trkpt><trkpt lat="42.80927615871298" lon="-3.77466861287666"><ele>689.8000000000001</ele><time>2026-05-02T12:29:12Z</time></trkpt><trkpt lat="42.80917368528055" lon="-3.7746937052645566"><ele>690.6</ele><time>2026-05-02T12:29:13Z</time></trkpt><trkpt lat="42.809074857092355" lon="-3.7747206387265653"><ele>691.4</ele><time>2026-05-02T12:29:14Z</time></trkpt><trkpt lat="42.808975703776994" lon="-3.7747512933179044"><ele>692.2</ele><time>2026-05-02T12:29:15Z</time></trkpt><trkpt lat="42.80887726877366" lon="-3.7747637166977097"><ele>693.0</ele><time>2026-05-02T12:29:16Z</time></trkpt><trkpt lat="42.808781369005686" lon="-3.774806424062703"><ele>693.0</ele><time>2026-05-02T12:29:17Z</time></trkpt><trkpt lat="42.80868185013219" lon="-3.7748494337873426"><ele>693.0</ele><time>2026-05-02T12:29:18Z</time></trkpt><trkpt lat="42.80858606963362" lon="-3.774893197402636"><ele>693.0</ele><time>2026-05-02T12:29:19Z</time></trkpt><trkpt lat="42.808492511848556" lon="-3.774939959907701"><ele>693.0</ele><time>2026-05-02T12:29:20Z</time></trkpt><trkpt lat="42.808398244568686" lon="-3.774983173950297"><ele>693.0</ele><time>2026-05-02T12:29:21Z</time></trkpt><trkpt lat="42.80830583851534" lon="-3.7750282248618507"><ele>695.4</ele><time>2026-05-02T12:29:22Z</time></trkpt><trkpt lat="42.80820762532681" lon="-3.7750659927061347"><ele>697.8</ele><time>2026-05-02T12:29:23Z</time></trkpt><trkpt lat="42.80811030851919" lon="-3.775097294948581"><ele>700.2</ele><time>2026-05-02T12:29:24Z</time></trkpt><trkpt lat="42.80801125291313" lon="-3.7751356327052292"><ele>702.6</ele><time>2026-05-02T12:29:25Z</time></trkpt><trkpt lat="42.8079136696524" lon="-3.775137070158005"><ele>705.0</ele><time>2026-05-02T12:29:26Z</time></trkpt><trkpt lat="42.80781169299478" lon="-3.775130105351466"><ele>705.0</ele><time>2026-05-02T12:29:27Z</time></trkpt><trkpt lat="42.80770824001948" lon="-3.775118929619566"><ele>705.0</ele><time>2026-05-02T12:29:28Z</time></trkpt><trkpt lat="42.80760434937965" lon="-3.7751044360598254"><ele>705.0</ele><time>2026-05-02T12:29:29Z</time></trkpt><trkpt lat="42.80750193588945" lon="-3.7750673199930325"><ele>705.0</ele><time>2026-05-02T12:29:30Z</time></trkpt><trkpt lat="42.807389135433944" lon="-3.7750684789202698"><ele>705.0</ele><time>2026-05-02T12:29:31Z</time></trkpt><trkpt lat="42.8072854268658" lon="-3.775051151723149"><ele>704.8</ele><time>2026-05-02T12:29:32Z</time></trkpt><trkpt lat="42.80717462557668" lon="-3.7750326394299796"><ele>704.6</ele><time>2026-05-02T12:29:33Z</time></trkpt><trkpt lat="42.807068936077115" lon="-3.775014981260105"><ele>704.4000000000001</ele><time>2026-05-02T12:29:34Z</time></trkpt><trkpt lat="42.806961922931386" lon="-3.774992915076873"><ele>704.2</ele><time>2026-05-02T12:29:35Z</time></trkpt><trkpt lat="42.80685580406475" lon="-3.774946084821755"><ele>704.0</ele><time>2026-05-02T12:29:36Z</time></trkpt><trkpt lat="42.806747573968664" lon="-3.774918468232911"><ele>700.0</ele><time>2026-05-02T12:29:37Z</time></trkpt><trkpt lat="42.80663594437358" lon="-3.7748905253908127"><ele>696.0</ele><time>2026-05-02T12:29:38Z</time></trkpt><trkpt lat="42.80652600864542" lon="-3.7748634825037772"><ele>692.0</ele><time>2026-05-02T12:29:39Z</time></trkpt><trkpt lat="42.80641499331619" lon="-3.7748356423747844"><ele>688.0</ele><time>2026-05-02T12:29:40Z</time></trkpt><trkpt lat="42.80631089800468" lon="-3.7747864821557693"><ele>684.0</ele><time>2026-05-02T12:29:41Z</time></trkpt><trkpt lat="42.80622974345439" lon="-3.774720261184591"><ele>684.0</ele><time>2026-05-02T12:29:42Z</time></trkpt><trkpt lat="42.80615018586334" lon="-3.7746480106334745"><ele>684.0</ele><time>2026-05-02T12:29:43Z</time></trkpt><trkpt lat="42.8060728536716" lon="-3.7744500565056134"><ele>684.0</ele><time>2026-05-02T12:29:44Z</time></trkpt><trkpt lat="42.80599478458033" lon="-3.774334206101211"><ele>684.0</ele><time>2026-05-02T12:29:45Z</time></trkpt><trkpt lat="42.805919265431356" lon="-3.7742255733075436"><ele>684.0</ele><time>2026-05-02T12:29:46Z</time></trkpt><trkpt lat="42.80581256227122" lon="-3.7741444214616533"><ele>684.0</ele><time>2026-05-02T12:29:47Z</time></trkpt><trkpt lat="42.805700428846706" lon="-3.773943470706789"><ele>684.0</ele><time>2026-05-02T12:29:48Z</time></trkpt><trkpt lat="42.80573641824221" lon="-3.7738291933095756"><ele>684.0</ele><time>2026-05-02T12:29:49Z</time></trkpt><trkpt lat="42.80566616170591" lon="-3.7737123824309493"><ele>684.0</ele><time>2026-05-02T12:29:50Z</time></trkpt><trkpt lat="42.80559605706398" lon="-3.773594744435193"><ele>684.0</ele><time>2026-05-02T12:29:51Z</time></trkpt><trkpt lat="42.80552790404547" lon="-3.773466390040685"><ele>684.0</ele><time>2026-05-02T12:29:52Z</time></trkpt><trkpt lat="42.80545946572658" lon="-3.773345166175696"><ele>684.0</ele><time>2026-05-02T12:29:53Z</time></trkpt><trkpt lat="42.80538701577473" lon="-3.7732235119921285"><ele>688.0</ele><time>2026-05-02T12:29:54Z</time></trkpt><trkpt lat="42.805320964213486" lon="-3.773097886343172"><ele>692.0</ele><time>2026-05-02T12:29:55Z</time></trkpt><trkpt lat="42.80525267999639" lon="-3.772976402969424"><ele>696.0</ele><time>2026-05-02T12:29:56Z</time></trkpt><trkpt lat="42.80517783754248" lon="-3.7728564979692547"><ele>700.0</ele><time>2026-05-02T12:29:57Z</time></trkpt><trkpt lat="42.80511126983858" lon="-3.7727263637402184"><ele>693.75</ele><time>2026-05-02T12:29:58Z</time></trkpt><trkpt lat="42.80504476980916" lon="-3.7726015868276126"><ele>687.5</ele><time>2026-05-02T12:29:59Z</time></trkpt><trkpt lat="42.80497767896007" lon="-3.7724803066589923"><ele>681.25</ele><time>2026-05-02T12:30:00Z</time></trkpt><trkpt lat="42.8049114922658" lon="-3.7723566579297003"><ele>675.0</ele><time>2026-05-02T12:30:01Z</time></trkpt><trkpt lat="42.80484653730672" lon="-3.7722304367350157"><ele>675.0</ele><time>2026-05-02T12:30:02Z</time></trkpt><trkpt lat="42.804783034617294" lon="-3.772108040488125"><ele>675.0</ele><time>2026-05-02T12:30:03Z</time></trkpt><trkpt lat="42.804721216671574" lon="-3.771982546811736"><ele>675.0</ele><time>2026-05-02T12:30:04Z</time></trkpt><trkpt lat="42.80465553534562" lon="-3.771848784049754"><ele>675.0</ele><time>2026-05-02T12:30:05Z</time></trkpt><trkpt lat="42.80459268036153" lon="-3.771726138021122"><ele>675.0</ele><time>2026-05-02T12:30:06Z</time></trkpt><trkpt lat="42.804532803486424" lon="-3.7716003637907907"><ele>674.0</ele><time>2026-05-02T12:30:07Z</time></trkpt><trkpt lat="42.80446670051699" lon="-3.77147794855936"><ele>673.0</ele><time>2026-05-02T12:30:08Z</time></trkpt><trkpt lat="42.8044085376736" lon="-3.7713537084918722"><ele>672.0</ele><time>2026-05-02T12:30:09Z</time></trkpt><trkpt lat="42.804354592782204" lon="-3.7712245578401578"><ele>671.0</ele><time>2026-05-02T12:30:10Z</time></trkpt><trkpt lat="42.80429595772089" lon="-3.771105143217266"><ele>670.0</ele><time>2026-05-02T12:30:11Z</time></trkpt><trkpt lat="42.80422576399832" lon="-3.770987934046035"><ele>670.0</ele><time>2026-05-02T12:30:12Z</time></trkpt><trkpt lat="42.80414724853375" lon="-3.7708732509091374"><ele>670.0</ele><time>2026-05-02T12:30:13Z</time></trkpt><trkpt lat="42.80407893584456" lon="-3.7707589676613216"><ele>670.0</ele><time>2026-05-02T12:30:14Z</time></trkpt><trkpt lat="42.80400017929411" lon="-3.770659028757703"><ele>670.0</ele><time>2026-05-02T12:30:15Z</time></trkpt><trkpt lat="42.803912269440204" lon="-3.7705609857550617"><ele>670.0</ele><time>2026-05-02T12:30:16Z</time></trkpt><trkpt lat="42.803826067445684" lon="-3.770460420829392"><ele>670.0</ele><time>2026-05-02T12:30:17Z</time></trkpt><trkpt lat="42.80374465043806" lon="-3.7703648658913975"><ele>670.0</ele><time>2026-05-02T12:30:18Z</time></trkpt><trkpt lat="42.80366038453903" lon="-3.7702695640339603"><ele>670.0</ele><time>2026-05-02T12:30:19Z</time></trkpt><trkpt lat="42.803575890441714" lon="-3.7701762222183968"><ele>670.0</ele><time>2026-05-02T12:30:20Z</time></trkpt><trkpt lat="42.80347572121764" lon="-3.7700986484909174"><ele>670.0</ele><time>2026-05-02T12:30:21Z</time></trkpt><trkpt lat="42.80336894952266" lon="-3.77002079739641"><ele>669.8</ele><time>2026-05-02T12:30:22Z</time></trkpt><trkpt lat="42.80329865616388" lon="-3.7699178660372747"><ele>669.6</ele><time>2026-05-02T12:30:23Z</time></trkpt><trkpt lat="42.803215113567475" lon="-3.769829363401924"><ele>669.4000000000001</ele><time>2026-05-02T12:30:24Z</time></trkpt><trkpt lat="42.80313961323059" lon="-3.769734009129032"><ele>669.2</ele><time>2026-05-02T12:30:25Z</time></trkpt><trkpt lat="42.8030407683485" lon="-3.7696469585771544"><ele>669.0</ele><time>2026-05-02T12:30:26Z</time></trkpt><trkpt lat="42.80291271889116" lon="-3.769578988553933"><ele>669.0</ele><time>2026-05-02T12:30:27Z</time></trkpt><trkpt lat="42.80280541404521" lon="-3.7694944181191734"><ele>669.0</ele><time>2026-05-02T12:30:28Z</time></trkpt><trkpt lat="42.802771432670184" lon="-3.7693953795882065"><ele>669.0</ele><time>2026-05-02T12:30:29Z</time></trkpt><trkpt lat="42.802690320345214" lon="-3.769306329726687"><ele>669.0</ele><time>2026-05-02T12:30:30Z</time></trkpt><trkpt lat="42.80261359241828" lon="-3.769212999664941"><ele>669.0</ele><time>2026-05-02T12:30:31Z</time></trkpt><trkpt lat="42.80251520591189" lon="-3.7691403897119184"><ele>669.6</ele><time>2026-05-02T12:30:32Z</time></trkpt><trkpt lat="42.802427631602065" lon="-3.7690520936173417"><ele>670.2</ele><time>2026-05-02T12:30:33Z</time></trkpt><trkpt lat="42.80233538445058" lon="-3.768956745536486"><ele>670.8000000000001</ele><time>2026-05-02T12:30:34Z</time></trkpt><trkpt lat="42.8022489677905" lon="-3.7688768107032073"><ele>671.4000000000001</ele><time>2026-05-02T12:30:35Z</time></trkpt><trkpt lat="42.802165621942564" lon="-3.768787842108888"><ele>672.0</ele><time>2026-05-02T12:30:36Z</time></trkpt><trkpt lat="42.802079500089526" lon="-3.768707834166163"><ele>672.0</ele><time>2026-05-02T12:30:37Z</time></trkpt><trkpt lat="42.80199180107596" lon="-3.7686239411097104"><ele>672.0</ele><time>2026-05-02T12:30:38.001Z</time></trkpt><trkpt lat="42.801898934760295" lon="-3.76854145540303"><ele>672.0</ele><time>2026-05-02T12:30:39.001Z</time></trkpt><trkpt lat="42.8018071365159" lon="-3.768460858552146"><ele>672.0</ele><time>2026-05-02T12:30:40.001Z</time></trkpt><trkpt lat="42.801723523983796" lon="-3.768374920263566"><ele>672.0</ele><time>2026-05-02T12:30:41.001Z</time></trkpt><trkpt lat="42.801653167275994" lon="-3.7682987937994925"><ele>672.1666666666666</ele><time>2026-05-02T12:30:42.001Z</time></trkpt><trkpt lat="42.80158271990606" lon="-3.7682673200705694"><ele>672.3333333333334</ele><time>2026-05-02T12:30:43.001Z</time></trkpt><trkpt lat="42.80151870200193" lon="-3.7682304830682383"><ele>672.5</ele><time>2026-05-02T12:30:44.001Z</time></trkpt><trkpt lat="42.80143284803322" lon="-3.768258331582928"><ele>672.6666666666667</ele><time>2026-05-02T12:30:45.001Z</time></trkpt><trkpt lat="42.8013685476897" lon="-3.7683309576224002"><ele>672.8333333333334</ele><time>2026-05-02T12:30:46.001Z</time></trkpt><trkpt lat="42.80135423580535" lon="-3.7684645716432748"><ele>673.0</ele><time>2026-05-02T12:30:47.001Z</time></trkpt><trkpt lat="42.80131593424968" lon="-3.7685706055014982"><ele>671.0</ele><time>2026-05-02T12:30:48.001Z</time></trkpt><trkpt lat="42.80127746088362" lon="-3.7686714101005827"><ele>669.0</ele><time>2026-05-02T12:30:49.001Z</time></trkpt><trkpt lat="42.80123804421647" lon="-3.768774686441764"><ele>667.0</ele><time>2026-05-02T12:30:50.001Z</time></trkpt><trkpt lat="42.80119772792986" lon="-3.7688805664615193"><ele>665.0</ele><time>2026-05-02T12:30:51.001Z</time></trkpt><trkpt lat="42.80114447041799" lon="-3.768977202328003"><ele>663.0</ele><time>2026-05-02T12:30:52.001Z</time></trkpt><trkpt lat="42.8011120397195" lon="-3.7690898493970257"><ele>661.0</ele><time>2026-05-02T12:30:53.001Z</time></trkpt><trkpt lat="42.801072671641734" lon="-3.7692002977742454"><ele>661.0</ele><time>2026-05-02T12:30:54.001Z</time></trkpt><trkpt lat="42.801029638686956" lon="-3.7693118885621484"><ele>661.0</ele><time>2026-05-02T12:30:55.001Z</time></trkpt><trkpt lat="42.80097308755847" lon="-3.7694173114401943"><ele>661.0</ele><time>2026-05-02T12:30:56.001Z</time></trkpt><trkpt lat="42.80090063044357" lon="-3.769507510584385"><ele>661.0</ele><time>2026-05-02T12:30:57.001Z</time></trkpt><trkpt lat="42.80081512463209" lon="-3.76958264836825"><ele>661.0</ele><time>2026-05-02T12:30:58.001Z</time></trkpt><trkpt lat="42.80071947115604" lon="-3.7696410476727764"><ele>662.1999999999999</ele><time>2026-05-02T12:30:59.001Z</time></trkpt><trkpt lat="42.8006170284723" lon="-3.7696804206031067"><ele>663.4</ele><time>2026-05-02T12:31:00.001Z</time></trkpt><trkpt lat="42.80050981584751" lon="-3.7697069785762447"><ele>664.6</ele><time>2026-05-02T12:31:01.001Z</time></trkpt><trkpt lat="42.80040124715662" lon="-3.769724054422411"><ele>665.8</ele><time>2026-05-02T12:31:02.001Z</time></trkpt><trkpt lat="42.800294034898556" lon="-3.7697379687730748"><ele>667.0</ele><time>2026-05-02T12:31:03.001Z</time></trkpt><trkpt lat="42.800189466503895" lon="-3.7697368746738076"><ele>666.4000000000001</ele><time>2026-05-02T12:31:04.001Z</time></trkpt><trkpt lat="42.80007999348056" lon="-3.769727160717509"><ele>665.8000000000001</ele><time>2026-05-02T12:31:05.001Z</time></trkpt><trkpt lat="42.799974664649184" lon="-3.769724760450842"><ele>665.2</ele><time>2026-05-02T12:31:06Z</time></trkpt><trkpt lat="42.79986553185774" lon="-3.769720893727957"><ele>664.6</ele><time>2026-05-02T12:31:07Z</time></trkpt><trkpt lat="42.799760506557064" lon="-3.7697420055172235"><ele>664.0</ele><time>2026-05-02T12:31:08Z</time></trkpt><trkpt lat="42.79965381389404" lon="-3.7697414683723767"><ele>664.0</ele><time>2026-05-02T12:31:09Z</time></trkpt><trkpt lat="42.79954624715887" lon="-3.7697199281913285"><ele>664.0</ele><time>2026-05-02T12:31:10Z</time></trkpt><trkpt lat="42.799439123830346" lon="-3.769733599338285"><ele>664.0</ele><time>2026-05-02T12:31:11Z</time></trkpt><trkpt lat="42.79933888737809" lon="-3.769725399422807"><ele>664.0</ele><time>2026-05-02T12:31:12Z</time></trkpt><trkpt lat="42.79923491412531" lon="-3.769724987982607"><ele>664.0</ele><time>2026-05-02T12:31:13Z</time></trkpt><trkpt lat="42.79913216820663" lon="-3.769720724508753"><ele>664.4000000000001</ele><time>2026-05-02T12:31:14Z</time></trkpt><trkpt lat="42.79903016100373" lon="-3.7697179786913555"><ele>664.8</ele><time>2026-05-02T12:31:15Z</time></trkpt><trkpt lat="42.79892569537311" lon="-3.7697215438578615"><ele>665.2</ele><time>2026-05-02T12:31:16Z</time></trkpt><trkpt lat="42.79882052876273" lon="-3.769718982942611"><ele>665.5999999999999</ele><time>2026-05-02T12:31:17Z</time></trkpt><trkpt lat="42.79871477259618" lon="-3.7697232553922304"><ele>666.0</ele><time>2026-05-02T12:31:18Z</time></trkpt><trkpt lat="42.79860568088784" lon="-3.7697319629546695"><ele>666.0</ele><time>2026-05-02T12:31:19Z</time></trkpt><trkpt lat="42.79850302312789" lon="-3.769761147990028"><ele>666.0</ele><time>2026-05-02T12:31:20Z</time></trkpt><trkpt lat="42.79840255989193" lon="-3.769812971314975"><ele>666.0</ele><time>2026-05-02T12:31:21Z</time></trkpt><trkpt lat="42.79830847481744" lon="-3.769886436986826"><ele>666.0</ele><time>2026-05-02T12:31:22Z</time></trkpt><trkpt lat="42.79822151632509" lon="-3.7699690746402506"><ele>666.0</ele><time>2026-05-02T12:31:23Z</time></trkpt><trkpt lat="42.79813413554464" lon="-3.770053626255223"><ele>666.0</ele><time>2026-05-02T12:31:24Z</time></trkpt><trkpt lat="42.79804518563945" lon="-3.7701301513614625"><ele>666.0</ele><time>2026-05-02T12:31:25Z</time></trkpt><trkpt lat="42.797954966514844" lon="-3.770207071344395"><ele>666.0</ele><time>2026-05-02T12:31:26Z</time></trkpt><trkpt lat="42.797860587969474" lon="-3.7702831190624"><ele>666.0</ele><time>2026-05-02T12:31:27Z</time></trkpt><trkpt lat="42.79776790175798" lon="-3.7703613660264046"><ele>666.0</ele><time>2026-05-02T12:31:28Z</time></trkpt><trkpt lat="42.79767652807538" lon="-3.770429602731794"><ele>666.8</ele><time>2026-05-02T12:31:29Z</time></trkpt><trkpt lat="42.79757772148805" lon="-3.7705180007472983"><ele>667.5999999999999</ele><time>2026-05-02T12:31:30Z</time></trkpt><trkpt lat="42.79748720417089" lon="-3.770592343057566"><ele>668.4</ele><time>2026-05-02T12:31:31Z</time></trkpt><trkpt lat="42.79739362363308" lon="-3.770666953152888"><ele>669.2</ele><time>2026-05-02T12:31:32Z</time></trkpt><trkpt lat="42.797305061756404" lon="-3.7707456922686653"><ele>670.0</ele><time>2026-05-02T12:31:33Z</time></trkpt><trkpt lat="42.797201742217" lon="-3.7708322224064843"><ele>670.0</ele><time>2026-05-02T12:31:34Z</time></trkpt><trkpt lat="42.7971171835327" lon="-3.7709076181718975"><ele>670.0</ele><time>2026-05-02T12:31:35Z</time></trkpt><trkpt lat="42.797016637000134" lon="-3.7709852547911393"><ele>670.0</ele><time>2026-05-02T12:31:36Z</time></trkpt><trkpt lat="42.79692520692543" lon="-3.7710624085020124"><ele>670.0</ele><time>2026-05-02T12:31:37Z</time></trkpt><trkpt lat="42.79682688597206" lon="-3.771143715345976"><ele>670.0</ele><time>2026-05-02T12:31:38Z</time></trkpt><trkpt lat="42.79673300931664" lon="-3.7712220757896664"><ele>670.0</ele><time>2026-05-02T12:31:39Z</time></trkpt><trkpt lat="42.79663918230623" lon="-3.7713005170252263"><ele>670.0</ele><time>2026-05-02T12:31:40Z</time></trkpt><trkpt lat="42.79654246262881" lon="-3.7713787461685713"><ele>670.0</ele><time>2026-05-02T12:31:41Z</time></trkpt><trkpt lat="42.79644698666115" lon="-3.7714570102595815"><ele>670.0</ele><time>2026-05-02T12:31:42Z</time></trkpt><trkpt lat="42.79635117284249" lon="-3.771534451958835"><ele>670.0</ele><time>2026-05-02T12:31:43Z</time></trkpt><trkpt lat="42.79625352274503" lon="-3.77161371656083"><ele>670.0</ele><time>2026-05-02T12:31:44Z</time></trkpt><trkpt lat="42.79615904393971" lon="-3.771698831852604"><ele>670.0</ele><time>2026-05-02T12:31:45Z</time></trkpt><trkpt lat="42.79606643367452" lon="-3.7717920324465304"><ele>670.0</ele><time>2026-05-02T12:31:46Z</time></trkpt><trkpt lat="42.795969265216485" lon="-3.7718652439645464"><ele>670.0</ele><time>2026-05-02T12:31:47Z</time></trkpt><trkpt lat="42.795873151846536" lon="-3.771943472961613"><ele>670.0</ele><time>2026-05-02T12:31:48Z</time></trkpt><trkpt lat="42.79577875886874" lon="-3.7720230590640407"><ele>670.0</ele><time>2026-05-02T12:31:49Z</time></trkpt><trkpt lat="42.7956828342086" lon="-3.7721032509701393"><ele>670.0</ele><time>2026-05-02T12:31:50Z</time></trkpt><trkpt lat="42.79558714655539" lon="-3.7721852376695897"><ele>670.0</ele><time>2026-05-02T12:31:51Z</time></trkpt><trkpt lat="42.7954915426315" lon="-3.7722626560510775"><ele>670.0</ele><time>2026-05-02T12:31:52Z</time></trkpt><trkpt lat="42.79539705004252" lon="-3.7723399540518163"><ele>670.0</ele><time>2026-05-02T12:31:53Z</time></trkpt><trkpt lat="42.795299141354185" lon="-3.7724124903185463"><ele>670.0</ele><time>2026-05-02T12:31:54Z</time></trkpt><trkpt lat="42.795199501140864" lon="-3.7724750067607116"><ele>670.0</ele><time>2026-05-02T12:31:55Z</time></trkpt><trkpt lat="42.7950904261557" lon="-3.7725349107007413"><ele>670.0</ele><time>2026-05-02T12:31:56Z</time></trkpt><trkpt lat="42.794956269198785" lon="-3.7726358294300826"><ele>668.4</ele><time>2026-05-02T12:31:57Z</time></trkpt><trkpt lat="42.794834379692325" lon="-3.772713913735493"><ele>666.8</ele><time>2026-05-02T12:31:58Z</time></trkpt><trkpt lat="42.79477996084539" lon="-3.7726490190201676"><ele>665.2</ele><time>2026-05-02T12:31:59Z</time></trkpt><trkpt lat="42.79468842113516" lon="-3.772638639483031"><ele>663.6</ele><time>2026-05-02T12:32:00Z</time></trkpt><trkpt lat="42.794604647678526" lon="-3.7726601110607394"><ele>662.0</ele><time>2026-05-02T12:32:01Z</time></trkpt><trkpt lat="42.79448816054222" lon="-3.772648012581945"><ele>662.0</ele><time>2026-05-02T12:32:02Z</time></trkpt><trkpt lat="42.79438988458518" lon="-3.7726131204485718"><ele>662.0</ele><time>2026-05-02T12:32:03Z</time></trkpt><trkpt lat="42.794293554438404" lon="-3.772588730083479"><ele>662.0</ele><time>2026-05-02T12:32:04Z</time></trkpt><trkpt lat="42.794202355704904" lon="-3.7725515490177237"><ele>662.0</ele><time>2026-05-02T12:32:05Z</time></trkpt><trkpt lat="42.79411010483653" lon="-3.7725210310821007"><ele>662.0</ele><time>2026-05-02T12:32:06Z</time></trkpt><trkpt lat="42.794020898158536" lon="-3.7724663939468384"><ele>663.0</ele><time>2026-05-02T12:32:07Z</time></trkpt><trkpt lat="42.79393632894489" lon="-3.7724133676633524"><ele>664.0</ele><time>2026-05-02T12:32:08Z</time></trkpt><trkpt lat="42.7938535132008" lon="-3.772360912077082"><ele>665.0</ele><time>2026-05-02T12:32:09Z</time></trkpt><trkpt lat="42.79376738376381" lon="-3.7723067622866417"><ele>666.0</ele><time>2026-05-02T12:32:10Z</time></trkpt><trkpt lat="42.79367968612782" lon="-3.772247349948419"><ele>667.0</ele><time>2026-05-02T12:32:11Z</time></trkpt><trkpt lat="42.79359343835836" lon="-3.7721954933937596"><ele>670.2</ele><time>2026-05-02T12:32:12Z</time></trkpt><trkpt lat="42.79350276425407" lon="-3.772137541553509"><ele>673.4000000000001</ele><time>2026-05-02T12:32:13Z</time></trkpt><trkpt lat="42.79341747431891" lon="-3.772079030587997"><ele>676.5999999999999</ele><time>2026-05-02T12:32:14Z</time></trkpt><trkpt lat="42.79332868327256" lon="-3.7720201322631373"><ele>679.8</ele><time>2026-05-02T12:32:15Z</time></trkpt><trkpt lat="42.79323826788976" lon="-3.771959173642987"><ele>683.0</ele><time>2026-05-02T12:32:16Z</time></trkpt><trkpt lat="42.79314654296751" lon="-3.7718962533441003"><ele>679.2</ele><time>2026-05-02T12:32:17Z</time></trkpt><trkpt lat="42.79305743536707" lon="-3.7718336818114473"><ele>675.4</ele><time>2026-05-02T12:32:18Z</time></trkpt><trkpt lat="42.792968477835956" lon="-3.7717760048122257"><ele>671.6</ele><time>2026-05-02T12:32:19Z</time></trkpt><trkpt lat="42.79287742465974" lon="-3.7717186393386175"><ele>667.8000000000001</ele><time>2026-05-02T12:32:20Z</time></trkpt><trkpt lat="42.79278991428006" lon="-3.771662658551031"><ele>664.0</ele><time>2026-05-02T12:32:21Z</time></trkpt><trkpt lat="42.7927000297601" lon="-3.771594471495318"><ele>668.0</ele><time>2026-05-02T12:32:22Z</time></trkpt><trkpt lat="42.79260764565578" lon="-3.7715362297369546"><ele>672.0</ele><time>2026-05-02T12:32:23Z</time></trkpt><trkpt lat="42.79251991316242" lon="-3.771459937826767"><ele>676.0</ele><time>2026-05-02T12:32:24Z</time></trkpt><trkpt lat="42.79243536830076" lon="-3.771381624377688"><ele>680.0</ele><time>2026-05-02T12:32:25Z</time></trkpt><trkpt lat="42.79235200703822" lon="-3.7712947016331966"><ele>684.0</ele><time>2026-05-02T12:32:26Z</time></trkpt><trkpt lat="42.79227580983578" lon="-3.771186843723908"><ele>684.0</ele><time>2026-05-02T12:32:27Z</time></trkpt><trkpt lat="42.792202530174315" lon="-3.771088363275829"><ele>684.0</ele><time>2026-05-02T12:32:28Z</time></trkpt><trkpt lat="42.79213456607837" lon="-3.771025396483886"><ele>684.0</ele><time>2026-05-02T12:32:29Z</time></trkpt><trkpt lat="42.79206360806001" lon="-3.770893835337552"><ele>684.0</ele><time>2026-05-02T12:32:30Z</time></trkpt><trkpt lat="42.79200893004736" lon="-3.770768533927296"><ele>684.0</ele><time>2026-05-02T12:32:31Z</time></trkpt><trkpt lat="42.79195960051264" lon="-3.770635030768976"><ele>684.2</ele><time>2026-05-02T12:32:32Z</time></trkpt><trkpt lat="42.79191041322076" lon="-3.770503978772544"><ele>684.4000000000001</ele><time>2026-05-02T12:32:33Z</time></trkpt><trkpt lat="42.7918626350803" lon="-3.77037154662111"><ele>684.6</ele><time>2026-05-02T12:32:34Z</time></trkpt><trkpt lat="42.79181554429979" lon="-3.7702382625966187"><ele>684.8</ele><time>2026-05-02T12:32:35Z</time></trkpt><trkpt lat="42.79176895652509" lon="-3.77010753154253"><ele>685.0</ele><time>2026-05-02T12:32:36Z</time></trkpt><trkpt lat="42.79172453219896" lon="-3.7699778552016094"><ele>685.0</ele><time>2026-05-02T12:32:37Z</time></trkpt><trkpt lat="42.791680416324795" lon="-3.7698443565593256"><ele>685.0</ele><time>2026-05-02T12:32:38Z</time></trkpt><trkpt lat="42.79163485692435" lon="-3.7697095276060835"><ele>685.0</ele><time>2026-05-02T12:32:39.001Z</time></trkpt><trkpt lat="42.791590815101834" lon="-3.7695764578080118"><ele>685.0</ele><time>2026-05-02T12:32:40.001Z</time></trkpt><trkpt lat="42.79154371737713" lon="-3.7694441380066763"><ele>685.0</ele><time>2026-05-02T12:32:41.001Z</time></trkpt><trkpt lat="42.791498410467284" lon="-3.7693109099821602"><ele>681.8</ele><time>2026-05-02T12:32:42.001Z</time></trkpt><trkpt lat="42.791453905617104" lon="-3.7691802456020613"><ele>678.6</ele><time>2026-05-02T12:32:43.001Z</time></trkpt><trkpt lat="42.79141079775017" lon="-3.7690495707846505"><ele>675.4000000000001</ele><time>2026-05-02T12:32:44.001Z</time></trkpt><trkpt lat="42.79136504661725" lon="-3.7689223918236796"><ele>672.2</ele><time>2026-05-02T12:32:45.001Z</time></trkpt><trkpt lat="42.791317733125624" lon="-3.7687894452546673"><ele>669.0</ele><time>2026-05-02T12:32:46.001Z</time></trkpt><trkpt lat="42.79126908505654" lon="-3.7686627667022745"><ele>669.0</ele><time>2026-05-02T12:32:47.001Z</time></trkpt><trkpt lat="42.79121533597839" lon="-3.7685427458567875"><ele>669.0</ele><time>2026-05-02T12:32:48.001Z</time></trkpt><trkpt lat="42.79115906889778" lon="-3.7684233067791846"><ele>669.0</ele><time>2026-05-02T12:32:49.001Z</time></trkpt><trkpt lat="42.7911059330326" lon="-3.768303286515695"><ele>669.0</ele><time>2026-05-02T12:32:50.001Z</time></trkpt><trkpt lat="42.79104792159053" lon="-3.768186835835734"><ele>669.0</ele><time>2026-05-02T12:32:51.001Z</time></trkpt><trkpt lat="42.79098900892879" lon="-3.768075081027506"><ele>669.8000000000001</ele><time>2026-05-02T12:32:52.001Z</time></trkpt><trkpt lat="42.790926409134144" lon="-3.7679681878877878"><ele>670.6</ele><time>2026-05-02T12:32:53.001Z</time></trkpt><trkpt lat="42.79085950539354" lon="-3.767869061261248"><ele>671.4</ele><time>2026-05-02T12:32:54.001Z</time></trkpt><trkpt lat="42.7907936512233" lon="-3.767777408082345"><ele>672.2</ele><time>2026-05-02T12:32:55.001Z</time></trkpt><trkpt lat="42.79072123540224" lon="-3.767687601713042"><ele>673.0</ele><time>2026-05-02T12:32:56.001Z</time></trkpt><trkpt lat="42.79064893685965" lon="-3.7676005494346434"><ele>673.0</ele><time>2026-05-02T12:32:57.001Z</time></trkpt><trkpt lat="42.79057959902654" lon="-3.767519493473144"><ele>673.0</ele><time>2026-05-02T12:32:58.001Z</time></trkpt><trkpt lat="42.79050814013917" lon="-3.7674382882667676"><ele>673.0</ele><time>2026-05-02T12:32:59.001Z</time></trkpt><trkpt lat="42.79043642461507" lon="-3.7673605455980956"><ele>673.0</ele><time>2026-05-02T12:33:00.001Z</time></trkpt><trkpt lat="42.790368500188386" lon="-3.767277538454163"><ele>673.0</ele><time>2026-05-02T12:33:01.001Z</time></trkpt><trkpt lat="42.79029678775294" lon="-3.767196407060181"><ele>673.0</ele><time>2026-05-02T12:33:02.001Z</time></trkpt><trkpt lat="42.79021779702344" lon="-3.767122929910167"><ele>673.0</ele><time>2026-05-02T12:33:03.001Z</time></trkpt><trkpt lat="42.790142434968736" lon="-3.767047742428343"><ele>673.0</ele><time>2026-05-02T12:33:04.001Z</time></trkpt><trkpt lat="42.790065799049415" lon="-3.7669753854798143"><ele>673.0</ele><time>2026-05-02T12:33:05.001Z</time></trkpt><trkpt lat="42.78998809324675" lon="-3.7668989093779635"><ele>673.0</ele><time>2026-05-02T12:33:06.001Z</time></trkpt><trkpt lat="42.78991020844326" lon="-3.7668224190604422"><ele>674.8</ele><time>2026-05-02T12:33:07.001Z</time></trkpt><trkpt lat="42.78983107061102" lon="-3.7667492861721303"><ele>676.5999999999999</ele><time>2026-05-02T12:33:08.001Z</time></trkpt><trkpt lat="42.789750861973005" lon="-3.7666750257080963"><ele>678.4000000000001</ele><time>2026-05-02T12:33:09.001Z</time></trkpt><trkpt lat="42.7896712558736" lon="-3.766599696542852"><ele>680.2</ele><time>2026-05-02T12:33:10.001Z</time></trkpt><trkpt lat="42.78959043180313" lon="-3.76652198183142"><ele>682.0</ele><time>2026-05-02T12:33:11.001Z</time></trkpt><trkpt lat="42.789509766980174" lon="-3.766442796113711"><ele>682.0</ele><time>2026-05-02T12:33:12Z</time></trkpt><trkpt lat="42.78942504831517" lon="-3.7663628819880124"><ele>682.0</ele><time>2026-05-02T12:33:13Z</time></trkpt><trkpt lat="42.789334099072605" lon="-3.766286018741866"><ele>682.0</ele><time>2026-05-02T12:33:14Z</time></trkpt><trkpt lat="42.78924076050188" lon="-3.766213230847253"><ele>682.0</ele><time>2026-05-02T12:33:15Z</time></trkpt><trkpt lat="42.789142746437015" lon="-3.766140076790052"><ele>682.0</ele><time>2026-05-02T12:33:16Z</time></trkpt><trkpt lat="42.78903329472878" lon="-3.766066608757938"><ele>678.6666666666667</ele><time>2026-05-02T12:33:17Z</time></trkpt><trkpt lat="42.788859650823305" lon="-3.765987331715893"><ele>675.3333333333334</ele><time>2026-05-02T12:33:18Z</time></trkpt><trkpt lat="42.788674889346765" lon="-3.765900222846337"><ele>672.0</ele><time>2026-05-02T12:33:19Z</time></trkpt><trkpt lat="42.788554610030076" lon="-3.765856838315726"><ele>672.0</ele><time>2026-05-02T12:33:20Z</time></trkpt><trkpt lat="42.788643545397505" lon="-3.7658624806147665"><ele>672.0</ele><time>2026-05-02T12:33:21Z</time></trkpt><trkpt lat="42.78853393151087" lon="-3.765818459108958"><ele>672.0</ele><time>2026-05-02T12:33:22Z</time></trkpt><trkpt lat="42.78842807747919" lon="-3.7657781041514773"><ele>672.0</ele><time>2026-05-02T12:33:23Z</time></trkpt><trkpt lat="42.7883184640284" lon="-3.7657439213794066"><ele>672.0</ele><time>2026-05-02T12:33:24Z</time></trkpt><trkpt lat="42.78820916856089" lon="-3.7657145294367544"><ele>675.4000000000001</ele><time>2026-05-02T12:33:25Z</time></trkpt><trkpt lat="42.78809818027217" lon="-3.765692850035728"><ele>678.8000000000001</ele><time>2026-05-02T12:33:26Z</time></trkpt><trkpt lat="42.7879878608479" lon="-3.765676199389603"><ele>682.2</ele><time>2026-05-02T12:33:27Z</time></trkpt><trkpt lat="42.78787758907867" lon="-3.765665075114996"><ele>685.6</ele><time>2026-05-02T12:33:28Z</time></trkpt><trkpt lat="42.78776619640138" lon="-3.7656583319015953"><ele>689.0</ele><time>2026-05-02T12:33:29Z</time></trkpt><trkpt lat="42.787652431110395" lon="-3.7656530450227677"><ele>690.2</ele><time>2026-05-02T12:33:30Z</time></trkpt><trkpt lat="42.78754304990817" lon="-3.765654505173423"><ele>691.4000000000001</ele><time>2026-05-02T12:33:31Z</time></trkpt><trkpt lat="42.78743531959735" lon="-3.7656599512242943"><ele>692.6</ele><time>2026-05-02T12:33:32Z</time></trkpt><trkpt lat="42.78732291032838" lon="-3.765674731816373"><ele>693.8</ele><time>2026-05-02T12:33:33Z</time></trkpt><trkpt lat="42.78721479042657" lon="-3.765691857221221"><ele>695.0</ele><time>2026-05-02T12:33:34Z</time></trkpt><trkpt lat="42.78710693659176" lon="-3.7657151747491113"><ele>695.0</ele><time>2026-05-02T12:33:35Z</time></trkpt><trkpt lat="42.78700405919997" lon="-3.765740990439523"><ele>695.0</ele><time>2026-05-02T12:33:36Z</time></trkpt><trkpt lat="42.78689788844865" lon="-3.7657717341813384"><ele>695.0</ele><time>2026-05-02T12:33:37Z</time></trkpt><trkpt lat="42.78679018308666" lon="-3.7658082343815464"><ele>695.0</ele><time>2026-05-02T12:33:38Z</time></trkpt><trkpt lat="42.7866860045798" lon="-3.765849484006307"><ele>695.0</ele><time>2026-05-02T12:33:39Z</time></trkpt><trkpt lat="42.78657823616889" lon="-3.7658955197125796"><ele>693.6</ele><time>2026-05-02T12:33:40Z</time></trkpt><trkpt lat="42.78647766545019" lon="-3.76594258375501"><ele>692.2</ele><time>2026-05-02T12:33:41Z</time></trkpt><trkpt lat="42.78637679660268" lon="-3.7659941522530396"><ele>690.8</ele><time>2026-05-02T12:33:42Z</time></trkpt><trkpt lat="42.786273533521076" lon="-3.766034504346769"><ele>689.4</ele><time>2026-05-02T12:33:43Z</time></trkpt><trkpt lat="42.786181925417274" lon="-3.766087354280171"><ele>688.0</ele><time>2026-05-02T12:33:44Z</time></trkpt><trkpt lat="42.78608368108939" lon="-3.766143445677612"><ele>690.0</ele><time>2026-05-02T12:33:45Z</time></trkpt><trkpt lat="42.785984835491504" lon="-3.766210517743157"><ele>692.0</ele><time>2026-05-02T12:33:46Z</time></trkpt><trkpt lat="42.78588505201907" lon="-3.7662709641722745"><ele>694.0</ele><time>2026-05-02T12:33:47Z</time></trkpt><trkpt lat="42.7857835109075" lon="-3.7663335256639017"><ele>696.0</ele><time>2026-05-02T12:33:48Z</time></trkpt><trkpt lat="42.78568425078242" lon="-3.7663875562286413"><ele>698.0</ele><time>2026-05-02T12:33:49Z</time></trkpt><trkpt lat="42.78558366765291" lon="-3.7664414330556544"><ele>698.0</ele><time>2026-05-02T12:33:50Z</time></trkpt><trkpt lat="42.78548628111586" lon="-3.7664995942860178"><ele>698.0</ele><time>2026-05-02T12:33:51Z</time></trkpt><trkpt lat="42.785386875114945" lon="-3.766564274641548"><ele>698.0</ele><time>2026-05-02T12:33:52Z</time></trkpt><trkpt lat="42.78528841715571" lon="-3.7666192164628374"><ele>698.0</ele><time>2026-05-02T12:33:53Z</time></trkpt><trkpt lat="42.785188220720485" lon="-3.766677105096869"><ele>698.0</ele><time>2026-05-02T12:33:54Z</time></trkpt><trkpt lat="42.78508883301273" lon="-3.7667367175040627"><ele>700.4</ele><time>2026-05-02T12:33:55Z</time></trkpt><trkpt lat="42.7849906840402" lon="-3.766801597055188"><ele>702.8</ele><time>2026-05-02T12:33:56Z</time></trkpt><trkpt lat="42.78489319582891" lon="-3.7668590886611955"><ele>705.2</ele><time>2026-05-02T12:33:57Z</time></trkpt><trkpt lat="42.78479373162814" lon="-3.7669163659605145"><ele>707.6</ele><time>2026-05-02T12:33:58Z</time></trkpt><trkpt lat="42.78469487492235" lon="-3.7669732847196125"><ele>710.0</ele><time>2026-05-02T12:33:59Z</time></trkpt><trkpt lat="42.78459932856906" lon="-3.7670414295556056"><ele>710.0</ele><time>2026-05-02T12:34:00Z</time></trkpt><trkpt lat="42.7845008683271" lon="-3.7670994022867323"><ele>710.0</ele><time>2026-05-02T12:34:01Z</time></trkpt><trkpt lat="42.78440085143085" lon="-3.767147848711443"><ele>710.0</ele><time>2026-05-02T12:34:02Z</time></trkpt><trkpt lat="42.78429949178162" lon="-3.7671897272599204"><ele>710.0</ele><time>2026-05-02T12:34:03Z</time></trkpt><trkpt lat="42.78419822200853" lon="-3.76723282015525"><ele>710.0</ele><time>2026-05-02T12:34:04Z</time></trkpt><trkpt lat="42.78409801663112" lon="-3.7672813499245175"><ele>707.0</ele><time>2026-05-02T12:34:05Z</time></trkpt><trkpt lat="42.783993286283675" lon="-3.7673076653839033"><ele>704.0</ele><time>2026-05-02T12:34:06Z</time></trkpt><trkpt lat="42.78388976424269" lon="-3.767338363941026"><ele>701.0</ele><time>2026-05-02T12:34:07Z</time></trkpt><trkpt lat="42.78378333605772" lon="-3.76736808653527"><ele>698.0</ele><time>2026-05-02T12:34:08Z</time></trkpt><trkpt lat="42.78367603203575" lon="-3.7673881817749924"><ele>695.0</ele><time>2026-05-02T12:34:09Z</time></trkpt><trkpt lat="42.783571060881634" lon="-3.767413864272206"><ele>694.2</ele><time>2026-05-02T12:34:10Z</time></trkpt><trkpt lat="42.783468170324625" lon="-3.7674449390555296"><ele>693.4</ele><time>2026-05-02T12:34:11Z</time></trkpt><trkpt lat="42.783364257902264" lon="-3.7674622148817716"><ele>692.5999999999999</ele><time>2026-05-02T12:34:12Z</time></trkpt><trkpt lat="42.7832587175467" lon="-3.7674894609966976"><ele>691.8</ele><time>2026-05-02T12:34:13Z</time></trkpt><trkpt lat="42.78315260445975" lon="-3.7675086013646357"><ele>691.0</ele><time>2026-05-02T12:34:14Z</time></trkpt><trkpt lat="42.783045694440865" lon="-3.767523576230773"><ele>691.0</ele><time>2026-05-02T12:34:15Z</time></trkpt><trkpt lat="42.78294521457846" lon="-3.767551388240978"><ele>691.0</ele><time>2026-05-02T12:34:16Z</time></trkpt><trkpt lat="42.78284163709242" lon="-3.7675689304998934"><ele>691.0</ele><time>2026-05-02T12:34:17Z</time></trkpt><trkpt lat="42.78273834847306" lon="-3.767569800070671"><ele>691.0</ele><time>2026-05-02T12:34:18Z</time></trkpt><trkpt lat="42.7826366450146" lon="-3.7675583337140064"><ele>691.0</ele><time>2026-05-02T12:34:19Z</time></trkpt><trkpt lat="42.782534217777986" lon="-3.7675242919123124"><ele>691.0</ele><time>2026-05-02T12:34:20Z</time></trkpt><trkpt lat="42.7824356943896" lon="-3.7674832358180357"><ele>691.0</ele><time>2026-05-02T12:34:21Z</time></trkpt><trkpt lat="42.78233553272042" lon="-3.7674333911760782"><ele>691.0</ele><time>2026-05-02T12:34:22Z</time></trkpt><trkpt lat="42.78223981337093" lon="-3.767372516790731"><ele>691.0</ele><time>2026-05-02T12:34:23Z</time></trkpt><trkpt lat="42.78215143019236" lon="-3.7673031607621046"><ele>691.0</ele><time>2026-05-02T12:34:24Z</time></trkpt><trkpt lat="42.78206115786605" lon="-3.767231491203236"><ele>691.0</ele><time>2026-05-02T12:34:25Z</time></trkpt><trkpt lat="42.78197868408904" lon="-3.76714567230555"><ele>691.0</ele><time>2026-05-02T12:34:26Z</time></trkpt><trkpt lat="42.78189511940246" lon="-3.7670586739270995"><ele>691.0</ele><time>2026-05-02T12:34:27Z</time></trkpt><trkpt lat="42.78181608781864" lon="-3.7669629479989393"><ele>691.0</ele><time>2026-05-02T12:34:28Z</time></trkpt><trkpt lat="42.78174383172673" lon="-3.7668548803535367"><ele>691.0</ele><time>2026-05-02T12:34:29Z</time></trkpt><trkpt lat="42.781672571388754" lon="-3.766746877503243"><ele>690.8</ele><time>2026-05-02T12:34:30Z</time></trkpt><trkpt lat="42.781604462761614" lon="-3.7666395050330697"><ele>690.5999999999999</ele><time>2026-05-02T12:34:31Z</time></trkpt><trkpt lat="42.7815367154369" lon="-3.7665245773726195"><ele>690.4</ele><time>2026-05-02T12:34:32Z</time></trkpt><trkpt lat="42.78146997771139" lon="-3.7664255118468986"><ele>690.2</ele><time>2026-05-02T12:34:33Z</time></trkpt><trkpt lat="42.781396059945685" lon="-3.7663238421767153"><ele>690.0</ele><time>2026-05-02T12:34:34Z</time></trkpt><trkpt lat="42.78131561372419" lon="-3.766231865778711"><ele>690.0</ele><time>2026-05-02T12:34:35Z</time></trkpt><trkpt lat="42.781234072850225" lon="-3.7661451761138998"><ele>690.0</ele><time>2026-05-02T12:34:36Z</time></trkpt><trkpt lat="42.78114680989737" lon="-3.7660571089018293"><ele>690.0</ele><time>2026-05-02T12:34:37Z</time></trkpt><trkpt lat="42.78105651932812" lon="-3.76598147395064"><ele>690.0</ele><time>2026-05-02T12:34:38Z</time></trkpt><trkpt lat="42.78096004958445" lon="-3.765919748696752"><ele>690.0</ele><time>2026-05-02T12:34:39Z</time></trkpt><trkpt lat="42.78085715758547" lon="-3.7658759122788514"><ele>691.2</ele><time>2026-05-02T12:34:40Z</time></trkpt><trkpt lat="42.7807504458653" lon="-3.7658403212091547"><ele>692.4</ele><time>2026-05-02T12:34:41Z</time></trkpt><trkpt lat="42.780644528347395" lon="-3.765814054819212"><ele>693.5999999999999</ele><time>2026-05-02T12:34:42Z</time></trkpt><trkpt lat="42.780536576227824" lon="-3.7657940568532315"><ele>694.8</ele><time>2026-05-02T12:34:43Z</time></trkpt><trkpt lat="42.78042840259567" lon="-3.76580213345605"><ele>696.0</ele><time>2026-05-02T12:34:44Z</time></trkpt><trkpt lat="42.7803191403158" lon="-3.765818536730384"><ele>696.0</ele><time>2026-05-02T12:34:45Z</time></trkpt><trkpt lat="42.780214363229916" lon="-3.765846481322433"><ele>696.0</ele><time>2026-05-02T12:34:46.001Z</time></trkpt><trkpt lat="42.78011618433065" lon="-3.765889727084939"><ele>696.0</ele><time>2026-05-02T12:34:47.001Z</time></trkpt><trkpt lat="42.780018028902276" lon="-3.7659483915562117"><ele>696.0</ele><time>2026-05-02T12:34:48.001Z</time></trkpt><trkpt lat="42.77991963970693" lon="-3.7660161561534857"><ele>696.0</ele><time>2026-05-02T12:34:49.001Z</time></trkpt><trkpt lat="42.77983122078258" lon="-3.7661033721269392"><ele>700.4</ele><time>2026-05-02T12:34:50.001Z</time></trkpt><trkpt lat="42.779746660855665" lon="-3.7661969200001124"><ele>704.8</ele><time>2026-05-02T12:34:51.001Z</time></trkpt><trkpt lat="42.779668009853516" lon="-3.766300303882927"><ele>709.1999999999999</ele><time>2026-05-02T12:34:52.001Z</time></trkpt><trkpt lat="42.77960081157588" lon="-3.7664242910927435"><ele>713.5999999999999</ele><time>2026-05-02T12:34:53.001Z</time></trkpt><trkpt lat="42.77954209473652" lon="-3.76654538760367"><ele>718.0</ele><time>2026-05-02T12:34:54.001Z</time></trkpt><trkpt lat="42.77948878316545" lon="-3.7666761617265285"><ele>718.0</ele><time>2026-05-02T12:34:55.001Z</time></trkpt><trkpt lat="42.77943986102343" lon="-3.766805257254332"><ele>718.0</ele><time>2026-05-02T12:34:56.001Z</time></trkpt><trkpt lat="42.779388085104344" lon="-3.7669344137813354"><ele>718.0</ele><time>2026-05-02T12:34:57.001Z</time></trkpt><trkpt lat="42.77934321136089" lon="-3.76706448852596"><ele>718.0</ele><time>2026-05-02T12:34:58.001Z</time></trkpt><trkpt lat="42.77929342603998" lon="-3.767190986296164"><ele>718.0</ele><time>2026-05-02T12:34:59.001Z</time></trkpt><trkpt lat="42.77924912221802" lon="-3.767318481087696"><ele>717.4</ele><time>2026-05-02T12:35:00.001Z</time></trkpt><trkpt lat="42.77920145346779" lon="-3.7674424108836004"><ele>716.8</ele><time>2026-05-02T12:35:01.001Z</time></trkpt><trkpt lat="42.77915589866966" lon="-3.7675673887880077"><ele>716.2</ele><time>2026-05-02T12:35:02.001Z</time></trkpt><trkpt lat="42.77911021691101" lon="-3.767689253847669"><ele>715.6</ele><time>2026-05-02T12:35:03.001Z</time></trkpt><trkpt lat="42.77906579092869" lon="-3.767813007371601"><ele>715.0</ele><time>2026-05-02T12:35:04.001Z</time></trkpt><trkpt lat="42.779021809092455" lon="-3.7679337248811917"><ele>715.0</ele><time>2026-05-02T12:35:05.001Z</time></trkpt><trkpt lat="42.778974804113496" lon="-3.768054677386786"><ele>715.0</ele><time>2026-05-02T12:35:06.001Z</time></trkpt><trkpt lat="42.77893058804851" lon="-3.768173944401529"><ele>715.0</ele><time>2026-05-02T12:35:07.001Z</time></trkpt><trkpt lat="42.778885158658596" lon="-3.768295499142762"><ele>715.0</ele><time>2026-05-02T12:35:08.001Z</time></trkpt><trkpt lat="42.778844050964366" lon="-3.768416696507868"><ele>715.0</ele><time>2026-05-02T12:35:09.001Z</time></trkpt><trkpt lat="42.77879926357322" lon="-3.7685330484541093"><ele>719.2</ele><time>2026-05-02T12:35:10.001Z</time></trkpt><trkpt lat="42.778756301150416" lon="-3.7686462602529103"><ele>723.4</ele><time>2026-05-02T12:35:11.001Z</time></trkpt><trkpt lat="42.77871223267441" lon="-3.7687616710481024"><ele>727.5999999999999</ele><time>2026-05-02T12:35:12.001Z</time></trkpt><trkpt lat="42.77866823754475" lon="-3.7688745397397634"><ele>731.8</ele><time>2026-05-02T12:35:13.001Z</time></trkpt><trkpt lat="42.778619651658566" lon="-3.768988401627183"><ele>736.0</ele><time>2026-05-02T12:35:14.001Z</time></trkpt><trkpt lat="42.7785730125947" lon="-3.7691010770184987"><ele>736.0</ele><time>2026-05-02T12:35:15.001Z</time></trkpt><trkpt lat="42.778525210851704" lon="-3.7692076660467517"><ele>736.0</ele><time>2026-05-02T12:35:16.001Z</time></trkpt><trkpt lat="42.77847003073269" lon="-3.769312213481986"><ele>736.0</ele><time>2026-05-02T12:35:17.001Z</time></trkpt><trkpt lat="42.77840886412231" lon="-3.7694171984724396"><ele>736.0</ele><time>2026-05-02T12:35:18Z</time></trkpt><trkpt lat="42.77835252095712" lon="-3.769515516412551"><ele>736.0</ele><time>2026-05-02T12:35:19Z</time></trkpt><trkpt lat="42.77829055728417" lon="-3.769607477876705"><ele>732.8</ele><time>2026-05-02T12:35:20Z</time></trkpt><trkpt lat="42.77822340577086" lon="-3.769699384819986"><ele>729.5999999999999</ele><time>2026-05-02T12:35:21Z</time></trkpt><trkpt lat="42.778158570835636" lon="-3.7697914545872693"><ele>726.4</ele><time>2026-05-02T12:35:22Z</time></trkpt><trkpt lat="42.77809118140305" lon="-3.769883067025996"><ele>723.2</ele><time>2026-05-02T12:35:23Z</time></trkpt><trkpt lat="42.778018004417696" lon="-3.7699653408534193"><ele>720.0</ele><time>2026-05-02T12:35:24Z</time></trkpt><trkpt lat="42.777943983305995" lon="-3.7700431566336614"><ele>720.0</ele><time>2026-05-02T12:35:25Z</time></trkpt><trkpt lat="42.77786224523674" lon="-3.770117259905012"><ele>720.0</ele><time>2026-05-02T12:35:26Z</time></trkpt><trkpt lat="42.77777833797056" lon="-3.77018451319871"><ele>720.0</ele><time>2026-05-02T12:35:27Z</time></trkpt><trkpt lat="42.777703589484396" lon="-3.7702629344933585"><ele>720.0</ele><time>2026-05-02T12:35:28Z</time></trkpt><trkpt lat="42.777620153463296" lon="-3.7703264037398454"><ele>720.0</ele><time>2026-05-02T12:35:29Z</time></trkpt><trkpt lat="42.77753665016057" lon="-3.770388958670071"><ele>722.4</ele><time>2026-05-02T12:35:30Z</time></trkpt><trkpt lat="42.777449427608786" lon="-3.7704420034912545"><ele>724.8</ele><time>2026-05-02T12:35:31Z</time></trkpt><trkpt lat="42.7773636926916" lon="-3.7704949192776427"><ele>727.2</ele><time>2026-05-02T12:35:32Z</time></trkpt><trkpt lat="42.7772726396379" lon="-3.770536655682678"><ele>729.6</ele><time>2026-05-02T12:35:33Z</time></trkpt><trkpt lat="42.777183451422374" lon="-3.770585749379022"><ele>732.0</ele><time>2026-05-02T12:35:34Z</time></trkpt><trkpt lat="42.777098850386544" lon="-3.7706341672344643"><ele>732.0</ele><time>2026-05-02T12:35:35Z</time></trkpt><trkpt lat="42.77701208078291" lon="-3.7706802763625853"><ele>732.0</ele><time>2026-05-02T12:35:36Z</time></trkpt><trkpt lat="42.77692471468346" lon="-3.770725237412623"><ele>732.0</ele><time>2026-05-02T12:35:37Z</time></trkpt><trkpt lat="42.776840845837825" lon="-3.7707777944484238"><ele>732.0</ele><time>2026-05-02T12:35:38Z</time></trkpt><trkpt lat="42.776756916391854" lon="-3.7708244113694716"><ele>732.0</ele><time>2026-05-02T12:35:39Z</time></trkpt><trkpt lat="42.77666954864753" lon="-3.77086571583471"><ele>735.4000000000001</ele><time>2026-05-02T12:35:40Z</time></trkpt><trkpt lat="42.77658298296468" lon="-3.7709091841982185"><ele>738.8000000000001</ele><time>2026-05-02T12:35:41Z</time></trkpt><trkpt lat="42.77649620396367" lon="-3.770948960011736"><ele>742.2</ele><time>2026-05-02T12:35:42Z</time></trkpt><trkpt lat="42.776409527492206" lon="-3.770990895825294"><ele>745.6</ele><time>2026-05-02T12:35:43Z</time></trkpt><trkpt lat="42.776324272205535" lon="-3.77103658120122"><ele>749.0</ele><time>2026-05-02T12:35:44Z</time></trkpt><trkpt lat="42.77623829229028" lon="-3.771082792574183"><ele>749.0</ele><time>2026-05-02T12:35:45Z</time></trkpt><trkpt lat="42.77615074979186" lon="-3.7711255979758445"><ele>749.0</ele><time>2026-05-02T12:35:46Z</time></trkpt><trkpt lat="42.77606298096554" lon="-3.7711675473734547"><ele>749.0</ele><time>2026-05-02T12:35:47Z</time></trkpt><trkpt lat="42.77597947052331" lon="-3.771221381468431"><ele>749.0</ele><time>2026-05-02T12:35:48Z</time></trkpt><trkpt lat="42.7758915288991" lon="-3.771263754708542"><ele>749.0</ele><time>2026-05-02T12:35:49Z</time></trkpt><trkpt lat="42.77580802710006" lon="-3.771315411140833"><ele>745.2</ele><time>2026-05-02T12:35:50Z</time></trkpt><trkpt lat="42.77572091759762" lon="-3.7713597129183087"><ele>741.4000000000001</ele><time>2026-05-02T12:35:51Z</time></trkpt><trkpt lat="42.775633813091645" lon="-3.771406718730964"><ele>737.6</ele><time>2026-05-02T12:35:52Z</time></trkpt><trkpt lat="42.77554922483987" lon="-3.7714545640194377"><ele>733.8</ele><time>2026-05-02T12:35:53Z</time></trkpt><trkpt lat="42.77546480930963" lon="-3.771506664891798"><ele>730.0</ele><time>2026-05-02T12:35:54Z</time></trkpt><trkpt lat="42.77537859437334" lon="-3.7715558679252514"><ele>730.0</ele><time>2026-05-02T12:35:55Z</time></trkpt><trkpt lat="42.77529473442136" lon="-3.7716075010971553"><ele>730.0</ele><time>2026-05-02T12:35:56Z</time></trkpt><trkpt lat="42.775212341404654" lon="-3.7716620409036996"><ele>730.0</ele><time>2026-05-02T12:35:57Z</time></trkpt><trkpt lat="42.77513195694425" lon="-3.7717232470686874"><ele>730.0</ele><time>2026-05-02T12:35:58Z</time></trkpt><trkpt lat="42.77505784283085" lon="-3.7717910298680373"><ele>730.0</ele><time>2026-05-02T12:35:59Z</time></trkpt><trkpt lat="42.774979451906184" lon="-3.771859025526931"><ele>731.0</ele><time>2026-05-02T12:36:00Z</time></trkpt><trkpt lat="42.77489968393151" lon="-3.771927990842154"><ele>732.0</ele><time>2026-05-02T12:36:01Z</time></trkpt><trkpt lat="42.7748264029436" lon="-3.7720045826357134"><ele>733.0</ele><time>2026-05-02T12:36:02Z</time></trkpt><trkpt lat="42.77475463156689" lon="-3.7720890781313403"><ele>734.0</ele><time>2026-05-02T12:36:03Z</time></trkpt><trkpt lat="42.774686175418594" lon="-3.7721785889013364"><ele>735.0</ele><time>2026-05-02T12:36:04Z</time></trkpt><trkpt lat="42.77461906546987" lon="-3.772273404998564"><ele>735.0</ele><time>2026-05-02T12:36:05Z</time></trkpt><trkpt lat="42.77455716305626" lon="-3.7723731259919706"><ele>735.0</ele><time>2026-05-02T12:36:06Z</time></trkpt><trkpt lat="42.77449538746568" lon="-3.7724746001279468"><ele>735.0</ele><time>2026-05-02T12:36:07Z</time></trkpt><trkpt lat="42.77443513261722" lon="-3.7725809500351644"><ele>735.0</ele><time>2026-05-02T12:36:08Z</time></trkpt><trkpt lat="42.774380114190926" lon="-3.772691528958956"><ele>735.0</ele><time>2026-05-02T12:36:09Z</time></trkpt><trkpt lat="42.774325882077626" lon="-3.7728069838403027"><ele>733.4</ele><time>2026-05-02T12:36:10Z</time></trkpt><trkpt lat="42.77427728336567" lon="-3.7729319806174058"><ele>731.8</ele><time>2026-05-02T12:36:11Z</time></trkpt><trkpt lat="42.77423130366602" lon="-3.773056626567411"><ele>730.2</ele><time>2026-05-02T12:36:12Z</time></trkpt><trkpt lat="42.774184067559105" lon="-3.7731863216817203"><ele>728.6</ele><time>2026-05-02T12:36:13Z</time></trkpt><trkpt lat="42.77414417635288" lon="-3.7733198463180933"><ele>727.0</ele><time>2026-05-02T12:36:14Z</time></trkpt><trkpt lat="42.774116349810534" lon="-3.7734596095254793"><ele>726.6</ele><time>2026-05-02T12:36:15Z</time></trkpt><trkpt lat="42.77409308106243" lon="-3.773600549084421"><ele>726.2</ele><time>2026-05-02T12:36:16Z</time></trkpt><trkpt lat="42.77407273517269" lon="-3.7737457804190138"><ele>725.8</ele><time>2026-05-02T12:36:17Z</time></trkpt><trkpt lat="42.77405759120685" lon="-3.773889472674415"><ele>725.4</ele><time>2026-05-02T12:36:18Z</time></trkpt><trkpt lat="42.77404251278729" lon="-3.7740339386395765"><ele>725.0</ele><time>2026-05-02T12:36:19Z</time></trkpt><trkpt lat="42.77402857200417" lon="-3.7741845762482895"><ele>725.0</ele><time>2026-05-02T12:36:20Z</time></trkpt><trkpt lat="42.7740200695616" lon="-3.7743306825158136"><ele>725.0</ele><time>2026-05-02T12:36:21Z</time></trkpt><trkpt lat="42.7740200681221" lon="-3.7744728280411635"><ele>725.0</ele><time>2026-05-02T12:36:22Z</time></trkpt><trkpt lat="42.77402154541543" lon="-3.774620224728016"><ele>725.0</ele><time>2026-05-02T12:36:23Z</time></trkpt><trkpt lat="42.77402325943419" lon="-3.774768724298145"><ele>725.0</ele><time>2026-05-02T12:36:24Z</time></trkpt><trkpt lat="42.77402640329183" lon="-3.7749133833885793"><ele>724.8</ele><time>2026-05-02T12:36:25Z</time></trkpt><trkpt lat="42.77402735400833" lon="-3.7750597514946618"><ele>724.6</ele><time>2026-05-02T12:36:26Z</time></trkpt><trkpt lat="42.774027412606195" lon="-3.775203699639563"><ele>724.4000000000001</ele><time>2026-05-02T12:36:27Z</time></trkpt><trkpt lat="42.774027819175416" lon="-3.7753444801819462"><ele>724.2</ele><time>2026-05-02T12:36:28Z</time></trkpt><trkpt lat="42.7740298351662" lon="-3.775490242931449"><ele>724.0</ele><time>2026-05-02T12:36:29Z</time></trkpt><trkpt lat="42.77403324291846" lon="-3.775632624298421"><ele>724.6</ele><time>2026-05-02T12:36:30Z</time></trkpt><trkpt lat="42.7740354970777" lon="-3.7757769725596235"><ele>725.2</ele><time>2026-05-02T12:36:31Z</time></trkpt><trkpt lat="42.77403828172862" lon="-3.775924890892166"><ele>725.8000000000001</ele><time>2026-05-02T12:36:32Z</time></trkpt><trkpt lat="42.77403883687103" lon="-3.776068541890956"><ele>726.4000000000001</ele><time>2026-05-02T12:36:33Z</time></trkpt><trkpt lat="42.77404024703379" lon="-3.7762121176819057"><ele>727.0</ele><time>2026-05-02T12:36:34Z</time></trkpt><trkpt lat="42.774041891967656" lon="-3.776355304567827"><ele>727.6</ele><time>2026-05-02T12:36:35Z</time></trkpt><trkpt lat="42.77404010810254" lon="-3.7764951050724895"><ele>728.2</ele><time>2026-05-02T12:36:36Z</time></trkpt><trkpt lat="42.77404169458538" lon="-3.776634823440231"><ele>728.8</ele><time>2026-05-02T12:36:37Z</time></trkpt><trkpt lat="42.77404434866291" lon="-3.7767760408829805"><ele>729.4</ele><time>2026-05-02T12:36:38Z</time></trkpt><trkpt lat="42.774047410323135" lon="-3.7769199843011934"><ele>730.0</ele><time>2026-05-02T12:36:39Z</time></trkpt><trkpt lat="42.77404862065319" lon="-3.777058671682327"><ele>730.4</ele><time>2026-05-02T12:36:40Z</time></trkpt><trkpt lat="42.77404734152062" lon="-3.777203441740898"><ele>730.8</ele><time>2026-05-02T12:36:41Z</time></trkpt><trkpt lat="42.77404692972819" lon="-3.777348601118409"><ele>731.2</ele><time>2026-05-02T12:36:42Z</time></trkpt><trkpt lat="42.77404309657996" lon="-3.77749233570154"><ele>731.6</ele><time>2026-05-02T12:36:43Z</time></trkpt><trkpt lat="42.77403058218103" lon="-3.7776365346330762"><ele>732.0</ele><time>2026-05-02T12:36:44Z</time></trkpt><trkpt lat="42.77400796667139" lon="-3.7777773087161015"><ele>732.8</ele><time>2026-05-02T12:36:45.001Z</time></trkpt><trkpt lat="42.773978664559316" lon="-3.7779155085369625"><ele>733.6</ele><time>2026-05-02T12:36:46.001Z</time></trkpt><trkpt lat="42.773940227859136" lon="-3.7780523268656454"><ele>734.4</ele><time>2026-05-02T12:36:47.001Z</time></trkpt><trkpt lat="42.773896746878094" lon="-3.778180549945575"><ele>735.1999999999999</ele><time>2026-05-02T12:36:48.001Z</time></trkpt><trkpt lat="42.77384596851122" lon="-3.7783115898223962"><ele>736.0</ele><time>2026-05-02T12:36:49.001Z</time></trkpt><trkpt lat="42.773785224800754" lon="-3.7784368730555618"><ele>734.1999999999999</ele><time>2026-05-02T12:36:50.001Z</time></trkpt><trkpt lat="42.77371959923664" lon="-3.7785520485064112"><ele>732.4</ele><time>2026-05-02T12:36:51.001Z</time></trkpt><trkpt lat="42.77365396954428" lon="-3.7786635064638743"><ele>730.6</ele><time>2026-05-02T12:36:52.001Z</time></trkpt><trkpt lat="42.7735793375288" lon="-3.7787698612094784"><ele>728.8</ele><time>2026-05-02T12:36:53.001Z</time></trkpt><trkpt lat="42.77349954617422" lon="-3.778865865262532"><ele>727.0</ele><time>2026-05-02T12:36:54.001Z</time></trkpt><trkpt lat="42.77341255820546" lon="-3.778953797866031"><ele>727.0</ele><time>2026-05-02T12:36:55.001Z</time></trkpt><trkpt lat="42.77331983821729" lon="-3.7790267996638036"><ele>727.0</ele><time>2026-05-02T12:36:56.001Z</time></trkpt><trkpt lat="42.77322518517345" lon="-3.779095271166085"><ele>727.0</ele><time>2026-05-02T12:36:57.001Z</time></trkpt><trkpt lat="42.77312918256782" lon="-3.779163943167321"><ele>727.0</ele><time>2026-05-02T12:36:58.001Z</time></trkpt><trkpt lat="42.77303618066819" lon="-3.779230493799304"><ele>727.0</ele><time>2026-05-02T12:36:59.001Z</time></trkpt><trkpt lat="42.77293889050155" lon="-3.779296110051657"><ele>727.0</ele><time>2026-05-02T12:37:00.001Z</time></trkpt><trkpt lat="42.77283808866976" lon="-3.779355699099476"><ele>727.0</ele><time>2026-05-02T12:37:01.001Z</time></trkpt><trkpt lat="42.772739153014186" lon="-3.7794141374182857"><ele>727.0</ele><time>2026-05-02T12:37:02.001Z</time></trkpt><trkpt lat="42.772638558252275" lon="-3.779471276009134"><ele>727.0</ele><time>2026-05-02T12:37:03.001Z</time></trkpt><trkpt lat="42.772539962924704" lon="-3.7795335105900993"><ele>727.0</ele><time>2026-05-02T12:37:04.001Z</time></trkpt><trkpt lat="42.77244230899856" lon="-3.779599490184237"><ele>727.0</ele><time>2026-05-02T12:37:05.001Z</time></trkpt><trkpt lat="42.77234532268244" lon="-3.7796657563428977"><ele>727.0</ele><time>2026-05-02T12:37:06.001Z</time></trkpt><trkpt lat="42.77224587344139" lon="-3.779728094497382"><ele>727.0</ele><time>2026-05-02T12:37:07.001Z</time></trkpt><trkpt lat="42.772149687425795" lon="-3.779802605413042"><ele>727.0</ele><time>2026-05-02T12:37:08.001Z</time></trkpt><trkpt lat="42.77205364849094" lon="-3.779878079105823"><ele>727.0</ele><time>2026-05-02T12:37:09.001Z</time></trkpt><trkpt lat="42.771961780731935" lon="-3.7799605617360874"><ele>727.0</ele><time>2026-05-02T12:37:10.001Z</time></trkpt><trkpt lat="42.77187068660939" lon="-3.7800419225713737"><ele>727.0</ele><time>2026-05-02T12:37:11.001Z</time></trkpt><trkpt lat="42.77178047608573" lon="-3.780120684482562"><ele>727.0</ele><time>2026-05-02T12:37:12.001Z</time></trkpt><trkpt lat="42.77169016432906" lon="-3.7802042751188196"><ele>727.0</ele><time>2026-05-02T12:37:13.001Z</time></trkpt><trkpt lat="42.77160387840734" lon="-3.780287970868936"><ele>727.0</ele><time>2026-05-02T12:37:14.001Z</time></trkpt><trkpt lat="42.77151445906763" lon="-3.7803690025832037"><ele>726.8</ele><time>2026-05-02T12:37:15.001Z</time></trkpt><trkpt lat="42.77143218225021" lon="-3.7804593445250596"><ele>726.6</ele><time>2026-05-02T12:37:16.001Z</time></trkpt><trkpt lat="42.77134928383571" lon="-3.7805446556299147"><ele>726.4</ele><time>2026-05-02T12:37:17.001Z</time></trkpt><trkpt lat="42.771266289603545" lon="-3.7806336717424136"><ele>726.1999999999999</ele><time>2026-05-02T12:37:18.001Z</time></trkpt><trkpt lat="42.77118084885868" lon="-3.7807261178201843"><ele>726.0</ele><time>2026-05-02T12:37:19.001Z</time></trkpt><trkpt lat="42.77109766669343" lon="-3.7808160790946976"><ele>727.1999999999999</ele><time>2026-05-02T12:37:20.001Z</time></trkpt><trkpt lat="42.771016986189075" lon="-3.78090218035493"><ele>728.4</ele><time>2026-05-02T12:37:21.001Z</time></trkpt><trkpt lat="42.77093369998943" lon="-3.780987377618003"><ele>729.6</ele><time>2026-05-02T12:37:22.001Z</time></trkpt><trkpt lat="42.77085136476233" lon="-3.781077127001318"><ele>730.8</ele><time>2026-05-02T12:37:23.001Z</time></trkpt><trkpt lat="42.770768383634305" lon="-3.7811675377153535"><ele>732.0</ele><time>2026-05-02T12:37:24Z</time></trkpt><trkpt lat="42.77067994888631" lon="-3.7812549427919753"><ele>732.0</ele><time>2026-05-02T12:37:25Z</time></trkpt><trkpt lat="42.770593326725184" lon="-3.7813425079953693"><ele>732.0</ele><time>2026-05-02T12:37:26Z</time></trkpt><trkpt lat="42.770503827939955" lon="-3.781423915484125"><ele>732.0</ele><time>2026-05-02T12:37:27Z</time></trkpt><trkpt lat="42.770415005349356" lon="-3.781505425383282"><ele>732.0</ele><time>2026-05-02T12:37:28Z</time></trkpt><trkpt lat="42.77032357702542" lon="-3.7815888901550276"><ele>732.0</ele><time>2026-05-02T12:37:29Z</time></trkpt><trkpt lat="42.770244342564304" lon="-3.7816614979632304"><ele>730.0</ele><time>2026-05-02T12:37:30Z</time></trkpt><trkpt lat="42.77017641434599" lon="-3.781678701322652"><ele>728.0</ele><time>2026-05-02T12:37:32Z</time></trkpt><trkpt lat="42.77009721958232" lon="-3.7817116987833677"><ele>726.0</ele><time>2026-05-02T12:37:33Z</time></trkpt><trkpt lat="42.769769637419884" lon="-3.7820689445353133"><ele>726.0</ele><time>2026-05-02T12:37:35Z</time></trkpt><trkpt lat="42.769679125128825" lon="-3.7821515950517983"><ele>726.0</ele><time>2026-05-02T12:37:36Z</time></trkpt><trkpt lat="42.76958636577467" lon="-3.7822305024361156"><ele>726.0</ele><time>2026-05-02T12:37:37Z</time></trkpt><trkpt lat="42.769486014510896" lon="-3.7823054400849627"><ele>726.0</ele><time>2026-05-02T12:37:38Z</time></trkpt><trkpt lat="42.76939525626123" lon="-3.782379056321869"><ele>726.0</ele><time>2026-05-02T12:37:39Z</time></trkpt><trkpt lat="42.769302195440716" lon="-3.7824591958862324"><ele>727.0</ele><time>2026-05-02T12:37:40Z</time></trkpt><trkpt lat="42.76920716919865" lon="-3.7825324985145374"><ele>728.0</ele><time>2026-05-02T12:37:41Z</time></trkpt><trkpt lat="42.76911861385573" lon="-3.782610696241211"><ele>729.0</ele><time>2026-05-02T12:37:42Z</time></trkpt><trkpt lat="42.76903310529978" lon="-3.7826983676723254"><ele>730.0</ele><time>2026-05-02T12:37:43Z</time></trkpt><trkpt lat="42.76894294181012" lon="-3.782774881938628"><ele>731.0</ele><time>2026-05-02T12:37:44Z</time></trkpt><trkpt lat="42.76884870680635" lon="-3.7828494843208937"><ele>731.0</ele><time>2026-05-02T12:37:45Z</time></trkpt><trkpt lat="42.76875870637052" lon="-3.7829231658734632"><ele>731.0</ele><time>2026-05-02T12:37:46Z</time></trkpt><trkpt lat="42.768669587085405" lon="-3.783010714741087"><ele>731.0</ele><time>2026-05-02T12:37:47Z</time></trkpt><trkpt lat="42.768577537070605" lon="-3.7830852858639643"><ele>731.0</ele><time>2026-05-02T12:37:48Z</time></trkpt><trkpt lat="42.76848572232584" lon="-3.783168037733511"><ele>731.0</ele><time>2026-05-02T12:37:49Z</time></trkpt><trkpt lat="42.76839566828096" lon="-3.783247289816507"><ele>731.8</ele><time>2026-05-02T12:37:50Z</time></trkpt><trkpt lat="42.76830677637415" lon="-3.7833282925897445"><ele>732.5999999999999</ele><time>2026-05-02T12:37:51Z</time></trkpt><trkpt lat="42.76822022542537" lon="-3.7834087947916744"><ele>733.4</ele><time>2026-05-02T12:37:52Z</time></trkpt><trkpt lat="42.768135233350506" lon="-3.783496329328394"><ele>734.2</ele><time>2026-05-02T12:37:53Z</time></trkpt><trkpt lat="42.76805787032021" lon="-3.7835964157722763"><ele>735.0</ele><time>2026-05-02T12:37:54Z</time></trkpt><trkpt lat="42.76798195755696" lon="-3.7837010314050574"><ele>735.0</ele><time>2026-05-02T12:37:55Z</time></trkpt><trkpt lat="42.767913455830204" lon="-3.783814022479653"><ele>735.0</ele><time>2026-05-02T12:37:56Z</time></trkpt><trkpt lat="42.767853380366184" lon="-3.783931912718576"><ele>735.0</ele><time>2026-05-02T12:37:57Z</time></trkpt><trkpt lat="42.76779427057513" lon="-3.7840624947638495"><ele>735.0</ele><time>2026-05-02T12:37:58Z</time></trkpt><trkpt lat="42.76774258641037" lon="-3.7841971751323062"><ele>735.0</ele><time>2026-05-02T12:37:59Z</time></trkpt><trkpt lat="42.767695632025024" lon="-3.7843318594668576"><ele>733.2</ele><time>2026-05-02T12:38:00Z</time></trkpt><trkpt lat="42.76764900440801" lon="-3.784469665448497"><ele>731.4</ele><time>2026-05-02T12:38:01Z</time></trkpt><trkpt lat="42.767601664460344" lon="-3.784605323422128"><ele>729.5999999999999</ele><time>2026-05-02T12:38:02Z</time></trkpt><trkpt lat="42.76755216537248" lon="-3.784747853124825"><ele>727.8</ele><time>2026-05-02T12:38:03Z</time></trkpt><trkpt lat="42.767507627688815" lon="-3.7848851465717637"><ele>726.0</ele><time>2026-05-02T12:38:04Z</time></trkpt><trkpt lat="42.76746628868292" lon="-3.785024367977144"><ele>726.0</ele><time>2026-05-02T12:38:05Z</time></trkpt><trkpt lat="42.76741974630434" lon="-3.785167932544812"><ele>726.0</ele><time>2026-05-02T12:38:06Z</time></trkpt><trkpt lat="42.76737200211377" lon="-3.785314332048539"><ele>726.0</ele><time>2026-05-02T12:38:07Z</time></trkpt><trkpt lat="42.76732233150904" lon="-3.7854589604289717"><ele>726.0</ele><time>2026-05-02T12:38:08Z</time></trkpt><trkpt lat="42.767271448250625" lon="-3.7856021021968576"><ele>725.75</ele><time>2026-05-02T12:38:09Z</time></trkpt><trkpt lat="42.76722141011449" lon="-3.785742519040975"><ele>725.5</ele><time>2026-05-02T12:38:10Z</time></trkpt><trkpt lat="42.76717746102829" lon="-3.785887743932227"><ele>725.25</ele><time>2026-05-02T12:38:11Z</time></trkpt><trkpt lat="42.76713134106118" lon="-3.786029926696446"><ele>725.0</ele><time>2026-05-02T12:38:12Z</time></trkpt><trkpt lat="42.767082606056015" lon="-3.7861701017579414"><ele>725.0</ele><time>2026-05-02T12:38:13Z</time></trkpt><trkpt lat="42.767034826095795" lon="-3.786310005934481"><ele>725.0</ele><time>2026-05-02T12:38:14Z</time></trkpt><trkpt lat="42.766984575480926" lon="-3.7864461608037123"><ele>725.0</ele><time>2026-05-02T12:38:15Z</time></trkpt><trkpt lat="42.76693858381639" lon="-3.7865879882341864"><ele>725.0</ele><time>2026-05-02T12:38:16Z</time></trkpt><trkpt lat="42.7668952116852" lon="-3.7867269497561247"><ele>719.75</ele><time>2026-05-02T12:38:17Z</time></trkpt><trkpt lat="42.7668490412006" lon="-3.7868690841047687"><ele>714.5</ele><time>2026-05-02T12:38:18Z</time></trkpt><trkpt lat="42.766800801207914" lon="-3.787009225604251"><ele>709.25</ele><time>2026-05-02T12:38:19Z</time></trkpt><trkpt lat="42.766752721661554" lon="-3.787148992013167"><ele>704.0</ele><time>2026-05-02T12:38:20Z</time></trkpt><trkpt lat="42.76670261399862" lon="-3.787288429515314"><ele>704.0</ele><time>2026-05-02T12:38:21Z</time></trkpt><trkpt lat="42.76665658521463" lon="-3.7874303940760474"><ele>704.0</ele><time>2026-05-02T12:38:22Z</time></trkpt><trkpt lat="42.766610898162895" lon="-3.78757486531992"><ele>704.0</ele><time>2026-05-02T12:38:23Z</time></trkpt><trkpt lat="42.76656109885581" lon="-3.787713541374254"><ele>704.0</ele><time>2026-05-02T12:38:24Z</time></trkpt><trkpt lat="42.76651351145597" lon="-3.787851368580971"><ele>705.2</ele><time>2026-05-02T12:38:25Z</time></trkpt><trkpt lat="42.76646755416212" lon="-3.787986925610849"><ele>706.4000000000001</ele><time>2026-05-02T12:38:26Z</time></trkpt><trkpt lat="42.7664208663537" lon="-3.7881208501567065"><ele>707.6</ele><time>2026-05-02T12:38:27Z</time></trkpt><trkpt lat="42.7663763063621" lon="-3.7882628323360756"><ele>708.8</ele><time>2026-05-02T12:38:28Z</time></trkpt><trkpt lat="42.766332295941204" lon="-3.788399929913258"><ele>710.0</ele><time>2026-05-02T12:38:29Z</time></trkpt><trkpt lat="42.76628340532146" lon="-3.788541815735356"><ele>712.0</ele><time>2026-05-02T12:38:30Z</time></trkpt><trkpt lat="42.76623624313091" lon="-3.7886808972629913"><ele>714.0</ele><time>2026-05-02T12:38:31Z</time></trkpt><trkpt lat="42.76618668259812" lon="-3.7888207182180844"><ele>716.0</ele><time>2026-05-02T12:38:32Z</time></trkpt><trkpt lat="42.766137722126295" lon="-3.788961062215149"><ele>718.0</ele><time>2026-05-02T12:38:33Z</time></trkpt><trkpt lat="42.76608839801789" lon="-3.789098851378623"><ele>718.0</ele><time>2026-05-02T12:38:34Z</time></trkpt><trkpt lat="42.76603213036105" lon="-3.7892334838036654"><ele>718.0</ele><time>2026-05-02T12:38:35Z</time></trkpt><trkpt lat="42.76597813276598" lon="-3.78936114033655"><ele>718.0</ele><time>2026-05-02T12:38:36Z</time></trkpt><trkpt lat="42.76591612534028" lon="-3.789491566343328"><ele>718.0</ele><time>2026-05-02T12:38:37Z</time></trkpt><trkpt lat="42.765850194370856" lon="-3.789607868522145"><ele>718.0</ele><time>2026-05-02T12:38:38Z</time></trkpt><trkpt lat="42.76578123584401" lon="-3.789734105084158"><ele>717.25</ele><time>2026-05-02T12:38:39Z</time></trkpt><trkpt lat="42.765714819462175" lon="-3.789856027757629"><ele>716.5</ele><time>2026-05-02T12:38:40Z</time></trkpt><trkpt lat="42.765643664918976" lon="-3.7899798936521263"><ele>715.75</ele><time>2026-05-02T12:38:41Z</time></trkpt><trkpt lat="42.765568716208314" lon="-3.7900984608374513"><ele>715.0</ele><time>2026-05-02T12:38:42Z</time></trkpt><trkpt lat="42.76549547119375" lon="-3.7902087143308907"><ele>718.0</ele><time>2026-05-02T12:38:43Z</time></trkpt><trkpt lat="42.76542057080517" lon="-3.790323524615895"><ele>721.0</ele><time>2026-05-02T12:38:44Z</time></trkpt><trkpt lat="42.765348290911255" lon="-3.7904378032368147"><ele>724.0</ele><time>2026-05-02T12:38:45Z</time></trkpt><trkpt lat="42.765269000482355" lon="-3.7905470097698997"><ele>727.0</ele><time>2026-05-02T12:38:46Z</time></trkpt><trkpt lat="42.76519272911304" lon="-3.7906646226363576"><ele>723.2</ele><time>2026-05-02T12:38:47Z</time></trkpt><trkpt lat="42.7651217458057" lon="-3.7907833229419263"><ele>719.4000000000001</ele><time>2026-05-02T12:38:48Z</time></trkpt><trkpt lat="42.76505488654043" lon="-3.7909074761873027"><ele>715.5999999999999</ele><time>2026-05-02T12:38:49Z</time></trkpt><trkpt lat="42.764990538181245" lon="-3.7910298146620445"><ele>711.8</ele><time>2026-05-02T12:38:50Z</time></trkpt><trkpt lat="42.76492721086547" lon="-3.7911467239857854"><ele>708.0</ele><time>2026-05-02T12:38:51Z</time></trkpt><trkpt lat="42.764868792696184" lon="-3.791282139045732"><ele>708.0</ele><time>2026-05-02T12:38:52Z</time></trkpt><trkpt lat="42.76481425048442" lon="-3.791415666338776"><ele>708.0</ele><time>2026-05-02T12:38:53Z</time></trkpt><trkpt lat="42.76475974720881" lon="-3.7915504671686127"><ele>708.0</ele><time>2026-05-02T12:38:54Z</time></trkpt><trkpt lat="42.76470514550718" lon="-3.791685631161988"><ele>708.0</ele><time>2026-05-02T12:38:55Z</time></trkpt><trkpt lat="42.764653217414136" lon="-3.7918243587221627"><ele>711.0</ele><time>2026-05-02T12:38:56Z</time></trkpt><trkpt lat="42.764609714942154" lon="-3.7919688478033584"><ele>714.0</ele><time>2026-05-02T12:38:57Z</time></trkpt><trkpt lat="42.7645672610302" lon="-3.7921153444703832"><ele>717.0</ele><time>2026-05-02T12:38:58Z</time></trkpt><trkpt lat="42.76452239909206" lon="-3.792256511390637"><ele>720.0</ele><time>2026-05-02T12:38:59Z</time></trkpt><trkpt lat="42.76447470547062" lon="-3.792399584961279"><ele>720.0</ele><time>2026-05-02T12:39:00Z</time></trkpt><trkpt lat="42.76442937713227" lon="-3.792546104659178"><ele>720.0</ele><time>2026-05-02T12:39:01Z</time></trkpt><trkpt lat="42.764386120390036" lon="-3.7926916279323493"><ele>720.0</ele><time>2026-05-02T12:39:02Z</time></trkpt><trkpt lat="42.76434338634086" lon="-3.7928324132827314"><ele>720.0</ele><time>2026-05-02T12:39:03Z</time></trkpt><trkpt lat="42.76429884133464" lon="-3.792973607913342"><ele>713.75</ele><time>2026-05-02T12:39:04Z</time></trkpt><trkpt lat="42.764251902413804" lon="-3.7931232704876514"><ele>707.5</ele><time>2026-05-02T12:39:05.001Z</time></trkpt><trkpt lat="42.76420772038189" lon="-3.7932727567288267"><ele>701.25</ele><time>2026-05-02T12:39:06.001Z</time></trkpt><trkpt lat="42.764165391384665" lon="-3.7934214048904846"><ele>695.0</ele><time>2026-05-02T12:39:07.001Z</time></trkpt><trkpt lat="42.76412199500798" lon="-3.793571293034949"><ele>695.0</ele><time>2026-05-02T12:39:08.001Z</time></trkpt><trkpt lat="42.76407852489836" lon="-3.79371458006214"><ele>695.0</ele><time>2026-05-02T12:39:09.001Z</time></trkpt><trkpt lat="42.764031458757124" lon="-3.793864165865348"><ele>695.0</ele><time>2026-05-02T12:39:10.001Z</time></trkpt><trkpt lat="42.76398565036799" lon="-3.794009038771098"><ele>695.0</ele><time>2026-05-02T12:39:11.001Z</time></trkpt><trkpt lat="42.763937592227464" lon="-3.794153565907008"><ele>695.0</ele><time>2026-05-02T12:39:12.001Z</time></trkpt><trkpt lat="42.763889352201836" lon="-3.7942932594828926"><ele>695.0</ele><time>2026-05-02T12:39:13.001Z</time></trkpt><trkpt lat="42.76383745013469" lon="-3.7944340441350755"><ele>695.0</ele><time>2026-05-02T12:39:14.001Z</time></trkpt><trkpt lat="42.76378628094544" lon="-3.7945700143318226"><ele>695.0</ele><time>2026-05-02T12:39:15.001Z</time></trkpt><trkpt lat="42.76373645631801" lon="-3.794707672766284"><ele>693.8</ele><time>2026-05-02T12:39:16.001Z</time></trkpt><trkpt lat="42.76368604359364" lon="-3.7948464071068546"><ele>692.6</ele><time>2026-05-02T12:39:17.001Z</time></trkpt><trkpt lat="42.76363850014461" lon="-3.7949855343784065"><ele>691.4000000000001</ele><time>2026-05-02T12:39:18.001Z</time></trkpt><trkpt lat="42.763586181532155" lon="-3.795118783823497"><ele>690.2</ele><time>2026-05-02T12:39:19.001Z</time></trkpt><trkpt lat="42.76353128612596" lon="-3.795251965794054"><ele>689.0</ele><time>2026-05-02T12:39:20.001Z</time></trkpt><trkpt lat="42.763477823444255" lon="-3.795388902963637"><ele>689.0</ele><time>2026-05-02T12:39:21.001Z</time></trkpt><trkpt lat="42.76343322356487" lon="-3.7955259455649824"><ele>689.0</ele><time>2026-05-02T12:39:22.001Z</time></trkpt><trkpt lat="42.763378785636064" lon="-3.795658465231522"><ele>689.0</ele><time>2026-05-02T12:39:23.001Z</time></trkpt><trkpt lat="42.763327082819565" lon="-3.7957913670334027"><ele>689.0</ele><time>2026-05-02T12:39:24.001Z</time></trkpt><trkpt lat="42.76326851111307" lon="-3.7959227189115863"><ele>689.0</ele><time>2026-05-02T12:39:25.001Z</time></trkpt><trkpt lat="42.76320881261402" lon="-3.7960528551801147"><ele>692.8000000000001</ele><time>2026-05-02T12:39:26.001Z</time></trkpt><trkpt lat="42.76314474380426" lon="-3.7961673318143636"><ele>696.6</ele><time>2026-05-02T12:39:27.001Z</time></trkpt><trkpt lat="42.7630682178031" lon="-3.796261365682059"><ele>700.4</ele><time>2026-05-02T12:39:28.001Z</time></trkpt><trkpt lat="42.76298496340079" lon="-3.7963809517130076"><ele>704.2</ele><time>2026-05-02T12:39:29.001Z</time></trkpt><trkpt lat="42.762911204878925" lon="-3.796474864725072"><ele>708.0</ele><time>2026-05-02T12:39:30Z</time></trkpt><trkpt lat="42.76282223951587" lon="-3.7965709888450525"><ele>708.0</ele><time>2026-05-02T12:39:31Z</time></trkpt><trkpt lat="42.76273178541093" lon="-3.7966496268854013"><ele>708.0</ele><time>2026-05-02T12:39:32Z</time></trkpt><trkpt lat="42.76263599976416" lon="-3.7967172953710207"><ele>708.0</ele><time>2026-05-02T12:39:33Z</time></trkpt><trkpt lat="42.762530872601175" lon="-3.796777646727808"><ele>708.0</ele><time>2026-05-02T12:39:34Z</time></trkpt><trkpt lat="42.762424326533164" lon="-3.796821426398044"><ele>708.0</ele><time>2026-05-02T12:39:35Z</time></trkpt><trkpt lat="42.76232380213809" lon="-3.796870418434647"><ele>708.25</ele><time>2026-05-02T12:39:36Z</time></trkpt><trkpt lat="42.76221207157896" lon="-3.796897082517134"><ele>708.5</ele><time>2026-05-02T12:39:37Z</time></trkpt><trkpt lat="42.762101208642825" lon="-3.7969268877916096"><ele>708.75</ele><time>2026-05-02T12:39:38Z</time></trkpt><trkpt lat="42.76199232841639" lon="-3.7969711840553027"><ele>709.0</ele><time>2026-05-02T12:39:39Z</time></trkpt><trkpt lat="42.7618832281065" lon="-3.796996877747954"><ele>704.0</ele><time>2026-05-02T12:39:40Z</time></trkpt><trkpt lat="42.761771439173344" lon="-3.7970305740041015"><ele>699.0</ele><time>2026-05-02T12:39:41Z</time></trkpt><trkpt lat="42.7616604641697" lon="-3.797062201232552"><ele>694.0</ele><time>2026-05-02T12:39:42Z</time></trkpt><trkpt lat="42.76155624690765" lon="-3.7971067925663267"><ele>689.0</ele><time>2026-05-02T12:39:43Z</time></trkpt><trkpt lat="42.7614476781318" lon="-3.7971629105047957"><ele>689.0</ele><time>2026-05-02T12:39:44Z</time></trkpt><trkpt lat="42.76134989485596" lon="-3.797238713919789"><ele>689.0</ele><time>2026-05-02T12:39:45Z</time></trkpt><trkpt lat="42.76125076296336" lon="-3.7973081367010324"><ele>689.0</ele><time>2026-05-02T12:39:46Z</time></trkpt><trkpt lat="42.76115415715185" lon="-3.797381259312999"><ele>689.0</ele><time>2026-05-02T12:39:47Z</time></trkpt><trkpt lat="42.761062843850254" lon="-3.797462620371059"><ele>689.0</ele><time>2026-05-02T12:39:48Z</time></trkpt><trkpt lat="42.760964959238265" lon="-3.797537665709164"><ele>688.2</ele><time>2026-05-02T12:39:49Z</time></trkpt><trkpt lat="42.7608689927418" lon="-3.7976173409598073"><ele>687.4000000000001</ele><time>2026-05-02T12:39:50Z</time></trkpt><trkpt lat="42.76077283913709" lon="-3.7976920280519044"><ele>686.6</ele><time>2026-05-02T12:39:51Z</time></trkpt><trkpt lat="42.760683409987614" lon="-3.797777442695769"><ele>685.8</ele><time>2026-05-02T12:39:52Z</time></trkpt><trkpt lat="42.76058654768556" lon="-3.7978532347451237"><ele>685.0</ele><time>2026-05-02T12:39:53Z</time></trkpt><trkpt lat="42.760505204569114" lon="-3.7979335126013227"><ele>685.0</ele><time>2026-05-02T12:39:54Z</time></trkpt><trkpt lat="42.760423296225106" lon="-3.7980034265228015"><ele>685.0</ele><time>2026-05-02T12:39:55Z</time></trkpt><trkpt lat="42.76034941175747" lon="-3.7980664915744535"><ele>685.0</ele><time>2026-05-02T12:39:56Z</time></trkpt><trkpt lat="42.760280632533494" lon="-3.798116021201173"><ele>685.0</ele><time>2026-05-02T12:39:57Z</time></trkpt><trkpt lat="42.76014065218975" lon="-3.798244680966832"><ele>685.0</ele><time>2026-05-02T12:39:58Z</time></trkpt><trkpt lat="42.7600511205592" lon="-3.798319746396333"><ele>684.2</ele><time>2026-05-02T12:39:59Z</time></trkpt><trkpt lat="42.759961760669285" lon="-3.7983945504375023"><ele>683.4</ele><time>2026-05-02T12:40:00Z</time></trkpt><trkpt lat="42.759871320055694" lon="-3.79847025916732"><ele>682.5999999999999</ele><time>2026-05-02T12:40:01Z</time></trkpt><trkpt lat="42.75977967645806" lon="-3.7985312308008283"><ele>681.8</ele><time>2026-05-02T12:40:02Z</time></trkpt><trkpt lat="42.75968951467782" lon="-3.7986050248747523"><ele>681.0</ele><time>2026-05-02T12:40:03Z</time></trkpt><trkpt lat="42.75960192685509" lon="-3.7986782299503763"><ele>683.4</ele><time>2026-05-02T12:40:04Z</time></trkpt><trkpt lat="42.7595171037836" lon="-3.798752232310565"><ele>685.8</ele><time>2026-05-02T12:40:05Z</time></trkpt><trkpt lat="42.75942953247176" lon="-3.798827353836057"><ele>688.1999999999999</ele><time>2026-05-02T12:40:06Z</time></trkpt><trkpt lat="42.75934038572691" lon="-3.798902400383146"><ele>690.5999999999999</ele><time>2026-05-02T12:40:07Z</time></trkpt><trkpt lat="42.759254650306595" lon="-3.798974561114107"><ele>693.0</ele><time>2026-05-02T12:40:08Z</time></trkpt><trkpt lat="42.75916682561951" lon="-3.7990494960220293"><ele>693.0</ele><time>2026-05-02T12:40:09Z</time></trkpt><trkpt lat="42.75907923472052" lon="-3.799123905461789"><ele>693.0</ele><time>2026-05-02T12:40:10Z</time></trkpt><trkpt lat="42.75899127023144" lon="-3.799200247912428"><ele>693.0</ele><time>2026-05-02T12:40:11Z</time></trkpt><trkpt lat="42.758901570867245" lon="-3.7992754375554836"><ele>693.0</ele><time>2026-05-02T12:40:12Z</time></trkpt><trkpt lat="42.758813930638354" lon="-3.799347524695254"><ele>693.0</ele><time>2026-05-02T12:40:13Z</time></trkpt><trkpt lat="42.758723956178684" lon="-3.799421755191043"><ele>693.8</ele><time>2026-05-02T12:40:14Z</time></trkpt><trkpt lat="42.758636750331895" lon="-3.7995114216213857"><ele>694.5999999999999</ele><time>2026-05-02T12:40:15Z</time></trkpt><trkpt lat="42.758543562344116" lon="-3.7995897060429593"><ele>695.4000000000001</ele><time>2026-05-02T12:40:16Z</time></trkpt><trkpt lat="42.75845467538352" lon="-3.7996669251708006"><ele>696.2</ele><time>2026-05-02T12:40:17Z</time></trkpt><trkpt lat="42.75836192796189" lon="-3.7997432763996266"><ele>697.0</ele><time>2026-05-02T12:40:18Z</time></trkpt><trkpt lat="42.75826885576772" lon="-3.7998214696487267"><ele>697.0</ele><time>2026-05-02T12:40:19Z</time></trkpt><trkpt lat="42.75817169296414" lon="-3.799889324576677"><ele>697.0</ele><time>2026-05-02T12:40:20Z</time></trkpt><trkpt lat="42.758082820955195" lon="-3.79998642287972"><ele>697.0</ele><time>2026-05-02T12:40:21Z</time></trkpt><trkpt lat="42.75798451131706" lon="-3.8000557132996313"><ele>697.0</ele><time>2026-05-02T12:40:22Z</time></trkpt><trkpt lat="42.75789335596408" lon="-3.8001271234888514"><ele>697.0</ele><time>2026-05-02T12:40:23Z</time></trkpt><trkpt lat="42.757790388640224" lon="-3.8002018227247616"><ele>699.4000000000001</ele><time>2026-05-02T12:40:24Z</time></trkpt><trkpt lat="42.75767887113789" lon="-3.800281259485374"><ele>701.8000000000001</ele><time>2026-05-02T12:40:25Z</time></trkpt><trkpt lat="42.757583675481655" lon="-3.800305940435691"><ele>704.2</ele><time>2026-05-02T12:40:26Z</time></trkpt><trkpt lat="42.75748240628498" lon="-3.800363656211328"><ele>706.6</ele><time>2026-05-02T12:40:27Z</time></trkpt><trkpt lat="42.75737714776762" lon="-3.8004066795665605"><ele>709.0</ele><time>2026-05-02T12:40:28Z</time></trkpt><trkpt lat="42.75726997857405" lon="-3.8004562672988156"><ele>709.0</ele><time>2026-05-02T12:40:29Z</time></trkpt><trkpt lat="42.757167267322615" lon="-3.8005037486811544"><ele>709.0</ele><time>2026-05-02T12:40:30Z</time></trkpt><trkpt lat="42.75706645415275" lon="-3.8005582980650257"><ele>709.0</ele><time>2026-05-02T12:40:31Z</time></trkpt><trkpt lat="42.75696071941255" lon="-3.8006131243580397"><ele>709.0</ele><time>2026-05-02T12:40:32Z</time></trkpt><trkpt lat="42.75685719150252" lon="-3.8006695069001997"><ele>709.0</ele><time>2026-05-02T12:40:33Z</time></trkpt><trkpt lat="42.75676958623542" lon="-3.800765226815783"><ele>711.2</ele><time>2026-05-02T12:40:34Z</time></trkpt><trkpt lat="42.75667157478916" lon="-3.800836321460014"><ele>713.4000000000001</ele><time>2026-05-02T12:40:35Z</time></trkpt><trkpt lat="42.75658850433242" lon="-3.800933777889851"><ele>715.6</ele><time>2026-05-02T12:40:36Z</time></trkpt><trkpt lat="42.75650863981682" lon="-3.801031998811508"><ele>717.8</ele><time>2026-05-02T12:40:37Z</time></trkpt><trkpt lat="42.756440062567336" lon="-3.8011400249270517"><ele>720.0</ele><time>2026-05-02T12:40:38Z</time></trkpt><trkpt lat="42.756406938777694" lon="-3.8013258939708288"><ele>720.0</ele><time>2026-05-02T12:40:40Z</time></trkpt><trkpt lat="42.756325672258356" lon="-3.8014227880765348"><ele>720.0</ele><time>2026-05-02T12:40:41Z</time></trkpt><trkpt lat="42.75614408590116" lon="-3.8015386201886883"><ele>720.0</ele><time>2026-05-02T12:40:42Z</time></trkpt><trkpt lat="42.756010360380735" lon="-3.8016146069079344"><ele>716.4</ele><time>2026-05-02T12:40:43Z</time></trkpt><trkpt lat="42.755916934527704" lon="-3.8016875109053867"><ele>712.8</ele><time>2026-05-02T12:40:44Z</time></trkpt><trkpt lat="42.7558204902708" lon="-3.801750048755921"><ele>709.2</ele><time>2026-05-02T12:40:45Z</time></trkpt><trkpt lat="42.75572433171509" lon="-3.801810377957206"><ele>705.6</ele><time>2026-05-02T12:40:46Z</time></trkpt><trkpt lat="42.755609488655786" lon="-3.8018813927779167"><ele>702.0</ele><time>2026-05-02T12:40:47Z</time></trkpt><trkpt lat="42.75550750996592" lon="-3.8019311020705024"><ele>702.0</ele><time>2026-05-02T12:40:48Z</time></trkpt><trkpt lat="42.75540339066716" lon="-3.801974385750685"><ele>702.0</ele><time>2026-05-02T12:40:49Z</time></trkpt><trkpt lat="42.75530375074044" lon="-3.802024527757172"><ele>702.0</ele><time>2026-05-02T12:40:50Z</time></trkpt><trkpt lat="42.75519688236841" lon="-3.8020717799328927"><ele>702.0</ele><time>2026-05-02T12:40:51Z</time></trkpt><trkpt lat="42.75509591326951" lon="-3.8021138502828746"><ele>702.0</ele><time>2026-05-02T12:40:52Z</time></trkpt><trkpt lat="42.75499031053775" lon="-3.802161186355304"><ele>698.8</ele><time>2026-05-02T12:40:53Z</time></trkpt><trkpt lat="42.75489279159364" lon="-3.8022161167782254"><ele>695.6</ele><time>2026-05-02T12:40:54Z</time></trkpt><trkpt lat="42.754797497752676" lon="-3.8022637563489967"><ele>692.4</ele><time>2026-05-02T12:40:55Z</time></trkpt><trkpt lat="42.75469277352706" lon="-3.8023154631003013"><ele>689.1999999999999</ele><time>2026-05-02T12:40:56Z</time></trkpt><trkpt lat="42.75458429823974" lon="-3.802364294757615"><ele>686.0</ele><time>2026-05-02T12:40:57Z</time></trkpt><trkpt lat="42.75448140582325" lon="-3.802407344299563"><ele>686.0</ele><time>2026-05-02T12:40:58Z</time></trkpt><trkpt lat="42.75438346112607" lon="-3.8024548940153964"><ele>686.0</ele><time>2026-05-02T12:40:59Z</time></trkpt><trkpt lat="42.7542844232635" lon="-3.802500092673572"><ele>686.0</ele><time>2026-05-02T12:41:00Z</time></trkpt><trkpt lat="42.75418214739581" lon="-3.802546620066284"><ele>686.0</ele><time>2026-05-02T12:41:01Z</time></trkpt><trkpt lat="42.754084598128024" lon="-3.802602864274589"><ele>686.0</ele><time>2026-05-02T12:41:02Z</time></trkpt><trkpt lat="42.75397836120827" lon="-3.8026460530186386"><ele>687.0</ele><time>2026-05-02T12:41:03Z</time></trkpt><trkpt lat="42.75388575684384" lon="-3.802713925633066"><ele>688.0</ele><time>2026-05-02T12:41:04Z</time></trkpt><trkpt lat="42.75379123363975" lon="-3.8027536161569127"><ele>689.0</ele><time>2026-05-02T12:41:05Z</time></trkpt><trkpt lat="42.75368948815921" lon="-3.802784955293275"><ele>690.0</ele><time>2026-05-02T12:41:06Z</time></trkpt><trkpt lat="42.75358729381341" lon="-3.8028012172068557"><ele>691.0</ele><time>2026-05-02T12:41:07Z</time></trkpt><trkpt lat="42.75349258199784" lon="-3.8028105618525077"><ele>691.1999999999999</ele><time>2026-05-02T12:41:08Z</time></trkpt><trkpt lat="42.753393803031635" lon="-3.802817950687921"><ele>691.4</ele><time>2026-05-02T12:41:09Z</time></trkpt><trkpt lat="42.753306342809935" lon="-3.802821195655108"><ele>691.6</ele><time>2026-05-02T12:41:10Z</time></trkpt><trkpt lat="42.753205927971564" lon="-3.8028020126889177"><ele>691.8</ele><time>2026-05-02T12:41:11Z</time></trkpt><trkpt lat="42.75311094119379" lon="-3.802806343178883"><ele>692.0</ele><time>2026-05-02T12:41:12Z</time></trkpt><trkpt lat="42.753015984083305" lon="-3.8027993900573542"><ele>692.0</ele><time>2026-05-02T12:41:13Z</time></trkpt><trkpt lat="42.75291413795627" lon="-3.802803614252016"><ele>692.0</ele><time>2026-05-02T12:41:14Z</time></trkpt><trkpt lat="42.752829282141576" lon="-3.8027874345725845"><ele>692.0</ele><time>2026-05-02T12:41:15Z</time></trkpt><trkpt lat="42.752739277858375" lon="-3.802769591861467"><ele>692.0</ele><time>2026-05-02T12:41:16Z</time></trkpt><trkpt lat="42.75266035774112" lon="-3.8027230384584487"><ele>692.0</ele><time>2026-05-02T12:41:17Z</time></trkpt><trkpt lat="42.75257968029819" lon="-3.802678446518774"><ele>690.6666666666666</ele><time>2026-05-02T12:41:18Z</time></trkpt><trkpt lat="42.752509495629816" lon="-3.802622924444952"><ele>689.3333333333333</ele><time>2026-05-02T12:41:19Z</time></trkpt><trkpt lat="42.752437163827835" lon="-3.8025541403155705"><ele>688.0</ele><time>2026-05-02T12:41:20Z</time></trkpt><trkpt lat="42.752372300718285" lon="-3.8024832022356376"><ele>686.6666666666666</ele><time>2026-05-02T12:41:21Z</time></trkpt><trkpt lat="42.752311508534326" lon="-3.802408539242056"><ele>685.3333333333334</ele><time>2026-05-02T12:41:22Z</time></trkpt><trkpt lat="42.75225304381679" lon="-3.802350164773113"><ele>684.0</ele><time>2026-05-02T12:41:23Z</time></trkpt><trkpt lat="42.752200411560615" lon="-3.8023010692868184"><ele>684.0</ele><time>2026-05-02T12:41:24Z</time></trkpt><trkpt lat="42.75212076802909" lon="-3.8022102393494808"><ele>684.0</ele><time>2026-05-02T12:41:26Z</time></trkpt><trkpt lat="42.75207621119389" lon="-3.8021339259286724"><ele>684.0</ele><time>2026-05-02T12:41:29Z</time></trkpt><trkpt lat="42.7521947353088" lon="-3.80191610803179"><ele>684.0</ele><time>2026-05-02T12:41:31Z</time></trkpt><trkpt lat="42.752262697356464" lon="-3.8019152020321907"><ele>684.0</ele><time>2026-05-02T12:41:34Z</time></trkpt><trkpt lat="42.752218445764655" lon="-3.8018377968285537"><ele>683.5</ele><time>2026-05-02T12:47:26Z</time></trkpt><trkpt lat="42.75219221805763" lon="-3.8017568494116545"><ele>683.0</ele><time>2026-05-02T12:48:40Z</time></trkpt><trkpt lat="42.752129575924336" lon="-3.8016938667865356"><ele>682.5</ele><time>2026-05-02T12:48:53Z</time></trkpt><trkpt lat="42.75206983868006" lon="-3.8016496117954985"><ele>682.0</ele><time>2026-05-02T12:48:59Z</time></trkpt><trkpt lat="42.75201563445729" lon="-3.801594626365612"><ele>681.5</ele><time>2026-05-02T12:49:05Z</time></trkpt><trkpt lat="42.75210103951215" lon="-3.8015167555529423"><ele>681.0</ele><time>2026-05-02T12:49:56Z</time></trkpt><trkpt lat="42.75198082157154" lon="-3.801489325645738"><ele>681.0</ele><time>2026-05-02T14:18:02Z</time></trkpt><trkpt lat="42.751930200084814" lon="-3.801437876292051"><ele>681.0</ele><time>2026-05-02T14:18:03Z</time></trkpt><trkpt lat="42.75193094462986" lon="-3.8012966781351363"><ele>681.0</ele><time>2026-05-02T14:18:05Z</time></trkpt><trkpt lat="42.752026636659416" lon="-3.8013476382344122"><ele>681.0</ele><time>2026-05-02T14:19:29Z</time></trkpt><trkpt lat="42.75202645924221" lon="-3.801448736343347"><ele>681.0</ele><time>2026-05-02T14:19:41Z</time></trkpt><trkpt lat="42.75206924604776" lon="-3.8015422539886026"><ele>681.0</ele><time>2026-05-02T14:19:53Z</time></trkpt><trkpt lat="42.751982621019025" lon="-3.801554478432693"><ele>681.0</ele><time>2026-05-02T14:51:30.001Z</time></trkpt><trkpt lat="42.75202468354694" lon="-3.8016433671383467"><ele>681.0</ele><time>2026-05-02T14:51:34.001Z</time></trkpt><trkpt lat="42.75207013425968" lon="-3.801718406019753"><ele>681.0</ele><time>2026-05-02T14:51:40.001Z</time></trkpt><trkpt lat="42.752126281731336" lon="-3.801779447781883"><ele>681.0</ele><time>2026-05-02T14:51:45.001Z</time></trkpt><trkpt lat="42.752184469695806" lon="-3.8018324140297692"><ele>681.0</ele><time>2026-05-02T14:51:51Z</time></trkpt><trkpt lat="42.75224930068945" lon="-3.8018406570789742"><ele>681.0</ele><time>2026-05-02T14:52:31Z</time></trkpt><trkpt lat="42.75224848310827" lon="-3.801969939911905"><ele>681.5</ele><time>2026-05-02T14:54:23Z</time></trkpt><trkpt lat="42.75220593576086" lon="-3.802076144017302"><ele>682.0</ele><time>2026-05-02T14:54:25Z</time></trkpt><trkpt lat="42.75214172968179" lon="-3.8021240532806"><ele>682.5</ele><time>2026-05-02T14:54:27Z</time></trkpt><trkpt lat="42.75205350731551" lon="-3.802107134925308"><ele>683.0</ele><time>2026-05-02T14:54:29Z</time></trkpt><trkpt lat="42.751977242564195" lon="-3.802039850289969"><ele>683.5</ele><time>2026-05-02T14:54:31Z</time></trkpt><trkpt lat="42.75190436297773" lon="-3.8019575864186126"><ele>684.0</ele><time>2026-05-02T14:54:33Z</time></trkpt><trkpt lat="42.75182473492804" lon="-3.8018598984920073"><ele>684.2</ele><time>2026-05-02T14:54:35Z</time></trkpt><trkpt lat="42.751764263500675" lon="-3.8017777354306137"><ele>684.4000000000001</ele><time>2026-05-02T14:54:37Z</time></trkpt><trkpt lat="42.75169011425059" lon="-3.8017018574338732"><ele>684.6</ele><time>2026-05-02T14:54:39Z</time></trkpt><trkpt lat="42.75160293898665" lon="-3.801595363601963"><ele>684.8</ele><time>2026-05-02T14:54:41Z</time></trkpt><trkpt lat="42.75150921922713" lon="-3.801490931386585"><ele>685.0</ele><time>2026-05-02T14:54:43Z</time></trkpt><trkpt lat="42.75141866974739" lon="-3.801392373113622"><ele>685.0</ele><time>2026-05-02T14:54:45Z</time></trkpt><trkpt lat="42.75133057120289" lon="-3.8012971353140776"><ele>685.0</ele><time>2026-05-02T14:54:47Z</time></trkpt><trkpt lat="42.75124165047924" lon="-3.801203144704753"><ele>685.0</ele><time>2026-05-02T14:54:49Z</time></trkpt><trkpt lat="42.75115909907791" lon="-3.8011035783259857"><ele>685.0</ele><time>2026-05-02T14:54:51Z</time></trkpt><trkpt lat="42.75107046707756" lon="-3.8010053740498253"><ele>685.8333333333334</ele><time>2026-05-02T14:54:53Z</time></trkpt><trkpt lat="42.75101363513635" lon="-3.8009664761268502"><ele>686.6666666666667</ele><time>2026-05-02T14:54:54Z</time></trkpt><trkpt lat="42.75093617226218" lon="-3.8008933824510787"><ele>687.5</ele><time>2026-05-02T14:54:56Z</time></trkpt><trkpt lat="42.75086971079966" lon="-3.800821404651567"><ele>688.3333333333334</ele><time>2026-05-02T14:55:25.001Z</time></trkpt><trkpt lat="42.750802006087916" lon="-3.8007532848721617"><ele>689.1666666666666</ele><time>2026-05-02T14:55:27.001Z</time></trkpt><trkpt lat="42.750715017611704" lon="-3.800666565715367"><ele>690.0</ele><time>2026-05-02T14:55:29.001Z</time></trkpt><trkpt lat="42.750619850641726" lon="-3.800574019056677"><ele>690.0</ele><time>2026-05-02T14:55:31.001Z</time></trkpt><trkpt lat="42.75052255245142" lon="-3.8004810324329026"><ele>690.0</ele><time>2026-05-02T14:55:33.001Z</time></trkpt><trkpt lat="42.75046639832639" lon="-3.8004273666764017"><ele>690.0</ele><time>2026-05-02T14:55:34.001Z</time></trkpt><trkpt lat="42.75041224288865" lon="-3.800375611052456"><ele>690.0</ele><time>2026-05-02T14:55:35.001Z</time></trkpt><trkpt lat="42.75035601111726" lon="-3.8003235228190366"><ele>690.0</ele><time>2026-05-02T14:55:36.001Z</time></trkpt><trkpt lat="42.75030085537632" lon="-3.800258073978829"><ele>690.0</ele><time>2026-05-02T14:55:37.001Z</time></trkpt><trkpt lat="42.75024144716214" lon="-3.800203558000307"><ele>690.5714285714286</ele><time>2026-05-02T14:55:38.001Z</time></trkpt><trkpt lat="42.7501808937876" lon="-3.8001524934485116"><ele>691.1428571428571</ele><time>2026-05-02T14:55:39.001Z</time></trkpt><trkpt lat="42.75011757168094" lon="-3.8001018043311685"><ele>691.7142857142858</ele><time>2026-05-02T14:55:40.001Z</time></trkpt><trkpt lat="42.75005262456436" lon="-3.8000543659747748"><ele>692.2857142857142</ele><time>2026-05-02T14:55:41.001Z</time></trkpt><trkpt lat="42.749987095901695" lon="-3.8000087480524107"><ele>692.8571428571428</ele><time>2026-05-02T14:55:42.001Z</time></trkpt><trkpt lat="42.74992105185427" lon="-3.79996131996874"><ele>693.4285714285714</ele><time>2026-05-02T14:55:43.001Z</time></trkpt><trkpt lat="42.749851724403264" lon="-3.799918198120664"><ele>694.0</ele><time>2026-05-02T14:55:44.001Z</time></trkpt><trkpt lat="42.74978135804509" lon="-3.7998783769192523"><ele>694.0</ele><time>2026-05-02T14:55:45.001Z</time></trkpt><trkpt lat="42.74970967999045" lon="-3.799840954280048"><ele>694.0</ele><time>2026-05-02T14:55:46.001Z</time></trkpt><trkpt lat="42.74963564014085" lon="-3.799802708554526"><ele>694.0</ele><time>2026-05-02T14:55:47.001Z</time></trkpt><trkpt lat="42.74956087636046" lon="-3.799768849753068"><ele>694.0</ele><time>2026-05-02T14:55:48.001Z</time></trkpt><trkpt lat="42.74948511184635" lon="-3.7997379152667303"><ele>694.0</ele><time>2026-05-02T14:55:49.001Z</time></trkpt><trkpt lat="42.749406091598765" lon="-3.7997095904168874"><ele>694.0</ele><time>2026-05-02T14:55:50.001Z</time></trkpt><trkpt lat="42.74932698473715" lon="-3.7996851135126795"><ele>695.8333333333334</ele><time>2026-05-02T14:55:51.001Z</time></trkpt><trkpt lat="42.749245483564586" lon="-3.799660900829015"><ele>697.6666666666667</ele><time>2026-05-02T14:55:52.001Z</time></trkpt><trkpt lat="42.74916532983676" lon="-3.7996429680070314"><ele>699.5</ele><time>2026-05-02T14:55:53.001Z</time></trkpt><trkpt lat="42.74908052052081" lon="-3.7996283658330903"><ele>701.3333333333334</ele><time>2026-05-02T14:55:54.001Z</time></trkpt><trkpt lat="42.74899401567966" lon="-3.799617967445626"><ele>703.1666666666666</ele><time>2026-05-02T14:55:55.001Z</time></trkpt><trkpt lat="42.7489069691938" lon="-3.7996106146404456"><ele>705.0</ele><time>2026-05-02T14:55:56.001Z</time></trkpt><trkpt lat="42.74882152444417" lon="-3.799610299534362"><ele>705.0</ele><time>2026-05-02T14:55:57.001Z</time></trkpt><trkpt lat="42.748730751901974" lon="-3.7996126673706248"><ele>705.0</ele><time>2026-05-02T14:55:58.001Z</time></trkpt><trkpt lat="42.74864235138099" lon="-3.7996194473252696"><ele>705.0</ele><time>2026-05-02T14:55:59Z</time></trkpt><trkpt lat="42.74855494951915" lon="-3.7996326517448087"><ele>705.0</ele><time>2026-05-02T14:56:00Z</time></trkpt><trkpt lat="42.74846673267171" lon="-3.7996482563106224"><ele>705.0</ele><time>2026-05-02T14:56:01Z</time></trkpt><trkpt lat="42.74837650049228" lon="-3.7996691885590006"><ele>705.0</ele><time>2026-05-02T14:56:02Z</time></trkpt><trkpt lat="42.74828659064263" lon="-3.7996929863061735"><ele>704.6</ele><time>2026-05-02T14:56:03Z</time></trkpt><trkpt lat="42.748198533517844" lon="-3.7997201372094107"><ele>704.2</ele><time>2026-05-02T14:56:04Z</time></trkpt><trkpt lat="42.74810814058729" lon="-3.7997513872932265"><ele>703.8</ele><time>2026-05-02T14:56:05Z</time></trkpt><trkpt lat="42.74802012268957" lon="-3.799791914973049"><ele>703.4</ele><time>2026-05-02T14:56:06Z</time></trkpt><trkpt lat="42.74793238312338" lon="-3.7998353545628305"><ele>703.0</ele><time>2026-05-02T14:56:07Z</time></trkpt><trkpt lat="42.7478480820594" lon="-3.799884695476663"><ele>703.0</ele><time>2026-05-02T14:56:08Z</time></trkpt><trkpt lat="42.74776231252724" lon="-3.7999325217020226"><ele>703.0</ele><time>2026-05-02T14:56:09Z</time></trkpt><trkpt lat="42.747678454377024" lon="-3.799988615282372"><ele>703.0</ele><time>2026-05-02T14:56:10Z</time></trkpt><trkpt lat="42.74759298718817" lon="-3.8000453491988817"><ele>703.0</ele><time>2026-05-02T14:56:11Z</time></trkpt><trkpt lat="42.747507561137915" lon="-3.8001070983740615"><ele>703.0</ele><time>2026-05-02T14:56:12Z</time></trkpt><trkpt lat="42.74742385067154" lon="-3.8001720084079404"><ele>704.5999999999999</ele><time>2026-05-02T14:56:13Z</time></trkpt><trkpt lat="42.7473413708761" lon="-3.800241102508772"><ele>706.1999999999999</ele><time>2026-05-02T14:56:14Z</time></trkpt><trkpt lat="42.747257049565405" lon="-3.8003141642252314"><ele>707.8</ele><time>2026-05-02T14:56:15Z</time></trkpt><trkpt lat="42.747173330592254" lon="-3.8003925082363925"><ele>709.4</ele><time>2026-05-02T14:56:16Z</time></trkpt><trkpt lat="42.7470885021128" lon="-3.800463477043757"><ele>711.0</ele><time>2026-05-02T14:56:17Z</time></trkpt><trkpt lat="42.7470038035948" lon="-3.800532737433149"><ele>711.0</ele><time>2026-05-02T14:56:18Z</time></trkpt><trkpt lat="42.74691869218726" lon="-3.8006055613498604"><ele>711.0</ele><time>2026-05-02T14:56:19Z</time></trkpt><trkpt lat="42.7468396711115" lon="-3.80068588675787"><ele>711.0</ele><time>2026-05-02T14:56:20Z</time></trkpt><trkpt lat="42.74676327337879" lon="-3.800770563470107"><ele>711.0</ele><time>2026-05-02T14:56:21Z</time></trkpt><trkpt lat="42.746692190083245" lon="-3.80087326266456"><ele>711.0</ele><time>2026-05-02T14:56:22Z</time></trkpt><trkpt lat="42.74662101974232" lon="-3.8009656182703453"><ele>708.5999999999999</ele><time>2026-05-02T14:56:23Z</time></trkpt><trkpt lat="42.74655439202376" lon="-3.8010649337770634"><ele>706.2</ele><time>2026-05-02T14:56:24Z</time></trkpt><trkpt lat="42.74649570648786" lon="-3.8011709144318053"><ele>703.8</ele><time>2026-05-02T14:56:25Z</time></trkpt><trkpt lat="42.74644260961051" lon="-3.8012820010856756"><ele>701.4000000000001</ele><time>2026-05-02T14:56:26Z</time></trkpt><trkpt lat="42.74639223836953" lon="-3.801394909642951"><ele>699.0</ele><time>2026-05-02T14:56:27Z</time></trkpt><trkpt lat="42.74634109737764" lon="-3.8015154474114414"><ele>699.0</ele><time>2026-05-02T14:56:28Z</time></trkpt><trkpt lat="42.74629653155989" lon="-3.8016391721439593"><ele>699.0</ele><time>2026-05-02T14:56:29Z</time></trkpt><trkpt lat="42.746261582237494" lon="-3.8017639807029258"><ele>699.0</ele><time>2026-05-02T14:56:30Z</time></trkpt><trkpt lat="42.7462310344238" lon="-3.801892012632375"><ele>699.0</ele><time>2026-05-02T14:56:31Z</time></trkpt><trkpt lat="42.746206733935885" lon="-3.802021580255705"><ele>699.0</ele><time>2026-05-02T14:56:32Z</time></trkpt><trkpt lat="42.746183029408556" lon="-3.8021524510563385"><ele>699.8000000000001</ele><time>2026-05-02T14:56:33Z</time></trkpt><trkpt lat="42.746165700727936" lon="-3.802288032858696"><ele>700.6</ele><time>2026-05-02T14:56:34Z</time></trkpt><trkpt lat="42.74615146014943" lon="-3.802421811205807"><ele>701.4</ele><time>2026-05-02T14:56:35Z</time></trkpt><trkpt lat="42.746139333423066" lon="-3.8025609488541194"><ele>702.2</ele><time>2026-05-02T14:56:36Z</time></trkpt><trkpt lat="42.74612775929637" lon="-3.8026981080498006"><ele>703.0</ele><time>2026-05-02T14:56:37Z</time></trkpt><trkpt lat="42.746115110501144" lon="-3.8028350146090992"><ele>703.0</ele><time>2026-05-02T14:56:38Z</time></trkpt><trkpt lat="42.74610423985088" lon="-3.802969612862522"><ele>703.0</ele><time>2026-05-02T14:56:39Z</time></trkpt><trkpt lat="42.74609402562997" lon="-3.8031036894373496"><ele>703.0</ele><time>2026-05-02T14:56:40Z</time></trkpt><trkpt lat="42.746083740547476" lon="-3.803241766273388"><ele>703.0</ele><time>2026-05-02T14:56:41Z</time></trkpt><trkpt lat="42.746074077779596" lon="-3.80337854822479"><ele>703.0</ele><time>2026-05-02T14:56:42Z</time></trkpt><trkpt lat="42.74606668863275" lon="-3.8035156203422495"><ele>705.5999999999999</ele><time>2026-05-02T14:56:43Z</time></trkpt><trkpt lat="42.74605860424262" lon="-3.8036535256098847"><ele>708.1999999999999</ele><time>2026-05-02T14:56:44Z</time></trkpt><trkpt lat="42.74604618535332" lon="-3.803789523687491"><ele>710.8</ele><time>2026-05-02T14:56:45Z</time></trkpt><trkpt lat="42.746032741441816" lon="-3.803930003601928"><ele>713.4</ele><time>2026-05-02T14:56:46Z</time></trkpt><trkpt lat="42.746012955763504" lon="-3.8040665840174523"><ele>716.0</ele><time>2026-05-02T14:56:47Z</time></trkpt><trkpt lat="42.745987537304224" lon="-3.804203455663664"><ele>713.1999999999999</ele><time>2026-05-02T14:56:48Z</time></trkpt><trkpt lat="42.7459529082686" lon="-3.8043332859200505"><ele>710.4</ele><time>2026-05-02T14:56:49Z</time></trkpt><trkpt lat="42.74590575572176" lon="-3.8044537147438175"><ele>707.6</ele><time>2026-05-02T14:56:50Z</time></trkpt><trkpt lat="42.74585927684013" lon="-3.8045842512818644"><ele>704.8</ele><time>2026-05-02T14:56:51Z</time></trkpt><trkpt lat="42.74581407767647" lon="-3.804700840024086"><ele>702.0</ele><time>2026-05-02T14:56:52Z</time></trkpt><trkpt lat="42.745769217444796" lon="-3.804824931844189"><ele>702.0</ele><time>2026-05-02T14:56:53Z</time></trkpt><trkpt lat="42.745715135989954" lon="-3.8049490076040478"><ele>702.0</ele><time>2026-05-02T14:56:54Z</time></trkpt><trkpt lat="42.74565766002555" lon="-3.805068492073032"><ele>702.0</ele><time>2026-05-02T14:56:55Z</time></trkpt><trkpt lat="42.745604645001364" lon="-3.805187261186222"><ele>702.0</ele><time>2026-05-02T14:56:56Z</time></trkpt><trkpt lat="42.745553412858" lon="-3.805304814600276"><ele>702.0</ele><time>2026-05-02T14:56:57Z</time></trkpt><trkpt lat="42.745500800953714" lon="-3.805423999844438"><ele>705.8</ele><time>2026-05-02T14:56:58Z</time></trkpt><trkpt lat="42.74544896958099" lon="-3.805542384918699"><ele>709.6</ele><time>2026-05-02T14:56:59Z</time></trkpt><trkpt lat="42.7453948114196" lon="-3.805661356225667"><ele>713.4</ele><time>2026-05-02T14:57:00Z</time></trkpt><trkpt lat="42.74533825237715" lon="-3.8057723842723523"><ele>717.1999999999999</ele><time>2026-05-02T14:57:01Z</time></trkpt><trkpt lat="42.74527917307959" lon="-3.805879523209541"><ele>721.0</ele><time>2026-05-02T14:57:02.001Z</time></trkpt><trkpt lat="42.74521980076417" lon="-3.8059859317102043"><ele>717.5999999999999</ele><time>2026-05-02T14:57:03.001Z</time></trkpt><trkpt lat="42.745154607690225" lon="-3.806085535550349"><ele>714.2</ele><time>2026-05-02T14:57:04.001Z</time></trkpt><trkpt lat="42.74508838680217" lon="-3.806182244058048"><ele>710.8</ele><time>2026-05-02T14:57:05.001Z</time></trkpt><trkpt lat="42.745015910565584" lon="-3.806270282596817"><ele>707.4000000000001</ele><time>2026-05-02T14:57:06.001Z</time></trkpt><trkpt lat="42.74494183022336" lon="-3.806357044775046"><ele>704.0</ele><time>2026-05-02T14:57:07.001Z</time></trkpt><trkpt lat="42.74486604787676" lon="-3.8064367622181"><ele>704.0</ele><time>2026-05-02T14:57:08.001Z</time></trkpt><trkpt lat="42.74478406445017" lon="-3.806511508210538"><ele>704.0</ele><time>2026-05-02T14:57:09.001Z</time></trkpt><trkpt lat="42.74470227859075" lon="-3.806579450097549"><ele>704.0</ele><time>2026-05-02T14:57:10.001Z</time></trkpt><trkpt lat="42.744617093962674" lon="-3.8066429709551146"><ele>704.0</ele><time>2026-05-02T14:57:11.001Z</time></trkpt><trkpt lat="42.74452682616014" lon="-3.806700078341343"><ele>704.0</ele><time>2026-05-02T14:57:12.001Z</time></trkpt><trkpt lat="42.7444344290231" lon="-3.8067503529311435"><ele>701.2</ele><time>2026-05-02T14:57:13.001Z</time></trkpt><trkpt lat="42.744342382949824" lon="-3.806797743224807"><ele>698.4000000000001</ele><time>2026-05-02T14:57:14.001Z</time></trkpt><trkpt lat="42.744238689724156" lon="-3.806828470058969"><ele>695.6</ele><time>2026-05-02T14:57:15.001Z</time></trkpt><trkpt lat="42.744132412145056" lon="-3.806854963564902"><ele>692.8</ele><time>2026-05-02T14:57:16.001Z</time></trkpt><trkpt lat="42.74402752295406" lon="-3.8068769398427853"><ele>690.0</ele><time>2026-05-02T14:57:17.001Z</time></trkpt><trkpt lat="42.74392458851235" lon="-3.806893296985407"><ele>696.8</ele><time>2026-05-02T14:57:18.001Z</time></trkpt><trkpt lat="42.74381886542201" lon="-3.8069024336422097"><ele>703.6</ele><time>2026-05-02T14:57:19.001Z</time></trkpt><trkpt lat="42.74371422453481" lon="-3.806897039720835"><ele>710.4000000000001</ele><time>2026-05-02T14:57:20.001Z</time></trkpt><trkpt lat="42.74360892266004" lon="-3.8068909204052273"><ele>717.2</ele><time>2026-05-02T14:57:21.001Z</time></trkpt><trkpt lat="42.743504366248594" lon="-3.806872746651879"><ele>724.0</ele><time>2026-05-02T14:57:22.001Z</time></trkpt><trkpt lat="42.74340318508307" lon="-3.8068437629310474"><ele>717.8000000000001</ele><time>2026-05-02T14:57:23.001Z</time></trkpt><trkpt lat="42.743304314194575" lon="-3.806807583906984"><ele>711.6</ele><time>2026-05-02T14:57:24.001Z</time></trkpt><trkpt lat="42.74320426860588" lon="-3.806764446184827"><ele>705.4</ele><time>2026-05-02T14:57:25.001Z</time></trkpt><trkpt lat="42.74310561763392" lon="-3.8067097483170067"><ele>699.2</ele><time>2026-05-02T14:57:26.001Z</time></trkpt><trkpt lat="42.74301021315099" lon="-3.8066496860274692"><ele>693.0</ele><time>2026-05-02T14:57:27.001Z</time></trkpt><trkpt lat="42.74291511831294" lon="-3.806578674918223"><ele>693.0</ele><time>2026-05-02T14:57:28.001Z</time></trkpt><trkpt lat="42.74282503839218" lon="-3.8065076342924256"><ele>693.0</ele><time>2026-05-02T14:57:29.001Z</time></trkpt><trkpt lat="42.742733435401895" lon="-3.8064316089945396"><ele>693.0</ele><time>2026-05-02T14:57:30.001Z</time></trkpt><trkpt lat="42.74264461646553" lon="-3.806354213943093"><ele>693.0</ele><time>2026-05-02T14:57:31.001Z</time></trkpt><trkpt lat="42.74255766907992" lon="-3.8062781215430275"><ele>693.0</ele><time>2026-05-02T14:57:32.001Z</time></trkpt><trkpt lat="42.74246970223828" lon="-3.806201322325538"><ele>692.2</ele><time>2026-05-02T14:57:33.001Z</time></trkpt><trkpt lat="42.74238003838282" lon="-3.8061224074096396"><ele>691.4</ele><time>2026-05-02T14:57:34.001Z</time></trkpt><trkpt lat="42.74229047271066" lon="-3.806044814438257"><ele>690.6</ele><time>2026-05-02T14:57:35.001Z</time></trkpt><trkpt lat="42.74220127818659" lon="-3.8059690374861317"><ele>689.8000000000001</ele><time>2026-05-02T14:57:36.001Z</time></trkpt><trkpt lat="42.742112788656264" lon="-3.805890195372985"><ele>689.0</ele><time>2026-05-02T14:57:37.001Z</time></trkpt><trkpt lat="42.74202535426073" lon="-3.8058154230391184"><ele>689.0</ele><time>2026-05-02T14:57:38.001Z</time></trkpt><trkpt lat="42.74193873168421" lon="-3.8057345254838206"><ele>689.0</ele><time>2026-05-02T14:57:39.001Z</time></trkpt><trkpt lat="42.7418507496214" lon="-3.805653107556787"><ele>689.0</ele><time>2026-05-02T14:57:40.001Z</time></trkpt><trkpt lat="42.741762159068024" lon="-3.805575250891563"><ele>689.0</ele><time>2026-05-02T14:57:41.001Z</time></trkpt><trkpt lat="42.741676015364966" lon="-3.805499678748708"><ele>689.0</ele><time>2026-05-02T14:57:42.001Z</time></trkpt><trkpt lat="42.741589711870816" lon="-3.805423042802693"><ele>689.4000000000001</ele><time>2026-05-02T14:57:43.001Z</time></trkpt><trkpt lat="42.74150569605588" lon="-3.8053448825820633"><ele>689.8</ele><time>2026-05-02T14:57:44.001Z</time></trkpt><trkpt lat="42.741418499339424" lon="-3.8052671312118305"><ele>690.2</ele><time>2026-05-02T14:57:45.001Z</time></trkpt><trkpt lat="42.74133168908027" lon="-3.805187620867782"><ele>690.5999999999999</ele><time>2026-05-02T14:57:46.001Z</time></trkpt><trkpt lat="42.74124677232837" lon="-3.8051075828874987"><ele>691.0</ele><time>2026-05-02T14:57:47.001Z</time></trkpt><trkpt lat="42.741164037849465" lon="-3.8050276444795377"><ele>691.0</ele><time>2026-05-02T14:57:48.001Z</time></trkpt><trkpt lat="42.74108155500357" lon="-3.8049422532061454"><ele>691.0</ele><time>2026-05-02T14:57:49.001Z</time></trkpt><trkpt lat="42.74100473295978" lon="-3.8048502937653126"><ele>691.0</ele><time>2026-05-02T14:57:50.001Z</time></trkpt><trkpt lat="42.740928454104925" lon="-3.8047551796582773"><ele>691.0</ele><time>2026-05-02T14:57:51.001Z</time></trkpt><trkpt lat="42.74085878646875" lon="-3.8046526501862328"><ele>691.0</ele><time>2026-05-02T14:57:52.001Z</time></trkpt><trkpt lat="42.74079342802261" lon="-3.804542795285433"><ele>691.4</ele><time>2026-05-02T14:57:53.001Z</time></trkpt><trkpt lat="42.740731274552914" lon="-3.804427643777443"><ele>691.8</ele><time>2026-05-02T14:57:54.001Z</time></trkpt><trkpt lat="42.74066962052931" lon="-3.8043129882515974"><ele>692.1999999999999</ele><time>2026-05-02T14:57:55.001Z</time></trkpt><trkpt lat="42.740607845559545" lon="-3.8042004844980304"><ele>692.5999999999999</ele><time>2026-05-02T14:57:56.001Z</time></trkpt><trkpt lat="42.740543683530404" lon="-3.804083263387457"><ele>693.0</ele><time>2026-05-02T14:57:57.001Z</time></trkpt><trkpt lat="42.740483140080116" lon="-3.8039684640546154"><ele>693.0</ele><time>2026-05-02T14:57:58.001Z</time></trkpt><trkpt lat="42.740422261661344" lon="-3.803851720438634"><ele>693.0</ele><time>2026-05-02T14:57:59.001Z</time></trkpt><trkpt lat="42.740363013859906" lon="-3.803735450696352"><ele>693.0</ele><time>2026-05-02T14:58:00.001Z</time></trkpt><trkpt lat="42.740301866328394" lon="-3.803620893113511"><ele>693.0</ele><time>2026-05-02T14:58:01.001Z</time></trkpt><trkpt lat="42.740241861454614" lon="-3.803507402265308"><ele>693.0</ele><time>2026-05-02T14:58:02.001Z</time></trkpt><trkpt lat="42.74018260506446" lon="-3.8033901103260432"><ele>696.4</ele><time>2026-05-02T14:58:03.001Z</time></trkpt><trkpt lat="42.74012305995436" lon="-3.8032756999049226"><ele>699.8</ele><time>2026-05-02T14:58:04.001Z</time></trkpt><trkpt lat="42.740065937395094" lon="-3.8031598879748207"><ele>703.2</ele><time>2026-05-02T14:58:05Z</time></trkpt><trkpt lat="42.740008598618154" lon="-3.8030451030870758"><ele>706.6</ele><time>2026-05-02T14:58:06Z</time></trkpt><trkpt lat="42.73995394176294" lon="-3.802925545728052"><ele>710.0</ele><time>2026-05-02T14:58:07Z</time></trkpt><trkpt lat="42.73989860726043" lon="-3.80280751223938"><ele>710.0</ele><time>2026-05-02T14:58:08Z</time></trkpt><trkpt lat="42.73984483272016" lon="-3.8026888342362515"><ele>710.0</ele><time>2026-05-02T14:58:09Z</time></trkpt><trkpt lat="42.739788516536755" lon="-3.8025698289593577"><ele>710.0</ele><time>2026-05-02T14:58:10Z</time></trkpt><trkpt lat="42.739734479897216" lon="-3.802446390271648"><ele>710.0</ele><time>2026-05-02T14:58:11Z</time></trkpt><trkpt lat="42.739685832644746" lon="-3.8023214505338414"><ele>710.0</ele><time>2026-05-02T14:58:12Z</time></trkpt><trkpt lat="42.73963968199806" lon="-3.8021942863810554"><ele>706.8</ele><time>2026-05-02T14:58:13Z</time></trkpt><trkpt lat="42.739593502765" lon="-3.8020652712234013"><ele>703.6</ele><time>2026-05-02T14:58:14Z</time></trkpt><trkpt lat="42.73954751154093" lon="-3.8019377807799963"><ele>700.4000000000001</ele><time>2026-05-02T14:58:15Z</time></trkpt><trkpt lat="42.739505866551895" lon="-3.8018078799645085"><ele>697.2</ele><time>2026-05-02T14:58:16Z</time></trkpt><trkpt lat="42.739463440512836" lon="-3.8016789788255894"><ele>694.0</ele><time>2026-05-02T14:58:17Z</time></trkpt><trkpt lat="42.739421568020774" lon="-3.801549431524655"><ele>694.2</ele><time>2026-05-02T14:58:18Z</time></trkpt><trkpt lat="42.73937875906895" lon="-3.8014195674938085"><ele>694.4000000000001</ele><time>2026-05-02T14:58:19Z</time></trkpt><trkpt lat="42.73933882240653" lon="-3.801292410144723"><ele>694.6</ele><time>2026-05-02T14:58:20Z</time></trkpt><trkpt lat="42.739294881414416" lon="-3.801175997731402"><ele>694.8</ele><time>2026-05-02T14:58:21Z</time></trkpt><trkpt lat="42.739253880324334" lon="-3.801065279659069"><ele>695.0</ele><time>2026-05-02T14:58:22Z</time></trkpt><trkpt lat="42.739205913816775" lon="-3.8009703529196797"><ele>695.0</ele><time>2026-05-02T14:58:23Z</time></trkpt><trkpt lat="42.73915600503978" lon="-3.80087929943194"><ele>695.0</ele><time>2026-05-02T14:58:24Z</time></trkpt><trkpt lat="42.73910588363504" lon="-3.8007917839518397"><ele>695.0</ele><time>2026-05-02T14:58:25Z</time></trkpt><trkpt lat="42.7390518208492" lon="-3.8007162987739123"><ele>695.0</ele><time>2026-05-02T14:58:26Z</time></trkpt><trkpt lat="42.73899493951393" lon="-3.8006435293802854"><ele>695.0</ele><time>2026-05-02T14:58:27Z</time></trkpt><trkpt lat="42.738939672620454" lon="-3.8005702736039852"><ele>695.0</ele><time>2026-05-02T14:58:28Z</time></trkpt><trkpt lat="42.73887647494519" lon="-3.8005084046193303"><ele>695.0</ele><time>2026-05-02T14:58:29Z</time></trkpt><trkpt lat="42.73881056408956" lon="-3.800450032071363"><ele>695.0</ele><time>2026-05-02T14:58:30Z</time></trkpt><trkpt lat="42.73874181953661" lon="-3.800401986127143"><ele>695.0</ele><time>2026-05-02T14:58:31Z</time></trkpt><trkpt lat="42.73866938401961" lon="-3.800356911622435"><ele>695.0</ele><time>2026-05-02T14:58:32Z</time></trkpt><trkpt lat="42.738598562374705" lon="-3.8003089609039136"><ele>695.0</ele><time>2026-05-02T14:58:33Z</time></trkpt><trkpt lat="42.738524136524354" lon="-3.8002692550950266"><ele>695.0</ele><time>2026-05-02T14:58:34Z</time></trkpt><trkpt lat="42.738445704269104" lon="-3.8002367100006222"><ele>697.0</ele><time>2026-05-02T14:58:35Z</time></trkpt><trkpt lat="42.7383657726294" lon="-3.8002109565919215"><ele>699.0</ele><time>2026-05-02T14:58:36Z</time></trkpt><trkpt lat="42.738281442425354" lon="-3.800194641076142"><ele>701.0</ele><time>2026-05-02T14:58:37Z</time></trkpt><trkpt lat="42.738197539871436" lon="-3.80018692317147"><ele>703.0</ele><time>2026-05-02T14:58:38Z</time></trkpt><trkpt lat="42.73811425645307" lon="-3.8001882702598455"><ele>705.0</ele><time>2026-05-02T14:58:39Z</time></trkpt><trkpt lat="42.738030619304496" lon="-3.8001985703724146"><ele>707.0</ele><time>2026-05-02T14:58:40Z</time></trkpt><trkpt lat="42.7379452396015" lon="-3.8002047884655124"><ele>707.0</ele><time>2026-05-02T14:58:41Z</time></trkpt><trkpt lat="42.73785949039327" lon="-3.800218109949785"><ele>707.0</ele><time>2026-05-02T14:58:42Z</time></trkpt><trkpt lat="42.737772286736714" lon="-3.8002450518198083"><ele>707.0</ele><time>2026-05-02T14:58:43Z</time></trkpt><trkpt lat="42.73768624684888" lon="-3.8002764296258422"><ele>707.0</ele><time>2026-05-02T14:58:44Z</time></trkpt><trkpt lat="42.73759957440542" lon="-3.800315209137072"><ele>707.0</ele><time>2026-05-02T14:58:45Z</time></trkpt><trkpt lat="42.737516585421005" lon="-3.8003572786508726"><ele>707.0</ele><time>2026-05-02T14:58:46Z</time></trkpt><trkpt lat="42.73743356307874" lon="-3.800404397147561"><ele>706.0</ele><time>2026-05-02T14:58:47Z</time></trkpt><trkpt lat="42.73735150332579" lon="-3.8004590142297454"><ele>705.0</ele><time>2026-05-02T14:58:48Z</time></trkpt><trkpt lat="42.73726569747902" lon="-3.800504641907485"><ele>704.0</ele><time>2026-05-02T14:58:49Z</time></trkpt><trkpt lat="42.73718065082879" lon="-3.800552521286147"><ele>703.0</ele><time>2026-05-02T14:58:50Z</time></trkpt><trkpt lat="42.73709453866932" lon="-3.8005998079525405"><ele>702.0</ele><time>2026-05-02T14:58:51Z</time></trkpt><trkpt lat="42.73700855303934" lon="-3.800647231914568"><ele>702.0</ele><time>2026-05-02T14:58:52Z</time></trkpt><trkpt lat="42.73692708896001" lon="-3.80070339014307"><ele>702.0</ele><time>2026-05-02T14:58:53Z</time></trkpt><trkpt lat="42.73684330631212" lon="-3.800747321471102"><ele>702.0</ele><time>2026-05-02T14:58:54Z</time></trkpt><trkpt lat="42.73676250375857" lon="-3.8007972684272664"><ele>702.0</ele><time>2026-05-02T14:58:55Z</time></trkpt><trkpt lat="42.73668192204467" lon="-3.8008549467477586"><ele>702.0</ele><time>2026-05-02T14:58:56Z</time></trkpt><trkpt lat="42.73660222262482" lon="-3.8009202342061874"><ele>701.6</ele><time>2026-05-02T14:58:57Z</time></trkpt><trkpt lat="42.73652964906718" lon="-3.8009962490193625"><ele>701.2</ele><time>2026-05-02T14:58:58Z</time></trkpt><trkpt lat="42.73646271110272" lon="-3.80107474695672"><ele>700.8</ele><time>2026-05-02T14:58:59Z</time></trkpt><trkpt lat="42.736395572721925" lon="-3.8011577360869917"><ele>700.4</ele><time>2026-05-02T14:59:00.001Z</time></trkpt><trkpt lat="42.73634302103299" lon="-3.8012551772595247"><ele>700.0</ele><time>2026-05-02T14:59:01.001Z</time></trkpt><trkpt lat="42.736302255255346" lon="-3.8013706501755675"><ele>700.0</ele><time>2026-05-02T14:59:02.001Z</time></trkpt><trkpt lat="42.73624082371477" lon="-3.801465492100299"><ele>700.0</ele><time>2026-05-02T14:59:03.001Z</time></trkpt><trkpt lat="42.73619571032871" lon="-3.8015783007036585"><ele>700.0</ele><time>2026-05-02T14:59:04.001Z</time></trkpt><trkpt lat="42.736148841344765" lon="-3.801690431493748"><ele>700.0</ele><time>2026-05-02T14:59:05.001Z</time></trkpt><trkpt lat="42.73610290160987" lon="-3.8018030208424456"><ele>700.0</ele><time>2026-05-02T14:59:06.001Z</time></trkpt><trkpt lat="42.73605388671449" lon="-3.801915245453934"><ele>699.4</ele><time>2026-05-02T14:59:07.001Z</time></trkpt><trkpt lat="42.73600406237929" lon="-3.802022803325284"><ele>698.8</ele><time>2026-05-02T14:59:08.001Z</time></trkpt><trkpt lat="42.73595733772934" lon="-3.8021294198904636"><ele>698.2</ele><time>2026-05-02T14:59:09.001Z</time></trkpt><trkpt lat="42.73590447349661" lon="-3.8022403224846206"><ele>697.6</ele><time>2026-05-02T14:59:10.001Z</time></trkpt><trkpt lat="42.73584763039014" lon="-3.8023508436872078"><ele>697.0</ele><time>2026-05-02T14:59:11.001Z</time></trkpt><trkpt lat="42.735788712753696" lon="-3.8024499364927618"><ele>697.0</ele><time>2026-05-02T14:59:12.001Z</time></trkpt><trkpt lat="42.735723162091325" lon="-3.8025480832446985"><ele>697.0</ele><time>2026-05-02T14:59:13.001Z</time></trkpt><trkpt lat="42.73565667659344" lon="-3.802644102566295"><ele>697.0</ele><time>2026-05-02T14:59:14.001Z</time></trkpt><trkpt lat="42.73558574578225" lon="-3.8027301365616477"><ele>697.0</ele><time>2026-05-02T14:59:15.001Z</time></trkpt><trkpt lat="42.735509974371276" lon="-3.802822633385608"><ele>697.0</ele><time>2026-05-02T14:59:16.001Z</time></trkpt><trkpt lat="42.735442047294356" lon="-3.802915729749255"><ele>697.6</ele><time>2026-05-02T14:59:17.001Z</time></trkpt><trkpt lat="42.73536262976646" lon="-3.8029978330409677"><ele>698.2</ele><time>2026-05-02T14:59:18.001Z</time></trkpt><trkpt lat="42.735286077894955" lon="-3.8030790479254635"><ele>698.8</ele><time>2026-05-02T14:59:19.001Z</time></trkpt><trkpt lat="42.73520673861649" lon="-3.803161940855253"><ele>699.4</ele><time>2026-05-02T14:59:20.001Z</time></trkpt><trkpt lat="42.73512567339992" lon="-3.8032398522385127"><ele>700.0</ele><time>2026-05-02T14:59:21.001Z</time></trkpt><trkpt lat="42.7350489177572" lon="-3.803317251625752"><ele>700.0</ele><time>2026-05-02T14:59:22.001Z</time></trkpt><trkpt lat="42.73496811731265" lon="-3.803395901521091"><ele>700.0</ele><time>2026-05-02T14:59:23.001Z</time></trkpt><trkpt lat="42.734889103309705" lon="-3.803473169756497"><ele>700.0</ele><time>2026-05-02T14:59:24.001Z</time></trkpt><trkpt lat="42.73480797520611" lon="-3.803536241710076"><ele>700.0</ele><time>2026-05-02T14:59:25.001Z</time></trkpt><trkpt lat="42.73471936721334" lon="-3.803599382125466"><ele>700.0</ele><time>2026-05-02T14:59:26.001Z</time></trkpt><trkpt lat="42.734636077879415" lon="-3.803655940204563"><ele>700.8</ele><time>2026-05-02T14:59:27.001Z</time></trkpt><trkpt lat="42.73454663984731" lon="-3.803706209083026"><ele>701.6</ele><time>2026-05-02T14:59:28.001Z</time></trkpt><trkpt lat="42.73445272298667" lon="-3.803750750955696"><ele>702.4000000000001</ele><time>2026-05-02T14:59:29.001Z</time></trkpt><trkpt lat="42.734358472051355" lon="-3.8037888935463102"><ele>703.2</ele><time>2026-05-02T14:59:30.001Z</time></trkpt><trkpt lat="42.734259292137374" lon="-3.8038193530061593"><ele>704.0</ele><time>2026-05-02T14:59:31.001Z</time></trkpt><trkpt lat="42.73415986396479" lon="-3.8038391251988957"><ele>704.0</ele><time>2026-05-02T14:59:32.001Z</time></trkpt><trkpt lat="42.73405927320929" lon="-3.803854545836629"><ele>704.0</ele><time>2026-05-02T14:59:33.001Z</time></trkpt><trkpt lat="42.733958937076956" lon="-3.80386331050637"><ele>704.0</ele><time>2026-05-02T14:59:34.001Z</time></trkpt><trkpt lat="42.73385776147115" lon="-3.8038673531247897"><ele>704.0</ele><time>2026-05-02T14:59:35.001Z</time></trkpt><trkpt lat="42.73375047849494" lon="-3.8038583383524456"><ele>704.0</ele><time>2026-05-02T14:59:36.001Z</time></trkpt><trkpt lat="42.73364442997217" lon="-3.8038520904265485"><ele>702.6</ele><time>2026-05-02T14:59:37.001Z</time></trkpt><trkpt lat="42.73354715062899" lon="-3.8038551542788284"><ele>701.2</ele><time>2026-05-02T14:59:38.001Z</time></trkpt><trkpt lat="42.733434401078874" lon="-3.8038446682791314"><ele>699.8000000000001</ele><time>2026-05-02T14:59:39.001Z</time></trkpt><trkpt lat="42.733324082743714" lon="-3.8038361270438386"><ele>698.4000000000001</ele><time>2026-05-02T14:59:40.001Z</time></trkpt><trkpt lat="42.733219524607854" lon="-3.803828587321436"><ele>697.0</ele><time>2026-05-02T14:59:41.001Z</time></trkpt><trkpt lat="42.733111509719215" lon="-3.803824637015458"><ele>697.0</ele><time>2026-05-02T14:59:42.001Z</time></trkpt><trkpt lat="42.73300727543567" lon="-3.8038159757678187"><ele>697.0</ele><time>2026-05-02T14:59:43.001Z</time></trkpt><trkpt lat="42.732901434412106" lon="-3.803810001689203"><ele>697.0</ele><time>2026-05-02T14:59:44.001Z</time></trkpt><trkpt lat="42.73279530645803" lon="-3.8038017790422156"><ele>697.0</ele><time>2026-05-02T14:59:45.001Z</time></trkpt><trkpt lat="42.73269159001828" lon="-3.8037998166495766"><ele>697.0</ele><time>2026-05-02T14:59:46.001Z</time></trkpt><trkpt lat="42.73258322957281" lon="-3.80378912384956"><ele>696.6</ele><time>2026-05-02T14:59:47.001Z</time></trkpt><trkpt lat="42.73247691521574" lon="-3.8037792731762647"><ele>696.2</ele><time>2026-05-02T14:59:48.001Z</time></trkpt><trkpt lat="42.73237576187262" lon="-3.8037702178524007"><ele>695.8</ele><time>2026-05-02T14:59:49.001Z</time></trkpt><trkpt lat="42.73227354340831" lon="-3.8037549913588524"><ele>695.4</ele><time>2026-05-02T14:59:50.001Z</time></trkpt><trkpt lat="42.73217182999663" lon="-3.8037387254192976"><ele>695.0</ele><time>2026-05-02T14:59:51.001Z</time></trkpt><trkpt lat="42.732072149900716" lon="-3.803710271518142"><ele>695.0</ele><time>2026-05-02T14:59:52.001Z</time></trkpt><trkpt lat="42.73197348958021" lon="-3.8036755728142713"><ele>695.0</ele><time>2026-05-02T14:59:53.001Z</time></trkpt><trkpt lat="42.73187564751025" lon="-3.803621852645511"><ele>695.0</ele><time>2026-05-02T14:59:54.001Z</time></trkpt><trkpt lat="42.731783793438495" lon="-3.8035595311926667"><ele>695.0</ele><time>2026-05-02T14:59:55.001Z</time></trkpt><trkpt lat="42.731692420367864" lon="-3.8034883248173057"><ele>695.0</ele><time>2026-05-02T14:59:56.001Z</time></trkpt><trkpt lat="42.73160892660168" lon="-3.8034074546029606"><ele>696.0</ele><time>2026-05-02T14:59:57.001Z</time></trkpt><trkpt lat="42.731536779328096" lon="-3.8033119152194947"><ele>697.0</ele><time>2026-05-02T14:59:58.001Z</time></trkpt><trkpt lat="42.731464669212116" lon="-3.8032137057434943"><ele>698.0</ele><time>2026-05-02T14:59:59.001Z</time></trkpt><trkpt lat="42.73139779895739" lon="-3.8031091588901695"><ele>699.0</ele><time>2026-05-02T15:00:00.001Z</time></trkpt><trkpt lat="42.731334979962746" lon="-3.8030010912585905"><ele>700.0</ele><time>2026-05-02T15:00:01.001Z</time></trkpt><trkpt lat="42.731278029606244" lon="-3.8028819430455587"><ele>700.0</ele><time>2026-05-02T15:00:02.001Z</time></trkpt><trkpt lat="42.73122804993076" lon="-3.802761343593089"><ele>700.0</ele><time>2026-05-02T15:00:03.001Z</time></trkpt><trkpt lat="42.73117260339475" lon="-3.8026392362123733"><ele>700.0</ele><time>2026-05-02T15:00:04.001Z</time></trkpt><trkpt lat="42.731126655998324" lon="-3.802509417196019"><ele>700.0</ele><time>2026-05-02T15:00:05.001Z</time></trkpt><trkpt lat="42.731078934486554" lon="-3.8023872243972687"><ele>700.0</ele><time>2026-05-02T15:00:06.001Z</time></trkpt><trkpt lat="42.73103382907518" lon="-3.8022530048395433"><ele>700.2</ele><time>2026-05-02T15:00:07.001Z</time></trkpt><trkpt lat="42.73097242429169" lon="-3.802140074703369"><ele>700.4</ele><time>2026-05-02T15:00:08.001Z</time></trkpt><trkpt lat="42.73092442596337" lon="-3.802016069239624"><ele>700.5999999999999</ele><time>2026-05-02T15:00:09.001Z</time></trkpt><trkpt lat="42.73087665355191" lon="-3.8018916645322562"><ele>700.8</ele><time>2026-05-02T15:00:10.001Z</time></trkpt><trkpt lat="42.730825777156554" lon="-3.8017647016504292"><ele>701.0</ele><time>2026-05-02T15:00:11Z</time></trkpt><trkpt lat="42.730774040173905" lon="-3.8016498619243198"><ele>701.0</ele><time>2026-05-02T15:00:12Z</time></trkpt><trkpt lat="42.730725214935255" lon="-3.8015244827943206"><ele>701.0</ele><time>2026-05-02T15:00:13Z</time></trkpt><trkpt lat="42.73067650115793" lon="-3.8014035536192345"><ele>701.0</ele><time>2026-05-02T15:00:14Z</time></trkpt><trkpt lat="42.730628307869424" lon="-3.8012798837493698"><ele>701.0</ele><time>2026-05-02T15:00:15Z</time></trkpt><trkpt lat="42.73057979744859" lon="-3.8011617901076056"><ele>701.0</ele><time>2026-05-02T15:00:16Z</time></trkpt><trkpt lat="42.73052009738457" lon="-3.8010513835170054"><ele>703.1999999999999</ele><time>2026-05-02T15:00:17Z</time></trkpt><trkpt lat="42.73047223616961" lon="-3.8009296114278914"><ele>705.4</ele><time>2026-05-02T15:00:18Z</time></trkpt><trkpt lat="42.730419009655215" lon="-3.80080909608469"><ele>707.6</ele><time>2026-05-02T15:00:19Z</time></trkpt><trkpt lat="42.730369311723805" lon="-3.800689496181681"><ele>709.8</ele><time>2026-05-02T15:00:20Z</time></trkpt><trkpt lat="42.730315441295964" lon="-3.800573823559204"><ele>712.0</ele><time>2026-05-02T15:00:21Z</time></trkpt><trkpt lat="42.73025825466061" lon="-3.800457898472762"><ele>709.8</ele><time>2026-05-02T15:00:22Z</time></trkpt><trkpt lat="42.73019597021255" lon="-3.8003440054451567"><ele>707.6</ele><time>2026-05-02T15:00:23Z</time></trkpt><trkpt lat="42.730140520151885" lon="-3.800231229999596"><ele>705.4</ele><time>2026-05-02T15:00:24Z</time></trkpt><trkpt lat="42.73007328960225" lon="-3.8001231504565243"><ele>703.1999999999999</ele><time>2026-05-02T15:00:25Z</time></trkpt><trkpt lat="42.73000488943005" lon="-3.8000196516797144"><ele>701.0</ele><time>2026-05-02T15:00:26Z</time></trkpt><trkpt lat="42.72993413228264" lon="-3.7999190434990053"><ele>701.0</ele><time>2026-05-02T15:00:27Z</time></trkpt><trkpt lat="42.72986535176727" lon="-3.799813254674221"><ele>701.0</ele><time>2026-05-02T15:00:28Z</time></trkpt><trkpt lat="42.729779333998735" lon="-3.7997247343718565"><ele>701.0</ele><time>2026-05-02T15:00:29Z</time></trkpt><trkpt lat="42.72970509537462" lon="-3.7996285798682043"><ele>701.0</ele><time>2026-05-02T15:00:30Z</time></trkpt><trkpt lat="42.72962693428987" lon="-3.7995351603667933"><ele>701.0</ele><time>2026-05-02T15:00:31Z</time></trkpt><trkpt lat="42.72954753011725" lon="-3.7994525685543126"><ele>701.0</ele><time>2026-05-02T15:00:32Z</time></trkpt><trkpt lat="42.72946326166172" lon="-3.799367875717314"><ele>701.0</ele><time>2026-05-02T15:00:33Z</time></trkpt><trkpt lat="42.729378895101966" lon="-3.7992829098636562"><ele>701.0</ele><time>2026-05-02T15:00:34Z</time></trkpt><trkpt lat="42.72929188587857" lon="-3.7992062080794136"><ele>701.0</ele><time>2026-05-02T15:00:35Z</time></trkpt><trkpt lat="42.72920650088245" lon="-3.7991365754834368"><ele>701.0</ele><time>2026-05-02T15:00:36Z</time></trkpt><trkpt lat="42.72911667863843" lon="-3.7990660709607234"><ele>700.5999999999999</ele><time>2026-05-02T15:00:37Z</time></trkpt><trkpt lat="42.72902517410031" lon="-3.7989974611957242"><ele>700.2</ele><time>2026-05-02T15:00:38Z</time></trkpt><trkpt lat="42.728935466721296" lon="-3.7989332169263017"><ele>699.8</ele><time>2026-05-02T15:00:39Z</time></trkpt><trkpt lat="42.728843032801585" lon="-3.7988732590882757"><ele>699.4000000000001</ele><time>2026-05-02T15:00:40Z</time></trkpt><trkpt lat="42.72874563842555" lon="-3.798821813246956"><ele>699.0</ele><time>2026-05-02T15:00:41Z</time></trkpt><trkpt lat="42.72865079748403" lon="-3.7987726562927535"><ele>698.2</ele><time>2026-05-02T15:00:42Z</time></trkpt><trkpt lat="42.72855456241807" lon="-3.7987258607586427"><ele>697.4000000000001</ele><time>2026-05-02T15:00:43Z</time></trkpt><trkpt lat="42.72845814329449" lon="-3.7986836720573"><ele>696.6</ele><time>2026-05-02T15:00:44Z</time></trkpt><trkpt lat="42.728355453443456" lon="-3.798642275446229"><ele>695.8</ele><time>2026-05-02T15:00:45Z</time></trkpt><trkpt lat="42.72825545460467" lon="-3.7986127086908916"><ele>695.0</ele><time>2026-05-02T15:00:46Z</time></trkpt><trkpt lat="42.728155352685604" lon="-3.798577351534132"><ele>695.0</ele><time>2026-05-02T15:00:47Z</time></trkpt><trkpt lat="42.728053300560546" lon="-3.798547683042698"><ele>695.0</ele><time>2026-05-02T15:00:48Z</time></trkpt><trkpt lat="42.727951691456795" lon="-3.7985248487055574"><ele>695.0</ele><time>2026-05-02T15:00:49Z</time></trkpt><trkpt lat="42.72785262478048" lon="-3.798507582141847"><ele>695.0</ele><time>2026-05-02T15:00:50Z</time></trkpt><trkpt lat="42.72775005196395" lon="-3.7984917921111543"><ele>695.0</ele><time>2026-05-02T15:00:51Z</time></trkpt><trkpt lat="42.72764765499836" lon="-3.798492162437084"><ele>695.0</ele><time>2026-05-02T15:00:52Z</time></trkpt><trkpt lat="42.72754704900531" lon="-3.798487846263048"><ele>695.0</ele><time>2026-05-02T15:00:53Z</time></trkpt><trkpt lat="42.72744590718781" lon="-3.798488988959545"><ele>695.0</ele><time>2026-05-02T15:00:54Z</time></trkpt><trkpt lat="42.72734193957063" lon="-3.7984902890413035"><ele>695.0</ele><time>2026-05-02T15:00:55Z</time></trkpt><trkpt lat="42.72723855204795" lon="-3.7984991451592367"><ele>695.0</ele><time>2026-05-02T15:00:56Z</time></trkpt><trkpt lat="42.72713739849088" lon="-3.79851474976056"><ele>695.0</ele><time>2026-05-02T15:00:57Z</time></trkpt><trkpt lat="42.727035046317454" lon="-3.7985327328666267"><ele>695.0</ele><time>2026-05-02T15:00:58Z</time></trkpt><trkpt lat="42.72693542240607" lon="-3.7985543151871544"><ele>695.0</ele><time>2026-05-02T15:00:59Z</time></trkpt><trkpt lat="42.72683573688134" lon="-3.7985772856237316"><ele>695.0</ele><time>2026-05-02T15:01:00Z</time></trkpt><trkpt lat="42.726733281214564" lon="-3.798599881388359"><ele>695.0</ele><time>2026-05-02T15:01:01Z</time></trkpt><trkpt lat="42.726635229344645" lon="-3.798630918344135"><ele>695.4</ele><time>2026-05-02T15:01:02.001Z</time></trkpt><trkpt lat="42.72653848312823" lon="-3.7986619544333333"><ele>695.8</ele><time>2026-05-02T15:01:03.001Z</time></trkpt><trkpt lat="42.72644043542324" lon="-3.7986950693381303"><ele>696.2</ele><time>2026-05-02T15:01:04.001Z</time></trkpt><trkpt lat="42.726343509832894" lon="-3.7987279895623938"><ele>696.6</ele><time>2026-05-02T15:01:05.001Z</time></trkpt><trkpt lat="42.72624497365036" lon="-3.798762563267716"><ele>697.0</ele><time>2026-05-02T15:01:06.001Z</time></trkpt><trkpt lat="42.72614841766126" lon="-3.798796952257999"><ele>697.8</ele><time>2026-05-02T15:01:07.001Z</time></trkpt><trkpt lat="42.726051370703836" lon="-3.7988330885743764"><ele>698.6</ele><time>2026-05-02T15:01:08.001Z</time></trkpt><trkpt lat="42.725954198479926" lon="-3.7988708112591705"><ele>699.4</ele><time>2026-05-02T15:01:09.001Z</time></trkpt><trkpt lat="42.72585680532372" lon="-3.7989123466729624"><ele>700.1999999999999</ele><time>2026-05-02T15:01:10.001Z</time></trkpt><trkpt lat="42.72576089215457" lon="-3.79894940072139"><ele>701.0</ele><time>2026-05-02T15:01:11.001Z</time></trkpt><trkpt lat="42.72566556006674" lon="-3.7989876948037398"><ele>701.0</ele><time>2026-05-02T15:01:12.001Z</time></trkpt><trkpt lat="42.72556812720216" lon="-3.799030947727354"><ele>701.0</ele><time>2026-05-02T15:01:13.001Z</time></trkpt><trkpt lat="42.72547350163151" lon="-3.799078450366915"><ele>701.0</ele><time>2026-05-02T15:01:14.001Z</time></trkpt><trkpt lat="42.72537676171131" lon="-3.7991300375127013"><ele>701.0</ele><time>2026-05-02T15:01:15.001Z</time></trkpt><trkpt lat="42.725282860309036" lon="-3.7991857689722504"><ele>701.0</ele><time>2026-05-02T15:01:16.001Z</time></trkpt><trkpt lat="42.72518849797955" lon="-3.7992418365637035"><ele>700.8</ele><time>2026-05-02T15:01:17.001Z</time></trkpt><trkpt lat="42.72509824037496" lon="-3.799299483000798"><ele>700.5999999999999</ele><time>2026-05-02T15:01:18.001Z</time></trkpt><trkpt lat="42.725009348980805" lon="-3.7993628337203296"><ele>700.4</ele><time>2026-05-02T15:01:19.001Z</time></trkpt><trkpt lat="42.72492133890282" lon="-3.799429287562706"><ele>700.2</ele><time>2026-05-02T15:01:20.001Z</time></trkpt><trkpt lat="42.724833226091285" lon="-3.7994966780599775"><ele>700.0</ele><time>2026-05-02T15:01:21.001Z</time></trkpt><trkpt lat="42.72474693105038" lon="-3.7995683840424173"><ele>700.0</ele><time>2026-05-02T15:01:22.001Z</time></trkpt><trkpt lat="42.724663539698014" lon="-3.7996365217649677"><ele>700.0</ele><time>2026-05-02T15:01:23.001Z</time></trkpt><trkpt lat="42.72457972105686" lon="-3.7997039875305396"><ele>700.0</ele><time>2026-05-02T15:01:24.001Z</time></trkpt><trkpt lat="42.72449661594995" lon="-3.7997745391889466"><ele>700.0</ele><time>2026-05-02T15:01:25.001Z</time></trkpt><trkpt lat="42.724411824658176" lon="-3.7998469951658564"><ele>700.0</ele><time>2026-05-02T15:01:26.001Z</time></trkpt><trkpt lat="42.72433267221535" lon="-3.7999281655897192"><ele>700.0</ele><time>2026-05-02T15:01:27.001Z</time></trkpt><trkpt lat="42.7242518353154" lon="-3.800002821706067"><ele>700.0</ele><time>2026-05-02T15:01:28.001Z</time></trkpt><trkpt lat="42.72417159777353" lon="-3.8000765516527393"><ele>700.0</ele><time>2026-05-02T15:01:29.001Z</time></trkpt><trkpt lat="42.72408795203207" lon="-3.80014416112268"><ele>700.0</ele><time>2026-05-02T15:01:30.001Z</time></trkpt><trkpt lat="42.72400235596535" lon="-3.8002112055301143"><ele>700.0</ele><time>2026-05-02T15:01:31.001Z</time></trkpt><trkpt lat="42.72391710019295" lon="-3.800283446854129"><ele>700.0</ele><time>2026-05-02T15:01:32.001Z</time></trkpt><trkpt lat="42.723833625926076" lon="-3.800358180229586"><ele>700.0</ele><time>2026-05-02T15:01:33.001Z</time></trkpt><trkpt lat="42.7237535308817" lon="-3.8004296918928584"><ele>700.0</ele><time>2026-05-02T15:01:34.001Z</time></trkpt><trkpt lat="42.72367295333221" lon="-3.8005020242410477"><ele>700.0</ele><time>2026-05-02T15:01:35.001Z</time></trkpt><trkpt lat="42.723588893464594" lon="-3.800574197877734"><ele>700.0</ele><time>2026-05-02T15:01:36.001Z</time></trkpt><trkpt lat="42.723501114372574" lon="-3.800647703545885"><ele>702.6</ele><time>2026-05-02T15:01:37.001Z</time></trkpt><trkpt lat="42.72341898097818" lon="-3.800718127341808"><ele>705.2</ele><time>2026-05-02T15:01:38.001Z</time></trkpt><trkpt lat="42.723338972059224" lon="-3.800792494315096"><ele>707.8</ele><time>2026-05-02T15:01:39.001Z</time></trkpt><trkpt lat="42.72325737140552" lon="-3.8008629718666964"><ele>710.4</ele><time>2026-05-02T15:01:40.001Z</time></trkpt><trkpt lat="42.7231759015469" lon="-3.8009319335272296"><ele>713.0</ele><time>2026-05-02T15:01:41.001Z</time></trkpt><trkpt lat="42.723094883239185" lon="-3.8009957967317733"><ele>712.4</ele><time>2026-05-02T15:01:42.001Z</time></trkpt><trkpt lat="42.72301249679414" lon="-3.80105402594313"><ele>711.8</ele><time>2026-05-02T15:01:43.001Z</time></trkpt><trkpt lat="42.7229279844155" lon="-3.801109610377614"><ele>711.2</ele><time>2026-05-02T15:01:44.001Z</time></trkpt><trkpt lat="42.72283287024824" lon="-3.8011547288195247"><ele>710.6</ele><time>2026-05-02T15:01:45.001Z</time></trkpt><trkpt lat="42.72273929509349" lon="-3.801191776483714"><ele>710.0</ele><time>2026-05-02T15:01:46.001Z</time></trkpt><trkpt lat="42.722644645612796" lon="-3.8012262065894213"><ele>710.0</ele><time>2026-05-02T15:01:47.001Z</time></trkpt><trkpt lat="42.72254544810144" lon="-3.801254971713779"><ele>710.0</ele><time>2026-05-02T15:01:48.001Z</time></trkpt><trkpt lat="42.7224498270892" lon="-3.8012751555511906"><ele>710.0</ele><time>2026-05-02T15:01:49.001Z</time></trkpt><trkpt lat="42.72235397467825" lon="-3.801289415469281"><ele>710.0</ele><time>2026-05-02T15:01:50.001Z</time></trkpt><trkpt lat="42.72225530509496" lon="-3.8012998384285046"><ele>710.0</ele><time>2026-05-02T15:01:51.001Z</time></trkpt><trkpt lat="42.72215701263031" lon="-3.801302234827049"><ele>710.0</ele><time>2026-05-02T15:01:52.001Z</time></trkpt><trkpt lat="42.72206204592068" lon="-3.8012988860371353"><ele>710.0</ele><time>2026-05-02T15:01:53.001Z</time></trkpt><trkpt lat="42.721967792027364" lon="-3.8012875985545733"><ele>710.0</ele><time>2026-05-02T15:01:54.001Z</time></trkpt><trkpt lat="42.72187284818069" lon="-3.8012678488683287"><ele>710.0</ele><time>2026-05-02T15:01:55.001Z</time></trkpt><trkpt lat="42.72177663853015" lon="-3.801246457596816"><ele>710.0</ele><time>2026-05-02T15:01:56.001Z</time></trkpt><trkpt lat="42.721676203645295" lon="-3.801249539541029"><ele>710.4</ele><time>2026-05-02T15:01:57.001Z</time></trkpt><trkpt lat="42.721583242006325" lon="-3.801222592471527"><ele>710.8</ele><time>2026-05-02T15:01:58.001Z</time></trkpt><trkpt lat="42.721495556148184" lon="-3.801173926519567"><ele>711.2</ele><time>2026-05-02T15:01:59.001Z</time></trkpt><trkpt lat="42.72139830369995" lon="-3.801153574091331"><ele>711.6</ele><time>2026-05-02T15:02:00.001Z</time></trkpt><trkpt lat="42.72130534876951" lon="-3.8011152735224245"><ele>712.0</ele><time>2026-05-02T15:02:01.001Z</time></trkpt><trkpt lat="42.72120708052105" lon="-3.8010838377144287"><ele>712.0</ele><time>2026-05-02T15:02:02.001Z</time></trkpt><trkpt lat="42.72111701766269" lon="-3.801049081478653"><ele>712.0</ele><time>2026-05-02T15:02:03.001Z</time></trkpt><trkpt lat="42.721027345518095" lon="-3.801017922914686"><ele>712.0</ele><time>2026-05-02T15:02:04.001Z</time></trkpt><trkpt lat="42.72093988384388" lon="-3.800986301215471"><ele>712.0</ele><time>2026-05-02T15:02:05.001Z</time></trkpt><trkpt lat="42.720845176186664" lon="-3.8009593216261046"><ele>712.0</ele><time>2026-05-02T15:02:06.001Z</time></trkpt><trkpt lat="42.720756448319044" lon="-3.8009239339313208"><ele>714.8</ele><time>2026-05-02T15:02:07.001Z</time></trkpt><trkpt lat="42.72066950637546" lon="-3.8008908172630402"><ele>717.6</ele><time>2026-05-02T15:02:08.001Z</time></trkpt><trkpt lat="42.72057423969452" lon="-3.800865886461393"><ele>720.4</ele><time>2026-05-02T15:02:09.001Z</time></trkpt><trkpt lat="42.720487283392124" lon="-3.8008239556322563"><ele>723.1999999999999</ele><time>2026-05-02T15:02:10.001Z</time></trkpt><trkpt lat="42.72039710512438" lon="-3.800803204641483"><ele>726.0</ele><time>2026-05-02T15:02:11.001Z</time></trkpt><trkpt lat="42.72030882158017" lon="-3.800771797994743"><ele>725.8</ele><time>2026-05-02T15:02:12.001Z</time></trkpt><trkpt lat="42.720217171078694" lon="-3.8007396550918684"><ele>725.5999999999999</ele><time>2026-05-02T15:02:13.001Z</time></trkpt><trkpt lat="42.720129211076404" lon="-3.8007099779504756"><ele>725.4</ele><time>2026-05-02T15:02:14.001Z</time></trkpt><trkpt lat="42.7200400385149" lon="-3.80068808563163"><ele>725.2</ele><time>2026-05-02T15:02:15.001Z</time></trkpt><trkpt lat="42.71995017135742" lon="-3.800672472194486"><ele>725.0</ele><time>2026-05-02T15:02:16.001Z</time></trkpt><trkpt lat="42.71986167882683" lon="-3.8006498347500077"><ele>725.0</ele><time>2026-05-02T15:02:17Z</time></trkpt><trkpt lat="42.719767452560085" lon="-3.800630282600035"><ele>725.0</ele><time>2026-05-02T15:02:18Z</time></trkpt><trkpt lat="42.71967836436583" lon="-3.8006170582165675"><ele>725.0</ele><time>2026-05-02T15:02:19Z</time></trkpt><trkpt lat="42.71958690730405" lon="-3.8006072968501314"><ele>725.0</ele><time>2026-05-02T15:02:20Z</time></trkpt><trkpt lat="42.719495497775945" lon="-3.8005918736798607"><ele>725.0</ele><time>2026-05-02T15:02:21Z</time></trkpt><trkpt lat="42.719407438737186" lon="-3.800581444963848"><ele>725.0</ele><time>2026-05-02T15:02:22Z</time></trkpt><trkpt lat="42.71931509694017" lon="-3.8005780103849562"><ele>725.0</ele><time>2026-05-02T15:02:23Z</time></trkpt><trkpt lat="42.71922519193351" lon="-3.800586146203462"><ele>725.0</ele><time>2026-05-02T15:02:24Z</time></trkpt><trkpt lat="42.71912331066655" lon="-3.8005629081717016"><ele>725.0</ele><time>2026-05-02T15:02:25Z</time></trkpt><trkpt lat="42.719032071794835" lon="-3.800567218237787"><ele>725.0</ele><time>2026-05-02T15:02:26Z</time></trkpt><trkpt lat="42.718937012899524" lon="-3.800563830904956"><ele>725.0</ele><time>2026-05-02T15:02:27Z</time></trkpt><trkpt lat="42.71885037379469" lon="-3.8005651150363575"><ele>725.0</ele><time>2026-05-02T15:02:28Z</time></trkpt><trkpt lat="42.71875823986" lon="-3.8005692569031373"><ele>725.0</ele><time>2026-05-02T15:02:29Z</time></trkpt><trkpt lat="42.71866989288505" lon="-3.8005854002234156"><ele>725.0</ele><time>2026-05-02T15:02:30Z</time></trkpt><trkpt lat="42.71857943617761" lon="-3.800595959760828"><ele>725.0</ele><time>2026-05-02T15:02:31Z</time></trkpt><trkpt lat="42.7184903974239" lon="-3.8006082748084813"><ele>725.0</ele><time>2026-05-02T15:02:32Z</time></trkpt><trkpt lat="42.71839888470079" lon="-3.8006177302915543"><ele>726.0</ele><time>2026-05-02T15:02:33Z</time></trkpt><trkpt lat="42.71830961048" lon="-3.800629620361423"><ele>727.0</ele><time>2026-05-02T15:02:34Z</time></trkpt><trkpt lat="42.71821850323476" lon="-3.8006459509480037"><ele>728.0</ele><time>2026-05-02T15:02:35Z</time></trkpt><trkpt lat="42.71813276818733" lon="-3.800666459974657"><ele>729.0</ele><time>2026-05-02T15:02:36Z</time></trkpt><trkpt lat="42.71804188627263" lon="-3.8006738103478526"><ele>730.0</ele><time>2026-05-02T15:02:37Z</time></trkpt><trkpt lat="42.717954446054506" lon="-3.8006963926255546"><ele>731.0</ele><time>2026-05-02T15:02:38Z</time></trkpt><trkpt lat="42.71786392663994" lon="-3.8007077103912374"><ele>731.0</ele><time>2026-05-02T15:02:39Z</time></trkpt><trkpt lat="42.7177743130521" lon="-3.8007277983264625"><ele>731.0</ele><time>2026-05-02T15:02:40Z</time></trkpt><trkpt lat="42.71768560319332" lon="-3.8007366902959436"><ele>731.0</ele><time>2026-05-02T15:02:41Z</time></trkpt><trkpt lat="42.71759549609003" lon="-3.8007518156384936"><ele>731.0</ele><time>2026-05-02T15:02:42Z</time></trkpt><trkpt lat="42.7175054859633" lon="-3.8007640428021054"><ele>731.0</ele><time>2026-05-02T15:02:43Z</time></trkpt><trkpt lat="42.717413647543076" lon="-3.8007809233428906"><ele>732.5</ele><time>2026-05-02T15:02:44Z</time></trkpt><trkpt lat="42.71732668052488" lon="-3.800800242130704"><ele>734.0</ele><time>2026-05-02T15:02:45Z</time></trkpt><trkpt lat="42.71723764472604" lon="-3.8008155612135917"><ele>735.5</ele><time>2026-05-02T15:02:46Z</time></trkpt><trkpt lat="42.71715035217156" lon="-3.8008294315433937"><ele>737.0</ele><time>2026-05-02T15:02:47Z</time></trkpt><trkpt lat="42.7170626971514" lon="-3.800837558520628"><ele>738.5</ele><time>2026-05-02T15:02:48Z</time></trkpt><trkpt lat="42.71696787772397" lon="-3.800848876042981"><ele>740.0</ele><time>2026-05-02T15:02:49Z</time></trkpt><trkpt lat="42.71687910163733" lon="-3.8008711562967954"><ele>740.1666666666666</ele><time>2026-05-02T15:02:50Z</time></trkpt><trkpt lat="42.71678986475956" lon="-3.8008876207037416"><ele>740.3333333333333</ele><time>2026-05-02T15:02:51Z</time></trkpt><trkpt lat="42.71670404502177" lon="-3.8009055547667128"><ele>740.5</ele><time>2026-05-02T15:02:52Z</time></trkpt><trkpt lat="42.71661682651709" lon="-3.800921754054259"><ele>740.6666666666666</ele><time>2026-05-02T15:02:53Z</time></trkpt><trkpt lat="42.71652911677947" lon="-3.8009354147060717"><ele>740.8333333333334</ele><time>2026-05-02T15:02:54Z</time></trkpt><trkpt lat="42.716437177822876" lon="-3.8009578246561153"><ele>741.0</ele><time>2026-05-02T15:02:55Z</time></trkpt><trkpt lat="42.71634475917603" lon="-3.800974707518465"><ele>741.0</ele><time>2026-05-02T15:02:56Z</time></trkpt><trkpt lat="42.71625766404215" lon="-3.8009957770696343"><ele>741.0</ele><time>2026-05-02T15:02:57Z</time></trkpt><trkpt lat="42.716167234017036" lon="-3.801019690806982"><ele>741.0</ele><time>2026-05-02T15:02:58Z</time></trkpt><trkpt lat="42.71607714241812" lon="-3.8010491094577485"><ele>741.0</ele><time>2026-05-02T15:02:59Z</time></trkpt><trkpt lat="42.71599046155138" lon="-3.801080609313061"><ele>741.0</ele><time>2026-05-02T15:03:00Z</time></trkpt><trkpt lat="42.71590061807453" lon="-3.8011081100754263"><ele>739.4</ele><time>2026-05-02T15:03:01.001Z</time></trkpt><trkpt lat="42.715810513133384" lon="-3.8011440359453816"><ele>737.8</ele><time>2026-05-02T15:03:02.001Z</time></trkpt><trkpt lat="42.71572333468127" lon="-3.8011799679602767"><ele>736.1999999999999</ele><time>2026-05-02T15:03:03.001Z</time></trkpt><trkpt lat="42.71563715234959" lon="-3.801220258719677"><ele>734.5999999999999</ele><time>2026-05-02T15:03:04.001Z</time></trkpt><trkpt lat="42.71555296958851" lon="-3.801265527784179"><ele>733.0</ele><time>2026-05-02T15:03:05.001Z</time></trkpt><trkpt lat="42.71546824758389" lon="-3.8013121319889547"><ele>733.0</ele><time>2026-05-02T15:03:06.001Z</time></trkpt><trkpt lat="42.7153890915802" lon="-3.8013570006397197"><ele>733.0</ele><time>2026-05-02T15:03:07.001Z</time></trkpt><trkpt lat="42.71530654284787" lon="-3.801403726070533"><ele>733.0</ele><time>2026-05-02T15:03:08.001Z</time></trkpt><trkpt lat="42.7152250045292" lon="-3.8014522209865684"><ele>733.0</ele><time>2026-05-02T15:03:09.001Z</time></trkpt><trkpt lat="42.715146402485104" lon="-3.801502086121079"><ele>733.0</ele><time>2026-05-02T15:03:10.001Z</time></trkpt><trkpt lat="42.71506500212557" lon="-3.801552049389571"><ele>733.0</ele><time>2026-05-02T15:03:11.001Z</time></trkpt><trkpt lat="42.7149839296124" lon="-3.8016074116831895"><ele>730.8333333333334</ele><time>2026-05-02T15:03:12.001Z</time></trkpt><trkpt lat="42.71490279165785" lon="-3.8016604214541214"><ele>728.6666666666667</ele><time>2026-05-02T15:03:13.001Z</time></trkpt><trkpt lat="42.714821511941146" lon="-3.801713374721971"><ele>726.5</ele><time>2026-05-02T15:03:14.001Z</time></trkpt><trkpt lat="42.71473883383983" lon="-3.8017616008582995"><ele>724.3333333333334</ele><time>2026-05-02T15:03:15.001Z</time></trkpt><trkpt lat="42.714656106916834" lon="-3.8018067211954807"><ele>722.1666666666666</ele><time>2026-05-02T15:03:16.001Z</time></trkpt><trkpt lat="42.714578312453796" lon="-3.801855487523395"><ele>720.0</ele><time>2026-05-02T15:03:17.001Z</time></trkpt><trkpt lat="42.71449636099282" lon="-3.8019075614979285"><ele>720.0</ele><time>2026-05-02T15:03:18.001Z</time></trkpt><trkpt lat="42.71441365851944" lon="-3.801949408666698"><ele>720.0</ele><time>2026-05-02T15:03:19.001Z</time></trkpt><trkpt lat="42.71433681018336" lon="-3.802008724910092"><ele>720.0</ele><time>2026-05-02T15:03:20.001Z</time></trkpt><trkpt lat="42.71425569221495" lon="-3.8020540644910152"><ele>720.0</ele><time>2026-05-02T15:03:21.001Z</time></trkpt><trkpt lat="42.71417509739055" lon="-3.802105961821827"><ele>720.0</ele><time>2026-05-02T15:03:22.001Z</time></trkpt><trkpt lat="42.7140927184025" lon="-3.802149694970568"><ele>720.0</ele><time>2026-05-02T15:03:23.001Z</time></trkpt><trkpt lat="42.714012203684376" lon="-3.8021961559407544"><ele>724.0</ele><time>2026-05-02T15:03:24.001Z</time></trkpt><trkpt lat="42.71393253574219" lon="-3.8022459230271184"><ele>728.0</ele><time>2026-05-02T15:03:25.001Z</time></trkpt><trkpt lat="42.71385059289564" lon="-3.8022926397084493"><ele>732.0</ele><time>2026-05-02T15:03:26.001Z</time></trkpt><trkpt lat="42.71376609381297" lon="-3.802331443371564"><ele>736.0</ele><time>2026-05-02T15:03:27.001Z</time></trkpt><trkpt lat="42.713685753014566" lon="-3.8023791950770973"><ele>740.0</ele><time>2026-05-02T15:03:28.001Z</time></trkpt><trkpt lat="42.71360283270239" lon="-3.8024175486826124"><ele>744.0</ele><time>2026-05-02T15:03:29.001Z</time></trkpt><trkpt lat="42.71351647438114" lon="-3.8024502866682277"><ele>746.8333333333334</ele><time>2026-05-02T15:03:30.001Z</time></trkpt><trkpt lat="42.71342984397011" lon="-3.8024864393500937"><ele>749.6666666666666</ele><time>2026-05-02T15:03:31.001Z</time></trkpt><trkpt lat="42.71334665443086" lon="-3.8025171018212207"><ele>752.5</ele><time>2026-05-02T15:03:32.001Z</time></trkpt><trkpt lat="42.713259254885955" lon="-3.8025451086000057"><ele>755.3333333333333</ele><time>2026-05-02T15:03:33.001Z</time></trkpt><trkpt lat="42.71317156446918" lon="-3.8025710406225577"><ele>758.1666666666666</ele><time>2026-05-02T15:03:34.001Z</time></trkpt><trkpt lat="42.713084749462524" lon="-3.8025941823898792"><ele>761.0</ele><time>2026-05-02T15:03:35.001Z</time></trkpt><trkpt lat="42.71299950685964" lon="-3.802615011726695"><ele>761.0</ele><time>2026-05-02T15:03:36.001Z</time></trkpt><trkpt lat="42.71290919220455" lon="-3.8026304986679285"><ele>761.0</ele><time>2026-05-02T15:03:37.001Z</time></trkpt><trkpt lat="42.71281971489041" lon="-3.8026428262136007"><ele>761.0</ele><time>2026-05-02T15:03:38.001Z</time></trkpt><trkpt lat="42.71273224463004" lon="-3.802657953204899"><ele>761.0</ele><time>2026-05-02T15:03:39.001Z</time></trkpt><trkpt lat="42.712640382192426" lon="-3.8026637935915772"><ele>761.0</ele><time>2026-05-02T15:03:40.001Z</time></trkpt><trkpt lat="42.71254785535137" lon="-3.8026685679624452"><ele>761.1999999999999</ele><time>2026-05-02T15:03:41.001Z</time></trkpt><trkpt lat="42.71245682867646" lon="-3.8026809594328017"><ele>761.4</ele><time>2026-05-02T15:03:42.001Z</time></trkpt><trkpt lat="42.71236198146996" lon="-3.8026713461925965"><ele>761.6</ele><time>2026-05-02T15:03:43.001Z</time></trkpt><trkpt lat="42.712262356169816" lon="-3.8026649671122423"><ele>761.8</ele><time>2026-05-02T15:03:44.001Z</time></trkpt><trkpt lat="42.71216975213535" lon="-3.8026535633313685"><ele>762.0</ele><time>2026-05-02T15:03:45.001Z</time></trkpt><trkpt lat="42.712076478792625" lon="-3.8026432686295353"><ele>763.4000000000001</ele><time>2026-05-02T15:03:46.001Z</time></trkpt><trkpt lat="42.711969287800336" lon="-3.80261468887874"><ele>764.8000000000001</ele><time>2026-05-02T15:03:47.001Z</time></trkpt><trkpt lat="42.711876629658946" lon="-3.8026158500330536"><ele>766.2</ele><time>2026-05-02T15:03:48.001Z</time></trkpt><trkpt lat="42.711779741899804" lon="-3.8025931357025042"><ele>767.6</ele><time>2026-05-02T15:03:49.001Z</time></trkpt><trkpt lat="42.7116818764195" lon="-3.802567449060349"><ele>769.0</ele><time>2026-05-02T15:03:50.001Z</time></trkpt><trkpt lat="42.71157898747719" lon="-3.8025181415746747"><ele>770.0</ele><time>2026-05-02T15:03:51.001Z</time></trkpt><trkpt lat="42.71146208814116" lon="-3.802508245506138"><ele>771.0</ele><time>2026-05-02T15:03:52.001Z</time></trkpt><trkpt lat="42.71136729286914" lon="-3.8024524916850013"><ele>772.0</ele><time>2026-05-02T15:03:53.001Z</time></trkpt><trkpt lat="42.71127846589088" lon="-3.802402880499225"><ele>773.0</ele><time>2026-05-02T15:03:54.001Z</time></trkpt><trkpt lat="42.71117839647504" lon="-3.8023587015333513"><ele>774.0</ele><time>2026-05-02T15:03:55.001Z</time></trkpt><trkpt lat="42.71108144416218" lon="-3.8023114544553556"><ele>771.6</ele><time>2026-05-02T15:03:56.001Z</time></trkpt><trkpt lat="42.71098391936731" lon="-3.80226047550469"><ele>769.2</ele><time>2026-05-02T15:03:57.001Z</time></trkpt><trkpt lat="42.710886155704486" lon="-3.8021990865895736"><ele>766.8000000000001</ele><time>2026-05-02T15:03:58.001Z</time></trkpt><trkpt lat="42.7107907200098" lon="-3.8021435933551717"><ele>764.4000000000001</ele><time>2026-05-02T15:03:59.001Z</time></trkpt><trkpt lat="42.71069623482349" lon="-3.802081765819607"><ele>762.0</ele><time>2026-05-02T15:04:00.001Z</time></trkpt><trkpt lat="42.710602704130956" lon="-3.8020242954445633"><ele>762.0</ele><time>2026-05-02T15:04:01.001Z</time></trkpt><trkpt lat="42.71050728400838" lon="-3.801962829568753"><ele>762.0</ele><time>2026-05-02T15:04:02.001Z</time></trkpt><trkpt lat="42.710414120143156" lon="-3.8019066120756726"><ele>762.0</ele><time>2026-05-02T15:04:03.001Z</time></trkpt><trkpt lat="42.710321518437894" lon="-3.8018512122928017"><ele>762.0</ele><time>2026-05-02T15:04:04.001Z</time></trkpt><trkpt lat="42.71022927958539" lon="-3.8017949895318663"><ele>762.0</ele><time>2026-05-02T15:04:05.001Z</time></trkpt><trkpt lat="42.71013909916025" lon="-3.801745122656584"><ele>763.8</ele><time>2026-05-02T15:04:06.001Z</time></trkpt><trkpt lat="42.710049211589435" lon="-3.801707324193958"><ele>765.6</ele><time>2026-05-02T15:04:07.001Z</time></trkpt><trkpt lat="42.70995472187041" lon="-3.801689289894444"><ele>767.4</ele><time>2026-05-02T15:04:08.001Z</time></trkpt><trkpt lat="42.70985925502206" lon="-3.801705179488499"><ele>769.1999999999999</ele><time>2026-05-02T15:04:09.001Z</time></trkpt><trkpt lat="42.70976913046339" lon="-3.8017213779457597"><ele>771.0</ele><time>2026-05-02T15:04:10.001Z</time></trkpt><trkpt lat="42.70967642234904" lon="-3.801752126592956"><ele>771.0</ele><time>2026-05-02T15:04:11.001Z</time></trkpt><trkpt lat="42.70958116962853" lon="-3.8017804107481514"><ele>771.0</ele><time>2026-05-02T15:04:12.001Z</time></trkpt><trkpt lat="42.70950236795156" lon="-3.801861612999699"><ele>771.0</ele><time>2026-05-02T15:04:13.001Z</time></trkpt><trkpt lat="42.70942983355913" lon="-3.801935021212898"><ele>771.0</ele><time>2026-05-02T15:04:14.001Z</time></trkpt><trkpt lat="42.70936063755704" lon="-3.802018970178749"><ele>771.0</ele><time>2026-05-02T15:04:15.001Z</time></trkpt><trkpt lat="42.70928826014574" lon="-3.802102743236472"><ele>770.8</ele><time>2026-05-02T15:04:16.001Z</time></trkpt><trkpt lat="42.709245210756286" lon="-3.8022244693482956"><ele>770.5999999999999</ele><time>2026-05-02T15:04:17.001Z</time></trkpt><trkpt lat="42.709178944115436" lon="-3.802319966173554"><ele>770.4</ele><time>2026-05-02T15:04:18.001Z</time></trkpt><trkpt lat="42.709132216323205" lon="-3.8024276330315847"><ele>770.2</ele><time>2026-05-02T15:04:19.001Z</time></trkpt><trkpt lat="42.709076059806435" lon="-3.8025246429614183"><ele>770.0</ele><time>2026-05-02T15:04:20.001Z</time></trkpt><trkpt lat="42.709031895560244" lon="-3.8026291882348073"><ele>769.5000000000001</ele><time>2026-05-02T15:04:21.001Z</time></trkpt><trkpt lat="42.70896942256029" lon="-3.802704512535964"><ele>769.0</ele><time>2026-05-02T15:04:22.001Z</time></trkpt><trkpt lat="42.70891755742684" lon="-3.80277229881198"><ele>768.5</ele><time>2026-05-02T15:04:24Z</time></trkpt><trkpt lat="42.7089733322665" lon="-3.8028517862141484"><ele>768.0</ele><time>2026-05-02T15:04:27Z</time></trkpt><trkpt lat="42.709045610192035" lon="-3.802845026459017"><ele>767.5</ele><time>2026-05-02T15:05:06Z</time></trkpt><trkpt lat="42.709109823918624" lon="-3.8029164989969373"><ele>767.0</ele><time>2026-05-02T15:05:10Z</time></trkpt><trkpt lat="42.70903754995677" lon="-3.802864051336754"><ele>767.0</ele><time>2026-05-02T15:13:02.999Z</time></trkpt><trkpt lat="42.70897928011539" lon="-3.8028211755238557"><ele>767.0</ele><time>2026-05-02T15:13:05.999Z</time></trkpt><trkpt lat="42.708912934738045" lon="-3.8027874518403904"><ele>767.0</ele><time>2026-05-02T15:13:07.999Z</time></trkpt><trkpt lat="42.708834541110136" lon="-3.8028212723483965"><ele>767.0</ele><time>2026-05-02T15:13:09.999Z</time></trkpt><trkpt lat="42.70875974356072" lon="-3.802875671851297"><ele>767.0</ele><time>2026-05-02T15:13:12Z</time></trkpt><trkpt lat="42.708660346959554" lon="-3.802914712132086"><ele>767.0</ele><time>2026-05-02T15:13:14Z</time></trkpt><trkpt lat="42.70854107789162" lon="-3.802941847705533"><ele>768.6666666666666</ele><time>2026-05-02T15:13:16Z</time></trkpt><trkpt lat="42.708420377046906" lon="-3.802973585442689"><ele>770.3333333333333</ele><time>2026-05-02T15:13:18Z</time></trkpt><trkpt lat="42.70835389207226" lon="-3.8029870282611653"><ele>772.0</ele><time>2026-05-02T15:13:19Z</time></trkpt><trkpt lat="42.7082899993603" lon="-3.8030047063548595"><ele>773.6666666666666</ele><time>2026-05-02T15:13:20Z</time></trkpt><trkpt lat="42.70822467649267" lon="-3.8030202974941596"><ele>775.3333333333334</ele><time>2026-05-02T15:13:21Z</time></trkpt><trkpt lat="42.70816182137233" lon="-3.8030358569790974"><ele>777.0</ele><time>2026-05-02T15:13:22Z</time></trkpt><trkpt lat="42.708092560363596" lon="-3.8030566582840613"><ele>777.0</ele><time>2026-05-02T15:13:23Z</time></trkpt><trkpt lat="42.708026599498105" lon="-3.8030696613907873"><ele>777.0</ele><time>2026-05-02T15:13:24Z</time></trkpt><trkpt lat="42.707965912529104" lon="-3.8031273082266965"><ele>777.0</ele><time>2026-05-02T15:13:25Z</time></trkpt><trkpt lat="42.70783900165835" lon="-3.8031646088804894"><ele>777.0</ele><time>2026-05-02T15:13:27Z</time></trkpt><trkpt lat="42.707726287227906" lon="-3.8031927831970003"><ele>777.0</ele><time>2026-05-02T15:13:29Z</time></trkpt><trkpt lat="42.70761628074892" lon="-3.803216107275675"><ele>778.4000000000001</ele><time>2026-05-02T15:13:31Z</time></trkpt><trkpt lat="42.707495487033334" lon="-3.8032323597763487"><ele>779.8000000000001</ele><time>2026-05-02T15:13:33Z</time></trkpt><trkpt lat="42.70736668315202" lon="-3.803235579438384"><ele>781.2</ele><time>2026-05-02T15:13:35Z</time></trkpt><trkpt lat="42.70729810728115" lon="-3.8032297032495257"><ele>782.6</ele><time>2026-05-02T15:13:36Z</time></trkpt><trkpt lat="42.70722983167667" lon="-3.803218122778592"><ele>784.0</ele><time>2026-05-02T15:13:37Z</time></trkpt><trkpt lat="42.70715702915849" lon="-3.8031994726340885"><ele>783.9999999999999</ele><time>2026-05-02T15:13:38Z</time></trkpt><trkpt lat="42.707086583838795" lon="-3.803178077097057"><ele>784.0</ele><time>2026-05-02T15:13:39Z</time></trkpt><trkpt lat="42.707014667863966" lon="-3.8031538140456327"><ele>784.0</ele><time>2026-05-02T15:13:40Z</time></trkpt><trkpt lat="42.70694390334879" lon="-3.803127701846174"><ele>784.0</ele><time>2026-05-02T15:13:41Z</time></trkpt><trkpt lat="42.706871364696035" lon="-3.8031001332474523"><ele>783.9999999999999</ele><time>2026-05-02T15:13:42Z</time></trkpt><trkpt lat="42.706797498335106" lon="-3.8030689537666964"><ele>784.0</ele><time>2026-05-02T15:13:43Z</time></trkpt><trkpt lat="42.706723233009185" lon="-3.8030379189262193"><ele>786.6666666666666</ele><time>2026-05-02T15:13:44Z</time></trkpt><trkpt lat="42.70664762238415" lon="-3.8030063144185413"><ele>789.3333333333333</ele><time>2026-05-02T15:13:45Z</time></trkpt><trkpt lat="42.70657138226776" lon="-3.802974372286645"><ele>792.0</ele><time>2026-05-02T15:13:46Z</time></trkpt><trkpt lat="42.70649490670945" lon="-3.8029423314835387"><ele>794.6666666666667</ele><time>2026-05-02T15:13:47Z</time></trkpt><trkpt lat="42.70641767713091" lon="-3.8029079286014587"><ele>797.3333333333334</ele><time>2026-05-02T15:13:48Z</time></trkpt><trkpt lat="42.706341624588916" lon="-3.8028738499540733"><ele>800.0</ele><time>2026-05-02T15:13:49Z</time></trkpt><trkpt lat="42.70626928065046" lon="-3.802817262604864"><ele>800.0000000000001</ele><time>2026-05-02T15:13:50Z</time></trkpt><trkpt lat="42.7061890907312" lon="-3.8027888433498247"><ele>800.0</ele><time>2026-05-02T15:13:51Z</time></trkpt><trkpt lat="42.70611172129672" lon="-3.802751264089795"><ele>800.0</ele><time>2026-05-02T15:13:52Z</time></trkpt><trkpt lat="42.706033366295266" lon="-3.802713925274632"><ele>800.0</ele><time>2026-05-02T15:13:53Z</time></trkpt><trkpt lat="42.70595550705875" lon="-3.8026712974443533"><ele>800.0000000000001</ele><time>2026-05-02T15:13:54Z</time></trkpt><trkpt lat="42.70587522024833" lon="-3.802633553337151"><ele>800.0</ele><time>2026-05-02T15:13:55Z</time></trkpt><trkpt lat="42.705799302397914" lon="-3.8025886343176483"><ele>798.3333333333334</ele><time>2026-05-02T15:13:56Z</time></trkpt><trkpt lat="42.70572257539144" lon="-3.8025411757531598"><ele>796.6666666666667</ele><time>2026-05-02T15:13:57Z</time></trkpt><trkpt lat="42.705645794467095" lon="-3.8024946023114614"><ele>795.0</ele><time>2026-05-02T15:13:58Z</time></trkpt><trkpt lat="42.705570158099874" lon="-3.8024485591456223"><ele>793.3333333333333</ele><time>2026-05-02T15:13:59Z</time></trkpt><trkpt lat="42.70549234094176" lon="-3.802404443291481"><ele>791.6666666666666</ele><time>2026-05-02T15:14:00Z</time></trkpt><trkpt lat="42.70541381688263" lon="-3.8023612180218156"><ele>790.0</ele><time>2026-05-02T15:14:01Z</time></trkpt><trkpt lat="42.70533946039813" lon="-3.802314864390246"><ele>789.9999999999999</ele><time>2026-05-02T15:14:02Z</time></trkpt><trkpt lat="42.705272889694164" lon="-3.802269226958207"><ele>790.0</ele><time>2026-05-02T15:14:03Z</time></trkpt><trkpt lat="42.70521461790001" lon="-3.8022253444116387"><ele>790.0</ele><time>2026-05-02T15:14:04Z</time></trkpt><trkpt lat="42.70512213036421" lon="-3.802171695024277"><ele>790.0</ele><time>2026-05-02T15:14:06Z</time></trkpt><trkpt lat="42.70506158820695" lon="-3.8021394559073167"><ele>789.9999999999999</ele><time>2026-05-02T15:14:08Z</time></trkpt><trkpt lat="42.7049802499847" lon="-3.8021011625271184"><ele>790.0</ele><time>2026-05-02T15:14:16Z</time></trkpt><trkpt lat="42.704904572752724" lon="-3.802041808425649"><ele>795.2</ele><time>2026-05-02T15:14:18Z</time></trkpt><trkpt lat="42.70479682356554" lon="-3.8019866724432374"><ele>800.4</ele><time>2026-05-02T15:14:20Z</time></trkpt><trkpt lat="42.704679705405944" lon="-3.8019420558887154"><ele>805.5999999999999</ele><time>2026-05-02T15:14:22Z</time></trkpt><trkpt lat="42.70456168069982" lon="-3.8019260715898953"><ele>810.8</ele><time>2026-05-02T15:14:24Z</time></trkpt><trkpt lat="42.704501303939814" lon="-3.801896707664656"><ele>816.0</ele><time>2026-05-02T15:14:25.001Z</time></trkpt><trkpt lat="42.70443422826961" lon="-3.801896103195093"><ele>818.5714285714286</ele><time>2026-05-02T15:14:26.001Z</time></trkpt><trkpt lat="42.70436651300898" lon="-3.8018955474205733"><ele>821.1428571428571</ele><time>2026-05-02T15:14:27.001Z</time></trkpt><trkpt lat="42.70429547523241" lon="-3.801889848474459"><ele>823.7142857142858</ele><time>2026-05-02T15:14:28.001Z</time></trkpt><trkpt lat="42.704226493341764" lon="-3.8018890163050507"><ele>826.2857142857142</ele><time>2026-05-02T15:14:29.001Z</time></trkpt><trkpt lat="42.704154428185724" lon="-3.8018916059642596"><ele>828.8571428571428</ele><time>2026-05-02T15:14:30.001Z</time></trkpt><trkpt lat="42.70407989715355" lon="-3.8019021811075357"><ele>831.4285714285714</ele><time>2026-05-02T15:14:31.001Z</time></trkpt><trkpt lat="42.70400834920824" lon="-3.801927167013653"><ele>834.0</ele><time>2026-05-02T15:14:32.001Z</time></trkpt><trkpt lat="42.70393847874697" lon="-3.801951800822468"><ele>834.0</ele><time>2026-05-02T15:14:33.001Z</time></trkpt><trkpt lat="42.703867487897995" lon="-3.801977279565828"><ele>834.0</ele><time>2026-05-02T15:14:34.001Z</time></trkpt><trkpt lat="42.70379308954756" lon="-3.8020030064207067"><ele>834.0</ele><time>2026-05-02T15:14:35.001Z</time></trkpt><trkpt lat="42.70372395637732" lon="-3.8020419997400263"><ele>834.0</ele><time>2026-05-02T15:14:36.001Z</time></trkpt><trkpt lat="42.70365547973003" lon="-3.802088388613463"><ele>834.0</ele><time>2026-05-02T15:14:37.001Z</time></trkpt><trkpt lat="42.7035909594601" lon="-3.802135517178984"><ele>834.0</ele><time>2026-05-02T15:14:38.001Z</time></trkpt><trkpt lat="42.703525387278866" lon="-3.8021909598254897"><ele>831.0</ele><time>2026-05-02T15:14:39.001Z</time></trkpt><trkpt lat="42.70346435188983" lon="-3.802245969048815"><ele>828.0</ele><time>2026-05-02T15:14:40.001Z</time></trkpt><trkpt lat="42.703403027740386" lon="-3.8023006884636845"><ele>825.0</ele><time>2026-05-02T15:14:41.001Z</time></trkpt><trkpt lat="42.7033417165272" lon="-3.802358544783213"><ele>822.0</ele><time>2026-05-02T15:14:42.001Z</time></trkpt><trkpt lat="42.703280217798394" lon="-3.8024217692753344"><ele>819.0</ele><time>2026-05-02T15:14:43.001Z</time></trkpt><trkpt lat="42.70322098725729" lon="-3.8024862722503783"><ele>816.0</ele><time>2026-05-02T15:14:44.001Z</time></trkpt><trkpt lat="42.70315954302212" lon="-3.802554161768311"><ele>816.0</ele><time>2026-05-02T15:14:45.001Z</time></trkpt><trkpt lat="42.70309931638223" lon="-3.802617774425655"><ele>816.0</ele><time>2026-05-02T15:14:46.001Z</time></trkpt><trkpt lat="42.70303882142917" lon="-3.8026857690405698"><ele>816.0</ele><time>2026-05-02T15:14:47.001Z</time></trkpt><trkpt lat="42.70297590033686" lon="-3.8027513878440433"><ele>816.0</ele><time>2026-05-02T15:14:48.001Z</time></trkpt><trkpt lat="42.702915455754145" lon="-3.802818601582619"><ele>816.0</ele><time>2026-05-02T15:14:49.001Z</time></trkpt><trkpt lat="42.702857300202034" lon="-3.8028906916284795"><ele>816.0</ele><time>2026-05-02T15:14:50.001Z</time></trkpt><trkpt lat="42.70279687853598" lon="-3.8029618733296613"><ele>816.3333333333334</ele><time>2026-05-02T15:14:51.001Z</time></trkpt><trkpt lat="42.70273614799087" lon="-3.8030289533420563"><ele>816.6666666666667</ele><time>2026-05-02T15:14:52.001Z</time></trkpt><trkpt lat="42.70267237510865" lon="-3.803096433960383"><ele>817.0</ele><time>2026-05-02T15:14:52.998Z</time></trkpt><trkpt lat="42.70260752022893" lon="-3.803164298910595"><ele>817.3333333333334</ele><time>2026-05-02T15:14:53.998Z</time></trkpt><trkpt lat="42.70254476524659" lon="-3.8032335656001552"><ele>817.6666666666667</ele><time>2026-05-02T15:14:54.998Z</time></trkpt><trkpt lat="42.70248092916086" lon="-3.8033026151601415"><ele>818.0</ele><time>2026-05-02T15:14:55.998Z</time></trkpt><trkpt lat="42.70241581063639" lon="-3.803368565924405"><ele>818.0000000000001</ele><time>2026-05-02T15:14:56.998Z</time></trkpt><trkpt lat="42.70235029248207" lon="-3.8034388262370835"><ele>818.0</ele><time>2026-05-02T15:14:57.998Z</time></trkpt><trkpt lat="42.7022890768064" lon="-3.8035084169746667"><ele>818.0</ele><time>2026-05-02T15:14:58.998Z</time></trkpt><trkpt lat="42.702223794164105" lon="-3.8035735392742747"><ele>818.0</ele><time>2026-05-02T15:14:59.998Z</time></trkpt><trkpt lat="42.70216012538248" lon="-3.80364012273802"><ele>818.0000000000001</ele><time>2026-05-02T15:15:00.998Z</time></trkpt><trkpt lat="42.70209436707571" lon="-3.8037011759135826"><ele>818.0</ele><time>2026-05-02T15:15:01.998Z</time></trkpt><trkpt lat="42.702024080438996" lon="-3.803761763277751"><ele>819.5000000000001</ele><time>2026-05-02T15:15:02.998Z</time></trkpt><trkpt lat="42.701954717652235" lon="-3.8038189946576044"><ele>821.0</ele><time>2026-05-02T15:15:03.998Z</time></trkpt><trkpt lat="42.70188254147789" lon="-3.8038730089595103"><ele>822.5</ele><time>2026-05-02T15:15:04.998Z</time></trkpt><trkpt lat="42.70180658536523" lon="-3.8039198213638525"><ele>824.0</ele><time>2026-05-02T15:15:05.999Z</time></trkpt><trkpt lat="42.70173088040218" lon="-3.8039633597437295"><ele>825.5000000000001</ele><time>2026-05-02T15:15:06.999Z</time></trkpt><trkpt lat="42.701651787172715" lon="-3.803996169862633"><ele>827.0</ele><time>2026-05-02T15:15:07.999Z</time></trkpt><trkpt lat="42.70156926538948" lon="-3.8040245175317153"><ele>827.0000000000001</ele><time>2026-05-02T15:15:08.999Z</time></trkpt><trkpt lat="42.701485782897635" lon="-3.8040467030030714"><ele>827.0</ele><time>2026-05-02T15:15:09.999Z</time></trkpt><trkpt lat="42.701401739069006" lon="-3.8040673074098708"><ele>827.0</ele><time>2026-05-02T15:15:10.999Z</time></trkpt><trkpt lat="42.70131890016441" lon="-3.8040967868801796"><ele>827.0</ele><time>2026-05-02T15:15:11.999Z</time></trkpt><trkpt lat="42.701234734064485" lon="-3.80410744422683"><ele>827.0000000000001</ele><time>2026-05-02T15:15:12.999Z</time></trkpt><trkpt lat="42.701149108555896" lon="-3.8041152360399346"><ele>827.0</ele><time>2026-05-02T15:15:13.999Z</time></trkpt><trkpt lat="42.70106427533631" lon="-3.8041195876785463"><ele>825.8333333333334</ele><time>2026-05-02T15:15:14.999Z</time></trkpt><trkpt lat="42.70097898267687" lon="-3.8041284507731055"><ele>824.6666666666667</ele><time>2026-05-02T15:15:15.999Z</time></trkpt><trkpt lat="42.70089280164649" lon="-3.8041344616862713"><ele>823.5</ele><time>2026-05-02T15:15:16.999Z</time></trkpt><trkpt lat="42.70081169407698" lon="-3.804141447834763"><ele>822.3333333333333</ele><time>2026-05-02T15:15:17.999Z</time></trkpt><trkpt lat="42.70072588981735" lon="-3.8041459772928916"><ele>821.1666666666666</ele><time>2026-05-02T15:15:18.999Z</time></trkpt><trkpt lat="42.7006451582547" lon="-3.8041542037815863"><ele>820.0</ele><time>2026-05-02T15:15:19.999Z</time></trkpt><trkpt lat="42.700563533437474" lon="-3.804161386831664"><ele>819.9999999999999</ele><time>2026-05-02T15:15:20.999Z</time></trkpt><trkpt lat="42.70047983062852" lon="-3.8041620811785593"><ele>820.0</ele><time>2026-05-02T15:15:21.999Z</time></trkpt><trkpt lat="42.700402801544804" lon="-3.804171766369067"><ele>820.0</ele><time>2026-05-02T15:15:22.999Z</time></trkpt><trkpt lat="42.70032125410694" lon="-3.8041818112153094"><ele>820.0</ele><time>2026-05-02T15:15:23.999Z</time></trkpt><trkpt lat="42.70024031968502" lon="-3.8041869804035477"><ele>819.9999999999999</ele><time>2026-05-02T15:15:24.999Z</time></trkpt><trkpt lat="42.70015918545182" lon="-3.8041936751472734"><ele>820.0</ele><time>2026-05-02T15:15:25.999Z</time></trkpt><trkpt lat="42.70007792197094" lon="-3.8042002724800805"><ele>820.9999999999999</ele><time>2026-05-02T15:15:26.999Z</time></trkpt><trkpt lat="42.699998435935456" lon="-3.8042065393924998"><ele>822.0</ele><time>2026-05-02T15:15:27.999Z</time></trkpt><trkpt lat="42.69991590925975" lon="-3.8042124636921515"><ele>823.0</ele><time>2026-05-02T15:15:28.999Z</time></trkpt><trkpt lat="42.69983284920525" lon="-3.804221270835285"><ele>824.0</ele><time>2026-05-02T15:15:29.999Z</time></trkpt><trkpt lat="42.69975487690004" lon="-3.804229271927632"><ele>824.9999999999999</ele><time>2026-05-02T15:15:31Z</time></trkpt><trkpt lat="42.69966967487624" lon="-3.804231444814474"><ele>826.0</ele><time>2026-05-02T15:15:32Z</time></trkpt><trkpt lat="42.69958858098911" lon="-3.804239804895666"><ele>825.9999999999999</ele><time>2026-05-02T15:15:33Z</time></trkpt><trkpt lat="42.69950201698528" lon="-3.80424566152639"><ele>826.0</ele><time>2026-05-02T15:15:34Z</time></trkpt><trkpt lat="42.699415713103605" lon="-3.8042521944466525"><ele>826.0</ele><time>2026-05-02T15:15:35Z</time></trkpt><trkpt lat="42.69933165296528" lon="-3.804260691923071"><ele>826.0</ele><time>2026-05-02T15:15:36Z</time></trkpt><trkpt lat="42.69924793723273" lon="-3.8042688561320372"><ele>825.9999999999999</ele><time>2026-05-02T15:15:37Z</time></trkpt><trkpt lat="42.69916457353784" lon="-3.8042767366921733"><ele>826.0</ele><time>2026-05-02T15:15:38Z</time></trkpt><trkpt lat="42.69908092081513" lon="-3.8042856576462762"><ele>827.1666666666666</ele><time>2026-05-02T15:15:39Z</time></trkpt><trkpt lat="42.69899524908981" lon="-3.804299213960536"><ele>828.3333333333333</ele><time>2026-05-02T15:15:40Z</time></trkpt><trkpt lat="42.69891504740559" lon="-3.804310362342418"><ele>829.5</ele><time>2026-05-02T15:15:41Z</time></trkpt><trkpt lat="42.69883165622766" lon="-3.804322968422255"><ele>830.6666666666667</ele><time>2026-05-02T15:15:42Z</time></trkpt><trkpt lat="42.698748808279255" lon="-3.804342714639288"><ele>831.8333333333334</ele><time>2026-05-02T15:15:43Z</time></trkpt><trkpt lat="42.69866815091158" lon="-3.804358119151932"><ele>833.0</ele><time>2026-05-02T15:15:44Z</time></trkpt><trkpt lat="42.698585212944344" lon="-3.8043761105797675"><ele>837.5000000000001</ele><time>2026-05-02T15:15:45Z</time></trkpt><trkpt lat="42.69850586384925" lon="-3.80439532375543"><ele>842.0</ele><time>2026-05-02T15:15:46Z</time></trkpt><trkpt lat="42.69842533260434" lon="-3.8044119621011343"><ele>846.5</ele><time>2026-05-02T15:15:47Z</time></trkpt><trkpt lat="42.698343834251176" lon="-3.8044285918997582"><ele>851.0</ele><time>2026-05-02T15:15:48Z</time></trkpt><trkpt lat="42.6982650293279" lon="-3.80445511919211"><ele>855.5000000000001</ele><time>2026-05-02T15:15:49Z</time></trkpt><trkpt lat="42.69818447618209" lon="-3.804476788387318"><ele>860.0</ele><time>2026-05-02T15:15:50Z</time></trkpt><trkpt lat="42.69810682109656" lon="-3.804500244089403"><ele>860.0000000000001</ele><time>2026-05-02T15:15:51Z</time></trkpt><trkpt lat="42.69802807401933" lon="-3.8045247109152975"><ele>860.0</ele><time>2026-05-02T15:15:52Z</time></trkpt><trkpt lat="42.69794732800894" lon="-3.8045443315306704"><ele>860.0</ele><time>2026-05-02T15:15:53Z</time></trkpt><trkpt lat="42.697868504809335" lon="-3.804564481466732"><ele>860.0</ele><time>2026-05-02T15:15:54Z</time></trkpt><trkpt lat="42.69778963286522" lon="-3.804585823241004"><ele>860.0000000000001</ele><time>2026-05-02T15:15:55Z</time></trkpt><trkpt lat="42.69771065479541" lon="-3.8046040053984056"><ele>860.0</ele><time>2026-05-02T15:15:56Z</time></trkpt><trkpt lat="42.69763152591323" lon="-3.8046201472245054"><ele>859.6666666666667</ele><time>2026-05-02T15:15:57Z</time></trkpt><trkpt lat="42.697550265231584" lon="-3.804627432002333"><ele>859.3333333333334</ele><time>2026-05-02T15:15:58Z</time></trkpt><trkpt lat="42.69747192931229" lon="-3.8046340411783803"><ele>859.0</ele><time>2026-05-02T15:15:59Z</time></trkpt><trkpt lat="42.69739269728491" lon="-3.804631489711272"><ele>858.6666666666667</ele><time>2026-05-02T15:16:00Z</time></trkpt><trkpt lat="42.697313210976816" lon="-3.804633343185831"><ele>858.3333333333334</ele><time>2026-05-02T15:16:01Z</time></trkpt><trkpt lat="42.69723550664381" lon="-3.804628294919125"><ele>858.0</ele><time>2026-05-02T15:16:02Z</time></trkpt><trkpt lat="42.69715794327396" lon="-3.804622650378917"><ele>858.0</ele><time>2026-05-02T15:16:03Z</time></trkpt><trkpt lat="42.697078762550326" lon="-3.8046031121957005"><ele>858.0</ele><time>2026-05-02T15:16:04Z</time></trkpt><trkpt lat="42.69699928484537" lon="-3.804577128927606"><ele>858.0</ele><time>2026-05-02T15:16:05Z</time></trkpt><trkpt lat="42.696922055760076" lon="-3.8045473899893385"><ele>858.0</ele><time>2026-05-02T15:16:06Z</time></trkpt><trkpt lat="42.69684461711776" lon="-3.804515864089706"><ele>858.0</ele><time>2026-05-02T15:16:07Z</time></trkpt><trkpt lat="42.69676983367073" lon="-3.804479423660063"><ele>858.0</ele><time>2026-05-02T15:16:08Z</time></trkpt><trkpt lat="42.696694168002146" lon="-3.804433690516941"><ele>858.1666666666666</ele><time>2026-05-02T15:16:09Z</time></trkpt><trkpt lat="42.69661961670525" lon="-3.804379379533813"><ele>858.3333333333333</ele><time>2026-05-02T15:16:10Z</time></trkpt><trkpt lat="42.69654456959637" lon="-3.804329397521819"><ele>858.5</ele><time>2026-05-02T15:16:11Z</time></trkpt><trkpt lat="42.696473772564694" lon="-3.8042694269585153"><ele>858.6666666666666</ele><time>2026-05-02T15:16:12Z</time></trkpt><trkpt lat="42.69640180827008" lon="-3.8042149028126206"><ele>858.8333333333333</ele><time>2026-05-02T15:16:13Z</time></trkpt><trkpt lat="42.69632840099183" lon="-3.8041549631066878"><ele>859.0</ele><time>2026-05-02T15:16:14Z</time></trkpt><trkpt lat="42.69625622395727" lon="-3.804096253139466"><ele>859.6666666666666</ele><time>2026-05-02T15:16:15Z</time></trkpt><trkpt lat="42.69618412415122" lon="-3.8040322230669674"><ele>860.3333333333333</ele><time>2026-05-02T15:16:16Z</time></trkpt><trkpt lat="42.696113508415564" lon="-3.803966567767085"><ele>861.0</ele><time>2026-05-02T15:16:17Z</time></trkpt><trkpt lat="42.69604338571838" lon="-3.8039055081855033"><ele>861.6666666666667</ele><time>2026-05-02T15:16:18Z</time></trkpt><trkpt lat="42.695972527175144" lon="-3.803844139195183"><ele>862.3333333333334</ele><time>2026-05-02T15:16:19Z</time></trkpt><trkpt lat="42.69590300041551" lon="-3.8037801210118953"><ele>863.0</ele><time>2026-05-02T15:16:20Z</time></trkpt><trkpt lat="42.69583370404307" lon="-3.8037190505884255"><ele>863.0000000000001</ele><time>2026-05-02T15:16:21Z</time></trkpt><trkpt lat="42.69576431274004" lon="-3.803661730885069"><ele>863.0</ele><time>2026-05-02T15:16:22Z</time></trkpt><trkpt lat="42.69569139158229" lon="-3.803601553558067"><ele>863.0</ele><time>2026-05-02T15:16:23Z</time></trkpt><trkpt lat="42.69562063924348" lon="-3.80354277281693"><ele>863.0</ele><time>2026-05-02T15:16:24Z</time></trkpt><trkpt lat="42.695544264831845" lon="-3.8034891956214163"><ele>863.0000000000001</ele><time>2026-05-02T15:16:25.001Z</time></trkpt><trkpt lat="42.695477403173975" lon="-3.8034270412171556"><ele>863.0</ele><time>2026-05-02T15:16:26.001Z</time></trkpt><trkpt lat="42.695407819872095" lon="-3.8033671846991517"><ele>862.6666666666667</ele><time>2026-05-02T15:16:27.001Z</time></trkpt><trkpt lat="42.69533859621037" lon="-3.8033075482096823"><ele>862.3333333333334</ele><time>2026-05-02T15:16:28.001Z</time></trkpt><trkpt lat="42.69526761783916" lon="-3.8032536886701234"><ele>862.0</ele><time>2026-05-02T15:16:29.001Z</time></trkpt><trkpt lat="42.69519686798555" lon="-3.803200917417993"><ele>861.6666666666667</ele><time>2026-05-02T15:16:30.001Z</time></trkpt><trkpt lat="42.695124799434566" lon="-3.803142664955189"><ele>861.3333333333334</ele><time>2026-05-02T15:16:31.001Z</time></trkpt><trkpt lat="42.69505141449746" lon="-3.8030867439652276"><ele>861.0</ele><time>2026-05-02T15:16:32.001Z</time></trkpt><trkpt lat="42.69497814923336" lon="-3.8030384692289907"><ele>861.8333333333334</ele><time>2026-05-02T15:16:33.001Z</time></trkpt><trkpt lat="42.69489704702935" lon="-3.802994459802386"><ele>862.6666666666667</ele><time>2026-05-02T15:16:34.001Z</time></trkpt><trkpt lat="42.69482567061965" lon="-3.8029495420241"><ele>863.5</ele><time>2026-05-02T15:16:35.001Z</time></trkpt><trkpt lat="42.69475342684501" lon="-3.8029024189339573"><ele>864.3333333333334</ele><time>2026-05-02T15:16:36.001Z</time></trkpt><trkpt lat="42.694677327463104" lon="-3.8028613858235785"><ele>865.1666666666667</ele><time>2026-05-02T15:16:37.001Z</time></trkpt><trkpt lat="42.694601241764914" lon="-3.802822155736286"><ele>866.0</ele><time>2026-05-02T15:16:38.001Z</time></trkpt><trkpt lat="42.69452435128821" lon="-3.802784200649287"><ele>866.0000000000001</ele><time>2026-05-02T15:16:39.001Z</time></trkpt><trkpt lat="42.69444649410834" lon="-3.8027459137975033"><ele>866.0</ele><time>2026-05-02T15:16:40.001Z</time></trkpt><trkpt lat="42.694369684233195" lon="-3.802710781904781"><ele>866.0</ele><time>2026-05-02T15:16:41.001Z</time></trkpt><trkpt lat="42.694291798567484" lon="-3.802679306336206"><ele>866.0</ele><time>2026-05-02T15:16:42.001Z</time></trkpt><trkpt lat="42.694212181135704" lon="-3.8026518713637194"><ele>866.0000000000001</ele><time>2026-05-02T15:16:43.001Z</time></trkpt><trkpt lat="42.694134105147114" lon="-3.8026249354012256"><ele>866.0</ele><time>2026-05-02T15:16:44.001Z</time></trkpt><trkpt lat="42.694055541802506" lon="-3.802597812851626"><ele>865.8333333333334</ele><time>2026-05-02T15:16:45.001Z</time></trkpt><trkpt lat="42.69397630790284" lon="-3.8025676245266125"><ele>865.6666666666667</ele><time>2026-05-02T15:16:46.001Z</time></trkpt><trkpt lat="42.69389714062528" lon="-3.802546924956851"><ele>865.5</ele><time>2026-05-02T15:16:47.001Z</time></trkpt><trkpt lat="42.693815438364005" lon="-3.8025281099930033"><ele>865.3333333333333</ele><time>2026-05-02T15:16:48.001Z</time></trkpt><trkpt lat="42.69373445253206" lon="-3.8025110413701184"><ele>865.1666666666666</ele><time>2026-05-02T15:16:49.001Z</time></trkpt><trkpt lat="42.69365272556403" lon="-3.802487069320114"><ele>865.0</ele><time>2026-05-02T15:16:50.001Z</time></trkpt><trkpt lat="42.69356929920811" lon="-3.802467430529448"><ele>865.9999999999999</ele><time>2026-05-02T15:16:51.001Z</time></trkpt><trkpt lat="42.69348419956654" lon="-3.80245150053633"><ele>867.0</ele><time>2026-05-02T15:16:52.001Z</time></trkpt><trkpt lat="42.693397586525116" lon="-3.802432912490416"><ele>868.0</ele><time>2026-05-02T15:16:53.001Z</time></trkpt><trkpt lat="42.69331200950163" lon="-3.802413753993999"><ele>869.0</ele><time>2026-05-02T15:16:54.001Z</time></trkpt><trkpt lat="42.69322720275218" lon="-3.802398590264669"><ele>869.9999999999999</ele><time>2026-05-02T15:16:55.001Z</time></trkpt><trkpt lat="42.69314120726524" lon="-3.802384420666744"><ele>871.0</ele><time>2026-05-02T15:16:56.001Z</time></trkpt><trkpt lat="42.69305065713489" lon="-3.802362758326398"><ele>870.9999999999999</ele><time>2026-05-02T15:16:57.001Z</time></trkpt><trkpt lat="42.6929650862215" lon="-3.802346322290309"><ele>871.0</ele><time>2026-05-02T15:16:58.001Z</time></trkpt><trkpt lat="42.69287626053365" lon="-3.802328976487503"><ele>871.0</ele><time>2026-05-02T15:16:58.999Z</time></trkpt><trkpt lat="42.6927886384371" lon="-3.8023087755208205"><ele>871.0</ele><time>2026-05-02T15:16:59.999Z</time></trkpt><trkpt lat="42.69269730217362" lon="-3.80229249788202"><ele>870.9999999999999</ele><time>2026-05-02T15:17:00.999Z</time></trkpt><trkpt lat="42.692609102642535" lon="-3.8022736542643836"><ele>871.0</ele><time>2026-05-02T15:17:01.999Z</time></trkpt><trkpt lat="42.69252004465129" lon="-3.8022662855651723"><ele>872.4</ele><time>2026-05-02T15:17:02.999Z</time></trkpt><trkpt lat="42.69242774215348" lon="-3.8022438744426847"><ele>873.8</ele><time>2026-05-02T15:17:03.999Z</time></trkpt><trkpt lat="42.69233682421341" lon="-3.802228424588322"><ele>875.1999999999999</ele><time>2026-05-02T15:17:04.999Z</time></trkpt><trkpt lat="42.69224737677154" lon="-3.8022097111469404"><ele>876.5999999999999</ele><time>2026-05-02T15:17:05.999Z</time></trkpt><trkpt lat="42.69215700966289" lon="-3.8021933036614577"><ele>878.0</ele><time>2026-05-02T15:17:06.999Z</time></trkpt><trkpt lat="42.69206245139783" lon="-3.8021819402948145"><ele>878.0</ele><time>2026-05-02T15:17:07.999Z</time></trkpt><trkpt lat="42.69197372395934" lon="-3.8021648505933014"><ele>878.0</ele><time>2026-05-02T15:17:08.999Z</time></trkpt><trkpt lat="42.69188397399745" lon="-3.802147988005935"><ele>878.0</ele><time>2026-05-02T15:17:09.999Z</time></trkpt><trkpt lat="42.69179152941691" lon="-3.802131138818223"><ele>878.0</ele><time>2026-05-02T15:17:10.999Z</time></trkpt><trkpt lat="42.691700512570634" lon="-3.802115237338444"><ele>878.0</ele><time>2026-05-02T15:17:11.999Z</time></trkpt><trkpt lat="42.691609585251165" lon="-3.8020979090210956"><ele>877.8</ele><time>2026-05-02T15:17:12.999Z</time></trkpt><trkpt lat="42.691521265072005" lon="-3.8020785221420272"><ele>877.5999999999999</ele><time>2026-05-02T15:17:13.999Z</time></trkpt><trkpt lat="42.69142797970099" lon="-3.8020573419162473"><ele>877.4000000000001</ele><time>2026-05-02T15:17:14.999Z</time></trkpt><trkpt lat="42.691336346841446" lon="-3.802037141477559"><ele>877.2</ele><time>2026-05-02T15:17:15.999Z</time></trkpt><trkpt lat="42.69124688169075" lon="-3.8020212718295445"><ele>877.0</ele><time>2026-05-02T15:17:16.999Z</time></trkpt><trkpt lat="42.69115560221635" lon="-3.802005076068447"><ele>877.4000000000001</ele><time>2026-05-02T15:17:17.999Z</time></trkpt><trkpt lat="42.691066872394984" lon="-3.80199026662456"><ele>877.8000000000001</ele><time>2026-05-02T15:17:18.999Z</time></trkpt><trkpt lat="42.690977117842095" lon="-3.8019707860302963"><ele>878.2</ele><time>2026-05-02T15:17:19.999Z</time></trkpt><trkpt lat="42.69088362665037" lon="-3.801947675563399"><ele>878.6</ele><time>2026-05-02T15:17:21Z</time></trkpt><trkpt lat="42.690794670437505" lon="-3.8019294697061823"><ele>879.0</ele><time>2026-05-02T15:17:22Z</time></trkpt><trkpt lat="42.69070541506195" lon="-3.8019077409664965"><ele>879.0</ele><time>2026-05-02T15:17:23Z</time></trkpt><trkpt lat="42.69061851459481" lon="-3.8018825606242816"><ele>879.0</ele><time>2026-05-02T15:17:24Z</time></trkpt><trkpt lat="42.690531187828576" lon="-3.8018536846364963"><ele>879.0</ele><time>2026-05-02T15:17:25Z</time></trkpt><trkpt lat="42.69044226283551" lon="-3.801819339603567"><ele>879.0</ele><time>2026-05-02T15:17:26Z</time></trkpt><trkpt lat="42.69036024110525" lon="-3.8017837959051803"><ele>879.0</ele><time>2026-05-02T15:17:27Z</time></trkpt><trkpt lat="42.690276406824104" lon="-3.8017413066542507"><ele>879.0</ele><time>2026-05-02T15:17:28Z</time></trkpt><trkpt lat="42.690194368188244" lon="-3.801690272222463"><ele>879.1666666666666</ele><time>2026-05-02T15:17:29Z</time></trkpt><trkpt lat="42.69011413837481" lon="-3.8016378034373237"><ele>879.3333333333333</ele><time>2026-05-02T15:17:30Z</time></trkpt><trkpt lat="42.69003488569" lon="-3.801584097279864"><ele>879.5</ele><time>2026-05-02T15:17:31Z</time></trkpt><trkpt lat="42.68995177099441" lon="-3.8015321077387556"><ele>879.6666666666666</ele><time>2026-05-02T15:17:32Z</time></trkpt><trkpt lat="42.68987597329232" lon="-3.8014696474886915"><ele>879.8333333333333</ele><time>2026-05-02T15:17:33Z</time></trkpt><trkpt lat="42.689797961609656" lon="-3.8014038421366165"><ele>880.0</ele><time>2026-05-02T15:17:34Z</time></trkpt><trkpt lat="42.689720206934616" lon="-3.8013351285005186"><ele>880.0</ele><time>2026-05-02T15:17:35Z</time></trkpt><trkpt lat="42.68964893443732" lon="-3.8012581588450893"><ele>880.0</ele><time>2026-05-02T15:17:36Z</time></trkpt><trkpt lat="42.68957753434911" lon="-3.801179532248945"><ele>880.0</ele><time>2026-05-02T15:17:37Z</time></trkpt><trkpt lat="42.68951144523965" lon="-3.8010933266798244"><ele>880.0</ele><time>2026-05-02T15:17:38Z</time></trkpt><trkpt lat="42.689445176025984" lon="-3.8010071031469486"><ele>880.0</ele><time>2026-05-02T15:17:39Z</time></trkpt><trkpt lat="42.68938257740805" lon="-3.8009171108090674"><ele>881.9999999999999</ele><time>2026-05-02T15:17:40Z</time></trkpt><trkpt lat="42.68932276390039" lon="-3.8008256980606254"><ele>884.0</ele><time>2026-05-02T15:17:41Z</time></trkpt><trkpt lat="42.689265018563766" lon="-3.8007309061023955"><ele>886.0</ele><time>2026-05-02T15:17:42Z</time></trkpt><trkpt lat="42.68921148711627" lon="-3.800633605427903"><ele>888.0</ele><time>2026-05-02T15:17:43Z</time></trkpt><trkpt lat="42.68916176777747" lon="-3.8005355473053792"><ele>889.9999999999999</ele><time>2026-05-02T15:17:44Z</time></trkpt><trkpt lat="42.68911571054159" lon="-3.800431053619363"><ele>892.0</ele><time>2026-05-02T15:17:45Z</time></trkpt><trkpt lat="42.689071909118255" lon="-3.8003246990127852"><ele>891.9999999999999</ele><time>2026-05-02T15:17:46Z</time></trkpt><trkpt lat="42.68902826196021" lon="-3.800218258867079"><ele>892.0</ele><time>2026-05-02T15:17:47Z</time></trkpt><trkpt lat="42.68898557342118" lon="-3.80011190618727"><ele>892.0</ele><time>2026-05-02T15:17:48Z</time></trkpt><trkpt lat="42.68894568661514" lon="-3.8000021217590563"><ele>892.0</ele><time>2026-05-02T15:17:49Z</time></trkpt><trkpt lat="42.688908142237885" lon="-3.799892692588121"><ele>891.9999999999999</ele><time>2026-05-02T15:17:50Z</time></trkpt><trkpt lat="42.68887301785058" lon="-3.7997795571794755"><ele>892.0</ele><time>2026-05-02T15:17:51Z</time></trkpt><trkpt lat="42.68883927944205" lon="-3.799665516825503"><ele>892.6</ele><time>2026-05-02T15:17:52Z</time></trkpt><trkpt lat="42.68880246496709" lon="-3.7995542827798023"><ele>893.2</ele><time>2026-05-02T15:17:53Z</time></trkpt><trkpt lat="42.68876237551829" lon="-3.7994427497226675"><ele>893.8</ele><time>2026-05-02T15:17:54Z</time></trkpt><trkpt lat="42.688724595575074" lon="-3.7993303036557453"><ele>894.4</ele><time>2026-05-02T15:17:55Z</time></trkpt><trkpt lat="42.688689684241666" lon="-3.799216864182578"><ele>895.0</ele><time>2026-05-02T15:17:56Z</time></trkpt><trkpt lat="42.688655078717034" lon="-3.7991040197474057"><ele>895.0</ele><time>2026-05-02T15:17:57Z</time></trkpt><trkpt lat="42.688619147311336" lon="-3.79898909756753"><ele>895.0</ele><time>2026-05-02T15:17:58Z</time></trkpt><trkpt lat="42.68858215010012" lon="-3.7988757083606433"><ele>895.0</ele><time>2026-05-02T15:17:59Z</time></trkpt><trkpt lat="42.688543322636725" lon="-3.798762925402419"><ele>895.0</ele><time>2026-05-02T15:18:00Z</time></trkpt><trkpt lat="42.68849735337755" lon="-3.7986562227451706"><ele>895.0</ele><time>2026-05-02T15:18:01.001Z</time></trkpt><trkpt lat="42.688459358932484" lon="-3.7985440945782094"><ele>894.3333333333333</ele><time>2026-05-02T15:18:02.001Z</time></trkpt><trkpt lat="42.68842035921646" lon="-3.798433177502016"><ele>893.6666666666666</ele><time>2026-05-02T15:18:03.001Z</time></trkpt><trkpt lat="42.68838086284526" lon="-3.7983233098122207"><ele>893.0</ele><time>2026-05-02T15:18:04.001Z</time></trkpt><trkpt lat="42.68833891068461" lon="-3.798213399214603"><ele>892.3333333333333</ele><time>2026-05-02T15:18:05.001Z</time></trkpt><trkpt lat="42.688300125879096" lon="-3.798104331926358"><ele>891.6666666666666</ele><time>2026-05-02T15:18:06.001Z</time></trkpt><trkpt lat="42.68826106206375" lon="-3.797996449847089"><ele>891.0</ele><time>2026-05-02T15:18:07.001Z</time></trkpt><trkpt lat="42.68821966621513" lon="-3.7978901538427765"><ele>891.0</ele><time>2026-05-02T15:18:08.001Z</time></trkpt><trkpt lat="42.68817453280214" lon="-3.7977861605092817"><ele>891.0</ele><time>2026-05-02T15:18:09.001Z</time></trkpt><trkpt lat="42.68813147752386" lon="-3.797681034426314"><ele>891.0</ele><time>2026-05-02T15:18:10.001Z</time></trkpt><trkpt lat="42.68808747471991" lon="-3.7975786543798966"><ele>891.0</ele><time>2026-05-02T15:18:11.001Z</time></trkpt><trkpt lat="42.68803918191032" lon="-3.797484590720466"><ele>891.0</ele><time>2026-05-02T15:18:12.001Z</time></trkpt><trkpt lat="42.68798832526113" lon="-3.797385621997198"><ele>891.0</ele><time>2026-05-02T15:18:13.001Z</time></trkpt><trkpt lat="42.687936999005274" lon="-3.797292337866526"><ele>892.0</ele><time>2026-05-02T15:18:14.001Z</time></trkpt><trkpt lat="42.68788494513937" lon="-3.7972033019338625"><ele>893.0</ele><time>2026-05-02T15:18:15.001Z</time></trkpt><trkpt lat="42.68782673891169" lon="-3.797125126299002"><ele>894.0</ele><time>2026-05-02T15:18:16.001Z</time></trkpt><trkpt lat="42.68776580555496" lon="-3.79704218234559"><ele>895.0</ele><time>2026-05-02T15:18:17.001Z</time></trkpt><trkpt lat="42.68770755509289" lon="-3.796961899715688"><ele>896.0</ele><time>2026-05-02T15:18:18.001Z</time></trkpt><trkpt lat="42.68765148011557" lon="-3.7968847023645824"><ele>897.0</ele><time>2026-05-02T15:18:19.001Z</time></trkpt><trkpt lat="42.687584845653724" lon="-3.796817252835322"><ele>899.1666666666666</ele><time>2026-05-02T15:18:20.001Z</time></trkpt><trkpt lat="42.68751677953767" lon="-3.7967538268843315"><ele>901.3333333333333</ele><time>2026-05-02T15:18:21.001Z</time></trkpt><trkpt lat="42.68744921651744" lon="-3.7966942912464496"><ele>903.5</ele><time>2026-05-02T15:18:22.001Z</time></trkpt><trkpt lat="42.68738105908363" lon="-3.7966377332011363"><ele>905.6666666666666</ele><time>2026-05-02T15:18:23.001Z</time></trkpt><trkpt lat="42.68731254027362" lon="-3.7965805546252795"><ele>907.8333333333333</ele><time>2026-05-02T15:18:24.001Z</time></trkpt><trkpt lat="42.687242189604014" lon="-3.7965260426291034"><ele>910.0</ele><time>2026-05-02T15:18:25.001Z</time></trkpt><trkpt lat="42.68717149129082" lon="-3.796479296022984"><ele>909.9999999999999</ele><time>2026-05-02T15:18:26.001Z</time></trkpt><trkpt lat="42.68709742085346" lon="-3.79643144234409"><ele>910.0</ele><time>2026-05-02T15:18:27.001Z</time></trkpt><trkpt lat="42.68702372756481" lon="-3.796382457836402"><ele>910.0</ele><time>2026-05-02T15:18:28.001Z</time></trkpt><trkpt lat="42.68694706209164" lon="-3.7963421131570816"><ele>910.0</ele><time>2026-05-02T15:18:29.001Z</time></trkpt><trkpt lat="42.68687389592704" lon="-3.7963055827437544"><ele>909.9999999999999</ele><time>2026-05-02T15:18:30.001Z</time></trkpt><trkpt lat="42.68679663132619" lon="-3.7962748187020217"><ele>910.0</ele><time>2026-05-02T15:18:31.001Z</time></trkpt><trkpt lat="42.68671818897505" lon="-3.7962489932105155"><ele>909.1428571428571</ele><time>2026-05-02T15:18:32.001Z</time></trkpt><trkpt lat="42.686645694434844" lon="-3.7962237605342994"><ele>908.2857142857142</ele><time>2026-05-02T15:18:33.001Z</time></trkpt><trkpt lat="42.68657227573605" lon="-3.796202170725388"><ele>907.4285714285714</ele><time>2026-05-02T15:18:34.001Z</time></trkpt><trkpt lat="42.68650049955938" lon="-3.796188050883731"><ele>906.5714285714286</ele><time>2026-05-02T15:18:35.001Z</time></trkpt><trkpt lat="42.68642740053354" lon="-3.7961667896425344"><ele>905.7142857142857</ele><time>2026-05-02T15:18:36.001Z</time></trkpt><trkpt lat="42.686353422745704" lon="-3.7961561116704714"><ele>904.8571428571429</ele><time>2026-05-02T15:18:37.001Z</time></trkpt><trkpt lat="42.68627993450005" lon="-3.7961487606375077"><ele>904.0</ele><time>2026-05-02T15:18:38.001Z</time></trkpt><trkpt lat="42.68620352965963" lon="-3.7961436256899983"><ele>904.0</ele><time>2026-05-02T15:18:39.001Z</time></trkpt><trkpt lat="42.68613175238724" lon="-3.7961440650657305"><ele>904.0</ele><time>2026-05-02T15:18:40.001Z</time></trkpt><trkpt lat="42.68606008346206" lon="-3.7961496411003326"><ele>904.0</ele><time>2026-05-02T15:18:41.001Z</time></trkpt><trkpt lat="42.68599200758107" lon="-3.796157434382556"><ele>904.0</ele><time>2026-05-02T15:18:42.001Z</time></trkpt><trkpt lat="42.685920934207786" lon="-3.7961701964956296"><ele>904.0</ele><time>2026-05-02T15:18:43.001Z</time></trkpt><trkpt lat="42.685852433407945" lon="-3.7961773261833853"><ele>904.0</ele><time>2026-05-02T15:18:44.001Z</time></trkpt><trkpt lat="42.68578363892543" lon="-3.7961892095225553"><ele>904.0</ele><time>2026-05-02T15:18:45.001Z</time></trkpt><trkpt lat="42.685713601377" lon="-3.7962044942684843"><ele>904.0</ele><time>2026-05-02T15:18:46.001Z</time></trkpt><trkpt lat="42.68564724136029" lon="-3.7962220589742843"><ele>904.0</ele><time>2026-05-02T15:18:47.001Z</time></trkpt><trkpt lat="42.68557947710635" lon="-3.796244686031593"><ele>904.0</ele><time>2026-05-02T15:18:48.001Z</time></trkpt><trkpt lat="42.685514595090744" lon="-3.796271114178146"><ele>904.0</ele><time>2026-05-02T15:18:49.001Z</time></trkpt><trkpt lat="42.6854505449295" lon="-3.7963046024360505"><ele>904.0</ele><time>2026-05-02T15:18:50.001Z</time></trkpt><trkpt lat="42.685382435872064" lon="-3.7963359014489146"><ele>904.0</ele><time>2026-05-02T15:18:51.001Z</time></trkpt><trkpt lat="42.68531808712459" lon="-3.796359219470861"><ele>904.0</ele><time>2026-05-02T15:18:52.001Z</time></trkpt><trkpt lat="42.68525421783683" lon="-3.7963831698096104"><ele>905.7142857142858</ele><time>2026-05-02T15:18:53.001Z</time></trkpt><trkpt lat="42.685192699101286" lon="-3.796424107132245"><ele>907.4285714285713</ele><time>2026-05-02T15:18:54.002Z</time></trkpt><trkpt lat="42.68513152219991" lon="-3.796458007230608"><ele>909.1428571428571</ele><time>2026-05-02T15:18:55.002Z</time></trkpt><trkpt lat="42.68507320015364" lon="-3.7964953053937065"><ele>910.8571428571429</ele><time>2026-05-02T15:18:56.002Z</time></trkpt><trkpt lat="42.685012457725655" lon="-3.796536927479509"><ele>912.5714285714287</ele><time>2026-05-02T15:18:57.002Z</time></trkpt><trkpt lat="42.68495308115636" lon="-3.796574574592632"><ele>914.2857142857142</ele><time>2026-05-02T15:18:58.002Z</time></trkpt><trkpt lat="42.68489586265026" lon="-3.796614452032387"><ele>916.0</ele><time>2026-05-02T15:18:59.002Z</time></trkpt><trkpt lat="42.68483714910403" lon="-3.796655832712517"><ele>916.0</ele><time>2026-05-02T15:19:00.002Z</time></trkpt><trkpt lat="42.68477862663582" lon="-3.796698127624121"><ele>916.0</ele><time>2026-05-02T15:19:01.002Z</time></trkpt><trkpt lat="42.68471919183832" lon="-3.7967390556389082"><ele>916.0</ele><time>2026-05-02T15:19:02.002Z</time></trkpt><trkpt lat="42.68466011023409" lon="-3.7967775299985855"><ele>916.0</ele><time>2026-05-02T15:19:03.002Z</time></trkpt><trkpt lat="42.68460155231887" lon="-3.796819581971132"><ele>916.0</ele><time>2026-05-02T15:19:04.002Z</time></trkpt><trkpt lat="42.68454230016561" lon="-3.796861838480616"><ele>916.0</ele><time>2026-05-02T15:19:05Z</time></trkpt><trkpt lat="42.68448204906883" lon="-3.7969036751065883"><ele>916.0</ele><time>2026-05-02T15:19:06Z</time></trkpt><trkpt lat="42.68442038932172" lon="-3.796946563696639"><ele>917.5714285714286</ele><time>2026-05-02T15:19:07Z</time></trkpt><trkpt lat="42.68435848046411" lon="-3.796987154802538"><ele>919.1428571428571</ele><time>2026-05-02T15:19:08Z</time></trkpt><trkpt lat="42.68429485777164" lon="-3.7970283499343975"><ele>920.7142857142857</ele><time>2026-05-02T15:19:09Z</time></trkpt><trkpt lat="42.684232686822405" lon="-3.7970712832650477"><ele>922.2857142857142</ele><time>2026-05-02T15:19:10Z</time></trkpt><trkpt lat="42.68417133811766" lon="-3.797116370465302"><ele>923.8571428571429</ele><time>2026-05-02T15:19:11Z</time></trkpt><trkpt lat="42.684104809900134" lon="-3.797160290969845"><ele>925.4285714285713</ele><time>2026-05-02T15:19:12Z</time></trkpt><trkpt lat="42.68403919359704" lon="-3.797201884474218"><ele>926.9999999999999</ele><time>2026-05-02T15:19:13Z</time></trkpt><trkpt lat="42.683972436400744" lon="-3.797247496101441"><ele>926.9999999999999</ele><time>2026-05-02T15:19:14Z</time></trkpt><trkpt lat="42.68390621597658" lon="-3.7972940955166914"><ele>927.0</ele><time>2026-05-02T15:19:15Z</time></trkpt><trkpt lat="42.683840571078505" lon="-3.797341503672744"><ele>926.9999999999999</ele><time>2026-05-02T15:19:16Z</time></trkpt><trkpt lat="42.68377367416778" lon="-3.7973877776042158"><ele>926.9999999999999</ele><time>2026-05-02T15:19:17Z</time></trkpt><trkpt lat="42.68370672911289" lon="-3.797431562818313"><ele>927.0</ele><time>2026-05-02T15:19:18Z</time></trkpt><trkpt lat="42.68363996429178" lon="-3.7974743015138"><ele>926.9999999999999</ele><time>2026-05-02T15:19:19Z</time></trkpt><trkpt lat="42.68357093424821" lon="-3.7975205370879097"><ele>926.9999999999999</ele><time>2026-05-02T15:19:20Z</time></trkpt><trkpt lat="42.68350397509673" lon="-3.7975650094438462"><ele>926.3333333333334</ele><time>2026-05-02T15:19:21Z</time></trkpt><trkpt lat="42.6834358813242" lon="-3.7976085105650474"><ele>925.6666666666667</ele><time>2026-05-02T15:19:22Z</time></trkpt><trkpt lat="42.683365111155894" lon="-3.7976524843187183"><ele>925.0</ele><time>2026-05-02T15:19:23Z</time></trkpt><trkpt lat="42.68329551264763" lon="-3.79769744922292"><ele>924.3333333333334</ele><time>2026-05-02T15:19:24Z</time></trkpt><trkpt lat="42.683227382079046" lon="-3.797737302231355"><ele>923.6666666666667</ele><time>2026-05-02T15:19:25Z</time></trkpt><trkpt lat="42.6831559630336" lon="-3.7977769530704397"><ele>923.0</ele><time>2026-05-02T15:19:26Z</time></trkpt><trkpt lat="42.68308282226825" lon="-3.7978125333817565"><ele>923.0000000000001</ele><time>2026-05-02T15:19:27Z</time></trkpt><trkpt lat="42.68300901620483" lon="-3.797848807255576"><ele>923.0</ele><time>2026-05-02T15:19:28Z</time></trkpt><trkpt lat="42.68293366679556" lon="-3.7978835998036535"><ele>923.0</ele><time>2026-05-02T15:19:29Z</time></trkpt><trkpt lat="42.68285769287965" lon="-3.7979198318720537"><ele>923.0</ele><time>2026-05-02T15:19:30Z</time></trkpt><trkpt lat="42.682779979402895" lon="-3.797954753020634"><ele>923.0000000000001</ele><time>2026-05-02T15:19:31Z</time></trkpt><trkpt lat="42.68270124118922" lon="-3.7979840548281865"><ele>923.0</ele><time>2026-05-02T15:19:32Z</time></trkpt><trkpt lat="42.68262177559119" lon="-3.7980107551074593"><ele>924.5000000000001</ele><time>2026-05-02T15:19:33Z</time></trkpt><trkpt lat="42.68254303724812" lon="-3.7980362456575176"><ele>926.0</ele><time>2026-05-02T15:19:34Z</time></trkpt><trkpt lat="42.68246485574668" lon="-3.7980654195426604"><ele>927.5</ele><time>2026-05-02T15:19:35.001Z</time></trkpt><trkpt lat="42.68238813340531" lon="-3.7980968640203665"><ele>929.0</ele><time>2026-05-02T15:19:36.001Z</time></trkpt><trkpt lat="42.6823086312707" lon="-3.7981307650610137"><ele>930.5000000000001</ele><time>2026-05-02T15:19:37.001Z</time></trkpt><trkpt lat="42.682230695206876" lon="-3.798162885406635"><ele>932.0</ele><time>2026-05-02T15:19:38.001Z</time></trkpt><trkpt lat="42.68215600196682" lon="-3.79819687651074"><ele>932.0000000000001</ele><time>2026-05-02T15:19:39.001Z</time></trkpt><trkpt lat="42.68207993569479" lon="-3.7982298204995564"><ele>932.0</ele><time>2026-05-02T15:19:40.001Z</time></trkpt><trkpt lat="42.68200316223385" lon="-3.7982594326231602"><ele>932.0</ele><time>2026-05-02T15:19:41.001Z</time></trkpt><trkpt lat="42.68192740013537" lon="-3.7982849617902295"><ele>932.0</ele><time>2026-05-02T15:19:42.001Z</time></trkpt><trkpt lat="42.68185309028798" lon="-3.798304643893743"><ele>932.0000000000001</ele><time>2026-05-02T15:19:43.001Z</time></trkpt><trkpt lat="42.68177929827734" lon="-3.7983169892283635"><ele>932.0</ele><time>2026-05-02T15:19:44.001Z</time></trkpt><trkpt lat="42.68170708895848" lon="-3.7983222210176746"><ele>933.2857142857143</ele><time>2026-05-02T15:19:45.001Z</time></trkpt><trkpt lat="42.681635683237715" lon="-3.7983227365185823"><ele>934.5714285714284</ele><time>2026-05-02T15:19:46.001Z</time></trkpt><trkpt lat="42.68156288391942" lon="-3.798320652725884"><ele>935.8571428571428</ele><time>2026-05-02T15:19:47.001Z</time></trkpt><trkpt lat="42.681490371586335" lon="-3.7983107445498163"><ele>937.1428571428571</ele><time>2026-05-02T15:19:48.001Z</time></trkpt><trkpt lat="42.6814192878743" lon="-3.7982964084401134"><ele>938.4285714285713</ele><time>2026-05-02T15:19:49.001Z</time></trkpt><trkpt lat="42.68134803821876" lon="-3.7982728165553907"><ele>939.7142857142856</ele><time>2026-05-02T15:19:50.001Z</time></trkpt><trkpt lat="42.681278547546235" lon="-3.798246381773899"><ele>940.9999999999999</ele><time>2026-05-02T15:19:51.001Z</time></trkpt><trkpt lat="42.68120778636621" lon="-3.7982200892014113"><ele>941.0000000000001</ele><time>2026-05-02T15:19:52.001Z</time></trkpt><trkpt lat="42.68113954925169" lon="-3.798183672859244"><ele>941.0</ele><time>2026-05-02T15:19:53.001Z</time></trkpt><trkpt lat="42.68107199819175" lon="-3.798144266600829"><ele>941.0</ele><time>2026-05-02T15:19:54.001Z</time></trkpt><trkpt lat="42.68100270452788" lon="-3.7981039097993765"><ele>941.0</ele><time>2026-05-02T15:19:55.001Z</time></trkpt><trkpt lat="42.680932841471055" lon="-3.798058683839728"><ele>941.0000000000001</ele><time>2026-05-02T15:19:56.001Z</time></trkpt><trkpt lat="42.68086371920107" lon="-3.7980119604437546"><ele>941.0</ele><time>2026-05-02T15:19:57.001Z</time></trkpt><trkpt lat="42.680792447558034" lon="-3.797962469416158"><ele>941.1666666666667</ele><time>2026-05-02T15:19:58.001Z</time></trkpt><trkpt lat="42.68072229863466" lon="-3.797914404365382"><ele>941.3333333333334</ele><time>2026-05-02T15:19:59.001Z</time></trkpt><trkpt lat="42.68064860633638" lon="-3.797865041005437"><ele>941.5</ele><time>2026-05-02T15:20:00.001Z</time></trkpt><trkpt lat="42.68057522207925" lon="-3.7978142619610793"><ele>941.6666666666667</ele><time>2026-05-02T15:20:01.001Z</time></trkpt><trkpt lat="42.68050131868857" lon="-3.797764071331009"><ele>941.8333333333334</ele><time>2026-05-02T15:20:02.001Z</time></trkpt><trkpt lat="42.680426949767714" lon="-3.7977135610586226"><ele>942.0</ele><time>2026-05-02T15:20:03.001Z</time></trkpt><trkpt lat="42.68035228275739" lon="-3.7976638317026374"><ele>944.0</ele><time>2026-05-02T15:20:04.001Z</time></trkpt><trkpt lat="42.680276901685836" lon="-3.7976117732492134"><ele>946.0</ele><time>2026-05-02T15:20:05.001Z</time></trkpt><trkpt lat="42.68020341396242" lon="-3.797558787093441"><ele>948.0</ele><time>2026-05-02T15:20:06.001Z</time></trkpt><trkpt lat="42.68012879645534" lon="-3.797504270902793"><ele>950.0</ele><time>2026-05-02T15:20:07.001Z</time></trkpt><trkpt lat="42.68005514671212" lon="-3.7974487660322356"><ele>952.0</ele><time>2026-05-02T15:20:08.001Z</time></trkpt><trkpt lat="42.67998497468656" lon="-3.797387210585667"><ele>954.0</ele><time>2026-05-02T15:20:09.001Z</time></trkpt><trkpt lat="42.67991833424113" lon="-3.7973212704963206"><ele>954.0</ele><time>2026-05-02T15:20:10.001Z</time></trkpt><trkpt lat="42.67985662874466" lon="-3.7972496091750267"><ele>954.0</ele><time>2026-05-02T15:20:11.001Z</time></trkpt><trkpt lat="42.679796270818294" lon="-3.797173007339915"><ele>954.0</ele><time>2026-05-02T15:20:12.001Z</time></trkpt><trkpt lat="42.67973685026982" lon="-3.797091893566273"><ele>954.0</ele><time>2026-05-02T15:20:13.001Z</time></trkpt><trkpt lat="42.679684317493845" lon="-3.797006908873527"><ele>954.0</ele><time>2026-05-02T15:20:14.001Z</time></trkpt><trkpt lat="42.67963436018794" lon="-3.7969169104532194"><ele>954.0</ele><time>2026-05-02T15:20:15.001Z</time></trkpt><trkpt lat="42.67958594270574" lon="-3.796826537704035"><ele>954.0</ele><time>2026-05-02T15:20:16.001Z</time></trkpt><trkpt lat="42.679543984078315" lon="-3.7967322317604686"><ele>954.0</ele><time>2026-05-02T15:20:17.001Z</time></trkpt><trkpt lat="42.6795070806466" lon="-3.7966347205438145"><ele>954.0</ele><time>2026-05-02T15:20:18.001Z</time></trkpt><trkpt lat="42.67947185621009" lon="-3.796534893286796"><ele>954.0</ele><time>2026-05-02T15:20:19.001Z</time></trkpt><trkpt lat="42.67944216313381" lon="-3.7964313077205882"><ele>954.0</ele><time>2026-05-02T15:20:20.001Z</time></trkpt><trkpt lat="42.679415180921616" lon="-3.7963296872646235"><ele>954.0</ele><time>2026-05-02T15:20:21.001Z</time></trkpt><trkpt lat="42.67939366818564" lon="-3.796226375765604"><ele>954.0</ele><time>2026-05-02T15:20:22.001Z</time></trkpt><trkpt lat="42.679372270188445" lon="-3.7961192242523683"><ele>954.0</ele><time>2026-05-02T15:20:23.001Z</time></trkpt><trkpt lat="42.67934909809464" lon="-3.796012739089458"><ele>954.0</ele><time>2026-05-02T15:20:24.001Z</time></trkpt><trkpt lat="42.67933692338791" lon="-3.795902461587339"><ele>954.0</ele><time>2026-05-02T15:20:25.001Z</time></trkpt><trkpt lat="42.67932763596272" lon="-3.7957913706585664"><ele>954.0</ele><time>2026-05-02T15:20:26.001Z</time></trkpt><trkpt lat="42.679317428533864" lon="-3.795679265482819"><ele>954.0</ele><time>2026-05-02T15:20:27.001Z</time></trkpt><trkpt lat="42.67931342572001" lon="-3.795564722068075"><ele>955.0</ele><time>2026-05-02T15:20:28.001Z</time></trkpt><trkpt lat="42.67930641946836" lon="-3.7954493021138926"><ele>956.0</ele><time>2026-05-02T15:20:29.001Z</time></trkpt><trkpt lat="42.679300268680926" lon="-3.7953336426583397"><ele>957.0</ele><time>2026-05-02T15:20:30.002Z</time></trkpt><trkpt lat="42.67929344430065" lon="-3.7952153976415306"><ele>958.0</ele><time>2026-05-02T15:20:31.002Z</time></trkpt><trkpt lat="42.67928566704065" lon="-3.7950958683977465"><ele>959.0</ele><time>2026-05-02T15:20:32.002Z</time></trkpt><trkpt lat="42.67927788827813" lon="-3.7949755491524093"><ele>960.0</ele><time>2026-05-02T15:20:33.002Z</time></trkpt><trkpt lat="42.67927022884755" lon="-3.7948540375045816"><ele>960.8333333333334</ele><time>2026-05-02T15:20:34.002Z</time></trkpt><trkpt lat="42.679262758321975" lon="-3.7947329731122843"><ele>961.6666666666667</ele><time>2026-05-02T15:20:35.002Z</time></trkpt><trkpt lat="42.679258068410576" lon="-3.7946138473051794"><ele>962.5</ele><time>2026-05-02T15:20:36.002Z</time></trkpt><trkpt lat="42.679256233502564" lon="-3.7944949072980036"><ele>963.3333333333334</ele><time>2026-05-02T15:20:37.002Z</time></trkpt><trkpt lat="42.67924566680741" lon="-3.7943772766187167"><ele>964.1666666666667</ele><time>2026-05-02T15:20:38.002Z</time></trkpt><trkpt lat="42.67923943599904" lon="-3.794258717614184"><ele>965.0</ele><time>2026-05-02T15:20:39.002Z</time></trkpt><trkpt lat="42.67923013869731" lon="-3.79414286585645"><ele>965.6666666666667</ele><time>2026-05-02T15:20:40.002Z</time></trkpt><trkpt lat="42.67922296226203" lon="-3.794023610441723"><ele>966.3333333333334</ele><time>2026-05-02T15:20:41.002Z</time></trkpt><trkpt lat="42.67921482251465" lon="-3.7939054981719504"><ele>967.0</ele><time>2026-05-02T15:20:42.002Z</time></trkpt><trkpt lat="42.67920881074107" lon="-3.7937863344885088"><ele>967.6666666666667</ele><time>2026-05-02T15:20:43.002Z</time></trkpt><trkpt lat="42.67919900058242" lon="-3.7936687125498545"><ele>968.3333333333334</ele><time>2026-05-02T15:20:44.002Z</time></trkpt><trkpt lat="42.67919247010163" lon="-3.793550173813882"><ele>969.0</ele><time>2026-05-02T15:20:45.002Z</time></trkpt><trkpt lat="42.67918426116665" lon="-3.79343154073908"><ele>969.6666666666666</ele><time>2026-05-02T15:20:46.002Z</time></trkpt><trkpt lat="42.67917299249416" lon="-3.793315330129005"><ele>970.3333333333333</ele><time>2026-05-02T15:20:47.002Z</time></trkpt><trkpt lat="42.67915988179592" lon="-3.7931963971425446"><ele>971.0</ele><time>2026-05-02T15:20:48.002Z</time></trkpt><trkpt lat="42.679125932953816" lon="-3.7930831158217755"><ele>971.6666666666666</ele><time>2026-05-02T15:20:49.002Z</time></trkpt><trkpt lat="42.679103082059314" lon="-3.7929671897059496"><ele>972.3333333333333</ele><time>2026-05-02T15:20:50.002Z</time></trkpt><trkpt lat="42.679075874538555" lon="-3.7928535727507438"><ele>973.0</ele><time>2026-05-02T15:20:51.002Z</time></trkpt><trkpt lat="42.67904424046129" lon="-3.7927442580826387"><ele>974.1666666666666</ele><time>2026-05-02T15:20:52.002Z</time></trkpt><trkpt lat="42.67900586161037" lon="-3.7926362743919073"><ele>975.3333333333333</ele><time>2026-05-02T15:20:53.002Z</time></trkpt><trkpt lat="42.678963342655564" lon="-3.7925371194230535"><ele>976.5</ele><time>2026-05-02T15:20:54.002Z</time></trkpt><trkpt lat="42.678914134056065" lon="-3.792439000019279"><ele>977.6666666666667</ele><time>2026-05-02T15:20:55.002Z</time></trkpt><trkpt lat="42.67886250642782" lon="-3.7923476853542555"><ele>978.8333333333334</ele><time>2026-05-02T15:20:56.002Z</time></trkpt><trkpt lat="42.67880968304311" lon="-3.7922582561651343"><ele>980.0</ele><time>2026-05-02T15:20:57.002Z</time></trkpt><trkpt lat="42.67875237812873" lon="-3.7921779035529752"><ele>980.0000000000001</ele><time>2026-05-02T15:20:58.002Z</time></trkpt><trkpt lat="42.678690029560165" lon="-3.792099500440466"><ele>980.0</ele><time>2026-05-02T15:20:59.002Z</time></trkpt><trkpt lat="42.67862320348373" lon="-3.79202791711533"><ele>980.0</ele><time>2026-05-02T15:21:00.002Z</time></trkpt><trkpt lat="42.67855428827065" lon="-3.791958721013275"><ele>980.0</ele><time>2026-05-02T15:21:01.002Z</time></trkpt><trkpt lat="42.67848362391692" lon="-3.791895673081282"><ele>980.0000000000001</ele><time>2026-05-02T15:21:02.002Z</time></trkpt><trkpt lat="42.67840919597299" lon="-3.7918405647481603"><ele>980.0</ele><time>2026-05-02T15:21:03.002Z</time></trkpt><trkpt lat="42.67833262921361" lon="-3.791789380097315"><ele>980.6666666666667</ele><time>2026-05-02T15:21:04.002Z</time></trkpt><trkpt lat="42.678257543455764" lon="-3.791722189067163"><ele>981.3333333333334</ele><time>2026-05-02T15:21:05.002Z</time></trkpt><trkpt lat="42.67817552944421" lon="-3.7916826538290307"><ele>982.0</ele><time>2026-05-02T15:21:06.002Z</time></trkpt><trkpt lat="42.678088483515175" lon="-3.791677246418382"><ele>982.6666666666667</ele><time>2026-05-02T15:21:07.002Z</time></trkpt><trkpt lat="42.67800461318361" lon="-3.7916564408085103"><ele>983.3333333333334</ele><time>2026-05-02T15:21:08.002Z</time></trkpt><trkpt lat="42.67792231333949" lon="-3.7916369260456495"><ele>984.0</ele><time>2026-05-02T15:21:09.002Z</time></trkpt><trkpt lat="42.677839139321776" lon="-3.7916258160972403"><ele>984.3333333333334</ele><time>2026-05-02T15:21:10.002Z</time></trkpt><trkpt lat="42.67775392035432" lon="-3.791624267104048"><ele>984.6666666666667</ele><time>2026-05-02T15:21:11.001Z</time></trkpt><trkpt lat="42.67767156686514" lon="-3.7916286917675257"><ele>985.0</ele><time>2026-05-02T15:21:12.001Z</time></trkpt><trkpt lat="42.67758649031012" lon="-3.7916197510796894"><ele>985.3333333333334</ele><time>2026-05-02T15:21:13.001Z</time></trkpt><trkpt lat="42.677503674045006" lon="-3.7916321649131794"><ele>985.6666666666667</ele><time>2026-05-02T15:21:14.001Z</time></trkpt><trkpt lat="42.677424099033544" lon="-3.7916522807927855"><ele>986.0</ele><time>2026-05-02T15:21:15.001Z</time></trkpt><trkpt lat="42.677344614705554" lon="-3.79167681446016"><ele>986.0000000000001</ele><time>2026-05-02T15:21:16.001Z</time></trkpt><trkpt lat="42.67726514117812" lon="-3.791699472614993"><ele>986.0</ele><time>2026-05-02T15:21:17.001Z</time></trkpt><trkpt lat="42.67718668456656" lon="-3.7917209984251934"><ele>986.0</ele><time>2026-05-02T15:21:18.001Z</time></trkpt><trkpt lat="42.67710934283362" lon="-3.7917425340968713"><ele>986.0</ele><time>2026-05-02T15:21:19.001Z</time></trkpt><trkpt lat="42.67703397769482" lon="-3.7917692691122413"><ele>986.0000000000001</ele><time>2026-05-02T15:21:20.001Z</time></trkpt><trkpt lat="42.67695784457149" lon="-3.7917922377922104"><ele>986.0</ele><time>2026-05-02T15:21:21.001Z</time></trkpt><trkpt lat="42.676882506370795" lon="-3.7918190704667083"><ele>986.6666666666667</ele><time>2026-05-02T15:21:22.001Z</time></trkpt><trkpt lat="42.676806334264185" lon="-3.791845263604874"><ele>987.3333333333334</ele><time>2026-05-02T15:21:23.001Z</time></trkpt><trkpt lat="42.67672968376172" lon="-3.79186993340843"><ele>988.0</ele><time>2026-05-02T15:21:24.001Z</time></trkpt><trkpt lat="42.676654136302346" lon="-3.791892698291623"><ele>988.6666666666667</ele><time>2026-05-02T15:21:25.001Z</time></trkpt><trkpt lat="42.67657836054385" lon="-3.7919172398728067"><ele>989.3333333333334</ele><time>2026-05-02T15:21:26.001Z</time></trkpt><trkpt lat="42.67650192615414" lon="-3.7919429484155827"><ele>990.0</ele><time>2026-05-02T15:21:27.001Z</time></trkpt><trkpt lat="42.67642538864251" lon="-3.7919660143731364"><ele>990.0</ele><time>2026-05-02T15:21:28.001Z</time></trkpt><trkpt lat="42.67634985126221" lon="-3.791989118934307"><ele>990.0</ele><time>2026-05-02T15:21:29.001Z</time></trkpt><trkpt lat="42.6762736912918" lon="-3.7920131383541937"><ele>990.0</ele><time>2026-05-02T15:21:30.001Z</time></trkpt><trkpt lat="42.676197710514764" lon="-3.7920378292635255"><ele>990.0</ele><time>2026-05-02T15:21:31.001Z</time></trkpt><trkpt lat="42.67612228789042" lon="-3.7920612949762433"><ele>990.0</ele><time>2026-05-02T15:21:32.001Z</time></trkpt><trkpt lat="42.67604836389543" lon="-3.792083082999051"><ele>990.0</ele><time>2026-05-02T15:21:33.001Z</time></trkpt><trkpt lat="42.67597371112242" lon="-3.792105258417215"><ele>991.5</ele><time>2026-05-02T15:21:34.001Z</time></trkpt><trkpt lat="42.675898712358396" lon="-3.7921277179832527"><ele>993.0</ele><time>2026-05-02T15:21:35.001Z</time></trkpt><trkpt lat="42.675824991770696" lon="-3.7921498297761933"><ele>994.5</ele><time>2026-05-02T15:21:36.001Z</time></trkpt><trkpt lat="42.67575111630599" lon="-3.7921723093755606"><ele>996.0</ele><time>2026-05-02T15:21:37.001Z</time></trkpt><trkpt lat="42.67567779730885" lon="-3.7921923488542704"><ele>997.5</ele><time>2026-05-02T15:21:38.001Z</time></trkpt><trkpt lat="42.675603432365655" lon="-3.7922122324292293"><ele>999.0</ele><time>2026-05-02T15:21:39.001Z</time></trkpt><trkpt lat="42.67553113892033" lon="-3.7922321188085624"><ele>999.0</ele><time>2026-05-02T15:21:40.001Z</time></trkpt><trkpt lat="42.67545568197079" lon="-3.7922526598053508"><ele>999.0</ele><time>2026-05-02T15:21:41.001Z</time></trkpt><trkpt lat="42.67538254374898" lon="-3.7922704346704266"><ele>999.0</ele><time>2026-05-02T15:21:42.001Z</time></trkpt><trkpt lat="42.675308198719904" lon="-3.792280770271882"><ele>999.0</ele><time>2026-05-02T15:21:43.001Z</time></trkpt><trkpt lat="42.67523381314604" lon="-3.7922863819816603"><ele>999.0</ele><time>2026-05-02T15:21:44.001Z</time></trkpt><trkpt lat="42.675156853627776" lon="-3.7922913711883113"><ele>999.0</ele><time>2026-05-02T15:21:45.001Z</time></trkpt><trkpt lat="42.67507986000276" lon="-3.79229018906491"><ele>999.6666666666666</ele><time>2026-05-02T15:21:46.001Z</time></trkpt><trkpt lat="42.67500185569644" lon="-3.7922849481444945"><ele>1000.3333333333333</ele><time>2026-05-02T15:21:47.001Z</time></trkpt><trkpt lat="42.67492217919111" lon="-3.7922807030998045"><ele>1001.0</ele><time>2026-05-02T15:21:48.001Z</time></trkpt><trkpt lat="42.6748410524206" lon="-3.79226896792656"><ele>1001.6666666666666</ele><time>2026-05-02T15:21:49.001Z</time></trkpt><trkpt lat="42.674761308577004" lon="-3.7922528959252895"><ele>1002.3333333333333</ele><time>2026-05-02T15:21:50.001Z</time></trkpt><trkpt lat="42.67467873254965" lon="-3.7922452515518383"><ele>1003.0</ele><time>2026-05-02T15:21:51.001Z</time></trkpt><trkpt lat="42.674593307300704" lon="-3.7922243761558443"><ele>1002.9999999999999</ele><time>2026-05-02T15:21:52.001Z</time></trkpt><trkpt lat="42.67450807484605" lon="-3.7921976073877555"><ele>1003.0</ele><time>2026-05-02T15:21:53.001Z</time></trkpt><trkpt lat="42.67442509485963" lon="-3.7921647074286144"><ele>1003.0</ele><time>2026-05-02T15:21:54.001Z</time></trkpt><trkpt lat="42.67433922222113" lon="-3.7921288178257746"><ele>1003.0</ele><time>2026-05-02T15:21:55.001Z</time></trkpt><trkpt lat="42.67425507077922" lon="-3.792086354668777"><ele>1002.9999999999999</ele><time>2026-05-02T15:21:56.001Z</time></trkpt><trkpt lat="42.67417043301284" lon="-3.7920362075375325"><ele>1003.0</ele><time>2026-05-02T15:21:57.001Z</time></trkpt><trkpt lat="42.674084341534865" lon="-3.791978113159112"><ele>1003.5999999999999</ele><time>2026-05-02T15:21:58.001Z</time></trkpt><trkpt lat="42.673998790045054" lon="-3.7919142401309642"><ele>1004.1999999999999</ele><time>2026-05-02T15:21:59.001Z</time></trkpt><trkpt lat="42.67391069636938" lon="-3.7918491912953685"><ele>1004.8</ele><time>2026-05-02T15:22:00.001Z</time></trkpt><trkpt lat="42.673820108549265" lon="-3.7917792892224615"><ele>1005.4</ele><time>2026-05-02T15:22:01.001Z</time></trkpt><trkpt lat="42.673731357752246" lon="-3.7917065679705244"><ele>1006.0</ele><time>2026-05-02T15:22:02.001Z</time></trkpt><trkpt lat="42.67363278366255" lon="-3.7916534677580627"><ele>1005.8</ele><time>2026-05-02T15:22:03.001Z</time></trkpt><trkpt lat="42.67355192123588" lon="-3.7915705285946593"><ele>1005.5999999999999</ele><time>2026-05-02T15:22:04.001Z</time></trkpt><trkpt lat="42.673459625637655" lon="-3.79151973770607"><ele>1005.4</ele><time>2026-05-02T15:22:05.001Z</time></trkpt><trkpt lat="42.67337399039058" lon="-3.7914537280068776"><ele>1005.2</ele><time>2026-05-02T15:22:06.001Z</time></trkpt><trkpt lat="42.67328574264707" lon="-3.7913856601600617"><ele>1005.0</ele><time>2026-05-02T15:22:07.001Z</time></trkpt><trkpt lat="42.67319546381322" lon="-3.7912916139062838"><ele>1005.0</ele><time>2026-05-02T15:22:08.001Z</time></trkpt><trkpt lat="42.673104762868356" lon="-3.791225820154338"><ele>1005.0</ele><time>2026-05-02T15:22:09.001Z</time></trkpt><trkpt lat="42.673014364001645" lon="-3.791157293566572"><ele>1005.0</ele><time>2026-05-02T15:22:10.001Z</time></trkpt><trkpt lat="42.67292513759777" lon="-3.791085337400395"><ele>1005.0</ele><time>2026-05-02T15:22:11.001Z</time></trkpt><trkpt lat="42.672835247758826" lon="-3.7910203201193697"><ele>1005.0</ele><time>2026-05-02T15:22:12.001Z</time></trkpt><trkpt lat="42.672747101650565" lon="-3.7909495132763293"><ele>1005.4</ele><time>2026-05-02T15:22:13.001Z</time></trkpt><trkpt lat="42.672655784399815" lon="-3.7908840892391353"><ele>1005.8</ele><time>2026-05-02T15:22:14.001Z</time></trkpt><trkpt lat="42.67256614419745" lon="-3.7908182044699434"><ele>1006.2</ele><time>2026-05-02T15:22:15.001Z</time></trkpt><trkpt lat="42.67247558220361" lon="-3.7907481691700284"><ele>1006.6</ele><time>2026-05-02T15:22:16.001Z</time></trkpt><trkpt lat="42.67238391871384" lon="-3.7906820201319267"><ele>1007.0</ele><time>2026-05-02T15:22:17.001Z</time></trkpt><trkpt lat="42.67229204895113" lon="-3.790612976454519"><ele>1007.0</ele><time>2026-05-02T15:22:18.001Z</time></trkpt><trkpt lat="42.67220297079967" lon="-3.7905391392736183"><ele>1007.0</ele><time>2026-05-02T15:22:19.001Z</time></trkpt><trkpt lat="42.67210888340267" lon="-3.790474552610269"><ele>1007.0</ele><time>2026-05-02T15:22:20.001Z</time></trkpt><trkpt lat="42.67201529798947" lon="-3.7903990000995296"><ele>1007.0</ele><time>2026-05-02T15:22:21.001Z</time></trkpt><trkpt lat="42.671924783108764" lon="-3.790330196239573"><ele>1007.0</ele><time>2026-05-02T15:22:22.001Z</time></trkpt><trkpt lat="42.67180344566177" lon="-3.790268836266672"><ele>1006.75</ele><time>2026-05-02T15:22:23.001Z</time></trkpt><trkpt lat="42.671610242634785" lon="-3.7902275692656353"><ele>1006.5</ele><time>2026-05-02T15:22:24.001Z</time></trkpt><trkpt lat="42.671626331726664" lon="-3.7901176921346873"><ele>1006.25</ele><time>2026-05-02T15:22:25.001Z</time></trkpt><trkpt lat="42.67153338265133" lon="-3.790048334182676"><ele>1006.0</ele><time>2026-05-02T15:22:26.001Z</time></trkpt><trkpt lat="42.67143581693571" lon="-3.7899714310122947"><ele>1005.5999999999999</ele><time>2026-05-02T15:22:27.001Z</time></trkpt><trkpt lat="42.67134526622998" lon="-3.7898967120206564"><ele>1005.1999999999999</ele><time>2026-05-02T15:22:28.001Z</time></trkpt><trkpt lat="42.67124641982899" lon="-3.7898314251829883"><ele>1004.8000000000001</ele><time>2026-05-02T15:22:29.001Z</time></trkpt><trkpt lat="42.67115066289332" lon="-3.7897550937991076"><ele>1004.4000000000001</ele><time>2026-05-02T15:22:30.001Z</time></trkpt><trkpt lat="42.671057050983094" lon="-3.7896785505038135"><ele>1004.0</ele><time>2026-05-02T15:22:31.001Z</time></trkpt><trkpt lat="42.67095979846653" lon="-3.7895980123842747"><ele>1003.6</ele><time>2026-05-02T15:22:32.001Z</time></trkpt><trkpt lat="42.67086707891715" lon="-3.7895227978707577"><ele>1003.2</ele><time>2026-05-02T15:22:33.001Z</time></trkpt><trkpt lat="42.67077039745083" lon="-3.789442257616095"><ele>1002.8000000000001</ele><time>2026-05-02T15:22:34.001Z</time></trkpt><trkpt lat="42.67067343240459" lon="-3.789360562867713"><ele>1002.4000000000001</ele><time>2026-05-02T15:22:35.002Z</time></trkpt><trkpt lat="42.670573377262905" lon="-3.7892879396149857"><ele>1002.0</ele><time>2026-05-02T15:22:36.002Z</time></trkpt><trkpt lat="42.670477305214234" lon="-3.7892117380277632"><ele>1002.0</ele><time>2026-05-02T15:22:37.002Z</time></trkpt><trkpt lat="42.67038938425272" lon="-3.7891349473505054"><ele>1002.0</ele><time>2026-05-02T15:22:38.002Z</time></trkpt><trkpt lat="42.67030207062905" lon="-3.7890521557354724"><ele>1002.0</ele><time>2026-05-02T15:22:39.002Z</time></trkpt><trkpt lat="42.67021146895956" lon="-3.7889674384643177"><ele>1002.0</ele><time>2026-05-02T15:22:40.002Z</time></trkpt><trkpt lat="42.670119812387334" lon="-3.78888322204949"><ele>1002.0</ele><time>2026-05-02T15:22:41.002Z</time></trkpt><trkpt lat="42.67002847225789" lon="-3.788794181400856"><ele>1002.0</ele><time>2026-05-02T15:22:42.002Z</time></trkpt><trkpt lat="42.66993457061568" lon="-3.788717890924002"><ele>1002.0</ele><time>2026-05-02T15:22:43.002Z</time></trkpt><trkpt lat="42.66984769657338" lon="-3.7886290791417156"><ele>1002.0</ele><time>2026-05-02T15:22:44.002Z</time></trkpt><trkpt lat="42.66975791533891" lon="-3.7885364542373536"><ele>1002.0</ele><time>2026-05-02T15:22:45.002Z</time></trkpt><trkpt lat="42.66966839127578" lon="-3.7884464419803607"><ele>1002.0</ele><time>2026-05-02T15:22:46.002Z</time></trkpt><trkpt lat="42.669574963472805" lon="-3.788352648819526"><ele>1002.0</ele><time>2026-05-02T15:22:47.002Z</time></trkpt><trkpt lat="42.669481829178345" lon="-3.7882599172535625"><ele>1002.0</ele><time>2026-05-02T15:22:48.002Z</time></trkpt><trkpt lat="42.66939102920086" lon="-3.7881692860559752"><ele>1002.0</ele><time>2026-05-02T15:22:49.002Z</time></trkpt><trkpt lat="42.66930012717893" lon="-3.78807751978989"><ele>1002.0</ele><time>2026-05-02T15:22:50.002Z</time></trkpt><trkpt lat="42.669210232041" lon="-3.787982532025244"><ele>1001.0</ele><time>2026-05-02T15:22:51.002Z</time></trkpt><trkpt lat="42.6691231359258" lon="-3.7878920846221176"><ele>1000.0</ele><time>2026-05-02T15:22:52.002Z</time></trkpt><trkpt lat="42.669035557977814" lon="-3.7878004831441796"><ele>999.0</ele><time>2026-05-02T15:22:53.002Z</time></trkpt><trkpt lat="42.66894327913165" lon="-3.7877105393306776"><ele>998.0</ele><time>2026-05-02T15:22:54.002Z</time></trkpt><trkpt lat="42.668851092073815" lon="-3.787618732749026"><ele>997.0</ele><time>2026-05-02T15:22:55.002Z</time></trkpt><trkpt lat="42.66876286280962" lon="-3.7875284458057434"><ele>997.0</ele><time>2026-05-02T15:22:56.002Z</time></trkpt><trkpt lat="42.6686810999764" lon="-3.7874405449681974"><ele>997.0</ele><time>2026-05-02T15:22:57.002Z</time></trkpt><trkpt lat="42.668600778221425" lon="-3.7873476709125624"><ele>997.0</ele><time>2026-05-02T15:22:58.002Z</time></trkpt><trkpt lat="42.668518197051476" lon="-3.7872624388249987"><ele>997.0</ele><time>2026-05-02T15:22:59.002Z</time></trkpt><trkpt lat="42.668433607988945" lon="-3.7871778571074244"><ele>997.0</ele><time>2026-05-02T15:23:00.002Z</time></trkpt><trkpt lat="42.66834838816517" lon="-3.787095900114699"><ele>997.4000000000001</ele><time>2026-05-02T15:23:01.002Z</time></trkpt><trkpt lat="42.66826761799997" lon="-3.787011913401333"><ele>997.8000000000001</ele><time>2026-05-02T15:23:02.002Z</time></trkpt><trkpt lat="42.66818656744888" lon="-3.7869275201994035"><ele>998.2</ele><time>2026-05-02T15:23:03.002Z</time></trkpt><trkpt lat="42.668101338261245" lon="-3.786837445739146"><ele>998.6</ele><time>2026-05-02T15:23:04.002Z</time></trkpt><trkpt lat="42.66801738428054" lon="-3.786754033918761"><ele>999.0</ele><time>2026-05-02T15:23:05.002Z</time></trkpt><trkpt lat="42.66793331567188" lon="-3.78666721471329"><ele>999.0</ele><time>2026-05-02T15:23:06.002Z</time></trkpt><trkpt lat="42.66784893347304" lon="-3.786589301448929"><ele>999.0000000000001</ele><time>2026-05-02T15:23:07.002Z</time></trkpt><trkpt lat="42.667763297937384" lon="-3.786503076152685"><ele>999.0000000000001</ele><time>2026-05-02T15:23:08.002Z</time></trkpt><trkpt lat="42.66768257023177" lon="-3.7864175740594486"><ele>999.0</ele><time>2026-05-02T15:23:09.002Z</time></trkpt><trkpt lat="42.667598652763914" lon="-3.7863271998351227"><ele>999.0</ele><time>2026-05-02T15:23:10.002Z</time></trkpt><trkpt lat="42.667506857064424" lon="-3.786251662470639"><ele>999.0</ele><time>2026-05-02T15:23:11.002Z</time></trkpt><trkpt lat="42.66742491263654" lon="-3.7861589915391747"><ele>999.0000000000001</ele><time>2026-05-02T15:23:12.002Z</time></trkpt><trkpt lat="42.66734139837998" lon="-3.7860777806408112"><ele>999.0000000000001</ele><time>2026-05-02T15:23:13.002Z</time></trkpt><trkpt lat="42.66725976645181" lon="-3.7859908888030724"><ele>999.0</ele><time>2026-05-02T15:23:14.002Z</time></trkpt><trkpt lat="42.66718049571929" lon="-3.785905827376056"><ele>999.0</ele><time>2026-05-02T15:23:15.002Z</time></trkpt><trkpt lat="42.66709808512343" lon="-3.7858191469747777"><ele>999.0</ele><time>2026-05-02T15:23:16.002Z</time></trkpt><trkpt lat="42.66701074039064" lon="-3.7857383442117336"><ele>999.0000000000001</ele><time>2026-05-02T15:23:17.001Z</time></trkpt><trkpt lat="42.666923738242666" lon="-3.7856510514996624"><ele>999.0000000000001</ele><time>2026-05-02T15:23:18.001Z</time></trkpt><trkpt lat="42.66683648960277" lon="-3.785567223168384"><ele>999.0</ele><time>2026-05-02T15:23:19.001Z</time></trkpt><trkpt lat="42.666754301346664" lon="-3.7854776736246283"><ele>999.0</ele><time>2026-05-02T15:23:20.001Z</time></trkpt><trkpt lat="42.666667216116025" lon="-3.7853882744759493"><ele>998.8000000000001</ele><time>2026-05-02T15:23:21.001Z</time></trkpt><trkpt lat="42.666581671427736" lon="-3.7852988775577403"><ele>998.6000000000001</ele><time>2026-05-02T15:23:22.001Z</time></trkpt><trkpt lat="42.66649447209995" lon="-3.785209738920408"><ele>998.4</ele><time>2026-05-02T15:23:23.001Z</time></trkpt><trkpt lat="42.66641465039277" lon="-3.785120422043393"><ele>998.2</ele><time>2026-05-02T15:23:24.001Z</time></trkpt><trkpt lat="42.666331347954305" lon="-3.7850458996578142"><ele>998.0</ele><time>2026-05-02T15:23:25.001Z</time></trkpt><trkpt lat="42.66623994534336" lon="-3.784951976398774"><ele>998.0</ele><time>2026-05-02T15:23:26.001Z</time></trkpt><trkpt lat="42.66613917881028" lon="-3.784866680763967"><ele>998.0</ele><time>2026-05-02T15:23:27.001Z</time></trkpt><trkpt lat="42.6660335068884" lon="-3.7847794387739904"><ele>998.0</ele><time>2026-05-02T15:23:28.001Z</time></trkpt><trkpt lat="42.66596421219614" lon="-3.7846745020123236"><ele>998.0</ele><time>2026-05-02T15:23:29.001Z</time></trkpt><trkpt lat="42.66586281293462" lon="-3.7845931478985113"><ele>998.0</ele><time>2026-05-02T15:23:30.001Z</time></trkpt><trkpt lat="42.665718134586015" lon="-3.784523141588204"><ele>998.0</ele><time>2026-05-02T15:23:31.001Z</time></trkpt><trkpt lat="42.66561936513189" lon="-3.7844358157158364"><ele>998.0</ele><time>2026-05-02T15:23:32.001Z</time></trkpt><trkpt lat="42.665544105554524" lon="-3.784357940914098"><ele>998.0</ele><time>2026-05-02T15:23:33.001Z</time></trkpt><trkpt lat="42.66551658054347" lon="-3.7842392641377556"><ele>998.75</ele><time>2026-05-02T15:23:34.001Z</time></trkpt><trkpt lat="42.66546373264417" lon="-3.784156596135804"><ele>999.5</ele><time>2026-05-02T15:23:35.001Z</time></trkpt><trkpt lat="42.66535091773248" lon="-3.784045677087152"><ele>1000.25</ele><time>2026-05-02T15:23:36.001Z</time></trkpt><trkpt lat="42.66519937148916" lon="-3.7839702196429448"><ele>1001.0</ele><time>2026-05-02T15:23:37.001Z</time></trkpt><trkpt lat="42.66512235758157" lon="-3.7838789033091973"><ele>1000.8</ele><time>2026-05-02T15:23:38.001Z</time></trkpt><trkpt lat="42.665103550302156" lon="-3.783760397085633"><ele>1000.5999999999999</ele><time>2026-05-02T15:23:39.001Z</time></trkpt><trkpt lat="42.665050793472155" lon="-3.7836624857133243"><ele>1000.4</ele><time>2026-05-02T15:23:40.001Z</time></trkpt><trkpt lat="42.66497757136921" lon="-3.783562919686434"><ele>1000.2</ele><time>2026-05-02T15:23:41.001Z</time></trkpt><trkpt lat="42.664913849450656" lon="-3.7834695646955674"><ele>1000.0</ele><time>2026-05-02T15:23:42.001Z</time></trkpt><trkpt lat="42.6648183576842" lon="-3.783308465560144"><ele>1000.0</ele><time>2026-05-02T15:23:43.001Z</time></trkpt><trkpt lat="42.664747149189196" lon="-3.7831911302086776"><ele>1000.0</ele><time>2026-05-02T15:23:44.001Z</time></trkpt><trkpt lat="42.66466447802313" lon="-3.783081599704726"><ele>1000.0</ele><time>2026-05-02T15:23:45.001Z</time></trkpt><trkpt lat="42.664596099521496" lon="-3.7829610063513344"><ele>1000.0</ele><time>2026-05-02T15:23:46.001Z</time></trkpt><trkpt lat="42.66452415815977" lon="-3.7828332645193856"><ele>1000.0</ele><time>2026-05-02T15:23:47.001Z</time></trkpt><trkpt lat="42.664453854220085" lon="-3.782714546110049"><ele>1000.0</ele><time>2026-05-02T15:23:48.001Z</time></trkpt><trkpt lat="42.66438295607826" lon="-3.7825950780769637"><ele>1000.0</ele><time>2026-05-02T15:23:49.001Z</time></trkpt><trkpt lat="42.66430664807442" lon="-3.782479037180642"><ele>1000.0</ele><time>2026-05-02T15:23:50.001Z</time></trkpt><trkpt lat="42.664238868242485" lon="-3.7823617740775455"><ele>1000.0</ele><time>2026-05-02T15:23:51.001Z</time></trkpt><trkpt lat="42.66417051044214" lon="-3.7822370135368777"><ele>999.2</ele><time>2026-05-02T15:23:52.001Z</time></trkpt><trkpt lat="42.664102974048866" lon="-3.782121670377122"><ele>998.4</ele><time>2026-05-02T15:23:53.001Z</time></trkpt><trkpt lat="42.664035560643406" lon="-3.782002892255689"><ele>997.5999999999999</ele><time>2026-05-02T15:23:54.001Z</time></trkpt><trkpt lat="42.66395832174139" lon="-3.781894117218216"><ele>996.8</ele><time>2026-05-02T15:23:55.001Z</time></trkpt><trkpt lat="42.66389368975885" lon="-3.7817794728559195"><ele>996.0</ele><time>2026-05-02T15:23:56.001Z</time></trkpt><trkpt lat="42.66382432710673" lon="-3.781664323955261"><ele>996.0</ele><time>2026-05-02T15:23:57.001Z</time></trkpt><trkpt lat="42.66376062539211" lon="-3.781549325815697"><ele>995.9999999999999</ele><time>2026-05-02T15:23:58.001Z</time></trkpt><trkpt lat="42.66369197264272" lon="-3.7814383518902646"><ele>995.9999999999999</ele><time>2026-05-02T15:23:59.001Z</time></trkpt><trkpt lat="42.66361346829901" lon="-3.7813259094597997"><ele>996.0</ele><time>2026-05-02T15:24:00.001Z</time></trkpt><trkpt lat="42.66354446602912" lon="-3.781209284461024"><ele>996.0</ele><time>2026-05-02T15:24:01.001Z</time></trkpt><trkpt lat="42.66347904369784" lon="-3.7810902552380483"><ele>995.4</ele><time>2026-05-02T15:24:02.001Z</time></trkpt><trkpt lat="42.66341016892237" lon="-3.7809723295154023"><ele>994.8</ele><time>2026-05-02T15:24:03.001Z</time></trkpt><trkpt lat="42.663340610824754" lon="-3.780854510635281"><ele>994.1999999999999</ele><time>2026-05-02T15:24:04.001Z</time></trkpt><trkpt lat="42.66327125402841" lon="-3.780738259951803"><ele>993.5999999999999</ele><time>2026-05-02T15:24:05.001Z</time></trkpt><trkpt lat="42.663204331301316" lon="-3.780624969150866"><ele>993.0</ele><time>2026-05-02T15:24:06.001Z</time></trkpt><trkpt lat="42.663137630354754" lon="-3.7805101838584823"><ele>993.0</ele><time>2026-05-02T15:24:07.001Z</time></trkpt><trkpt lat="42.663071001655645" lon="-3.780403654898997"><ele>993.0</ele><time>2026-05-02T15:24:08.001Z</time></trkpt><trkpt lat="42.663003232639575" lon="-3.780289396534286"><ele>993.0</ele><time>2026-05-02T15:24:09.001Z</time></trkpt><trkpt lat="42.66293760748813" lon="-3.780171887093643"><ele>993.0</ele><time>2026-05-02T15:24:10.001Z</time></trkpt><trkpt lat="42.662856060050096" lon="-3.7800706213122357"><ele>993.0</ele><time>2026-05-02T15:24:11.001Z</time></trkpt><trkpt lat="42.66278644246906" lon="-3.7799551742671205"><ele>992.8</ele><time>2026-05-02T15:24:12.001Z</time></trkpt><trkpt lat="42.662714202852534" lon="-3.779835391670791"><ele>992.5999999999999</ele><time>2026-05-02T15:24:13.001Z</time></trkpt><trkpt lat="42.66264313090333" lon="-3.779717711912067"><ele>992.4000000000001</ele><time>2026-05-02T15:24:14.001Z</time></trkpt><trkpt lat="42.662575928060356" lon="-3.779606438550105"><ele>992.2</ele><time>2026-05-02T15:24:15.001Z</time></trkpt><trkpt lat="42.662510826608795" lon="-3.779498644629066"><ele>992.0</ele><time>2026-05-02T15:24:16.001Z</time></trkpt><trkpt lat="42.66244333534027" lon="-3.779386893701461"><ele>992.2</ele><time>2026-05-02T15:24:17.001Z</time></trkpt><trkpt lat="42.66237704702543" lon="-3.7792769136263287"><ele>992.4000000000001</ele><time>2026-05-02T15:24:18.001Z</time></trkpt><trkpt lat="42.66231440427838" lon="-3.779172517230824"><ele>992.5999999999999</ele><time>2026-05-02T15:24:19.001Z</time></trkpt><trkpt lat="42.66225227725855" lon="-3.779068980240891"><ele>992.8</ele><time>2026-05-02T15:24:20.001Z</time></trkpt><trkpt lat="42.6621885968929" lon="-3.7789628546162732"><ele>993.0</ele><time>2026-05-02T15:24:21.001Z</time></trkpt><trkpt lat="42.66212405782984" lon="-3.7788552979062344"><ele>993.0</ele><time>2026-05-02T15:24:22.001Z</time></trkpt><trkpt lat="42.66205898712376" lon="-3.7787468552005667"><ele>993.0</ele><time>2026-05-02T15:24:23.001Z</time></trkpt><trkpt lat="42.66199477174404" lon="-3.7786398379432393"><ele>993.0</ele><time>2026-05-02T15:24:24.001Z</time></trkpt><trkpt lat="42.66192903695073" lon="-3.778530288503441"><ele>993.0</ele><time>2026-05-02T15:24:25.001Z</time></trkpt><trkpt lat="42.66187204623994" lon="-3.77841251160383"><ele>993.0</ele><time>2026-05-02T15:24:26.001Z</time></trkpt><trkpt lat="42.66180413959959" lon="-3.778298990881998"><ele>993.8</ele><time>2026-05-02T15:24:27.001Z</time></trkpt><trkpt lat="42.661736067636674" lon="-3.7781950414282055"><ele>994.5999999999999</ele><time>2026-05-02T15:24:28.001Z</time></trkpt><trkpt lat="42.66166896097916" lon="-3.778083369864245"><ele>995.4000000000001</ele><time>2026-05-02T15:24:29.001Z</time></trkpt><trkpt lat="42.66160522852598" lon="-3.777976105937386"><ele>996.2</ele><time>2026-05-02T15:24:30.001Z</time></trkpt><trkpt lat="42.66153840363409" lon="-3.777864270715779"><ele>997.0</ele><time>2026-05-02T15:24:31.001Z</time></trkpt><trkpt lat="42.66147083655794" lon="-3.7777591238619714"><ele>997.2</ele><time>2026-05-02T15:24:32.001Z</time></trkpt><trkpt lat="42.66140652446314" lon="-3.777648078765761"><ele>997.4000000000001</ele><time>2026-05-02T15:24:33.001Z</time></trkpt><trkpt lat="42.66133994213677" lon="-3.777535871019795"><ele>997.5999999999999</ele><time>2026-05-02T15:24:34.001Z</time></trkpt><trkpt lat="42.66127533625857" lon="-3.7774334991097063"><ele>997.8</ele><time>2026-05-02T15:24:35.001Z</time></trkpt><trkpt lat="42.661207627199026" lon="-3.7773218553281973"><ele>998.0</ele><time>2026-05-02T15:24:36.001Z</time></trkpt><trkpt lat="42.6611430964163" lon="-3.7772133004238584"><ele>997.8</ele><time>2026-05-02T15:24:37.001Z</time></trkpt><trkpt lat="42.6610789233528" lon="-3.7771000243000303"><ele>997.5999999999999</ele><time>2026-05-02T15:24:38.001Z</time></trkpt><trkpt lat="42.661006221377185" lon="-3.7769938063649033"><ele>997.4000000000001</ele><time>2026-05-02T15:24:39.001Z</time></trkpt><trkpt lat="42.660942877119034" lon="-3.776885453854883"><ele>997.2</ele><time>2026-05-02T15:24:40.001Z</time></trkpt><trkpt lat="42.66087750557362" lon="-3.7767763162695056"><ele>997.0</ele><time>2026-05-02T15:24:41.001Z</time></trkpt><trkpt lat="42.660812465977585" lon="-3.776668076749544"><ele>997.4000000000001</ele><time>2026-05-02T15:24:42.001Z</time></trkpt><trkpt lat="42.660744659287005" lon="-3.7765589471129783"><ele>997.8000000000001</ele><time>2026-05-02T15:24:43.001Z</time></trkpt><trkpt lat="42.660682811961806" lon="-3.77645094768717"><ele>998.2</ele><time>2026-05-02T15:24:44.001Z</time></trkpt><trkpt lat="42.66061810275696" lon="-3.7763384105285156"><ele>998.6</ele><time>2026-05-02T15:24:45.001Z</time></trkpt><trkpt lat="42.66055671055555" lon="-3.7762312971309964"><ele>999.0</ele><time>2026-05-02T15:24:46.001Z</time></trkpt><trkpt lat="42.66049205823773" lon="-3.7761247225993677"><ele>999.2</ele><time>2026-05-02T15:24:47.001Z</time></trkpt><trkpt lat="42.66042701924162" lon="-3.7760168970585677"><ele>999.4000000000001</ele><time>2026-05-02T15:24:48.001Z</time></trkpt><trkpt lat="42.66036201054161" lon="-3.7759064180494897"><ele>999.6</ele><time>2026-05-02T15:24:49.001Z</time></trkpt><trkpt lat="42.660293996288026" lon="-3.77579798220251"><ele>999.8</ele><time>2026-05-02T15:24:50.001Z</time></trkpt><trkpt lat="42.66022829284798" lon="-3.775687903521425"><ele>1000.0</ele><time>2026-05-02T15:24:51.001Z</time></trkpt><trkpt lat="42.66015993236889" lon="-3.775573553414612"><ele>1000.0</ele><time>2026-05-02T15:24:52.001Z</time></trkpt><trkpt lat="42.660095410645845" lon="-3.7754625390450003"><ele>1000.0</ele><time>2026-05-02T15:24:53.001Z</time></trkpt><trkpt lat="42.660029016643556" lon="-3.775348975967219"><ele>1000.0</ele><time>2026-05-02T15:24:54.002Z</time></trkpt><trkpt lat="42.65995019362866" lon="-3.775251194109184"><ele>1000.0</ele><time>2026-05-02T15:24:55.002Z</time></trkpt><trkpt lat="42.65989564961085" lon="-3.7751265362157005"><ele>1000.0</ele><time>2026-05-02T15:24:56.002Z</time></trkpt><trkpt lat="42.65982483070854" lon="-3.7750147121933133"><ele>1000.0</ele><time>2026-05-02T15:24:57.002Z</time></trkpt><trkpt lat="42.65975329040729" lon="-3.774902914014832"><ele>1000.0</ele><time>2026-05-02T15:24:58.002Z</time></trkpt><trkpt lat="42.65969150148551" lon="-3.7747943090468596"><ele>1000.0</ele><time>2026-05-02T15:24:59.002Z</time></trkpt><trkpt lat="42.65962465224874" lon="-3.77468365978455"><ele>1000.0</ele><time>2026-05-02T15:25:00.002Z</time></trkpt><trkpt lat="42.65955673530221" lon="-3.774577027462344"><ele>1000.0</ele><time>2026-05-02T15:25:01.002Z</time></trkpt><trkpt lat="42.65949140719991" lon="-3.774466696445898"><ele>1000.2</ele><time>2026-05-02T15:25:02.002Z</time></trkpt><trkpt lat="42.6594256117566" lon="-3.774356774613321"><ele>1000.4</ele><time>2026-05-02T15:25:03.002Z</time></trkpt><trkpt lat="42.65936104047718" lon="-3.774246688067082"><ele>1000.5999999999999</ele><time>2026-05-02T15:25:04.002Z</time></trkpt><trkpt lat="42.65929645255944" lon="-3.774137502062004"><ele>1000.8</ele><time>2026-05-02T15:25:05.002Z</time></trkpt><trkpt lat="42.6592339977514" lon="-3.774033456863158"><ele>1001.0</ele><time>2026-05-02T15:25:06.002Z</time></trkpt><trkpt lat="42.65917047194928" lon="-3.7739265871293495"><ele>1001.4</ele><time>2026-05-02T15:25:07.002Z</time></trkpt><trkpt lat="42.65910644871551" lon="-3.7738238692100565"><ele>1001.8</ele><time>2026-05-02T15:25:08.002Z</time></trkpt><trkpt lat="42.65904492079606" lon="-3.7737175124652524"><ele>1002.1999999999999</ele><time>2026-05-02T15:25:09.002Z</time></trkpt><trkpt lat="42.65898330363709" lon="-3.7736131968966955"><ele>1002.5999999999999</ele><time>2026-05-02T15:25:10.002Z</time></trkpt><trkpt lat="42.65891140206841" lon="-3.7735226091271707"><ele>1003.0</ele><time>2026-05-02T15:25:11.002Z</time></trkpt><trkpt lat="42.65886036109962" lon="-3.7734072619993673"><ele>1003.4</ele><time>2026-05-02T15:25:12.002Z</time></trkpt><trkpt lat="42.65879629236747" lon="-3.7733045168622805"><ele>1003.8</ele><time>2026-05-02T15:25:13.002Z</time></trkpt><trkpt lat="42.65874101232689" lon="-3.7732044236533606"><ele>1004.2</ele><time>2026-05-02T15:25:14.002Z</time></trkpt><trkpt lat="42.65867783016934" lon="-3.773099400277352"><ele>1004.6</ele><time>2026-05-02T15:25:15.002Z</time></trkpt><trkpt lat="42.65860286408947" lon="-3.7730103970678295"><ele>1005.0</ele><time>2026-05-02T15:25:16.002Z</time></trkpt><trkpt lat="42.658540949311025" lon="-3.7729076109741264"><ele>1005.2</ele><time>2026-05-02T15:25:17.002Z</time></trkpt><trkpt lat="42.658483635700186" lon="-3.7727860532768545"><ele>1005.4</ele><time>2026-05-02T15:25:18.002Z</time></trkpt><trkpt lat="42.65842170781062" lon="-3.7726763469505546"><ele>1005.5999999999999</ele><time>2026-05-02T15:25:19.002Z</time></trkpt><trkpt lat="42.65835021093088" lon="-3.7725697248217913"><ele>1005.8</ele><time>2026-05-02T15:25:20.002Z</time></trkpt><trkpt lat="42.658285082735084" lon="-3.772454794996743"><ele>1006.0</ele><time>2026-05-02T15:25:21.002Z</time></trkpt><trkpt lat="42.65821914486918" lon="-3.7723398199106275"><ele>1005.5999999999999</ele><time>2026-05-02T15:25:22.002Z</time></trkpt><trkpt lat="42.658141225706714" lon="-3.772233837027707"><ele>1005.1999999999999</ele><time>2026-05-02T15:25:23.001Z</time></trkpt><trkpt lat="42.6580694327636" lon="-3.7721246008260807"><ele>1004.8000000000001</ele><time>2026-05-02T15:25:24.001Z</time></trkpt><trkpt lat="42.65799744217962" lon="-3.772010982856749"><ele>1004.4000000000001</ele><time>2026-05-02T15:25:25.001Z</time></trkpt><trkpt lat="42.65792899839565" lon="-3.7719026263257334"><ele>1004.0</ele><time>2026-05-02T15:25:26.001Z</time></trkpt><trkpt lat="42.65787339487033" lon="-3.7717843432820986"><ele>1004.0</ele><time>2026-05-02T15:25:27.001Z</time></trkpt><trkpt lat="42.657813231711536" lon="-3.7716677680628172"><ele>1004.0000000000001</ele><time>2026-05-02T15:25:28.001Z</time></trkpt><trkpt lat="42.65774321103603" lon="-3.7715610359211014"><ele>1004.0000000000001</ele><time>2026-05-02T15:25:29.001Z</time></trkpt><trkpt lat="42.657681264151236" lon="-3.771451785208963"><ele>1004.0</ele><time>2026-05-02T15:25:30.001Z</time></trkpt><trkpt lat="42.65761225366806" lon="-3.771346941534193"><ele>1004.0</ele><time>2026-05-02T15:25:31.001Z</time></trkpt><trkpt lat="42.657550567528496" lon="-3.7712403406018766"><ele>1005.0</ele><time>2026-05-02T15:25:32.001Z</time></trkpt><trkpt lat="42.65748446385605" lon="-3.7711382384394043"><ele>1006.0000000000001</ele><time>2026-05-02T15:25:33.001Z</time></trkpt><trkpt lat="42.657423951275526" lon="-3.7710328090713565"><ele>1007.0000000000001</ele><time>2026-05-02T15:25:34.001Z</time></trkpt><trkpt lat="42.65736004726765" lon="-3.7709337866183503"><ele>1008.0</ele><time>2026-05-02T15:25:35.001Z</time></trkpt><trkpt lat="42.657300904134665" lon="-3.770833026936302"><ele>1009.0</ele><time>2026-05-02T15:25:36.001Z</time></trkpt><trkpt lat="42.65724656217029" lon="-3.7707314771260054"><ele>1009.0</ele><time>2026-05-02T15:25:37.001Z</time></trkpt><trkpt lat="42.65718560557055" lon="-3.7706368625813993"><ele>1009.0000000000001</ele><time>2026-05-02T15:25:38.001Z</time></trkpt><trkpt lat="42.657127948056065" lon="-3.7705386345034277"><ele>1009.0000000000001</ele><time>2026-05-02T15:25:39.001Z</time></trkpt><trkpt lat="42.65706712227308" lon="-3.770445159303206"><ele>1009.0</ele><time>2026-05-02T15:25:40.001Z</time></trkpt><trkpt lat="42.65701054710707" lon="-3.770345870355951"><ele>1009.0</ele><time>2026-05-02T15:25:41.001Z</time></trkpt><trkpt lat="42.65695391430426" lon="-3.770251747508832"><ele>1010.2</ele><time>2026-05-02T15:25:42.001Z</time></trkpt><trkpt lat="42.656896500985816" lon="-3.7701553433408983"><ele>1011.4000000000001</ele><time>2026-05-02T15:25:43.001Z</time></trkpt><trkpt lat="42.65683720466862" lon="-3.7700561281213116"><ele>1012.6</ele><time>2026-05-02T15:25:44.001Z</time></trkpt><trkpt lat="42.65677949957431" lon="-3.7699537790665882"><ele>1013.8</ele><time>2026-05-02T15:25:45.001Z</time></trkpt><trkpt lat="42.65671454994736" lon="-3.769851525035626"><ele>1015.0</ele><time>2026-05-02T15:25:46.001Z</time></trkpt><trkpt lat="42.65665564695498" lon="-3.769746544593633"><ele>1015.0</ele><time>2026-05-02T15:25:47.001Z</time></trkpt><trkpt lat="42.65659045204922" lon="-3.7696405899918117"><ele>1015.0</ele><time>2026-05-02T15:25:48.001Z</time></trkpt><trkpt lat="42.65652610973008" lon="-3.769533527683415"><ele>1015.0</ele><time>2026-05-02T15:25:49.001Z</time></trkpt><trkpt lat="42.6564647447778" lon="-3.769425694929402"><ele>1015.0</ele><time>2026-05-02T15:25:50.001Z</time></trkpt><trkpt lat="42.656403301644865" lon="-3.769319526235243"><ele>1015.0</ele><time>2026-05-02T15:25:51.001Z</time></trkpt><trkpt lat="42.65633694535288" lon="-3.769212331856214"><ele>1015.2</ele><time>2026-05-02T15:25:52.001Z</time></trkpt><trkpt lat="42.656271647150106" lon="-3.769106290291148"><ele>1015.4</ele><time>2026-05-02T15:25:53.001Z</time></trkpt><trkpt lat="42.65620793780659" lon="-3.768997224862079"><ele>1015.5999999999999</ele><time>2026-05-02T15:25:54.001Z</time></trkpt><trkpt lat="42.65614187653351" lon="-3.768887596054278"><ele>1015.8</ele><time>2026-05-02T15:25:55.001Z</time></trkpt><trkpt lat="42.6560771075228" lon="-3.7687779755678914"><ele>1016.0</ele><time>2026-05-02T15:25:56.001Z</time></trkpt><trkpt lat="42.65601269504593" lon="-3.7686667242151195"><ele>1016.0</ele><time>2026-05-02T15:25:57.001Z</time></trkpt><trkpt lat="42.65593654283862" lon="-3.7685720352254153"><ele>1015.9999999999999</ele><time>2026-05-02T15:25:58.001Z</time></trkpt><trkpt lat="42.65587091801203" lon="-3.768464884217696"><ele>1015.9999999999999</ele><time>2026-05-02T15:25:59.001Z</time></trkpt><trkpt lat="42.65580701947072" lon="-3.7683606761336828"><ele>1016.0</ele><time>2026-05-02T15:26:00.001Z</time></trkpt><trkpt lat="42.65575527998209" lon="-3.7682436355565363"><ele>1016.0</ele><time>2026-05-02T15:26:01.001Z</time></trkpt><trkpt lat="42.65569479827949" lon="-3.768145526588181"><ele>1016.1999999999999</ele><time>2026-05-02T15:26:02.001Z</time></trkpt><trkpt lat="42.65563490677362" lon="-3.768045480639468"><ele>1016.3999999999999</ele><time>2026-05-02T15:26:03.001Z</time></trkpt><trkpt lat="42.65556473801702" lon="-3.76796296037445"><ele>1016.6</ele><time>2026-05-02T15:26:04.001Z</time></trkpt><trkpt lat="42.65550662744918" lon="-3.767866409338466"><ele>1016.8</ele><time>2026-05-02T15:26:05.001Z</time></trkpt><trkpt lat="42.65545017658427" lon="-3.7677726158786164"><ele>1017.0</ele><time>2026-05-02T15:26:06.001Z</time></trkpt><trkpt lat="42.655391148902154" lon="-3.7676745410574255"><ele>1017.1666666666666</ele><time>2026-05-02T15:26:07.001Z</time></trkpt><trkpt lat="42.65533382329897" lon="-3.767579294297367"><ele>1017.3333333333333</ele><time>2026-05-02T15:26:08.001Z</time></trkpt><trkpt lat="42.65527744696221" lon="-3.767485624685488"><ele>1017.5</ele><time>2026-05-02T15:26:09.001Z</time></trkpt><trkpt lat="42.655220117998134" lon="-3.7673903723430895"><ele>1017.6666666666666</ele><time>2026-05-02T15:26:10.001Z</time></trkpt><trkpt lat="42.65516459178466" lon="-3.767298115244297"><ele>1017.8333333333333</ele><time>2026-05-02T15:26:11.001Z</time></trkpt><trkpt lat="42.655120820511875" lon="-3.767190016111754"><ele>1018.0</ele><time>2026-05-02T15:26:12.001Z</time></trkpt><trkpt lat="42.65505141623908" lon="-3.7671100734987792"><ele>1018.8</ele><time>2026-05-02T15:26:13.001Z</time></trkpt><trkpt lat="42.6549958707938" lon="-3.7670176782520395"><ele>1019.5999999999999</ele><time>2026-05-02T15:26:14.001Z</time></trkpt><trkpt lat="42.654938707182666" lon="-3.766922392732341"><ele>1020.4000000000001</ele><time>2026-05-02T15:26:15.001Z</time></trkpt><trkpt lat="42.65489559506397" lon="-3.7668157231691106"><ele>1021.2</ele><time>2026-05-02T15:26:16.001Z</time></trkpt><trkpt lat="42.65483660669343" lon="-3.7667203906947146"><ele>1022.0</ele><time>2026-05-02T15:26:17.001Z</time></trkpt><trkpt lat="42.65477734496252" lon="-3.7666219276211246"><ele>1022.2</ele><time>2026-05-02T15:26:18.001Z</time></trkpt><trkpt lat="42.65472059632954" lon="-3.7665268509398793"><ele>1022.4000000000001</ele><time>2026-05-02T15:26:19.001Z</time></trkpt><trkpt lat="42.654661906201014" lon="-3.7664294423302977"><ele>1022.5999999999999</ele><time>2026-05-02T15:26:20.001Z</time></trkpt><trkpt lat="42.65460091721884" lon="-3.7663314003787964"><ele>1022.8</ele><time>2026-05-02T15:26:21.001Z</time></trkpt><trkpt lat="42.65454328658313" lon="-3.7662316337289097"><ele>1023.0</ele><time>2026-05-02T15:26:22.001Z</time></trkpt><trkpt lat="42.654481678636685" lon="-3.7661355903936324"><ele>1023.4</ele><time>2026-05-02T15:26:23.001Z</time></trkpt><trkpt lat="42.654421345839204" lon="-3.7660294242890067"><ele>1023.8</ele><time>2026-05-02T15:26:24.001Z</time></trkpt><trkpt lat="42.65435801783269" lon="-3.765931811020701"><ele>1024.2</ele><time>2026-05-02T15:26:25.001Z</time></trkpt><trkpt lat="42.65429455131802" lon="-3.7658274664207934"><ele>1024.6</ele><time>2026-05-02T15:26:26.001Z</time></trkpt><trkpt lat="42.65422947334747" lon="-3.7657226871596934"><ele>1025.0</ele><time>2026-05-02T15:26:27.001Z</time></trkpt><trkpt lat="42.654166409476986" lon="-3.7656166630380556"><ele>1025.0</ele><time>2026-05-02T15:26:28.001Z</time></trkpt><trkpt lat="42.65410224858799" lon="-3.765507946663061"><ele>1025.0</ele><time>2026-05-02T15:26:29.001Z</time></trkpt><trkpt lat="42.65403702061831" lon="-3.765399724359189"><ele>1025.0</ele><time>2026-05-02T15:26:30.001Z</time></trkpt><trkpt lat="42.65396898983715" lon="-3.7652866228737483"><ele>1025.0</ele><time>2026-05-02T15:26:31.001Z</time></trkpt><trkpt lat="42.65390451231939" lon="-3.7651785478140596"><ele>1025.0</ele><time>2026-05-02T15:26:32.001Z</time></trkpt><trkpt lat="42.65383845023084" lon="-3.765065178546712"><ele>1025.0</ele><time>2026-05-02T15:26:33.001Z</time></trkpt><trkpt lat="42.6537717387108" lon="-3.764954420016184"><ele>1025.0</ele><time>2026-05-02T15:26:34.001Z</time></trkpt><trkpt lat="42.653703824372" lon="-3.7648428318684903"><ele>1025.0</ele><time>2026-05-02T15:26:35.001Z</time></trkpt><trkpt lat="42.65363807792191" lon="-3.764733301594137"><ele>1025.0</ele><time>2026-05-02T15:26:36.001Z</time></trkpt><trkpt lat="42.65357127220863" lon="-3.7646262993611153"><ele>1025.0</ele><time>2026-05-02T15:26:37.001Z</time></trkpt><trkpt lat="42.65350898641273" lon="-3.7645174342797287"><ele>1025.2</ele><time>2026-05-02T15:26:38.001Z</time></trkpt><trkpt lat="42.65343719999652" lon="-3.764407221212669"><ele>1025.4</ele><time>2026-05-02T15:26:39.001Z</time></trkpt><trkpt lat="42.65337629652773" lon="-3.764302929936061"><ele>1025.6</ele><time>2026-05-02T15:26:40.001Z</time></trkpt><trkpt lat="42.65331302260754" lon="-3.7641967072526747"><ele>1025.8</ele><time>2026-05-02T15:26:41.001Z</time></trkpt><trkpt lat="42.65324940564421" lon="-3.7640922491838706"><ele>1026.0</ele><time>2026-05-02T15:26:42.001Z</time></trkpt><trkpt lat="42.65318646099361" lon="-3.763987819450057"><ele>1026.3999999999999</ele><time>2026-05-02T15:26:43.001Z</time></trkpt><trkpt lat="42.65312229558901" lon="-3.7638846253759994"><ele>1026.8</ele><time>2026-05-02T15:26:44.001Z</time></trkpt><trkpt lat="42.653062412224486" lon="-3.763784688198294"><ele>1027.1999999999998</ele><time>2026-05-02T15:26:45.001Z</time></trkpt><trkpt lat="42.65300153194182" lon="-3.7636822233800915"><ele>1027.6</ele><time>2026-05-02T15:26:46.001Z</time></trkpt><trkpt lat="42.65293552315742" lon="-3.7635794665007576"><ele>1028.0</ele><time>2026-05-02T15:26:47.001Z</time></trkpt><trkpt lat="42.65287385856698" lon="-3.7634791093334363"><ele>1028.2</ele><time>2026-05-02T15:26:48.001Z</time></trkpt><trkpt lat="42.65281764521527" lon="-3.7633758716092562"><ele>1028.4</ele><time>2026-05-02T15:26:49.001Z</time></trkpt><trkpt lat="42.65275267385802" lon="-3.763273365554456"><ele>1028.6000000000001</ele><time>2026-05-02T15:26:50.001Z</time></trkpt><trkpt lat="42.65269268787965" lon="-3.763172687165391"><ele>1028.8</ele><time>2026-05-02T15:26:51.001Z</time></trkpt><trkpt lat="42.65263215674145" lon="-3.763068806366951"><ele>1029.0</ele><time>2026-05-02T15:26:52.001Z</time></trkpt><trkpt lat="42.652570979736105" lon="-3.7629642717760863"><ele>1029.4</ele><time>2026-05-02T15:26:53.001Z</time></trkpt><trkpt lat="42.65250752369593" lon="-3.7628603855965475"><ele>1029.8000000000002</ele><time>2026-05-02T15:26:54.001Z</time></trkpt><trkpt lat="42.652445444469485" lon="-3.762755754661224"><ele>1030.1999999999998</ele><time>2026-05-02T15:26:55.001Z</time></trkpt><trkpt lat="42.652384319810174" lon="-3.7626537707074013"><ele>1030.6</ele><time>2026-05-02T15:26:56.001Z</time></trkpt><trkpt lat="42.65231942939352" lon="-3.762547824357497"><ele>1031.0</ele><time>2026-05-02T15:26:57.001Z</time></trkpt><trkpt lat="42.65225396118656" lon="-3.7624429422323877"><ele>1031.0</ele><time>2026-05-02T15:26:58.001Z</time></trkpt><trkpt lat="42.652191371227396" lon="-3.762335698566386"><ele>1031.0</ele><time>2026-05-02T15:26:59.001Z</time></trkpt><trkpt lat="42.652128291712685" lon="-3.76222591007467"><ele>1031.0</ele><time>2026-05-02T15:27:00.001Z</time></trkpt><trkpt lat="42.65206372240183" lon="-3.762119699951654"><ele>1031.0</ele><time>2026-05-02T15:27:01.001Z</time></trkpt><trkpt lat="42.651995758144714" lon="-3.762012494041721"><ele>1031.0</ele><time>2026-05-02T15:27:02.001Z</time></trkpt><trkpt lat="42.65192907301452" lon="-3.7619039480635568"><ele>1030.8</ele><time>2026-05-02T15:27:03.001Z</time></trkpt><trkpt lat="42.651863567399936" lon="-3.761795818561654"><ele>1030.6</ele><time>2026-05-02T15:27:04.001Z</time></trkpt><trkpt lat="42.651795783809845" lon="-3.761681842926106"><ele>1030.4</ele><time>2026-05-02T15:27:05.001Z</time></trkpt><trkpt lat="42.651731587638395" lon="-3.7615679960690707"><ele>1030.2</ele><time>2026-05-02T15:27:06.001Z</time></trkpt><trkpt lat="42.65166609913114" lon="-3.7614590454113555"><ele>1030.0</ele><time>2026-05-02T15:27:07.001Z</time></trkpt><trkpt lat="42.651599386635496" lon="-3.761348984338459"><ele>1030.0</ele><time>2026-05-02T15:27:08.001Z</time></trkpt><trkpt lat="42.6515307364493" lon="-3.761238065234548"><ele>1030.0</ele><time>2026-05-02T15:27:09.001Z</time></trkpt><trkpt lat="42.65146543145824" lon="-3.761130469692076"><ele>1030.0</ele><time>2026-05-02T15:27:10.001Z</time></trkpt><trkpt lat="42.651399098533496" lon="-3.761019011426992"><ele>1030.0</ele><time>2026-05-02T15:27:11.001Z</time></trkpt><trkpt lat="42.65133159037349" lon="-3.7609087424871808"><ele>1030.0</ele><time>2026-05-02T15:27:12.001Z</time></trkpt><trkpt lat="42.65126748055737" lon="-3.7607964402389937"><ele>1030.0</ele><time>2026-05-02T15:27:13.001Z</time></trkpt><trkpt lat="42.651201787995916" lon="-3.7606867487192375"><ele>1030.0</ele><time>2026-05-02T15:27:14.001Z</time></trkpt><trkpt lat="42.65112445709644" lon="-3.7605920819882006"><ele>1030.0</ele><time>2026-05-02T15:27:15.001Z</time></trkpt><trkpt lat="42.65107062165529" lon="-3.7604690571783075"><ele>1030.0</ele><time>2026-05-02T15:27:16.001Z</time></trkpt><trkpt lat="42.650999419490496" lon="-3.7603591826839287"><ele>1030.0</ele><time>2026-05-02T15:27:17.001Z</time></trkpt><trkpt lat="42.65093181268828" lon="-3.7602469297899117"><ele>1030.2</ele><time>2026-05-02T15:27:18.001Z</time></trkpt><trkpt lat="42.65086231450384" lon="-3.760137979126632"><ele>1030.4</ele><time>2026-05-02T15:27:19.002Z</time></trkpt><trkpt lat="42.65079526765493" lon="-3.7600283651819577"><ele>1030.6</ele><time>2026-05-02T15:27:20.002Z</time></trkpt><trkpt lat="42.65072983061496" lon="-3.7599165485968093"><ele>1030.8</ele><time>2026-05-02T15:27:21.002Z</time></trkpt><trkpt lat="42.65066319244053" lon="-3.759810084740666"><ele>1031.0</ele><time>2026-05-02T15:27:22.002Z</time></trkpt><trkpt lat="42.650598575487905" lon="-3.7596977555636113"><ele>1031.0</ele><time>2026-05-02T15:27:23.002Z</time></trkpt><trkpt lat="42.65052846648612" lon="-3.759592408600427"><ele>1031.0</ele><time>2026-05-02T15:27:24.002Z</time></trkpt><trkpt lat="42.650462643504135" lon="-3.7594781989769257"><ele>1031.0</ele><time>2026-05-02T15:27:25.002Z</time></trkpt><trkpt lat="42.650400666341305" lon="-3.7593650327413743"><ele>1031.0</ele><time>2026-05-02T15:27:26.002Z</time></trkpt><trkpt lat="42.65032694394246" lon="-3.759271497965669"><ele>1031.0</ele><time>2026-05-02T15:27:27.002Z</time></trkpt><trkpt lat="42.65026238064793" lon="-3.759164594803744"><ele>1031.8</ele><time>2026-05-02T15:27:28.002Z</time></trkpt><trkpt lat="42.65020014837171" lon="-3.75906155137295"><ele>1032.6</ele><time>2026-05-02T15:27:29.001Z</time></trkpt><trkpt lat="42.650133895222346" lon="-3.7589518502110417"><ele>1033.4</ele><time>2026-05-02T15:27:30.001Z</time></trkpt><trkpt lat="42.650070591223866" lon="-3.7588469388144072"><ele>1034.2</ele><time>2026-05-02T15:27:31.001Z</time></trkpt><trkpt lat="42.65000604080446" lon="-3.7587398993583134"><ele>1035.0</ele><time>2026-05-02T15:27:32.001Z</time></trkpt><trkpt lat="42.64994904771069" lon="-3.758626424037211"><ele>1035.2</ele><time>2026-05-02T15:27:33.001Z</time></trkpt><trkpt lat="42.649887664722684" lon="-3.7585230621575523"><ele>1035.4</ele><time>2026-05-02T15:27:34.001Z</time></trkpt><trkpt lat="42.64982457313986" lon="-3.7584160173051204"><ele>1035.6</ele><time>2026-05-02T15:27:35.001Z</time></trkpt><trkpt lat="42.64976324590347" lon="-3.7583137335652244"><ele>1035.8</ele><time>2026-05-02T15:27:36.001Z</time></trkpt><trkpt lat="42.649697381824744" lon="-3.758218184922788"><ele>1036.0</ele><time>2026-05-02T15:27:37.001Z</time></trkpt><trkpt lat="42.64963795648339" lon="-3.758118211098884"><ele>1036.0</ele><time>2026-05-02T15:27:38.001Z</time></trkpt><trkpt lat="42.64957817812236" lon="-3.7580134753753667"><ele>1036.0</ele><time>2026-05-02T15:27:39.001Z</time></trkpt><trkpt lat="42.6495179871915" lon="-3.7579109579679417"><ele>1036.0</ele><time>2026-05-02T15:27:40.001Z</time></trkpt><trkpt lat="42.64945985835933" lon="-3.7578128511684703"><ele>1036.0</ele><time>2026-05-02T15:27:41.001Z</time></trkpt><trkpt lat="42.64939931681051" lon="-3.757712481750769"><ele>1036.0</ele><time>2026-05-02T15:27:42.001Z</time></trkpt><trkpt lat="42.64933721073267" lon="-3.757608518392793"><ele>1036.8</ele><time>2026-05-02T15:27:43.001Z</time></trkpt><trkpt lat="42.64927613718431" lon="-3.7575081602084706"><ele>1037.6</ele><time>2026-05-02T15:27:44.001Z</time></trkpt><trkpt lat="42.649215469671645" lon="-3.757405779252007"><ele>1038.4</ele><time>2026-05-02T15:27:45.001Z</time></trkpt><trkpt lat="42.64915467288154" lon="-3.757304605918989"><ele>1039.2</ele><time>2026-05-02T15:27:46.001Z</time></trkpt><trkpt lat="42.64909255327803" lon="-3.757203201537398"><ele>1040.0</ele><time>2026-05-02T15:27:47.001Z</time></trkpt><trkpt lat="42.649031476691356" lon="-3.7571027878745697"><ele>1040.0</ele><time>2026-05-02T15:27:48.001Z</time></trkpt><trkpt lat="42.64896973258255" lon="-3.757002122985355"><ele>1040.0</ele><time>2026-05-02T15:27:49.001Z</time></trkpt><trkpt lat="42.648907846613675" lon="-3.7568946425584775"><ele>1040.0</ele><time>2026-05-02T15:27:50.001Z</time></trkpt><trkpt lat="42.648844072691226" lon="-3.7567919728410857"><ele>1040.0</ele><time>2026-05-02T15:27:51.001Z</time></trkpt><trkpt lat="42.648784759266974" lon="-3.756686931708595"><ele>1040.0</ele><time>2026-05-02T15:27:52.001Z</time></trkpt><trkpt lat="42.64871880798514" lon="-3.7565831777039036"><ele>1040.0</ele><time>2026-05-02T15:27:53.001Z</time></trkpt><trkpt lat="42.64865632570394" lon="-3.7564807290800952"><ele>1040.0</ele><time>2026-05-02T15:27:54.001Z</time></trkpt><trkpt lat="42.648591174020545" lon="-3.75637710946021"><ele>1040.0</ele><time>2026-05-02T15:27:55.001Z</time></trkpt><trkpt lat="42.648528758573406" lon="-3.75627180438041"><ele>1040.0</ele><time>2026-05-02T15:27:56.001Z</time></trkpt><trkpt lat="42.648466277772954" lon="-3.7561682966279197"><ele>1040.0</ele><time>2026-05-02T15:27:57.001Z</time></trkpt><trkpt lat="42.64840109506915" lon="-3.7560585278142233"><ele>1040.0</ele><time>2026-05-02T15:27:58.001Z</time></trkpt><trkpt lat="42.64833911147448" lon="-3.755956369530965"><ele>1040.0</ele><time>2026-05-02T15:27:59.001Z</time></trkpt><trkpt lat="42.64827674978377" lon="-3.7558498463820786"><ele>1040.0</ele><time>2026-05-02T15:28:00.001Z</time></trkpt><trkpt lat="42.64821397834922" lon="-3.7557447611336547"><ele>1040.0</ele><time>2026-05-02T15:28:01.001Z</time></trkpt><trkpt lat="42.64815037705893" lon="-3.7556396077326375"><ele>1040.0</ele><time>2026-05-02T15:28:02.001Z</time></trkpt><trkpt lat="42.648087273415626" lon="-3.7555387295440172"><ele>1040.0</ele><time>2026-05-02T15:28:03.001Z</time></trkpt><trkpt lat="42.648025878619386" lon="-3.755433493829573"><ele>1040.0</ele><time>2026-05-02T15:28:04.001Z</time></trkpt><trkpt lat="42.64796451724624" lon="-3.755330575252788"><ele>1040.0</ele><time>2026-05-02T15:28:05.001Z</time></trkpt><trkpt lat="42.64790549158343" lon="-3.75522733412365"><ele>1040.0</ele><time>2026-05-02T15:28:06.001Z</time></trkpt><trkpt lat="42.64784202679823" lon="-3.75512267677503"><ele>1040.0</ele><time>2026-05-02T15:28:07.001Z</time></trkpt><trkpt lat="42.647780768736986" lon="-3.7550201781065855"><ele>1040.6</ele><time>2026-05-02T15:28:08.001Z</time></trkpt><trkpt lat="42.64772332919151" lon="-3.7549190311757195"><ele>1041.2</ele><time>2026-05-02T15:28:09.001Z</time></trkpt><trkpt lat="42.64765960691924" lon="-3.7548113428176477"><ele>1041.8</ele><time>2026-05-02T15:28:10.001Z</time></trkpt><trkpt lat="42.64758672747506" lon="-3.75472262889166"><ele>1042.4</ele><time>2026-05-02T15:28:11.001Z</time></trkpt><trkpt lat="42.647524400002894" lon="-3.754619058102408"><ele>1043.0</ele><time>2026-05-02T15:28:12.001Z</time></trkpt><trkpt lat="42.64745955181005" lon="-3.7545112985644296"><ele>1043.0</ele><time>2026-05-02T15:28:13.001Z</time></trkpt><trkpt lat="42.6473990561227" lon="-3.7544107717624473"><ele>1043.0</ele><time>2026-05-02T15:28:14.001Z</time></trkpt><trkpt lat="42.64733719978925" lon="-3.754307983860538"><ele>1043.0</ele><time>2026-05-02T15:28:15.001Z</time></trkpt><trkpt lat="42.64727407374757" lon="-3.754203412994828"><ele>1043.0</ele><time>2026-05-02T15:28:16.001Z</time></trkpt><trkpt lat="42.647218822085065" lon="-3.7540857215968875"><ele>1043.0</ele><time>2026-05-02T15:28:17.001Z</time></trkpt><trkpt lat="42.64715874305967" lon="-3.753980905939331"><ele>1043.2</ele><time>2026-05-02T15:28:18.001Z</time></trkpt><trkpt lat="42.647083695872205" lon="-3.7538893514960656"><ele>1043.4</ele><time>2026-05-02T15:28:19.001Z</time></trkpt><trkpt lat="42.647034297111766" lon="-3.7537734387435084"><ele>1043.6000000000001</ele><time>2026-05-02T15:28:20.001Z</time></trkpt><trkpt lat="42.64695559582873" lon="-3.7536779845524877"><ele>1043.8</ele><time>2026-05-02T15:28:21.001Z</time></trkpt><trkpt lat="42.646893298772966" lon="-3.7535748832880955"><ele>1044.0</ele><time>2026-05-02T15:28:22.001Z</time></trkpt><trkpt lat="42.64682857326266" lon="-3.7534677630080475"><ele>1044.2</ele><time>2026-05-02T15:28:23.001Z</time></trkpt><trkpt lat="42.646776665549304" lon="-3.7533480022049126"><ele>1044.4</ele><time>2026-05-02T15:28:24.001Z</time></trkpt><trkpt lat="42.64670681665239" lon="-3.7532464338083837"><ele>1044.6</ele><time>2026-05-02T15:28:25.001Z</time></trkpt><trkpt lat="42.646640959168046" lon="-3.753135835593068"><ele>1044.8</ele><time>2026-05-02T15:28:26.001Z</time></trkpt><trkpt lat="42.646575247189126" lon="-3.7530242930371434"><ele>1045.0</ele><time>2026-05-02T15:28:27.001Z</time></trkpt><trkpt lat="42.64650842517691" lon="-3.7529165319661923"><ele>1045.0</ele><time>2026-05-02T15:28:28.001Z</time></trkpt><trkpt lat="42.64644542509809" lon="-3.7528117016878495"><ele>1045.0</ele><time>2026-05-02T15:28:29.001Z</time></trkpt><trkpt lat="42.646378564271494" lon="-3.752702724253916"><ele>1045.0</ele><time>2026-05-02T15:28:30.001Z</time></trkpt><trkpt lat="42.6463144813913" lon="-3.752594748137276"><ele>1045.0</ele><time>2026-05-02T15:28:31.001Z</time></trkpt><trkpt lat="42.646249510709445" lon="-3.75248453302794"><ele>1045.0</ele><time>2026-05-02T15:28:32.001Z</time></trkpt><trkpt lat="42.64618464349162" lon="-3.752376130068743"><ele>1045.6</ele><time>2026-05-02T15:28:33.001Z</time></trkpt><trkpt lat="42.64612061472084" lon="-3.7522705842181368"><ele>1046.2</ele><time>2026-05-02T15:28:34.001Z</time></trkpt><trkpt lat="42.6460566212061" lon="-3.75216240395538"><ele>1046.8</ele><time>2026-05-02T15:28:35.001Z</time></trkpt><trkpt lat="42.64599229622788" lon="-3.7520549699595414"><ele>1047.4</ele><time>2026-05-02T15:28:36.001Z</time></trkpt><trkpt lat="42.645926516253915" lon="-3.7519440749952375"><ele>1048.0</ele><time>2026-05-02T15:28:37.001Z</time></trkpt><trkpt lat="42.64586208604826" lon="-3.7518379123845116"><ele>1048.2</ele><time>2026-05-02T15:28:38.001Z</time></trkpt><trkpt lat="42.645797424840104" lon="-3.751733222895184"><ele>1048.4</ele><time>2026-05-02T15:28:39.001Z</time></trkpt><trkpt lat="42.64573336360425" lon="-3.751624828445794"><ele>1048.6000000000001</ele><time>2026-05-02T15:28:40.001Z</time></trkpt><trkpt lat="42.64566919476996" lon="-3.7515216712531316"><ele>1048.8</ele><time>2026-05-02T15:28:41.001Z</time></trkpt><trkpt lat="42.645604161174916" lon="-3.751410477819818"><ele>1049.0</ele><time>2026-05-02T15:28:42.001Z</time></trkpt><trkpt lat="42.64553788129703" lon="-3.7513007738875115"><ele>1049.0</ele><time>2026-05-02T15:28:43.001Z</time></trkpt><trkpt lat="42.64547250660583" lon="-3.7511879491286604"><ele>1049.0</ele><time>2026-05-02T15:28:44.001Z</time></trkpt><trkpt lat="42.64540594602182" lon="-3.7510769967500823"><ele>1049.0</ele><time>2026-05-02T15:28:45.001Z</time></trkpt><trkpt lat="42.6453396011454" lon="-3.750973118166652"><ele>1049.0</ele><time>2026-05-02T15:28:46.001Z</time></trkpt><trkpt lat="42.64527430701276" lon="-3.7508641288043885"><ele>1049.0</ele><time>2026-05-02T15:28:47.001Z</time></trkpt><trkpt lat="42.64520911737189" lon="-3.7507555858887995"><ele>1048.8</ele><time>2026-05-02T15:28:48.001Z</time></trkpt><trkpt lat="42.64514488963072" lon="-3.7506472828662676"><ele>1048.6000000000001</ele><time>2026-05-02T15:28:49.001Z</time></trkpt><trkpt lat="42.645079116025066" lon="-3.7505374423321873"><ele>1048.4</ele><time>2026-05-02T15:28:50.001Z</time></trkpt><trkpt lat="42.645013546252805" lon="-3.750429920182576"><ele>1048.2</ele><time>2026-05-02T15:28:51.001Z</time></trkpt><trkpt lat="42.644950497151314" lon="-3.750327525706836"><ele>1048.0</ele><time>2026-05-02T15:28:52.001Z</time></trkpt><trkpt lat="42.64488555061261" lon="-3.7502145829898987"><ele>1048.0</ele><time>2026-05-02T15:28:53.001Z</time></trkpt><trkpt lat="42.64481928750867" lon="-3.750107087699957"><ele>1048.0</ele><time>2026-05-02T15:28:54.001Z</time></trkpt><trkpt lat="42.644756834635885" lon="-3.7500007449759316"><ele>1048.0</ele><time>2026-05-02T15:28:55.001Z</time></trkpt><trkpt lat="42.644692355536925" lon="-3.74989227447454"><ele>1048.0</ele><time>2026-05-02T15:28:56.001Z</time></trkpt><trkpt lat="42.644626297772206" lon="-3.7497843941957294"><ele>1048.0</ele><time>2026-05-02T15:28:57.001Z</time></trkpt><trkpt lat="42.644556711685695" lon="-3.749682988122303"><ele>1048.0</ele><time>2026-05-02T15:28:58.001Z</time></trkpt><trkpt lat="42.64449329128655" lon="-3.749575511341671"><ele>1048.0</ele><time>2026-05-02T15:28:59.001Z</time></trkpt><trkpt lat="42.64442818789194" lon="-3.74947225438732"><ele>1048.0</ele><time>2026-05-02T15:29:00.001Z</time></trkpt><trkpt lat="42.644362992340646" lon="-3.7493629278123044"><ele>1048.0</ele><time>2026-05-02T15:29:01.001Z</time></trkpt><trkpt lat="42.64429908730303" lon="-3.7492551435748145"><ele>1048.0</ele><time>2026-05-02T15:29:02.001Z</time></trkpt><trkpt lat="42.64423648762065" lon="-3.749150663636823"><ele>1048.2</ele><time>2026-05-02T15:29:03.001Z</time></trkpt><trkpt lat="42.64417150317654" lon="-3.7490450598295473"><ele>1048.4</ele><time>2026-05-02T15:29:04.001Z</time></trkpt><trkpt lat="42.64410652037549" lon="-3.7489382376766427"><ele>1048.6000000000001</ele><time>2026-05-02T15:29:05.001Z</time></trkpt><trkpt lat="42.64404570067981" lon="-3.7488371796540734"><ele>1048.8</ele><time>2026-05-02T15:29:06.001Z</time></trkpt><trkpt lat="42.643981914188615" lon="-3.7487316406676934"><ele>1049.0</ele><time>2026-05-02T15:29:07.001Z</time></trkpt><trkpt lat="42.64392010094379" lon="-3.7486285761391875"><ele>1048.8</ele><time>2026-05-02T15:29:08.001Z</time></trkpt><trkpt lat="42.64385612331238" lon="-3.7485219510695518"><ele>1048.6000000000001</ele><time>2026-05-02T15:29:09.001Z</time></trkpt><trkpt lat="42.64379246529155" lon="-3.7484173308338344"><ele>1048.4</ele><time>2026-05-02T15:29:10.001Z</time></trkpt><trkpt lat="42.64372901925475" lon="-3.7483142572281967"><ele>1048.2</ele><time>2026-05-02T15:29:11.001Z</time></trkpt><trkpt lat="42.64366872131602" lon="-3.7482100221905084"><ele>1048.0</ele><time>2026-05-02T15:29:12.001Z</time></trkpt><trkpt lat="42.64360516336292" lon="-3.748103886036135"><ele>1048.4</ele><time>2026-05-02T15:29:13.001Z</time></trkpt><trkpt lat="42.643542341603926" lon="-3.7479969354775124"><ele>1048.8</ele><time>2026-05-02T15:29:14.001Z</time></trkpt><trkpt lat="42.64347833092465" lon="-3.747889156013463"><ele>1049.2</ele><time>2026-05-02T15:29:15.001Z</time></trkpt><trkpt lat="42.643413254493886" lon="-3.7477825054048157"><ele>1049.6</ele><time>2026-05-02T15:29:16.001Z</time></trkpt><trkpt lat="42.64334770460598" lon="-3.7476731642212013"><ele>1050.0</ele><time>2026-05-02T15:29:17.001Z</time></trkpt><trkpt lat="42.6432819610851" lon="-3.747563760572476"><ele>1050.6</ele><time>2026-05-02T15:29:18.001Z</time></trkpt><trkpt lat="42.64321580147375" lon="-3.7474559360404185"><ele>1051.2</ele><time>2026-05-02T15:29:19.001Z</time></trkpt><trkpt lat="42.64314934187284" lon="-3.7473458858528645"><ele>1051.8</ele><time>2026-05-02T15:29:20.001Z</time></trkpt><trkpt lat="42.64307722944918" lon="-3.747240459726179"><ele>1052.4</ele><time>2026-05-02T15:29:21.001Z</time></trkpt><trkpt lat="42.64301001741787" lon="-3.7471280777178833"><ele>1053.0</ele><time>2026-05-02T15:29:22.001Z</time></trkpt><trkpt lat="42.64294403475403" lon="-3.7470155189505197"><ele>1053.0</ele><time>2026-05-02T15:29:23.001Z</time></trkpt><trkpt lat="42.642878245114474" lon="-3.7469031352550886"><ele>1053.0</ele><time>2026-05-02T15:29:24.001Z</time></trkpt><trkpt lat="42.642811344629976" lon="-3.7467912004612702"><ele>1053.0</ele><time>2026-05-02T15:29:25.001Z</time></trkpt><trkpt lat="42.6427440302454" lon="-3.7466834275064786"><ele>1053.0</ele><time>2026-05-02T15:29:26.001Z</time></trkpt><trkpt lat="42.642677612848196" lon="-3.7465704766826415"><ele>1053.0</ele><time>2026-05-02T15:29:27.001Z</time></trkpt><trkpt lat="42.642611082823606" lon="-3.7464589679828384"><ele>1052.6</ele><time>2026-05-02T15:29:28.001Z</time></trkpt><trkpt lat="42.64254306150968" lon="-3.746347283634782"><ele>1052.1999999999998</ele><time>2026-05-02T15:29:29.001Z</time></trkpt><trkpt lat="42.642473155233674" lon="-3.746234842563483"><ele>1051.8</ele><time>2026-05-02T15:29:30.001Z</time></trkpt><trkpt lat="42.642405484295466" lon="-3.746120362620635"><ele>1051.3999999999999</ele><time>2026-05-02T15:29:31.001Z</time></trkpt><trkpt lat="42.6423328197984" lon="-3.7460098717752985"><ele>1051.0</ele><time>2026-05-02T15:29:32.001Z</time></trkpt><trkpt lat="42.6422608642819" lon="-3.745896573989937"><ele>1050.6</ele><time>2026-05-02T15:29:33.001Z</time></trkpt><trkpt lat="42.64219250530842" lon="-3.7457845888518073"><ele>1050.1999999999998</ele><time>2026-05-02T15:29:34.001Z</time></trkpt><trkpt lat="42.64211668262405" lon="-3.745669872480853"><ele>1049.8000000000002</ele><time>2026-05-02T15:29:35.001Z</time></trkpt><trkpt lat="42.642044687164734" lon="-3.745550890188961"><ele>1049.4</ele><time>2026-05-02T15:29:36.001Z</time></trkpt><trkpt lat="42.64198159610062" lon="-3.7454369130105216"><ele>1049.0</ele><time>2026-05-02T15:29:37.001Z</time></trkpt><trkpt lat="42.64190791987224" lon="-3.7453187440667612"><ele>1048.4</ele><time>2026-05-02T15:29:38.001Z</time></trkpt><trkpt lat="42.64183524551576" lon="-3.74520326355576"><ele>1047.8000000000002</ele><time>2026-05-02T15:29:39.001Z</time></trkpt><trkpt lat="42.64176488503533" lon="-3.7450872803420894"><ele>1047.1999999999998</ele><time>2026-05-02T15:29:40.001Z</time></trkpt><trkpt lat="42.64169261714509" lon="-3.744969360940694"><ele>1046.6</ele><time>2026-05-02T15:29:41.001Z</time></trkpt><trkpt lat="42.64162217125407" lon="-3.7448570383085524"><ele>1046.0</ele><time>2026-05-02T15:29:42.001Z</time></trkpt><trkpt lat="42.6415541443909" lon="-3.744743454767985"><ele>1046.0</ele><time>2026-05-02T15:29:43.001Z</time></trkpt><trkpt lat="42.64147945830529" lon="-3.7446346109139292"><ele>1046.0</ele><time>2026-05-02T15:29:44.001Z</time></trkpt><trkpt lat="42.641412694857316" lon="-3.7445187126657657"><ele>1046.0</ele><time>2026-05-02T15:29:45.001Z</time></trkpt><trkpt lat="42.64134474604184" lon="-3.744403488274814"><ele>1046.0</ele><time>2026-05-02T15:29:46.001Z</time></trkpt><trkpt lat="42.641270199922445" lon="-3.7442891600311707"><ele>1046.0</ele><time>2026-05-02T15:29:47.001Z</time></trkpt><trkpt lat="42.64120038087595" lon="-3.7441702363993667"><ele>1045.8</ele><time>2026-05-02T15:29:48.001Z</time></trkpt><trkpt lat="42.641132769830364" lon="-3.744055866072476"><ele>1045.6</ele><time>2026-05-02T15:29:49.001Z</time></trkpt><trkpt lat="42.64105736657248" lon="-3.7439441276697183"><ele>1045.4</ele><time>2026-05-02T15:29:50.001Z</time></trkpt><trkpt lat="42.640987878536784" lon="-3.7438316237357423"><ele>1045.2</ele><time>2026-05-02T15:29:51.001Z</time></trkpt><trkpt lat="42.6409204625883" lon="-3.7437205926597295"><ele>1045.0</ele><time>2026-05-02T15:29:52.001Z</time></trkpt><trkpt lat="42.640854900385314" lon="-3.743607821654054"><ele>1044.8</ele><time>2026-05-02T15:29:53.001Z</time></trkpt><trkpt lat="42.64078610485937" lon="-3.7434934829953215"><ele>1044.6</ele><time>2026-05-02T15:29:54.001Z</time></trkpt><trkpt lat="42.64071272899646" lon="-3.743388239472696"><ele>1044.4</ele><time>2026-05-02T15:29:55.001Z</time></trkpt><trkpt lat="42.640644474634655" lon="-3.743273498797751"><ele>1044.2</ele><time>2026-05-02T15:29:56.001Z</time></trkpt><trkpt lat="42.64057726780766" lon="-3.7431607230283612"><ele>1044.0</ele><time>2026-05-02T15:29:57.001Z</time></trkpt><trkpt lat="42.640510735327084" lon="-3.743046992934918"><ele>1044.0</ele><time>2026-05-02T15:29:58.001Z</time></trkpt><trkpt lat="42.640441617870984" lon="-3.7429354172148663"><ele>1044.0</ele><time>2026-05-02T15:29:59.001Z</time></trkpt><trkpt lat="42.6403738566107" lon="-3.7428279054116955"><ele>1044.0</ele><time>2026-05-02T15:30:00.001Z</time></trkpt><trkpt lat="42.64030942268673" lon="-3.742715038412399"><ele>1044.0</ele><time>2026-05-02T15:30:01.001Z</time></trkpt><trkpt lat="42.64024282129181" lon="-3.742606228510228"><ele>1044.0</ele><time>2026-05-02T15:30:02.001Z</time></trkpt><trkpt lat="42.640175811252895" lon="-3.7424959819133092"><ele>1043.6000000000001</ele><time>2026-05-02T15:30:03.001Z</time></trkpt><trkpt lat="42.64010942925513" lon="-3.7423836544030022"><ele>1043.2</ele><time>2026-05-02T15:30:04.001Z</time></trkpt><trkpt lat="42.64004111077889" lon="-3.7422654558407107"><ele>1042.8000000000002</ele><time>2026-05-02T15:30:05.001Z</time></trkpt><trkpt lat="42.639971289047175" lon="-3.7421466043000033"><ele>1042.4</ele><time>2026-05-02T15:30:06.001Z</time></trkpt><trkpt lat="42.63991074061846" lon="-3.742022533885193"><ele>1042.0</ele><time>2026-05-02T15:30:07.001Z</time></trkpt><trkpt lat="42.63985524869494" lon="-3.7418923685567993"><ele>1041.0</ele><time>2026-05-02T15:30:08.001Z</time></trkpt><trkpt lat="42.639798681483725" lon="-3.741759672027992"><ele>1040.0</ele><time>2026-05-02T15:30:09.001Z</time></trkpt><trkpt lat="42.63974006633022" lon="-3.7416286089024733"><ele>1039.0</ele><time>2026-05-02T15:30:10.001Z</time></trkpt><trkpt lat="42.639686768446694" lon="-3.7414929570066873"><ele>1038.0</ele><time>2026-05-02T15:30:11.001Z</time></trkpt><trkpt lat="42.63963227936506" lon="-3.741357146980187"><ele>1038.0</ele><time>2026-05-02T15:30:12.001Z</time></trkpt><trkpt lat="42.63958034029827" lon="-3.741219084879771"><ele>1038.0</ele><time>2026-05-02T15:30:13.001Z</time></trkpt><trkpt lat="42.63953218452591" lon="-3.74108235202127"><ele>1038.0</ele><time>2026-05-02T15:30:14.001Z</time></trkpt><trkpt lat="42.63947745298842" lon="-3.7409508034157266"><ele>1038.0</ele><time>2026-05-02T15:30:15.001Z</time></trkpt><trkpt lat="42.63942692690042" lon="-3.7408087473744627"><ele>1036.5</ele><time>2026-05-02T15:30:16.001Z</time></trkpt><trkpt lat="42.63937398644202" lon="-3.740673110782356"><ele>1035.0</ele><time>2026-05-02T15:30:17.001Z</time></trkpt><trkpt lat="42.63932092827037" lon="-3.7405361476115155"><ele>1033.5</ele><time>2026-05-02T15:30:18.001Z</time></trkpt><trkpt lat="42.639269856920166" lon="-3.7403990680589163"><ele>1032.0</ele><time>2026-05-02T15:30:19.001Z</time></trkpt><trkpt lat="42.63921940955335" lon="-3.7402628135571914"><ele>1031.75</ele><time>2026-05-02T15:30:20.001Z</time></trkpt><trkpt lat="42.6391609999378" lon="-3.7401290215209944"><ele>1031.5</ele><time>2026-05-02T15:30:21.001Z</time></trkpt><trkpt lat="42.639109350546825" lon="-3.7399863054557843"><ele>1031.25</ele><time>2026-05-02T15:30:22.001Z</time></trkpt><trkpt lat="42.63905951754164" lon="-3.7398480967073877"><ele>1031.0</ele><time>2026-05-02T15:30:23.001Z</time></trkpt><trkpt lat="42.63900511612293" lon="-3.739710214168323"><ele>1031.0</ele><time>2026-05-02T15:30:24.001Z</time></trkpt><trkpt lat="42.63895356170575" lon="-3.739574311200521"><ele>1031.0</ele><time>2026-05-02T15:30:25.001Z</time></trkpt><trkpt lat="42.63890548875993" lon="-3.739441615541144"><ele>1031.0</ele><time>2026-05-02T15:30:26.001Z</time></trkpt><trkpt lat="42.638853305691605" lon="-3.7393135596428415"><ele>1031.0</ele><time>2026-05-02T15:30:27.001Z</time></trkpt><trkpt lat="42.63880052931939" lon="-3.739182644632053"><ele>1031.0</ele><time>2026-05-02T15:30:28.001Z</time></trkpt><trkpt lat="42.63874677943811" lon="-3.739047633503565"><ele>1030.25</ele><time>2026-05-02T15:30:29.001Z</time></trkpt><trkpt lat="42.63869383748502" lon="-3.7389122658401113"><ele>1029.5</ele><time>2026-05-02T15:30:30.001Z</time></trkpt><trkpt lat="42.63864356407664" lon="-3.738770805095651"><ele>1028.75</ele><time>2026-05-02T15:30:31.001Z</time></trkpt><trkpt lat="42.638591900964556" lon="-3.738638239301794"><ele>1028.0</ele><time>2026-05-02T15:30:32.001Z</time></trkpt><trkpt lat="42.63854147340686" lon="-3.738497664126671"><ele>1026.6</ele><time>2026-05-02T15:30:33.001Z</time></trkpt><trkpt lat="42.63848749042104" lon="-3.738362594565448"><ele>1025.1999999999998</ele><time>2026-05-02T15:30:34.001Z</time></trkpt><trkpt lat="42.638434936115026" lon="-3.738225746891589"><ele>1023.8</ele><time>2026-05-02T15:30:35.001Z</time></trkpt><trkpt lat="42.63838478693721" lon="-3.7380947097474"><ele>1022.4</ele><time>2026-05-02T15:30:36.001Z</time></trkpt><trkpt lat="42.63833517254911" lon="-3.737958815907459"><ele>1021.0</ele><time>2026-05-02T15:30:37.001Z</time></trkpt><trkpt lat="42.63828358239484" lon="-3.737820168798251"><ele>1020.5</ele><time>2026-05-02T15:30:38.001Z</time></trkpt><trkpt lat="42.63823394990313" lon="-3.7376846492277376"><ele>1020.0</ele><time>2026-05-02T15:30:39.001Z</time></trkpt><trkpt lat="42.63818229646494" lon="-3.737545028904078"><ele>1019.5</ele><time>2026-05-02T15:30:40.001Z</time></trkpt><trkpt lat="42.63812338373628" lon="-3.737411485031249"><ele>1019.0</ele><time>2026-05-02T15:30:41.001Z</time></trkpt><trkpt lat="42.63807398805666" lon="-3.737269991180045"><ele>1019.0</ele><time>2026-05-02T15:30:42.001Z</time></trkpt><trkpt lat="42.63801941863367" lon="-3.737132446765777"><ele>1019.0000000000001</ele><time>2026-05-02T15:30:43.001Z</time></trkpt><trkpt lat="42.63796354168703" lon="-3.7369981557941423"><ele>1019.0000000000001</ele><time>2026-05-02T15:30:44.001Z</time></trkpt><trkpt lat="42.637910533353775" lon="-3.7368675433044873"><ele>1019.0</ele><time>2026-05-02T15:30:45.001Z</time></trkpt><trkpt lat="42.6378578440408" lon="-3.736737024802326"><ele>1019.0</ele><time>2026-05-02T15:30:46.001Z</time></trkpt><trkpt lat="42.63780338842734" lon="-3.73659968383874"><ele>1018.4000000000001</ele><time>2026-05-02T15:30:47.001Z</time></trkpt><trkpt lat="42.63775421530297" lon="-3.7364644062439107"><ele>1017.8000000000001</ele><time>2026-05-02T15:30:48.001Z</time></trkpt><trkpt lat="42.63770048393563" lon="-3.7363290927385187"><ele>1017.1999999999999</ele><time>2026-05-02T15:30:49.001Z</time></trkpt><trkpt lat="42.63764327062088" lon="-3.736196123691239"><ele>1016.5999999999999</ele><time>2026-05-02T15:30:50.001Z</time></trkpt><trkpt lat="42.63758748352716" lon="-3.7360646059452214"><ele>1016.0</ele><time>2026-05-02T15:30:51.001Z</time></trkpt><trkpt lat="42.6375321687198" lon="-3.735931459658253"><ele>1015.5999999999999</ele><time>2026-05-02T15:30:52.001Z</time></trkpt><trkpt lat="42.63747763068493" lon="-3.7357992198701515"><ele>1015.1999999999999</ele><time>2026-05-02T15:30:53.001Z</time></trkpt><trkpt lat="42.63742274870167" lon="-3.7356667526052467"><ele>1014.8000000000001</ele><time>2026-05-02T15:30:54.001Z</time></trkpt><trkpt lat="42.637362524573135" lon="-3.735538562990396"><ele>1014.4000000000001</ele><time>2026-05-02T15:30:55.001Z</time></trkpt><trkpt lat="42.63730000812146" lon="-3.735417413698325"><ele>1014.0</ele><time>2026-05-02T15:30:56.001Z</time></trkpt><trkpt lat="42.637237429492764" lon="-3.7352888289378363"><ele>1014.2</ele><time>2026-05-02T15:30:57.001Z</time></trkpt><trkpt lat="42.63716901362563" lon="-3.7351664506196016"><ele>1014.4000000000001</ele><time>2026-05-02T15:30:58.001Z</time></trkpt><trkpt lat="42.63710365049329" lon="-3.735043416954819"><ele>1014.6</ele><time>2026-05-02T15:30:59.001Z</time></trkpt><trkpt lat="42.637033382934995" lon="-3.734918055615933"><ele>1014.8</ele><time>2026-05-02T15:31:00.001Z</time></trkpt><trkpt lat="42.636966057278016" lon="-3.7348026116994304"><ele>1015.0</ele><time>2026-05-02T15:31:01.001Z</time></trkpt><trkpt lat="42.63689533794413" lon="-3.734683228126453"><ele>1015.0</ele><time>2026-05-02T15:31:02.001Z</time></trkpt><trkpt lat="42.63682409598619" lon="-3.7345646991164028"><ele>1015.0</ele><time>2026-05-02T15:31:03.001Z</time></trkpt><trkpt lat="42.63674521239131" lon="-3.7344612114601285"><ele>1015.0</ele><time>2026-05-02T15:31:04.001Z</time></trkpt><trkpt lat="42.636672322664005" lon="-3.7343526384184997"><ele>1015.0</ele><time>2026-05-02T15:31:05.001Z</time></trkpt><trkpt lat="42.63658789675412" lon="-3.734259209140154"><ele>1015.0</ele><time>2026-05-02T15:31:06.001Z</time></trkpt><trkpt lat="42.63650964598643" lon="-3.7341349667453807"><ele>1014.8</ele><time>2026-05-02T15:31:07.001Z</time></trkpt><trkpt lat="42.636420666464495" lon="-3.734033444611412"><ele>1014.6</ele><time>2026-05-02T15:31:08.001Z</time></trkpt><trkpt lat="42.636344459197446" lon="-3.73393447792798"><ele>1014.4000000000001</ele><time>2026-05-02T15:31:09.001Z</time></trkpt><trkpt lat="42.636258163186604" lon="-3.7338538520308027"><ele>1014.2</ele><time>2026-05-02T15:31:10.001Z</time></trkpt><trkpt lat="42.636178199348976" lon="-3.7337420948214386"><ele>1014.0</ele><time>2026-05-02T15:31:11.001Z</time></trkpt><trkpt lat="42.636101148537556" lon="-3.7336490311253954"><ele>1014.0</ele><time>2026-05-02T15:31:12.001Z</time></trkpt><trkpt lat="42.63600586894196" lon="-3.733561078502845"><ele>1014.0000000000001</ele><time>2026-05-02T15:31:13.001Z</time></trkpt><trkpt lat="42.635916724047675" lon="-3.7334789341883865"><ele>1014.0000000000001</ele><time>2026-05-02T15:31:14.001Z</time></trkpt><trkpt lat="42.63582872918618" lon="-3.733392308286624"><ele>1014.0</ele><time>2026-05-02T15:31:15.001Z</time></trkpt><trkpt lat="42.635742987405116" lon="-3.733312071803477"><ele>1014.0</ele><time>2026-05-02T15:31:16.001Z</time></trkpt><trkpt lat="42.63564650766864" lon="-3.733231198268035"><ele>1012.5</ele><time>2026-05-02T15:31:17.001Z</time></trkpt><trkpt lat="42.63556034463423" lon="-3.733149289915567"><ele>1011.0</ele><time>2026-05-02T15:31:18.001Z</time></trkpt><trkpt lat="42.63546388866754" lon="-3.7330741679667128"><ele>1009.5</ele><time>2026-05-02T15:31:19.001Z</time></trkpt><trkpt lat="42.635370296041316" lon="-3.7329898893309403"><ele>1008.0</ele><time>2026-05-02T15:31:20.001Z</time></trkpt><trkpt lat="42.63525163726303" lon="-3.7329298499606227"><ele>1008.0</ele><time>2026-05-02T15:31:21.001Z</time></trkpt><trkpt lat="42.63513322568047" lon="-3.732871074330241"><ele>1008.0</ele><time>2026-05-02T15:31:22.001Z</time></trkpt><trkpt lat="42.63507756632846" lon="-3.7327938430110286"><ele>1008.0</ele><time>2026-05-02T15:31:23.001Z</time></trkpt><trkpt lat="42.63499608594018" lon="-3.732719268610624"><ele>1008.0</ele><time>2026-05-02T15:31:24.001Z</time></trkpt><trkpt lat="42.63490570312331" lon="-3.732654539099929"><ele>1008.0</ele><time>2026-05-02T15:31:25.001Z</time></trkpt><trkpt lat="42.634802090010254" lon="-3.732594291120456"><ele>1007.4</ele><time>2026-05-02T15:31:26.001Z</time></trkpt><trkpt lat="42.63470037977165" lon="-3.7325344486953402"><ele>1006.8</ele><time>2026-05-02T15:31:27.001Z</time></trkpt><trkpt lat="42.63460242738937" lon="-3.732468377570392"><ele>1006.2</ele><time>2026-05-02T15:31:28.001Z</time></trkpt><trkpt lat="42.634496458559404" lon="-3.7324143010793485"><ele>1005.6</ele><time>2026-05-02T15:31:29.001Z</time></trkpt><trkpt lat="42.63440737626247" lon="-3.7323441392780943"><ele>1005.0</ele><time>2026-05-02T15:31:30.001Z</time></trkpt><trkpt lat="42.634293407161174" lon="-3.732294171296527"><ele>1004.2</ele><time>2026-05-02T15:31:31.001Z</time></trkpt><trkpt lat="42.634206345095535" lon="-3.7322343463746406"><ele>1003.4</ele><time>2026-05-02T15:31:32.001Z</time></trkpt><trkpt lat="42.634119558318076" lon="-3.7321945655573603"><ele>1002.5999999999999</ele><time>2026-05-02T15:31:33.001Z</time></trkpt><trkpt lat="42.63400285526633" lon="-3.7321043428756053"><ele>1001.8</ele><time>2026-05-02T15:31:34.001Z</time></trkpt><trkpt lat="42.63389426814432" lon="-3.7320455046550154"><ele>1001.0</ele><time>2026-05-02T15:31:35.001Z</time></trkpt><trkpt lat="42.6337950454403" lon="-3.731986045696203"><ele>1001.0</ele><time>2026-05-02T15:31:36.001Z</time></trkpt><trkpt lat="42.63369253289051" lon="-3.7319186983682147"><ele>1000.9999999999999</ele><time>2026-05-02T15:31:37.001Z</time></trkpt><trkpt lat="42.63359447448475" lon="-3.7318434589097196"><ele>1000.9999999999999</ele><time>2026-05-02T15:31:38.001Z</time></trkpt><trkpt lat="42.633500724069876" lon="-3.7317656840882862"><ele>1001.0</ele><time>2026-05-02T15:31:39.001Z</time></trkpt><trkpt lat="42.633413450041594" lon="-3.731677543792547"><ele>1001.0</ele><time>2026-05-02T15:31:40.001Z</time></trkpt><trkpt lat="42.633314395137766" lon="-3.7315826916239283"><ele>1001.1999999999999</ele><time>2026-05-02T15:31:41.001Z</time></trkpt><trkpt lat="42.63322864091184" lon="-3.731491315763595"><ele>1001.3999999999999</ele><time>2026-05-02T15:31:42.001Z</time></trkpt><trkpt lat="42.6331494468527" lon="-3.731391265093392"><ele>1001.6</ele><time>2026-05-02T15:31:43.001Z</time></trkpt><trkpt lat="42.633070037536235" lon="-3.7312846027659843"><ele>1001.8</ele><time>2026-05-02T15:31:44.001Z</time></trkpt><trkpt lat="42.63298609836575" lon="-3.731180251773634"><ele>1002.0</ele><time>2026-05-02T15:31:45.001Z</time></trkpt><trkpt lat="42.63290375820228" lon="-3.7310668535995437"><ele>1002.5</ele><time>2026-05-02T15:31:46.001Z</time></trkpt><trkpt lat="42.63282241423937" lon="-3.7309592105784617"><ele>1003.0</ele><time>2026-05-02T15:31:47.001Z</time></trkpt><trkpt lat="42.632741586039906" lon="-3.730848611278158"><ele>1003.5</ele><time>2026-05-02T15:31:48Z</time></trkpt><trkpt lat="42.63265951398314" lon="-3.730737664316303"><ele>1004.0</ele><time>2026-05-02T15:31:49Z</time></trkpt><trkpt lat="42.632579984248274" lon="-3.7306265246299257"><ele>1002.0</ele><time>2026-05-02T15:31:50Z</time></trkpt><trkpt lat="42.63249450531416" lon="-3.7305218592471756"><ele>1000.0</ele><time>2026-05-02T15:31:51Z</time></trkpt><trkpt lat="42.63241542862402" lon="-3.7304115874602455"><ele>998.0</ele><time>2026-05-02T15:31:52Z</time></trkpt><trkpt lat="42.63233436152145" lon="-3.730301483747361"><ele>996.0</ele><time>2026-05-02T15:31:53Z</time></trkpt><trkpt lat="42.632256408496886" lon="-3.7301910049212603"><ele>995.5</ele><time>2026-05-02T15:31:54Z</time></trkpt><trkpt lat="42.632179715213525" lon="-3.7300820825267946"><ele>995.0</ele><time>2026-05-02T15:31:55Z</time></trkpt><trkpt lat="42.632102092250726" lon="-3.7299775107099538"><ele>994.5</ele><time>2026-05-02T15:31:56Z</time></trkpt><trkpt lat="42.632022270085415" lon="-3.7298766724940604"><ele>994.0</ele><time>2026-05-02T15:31:57Z</time></trkpt><trkpt lat="42.63194443313391" lon="-3.7297516900821073"><ele>994.0</ele><time>2026-05-02T15:31:58Z</time></trkpt><trkpt lat="42.63184060057926" lon="-3.7296341243392943"><ele>994.0</ele><time>2026-05-02T15:31:59Z</time></trkpt><trkpt lat="42.63175218354428" lon="-3.729513960364819"><ele>994.0</ele><time>2026-05-02T15:32:00Z</time></trkpt><trkpt lat="42.63165779663628" lon="-3.7293856820809044"><ele>994.0</ele><time>2026-05-02T15:32:01Z</time></trkpt><trkpt lat="42.6315426341117" lon="-3.729236919536202"><ele>994.0</ele><time>2026-05-02T15:32:03Z</time></trkpt><trkpt lat="42.63146450943409" lon="-3.7291394990491944"><ele>994.0000000000001</ele><time>2026-05-02T15:32:04Z</time></trkpt><trkpt lat="42.63138069116813" lon="-3.7290457919306235"><ele>994.0000000000001</ele><time>2026-05-02T15:32:05Z</time></trkpt><trkpt lat="42.631293024331654" lon="-3.7289568773985624"><ele>994.0</ele><time>2026-05-02T15:32:06Z</time></trkpt><trkpt lat="42.63120391742093" lon="-3.7288749617975965"><ele>994.0</ele><time>2026-05-02T15:32:07Z</time></trkpt><trkpt lat="42.63110853826953" lon="-3.728795226871025"><ele>994.0</ele><time>2026-05-02T15:32:08Z</time></trkpt><trkpt lat="42.63101053202941" lon="-3.7287219377440035"><ele>994.0</ele><time>2026-05-02T15:32:09Z</time></trkpt><trkpt lat="42.6309090233102" lon="-3.7286568339300463"><ele>994.0</ele><time>2026-05-02T15:32:10Z</time></trkpt><trkpt lat="42.630805113587364" lon="-3.7285959385042857"><ele>994.0</ele><time>2026-05-02T15:32:11Z</time></trkpt><trkpt lat="42.6306978782937" lon="-3.7285404281809167"><ele>991.5</ele><time>2026-05-02T15:32:12Z</time></trkpt><trkpt lat="42.63058858995671" lon="-3.728494372134235"><ele>989.0</ele><time>2026-05-02T15:32:13Z</time></trkpt><trkpt lat="42.63048177471242" lon="-3.728435085141571"><ele>986.5</ele><time>2026-05-02T15:32:14Z</time></trkpt><trkpt lat="42.63036608626249" lon="-3.7284275699615903"><ele>984.0</ele><time>2026-05-02T15:32:15Z</time></trkpt><trkpt lat="42.63025118769293" lon="-3.7283864772869575"><ele>983.0</ele><time>2026-05-02T15:32:16Z</time></trkpt><trkpt lat="42.630137763388845" lon="-3.7283684731097764"><ele>982.0</ele><time>2026-05-02T15:32:17Z</time></trkpt><trkpt lat="42.630023405538125" lon="-3.728353820828036"><ele>981.0</ele><time>2026-05-02T15:32:18Z</time></trkpt><trkpt lat="42.62991089720652" lon="-3.728338798667136"><ele>980.0</ele><time>2026-05-02T15:32:19Z</time></trkpt><trkpt lat="42.62979576701568" lon="-3.7283262158379182"><ele>980.0</ele><time>2026-05-02T15:32:20Z</time></trkpt><trkpt lat="42.62967992876231" lon="-3.7283112272547063"><ele>980.0</ele><time>2026-05-02T15:32:21Z</time></trkpt><trkpt lat="42.62956321313341" lon="-3.7282952015339887"><ele>980.0</ele><time>2026-05-02T15:32:22Z</time></trkpt><trkpt lat="42.62944650955271" lon="-3.7282784765494132"><ele>980.0</ele><time>2026-05-02T15:32:23Z</time></trkpt><trkpt lat="42.62933037787377" lon="-3.7282640802452542"><ele>978.25</ele><time>2026-05-02T15:32:24Z</time></trkpt><trkpt lat="42.62921420670719" lon="-3.7282497829178336"><ele>976.5</ele><time>2026-05-02T15:32:25Z</time></trkpt><trkpt lat="42.62909698214243" lon="-3.728236082314554"><ele>974.75</ele><time>2026-05-02T15:32:26Z</time></trkpt><trkpt lat="42.62898002645926" lon="-3.7282202770903954"><ele>973.0</ele><time>2026-05-02T15:32:27Z</time></trkpt><trkpt lat="42.62886466347364" lon="-3.7282060170748332"><ele>973.0</ele><time>2026-05-02T15:32:28Z</time></trkpt><trkpt lat="42.62875151243891" lon="-3.7281910431929286"><ele>973.0</ele><time>2026-05-02T15:32:29Z</time></trkpt><trkpt lat="42.62863751724152" lon="-3.72817783452353"><ele>973.0</ele><time>2026-05-02T15:32:30Z</time></trkpt><trkpt lat="42.628521790607195" lon="-3.72816464334944"><ele>973.0</ele><time>2026-05-02T15:32:31Z</time></trkpt><trkpt lat="42.62840551669659" lon="-3.728147432876939"><ele>972.75</ele><time>2026-05-02T15:32:32Z</time></trkpt><trkpt lat="42.62829155457888" lon="-3.728131494935843"><ele>972.5</ele><time>2026-05-02T15:32:33Z</time></trkpt><trkpt lat="42.62817641225218" lon="-3.728118579058729"><ele>972.25</ele><time>2026-05-02T15:32:34Z</time></trkpt><trkpt lat="42.628064347541304" lon="-3.7281040325125843"><ele>972.0</ele><time>2026-05-02T15:32:35Z</time></trkpt><trkpt lat="42.62795302130353" lon="-3.7280868121049506"><ele>972.0</ele><time>2026-05-02T15:32:36.001Z</time></trkpt><trkpt lat="42.62784231669496" lon="-3.728069051982551"><ele>972.0</ele><time>2026-05-02T15:32:37.001Z</time></trkpt><trkpt lat="42.6277307125305" lon="-3.7280536840766314"><ele>972.0</ele><time>2026-05-02T15:32:38.001Z</time></trkpt><trkpt lat="42.62762291060334" lon="-3.728040783161341"><ele>972.0</ele><time>2026-05-02T15:32:39.001Z</time></trkpt><trkpt lat="42.62751326530307" lon="-3.7280235768842247"><ele>972.0</ele><time>2026-05-02T15:32:40.001Z</time></trkpt><trkpt lat="42.62741273877234" lon="-3.7280152131191815"><ele>972.0</ele><time>2026-05-02T15:32:41.001Z</time></trkpt><trkpt lat="42.627290637444645" lon="-3.7280066459754804"><ele>972.0</ele><time>2026-05-02T15:32:42.001Z</time></trkpt><trkpt lat="42.62714067129941" lon="-3.7280205796051415"><ele>972.0</ele><time>2026-05-02T15:32:43.001Z</time></trkpt><trkpt lat="42.62708594867113" lon="-3.7279767272484756"><ele>972.0</ele><time>2026-05-02T15:32:44.001Z</time></trkpt><trkpt lat="42.626982645131726" lon="-3.727961691481542"><ele>972.0</ele><time>2026-05-02T15:32:45.001Z</time></trkpt><trkpt lat="42.62687760959922" lon="-3.7279450054784897"><ele>972.6</ele><time>2026-05-02T15:32:46.001Z</time></trkpt><trkpt lat="42.62677650380065" lon="-3.7279289206092163"><ele>973.2</ele><time>2026-05-02T15:32:47.001Z</time></trkpt><trkpt lat="42.62667323769628" lon="-3.7279140547144096"><ele>973.8</ele><time>2026-05-02T15:32:48.001Z</time></trkpt><trkpt lat="42.62656893513378" lon="-3.7279020484678083"><ele>974.4</ele><time>2026-05-02T15:32:49.001Z</time></trkpt><trkpt lat="42.62646728846863" lon="-3.7278914745484104"><ele>975.0</ele><time>2026-05-02T15:32:50.001Z</time></trkpt><trkpt lat="42.626368135472994" lon="-3.7278766677167705"><ele>975.0</ele><time>2026-05-02T15:32:51.001Z</time></trkpt><trkpt lat="42.626269400886116" lon="-3.727862203226564"><ele>975.0</ele><time>2026-05-02T15:32:52.001Z</time></trkpt><trkpt lat="42.62616893521258" lon="-3.7278485238400707"><ele>975.0</ele><time>2026-05-02T15:32:53.001Z</time></trkpt><trkpt lat="42.62606854863915" lon="-3.727837606053833"><ele>975.0</ele><time>2026-05-02T15:32:54.001Z</time></trkpt><trkpt lat="42.62597140424537" lon="-3.7278252359396866"><ele>975.0</ele><time>2026-05-02T15:32:55.001Z</time></trkpt><trkpt lat="42.6258748989936" lon="-3.7278108289356586"><ele>975.2</ele><time>2026-05-02T15:32:56.001Z</time></trkpt><trkpt lat="42.62578144444331" lon="-3.727803364631357"><ele>975.4</ele><time>2026-05-02T15:32:57.001Z</time></trkpt><trkpt lat="42.625683851133495" lon="-3.727794181402322"><ele>975.5999999999999</ele><time>2026-05-02T15:32:58.001Z</time></trkpt><trkpt lat="42.625590075771214" lon="-3.7277771250013156"><ele>975.8</ele><time>2026-05-02T15:32:59.001Z</time></trkpt><trkpt lat="42.62548872220995" lon="-3.7277645183859005"><ele>976.0</ele><time>2026-05-02T15:33:00.001Z</time></trkpt><trkpt lat="42.625391339265924" lon="-3.727753088731856"><ele>976.5999999999999</ele><time>2026-05-02T15:33:01.001Z</time></trkpt><trkpt lat="42.62529308179633" lon="-3.7277376536188505"><ele>977.1999999999999</ele><time>2026-05-02T15:33:02.001Z</time></trkpt><trkpt lat="42.6251943787733" lon="-3.727723858769544"><ele>977.8000000000001</ele><time>2026-05-02T15:33:03.001Z</time></trkpt><trkpt lat="42.6250981499289" lon="-3.7277075430267863"><ele>978.4000000000001</ele><time>2026-05-02T15:33:04.001Z</time></trkpt><trkpt lat="42.62500367134149" lon="-3.727695638238717"><ele>979.0</ele><time>2026-05-02T15:33:05.001Z</time></trkpt><trkpt lat="42.62490790976475" lon="-3.727682952087228"><ele>978.9999999999999</ele><time>2026-05-02T15:33:06.001Z</time></trkpt><trkpt lat="42.62481178184698" lon="-3.727672003434831"><ele>979.0</ele><time>2026-05-02T15:33:07.001Z</time></trkpt><trkpt lat="42.62472545571574" lon="-3.727661426892792"><ele>979.0</ele><time>2026-05-02T15:33:08.001Z</time></trkpt><trkpt lat="42.62464859197165" lon="-3.727658799278473"><ele>979.0</ele><time>2026-05-02T15:33:09.001Z</time></trkpt><trkpt lat="42.62456887656721" lon="-3.727656581821863"><ele>978.9999999999999</ele><time>2026-05-02T15:33:10.001Z</time></trkpt><trkpt lat="42.62449508071708" lon="-3.727652288450639"><ele>979.0</ele><time>2026-05-02T15:33:11.001Z</time></trkpt><trkpt lat="42.62442926258568" lon="-3.7276441030387146"><ele>979.4999999999999</ele><time>2026-05-02T15:33:12.001Z</time></trkpt><trkpt lat="42.62432684346521" lon="-3.7276403593635505"><ele>980.0</ele><time>2026-05-02T15:33:14.001Z</time></trkpt><trkpt lat="42.624261801794454" lon="-3.727654766791538"><ele>980.5</ele><time>2026-05-02T15:33:18.001Z</time></trkpt><trkpt lat="42.62419514901475" lon="-3.727684582590084"><ele>981.0</ele><time>2026-05-02T15:34:02Z</time></trkpt><trkpt lat="42.62411061805811" lon="-3.727710901166737"><ele>981.4999999999999</ele><time>2026-05-02T15:34:07Z</time></trkpt><trkpt lat="42.62402208301171" lon="-3.7276732888827833"><ele>982.0</ele><time>2026-05-02T15:34:09Z</time></trkpt><trkpt lat="42.62390603632887" lon="-3.727620822752313"><ele>982.0</ele><time>2026-05-02T15:34:11Z</time></trkpt><trkpt lat="42.62384328195988" lon="-3.7275875755746584"><ele>981.9999999999999</ele><time>2026-05-02T15:34:12Z</time></trkpt><trkpt lat="42.62378147606449" lon="-3.7275517103665607"><ele>982.0</ele><time>2026-05-02T15:34:13Z</time></trkpt><trkpt lat="42.62371327124756" lon="-3.727520650302901"><ele>982.0</ele><time>2026-05-02T15:34:14Z</time></trkpt><trkpt lat="42.62364181053309" lon="-3.7275002713701904"><ele>981.9999999999999</ele><time>2026-05-02T15:34:15Z</time></trkpt><trkpt lat="42.62356835489028" lon="-3.727482920450365"><ele>982.0</ele><time>2026-05-02T15:34:16Z</time></trkpt><trkpt lat="42.62349455132337" lon="-3.7274635789822366"><ele>982.0</ele><time>2026-05-02T15:34:17Z</time></trkpt><trkpt lat="42.62342208848467" lon="-3.727443388349145"><ele>982.6666666666666</ele><time>2026-05-02T15:34:18Z</time></trkpt><trkpt lat="42.6233476795974" lon="-3.727424559870828"><ele>983.3333333333333</ele><time>2026-05-02T15:34:19Z</time></trkpt><trkpt lat="42.62327197696235" lon="-3.727403211431634"><ele>984.0</ele><time>2026-05-02T15:34:20Z</time></trkpt><trkpt lat="42.62319612608796" lon="-3.7273772169770387"><ele>984.6666666666667</ele><time>2026-05-02T15:34:21Z</time></trkpt><trkpt lat="42.623121354977386" lon="-3.727351226004227"><ele>985.3333333333334</ele><time>2026-05-02T15:34:22Z</time></trkpt><trkpt lat="42.62304532704864" lon="-3.72732339892711"><ele>986.0</ele><time>2026-05-02T15:34:23Z</time></trkpt><trkpt lat="42.622967252146964" lon="-3.7272971127173844"><ele>986.0</ele><time>2026-05-02T15:34:24Z</time></trkpt><trkpt lat="42.62288861313056" lon="-3.727277168587456"><ele>985.9999999999999</ele><time>2026-05-02T15:34:25Z</time></trkpt><trkpt lat="42.62280963534382" lon="-3.727256447473939"><ele>985.9999999999999</ele><time>2026-05-02T15:34:26Z</time></trkpt><trkpt lat="42.62272989527821" lon="-3.7272324792332547"><ele>986.0</ele><time>2026-05-02T15:34:27Z</time></trkpt><trkpt lat="42.622651353389806" lon="-3.7272077383559274"><ele>986.0</ele><time>2026-05-02T15:34:28Z</time></trkpt><trkpt lat="42.62249112953035" lon="-3.727171848591761"><ele>987.0000000000001</ele><time>2026-05-02T15:34:30Z</time></trkpt><trkpt lat="42.622412737214475" lon="-3.7271519094925423"><ele>988.0</ele><time>2026-05-02T15:34:31Z</time></trkpt><trkpt lat="42.62233409034975" lon="-3.727131497647498"><ele>989.0</ele><time>2026-05-02T15:34:32Z</time></trkpt><trkpt lat="42.62225318145006" lon="-3.7271111093115734"><ele>990.0</ele><time>2026-05-02T15:34:33Z</time></trkpt><trkpt lat="42.62217382047837" lon="-3.7270919686909694"><ele>991.0000000000001</ele><time>2026-05-02T15:34:34Z</time></trkpt><trkpt lat="42.6220928143143" lon="-3.727069641944208"><ele>992.0</ele><time>2026-05-02T15:34:35Z</time></trkpt><trkpt lat="42.62201336366257" lon="-3.7270475469188797"><ele>992.6666666666667</ele><time>2026-05-02T15:34:36Z</time></trkpt><trkpt lat="42.62193176889285" lon="-3.727027503476475"><ele>993.3333333333334</ele><time>2026-05-02T15:34:37Z</time></trkpt><trkpt lat="42.62185209909324" lon="-3.7270092964402832"><ele>994.0</ele><time>2026-05-02T15:34:38Z</time></trkpt><trkpt lat="42.62177091949469" lon="-3.7269848928349787"><ele>994.6666666666667</ele><time>2026-05-02T15:34:39Z</time></trkpt><trkpt lat="42.621690492297276" lon="-3.726965460032107"><ele>995.3333333333334</ele><time>2026-05-02T15:34:40Z</time></trkpt><trkpt lat="42.621608771162045" lon="-3.726945641697941"><ele>996.0</ele><time>2026-05-02T15:34:41Z</time></trkpt><trkpt lat="42.62152785338604" lon="-3.726925337911472"><ele>996.0</ele><time>2026-05-02T15:34:42Z</time></trkpt><trkpt lat="42.621446010680955" lon="-3.7269033329453594"><ele>996.0</ele><time>2026-05-02T15:34:43Z</time></trkpt><trkpt lat="42.62136416640869" lon="-3.7268791187811554"><ele>996.0</ele><time>2026-05-02T15:34:44Z</time></trkpt><trkpt lat="42.62128125283001" lon="-3.726858249107841"><ele>996.0</ele><time>2026-05-02T15:34:45Z</time></trkpt><trkpt lat="42.62119912806038" lon="-3.7268385782013604"><ele>996.0</ele><time>2026-05-02T15:34:46Z</time></trkpt><trkpt lat="42.62111635737132" lon="-3.726816585127265"><ele>996.0</ele><time>2026-05-02T15:34:47Z</time></trkpt><trkpt lat="42.62103119249674" lon="-3.726795095343755"><ele>996.8333333333334</ele><time>2026-05-02T15:34:48Z</time></trkpt><trkpt lat="42.62094725385993" lon="-3.7267701620859173"><ele>997.6666666666667</ele><time>2026-05-02T15:34:49Z</time></trkpt><trkpt lat="42.62085971461437" lon="-3.7267442384358183"><ele>998.5</ele><time>2026-05-02T15:34:50Z</time></trkpt><trkpt lat="42.62077282418162" lon="-3.726721287315742"><ele>999.3333333333334</ele><time>2026-05-02T15:34:51Z</time></trkpt><trkpt lat="42.62068189145497" lon="-3.7266973927120306"><ele>1000.1666666666667</ele><time>2026-05-02T15:34:52Z</time></trkpt><trkpt lat="42.62059086200845" lon="-3.72667477897972"><ele>1001.0</ele><time>2026-05-02T15:34:53Z</time></trkpt><trkpt lat="42.62049909403636" lon="-3.7266543457042953"><ele>1001.0</ele><time>2026-05-02T15:34:54Z</time></trkpt><trkpt lat="42.62040639518366" lon="-3.7266274394134298"><ele>1000.9999999999999</ele><time>2026-05-02T15:34:55Z</time></trkpt><trkpt lat="42.62031288141982" lon="-3.726602920180632"><ele>1000.9999999999999</ele><time>2026-05-02T15:34:56.001Z</time></trkpt><trkpt lat="42.62021521017828" lon="-3.7265789138266125"><ele>1001.0</ele><time>2026-05-02T15:34:57.001Z</time></trkpt><trkpt lat="42.62011853789833" lon="-3.726558679478267"><ele>1001.0</ele><time>2026-05-02T15:34:58.001Z</time></trkpt><trkpt lat="42.62001585651117" lon="-3.7265349513178867"><ele>1000.5999999999999</ele><time>2026-05-02T15:34:59.001Z</time></trkpt><trkpt lat="42.61991470309677" lon="-3.726510968234496"><ele>1000.1999999999999</ele><time>2026-05-02T15:35:00.001Z</time></trkpt><trkpt lat="42.61981267337035" lon="-3.726484643568193"><ele>999.8000000000001</ele><time>2026-05-02T15:35:01.001Z</time></trkpt><trkpt lat="42.619710443517526" lon="-3.7264577141329314"><ele>999.4000000000001</ele><time>2026-05-02T15:35:02.001Z</time></trkpt><trkpt lat="42.61960802242542" lon="-3.726432017535386"><ele>999.0</ele><time>2026-05-02T15:35:03.001Z</time></trkpt><trkpt lat="42.619503448036355" lon="-3.7264068898555744"><ele>999.2</ele><time>2026-05-02T15:35:04.001Z</time></trkpt><trkpt lat="42.619397446510376" lon="-3.7263824887247265"><ele>999.4000000000001</ele><time>2026-05-02T15:35:05.001Z</time></trkpt><trkpt lat="42.6192929263367" lon="-3.726358435909343"><ele>999.6</ele><time>2026-05-02T15:35:06.001Z</time></trkpt><trkpt lat="42.6191845199245" lon="-3.726332445770424"><ele>999.8</ele><time>2026-05-02T15:35:07.001Z</time></trkpt><trkpt lat="42.619080985514046" lon="-3.726309593852015"><ele>1000.0</ele><time>2026-05-02T15:35:08.001Z</time></trkpt><trkpt lat="42.61897239886406" lon="-3.7262829406527467"><ele>1000.0</ele><time>2026-05-02T15:35:09.001Z</time></trkpt><trkpt lat="42.61886696681749" lon="-3.7262577881170644"><ele>1000.0</ele><time>2026-05-02T15:35:10.001Z</time></trkpt><trkpt lat="42.61876146125971" lon="-3.7262349415208806"><ele>1000.0</ele><time>2026-05-02T15:35:11.001Z</time></trkpt><trkpt lat="42.61865554902099" lon="-3.7262079989699104"><ele>1000.0</ele><time>2026-05-02T15:35:12.001Z</time></trkpt><trkpt lat="42.61854933663387" lon="-3.726186846381704"><ele>1000.0</ele><time>2026-05-02T15:35:13.001Z</time></trkpt><trkpt lat="42.61844163493162" lon="-3.7261634276816524"><ele>1000.4</ele><time>2026-05-02T15:35:14.001Z</time></trkpt><trkpt lat="42.61833720397833" lon="-3.7261350611935877"><ele>1000.8</ele><time>2026-05-02T15:35:15.001Z</time></trkpt><trkpt lat="42.618232298145195" lon="-3.726110468927463"><ele>1001.2</ele><time>2026-05-02T15:35:16.001Z</time></trkpt><trkpt lat="42.618126795696064" lon="-3.7260863696831996"><ele>1001.6</ele><time>2026-05-02T15:35:17.001Z</time></trkpt><trkpt lat="42.618020800551214" lon="-3.726061351779346"><ele>1002.0</ele><time>2026-05-02T15:35:18.001Z</time></trkpt><trkpt lat="42.617917373641774" lon="-3.726037738421457"><ele>1002.4000000000001</ele><time>2026-05-02T15:35:19.001Z</time></trkpt><trkpt lat="42.61781510260307" lon="-3.7260135207676326"><ele>1002.8000000000001</ele><time>2026-05-02T15:35:20.001Z</time></trkpt><trkpt lat="42.6177124379754" lon="-3.7259894684734483"><ele>1003.2</ele><time>2026-05-02T15:35:21.001Z</time></trkpt><trkpt lat="42.61761129827245" lon="-3.7259636319070877"><ele>1003.6</ele><time>2026-05-02T15:35:22.001Z</time></trkpt><trkpt lat="42.61751036038271" lon="-3.7259389870743522"><ele>1004.0</ele><time>2026-05-02T15:35:23.001Z</time></trkpt><trkpt lat="42.61741199286102" lon="-3.725915850375143"><ele>1004.0</ele><time>2026-05-02T15:35:24.001Z</time></trkpt><trkpt lat="42.617314283081676" lon="-3.7258909142207783"><ele>1004.0000000000001</ele><time>2026-05-02T15:35:25.001Z</time></trkpt><trkpt lat="42.61721505056636" lon="-3.7258654701078253"><ele>1004.0000000000001</ele><time>2026-05-02T15:35:26.001Z</time></trkpt><trkpt lat="42.6171195339329" lon="-3.7258428252688516"><ele>1004.0</ele><time>2026-05-02T15:35:27.001Z</time></trkpt><trkpt lat="42.6170237333476" lon="-3.725821874479354"><ele>1004.0</ele><time>2026-05-02T15:35:28.001Z</time></trkpt><trkpt lat="42.61692851367945" lon="-3.725798820177621"><ele>1005.2</ele><time>2026-05-02T15:35:29.001Z</time></trkpt><trkpt lat="42.61683332665391" lon="-3.7257775736340624"><ele>1006.4000000000001</ele><time>2026-05-02T15:35:30.001Z</time></trkpt><trkpt lat="42.61674117652373" lon="-3.7257556907910776"><ele>1007.6</ele><time>2026-05-02T15:35:31.001Z</time></trkpt><trkpt lat="42.61664824797434" lon="-3.7257322844035463"><ele>1008.8</ele><time>2026-05-02T15:35:32.001Z</time></trkpt><trkpt lat="42.61655658273448" lon="-3.725713157021333"><ele>1010.0</ele><time>2026-05-02T15:35:33.001Z</time></trkpt><trkpt lat="42.616466141663835" lon="-3.725689922061134"><ele>1010.0</ele><time>2026-05-02T15:35:34.001Z</time></trkpt><trkpt lat="42.61637473071797" lon="-3.7256667020631697"><ele>1010.0</ele><time>2026-05-02T15:35:35.001Z</time></trkpt><trkpt lat="42.61628454329507" lon="-3.725647388583237"><ele>1010.0</ele><time>2026-05-02T15:35:36.001Z</time></trkpt><trkpt lat="42.616193418238645" lon="-3.725625577372732"><ele>1010.0</ele><time>2026-05-02T15:35:37.001Z</time></trkpt><trkpt lat="42.61610181634961" lon="-3.7256117556072725"><ele>1010.0</ele><time>2026-05-02T15:35:38.001Z</time></trkpt><trkpt lat="42.616008768575455" lon="-3.725587155153457"><ele>1010.4</ele><time>2026-05-02T15:35:39.001Z</time></trkpt><trkpt lat="42.615919079986185" lon="-3.725564587387431"><ele>1010.8</ele><time>2026-05-02T15:35:40.001Z</time></trkpt><trkpt lat="42.615832722784454" lon="-3.7255477575914617"><ele>1011.2</ele><time>2026-05-02T15:35:41.001Z</time></trkpt><trkpt lat="42.615744321926364" lon="-3.7255202960614255"><ele>1011.6</ele><time>2026-05-02T15:35:42.001Z</time></trkpt><trkpt lat="42.61565378850094" lon="-3.725497592481544"><ele>1012.0</ele><time>2026-05-02T15:35:43.001Z</time></trkpt><trkpt lat="42.61556143912789" lon="-3.7254734375599026"><ele>1012.0</ele><time>2026-05-02T15:35:44.001Z</time></trkpt><trkpt lat="42.615469637327685" lon="-3.7254550133533155"><ele>1012.0</ele><time>2026-05-02T15:35:45.001Z</time></trkpt><trkpt lat="42.61538051061197" lon="-3.7254358524310964"><ele>1012.0</ele><time>2026-05-02T15:35:46.001Z</time></trkpt><trkpt lat="42.6152866285137" lon="-3.7254133351455554"><ele>1012.0</ele><time>2026-05-02T15:35:47.001Z</time></trkpt><trkpt lat="42.615198628153976" lon="-3.725395456589845"><ele>1012.0</ele><time>2026-05-02T15:35:48.001Z</time></trkpt><trkpt lat="42.61510938880331" lon="-3.725375412237772"><ele>1013.2</ele><time>2026-05-02T15:35:49.001Z</time></trkpt><trkpt lat="42.61501682770388" lon="-3.7253493001236375"><ele>1014.4000000000001</ele><time>2026-05-02T15:35:50.001Z</time></trkpt><trkpt lat="42.6149276902745" lon="-3.72532963040752"><ele>1015.5999999999999</ele><time>2026-05-02T15:35:51.001Z</time></trkpt><trkpt lat="42.61483676224593" lon="-3.7253070187695405"><ele>1016.8</ele><time>2026-05-02T15:35:52.001Z</time></trkpt><trkpt lat="42.61474735514428" lon="-3.7252897362043873"><ele>1018.0</ele><time>2026-05-02T15:35:53Z</time></trkpt><trkpt lat="42.61465679307608" lon="-3.7252636857819166"><ele>1018.0</ele><time>2026-05-02T15:35:54Z</time></trkpt><trkpt lat="42.6145662798283" lon="-3.725241141158154"><ele>1018.0</ele><time>2026-05-02T15:35:55Z</time></trkpt><trkpt lat="42.61448027382499" lon="-3.7252185745315236"><ele>1018.0</ele><time>2026-05-02T15:35:56Z</time></trkpt><trkpt lat="42.61439097838669" lon="-3.7251985538512695"><ele>1018.0</ele><time>2026-05-02T15:35:57Z</time></trkpt><trkpt lat="42.614299729208916" lon="-3.7251795360907614"><ele>1018.0</ele><time>2026-05-02T15:35:58Z</time></trkpt><trkpt lat="42.61420722038686" lon="-3.725158808019742"><ele>1017.9999999999999</ele><time>2026-05-02T15:35:59Z</time></trkpt><trkpt lat="42.61412071175053" lon="-3.725133700647211"><ele>1018.0</ele><time>2026-05-02T15:36:00Z</time></trkpt><trkpt lat="42.614035130472985" lon="-3.725112306535622"><ele>1018.0</ele><time>2026-05-02T15:36:01Z</time></trkpt><trkpt lat="42.61394688406953" lon="-3.7250898395322096"><ele>1018.0</ele><time>2026-05-02T15:36:02Z</time></trkpt><trkpt lat="42.613856758589286" lon="-3.7250660189994917"><ele>1017.9999999999999</ele><time>2026-05-02T15:36:03Z</time></trkpt><trkpt lat="42.61377198256765" lon="-3.7250486084196544"><ele>1018.0</ele><time>2026-05-02T15:36:04Z</time></trkpt><trkpt lat="42.613683673471066" lon="-3.7250273130556177"><ele>1018.9999999999999</ele><time>2026-05-02T15:36:05Z</time></trkpt><trkpt lat="42.61359597488692" lon="-3.7250071960480327"><ele>1020.0</ele><time>2026-05-02T15:36:06Z</time></trkpt><trkpt lat="42.61351002441861" lon="-3.724984974221527"><ele>1021.0</ele><time>2026-05-02T15:36:07Z</time></trkpt><trkpt lat="42.613423717391086" lon="-3.7249675635196717"><ele>1022.0</ele><time>2026-05-02T15:36:08Z</time></trkpt><trkpt lat="42.61333706295752" lon="-3.7249482511783505"><ele>1022.9999999999999</ele><time>2026-05-02T15:36:09Z</time></trkpt><trkpt lat="42.61325000570611" lon="-3.724930243252201"><ele>1024.0</ele><time>2026-05-02T15:36:10Z</time></trkpt><trkpt lat="42.61316449900178" lon="-3.7249097865536123"><ele>1023.9999999999999</ele><time>2026-05-02T15:36:11Z</time></trkpt><trkpt lat="42.61307896609717" lon="-3.724888046008372"><ele>1024.0</ele><time>2026-05-02T15:36:12Z</time></trkpt><trkpt lat="42.612991721298386" lon="-3.724867334563889"><ele>1024.0</ele><time>2026-05-02T15:36:13Z</time></trkpt><trkpt lat="42.612904942597304" lon="-3.72484742909229"><ele>1024.0</ele><time>2026-05-02T15:36:14Z</time></trkpt><trkpt lat="42.61281882731008" lon="-3.724825366562333"><ele>1023.9999999999999</ele><time>2026-05-02T15:36:15Z</time></trkpt><trkpt lat="42.612732626895664" lon="-3.7248044186006335"><ele>1024.0</ele><time>2026-05-02T15:36:16Z</time></trkpt><trkpt lat="42.61264554480221" lon="-3.724783237821766"><ele>1024.8</ele><time>2026-05-02T15:36:17Z</time></trkpt><trkpt lat="42.61255533800528" lon="-3.7247622682081962"><ele>1025.6000000000001</ele><time>2026-05-02T15:36:18Z</time></trkpt><trkpt lat="42.612467339838965" lon="-3.7247425467494284"><ele>1026.4</ele><time>2026-05-02T15:36:19Z</time></trkpt><trkpt lat="42.61237543877615" lon="-3.7247190424674526"><ele>1027.2</ele><time>2026-05-02T15:36:20Z</time></trkpt><trkpt lat="42.61227944501978" lon="-3.7246958792487552"><ele>1028.0</ele><time>2026-05-02T15:36:21Z</time></trkpt><trkpt lat="42.61218944324819" lon="-3.724676688749231"><ele>1028.0</ele><time>2026-05-02T15:36:22Z</time></trkpt><trkpt lat="42.61209401167823" lon="-3.7246524305852318"><ele>1028.0</ele><time>2026-05-02T15:36:23Z</time></trkpt><trkpt lat="42.61200142611241" lon="-3.7246351248846485"><ele>1028.0</ele><time>2026-05-02T15:36:24Z</time></trkpt><trkpt lat="42.61190817764083" lon="-3.724607051739891"><ele>1028.0</ele><time>2026-05-02T15:36:25Z</time></trkpt><trkpt lat="42.61180869624313" lon="-3.724586269244821"><ele>1028.0</ele><time>2026-05-02T15:36:26Z</time></trkpt><trkpt lat="42.61171270918151" lon="-3.724567014143318"><ele>1028.6</ele><time>2026-05-02T15:36:27Z</time></trkpt><trkpt lat="42.6116214281353" lon="-3.724541851248638"><ele>1029.1999999999998</ele><time>2026-05-02T15:36:28Z</time></trkpt><trkpt lat="42.61152155427402" lon="-3.7245194541977877"><ele>1029.8</ele><time>2026-05-02T15:36:29Z</time></trkpt><trkpt lat="42.61143218121071" lon="-3.724499520375547"><ele>1030.3999999999999</ele><time>2026-05-02T15:36:30Z</time></trkpt><trkpt lat="42.61133442309545" lon="-3.7244710960625267"><ele>1031.0</ele><time>2026-05-02T15:36:31Z</time></trkpt><trkpt lat="42.611239881556074" lon="-3.7244516117734396"><ele>1031.3999999999999</ele><time>2026-05-02T15:36:32Z</time></trkpt><trkpt lat="42.611150446698694" lon="-3.7244272248222865"><ele>1031.8</ele><time>2026-05-02T15:36:33Z</time></trkpt><trkpt lat="42.61105613748184" lon="-3.7244071192247485"><ele>1032.1999999999998</ele><time>2026-05-02T15:36:34Z</time></trkpt><trkpt lat="42.61096915309078" lon="-3.7243852089279965"><ele>1032.6</ele><time>2026-05-02T15:36:35Z</time></trkpt><trkpt lat="42.61087799748284" lon="-3.7243654181456325"><ele>1033.0</ele><time>2026-05-02T15:36:36Z</time></trkpt><trkpt lat="42.61078628178056" lon="-3.7243445641049138"><ele>1033.0</ele><time>2026-05-02T15:36:37Z</time></trkpt><trkpt lat="42.61069461986394" lon="-3.724320640434548"><ele>1033.0</ele><time>2026-05-02T15:36:38Z</time></trkpt><trkpt lat="42.61060529809472" lon="-3.724296310976079"><ele>1033.0</ele><time>2026-05-02T15:36:39Z</time></trkpt><trkpt lat="42.61051845305879" lon="-3.7242790953720033"><ele>1033.0</ele><time>2026-05-02T15:36:40Z</time></trkpt><trkpt lat="42.61042620130303" lon="-3.724254635193913"><ele>1033.0</ele><time>2026-05-02T15:36:41Z</time></trkpt><trkpt lat="42.610336844327115" lon="-3.7242398716773364"><ele>1033.6</ele><time>2026-05-02T15:36:42Z</time></trkpt><trkpt lat="42.61024683164287" lon="-3.7242253713554856"><ele>1034.1999999999998</ele><time>2026-05-02T15:36:43Z</time></trkpt><trkpt lat="42.610153271604666" lon="-3.7242088924122045"><ele>1034.8</ele><time>2026-05-02T15:36:44Z</time></trkpt><trkpt lat="42.610060588614296" lon="-3.7241966365349857"><ele>1035.3999999999999</ele><time>2026-05-02T15:36:45Z</time></trkpt><trkpt lat="42.60996855477061" lon="-3.7241827258668603"><ele>1036.0</ele><time>2026-05-02T15:36:46Z</time></trkpt><trkpt lat="42.60987106061058" lon="-3.7241686005507817"><ele>1036.0</ele><time>2026-05-02T15:36:47Z</time></trkpt><trkpt lat="42.60977091770484" lon="-3.7241592271636006"><ele>1036.0</ele><time>2026-05-02T15:36:48Z</time></trkpt><trkpt lat="42.60967593771431" lon="-3.72415338499594"><ele>1036.0</ele><time>2026-05-02T15:36:49Z</time></trkpt><trkpt lat="42.609578948530654" lon="-3.724144639916284"><ele>1036.0</ele><time>2026-05-02T15:36:50Z</time></trkpt><trkpt lat="42.60947881962755" lon="-3.7241429835594784"><ele>1036.0</ele><time>2026-05-02T15:36:51Z</time></trkpt><trkpt lat="42.60937728604887" lon="-3.7241424138290307"><ele>1036.3999999999999</ele><time>2026-05-02T15:36:52Z</time></trkpt><trkpt lat="42.609276447652036" lon="-3.724144051347785"><ele>1036.8</ele><time>2026-05-02T15:36:53Z</time></trkpt><trkpt lat="42.60917467040958" lon="-3.72414955223551"><ele>1037.1999999999998</ele><time>2026-05-02T15:36:54Z</time></trkpt><trkpt lat="42.60907237363893" lon="-3.724156282207826"><ele>1037.6</ele><time>2026-05-02T15:36:55Z</time></trkpt><trkpt lat="42.608968535399256" lon="-3.7241651659076265"><ele>1038.0</ele><time>2026-05-02T15:36:56Z</time></trkpt><trkpt lat="42.60886312562216" lon="-3.7241793629827082"><ele>1038.0</ele><time>2026-05-02T15:36:57Z</time></trkpt><trkpt lat="42.60875816977302" lon="-3.7241923309820595"><ele>1038.0</ele><time>2026-05-02T15:36:58Z</time></trkpt><trkpt lat="42.60864998771775" lon="-3.7242096170598895"><ele>1038.0</ele><time>2026-05-02T15:36:59Z</time></trkpt><trkpt lat="42.60854573094898" lon="-3.7242309815346615"><ele>1038.0</ele><time>2026-05-02T15:37:00Z</time></trkpt><trkpt lat="42.60843986605337" lon="-3.724249689461122"><ele>1038.0</ele><time>2026-05-02T15:37:01Z</time></trkpt><trkpt lat="42.60833376625155" lon="-3.72427066931187"><ele>1038.0</ele><time>2026-05-02T15:37:02Z</time></trkpt><trkpt lat="42.60823056649606" lon="-3.724295481979436"><ele>1038.0</ele><time>2026-05-02T15:37:03Z</time></trkpt><trkpt lat="42.60812476678924" lon="-3.7243166819348463"><ele>1038.0</ele><time>2026-05-02T15:37:04Z</time></trkpt><trkpt lat="42.60802003762922" lon="-3.724337851934173"><ele>1038.0</ele><time>2026-05-02T15:37:05Z</time></trkpt><trkpt lat="42.60791373116753" lon="-3.724363064841949"><ele>1038.0</ele><time>2026-05-02T15:37:06Z</time></trkpt><trkpt lat="42.60781148737018" lon="-3.7243904394710308"><ele>1038.8</ele><time>2026-05-02T15:37:07Z</time></trkpt><trkpt lat="42.607708648624445" lon="-3.724414118480012"><ele>1039.6</ele><time>2026-05-02T15:37:08Z</time></trkpt><trkpt lat="42.6076019011358" lon="-3.7244382200000774"><ele>1040.4</ele><time>2026-05-02T15:37:09Z</time></trkpt><trkpt lat="42.60750033238812" lon="-3.7244615132403047"><ele>1041.2</ele><time>2026-05-02T15:37:10Z</time></trkpt><trkpt lat="42.60739422276509" lon="-3.7244841816779037"><ele>1042.0</ele><time>2026-05-02T15:37:11Z</time></trkpt><trkpt lat="42.60729132795628" lon="-3.7245087839249473"><ele>1042.0</ele><time>2026-05-02T15:37:12Z</time></trkpt><trkpt lat="42.60718911454175" lon="-3.7245315903286196"><ele>1042.0</ele><time>2026-05-02T15:37:13Z</time></trkpt><trkpt lat="42.60708335208825" lon="-3.724551921359448"><ele>1042.0</ele><time>2026-05-02T15:37:14Z</time></trkpt><trkpt lat="42.60697827916011" lon="-3.724576371034101"><ele>1042.0</ele><time>2026-05-02T15:37:15Z</time></trkpt><trkpt lat="42.60687128910797" lon="-3.7246000809044433"><ele>1042.0</ele><time>2026-05-02T15:37:16Z</time></trkpt><trkpt lat="42.60676815159202" lon="-3.7246225569627684"><ele>1041.2</ele><time>2026-05-02T15:37:17Z</time></trkpt><trkpt lat="42.60665964088931" lon="-3.7246446586985766"><ele>1040.4</ele><time>2026-05-02T15:37:18Z</time></trkpt><trkpt lat="42.606553183818114" lon="-3.724667376316832"><ele>1039.6</ele><time>2026-05-02T15:37:19Z</time></trkpt><trkpt lat="42.60644666825872" lon="-3.7246909934589016"><ele>1038.8</ele><time>2026-05-02T15:37:20Z</time></trkpt><trkpt lat="42.60634107111929" lon="-3.724714136709736"><ele>1038.0</ele><time>2026-05-02T15:37:21Z</time></trkpt><trkpt lat="42.60622512775647" lon="-3.724740817737508"><ele>1038.0</ele><time>2026-05-02T15:37:22Z</time></trkpt><trkpt lat="42.60613154121159" lon="-3.7247683215763128"><ele>1038.0</ele><time>2026-05-02T15:37:23Z</time></trkpt><trkpt lat="42.60590251561917" lon="-3.72480776107896"><ele>1038.0</ele><time>2026-05-02T15:37:25Z</time></trkpt><trkpt lat="42.60579522324973" lon="-3.724833803121408"><ele>1038.0</ele><time>2026-05-02T15:37:26Z</time></trkpt><trkpt lat="42.605684034720255" lon="-3.7248513865846355"><ele>1038.0</ele><time>2026-05-02T15:37:27Z</time></trkpt><trkpt lat="42.605572970187126" lon="-3.7248759765256496"><ele>1038.0</ele><time>2026-05-02T15:37:28Z</time></trkpt><trkpt lat="42.60546866231286" lon="-3.724902918031339"><ele>1038.0</ele><time>2026-05-02T15:37:29Z</time></trkpt><trkpt lat="42.605365240304366" lon="-3.7249245515993623"><ele>1038.0</ele><time>2026-05-02T15:37:30Z</time></trkpt><trkpt lat="42.60525482757868" lon="-3.724952116554752"><ele>1038.0</ele><time>2026-05-02T15:37:31Z</time></trkpt><trkpt lat="42.605147109886836" lon="-3.724981411722635"><ele>1037.4</ele><time>2026-05-02T15:37:32Z</time></trkpt><trkpt lat="42.60504398517736" lon="-3.725005939760258"><ele>1036.8</ele><time>2026-05-02T15:37:33Z</time></trkpt><trkpt lat="42.60493538399616" lon="-3.7250311524560424"><ele>1036.2</ele><time>2026-05-02T15:37:34Z</time></trkpt><trkpt lat="42.604831024027916" lon="-3.725053694806637"><ele>1035.6</ele><time>2026-05-02T15:37:35Z</time></trkpt><trkpt lat="42.60472439593687" lon="-3.725079063287929"><ele>1035.0</ele><time>2026-05-02T15:37:36Z</time></trkpt><trkpt lat="42.60462266629286" lon="-3.7251011708732413"><ele>1035.0</ele><time>2026-05-02T15:37:37Z</time></trkpt><trkpt lat="42.604519428774914" lon="-3.7251277640452787"><ele>1035.0</ele><time>2026-05-02T15:37:38.001Z</time></trkpt><trkpt lat="42.60441581876272" lon="-3.725149209292271"><ele>1035.0</ele><time>2026-05-02T15:37:39.001Z</time></trkpt><trkpt lat="42.6043135271115" lon="-3.7251735625591715"><ele>1035.0</ele><time>2026-05-02T15:37:40.001Z</time></trkpt><trkpt lat="42.60421070278878" lon="-3.7251973668319276"><ele>1035.0</ele><time>2026-05-02T15:37:41.001Z</time></trkpt><trkpt lat="42.604109817867624" lon="-3.725220564900249"><ele>1035.0</ele><time>2026-05-02T15:37:42.001Z</time></trkpt><trkpt lat="42.60400641636798" lon="-3.7252449776513834"><ele>1035.0</ele><time>2026-05-02T15:37:43.001Z</time></trkpt><trkpt lat="42.60389570969488" lon="-3.725266960770313"><ele>1035.0</ele><time>2026-05-02T15:37:44.001Z</time></trkpt><trkpt lat="42.60378684464073" lon="-3.7252944171662916"><ele>1035.0</ele><time>2026-05-02T15:37:45.001Z</time></trkpt><trkpt lat="42.60367750417969" lon="-3.725321781301351"><ele>1035.0</ele><time>2026-05-02T15:37:46.001Z</time></trkpt><trkpt lat="42.60356921853933" lon="-3.725346908373374"><ele>1035.0</ele><time>2026-05-02T15:37:47.001Z</time></trkpt><trkpt lat="42.60346341611678" lon="-3.725367388127475"><ele>1035.0</ele><time>2026-05-02T15:37:48.001Z</time></trkpt><trkpt lat="42.60335643771442" lon="-3.725394347821468"><ele>1035.0</ele><time>2026-05-02T15:37:49.001Z</time></trkpt><trkpt lat="42.60324649018042" lon="-3.72542036662276"><ele>1035.0</ele><time>2026-05-02T15:37:50.001Z</time></trkpt><trkpt lat="42.603140280388416" lon="-3.7254397232055654"><ele>1035.0</ele><time>2026-05-02T15:37:51.001Z</time></trkpt><trkpt lat="42.60303195037809" lon="-3.7254605892389"><ele>1035.0</ele><time>2026-05-02T15:37:52.001Z</time></trkpt><trkpt lat="42.60292695276342" lon="-3.7254876674426294"><ele>1035.0</ele><time>2026-05-02T15:37:53.001Z</time></trkpt><trkpt lat="42.60282557306293" lon="-3.7255228633378867"><ele>1035.0</ele><time>2026-05-02T15:37:54.001Z</time></trkpt><trkpt lat="42.602719331327584" lon="-3.725542573956866"><ele>1035.0</ele><time>2026-05-02T15:37:55.001Z</time></trkpt><trkpt lat="42.60261424135472" lon="-3.7255635388538777"><ele>1035.0</ele><time>2026-05-02T15:37:56.001Z</time></trkpt><trkpt lat="42.60250758974363" lon="-3.7255898498524704"><ele>1034.8</ele><time>2026-05-02T15:37:57.001Z</time></trkpt><trkpt lat="42.6024033980796" lon="-3.72561216059953"><ele>1034.6</ele><time>2026-05-02T15:37:58.001Z</time></trkpt><trkpt lat="42.6023003218033" lon="-3.7256395989324207"><ele>1034.4</ele><time>2026-05-02T15:37:59Z</time></trkpt><trkpt lat="42.60219585052014" lon="-3.725665681725012"><ele>1034.2</ele><time>2026-05-02T15:38:00Z</time></trkpt><trkpt lat="42.602089985318585" lon="-3.725688637154946"><ele>1034.0</ele><time>2026-05-02T15:38:01Z</time></trkpt><trkpt lat="42.60198324431413" lon="-3.725713405629385"><ele>1033.4</ele><time>2026-05-02T15:38:02Z</time></trkpt><trkpt lat="42.601878385525104" lon="-3.7257345005811575"><ele>1032.8000000000002</ele><time>2026-05-02T15:38:03Z</time></trkpt><trkpt lat="42.60177170901682" lon="-3.725755482850451"><ele>1032.1999999999998</ele><time>2026-05-02T15:38:04Z</time></trkpt><trkpt lat="42.601665794318095" lon="-3.7257785338319107"><ele>1031.6</ele><time>2026-05-02T15:38:05Z</time></trkpt><trkpt lat="42.60155968090839" lon="-3.7258074941674466"><ele>1031.0</ele><time>2026-05-02T15:38:06Z</time></trkpt><trkpt lat="42.6014538612195" lon="-3.72583345206429"><ele>1031.0</ele><time>2026-05-02T15:38:07Z</time></trkpt><trkpt lat="42.60134560014442" lon="-3.725854773348624"><ele>1031.0</ele><time>2026-05-02T15:38:08Z</time></trkpt><trkpt lat="42.60124156107013" lon="-3.7258844148846983"><ele>1031.0</ele><time>2026-05-02T15:38:09Z</time></trkpt><trkpt lat="42.60113447374122" lon="-3.7259163995230558"><ele>1031.0</ele><time>2026-05-02T15:38:10Z</time></trkpt><trkpt lat="42.60102808201612" lon="-3.725947680219849"><ele>1031.0</ele><time>2026-05-02T15:38:11Z</time></trkpt><trkpt lat="42.600923211711375" lon="-3.7259887360235857"><ele>1031.0</ele><time>2026-05-02T15:38:12Z</time></trkpt><trkpt lat="42.600820682838766" lon="-3.7260309519425006"><ele>1031.0</ele><time>2026-05-02T15:38:13Z</time></trkpt><trkpt lat="42.600720326274974" lon="-3.726079774049505"><ele>1031.0</ele><time>2026-05-02T15:38:14Z</time></trkpt><trkpt lat="42.600618595592394" lon="-3.726128582921177"><ele>1031.0</ele><time>2026-05-02T15:38:15Z</time></trkpt><trkpt lat="42.60052079943893" lon="-3.7261845588525504"><ele>1031.0</ele><time>2026-05-02T15:38:16Z</time></trkpt><trkpt lat="42.600424019981084" lon="-3.726241338114476"><ele>1029.8</ele><time>2026-05-02T15:38:17Z</time></trkpt><trkpt lat="42.600329063223505" lon="-3.726308547510589"><ele>1028.6</ele><time>2026-05-02T15:38:18Z</time></trkpt><trkpt lat="42.60023384762782" lon="-3.726373168580705"><ele>1027.4</ele><time>2026-05-02T15:38:19Z</time></trkpt><trkpt lat="42.6001429787996" lon="-3.726445289136439"><ele>1026.2</ele><time>2026-05-02T15:38:20Z</time></trkpt><trkpt lat="42.60005628335583" lon="-3.7265185916726358"><ele>1025.0</ele><time>2026-05-02T15:38:21Z</time></trkpt><trkpt lat="42.59996524768472" lon="-3.72659511416124"><ele>1025.0</ele><time>2026-05-02T15:38:22Z</time></trkpt><trkpt lat="42.5998721107204" lon="-3.7266659350137443"><ele>1025.0</ele><time>2026-05-02T15:38:23Z</time></trkpt><trkpt lat="42.599782409249464" lon="-3.7267396490535125"><ele>1025.0</ele><time>2026-05-02T15:38:24Z</time></trkpt><trkpt lat="42.59969411811299" lon="-3.7268175228289993"><ele>1025.0</ele><time>2026-05-02T15:38:25Z</time></trkpt><trkpt lat="42.599606214514196" lon="-3.7268904784404246"><ele>1025.0</ele><time>2026-05-02T15:38:26Z</time></trkpt><trkpt lat="42.59951374031855" lon="-3.7269592681351256"><ele>1024.6</ele><time>2026-05-02T15:38:27Z</time></trkpt><trkpt lat="42.59941686737776" lon="-3.7270156023268846"><ele>1024.2</ele><time>2026-05-02T15:38:28Z</time></trkpt><trkpt lat="42.5993195467714" lon="-3.7270680232265296"><ele>1023.8</ele><time>2026-05-02T15:38:29Z</time></trkpt><trkpt lat="42.59921805669725" lon="-3.7271157424368484"><ele>1023.4</ele><time>2026-05-02T15:38:30Z</time></trkpt><trkpt lat="42.599118941879425" lon="-3.727158384705245"><ele>1023.0</ele><time>2026-05-02T15:38:31Z</time></trkpt><trkpt lat="42.59901782139867" lon="-3.727183689068518"><ele>1023.0</ele><time>2026-05-02T15:38:32Z</time></trkpt><trkpt lat="42.59891347628886" lon="-3.7272053045819162"><ele>1023.0</ele><time>2026-05-02T15:38:33Z</time></trkpt><trkpt lat="42.59880401099194" lon="-3.7272100155273122"><ele>1023.0</ele><time>2026-05-02T15:38:34Z</time></trkpt><trkpt lat="42.59869922016128" lon="-3.7272108179851684"><ele>1023.0</ele><time>2026-05-02T15:38:35Z</time></trkpt><trkpt lat="42.59859685933266" lon="-3.7272101329491294"><ele>1023.0</ele><time>2026-05-02T15:38:36Z</time></trkpt><trkpt lat="42.5984991297788" lon="-3.7271997219904835"><ele>1022.8333333333334</ele><time>2026-05-02T15:38:37Z</time></trkpt><trkpt lat="42.59840964175964" lon="-3.7271663119364113"><ele>1022.6666666666667</ele><time>2026-05-02T15:38:38Z</time></trkpt><trkpt lat="42.59832146654634" lon="-3.7271379064729855"><ele>1022.5</ele><time>2026-05-02T15:38:39Z</time></trkpt><trkpt lat="42.598255097325016" lon="-3.7271246809280414"><ele>1022.3333333333334</ele><time>2026-05-02T15:38:40Z</time></trkpt><trkpt lat="42.59817874607951" lon="-3.72708748267572"><ele>1022.1666666666667</ele><time>2026-05-02T15:38:42Z</time></trkpt><trkpt lat="42.59810835083571" lon="-3.72704682784877"><ele>1022.0</ele><time>2026-05-02T15:39:55Z</time></trkpt><trkpt lat="42.59805118591167" lon="-3.727008777292042"><ele>1022.0</ele><time>2026-05-02T15:39:58Z</time></trkpt><trkpt lat="42.59797021831586" lon="-3.726964496885223"><ele>1022.0</ele><time>2026-05-02T15:40:00.001Z</time></trkpt><trkpt lat="42.59787114310303" lon="-3.726903702551833"><ele>1022.0</ele><time>2026-05-02T15:40:02.001Z</time></trkpt><trkpt lat="42.59775820592014" lon="-3.726835518927839"><ele>1022.0</ele><time>2026-05-02T15:40:04.001Z</time></trkpt><trkpt lat="42.59769736360513" lon="-3.726799548128484"><ele>1022.0</ele><time>2026-05-02T15:40:05Z</time></trkpt><trkpt lat="42.597635386153726" lon="-3.7267645174299964"><ele>1021.2857142857142</ele><time>2026-05-02T15:40:06Z</time></trkpt><trkpt lat="42.59757213446589" lon="-3.726731780714039"><ele>1020.5714285714286</ele><time>2026-05-02T15:40:07Z</time></trkpt><trkpt lat="42.59750631057977" lon="-3.7266993790546863"><ele>1019.8571428571429</ele><time>2026-05-02T15:40:08Z</time></trkpt><trkpt lat="42.597440148447554" lon="-3.726670519070827"><ele>1019.1428571428571</ele><time>2026-05-02T15:40:09Z</time></trkpt><trkpt lat="42.59737329196906" lon="-3.726642366832984"><ele>1018.4285714285713</ele><time>2026-05-02T15:40:10Z</time></trkpt><trkpt lat="42.59730650381321" lon="-3.7266183829737676"><ele>1017.7142857142857</ele><time>2026-05-02T15:40:11Z</time></trkpt><trkpt lat="42.59723520622612" lon="-3.726599166795916"><ele>1017.0</ele><time>2026-05-02T15:40:12Z</time></trkpt><trkpt lat="42.59715988854338" lon="-3.7265832636630036"><ele>1017.0</ele><time>2026-05-02T15:40:13Z</time></trkpt><trkpt lat="42.59708439764001" lon="-3.7265743535721687"><ele>1017.0</ele><time>2026-05-02T15:40:14Z</time></trkpt><trkpt lat="42.59700757659477" lon="-3.726567347720425"><ele>1017.0</ele><time>2026-05-02T15:40:15Z</time></trkpt><trkpt lat="42.59692942146508" lon="-3.726562918387173"><ele>1017.0</ele><time>2026-05-02T15:40:16Z</time></trkpt><trkpt lat="42.59684932415412" lon="-3.7265638865808564"><ele>1017.0</ele><time>2026-05-02T15:40:17Z</time></trkpt><trkpt lat="42.59676915454836" lon="-3.7265735653003778"><ele>1017.0</ele><time>2026-05-02T15:40:18Z</time></trkpt><trkpt lat="42.596691431563855" lon="-3.726589957824507"><ele>1017.1666666666666</ele><time>2026-05-02T15:40:19Z</time></trkpt><trkpt lat="42.5966164099832" lon="-3.7266097488397825"><ele>1017.3333333333333</ele><time>2026-05-02T15:40:20Z</time></trkpt><trkpt lat="42.59654214719832" lon="-3.7266320038608867"><ele>1017.5</ele><time>2026-05-02T15:40:21Z</time></trkpt><trkpt lat="42.596464938859384" lon="-3.726659015044295"><ele>1017.6666666666666</ele><time>2026-05-02T15:40:22Z</time></trkpt><trkpt lat="42.596387404916" lon="-3.7266887351114826"><ele>1017.8333333333333</ele><time>2026-05-02T15:40:23Z</time></trkpt><trkpt lat="42.59630739841296" lon="-3.7267210388026206"><ele>1018.0</ele><time>2026-05-02T15:40:24Z</time></trkpt><trkpt lat="42.596226265364514" lon="-3.72675453109576"><ele>1018.1666666666666</ele><time>2026-05-02T15:40:25Z</time></trkpt><trkpt lat="42.596146222386174" lon="-3.7267859955176035"><ele>1018.3333333333333</ele><time>2026-05-02T15:40:26Z</time></trkpt><trkpt lat="42.59606419163817" lon="-3.7268163140396857"><ele>1018.5</ele><time>2026-05-02T15:40:27Z</time></trkpt><trkpt lat="42.59598286723842" lon="-3.726849112138661"><ele>1018.6666666666667</ele><time>2026-05-02T15:40:28Z</time></trkpt><trkpt lat="42.59590035174827" lon="-3.726883931423161"><ele>1018.8333333333334</ele><time>2026-05-02T15:40:29Z</time></trkpt><trkpt lat="42.59581776648507" lon="-3.726914370423485"><ele>1019.0</ele><time>2026-05-02T15:40:30Z</time></trkpt><trkpt lat="42.59573421531032" lon="-3.726944326799231"><ele>1018.3333333333334</ele><time>2026-05-02T15:40:31Z</time></trkpt><trkpt lat="42.5956509679676" lon="-3.7269750985881296"><ele>1017.6666666666667</ele><time>2026-05-02T15:40:32Z</time></trkpt><trkpt lat="42.59556884146128" lon="-3.7270120391799466"><ele>1017.0</ele><time>2026-05-02T15:40:33Z</time></trkpt><trkpt lat="42.59548545796513" lon="-3.7270470983919783"><ele>1016.3333333333333</ele><time>2026-05-02T15:40:34Z</time></trkpt><trkpt lat="42.595400250877724" lon="-3.727077608791867"><ele>1015.6666666666666</ele><time>2026-05-02T15:40:35Z</time></trkpt><trkpt lat="42.5953141367403" lon="-3.7271025867310263"><ele>1015.0</ele><time>2026-05-02T15:40:36Z</time></trkpt><trkpt lat="42.59522533356578" lon="-3.7271224145163355"><ele>1014.3333333333333</ele><time>2026-05-02T15:40:37Z</time></trkpt><trkpt lat="42.59513691916236" lon="-3.7271411298553487"><ele>1013.6666666666666</ele><time>2026-05-02T15:40:38Z</time></trkpt><trkpt lat="42.59504930434709" lon="-3.7271529568267394"><ele>1013.0</ele><time>2026-05-02T15:40:39Z</time></trkpt><trkpt lat="42.594960639411646" lon="-3.7271612543011434"><ele>1012.3333333333333</ele><time>2026-05-02T15:40:40Z</time></trkpt><trkpt lat="42.59486963510048" lon="-3.727159242333634"><ele>1011.6666666666666</ele><time>2026-05-02T15:40:41Z</time></trkpt><trkpt lat="42.59478038079886" lon="-3.7271523860605567"><ele>1011.0</ele><time>2026-05-02T15:40:42Z</time></trkpt><trkpt lat="42.59468888779632" lon="-3.727139455834838"><ele>1011.0</ele><time>2026-05-02T15:40:43Z</time></trkpt><trkpt lat="42.59459969355797" lon="-3.727121313516186"><ele>1010.9999999999999</ele><time>2026-05-02T15:40:44Z</time></trkpt><trkpt lat="42.59451075018149" lon="-3.7270973346823904"><ele>1010.9999999999999</ele><time>2026-05-02T15:40:45Z</time></trkpt><trkpt lat="42.594422560471514" lon="-3.727069490502753"><ele>1011.0</ele><time>2026-05-02T15:40:46Z</time></trkpt><trkpt lat="42.59433379640149" lon="-3.7270330245031102"><ele>1011.0</ele><time>2026-05-02T15:40:47Z</time></trkpt><trkpt lat="42.59424422692829" lon="-3.726988592200566"><ele>1011.0</ele><time>2026-05-02T15:40:48Z</time></trkpt><trkpt lat="42.59415397371614" lon="-3.7269385730869433"><ele>1010.9999999999999</ele><time>2026-05-02T15:40:49Z</time></trkpt><trkpt lat="42.59406796277084" lon="-3.7268788882336787"><ele>1010.9999999999999</ele><time>2026-05-02T15:40:50Z</time></trkpt><trkpt lat="42.5939804335505" lon="-3.7268121050040204"><ele>1011.0</ele><time>2026-05-02T15:40:51Z</time></trkpt><trkpt lat="42.59389311905933" lon="-3.7267423022300616"><ele>1011.0</ele><time>2026-05-02T15:40:52Z</time></trkpt><trkpt lat="42.59381021858016" lon="-3.72666427091517"><ele>1011.0</ele><time>2026-05-02T15:40:53Z</time></trkpt><trkpt lat="42.59373016567021" lon="-3.72658268890648"><ele>1010.9999999999999</ele><time>2026-05-02T15:40:54Z</time></trkpt><trkpt lat="42.59364793553681" lon="-3.7264983649436694"><ele>1010.9999999999999</ele><time>2026-05-02T15:40:55Z</time></trkpt><trkpt lat="42.5935666944031" lon="-3.726413936064769"><ele>1011.0</ele><time>2026-05-02T15:40:56Z</time></trkpt><trkpt lat="42.59349089504346" lon="-3.726328133960014"><ele>1011.0</ele><time>2026-05-02T15:40:57Z</time></trkpt><trkpt lat="42.59341338928773" lon="-3.7262440654160978"><ele>1011.4</ele><time>2026-05-02T15:40:58Z</time></trkpt><trkpt lat="42.593332124880526" lon="-3.726159349521293"><ele>1011.8</ele><time>2026-05-02T15:40:59Z</time></trkpt><trkpt lat="42.59324846367399" lon="-3.7260783999920783"><ele>1012.1999999999999</ele><time>2026-05-02T15:41:00Z</time></trkpt><trkpt lat="42.59316331855597" lon="-3.72599986824674"><ele>1012.5999999999999</ele><time>2026-05-02T15:41:01Z</time></trkpt><trkpt lat="42.593075804697584" lon="-3.725926372670289"><ele>1013.0</ele><time>2026-05-02T15:41:02Z</time></trkpt><trkpt lat="42.592986032800304" lon="-3.725859427963823"><ele>1011.8</ele><time>2026-05-02T15:41:03Z</time></trkpt><trkpt lat="42.59289151908137" lon="-3.725801768115363"><ele>1010.5999999999999</ele><time>2026-05-02T15:41:04Z</time></trkpt><trkpt lat="42.59279909346377" lon="-3.7257486512211164"><ele>1009.4000000000001</ele><time>2026-05-02T15:41:05Z</time></trkpt><trkpt lat="42.59270068357683" lon="-3.7257028274763817"><ele>1008.2</ele><time>2026-05-02T15:41:06Z</time></trkpt><trkpt lat="42.592602047080774" lon="-3.7256662575911847"><ele>1007.0</ele><time>2026-05-02T15:41:07Z</time></trkpt><trkpt lat="42.592503488527726" lon="-3.725636879754022"><ele>1007.0</ele><time>2026-05-02T15:41:08Z</time></trkpt><trkpt lat="42.59240431424286" lon="-3.7256126914212193"><ele>1007.0</ele><time>2026-05-02T15:41:09Z</time></trkpt><trkpt lat="42.59230122346791" lon="-3.725595428098554"><ele>1007.0</ele><time>2026-05-02T15:41:10Z</time></trkpt><trkpt lat="42.59220001543168" lon="-3.7255834438514555"><ele>1007.0</ele><time>2026-05-02T15:41:11Z</time></trkpt><trkpt lat="42.59209787957293" lon="-3.725576222485048"><ele>1007.0</ele><time>2026-05-02T15:41:12Z</time></trkpt><trkpt lat="42.59199737828625" lon="-3.725572890814037"><ele>1006.2</ele><time>2026-05-02T15:41:13Z</time></trkpt><trkpt lat="42.59189658770525" lon="-3.7255720759699864"><ele>1005.4000000000001</ele><time>2026-05-02T15:41:14Z</time></trkpt><trkpt lat="42.59179467201916" lon="-3.725571819573374"><ele>1004.5999999999999</ele><time>2026-05-02T15:41:15Z</time></trkpt><trkpt lat="42.591693627506835" lon="-3.7255689746629295"><ele>1003.8</ele><time>2026-05-02T15:41:16Z</time></trkpt><trkpt lat="42.591591458278" lon="-3.7255688144367896"><ele>1003.0</ele><time>2026-05-02T15:41:17Z</time></trkpt><trkpt lat="42.59148919540156" lon="-3.72557142949627"><ele>1003.0</ele><time>2026-05-02T15:41:18Z</time></trkpt><trkpt lat="42.591387808106354" lon="-3.725573446266529"><ele>1003.0</ele><time>2026-05-02T15:41:19Z</time></trkpt><trkpt lat="42.59128543268685" lon="-3.7255746285004907"><ele>1003.0</ele><time>2026-05-02T15:41:20Z</time></trkpt><trkpt lat="42.59118580207268" lon="-3.7255754167253525"><ele>1003.0</ele><time>2026-05-02T15:41:21Z</time></trkpt><trkpt lat="42.59108578020192" lon="-3.7255753187574188"><ele>1003.0</ele><time>2026-05-02T15:41:22Z</time></trkpt><trkpt lat="42.590986671533706" lon="-3.72557454872288"><ele>1002.8</ele><time>2026-05-02T15:41:23Z</time></trkpt><trkpt lat="42.590887036917394" lon="-3.725573098505082"><ele>1002.5999999999999</ele><time>2026-05-02T15:41:24Z</time></trkpt><trkpt lat="42.590787421280346" lon="-3.7255695893713043"><ele>1002.4000000000001</ele><time>2026-05-02T15:41:25Z</time></trkpt><trkpt lat="42.590687214241186" lon="-3.7255721508741635"><ele>1002.2</ele><time>2026-05-02T15:41:26Z</time></trkpt><trkpt lat="42.59058753640277" lon="-3.7255708514290875"><ele>1002.0</ele><time>2026-05-02T15:41:27Z</time></trkpt><trkpt lat="42.59048356054362" lon="-3.7255730004961554"><ele>1002.0</ele><time>2026-05-02T15:41:28Z</time></trkpt><trkpt lat="42.59038199124977" lon="-3.7255716389161404"><ele>1002.0</ele><time>2026-05-02T15:41:29Z</time></trkpt><trkpt lat="42.59028166243507" lon="-3.7255712854373852"><ele>1002.0</ele><time>2026-05-02T15:41:30Z</time></trkpt><trkpt lat="42.59018206412175" lon="-3.725570111143775"><ele>1002.0</ele><time>2026-05-02T15:41:31Z</time></trkpt><trkpt lat="42.59007956913373" lon="-3.72556819207478"><ele>1002.0</ele><time>2026-05-02T15:41:32Z</time></trkpt><trkpt lat="42.58997689738609" lon="-3.7255671277538074"><ele>1001.4000000000001</ele><time>2026-05-02T15:41:33Z</time></trkpt><trkpt lat="42.58987391269414" lon="-3.725567535871842"><ele>1000.8000000000001</ele><time>2026-05-02T15:41:34Z</time></trkpt><trkpt lat="42.58977056119819" lon="-3.7255676871070693"><ele>1000.2</ele><time>2026-05-02T15:41:35Z</time></trkpt><trkpt lat="42.58966664448079" lon="-3.7255668804618867"><ele>999.6</ele><time>2026-05-02T15:41:36Z</time></trkpt><trkpt lat="42.589564481187494" lon="-3.7255678875070832"><ele>999.0</ele><time>2026-05-02T15:41:37Z</time></trkpt><trkpt lat="42.58946194249538" lon="-3.7255662395340337"><ele>998.8000000000001</ele><time>2026-05-02T15:41:38Z</time></trkpt><trkpt lat="42.58936093977673" lon="-3.7255640452453824"><ele>998.6000000000001</ele><time>2026-05-02T15:41:39Z</time></trkpt><trkpt lat="42.58925957594118" lon="-3.7255605869324024"><ele>998.4</ele><time>2026-05-02T15:41:40Z</time></trkpt><trkpt lat="42.589157522631446" lon="-3.7255578348375504"><ele>998.2</ele><time>2026-05-02T15:41:41Z</time></trkpt><trkpt lat="42.58905768504143" lon="-3.7255537442031197"><ele>998.0</ele><time>2026-05-02T15:41:42Z</time></trkpt><trkpt lat="42.58895569783448" lon="-3.725544120976772"><ele>998.0</ele><time>2026-05-02T15:41:43Z</time></trkpt><trkpt lat="42.588854121055554" lon="-3.7255307917275964"><ele>998.0</ele><time>2026-05-02T15:41:44Z</time></trkpt><trkpt lat="42.58875500567967" lon="-3.7255063979170915"><ele>998.0</ele><time>2026-05-02T15:41:45Z</time></trkpt><trkpt lat="42.58865819132529" lon="-3.7254731655428137"><ele>998.0</ele><time>2026-05-02T15:41:46Z</time></trkpt><trkpt lat="42.588561120082" lon="-3.7254321677365714"><ele>998.0</ele><time>2026-05-02T15:41:47Z</time></trkpt><trkpt lat="42.58846351264707" lon="-3.7253817555398983"><ele>997.5999999999999</ele><time>2026-05-02T15:41:48Z</time></trkpt><trkpt lat="42.588371741272965" lon="-3.7253238153386703"><ele>997.1999999999999</ele><time>2026-05-02T15:41:49Z</time></trkpt><trkpt lat="42.58828348217431" lon="-3.725254167130457"><ele>996.8</ele><time>2026-05-02T15:41:50Z</time></trkpt><trkpt lat="42.58819994150286" lon="-3.7251719394174767"><ele>996.4</ele><time>2026-05-02T15:41:51Z</time></trkpt><trkpt lat="42.58811854879586" lon="-3.7250849444707748"><ele>996.0</ele><time>2026-05-02T15:41:52Z</time></trkpt><trkpt lat="42.58804529930977" lon="-3.7249885252969563"><ele>996.0</ele><time>2026-05-02T15:41:53Z</time></trkpt><trkpt lat="42.587978228625474" lon="-3.7248848880041447"><ele>995.9999999999999</ele><time>2026-05-02T15:41:54Z</time></trkpt><trkpt lat="42.58791458670108" lon="-3.724773665372553"><ele>995.9999999999999</ele><time>2026-05-02T15:41:55Z</time></trkpt><trkpt lat="42.58785648250327" lon="-3.7246580970526524"><ele>996.0</ele><time>2026-05-02T15:41:56Z</time></trkpt><trkpt lat="42.58780357890832" lon="-3.724537897886177"><ele>996.0</ele><time>2026-05-02T15:41:57Z</time></trkpt><trkpt lat="42.58775917968625" lon="-3.724415637368948"><ele>994.5999999999999</ele><time>2026-05-02T15:41:58Z</time></trkpt><trkpt lat="42.58771804892515" lon="-3.7242891592022382"><ele>993.1999999999999</ele><time>2026-05-02T15:41:59Z</time></trkpt><trkpt lat="42.58767968796815" lon="-3.7241579528795565"><ele>991.8000000000001</ele><time>2026-05-02T15:42:00Z</time></trkpt><trkpt lat="42.58764299862167" lon="-3.7240266598335987"><ele>990.4000000000001</ele><time>2026-05-02T15:42:01Z</time></trkpt><trkpt lat="42.58760664995151" lon="-3.7238955393078297"><ele>989.0</ele><time>2026-05-02T15:42:02Z</time></trkpt><trkpt lat="42.58757171847432" lon="-3.7237623040794734"><ele>989.0</ele><time>2026-05-02T15:42:03Z</time></trkpt><trkpt lat="42.587536204389316" lon="-3.723627200573092"><ele>989.0000000000001</ele><time>2026-05-02T15:42:04Z</time></trkpt><trkpt lat="42.587497125245946" lon="-3.723494482871426"><ele>989.0000000000001</ele><time>2026-05-02T15:42:05Z</time></trkpt><trkpt lat="42.58745467249554" lon="-3.7233662572663433"><ele>989.0</ele><time>2026-05-02T15:42:06Z</time></trkpt><trkpt lat="42.58741060982713" lon="-3.7232398345267437"><ele>989.0</ele><time>2026-05-02T15:42:07Z</time></trkpt><trkpt lat="42.58736486746363" lon="-3.7231145878630025"><ele>988.8000000000001</ele><time>2026-05-02T15:42:08Z</time></trkpt><trkpt lat="42.58731466660122" lon="-3.722992263706352"><ele>988.6000000000001</ele><time>2026-05-02T15:42:09Z</time></trkpt><trkpt lat="42.587259643903614" lon="-3.7228709867868766"><ele>988.4</ele><time>2026-05-02T15:42:10Z</time></trkpt><trkpt lat="42.58720089292264" lon="-3.72275906343414"><ele>988.2</ele><time>2026-05-02T15:42:11Z</time></trkpt><trkpt lat="42.58713579340666" lon="-3.7226487963202"><ele>988.0</ele><time>2026-05-02T15:42:12Z</time></trkpt><trkpt lat="42.58706863856418" lon="-3.72254320442128"><ele>988.5999999999999</ele><time>2026-05-02T15:42:13Z</time></trkpt><trkpt lat="42.58699636419881" lon="-3.7224418946952342"><ele>989.1999999999999</ele><time>2026-05-02T15:42:14Z</time></trkpt><trkpt lat="42.58692197502559" lon="-3.722345123369478"><ele>989.8</ele><time>2026-05-02T15:42:15Z</time></trkpt><trkpt lat="42.58684540567672" lon="-3.7222525594166163"><ele>990.4</ele><time>2026-05-02T15:42:16Z</time></trkpt><trkpt lat="42.58676390974428" lon="-3.722164774859107"><ele>991.0</ele><time>2026-05-02T15:42:17Z</time></trkpt><trkpt lat="42.586680993855595" lon="-3.7220814262298263"><ele>991.0</ele><time>2026-05-02T15:42:18Z</time></trkpt><trkpt lat="42.5865942615876" lon="-3.722001428098652"><ele>990.9999999999999</ele><time>2026-05-02T15:42:19Z</time></trkpt><trkpt lat="42.58650328044141" lon="-3.7219273383175318"><ele>990.9999999999999</ele><time>2026-05-02T15:42:20Z</time></trkpt><trkpt lat="42.586408243818305" lon="-3.72186007223735"><ele>991.0</ele><time>2026-05-02T15:42:21Z</time></trkpt><trkpt lat="42.58631463153216" lon="-3.721797306733253"><ele>991.0</ele><time>2026-05-02T15:42:22Z</time></trkpt><trkpt lat="42.586219737387694" lon="-3.7217358886443166"><ele>989.5999999999999</ele><time>2026-05-02T15:42:23Z</time></trkpt><trkpt lat="42.58612557854123" lon="-3.7216772672559646"><ele>988.1999999999999</ele><time>2026-05-02T15:42:24Z</time></trkpt><trkpt lat="42.58603122556828" lon="-3.721617987975234"><ele>986.8000000000001</ele><time>2026-05-02T15:42:25Z</time></trkpt><trkpt lat="42.585935889318314" lon="-3.7215593595469136"><ele>985.4000000000001</ele><time>2026-05-02T15:42:26Z</time></trkpt><trkpt lat="42.5858398367125" lon="-3.721500611967532"><ele>984.0</ele><time>2026-05-02T15:42:27Z</time></trkpt><trkpt lat="42.58574416748515" lon="-3.7214437363177137"><ele>984.0</ele><time>2026-05-02T15:42:28Z</time></trkpt><trkpt lat="42.58564780986744" lon="-3.7213875266128094"><ele>984.0000000000001</ele><time>2026-05-02T15:42:29Z</time></trkpt><trkpt lat="42.585550683196224" lon="-3.721330769033555"><ele>984.0000000000001</ele><time>2026-05-02T15:42:30Z</time></trkpt><trkpt lat="42.585453223026306" lon="-3.7212741752124567"><ele>984.0</ele><time>2026-05-02T15:42:31Z</time></trkpt><trkpt lat="42.585355424495354" lon="-3.721220297628649"><ele>984.0</ele><time>2026-05-02T15:42:32Z</time></trkpt><trkpt lat="42.58525689888924" lon="-3.7211681778692083"><ele>983.4000000000001</ele><time>2026-05-02T15:42:33Z</time></trkpt><trkpt lat="42.58515804827841" lon="-3.7211197595533454"><ele>982.8000000000001</ele><time>2026-05-02T15:42:34Z</time></trkpt><trkpt lat="42.585059457647446" lon="-3.7210773018044505"><ele>982.1999999999999</ele><time>2026-05-02T15:42:35Z</time></trkpt><trkpt lat="42.58495685000806" lon="-3.721042001567029"><ele>981.5999999999999</ele><time>2026-05-02T15:42:36Z</time></trkpt><trkpt lat="42.584852705688405" lon="-3.7210127384824783"><ele>981.0</ele><time>2026-05-02T15:42:37Z</time></trkpt><trkpt lat="42.58475099817011" lon="-3.720986954206213"><ele>981.0</ele><time>2026-05-02T15:42:38Z</time></trkpt><trkpt lat="42.58464842904779" lon="-3.7209724390309082"><ele>980.9999999999999</ele><time>2026-05-02T15:42:39Z</time></trkpt><trkpt lat="42.58454672428396" lon="-3.720963089396096"><ele>980.9999999999999</ele><time>2026-05-02T15:42:40Z</time></trkpt><trkpt lat="42.58444227673925" lon="-3.7209626917419025"><ele>981.0</ele><time>2026-05-02T15:42:41Z</time></trkpt><trkpt lat="42.58433936756285" lon="-3.72096596589009"><ele>981.0</ele><time>2026-05-02T15:42:42Z</time></trkpt><trkpt lat="42.58423496022866" lon="-3.720972699064355"><ele>980.1999999999999</ele><time>2026-05-02T15:42:43Z</time></trkpt><trkpt lat="42.58413317366379" lon="-3.720983573370266"><ele>979.3999999999999</ele><time>2026-05-02T15:42:44Z</time></trkpt><trkpt lat="42.58402977012077" lon="-3.720999717229319"><ele>978.6</ele><time>2026-05-02T15:42:45Z</time></trkpt><trkpt lat="42.58392480505197" lon="-3.7210176316531456"><ele>977.8</ele><time>2026-05-02T15:42:46Z</time></trkpt><trkpt lat="42.58382129321894" lon="-3.721033956752073"><ele>977.0</ele><time>2026-05-02T15:42:47Z</time></trkpt><trkpt lat="42.58371835889787" lon="-3.7210476520138096"><ele>977.2</ele><time>2026-05-02T15:42:48Z</time></trkpt><trkpt lat="42.58361625318398" lon="-3.7210649733531436"><ele>977.4000000000001</ele><time>2026-05-02T15:42:49Z</time></trkpt><trkpt lat="42.583513417432684" lon="-3.721083589728255"><ele>977.5999999999999</ele><time>2026-05-02T15:42:50Z</time></trkpt><trkpt lat="42.5834121211199" lon="-3.721092839689863"><ele>977.8</ele><time>2026-05-02T15:42:51Z</time></trkpt><trkpt lat="42.58331582802242" lon="-3.7211009627692944"><ele>978.0</ele><time>2026-05-02T15:42:52Z</time></trkpt><trkpt lat="42.58321942356348" lon="-3.721100871065511"><ele>978.0</ele><time>2026-05-02T15:42:53Z</time></trkpt><trkpt lat="42.583130332684746" lon="-3.7211013638050208"><ele>978.0</ele><time>2026-05-02T15:42:54Z</time></trkpt><trkpt lat="42.58304845765329" lon="-3.721097900679953"><ele>978.0</ele><time>2026-05-02T15:42:55Z</time></trkpt><trkpt lat="42.582972369397574" lon="-3.7210938741438793"><ele>978.0</ele><time>2026-05-02T15:42:56Z</time></trkpt><trkpt lat="42.58289851958088" lon="-3.7210835352178955"><ele>978.0</ele><time>2026-05-02T15:42:57Z</time></trkpt><trkpt lat="42.58283008004268" lon="-3.721070341954462"><ele>978.0</ele><time>2026-05-02T15:42:58Z</time></trkpt><trkpt lat="42.58276756313768" lon="-3.7210590892258457"><ele>978.0</ele><time>2026-05-02T15:42:59Z</time></trkpt><trkpt lat="42.582672219019635" lon="-3.721038997327672"><ele>978.0</ele><time>2026-05-02T15:43:01Z</time></trkpt><trkpt lat="42.582781366196016" lon="-3.721062274201987"><ele>978.0</ele><time>2026-05-02T15:43:16Z</time></trkpt><trkpt lat="42.582902716968576" lon="-3.7210911513991065"><ele>978.0</ele><time>2026-05-02T15:43:18Z</time></trkpt><trkpt lat="42.582971687121095" lon="-3.7211055295742614"><ele>978.0</ele><time>2026-05-02T15:43:19Z</time></trkpt><trkpt lat="42.58304699431262" lon="-3.721116639370444"><ele>978.0</ele><time>2026-05-02T15:43:20Z</time></trkpt><trkpt lat="42.58312353734619" lon="-3.7211227827564266"><ele>978.0</ele><time>2026-05-02T15:43:21Z</time></trkpt><trkpt lat="42.58320184160071" lon="-3.721127850252748"><ele>978.0</ele><time>2026-05-02T15:43:22Z</time></trkpt><trkpt lat="42.583340809640816" lon="-3.721125037105352"><ele>978.0</ele><time>2026-05-02T15:43:23Z</time></trkpt><trkpt lat="42.583437619205235" lon="-3.7210390718001953"><ele>978.0</ele><time>2026-05-02T15:43:24Z</time></trkpt><trkpt lat="42.5835230727228" lon="-3.721025656606696"><ele>977.8</ele><time>2026-05-02T15:43:25Z</time></trkpt><trkpt lat="42.58361395003313" lon="-3.7210091993664838"><ele>977.5999999999999</ele><time>2026-05-02T15:43:26Z</time></trkpt><trkpt lat="42.583704002432135" lon="-3.72099702765186"><ele>977.4000000000001</ele><time>2026-05-02T15:43:27Z</time></trkpt><trkpt lat="42.58379775292783" lon="-3.720978222087769"><ele>977.2</ele><time>2026-05-02T15:43:28Z</time></trkpt><trkpt lat="42.5838910777122" lon="-3.720964759963289"><ele>977.0</ele><time>2026-05-02T15:43:29Z</time></trkpt><trkpt lat="42.58398466791987" lon="-3.7209501521563366"><ele>977.0</ele><time>2026-05-02T15:43:30Z</time></trkpt><trkpt lat="42.58407675825109" lon="-3.720934667196405"><ele>977.0</ele><time>2026-05-02T15:43:31Z</time></trkpt><trkpt lat="42.58417040128924" lon="-3.720923372004384"><ele>977.0</ele><time>2026-05-02T15:43:32Z</time></trkpt><trkpt lat="42.584266222996476" lon="-3.7209115259306342"><ele>977.0</ele><time>2026-05-02T15:43:33Z</time></trkpt><trkpt lat="42.58435865046739" lon="-3.720907792027747"><ele>977.0</ele><time>2026-05-02T15:43:34Z</time></trkpt><trkpt lat="42.58445524113463" lon="-3.720911541617472"><ele>977.6666666666667</ele><time>2026-05-02T15:43:35Z</time></trkpt><trkpt lat="42.58455425776124" lon="-3.7209167244332684"><ele>978.3333333333334</ele><time>2026-05-02T15:43:36Z</time></trkpt><trkpt lat="42.584646658306795" lon="-3.720926528909118"><ele>979.0</ele><time>2026-05-02T15:43:37Z</time></trkpt><trkpt lat="42.584738813190505" lon="-3.720924464687609"><ele>979.6666666666667</ele><time>2026-05-02T15:43:38Z</time></trkpt><trkpt lat="42.584822899024516" lon="-3.7209418146286137"><ele>980.3333333333334</ele><time>2026-05-02T15:43:39Z</time></trkpt><trkpt lat="42.58489970152318" lon="-3.72095897598507"><ele>981.0</ele><time>2026-05-02T15:43:40Z</time></trkpt><trkpt lat="42.58496961949612" lon="-3.720978709528126"><ele>981.0</ele><time>2026-05-02T15:43:41Z</time></trkpt><trkpt lat="42.58507383920086" lon="-3.721015804211574"><ele>981.0</ele><time>2026-05-02T15:43:43Z</time></trkpt><trkpt lat="42.58513400812764" lon="-3.7210410260695848"><ele>981.0</ele><time>2026-05-02T15:43:45Z</time></trkpt><trkpt lat="42.58505484910829" lon="-3.7210402659071065"><ele>981.0</ele><time>2026-05-02T15:43:50Z</time></trkpt><trkpt lat="42.58497843680197" lon="-3.7210676674629344"><ele>981.0</ele><time>2026-05-02T15:43:51Z</time></trkpt><trkpt lat="42.58486145528651" lon="-3.7210313561487336"><ele>981.0</ele><time>2026-05-02T15:43:53Z</time></trkpt><trkpt lat="42.58479308131455" lon="-3.7210131474598973"><ele>981.0</ele><time>2026-05-02T15:43:54Z</time></trkpt><trkpt lat="42.58471954398791" lon="-3.7209975355391007"><ele>981.0</ele><time>2026-05-02T15:43:55Z</time></trkpt><trkpt lat="42.5846479833484" lon="-3.720986861172856"><ele>981.0</ele><time>2026-05-02T15:43:56Z</time></trkpt><trkpt lat="42.58457902237714" lon="-3.7209797269688227"><ele>981.0</ele><time>2026-05-02T15:43:57Z</time></trkpt><trkpt lat="42.584512710203306" lon="-3.7209744099149598"><ele>981.0</ele><time>2026-05-02T15:43:58Z</time></trkpt><trkpt lat="42.58438843220407" lon="-3.7209692760236894"><ele>981.0</ele><time>2026-05-02T15:44:00Z</time></trkpt><trkpt lat="42.5842716022744" lon="-3.7209629269303037"><ele>980.3333333333334</ele><time>2026-05-02T15:44:02Z</time></trkpt><trkpt lat="42.584180056395056" lon="-3.7209738710437987"><ele>979.6666666666667</ele><time>2026-05-02T15:44:04Z</time></trkpt><trkpt lat="42.58410461091922" lon="-3.7209789766725216"><ele>979.0</ele><time>2026-05-02T15:44:06Z</time></trkpt><trkpt lat="42.58402832946499" lon="-3.7209942911799265"><ele>978.3333333333334</ele><time>2026-05-02T15:44:08Z</time></trkpt><trkpt lat="42.58394770889533" lon="-3.7210098091462798"><ele>977.6666666666667</ele><time>2026-05-02T15:44:10Z</time></trkpt><trkpt lat="42.58386858432826" lon="-3.7210133564234575"><ele>977.0</ele><time>2026-05-02T15:44:12Z</time></trkpt><trkpt lat="42.58379185441352" lon="-3.7210323246865875"><ele>977.0000000000001</ele><time>2026-05-02T15:44:14Z</time></trkpt><trkpt lat="42.58371670393079" lon="-3.7210492073479844"><ele>977.0</ele><time>2026-05-02T15:44:16Z</time></trkpt><trkpt lat="42.583623639427586" lon="-3.7210725123560895"><ele>977.0</ele><time>2026-05-02T15:44:19Z</time></trkpt><trkpt lat="42.58354854880861" lon="-3.7210844457115564"><ele>977.0</ele><time>2026-05-02T15:44:21Z</time></trkpt><trkpt lat="42.58347496075943" lon="-3.721099420463061"><ele>977.0000000000001</ele><time>2026-05-02T15:44:23Z</time></trkpt><trkpt lat="42.58339646260985" lon="-3.721110069052119"><ele>977.0</ele><time>2026-05-02T15:44:25Z</time></trkpt><trkpt lat="42.583320544067355" lon="-3.721113073957126"><ele>977.1666666666667</ele><time>2026-05-02T15:44:27Z</time></trkpt><trkpt lat="42.58324089500219" lon="-3.7211213417055617"><ele>977.3333333333334</ele><time>2026-05-02T15:44:29Z</time></trkpt><trkpt lat="42.583163429787106" lon="-3.7211229942948365"><ele>977.5</ele><time>2026-05-02T15:44:31Z</time></trkpt><trkpt lat="42.58308103823636" lon="-3.7211212857296863"><ele>977.6666666666667</ele><time>2026-05-02T15:44:33Z</time></trkpt><trkpt lat="42.58299635811737" lon="-3.7211112893908136"><ele>977.8333333333334</ele><time>2026-05-02T15:44:35Z</time></trkpt><trkpt lat="42.58291130413321" lon="-3.7210995129994044"><ele>978.0</ele><time>2026-05-02T15:44:37Z</time></trkpt><trkpt lat="42.58282491338913" lon="-3.721081966211834"><ele>977.8</ele><time>2026-05-02T15:44:39Z</time></trkpt><trkpt lat="42.58273294690834" lon="-3.721058566733806"><ele>977.5999999999999</ele><time>2026-05-02T15:44:41Z</time></trkpt><trkpt lat="42.58264612955504" lon="-3.7210255339268277"><ele>977.4000000000001</ele><time>2026-05-02T15:44:43Z</time></trkpt><trkpt lat="42.58255621528128" lon="-3.7209873920641403"><ele>977.2</ele><time>2026-05-02T15:44:45Z</time></trkpt><trkpt lat="42.58247087316625" lon="-3.7209473870853467"><ele>977.0</ele><time>2026-05-02T15:44:47Z</time></trkpt><trkpt lat="42.5823807571713" lon="-3.720899140845755"><ele>977.0</ele><time>2026-05-02T15:44:49Z</time></trkpt><trkpt lat="42.58229112876185" lon="-3.7208443924777166"><ele>977.0</ele><time>2026-05-02T15:44:51Z</time></trkpt><trkpt lat="42.58220693937249" lon="-3.7207873597812133"><ele>977.0</ele><time>2026-05-02T15:44:53Z</time></trkpt><trkpt lat="42.58211989734313" lon="-3.7207199549986294"><ele>977.0</ele><time>2026-05-02T15:44:55Z</time></trkpt><trkpt lat="42.58203347782615" lon="-3.7206488072288217"><ele>977.0</ele><time>2026-05-02T15:44:57Z</time></trkpt><trkpt lat="42.58194783484074" lon="-3.7205678973329954"><ele>976.2</ele><time>2026-05-02T15:44:59Z</time></trkpt><trkpt lat="42.58185940914929" lon="-3.72048644322961"><ele>975.4000000000001</ele><time>2026-05-02T15:45:01Z</time></trkpt><trkpt lat="42.581774271405244" lon="-3.7204022757744553"><ele>974.5999999999999</ele><time>2026-05-02T15:45:03Z</time></trkpt><trkpt lat="42.581693014304506" lon="-3.7203109271663366"><ele>973.8</ele><time>2026-05-02T15:45:05Z</time></trkpt><trkpt lat="42.581606227422206" lon="-3.720219719941166"><ele>973.0</ele><time>2026-05-02T15:45:07Z</time></trkpt><trkpt lat="42.58151748868448" lon="-3.720127316072727"><ele>972.75</ele><time>2026-05-02T15:45:09Z</time></trkpt><trkpt lat="42.581429433663935" lon="-3.7200361684154695"><ele>972.5</ele><time>2026-05-02T15:45:11Z</time></trkpt><trkpt lat="42.58134030516048" lon="-3.7199413964418233"><ele>972.25</ele><time>2026-05-02T15:45:13Z</time></trkpt><trkpt lat="42.581245648506254" lon="-3.719850789226583"><ele>972.0</ele><time>2026-05-02T15:45:15Z</time></trkpt><trkpt lat="42.58114786190116" lon="-3.7197665822506236"><ele>972.0</ele><time>2026-05-02T15:45:17Z</time></trkpt><trkpt lat="42.58104542631644" lon="-3.7196830475770213"><ele>972.0</ele><time>2026-05-02T15:45:19Z</time></trkpt><trkpt lat="42.58093704261738" lon="-3.719610787599823"><ele>972.0</ele><time>2026-05-02T15:45:21Z</time></trkpt><trkpt lat="42.58087827242422" lon="-3.7195761220100354"><ele>972.0</ele><time>2026-05-02T15:45:22Z</time></trkpt><trkpt lat="42.58076575579756" lon="-3.719517877499119"><ele>972.0</ele><time>2026-05-02T15:45:24Z</time></trkpt><trkpt lat="42.58065976036155" lon="-3.7194584559622323"><ele>972.0</ele><time>2026-05-02T15:45:26Z</time></trkpt><trkpt lat="42.58056015864699" lon="-3.7194164608781266"><ele>972.0</ele><time>2026-05-02T15:45:28Z</time></trkpt><trkpt lat="42.58046928943679" lon="-3.719385470917199"><ele>972.0</ele><time>2026-05-02T15:45:30Z</time></trkpt><trkpt lat="42.58036987848918" lon="-3.719359726184592"><ele>972.0</ele><time>2026-05-02T15:45:32Z</time></trkpt><trkpt lat="42.58028073907826" lon="-3.7193394214280633"><ele>972.0</ele><time>2026-05-02T15:45:34Z</time></trkpt><trkpt lat="42.58017979923395" lon="-3.7193278682421504"><ele>970.8</ele><time>2026-05-02T15:45:36Z</time></trkpt><trkpt lat="42.58007041163203" lon="-3.7193112138829965"><ele>969.6</ele><time>2026-05-02T15:45:38Z</time></trkpt><trkpt lat="42.579967342061146" lon="-3.719307696163972"><ele>968.3999999999999</ele><time>2026-05-02T15:45:40Z</time></trkpt><trkpt lat="42.5798709310659" lon="-3.7193059390065217"><ele>967.1999999999999</ele><time>2026-05-02T15:45:42Z</time></trkpt><trkpt lat="42.57978241885871" lon="-3.719308600619479"><ele>966.0</ele><time>2026-05-02T15:45:44Z</time></trkpt><trkpt lat="42.57969768956799" lon="-3.719311552193564"><ele>966.0</ele><time>2026-05-02T15:45:46Z</time></trkpt><trkpt lat="42.57960596374897" lon="-3.7193065571880273"><ele>966.0</ele><time>2026-05-02T15:45:48Z</time></trkpt><trkpt lat="42.57951545599755" lon="-3.719308211593137"><ele>966.0</ele><time>2026-05-02T15:45:50Z</time></trkpt><trkpt lat="42.57942264662403" lon="-3.7193119450864898"><ele>966.0</ele><time>2026-05-02T15:45:52Z</time></trkpt><trkpt lat="42.5793354866733" lon="-3.7193180041568104"><ele>966.0</ele><time>2026-05-02T15:45:54Z</time></trkpt><trkpt lat="42.57925224933087" lon="-3.7193219029829336"><ele>966.0</ele><time>2026-05-02T15:45:56Z</time></trkpt><trkpt lat="42.57917373095204" lon="-3.719320814054215"><ele>966.0</ele><time>2026-05-02T15:45:58Z</time></trkpt><trkpt lat="42.57910032671776" lon="-3.719326677427995"><ele>966.0</ele><time>2026-05-02T15:46:00Z</time></trkpt><trkpt lat="42.57902280853675" lon="-3.719321034636733"><ele>966.0</ele><time>2026-05-02T15:46:02Z</time></trkpt><trkpt lat="42.57895052884594" lon="-3.719322936507537"><ele>966.0</ele><time>2026-05-02T15:46:04Z</time></trkpt><trkpt lat="42.57887464628583" lon="-3.719317054081393"><ele>966.0</ele><time>2026-05-02T15:46:06Z</time></trkpt><trkpt lat="42.57879954079995" lon="-3.719306298577642"><ele>966.0</ele><time>2026-05-02T15:46:08Z</time></trkpt><trkpt lat="42.5787228222791" lon="-3.7192927707557244"><ele>965.7142857142858</ele><time>2026-05-02T15:46:10Z</time></trkpt><trkpt lat="42.57864712382921" lon="-3.71927788899431"><ele>965.4285714285714</ele><time>2026-05-02T15:46:12Z</time></trkpt><trkpt lat="42.57857287308988" lon="-3.71925930731013"><ele>965.1428571428571</ele><time>2026-05-02T15:46:14Z</time></trkpt><trkpt lat="42.57850296113005" lon="-3.719240439337965"><ele>964.8571428571429</ele><time>2026-05-02T15:46:16Z</time></trkpt><trkpt lat="42.57843376056992" lon="-3.7192188945670592"><ele>964.5714285714287</ele><time>2026-05-02T15:46:18Z</time></trkpt><trkpt lat="42.57837019039138" lon="-3.7191930636953363"><ele>964.2857142857143</ele><time>2026-05-02T15:46:20Z</time></trkpt><trkpt lat="42.578299570469795" lon="-3.719168117766967"><ele>964.0</ele><time>2026-05-02T15:46:22Z</time></trkpt><trkpt lat="42.57822826479549" lon="-3.719142691664039"><ele>964.0</ele><time>2026-05-02T15:46:24Z</time></trkpt><trkpt lat="42.57815949943672" lon="-3.7191208418557373"><ele>964.0000000000001</ele><time>2026-05-02T15:46:26Z</time></trkpt><trkpt lat="42.57809602809103" lon="-3.7190972785175935"><ele>964.0</ele><time>2026-05-02T15:46:28Z</time></trkpt><trkpt lat="42.57803281551302" lon="-3.7190714547387556"><ele>964.0</ele><time>2026-05-02T15:46:30Z</time></trkpt><trkpt lat="42.57796686973464" lon="-3.719045999046469"><ele>964.0000000000001</ele><time>2026-05-02T15:46:32Z</time></trkpt><trkpt lat="42.57790303873235" lon="-3.7190238226651147"><ele>964.0</ele><time>2026-05-02T15:46:34Z</time></trkpt><trkpt lat="42.57783492822778" lon="-3.719002732644263"><ele>964.0</ele><time>2026-05-02T15:46:36Z</time></trkpt><trkpt lat="42.5777646286719" lon="-3.7189804137181235"><ele>963.4999999999999</ele><time>2026-05-02T15:46:38Z</time></trkpt><trkpt lat="42.57769428373181" lon="-3.718952644342151"><ele>963.0</ele><time>2026-05-02T15:46:40Z</time></trkpt><trkpt lat="42.5776163088087" lon="-3.7189216385949413"><ele>962.5</ele><time>2026-05-02T15:46:42Z</time></trkpt><trkpt lat="42.5775382999962" lon="-3.718892997904474"><ele>962.0</ele><time>2026-05-02T15:46:44Z</time></trkpt><trkpt lat="42.577464312383285" lon="-3.718865664453864"><ele>961.4999999999999</ele><time>2026-05-02T15:46:46Z</time></trkpt><trkpt lat="42.57739025431057" lon="-3.7188407976326454"><ele>961.0</ele><time>2026-05-02T15:46:48Z</time></trkpt><trkpt lat="42.577319041564536" lon="-3.7188058070003454"><ele>960.9999999999999</ele><time>2026-05-02T15:46:50Z</time></trkpt><trkpt lat="42.57724951557606" lon="-3.718778719924213"><ele>961.0</ele><time>2026-05-02T15:46:52Z</time></trkpt><trkpt lat="42.57718744792067" lon="-3.718759080751504"><ele>961.0</ele><time>2026-05-02T15:46:54Z</time></trkpt><trkpt lat="42.57709533073294" lon="-3.7187194574438247"><ele>961.0</ele><time>2026-05-02T15:46:57Z</time></trkpt><trkpt lat="42.57702187060486" lon="-3.718699466106864"><ele>960.9999999999999</ele><time>2026-05-02T15:46:59Z</time></trkpt><trkpt lat="42.57695263674293" lon="-3.718676022670624"><ele>961.0</ele><time>2026-05-02T15:47:01Z</time></trkpt><trkpt lat="42.576882969666244" lon="-3.7186463368030203"><ele>960.8571428571428</ele><time>2026-05-02T15:47:03Z</time></trkpt><trkpt lat="42.57680807596992" lon="-3.718632196297079"><ele>960.7142857142856</ele><time>2026-05-02T15:47:05Z</time></trkpt><trkpt lat="42.57673522497305" lon="-3.718604481416371"><ele>960.5714285714286</ele><time>2026-05-02T15:47:07Z</time></trkpt><trkpt lat="42.5766646368042" lon="-3.718574572540956"><ele>960.4285714285713</ele><time>2026-05-02T15:47:09Z</time></trkpt><trkpt lat="42.57659651089449" lon="-3.718546874943755"><ele>960.2857142857142</ele><time>2026-05-02T15:47:11Z</time></trkpt><trkpt lat="42.57652648048955" lon="-3.7185193813633437"><ele>960.1428571428571</ele><time>2026-05-02T15:47:13Z</time></trkpt><trkpt lat="42.576463177000996" lon="-3.7184936100864947"><ele>960.0</ele><time>2026-05-02T15:47:15Z</time></trkpt><trkpt lat="42.57637230167148" lon="-3.7184714325721844"><ele>959.8333333333334</ele><time>2026-05-02T15:47:18Z</time></trkpt><trkpt lat="42.57631170686704" lon="-3.718446740183211"><ele>959.6666666666667</ele><time>2026-05-02T15:47:20Z</time></trkpt><trkpt lat="42.576231999995926" lon="-3.7184158124422444"><ele>959.5</ele><time>2026-05-02T15:47:23Z</time></trkpt><trkpt lat="42.57614588807247" lon="-3.7183810158344848"><ele>959.3333333333334</ele><time>2026-05-02T15:47:26Z</time></trkpt><trkpt lat="42.576066559668675" lon="-3.7183476565283233"><ele>959.1666666666667</ele><time>2026-05-02T15:47:29Z</time></trkpt><trkpt lat="42.57598352714168" lon="-3.7183390120424824"><ele>959.0</ele><time>2026-05-02T15:47:32Z</time></trkpt><trkpt lat="42.5758981775705" lon="-3.7182929413108994"><ele>958.3333333333334</ele><time>2026-05-02T15:47:34Z</time></trkpt><trkpt lat="42.57580102863125" lon="-3.718256107597856"><ele>957.6666666666667</ele><time>2026-05-02T15:47:36Z</time></trkpt><trkpt lat="42.575711174837146" lon="-3.718242266071939"><ele>957.0</ele><time>2026-05-02T15:47:38Z</time></trkpt><trkpt lat="42.57563933087523" lon="-3.71821640928282"><ele>956.3333333333333</ele><time>2026-05-02T15:47:40Z</time></trkpt><trkpt lat="42.575551959711426" lon="-3.718184964174662"><ele>955.6666666666666</ele><time>2026-05-02T15:47:43Z</time></trkpt><trkpt lat="42.57547515380305" lon="-3.7181573215372374"><ele>955.0</ele><time>2026-05-02T15:47:46Z</time></trkpt><trkpt lat="42.575410334437734" lon="-3.7181212511309565"><ele>954.8333333333333</ele><time>2026-05-02T15:47:49Z</time></trkpt><trkpt lat="42.575340208164995" lon="-3.718093346072384"><ele>954.6666666666666</ele><time>2026-05-02T15:47:52Z</time></trkpt><trkpt lat="42.57526087396703" lon="-3.7180726403854805"><ele>954.5</ele><time>2026-05-02T15:47:55Z</time></trkpt><trkpt lat="42.575183642548964" lon="-3.7180452772610706"><ele>954.3333333333333</ele><time>2026-05-02T15:47:58Z</time></trkpt><trkpt lat="42.575120144093354" lon="-3.718023877372348"><ele>954.1666666666666</ele><time>2026-05-02T15:48:00Z</time></trkpt><trkpt lat="42.5750441264327" lon="-3.717990959110334"><ele>954.0</ele><time>2026-05-02T15:48:02Z</time></trkpt><trkpt lat="42.57492626946695" lon="-3.7179438100278355"><ele>954.0</ele><time>2026-05-02T15:48:04Z</time></trkpt><trkpt lat="42.57485564402006" lon="-3.7179215328898665"><ele>954.0</ele><time>2026-05-02T15:48:05Z</time></trkpt><trkpt lat="42.57478257952769" lon="-3.71789124723076"><ele>954.0</ele><time>2026-05-02T15:48:06Z</time></trkpt><trkpt lat="42.57470518528961" lon="-3.7178581123582006"><ele>954.0</ele><time>2026-05-02T15:48:07Z</time></trkpt><trkpt lat="42.57462390685855" lon="-3.717820087597372"><ele>954.0</ele><time>2026-05-02T15:48:08Z</time></trkpt><trkpt lat="42.57454837814414" lon="-3.717781459554814"><ele>954.0</ele><time>2026-05-02T15:48:09Z</time></trkpt><trkpt lat="42.57448260474767" lon="-3.7177436066696736"><ele>954.2</ele><time>2026-05-02T15:48:10Z</time></trkpt><trkpt lat="42.57438876713838" lon="-3.717685941287372"><ele>954.4000000000001</ele><time>2026-05-02T15:48:12Z</time></trkpt><trkpt lat="42.57432151308262" lon="-3.7176779471559773"><ele>954.6</ele><time>2026-05-02T15:48:16Z</time></trkpt><trkpt lat="42.57427966039131" lon="-3.717607887004124"><ele>954.8</ele><time>2026-05-02T15:48:27Z</time></trkpt><trkpt lat="42.574188703297544" lon="-3.717540721054492"><ele>955.0</ele><time>2026-05-02T15:48:29Z</time></trkpt><trkpt lat="42.57407125213956" lon="-3.7174575326686456"><ele>954.9999999999999</ele><time>2026-05-02T15:48:31Z</time></trkpt><trkpt lat="42.57400580084124" lon="-3.7174064196430048"><ele>955.0</ele><time>2026-05-02T15:48:32Z</time></trkpt><trkpt lat="42.573936594555896" lon="-3.717354093132692"><ele>955.0</ele><time>2026-05-02T15:48:33Z</time></trkpt><trkpt lat="42.573864949968126" lon="-3.7172963336466496"><ele>955.0</ele><time>2026-05-02T15:48:34Z</time></trkpt><trkpt lat="42.57379302476288" lon="-3.7172312696093552"><ele>954.9999999999999</ele><time>2026-05-02T15:48:35Z</time></trkpt><trkpt lat="42.573719811015955" lon="-3.7171626201683385"><ele>955.0</ele><time>2026-05-02T15:48:36Z</time></trkpt><trkpt lat="42.573644155803315" lon="-3.717090261075347"><ele>954.2</ele><time>2026-05-02T15:48:37Z</time></trkpt><trkpt lat="42.57356625281983" lon="-3.7170123500316117"><ele>953.4</ele><time>2026-05-02T15:48:38Z</time></trkpt><trkpt lat="42.573489534858695" lon="-3.716927521236648"><ele>952.5999999999999</ele><time>2026-05-02T15:48:39Z</time></trkpt><trkpt lat="42.57341829290888" lon="-3.7168449159108556"><ele>951.8</ele><time>2026-05-02T15:48:40Z</time></trkpt><trkpt lat="42.57335210999395" lon="-3.7167661150606377"><ele>951.0</ele><time>2026-05-02T15:48:41Z</time></trkpt><trkpt lat="42.57328592969915" lon="-3.7166814295180877"><ele>950.8333333333334</ele><time>2026-05-02T15:48:42Z</time></trkpt><trkpt lat="42.573221361150225" lon="-3.716595748124795"><ele>950.6666666666667</ele><time>2026-05-02T15:48:43Z</time></trkpt><trkpt lat="42.573158244887466" lon="-3.716517640831444"><ele>950.5</ele><time>2026-05-02T15:48:44Z</time></trkpt><trkpt lat="42.57310438877012" lon="-3.7164419582064356"><ele>950.3333333333334</ele><time>2026-05-02T15:48:45Z</time></trkpt><trkpt lat="42.57305141860563" lon="-3.7163680328810926"><ele>950.1666666666667</ele><time>2026-05-02T15:48:46Z</time></trkpt><trkpt lat="42.572999625638566" lon="-3.716295911947072"><ele>950.0</ele><time>2026-05-02T15:48:47Z</time></trkpt><trkpt lat="42.57294710716025" lon="-3.7162169741989106"><ele>950.0000000000001</ele><time>2026-05-02T15:48:48Z</time></trkpt><trkpt lat="42.572895192130645" lon="-3.7161379289832643"><ele>950.0</ele><time>2026-05-02T15:48:49Z</time></trkpt><trkpt lat="42.572844864252026" lon="-3.7160639331512484"><ele>950.0</ele><time>2026-05-02T15:48:50Z</time></trkpt><trkpt lat="42.572796027404195" lon="-3.7159902573092896"><ele>950.0</ele><time>2026-05-02T15:48:51Z</time></trkpt><trkpt lat="42.57275041338983" lon="-3.715920277968146"><ele>950.0000000000001</ele><time>2026-05-02T15:48:52Z</time></trkpt><trkpt lat="42.57270782263599" lon="-3.715853797262682"><ele>950.0</ele><time>2026-05-02T15:48:53Z</time></trkpt><trkpt lat="42.57263748285582" lon="-3.715741705031589"><ele>950.25</ele><time>2026-05-02T15:48:55Z</time></trkpt><trkpt lat="42.57256600494916" lon="-3.7156356079217447"><ele>950.5</ele><time>2026-05-02T15:48:57Z</time></trkpt><trkpt lat="42.57249020806006" lon="-3.7155212567264164"><ele>950.75</ele><time>2026-05-02T15:48:59Z</time></trkpt><trkpt lat="42.572414995440084" lon="-3.7153998446403587"><ele>951.0</ele><time>2026-05-02T15:49:01Z</time></trkpt><trkpt lat="42.57233204635039" lon="-3.715282425722591"><ele>951.1428571428571</ele><time>2026-05-02T15:49:03Z</time></trkpt><trkpt lat="42.5722892319877" lon="-3.7152192463384934"><ele>951.2857142857143</ele><time>2026-05-02T15:49:04Z</time></trkpt><trkpt lat="42.57224610103662" lon="-3.715152481054698"><ele>951.4285714285714</ele><time>2026-05-02T15:49:05Z</time></trkpt><trkpt lat="42.5722030795674" lon="-3.7150856568593915"><ele>951.5714285714286</ele><time>2026-05-02T15:49:06Z</time></trkpt><trkpt lat="42.572160599246445" lon="-3.715016899071819"><ele>951.7142857142858</ele><time>2026-05-02T15:49:07Z</time></trkpt><trkpt lat="42.57211319724317" lon="-3.7149539069133946"><ele>951.8571428571429</ele><time>2026-05-02T15:49:08Z</time></trkpt><trkpt lat="42.57203324140212" lon="-3.7148321960004744"><ele>952.0</ele><time>2026-05-02T15:49:10Z</time></trkpt><trkpt lat="42.57195531241721" lon="-3.7147106790110467"><ele>951.4000000000001</ele><time>2026-05-02T15:49:12Z</time></trkpt><trkpt lat="42.57187327433005" lon="-3.7145993299419318"><ele>950.8000000000001</ele><time>2026-05-02T15:49:14Z</time></trkpt><trkpt lat="42.571796172406394" lon="-3.714480367781179"><ele>950.2</ele><time>2026-05-02T15:49:16Z</time></trkpt><trkpt lat="42.57172132166595" lon="-3.714360080860112"><ele>949.6</ele><time>2026-05-02T15:49:18Z</time></trkpt><trkpt lat="42.57165906624483" lon="-3.714259679602555"><ele>949.0</ele><time>2026-05-02T15:49:20Z</time></trkpt><trkpt lat="42.57160075746217" lon="-3.7142160964570397"><ele>948.9999999999999</ele><time>2026-05-02T15:49:24Z</time></trkpt><trkpt lat="42.5715415257738" lon="-3.7141623300750144"><ele>949.0</ele><time>2026-05-02T16:00:23Z</time></trkpt><trkpt lat="42.57151095377755" lon="-3.7140702622751776"><ele>949.0</ele><time>2026-05-02T16:00:26Z</time></trkpt><trkpt lat="42.5714573963654" lon="-3.713984406083214"><ele>949.0</ele><time>2026-05-02T16:00:28Z</time></trkpt><trkpt lat="42.57138514153163" lon="-3.7138602013064057"><ele>948.9999999999999</ele><time>2026-05-02T16:00:30Z</time></trkpt><trkpt lat="42.571343370822746" lon="-3.713784037202454"><ele>949.0</ele><time>2026-05-02T16:00:31Z</time></trkpt><trkpt lat="42.57129426543783" lon="-3.713712156769436"><ele>948.9999999999999</ele><time>2026-05-02T16:00:32Z</time></trkpt><trkpt lat="42.57124252463536" lon="-3.7136370054500962"><ele>949.0</ele><time>2026-05-02T16:00:33Z</time></trkpt><trkpt lat="42.57118972948383" lon="-3.7135569327554796"><ele>949.0</ele><time>2026-05-02T16:00:34Z</time></trkpt><trkpt lat="42.571135515488585" lon="-3.713473890953788"><ele>949.0</ele><time>2026-05-02T16:00:35Z</time></trkpt><trkpt lat="42.571077910477214" lon="-3.7133922388154614"><ele>948.9999999999999</ele><time>2026-05-02T16:00:36Z</time></trkpt><trkpt lat="42.571021168987976" lon="-3.7133059090977367"><ele>949.0</ele><time>2026-05-02T16:00:37Z</time></trkpt><trkpt lat="42.57096283933748" lon="-3.7132156864746086"><ele>948.6</ele><time>2026-05-02T16:00:38Z</time></trkpt><trkpt lat="42.57090553273078" lon="-3.713123432941017"><ele>948.2</ele><time>2026-05-02T16:00:39Z</time></trkpt><trkpt lat="42.57084554603239" lon="-3.7130317491852387"><ele>947.8000000000001</ele><time>2026-05-02T16:00:40Z</time></trkpt><trkpt lat="42.570784118542505" lon="-3.7129419325575985"><ele>947.4000000000001</ele><time>2026-05-02T16:00:41Z</time></trkpt><trkpt lat="42.57072120377942" lon="-3.71284783667492"><ele>947.0</ele><time>2026-05-02T16:00:42Z</time></trkpt><trkpt lat="42.57066037814162" lon="-3.7127530355186056"><ele>947.0</ele><time>2026-05-02T16:00:43Z</time></trkpt><trkpt lat="42.57060064452757" lon="-3.712662051059754"><ele>947.0</ele><time>2026-05-02T16:00:44Z</time></trkpt><trkpt lat="42.57053750181941" lon="-3.7125694809474066"><ele>947.0</ele><time>2026-05-02T16:00:45Z</time></trkpt><trkpt lat="42.570474349338646" lon="-3.712473856218651"><ele>947.0</ele><time>2026-05-02T16:00:46Z</time></trkpt><trkpt lat="42.57041324182438" lon="-3.712378014655541"><ele>947.0</ele><time>2026-05-02T16:00:47Z</time></trkpt><trkpt lat="42.570351722719835" lon="-3.7122806033406675"><ele>946.8</ele><time>2026-05-02T16:00:48Z</time></trkpt><trkpt lat="42.5702894967043" lon="-3.712184622649928"><ele>946.6</ele><time>2026-05-02T16:00:49Z</time></trkpt><trkpt lat="42.5702259193382" lon="-3.7120882604270755"><ele>946.3999999999999</ele><time>2026-05-02T16:00:50Z</time></trkpt><trkpt lat="42.57016255052608" lon="-3.7119908214233917"><ele>946.1999999999999</ele><time>2026-05-02T16:00:51Z</time></trkpt><trkpt lat="42.57010056595651" lon="-3.7118914838242496"><ele>946.0</ele><time>2026-05-02T16:00:52Z</time></trkpt><trkpt lat="42.57003774788474" lon="-3.7117936706210144"><ele>945.8</ele><time>2026-05-02T16:00:53Z</time></trkpt><trkpt lat="42.5699757187544" lon="-3.71169925175605"><ele>945.5999999999999</ele><time>2026-05-02T16:00:54Z</time></trkpt><trkpt lat="42.56991009480886" lon="-3.7115987006775155"><ele>945.4</ele><time>2026-05-02T16:00:55Z</time></trkpt><trkpt lat="42.569843769021965" lon="-3.7114999597596277"><ele>945.2</ele><time>2026-05-02T16:00:56Z</time></trkpt><trkpt lat="42.56977641809061" lon="-3.711401748854828"><ele>945.0</ele><time>2026-05-02T16:00:57Z</time></trkpt><trkpt lat="42.569709570546856" lon="-3.7113036041403284"><ele>945.0</ele><time>2026-05-02T16:00:58Z</time></trkpt><trkpt lat="42.56963986716169" lon="-3.7112072044826574"><ele>945.0</ele><time>2026-05-02T16:00:59Z</time></trkpt><trkpt lat="42.56957343386435" lon="-3.7111099736821105"><ele>945.0</ele><time>2026-05-02T16:01:00Z</time></trkpt><trkpt lat="42.569506973407606" lon="-3.7110124058798637"><ele>945.0</ele><time>2026-05-02T16:01:01Z</time></trkpt><trkpt lat="42.5694428636701" lon="-3.710914480021486"><ele>945.0</ele><time>2026-05-02T16:01:02Z</time></trkpt><trkpt lat="42.56938893996206" lon="-3.7108228900352187"><ele>945.1666666666666</ele><time>2026-05-02T16:01:03Z</time></trkpt><trkpt lat="42.56933846546211" lon="-3.710741710915307"><ele>945.3333333333333</ele><time>2026-05-02T16:01:04Z</time></trkpt><trkpt lat="42.56929106379901" lon="-3.7106718261910747"><ele>945.5</ele><time>2026-05-02T16:01:05Z</time></trkpt><trkpt lat="42.569245741276426" lon="-3.710607563040839"><ele>945.6666666666666</ele><time>2026-05-02T16:01:06Z</time></trkpt><trkpt lat="42.56917946420635" lon="-3.710508461211567"><ele>945.8333333333333</ele><time>2026-05-02T16:01:08Z</time></trkpt><trkpt lat="42.5691037622208" lon="-3.7105018589556913"><ele>946.0</ele><time>2026-05-02T16:01:11Z</time></trkpt><trkpt lat="42.56913539330877" lon="-3.7106157391948202"><ele>946.0</ele><time>2026-05-02T16:01:14Z</time></trkpt><trkpt lat="42.56911027218098" lon="-3.710730376347515"><ele>945.9999999999999</ele><time>2026-05-02T16:01:16Z</time></trkpt><trkpt lat="42.569119126709275" lon="-3.7108221056464155"><ele>945.9999999999999</ele><time>2026-05-02T16:01:18Z</time></trkpt><trkpt lat="42.56921820075588" lon="-3.7107192503839586"><ele>946.0</ele><time>2026-05-02T16:01:19Z</time></trkpt><trkpt lat="42.56912433493138" lon="-3.7108560255407474"><ele>946.0</ele><time>2026-05-02T16:01:20Z</time></trkpt><trkpt lat="42.56922681443621" lon="-3.7107323252425455"><ele>946.0</ele><time>2026-05-02T16:01:25Z</time></trkpt><trkpt lat="42.56912469215771" lon="-3.7108336177565158"><ele>946.0</ele><time>2026-05-02T16:02:14Z</time></trkpt><trkpt lat="42.5692187881687" lon="-3.7107201420189377"><ele>946.0</ele><time>2026-05-02T16:02:18Z</time></trkpt><trkpt lat="42.56912469215771" lon="-3.7108336177565158"><ele>946.0</ele><time>2026-05-02T16:02:24Z</time></trkpt><trkpt lat="42.5692187881616" lon="-3.7107201420274643"><ele>946.0</ele><time>2026-05-02T16:02:28Z</time></trkpt><trkpt lat="42.56912469215771" lon="-3.7108336177565158"><ele>946.0</ele><time>2026-05-02T16:02:53Z</time></trkpt><trkpt lat="42.56921878818222" lon="-3.7107201420026237"><ele>946.0</ele><time>2026-05-02T16:03:26Z</time></trkpt><trkpt lat="42.569128284359905" lon="-3.710814965073062"><ele>946.0</ele><time>2026-05-02T16:09:40Z</time></trkpt><trkpt lat="42.569151788419745" lon="-3.7107058918496634"><ele>946.0</ele><time>2026-05-02T16:10:32Z</time></trkpt><trkpt lat="42.56913019761928" lon="-3.710598869739264"><ele>946.0</ele><time>2026-05-02T16:10:34Z</time></trkpt><trkpt lat="42.569102534467156" lon="-3.7104187715174697"><ele>946.0</ele><time>2026-05-02T16:10:37Z</time></trkpt><trkpt lat="42.56903146329596" lon="-3.710300328206686"><ele>946.0</ele><time>2026-05-02T16:10:39Z</time></trkpt><trkpt lat="42.56894202565944" lon="-3.7101737646760515"><ele>945.8333333333333</ele><time>2026-05-02T16:10:41Z</time></trkpt><trkpt lat="42.56889372286228" lon="-3.7100986319572073"><ele>945.6666666666666</ele><time>2026-05-02T16:10:42Z</time></trkpt><trkpt lat="42.56884186882276" lon="-3.7100201572026252"><ele>945.5</ele><time>2026-05-02T16:10:43Z</time></trkpt><trkpt lat="42.56878629825468" lon="-3.7099358997470624"><ele>945.3333333333333</ele><time>2026-05-02T16:10:44Z</time></trkpt><trkpt lat="42.568727979679046" lon="-3.709847498644719"><ele>945.1666666666666</ele><time>2026-05-02T16:10:45Z</time></trkpt><trkpt lat="42.56866929663503" lon="-3.7097571924658466"><ele>945.0</ele><time>2026-05-02T16:10:46Z</time></trkpt><trkpt lat="42.56860731698666" lon="-3.709662004232882"><ele>945.0</ele><time>2026-05-02T16:10:47Z</time></trkpt><trkpt lat="42.5685428689415" lon="-3.709564663322244"><ele>945.0</ele><time>2026-05-02T16:10:48Z</time></trkpt><trkpt lat="42.5684806541682" lon="-3.7094657000393854"><ele>945.0</ele><time>2026-05-02T16:10:49Z</time></trkpt><trkpt lat="42.56841616975325" lon="-3.709368607479041"><ele>945.0</ele><time>2026-05-02T16:10:50Z</time></trkpt><trkpt lat="42.568345694193525" lon="-3.7092683489735054"><ele>945.0</ele><time>2026-05-02T16:10:51Z</time></trkpt><trkpt lat="42.56828341454365" lon="-3.709167448027627"><ele>945.0</ele><time>2026-05-02T16:10:52Z</time></trkpt><trkpt lat="42.56821732248925" lon="-3.7090641381486136"><ele>945.0</ele><time>2026-05-02T16:10:53Z</time></trkpt><trkpt lat="42.56814797488961" lon="-3.7089664953458534"><ele>945.0</ele><time>2026-05-02T16:10:54Z</time></trkpt><trkpt lat="42.56808339497535" lon="-3.7088671280891172"><ele>945.0</ele><time>2026-05-02T16:10:55Z</time></trkpt><trkpt lat="42.56801883793319" lon="-3.7087674365933716"><ele>945.0</ele><time>2026-05-02T16:10:56Z</time></trkpt><trkpt lat="42.56795220243563" lon="-3.7086661419814098"><ele>945.2</ele><time>2026-05-02T16:10:57Z</time></trkpt><trkpt lat="42.56788850377122" lon="-3.708568758674006"><ele>945.4</ele><time>2026-05-02T16:10:58Z</time></trkpt><trkpt lat="42.56782324284151" lon="-3.7084695982461207"><ele>945.5999999999999</ele><time>2026-05-02T16:10:59Z</time></trkpt><trkpt lat="42.56775707838226" lon="-3.7083696864654394"><ele>945.8</ele><time>2026-05-02T16:11:00Z</time></trkpt><trkpt lat="42.56769467916594" lon="-3.708268332509994"><ele>946.0</ele><time>2026-05-02T16:11:01Z</time></trkpt><trkpt lat="42.56763186973215" lon="-3.708170922936261"><ele>946.0</ele><time>2026-05-02T16:11:02Z</time></trkpt><trkpt lat="42.567568457604295" lon="-3.7080742683620036"><ele>945.9999999999999</ele><time>2026-05-02T16:11:03Z</time></trkpt><trkpt lat="42.56750511333066" lon="-3.707979248425595"><ele>945.9999999999999</ele><time>2026-05-02T16:11:04Z</time></trkpt><trkpt lat="42.5674415738202" lon="-3.7078805504108203"><ele>946.0</ele><time>2026-05-02T16:11:05Z</time></trkpt><trkpt lat="42.567379631727746" lon="-3.707781954461159"><ele>946.0</ele><time>2026-05-02T16:11:06Z</time></trkpt><trkpt lat="42.56731968562083" lon="-3.7076852502945816"><ele>946.1999999999999</ele><time>2026-05-02T16:11:07Z</time></trkpt><trkpt lat="42.567255714366475" lon="-3.707594031559726"><ele>946.3999999999999</ele><time>2026-05-02T16:11:08Z</time></trkpt><trkpt lat="42.56718449041443" lon="-3.7075086677598255"><ele>946.6</ele><time>2026-05-02T16:11:09Z</time></trkpt><trkpt lat="42.56712043841973" lon="-3.70741693826898"><ele>946.8</ele><time>2026-05-02T16:11:10Z</time></trkpt><trkpt lat="42.567054764472566" lon="-3.7073275752933266"><ele>947.0</ele><time>2026-05-02T16:11:11Z</time></trkpt><trkpt lat="42.56698564354278" lon="-3.707240373535473"><ele>947.0</ele><time>2026-05-02T16:11:12Z</time></trkpt><trkpt lat="42.566917219864386" lon="-3.707156421254527"><ele>947.0</ele><time>2026-05-02T16:11:13Z</time></trkpt><trkpt lat="42.56684293484162" lon="-3.7070805801657256"><ele>947.0</ele><time>2026-05-02T16:11:14Z</time></trkpt><trkpt lat="42.56677268733427" lon="-3.7069998663154"><ele>947.0</ele><time>2026-05-02T16:11:15Z</time></trkpt><trkpt lat="42.56669796728633" lon="-3.7069222470705"><ele>947.0</ele><time>2026-05-02T16:11:16Z</time></trkpt><trkpt lat="42.56661913839649" lon="-3.70685380575859"><ele>947.0</ele><time>2026-05-02T16:11:17Z</time></trkpt><trkpt lat="42.56653903736319" lon="-3.706785982248216"><ele>947.0</ele><time>2026-05-02T16:11:18Z</time></trkpt><trkpt lat="42.56645887562809" lon="-3.7067193800388645"><ele>947.0</ele><time>2026-05-02T16:11:19Z</time></trkpt><trkpt lat="42.56637848725928" lon="-3.7066536109022947"><ele>947.0</ele><time>2026-05-02T16:11:20Z</time></trkpt><trkpt lat="42.56629888854905" lon="-3.7065883431038706"><ele>947.0</ele><time>2026-05-02T16:11:21Z</time></trkpt><trkpt lat="42.56621906278077" lon="-3.7065239471588876"><ele>949.0</ele><time>2026-05-02T16:11:22Z</time></trkpt><trkpt lat="42.56613708385584" lon="-3.7064643040494647"><ele>951.0</ele><time>2026-05-02T16:11:23Z</time></trkpt><trkpt lat="42.566054279996415" lon="-3.7064073303747103"><ele>953.0</ele><time>2026-05-02T16:11:24Z</time></trkpt><trkpt lat="42.565967487794794" lon="-3.7063548873862944"><ele>955.0</ele><time>2026-05-02T16:11:25Z</time></trkpt><trkpt lat="42.56588119503205" lon="-3.7063059729872783"><ele>957.0</ele><time>2026-05-02T16:11:26Z</time></trkpt><trkpt lat="42.56579664313634" lon="-3.7062593945564744"><ele>957.0</ele><time>2026-05-02T16:11:27Z</time></trkpt><trkpt lat="42.56571067806484" lon="-3.706214931032081"><ele>957.0</ele><time>2026-05-02T16:11:28Z</time></trkpt><trkpt lat="42.56562618229678" lon="-3.7061710907865146"><ele>957.0</ele><time>2026-05-02T16:11:29Z</time></trkpt><trkpt lat="42.56553928146529" lon="-3.7061313030991356"><ele>957.0</ele><time>2026-05-02T16:11:30Z</time></trkpt><trkpt lat="42.56544998996581" lon="-3.7060952514583945"><ele>957.0</ele><time>2026-05-02T16:11:31Z</time></trkpt><trkpt lat="42.565360302459666" lon="-3.7060610289390508"><ele>957.0</ele><time>2026-05-02T16:11:32Z</time></trkpt><trkpt lat="42.565267488445414" lon="-3.7060300852241768"><ele>957.0</ele><time>2026-05-02T16:11:33Z</time></trkpt><trkpt lat="42.56517629817421" lon="-3.706001535994185"><ele>957.0</ele><time>2026-05-02T16:11:34Z</time></trkpt><trkpt lat="42.565083756667526" lon="-3.7059705438964454"><ele>957.0</ele><time>2026-05-02T16:11:35Z</time></trkpt><trkpt lat="42.564988585326255" lon="-3.7059383123305265"><ele>957.0</ele><time>2026-05-02T16:11:36Z</time></trkpt><trkpt lat="42.56489247260362" lon="-3.7059161659672926"><ele>957.0</ele><time>2026-05-02T16:11:37Z</time></trkpt><trkpt lat="42.56479368468131" lon="-3.7058861253577198"><ele>957.0</ele><time>2026-05-02T16:11:38Z</time></trkpt><trkpt lat="42.564695140828285" lon="-3.70585603642222"><ele>957.0</ele><time>2026-05-02T16:11:39Z</time></trkpt><trkpt lat="42.564594541507034" lon="-3.705825410907706"><ele>957.0</ele><time>2026-05-02T16:11:40Z</time></trkpt><trkpt lat="42.56449346865757" lon="-3.7057996711028824"><ele>957.0</ele><time>2026-05-02T16:11:41Z</time></trkpt><trkpt lat="42.56439230144641" lon="-3.705769189563682"><ele>957.4000000000001</ele><time>2026-05-02T16:11:42Z</time></trkpt><trkpt lat="42.564291188873995" lon="-3.7057367827394403"><ele>957.8000000000001</ele><time>2026-05-02T16:11:43Z</time></trkpt><trkpt lat="42.564190748255285" lon="-3.705711693119401"><ele>958.2</ele><time>2026-05-02T16:11:44Z</time></trkpt><trkpt lat="42.56408935968053" lon="-3.705689377502088"><ele>958.6</ele><time>2026-05-02T16:11:45Z</time></trkpt><trkpt lat="42.5639892968827" lon="-3.7056669451315143"><ele>959.0</ele><time>2026-05-02T16:11:46Z</time></trkpt><trkpt lat="42.56388814106232" lon="-3.70564220242777"><ele>959.0</ele><time>2026-05-02T16:11:47Z</time></trkpt><trkpt lat="42.56378607737755" lon="-3.7056176142695882"><ele>959.0000000000001</ele><time>2026-05-02T16:11:48Z</time></trkpt><trkpt lat="42.56368480202568" lon="-3.705593589913832"><ele>959.0000000000001</ele><time>2026-05-02T16:11:49Z</time></trkpt><trkpt lat="42.563585501336135" lon="-3.7055667260157406"><ele>959.0</ele><time>2026-05-02T16:11:50Z</time></trkpt><trkpt lat="42.563489141056756" lon="-3.705540185403797"><ele>959.0</ele><time>2026-05-02T16:11:51Z</time></trkpt><trkpt lat="42.56339415567653" lon="-3.705513518273441"><ele>959.6</ele><time>2026-05-02T16:11:52Z</time></trkpt><trkpt lat="42.5633001123534" lon="-3.705490049383079"><ele>960.2</ele><time>2026-05-02T16:11:53Z</time></trkpt><trkpt lat="42.56319935703178" lon="-3.705475353391313"><ele>960.8000000000001</ele><time>2026-05-02T16:11:54Z</time></trkpt><trkpt lat="42.56309942571449" lon="-3.7054613717340525"><ele>961.4000000000001</ele><time>2026-05-02T16:11:55Z</time></trkpt><trkpt lat="42.56299872979446" lon="-3.70545089582547"><ele>962.0</ele><time>2026-05-02T16:11:56Z</time></trkpt><trkpt lat="42.56289679274834" lon="-3.705449679149232"><ele>962.4000000000001</ele><time>2026-05-02T16:11:57Z</time></trkpt><trkpt lat="42.562794384377476" lon="-3.70545555161419"><ele>962.8000000000001</ele><time>2026-05-02T16:11:58Z</time></trkpt><trkpt lat="42.56269153843644" lon="-3.7054678323378596"><ele>963.2</ele><time>2026-05-02T16:11:59Z</time></trkpt><trkpt lat="42.56258915934828" lon="-3.705482313600168"><ele>963.6</ele><time>2026-05-02T16:12:00Z</time></trkpt><trkpt lat="42.56248749685687" lon="-3.7055065592755985"><ele>964.0</ele><time>2026-05-02T16:12:01Z</time></trkpt><trkpt lat="42.56238635987815" lon="-3.7055369780495715"><ele>964.0</ele><time>2026-05-02T16:12:02Z</time></trkpt><trkpt lat="42.562283539157825" lon="-3.7055721706467746"><ele>964.0000000000001</ele><time>2026-05-02T16:12:03Z</time></trkpt><trkpt lat="42.562181958596746" lon="-3.7056089074914134"><ele>964.0000000000001</ele><time>2026-05-02T16:12:04Z</time></trkpt><trkpt lat="42.56208158283379" lon="-3.705647008341863"><ele>964.0</ele><time>2026-05-02T16:12:05Z</time></trkpt><trkpt lat="42.56198100817246" lon="-3.705685535925634"><ele>964.0</ele><time>2026-05-02T16:12:06Z</time></trkpt><trkpt lat="42.56187913137053" lon="-3.7057231167802898"><ele>963.2</ele><time>2026-05-02T16:12:07Z</time></trkpt><trkpt lat="42.56177626685507" lon="-3.705764146179572"><ele>962.4000000000001</ele><time>2026-05-02T16:12:08Z</time></trkpt><trkpt lat="42.56167440057767" lon="-3.705803166315135"><ele>961.6</ele><time>2026-05-02T16:12:09Z</time></trkpt><trkpt lat="42.56157243574788" lon="-3.705844734154327"><ele>960.8</ele><time>2026-05-02T16:12:10Z</time></trkpt><trkpt lat="42.56146772231227" lon="-3.7058894481122935"><ele>960.0</ele><time>2026-05-02T16:12:11Z</time></trkpt><trkpt lat="42.5613622482485" lon="-3.705930361565026"><ele>960.0</ele><time>2026-05-02T16:12:12Z</time></trkpt><trkpt lat="42.561255610936506" lon="-3.7059662574649512"><ele>960.0</ele><time>2026-05-02T16:12:13Z</time></trkpt><trkpt lat="42.56115073432867" lon="-3.705994814402403"><ele>960.0</ele><time>2026-05-02T16:12:14Z</time></trkpt><trkpt lat="42.56104362789043" lon="-3.706015319764553"><ele>960.0</ele><time>2026-05-02T16:12:15Z</time></trkpt><trkpt lat="42.56093622687096" lon="-3.706027621502888"><ele>960.0</ele><time>2026-05-02T16:12:16Z</time></trkpt><trkpt lat="42.56082870672038" lon="-3.7060356937302528"><ele>959.4</ele><time>2026-05-02T16:12:17Z</time></trkpt><trkpt lat="42.56072252880162" lon="-3.7060340403387166"><ele>958.8</ele><time>2026-05-02T16:12:18Z</time></trkpt><trkpt lat="42.56061662024713" lon="-3.7060315585940655"><ele>958.2</ele><time>2026-05-02T16:12:19Z</time></trkpt><trkpt lat="42.56050815428735" lon="-3.706019868406294"><ele>957.6</ele><time>2026-05-02T16:12:20Z</time></trkpt><trkpt lat="42.56040120669668" lon="-3.705999390121995"><ele>957.0</ele><time>2026-05-02T16:12:21Z</time></trkpt><trkpt lat="42.56030058368689" lon="-3.7059719714414525"><ele>958.4000000000001</ele><time>2026-05-02T16:12:22Z</time></trkpt><trkpt lat="42.560202003734325" lon="-3.7059401557919034"><ele>959.8000000000001</ele><time>2026-05-02T16:12:23Z</time></trkpt><trkpt lat="42.56010477509739" lon="-3.7059102181101355"><ele>961.2</ele><time>2026-05-02T16:12:24Z</time></trkpt><trkpt lat="42.56000761724665" lon="-3.7058774827514056"><ele>962.6</ele><time>2026-05-02T16:12:25Z</time></trkpt><trkpt lat="42.55991386012878" lon="-3.7058430856402023"><ele>964.0</ele><time>2026-05-02T16:12:26Z</time></trkpt><trkpt lat="42.55982127671603" lon="-3.705801210941547"><ele>964.0</ele><time>2026-05-02T16:12:27Z</time></trkpt><trkpt lat="42.55972779408435" lon="-3.705760329654853"><ele>964.0000000000001</ele><time>2026-05-02T16:12:28Z</time></trkpt><trkpt lat="42.55963483409727" lon="-3.7057226907261382"><ele>964.0000000000001</ele><time>2026-05-02T16:12:29Z</time></trkpt><trkpt lat="42.55954494611921" lon="-3.7056855679106455"><ele>964.0</ele><time>2026-05-02T16:12:30Z</time></trkpt><trkpt lat="42.55945495058249" lon="-3.7056495985475975"><ele>964.0</ele><time>2026-05-02T16:12:31Z</time></trkpt><trkpt lat="42.559363464018006" lon="-3.7056160862915863"><ele>965.2</ele><time>2026-05-02T16:12:32Z</time></trkpt><trkpt lat="42.559273072714575" lon="-3.7055764585591895"><ele>966.4000000000001</ele><time>2026-05-02T16:12:33Z</time></trkpt><trkpt lat="42.559184076963575" lon="-3.7055344937914683"><ele>967.6</ele><time>2026-05-02T16:12:34Z</time></trkpt><trkpt lat="42.55909382031853" lon="-3.705493568493631"><ele>968.8</ele><time>2026-05-02T16:12:35Z</time></trkpt><trkpt lat="42.559005866383565" lon="-3.705451456896779"><ele>970.0</ele><time>2026-05-02T16:12:36Z</time></trkpt><trkpt lat="42.55891591845004" lon="-3.705414291979154"><ele>970.0</ele><time>2026-05-02T16:12:37Z</time></trkpt><trkpt lat="42.55882537568033" lon="-3.7053746759397144"><ele>970.0</ele><time>2026-05-02T16:12:38Z</time></trkpt><trkpt lat="42.55873834884829" lon="-3.7053378376792714"><ele>970.0</ele><time>2026-05-02T16:12:39Z</time></trkpt><trkpt lat="42.558650224633716" lon="-3.7053014434112583"><ele>970.0</ele><time>2026-05-02T16:12:40Z</time></trkpt><trkpt lat="42.558562558184384" lon="-3.7052663256821465"><ele>970.0</ele><time>2026-05-02T16:12:41Z</time></trkpt><trkpt lat="42.5584720483987" lon="-3.7052293800316827"><ele>970.2</ele><time>2026-05-02T16:12:42Z</time></trkpt><trkpt lat="42.55838455864626" lon="-3.7051973317936944"><ele>970.4</ele><time>2026-05-02T16:12:43Z</time></trkpt><trkpt lat="42.55829583057576" lon="-3.705165910512682"><ele>970.5999999999999</ele><time>2026-05-02T16:12:44Z</time></trkpt><trkpt lat="42.55820739402998" lon="-3.7051364011104164"><ele>970.8</ele><time>2026-05-02T16:12:45Z</time></trkpt><trkpt lat="42.55811986496784" lon="-3.705111506652039"><ele>971.0</ele><time>2026-05-02T16:12:46Z</time></trkpt><trkpt lat="42.558030590444744" lon="-3.7050879872463685"><ele>971.0</ele><time>2026-05-02T16:12:47Z</time></trkpt><trkpt lat="42.557938679531446" lon="-3.7050702611198636"><ele>970.9999999999999</ele><time>2026-05-02T16:12:48Z</time></trkpt><trkpt lat="42.557847741944876" lon="-3.705054795338198"><ele>970.9999999999999</ele><time>2026-05-02T16:12:49Z</time></trkpt><trkpt lat="42.557757946644365" lon="-3.7050476617524346"><ele>971.0</ele><time>2026-05-02T16:12:50Z</time></trkpt><trkpt lat="42.557663833810224" lon="-3.7050445091079727"><ele>971.0</ele><time>2026-05-02T16:12:51Z</time></trkpt><trkpt lat="42.55756803009164" lon="-3.7050458902530896"><ele>971.5999999999999</ele><time>2026-05-02T16:12:52Z</time></trkpt><trkpt lat="42.55747036106557" lon="-3.7050457084762707"><ele>972.1999999999999</ele><time>2026-05-02T16:12:53Z</time></trkpt><trkpt lat="42.55737196147242" lon="-3.705056622376384"><ele>972.8000000000001</ele><time>2026-05-02T16:12:54Z</time></trkpt><trkpt lat="42.55726802107138" lon="-3.7050740069264516"><ele>973.4000000000001</ele><time>2026-05-02T16:12:55Z</time></trkpt><trkpt lat="42.5571622845821" lon="-3.7050895387464737"><ele>974.0</ele><time>2026-05-02T16:12:56Z</time></trkpt><trkpt lat="42.55705722925359" lon="-3.705109527966191"><ele>973.8000000000001</ele><time>2026-05-02T16:12:57Z</time></trkpt><trkpt lat="42.556951719629225" lon="-3.7051248395982532"><ele>973.6000000000001</ele><time>2026-05-02T16:12:58Z</time></trkpt><trkpt lat="42.55684652514288" lon="-3.705142223589242"><ele>973.4</ele><time>2026-05-02T16:12:59Z</time></trkpt><trkpt lat="42.55674146434682" lon="-3.705154517233436"><ele>973.2</ele><time>2026-05-02T16:13:00Z</time></trkpt><trkpt lat="42.55663587175442" lon="-3.7051654423932425"><ele>973.0</ele><time>2026-05-02T16:13:01Z</time></trkpt><trkpt lat="42.55652751631592" lon="-3.705176007702545"><ele>973.0</ele><time>2026-05-02T16:13:02Z</time></trkpt><trkpt lat="42.55641809603757" lon="-3.7051784613763155"><ele>973.0</ele><time>2026-05-02T16:13:03Z</time></trkpt><trkpt lat="42.556310226686236" lon="-3.7051773587807464"><ele>973.0</ele><time>2026-05-02T16:13:04Z</time></trkpt><trkpt lat="42.55620097327616" lon="-3.7051696408709542"><ele>973.0</ele><time>2026-05-02T16:13:05Z</time></trkpt><trkpt lat="42.556090027120526" lon="-3.705156280421508"><ele>973.0</ele><time>2026-05-02T16:13:06Z</time></trkpt><trkpt lat="42.55597996854196" lon="-3.705135551209283"><ele>971.8</ele><time>2026-05-02T16:13:07Z</time></trkpt><trkpt lat="42.555872491843175" lon="-3.7051023147899285"><ele>970.5999999999999</ele><time>2026-05-02T16:13:08Z</time></trkpt><trkpt lat="42.55576415804912" lon="-3.7050677403680017"><ele>969.4000000000001</ele><time>2026-05-02T16:13:09Z</time></trkpt><trkpt lat="42.55565868338403" lon="-3.705021854696738"><ele>968.2</ele><time>2026-05-02T16:13:10Z</time></trkpt><trkpt lat="42.55555549030322" lon="-3.704973294330662"><ele>967.0</ele><time>2026-05-02T16:13:11Z</time></trkpt><trkpt lat="42.555454964750865" lon="-3.7049217848802876"><ele>967.6</ele><time>2026-05-02T16:13:12Z</time></trkpt><trkpt lat="42.55534563620643" lon="-3.704876729614619"><ele>968.2</ele><time>2026-05-02T16:13:13Z</time></trkpt><trkpt lat="42.555246069558464" lon="-3.704820536548987"><ele>968.8</ele><time>2026-05-02T16:13:14Z</time></trkpt><trkpt lat="42.555146746873156" lon="-3.7047746919990208"><ele>969.4</ele><time>2026-05-02T16:13:15Z</time></trkpt><trkpt lat="42.555045008777846" lon="-3.704723020284721"><ele>970.0</ele><time>2026-05-02T16:13:16Z</time></trkpt><trkpt lat="42.55493601487737" lon="-3.704667958058137"><ele>970.0</ele><time>2026-05-02T16:13:17Z</time></trkpt><trkpt lat="42.55483268637305" lon="-3.7046141767254803"><ele>970.0</ele><time>2026-05-02T16:13:18Z</time></trkpt><trkpt lat="42.55472777166887" lon="-3.7045551433414734"><ele>970.0</ele><time>2026-05-02T16:13:19Z</time></trkpt><trkpt lat="42.55462448245657" lon="-3.704501707349155"><ele>970.0</ele><time>2026-05-02T16:13:20Z</time></trkpt><trkpt lat="42.554521621318365" lon="-3.704446364715426"><ele>970.0</ele><time>2026-05-02T16:13:21Z</time></trkpt><trkpt lat="42.5544183940463" lon="-3.704391361988559"><ele>969.0</ele><time>2026-05-02T16:13:22Z</time></trkpt><trkpt lat="42.55431417514911" lon="-3.7043386190092593"><ele>968.0</ele><time>2026-05-02T16:13:23Z</time></trkpt><trkpt lat="42.554211539591854" lon="-3.704286848748074"><ele>967.0</ele><time>2026-05-02T16:13:24Z</time></trkpt><trkpt lat="42.55410926670131" lon="-3.7042342756255597"><ele>966.0</ele><time>2026-05-02T16:13:25Z</time></trkpt><trkpt lat="42.554003594647156" lon="-3.7041807752013973"><ele>965.0</ele><time>2026-05-02T16:13:26Z</time></trkpt><trkpt lat="42.553897863650526" lon="-3.704128129188803"><ele>965.0</ele><time>2026-05-02T16:13:27Z</time></trkpt><trkpt lat="42.553786446205834" lon="-3.7040761111546767"><ele>965.0</ele><time>2026-05-02T16:13:28Z</time></trkpt><trkpt lat="42.553692301845054" lon="-3.7040245562081133"><ele>965.0</ele><time>2026-05-02T16:13:29Z</time></trkpt><trkpt lat="42.553585935525476" lon="-3.703973543789568"><ele>965.0</ele><time>2026-05-02T16:13:30Z</time></trkpt><trkpt lat="42.55348182722256" lon="-3.703922296184245"><ele>965.0</ele><time>2026-05-02T16:13:31Z</time></trkpt><trkpt lat="42.55337653517608" lon="-3.7038730724839426"><ele>964.6</ele><time>2026-05-02T16:13:32Z</time></trkpt><trkpt lat="42.55328367033559" lon="-3.7038146985040044"><ele>964.2</ele><time>2026-05-02T16:13:33Z</time></trkpt><trkpt lat="42.55319751715326" lon="-3.7037649812458233"><ele>963.8</ele><time>2026-05-02T16:13:34Z</time></trkpt><trkpt lat="42.553093202498296" lon="-3.703719546321025"><ele>963.4</ele><time>2026-05-02T16:13:35Z</time></trkpt><trkpt lat="42.553004076307566" lon="-3.7036925286368496"><ele>963.0</ele><time>2026-05-02T16:13:36Z</time></trkpt><trkpt lat="42.55291714196123" lon="-3.7036641923152085"><ele>961.0</ele><time>2026-05-02T16:13:37Z</time></trkpt><trkpt lat="42.55274375155467" lon="-3.7035350952766914"><ele>959.0</ele><time>2026-05-02T16:13:38Z</time></trkpt><trkpt lat="42.55264293943903" lon="-3.703480244384313"><ele>957.0</ele><time>2026-05-02T16:13:39Z</time></trkpt><trkpt lat="42.552541252579594" lon="-3.703423325140716"><ele>955.0</ele><time>2026-05-02T16:13:40Z</time></trkpt><trkpt lat="42.55243774572473" lon="-3.7033662166672587"><ele>955.0</ele><time>2026-05-02T16:13:41Z</time></trkpt><trkpt lat="42.55233183539777" lon="-3.7033113453955306"><ele>955.0</ele><time>2026-05-02T16:13:42Z</time></trkpt><trkpt lat="42.55222648189478" lon="-3.7032525832146264"><ele>955.0</ele><time>2026-05-02T16:13:43Z</time></trkpt><trkpt lat="42.55212528477062" lon="-3.7031927003050362"><ele>955.0</ele><time>2026-05-02T16:13:44Z</time></trkpt><trkpt lat="42.55202469002044" lon="-3.7031336293085855"><ele>955.0</ele><time>2026-05-02T16:13:45Z</time></trkpt><trkpt lat="42.55191664508209" lon="-3.7030808828257498"><ele>955.25</ele><time>2026-05-02T16:13:46Z</time></trkpt><trkpt lat="42.551813708100426" lon="-3.70302125236688"><ele>955.5</ele><time>2026-05-02T16:13:47Z</time></trkpt><trkpt lat="42.551703419595064" lon="-3.7029626229315777"><ele>955.75</ele><time>2026-05-02T16:13:48Z</time></trkpt><trkpt lat="42.55160012652462" lon="-3.7029003728749985"><ele>956.0</ele><time>2026-05-02T16:13:49Z</time></trkpt><trkpt lat="42.55149271853759" lon="-3.7028390552814603"><ele>956.0</ele><time>2026-05-02T16:13:50Z</time></trkpt><trkpt lat="42.55138874037127" lon="-3.7027748524563573"><ele>956.0</ele><time>2026-05-02T16:13:51Z</time></trkpt><trkpt lat="42.55128355632432" lon="-3.70271397322976"><ele>956.0</ele><time>2026-05-02T16:13:52Z</time></trkpt><trkpt lat="42.55117804582306" lon="-3.7026550539378977"><ele>956.0</ele><time>2026-05-02T16:13:53Z</time></trkpt><trkpt lat="42.551072006303215" lon="-3.7025856595958317"><ele>954.75</ele><time>2026-05-02T16:13:54Z</time></trkpt><trkpt lat="42.550963982034894" lon="-3.7025200495430153"><ele>953.5</ele><time>2026-05-02T16:13:55Z</time></trkpt><trkpt lat="42.55086144655066" lon="-3.702456407924339"><ele>952.25</ele><time>2026-05-02T16:13:56Z</time></trkpt><trkpt lat="42.550757248255366" lon="-3.7023961624373167"><ele>951.0</ele><time>2026-05-02T16:13:57Z</time></trkpt><trkpt lat="42.55065236827397" lon="-3.7023320258626495"><ele>951.0</ele><time>2026-05-02T16:13:58Z</time></trkpt><trkpt lat="42.550552355796036" lon="-3.7022624370322945"><ele>950.9999999999999</ele><time>2026-05-02T16:13:59Z</time></trkpt><trkpt lat="42.55046007924938" lon="-3.7022184461339593"><ele>950.9999999999999</ele><time>2026-05-02T16:14:00Z</time></trkpt><trkpt lat="42.55035864788914" lon="-3.702157323551489"><ele>951.0</ele><time>2026-05-02T16:14:01Z</time></trkpt><trkpt lat="42.550256687495136" lon="-3.7020958822204246"><ele>951.0</ele><time>2026-05-02T16:14:02Z</time></trkpt><trkpt lat="42.55014801989976" lon="-3.702030399113314"><ele>950.75</ele><time>2026-05-02T16:14:03Z</time></trkpt><trkpt lat="42.55004253260975" lon="-3.701966832504822"><ele>950.5</ele><time>2026-05-02T16:14:04Z</time></trkpt><trkpt lat="42.549937506744335" lon="-3.7019035438709236"><ele>950.25</ele><time>2026-05-02T16:14:05Z</time></trkpt><trkpt lat="42.549832979938216" lon="-3.7018405560167404"><ele>950.0</ele><time>2026-05-02T16:14:06Z</time></trkpt><trkpt lat="42.5497303457036" lon="-3.7017544427946216"><ele>949.25</ele><time>2026-05-02T16:14:07Z</time></trkpt><trkpt lat="42.5495876199506" lon="-3.7016935429819204"><ele>948.5</ele><time>2026-05-02T16:14:08Z</time></trkpt><trkpt lat="42.54943806430113" lon="-3.701634296895718"><ele>947.75</ele><time>2026-05-02T16:14:09Z</time></trkpt><trkpt lat="42.549351374961525" lon="-3.7016527434064797"><ele>947.0</ele><time>2026-05-02T16:14:10Z</time></trkpt><trkpt lat="42.549206197732424" lon="-3.7014512823064023"><ele>947.0</ele><time>2026-05-02T16:14:12Z</time></trkpt><trkpt lat="42.54910483161182" lon="-3.70138408181824"><ele>947.0</ele><time>2026-05-02T16:14:13Z</time></trkpt><trkpt lat="42.54900242703781" lon="-3.701312855756679"><ele>947.0</ele><time>2026-05-02T16:14:14Z</time></trkpt><trkpt lat="42.548901265686055" lon="-3.701247980719288"><ele>947.0</ele><time>2026-05-02T16:14:15Z</time></trkpt><trkpt lat="42.54879927957992" lon="-3.7011764108028546"><ele>946.0</ele><time>2026-05-02T16:14:16Z</time></trkpt><trkpt lat="42.54869826225381" lon="-3.701107794177752"><ele>945.0</ele><time>2026-05-02T16:14:17Z</time></trkpt><trkpt lat="42.54859723140447" lon="-3.701031405061612"><ele>944.0</ele><time>2026-05-02T16:14:18Z</time></trkpt><trkpt lat="42.54849805739846" lon="-3.7009553902389714"><ele>943.0</ele><time>2026-05-02T16:14:19Z</time></trkpt><trkpt lat="42.54839807103907" lon="-3.700880352055724"><ele>942.5999999999999</ele><time>2026-05-02T16:14:20Z</time></trkpt><trkpt lat="42.54829844584366" lon="-3.7008063952116985"><ele>942.1999999999999</ele><time>2026-05-02T16:14:21Z</time></trkpt><trkpt lat="42.54820210163072" lon="-3.7007318022122324"><ele>941.8</ele><time>2026-05-02T16:14:22Z</time></trkpt><trkpt lat="42.548106475056514" lon="-3.700652969740559"><ele>941.4</ele><time>2026-05-02T16:14:23Z</time></trkpt><trkpt lat="42.54801118479678" lon="-3.7005765182415176"><ele>941.0</ele><time>2026-05-02T16:14:24Z</time></trkpt><trkpt lat="42.547910109988734" lon="-3.700500442004073"><ele>941.1999999999999</ele><time>2026-05-02T16:14:25Z</time></trkpt><trkpt lat="42.54781445492638" lon="-3.7004241488335428"><ele>941.3999999999999</ele><time>2026-05-02T16:14:26Z</time></trkpt><trkpt lat="42.54771784956029" lon="-3.7003490233859293"><ele>941.6</ele><time>2026-05-02T16:14:27Z</time></trkpt><trkpt lat="42.547623371284004" lon="-3.700270117175538"><ele>941.8</ele><time>2026-05-02T16:14:28Z</time></trkpt><trkpt lat="42.5475299596909" lon="-3.700195314842114"><ele>942.0</ele><time>2026-05-02T16:14:29Z</time></trkpt><trkpt lat="42.54743602536211" lon="-3.7001187904628354"><ele>942.0</ele><time>2026-05-02T16:14:30Z</time></trkpt><trkpt lat="42.54734351571972" lon="-3.700039953308075"><ele>942.0</ele><time>2026-05-02T16:14:31Z</time></trkpt><trkpt lat="42.547252392471485" lon="-3.699958418150612"><ele>942.0</ele><time>2026-05-02T16:14:32Z</time></trkpt><trkpt lat="42.547160642639724" lon="-3.6998831194105968"><ele>942.0</ele><time>2026-05-02T16:14:33Z</time></trkpt><trkpt lat="42.547068909835744" lon="-3.6998114849444224"><ele>942.0</ele><time>2026-05-02T16:14:34Z</time></trkpt><trkpt lat="42.54697733119962" lon="-3.699735949061551"><ele>942.0</ele><time>2026-05-02T16:14:35Z</time></trkpt><trkpt lat="42.54688695230619" lon="-3.6996604437976197"><ele>942.0</ele><time>2026-05-02T16:14:36Z</time></trkpt><trkpt lat="42.54679554408691" lon="-3.699585888805414"><ele>942.0</ele><time>2026-05-02T16:14:37Z</time></trkpt><trkpt lat="42.54670184983256" lon="-3.6995093733908346"><ele>942.0</ele><time>2026-05-02T16:14:38Z</time></trkpt><trkpt lat="42.54661109341897" lon="-3.6994275524203037"><ele>942.0</ele><time>2026-05-02T16:14:39Z</time></trkpt><trkpt lat="42.54651709426603" lon="-3.6993495216997534"><ele>941.25</ele><time>2026-05-02T16:14:40Z</time></trkpt><trkpt lat="42.546421823712315" lon="-3.6992711586051787"><ele>940.5</ele><time>2026-05-02T16:14:41Z</time></trkpt><trkpt lat="42.546331485700705" lon="-3.699214492361114"><ele>939.75</ele><time>2026-05-02T16:14:42Z</time></trkpt><trkpt lat="42.54620042841308" lon="-3.6991470549574497"><ele>939.0</ele><time>2026-05-02T16:14:44Z</time></trkpt><trkpt lat="42.54604897238805" lon="-3.6989494438810184"><ele>938.25</ele><time>2026-05-02T16:14:45Z</time></trkpt><trkpt lat="42.54594455965437" lon="-3.698874266178069"><ele>937.5</ele><time>2026-05-02T16:14:46Z</time></trkpt><trkpt lat="42.54584402261827" lon="-3.698776827049813"><ele>936.75</ele><time>2026-05-02T16:14:47Z</time></trkpt><trkpt lat="42.54574773336039" lon="-3.6987017604520935"><ele>936.0</ele><time>2026-05-02T16:14:48Z</time></trkpt><trkpt lat="42.545651005673385" lon="-3.698622125828422"><ele>936.0</ele><time>2026-05-02T16:14:49Z</time></trkpt><trkpt lat="42.54556065821142" lon="-3.6985352581112183"><ele>935.9999999999999</ele><time>2026-05-02T16:14:50Z</time></trkpt><trkpt lat="42.54546184657767" lon="-3.6984797652180808"><ele>935.9999999999999</ele><time>2026-05-02T16:14:51Z</time></trkpt><trkpt lat="42.5453907319714" lon="-3.698426902136004"><ele>936.0</ele><time>2026-05-02T16:14:52Z</time></trkpt><trkpt lat="42.545266313957015" lon="-3.6983339081342907"><ele>936.0</ele><time>2026-05-02T16:14:53Z</time></trkpt><trkpt lat="42.54517319708697" lon="-3.698264883667973"><ele>936.1999999999999</ele><time>2026-05-02T16:14:54Z</time></trkpt><trkpt lat="42.54507398880742" lon="-3.698201448616727"><ele>936.3999999999999</ele><time>2026-05-02T16:14:55Z</time></trkpt><trkpt lat="42.54497371223544" lon="-3.6981412478312325"><ele>936.6</ele><time>2026-05-02T16:14:56Z</time></trkpt><trkpt lat="42.544874576580945" lon="-3.6980840192759223"><ele>936.8</ele><time>2026-05-02T16:14:57Z</time></trkpt><trkpt lat="42.5447710337261" lon="-3.698033573947881"><ele>937.0</ele><time>2026-05-02T16:14:58Z</time></trkpt><trkpt lat="42.54467016756379" lon="-3.6979829432543028"><ele>937.0</ele><time>2026-05-02T16:14:59Z</time></trkpt><trkpt lat="42.5445679926314" lon="-3.697936852226536"><ele>937.0</ele><time>2026-05-02T16:15:00Z</time></trkpt><trkpt lat="42.54446478969016" lon="-3.697890535757571"><ele>937.0</ele><time>2026-05-02T16:15:01Z</time></trkpt><trkpt lat="42.54436375076945" lon="-3.697849915461592"><ele>937.0</ele><time>2026-05-02T16:15:02Z</time></trkpt><trkpt lat="42.54425894503359" lon="-3.6978082569333552"><ele>937.0</ele><time>2026-05-02T16:15:03Z</time></trkpt><trkpt lat="42.54415622614069" lon="-3.697770397898075"><ele>936.8</ele><time>2026-05-02T16:15:04Z</time></trkpt><trkpt lat="42.54405062810576" lon="-3.697730449156924"><ele>936.6</ele><time>2026-05-02T16:15:05Z</time></trkpt><trkpt lat="42.54394561323946" lon="-3.6976954146674648"><ele>936.3999999999999</ele><time>2026-05-02T16:15:06Z</time></trkpt><trkpt lat="42.54384003049788" lon="-3.6976546341723227"><ele>936.1999999999999</ele><time>2026-05-02T16:15:07Z</time></trkpt><trkpt lat="42.543733743015025" lon="-3.6976168233271007"><ele>936.0</ele><time>2026-05-02T16:15:08Z</time></trkpt><trkpt lat="42.5436290202375" lon="-3.6975767298674542"><ele>936.0</ele><time>2026-05-02T16:15:09Z</time></trkpt><trkpt lat="42.54352221905348" lon="-3.6975378475916774"><ele>935.9999999999999</ele><time>2026-05-02T16:15:10Z</time></trkpt><trkpt lat="42.54341741731596" lon="-3.6975004280138335"><ele>935.9999999999999</ele><time>2026-05-02T16:15:11Z</time></trkpt><trkpt lat="42.5433109611812" lon="-3.6974651451335547"><ele>936.0</ele><time>2026-05-02T16:15:12Z</time></trkpt><trkpt lat="42.54320408536366" lon="-3.697422758301817"><ele>936.0</ele><time>2026-05-02T16:15:13Z</time></trkpt><trkpt lat="42.543094724629526" lon="-3.697384040089408"><ele>936.0</ele><time>2026-05-02T16:15:14Z</time></trkpt><trkpt lat="42.54299070811377" lon="-3.697342882965456"><ele>935.9999999999999</ele><time>2026-05-02T16:15:15Z</time></trkpt><trkpt lat="42.542877075810296" lon="-3.697308056739281"><ele>935.9999999999999</ele><time>2026-05-02T16:15:16Z</time></trkpt><trkpt lat="42.542776376532046" lon="-3.6972691240694218"><ele>936.0</ele><time>2026-05-02T16:15:17Z</time></trkpt><trkpt lat="42.54266765436892" lon="-3.6972288049493556"><ele>936.0</ele><time>2026-05-02T16:15:18Z</time></trkpt><trkpt lat="42.54256050678301" lon="-3.6971923059787186"><ele>936.0</ele><time>2026-05-02T16:15:19Z</time></trkpt><trkpt lat="42.542454950967844" lon="-3.6971527834107243"><ele>935.9999999999999</ele><time>2026-05-02T16:15:20Z</time></trkpt><trkpt lat="42.542350449690005" lon="-3.697115368069627"><ele>935.9999999999999</ele><time>2026-05-02T16:15:21Z</time></trkpt><trkpt lat="42.542244392390366" lon="-3.69707431126762"><ele>936.0</ele><time>2026-05-02T16:15:22Z</time></trkpt><trkpt lat="42.54213691636557" lon="-3.697036627943231"><ele>936.0</ele><time>2026-05-02T16:15:23Z</time></trkpt><trkpt lat="42.54202667769696" lon="-3.6970010973704093"><ele>936.1999999999999</ele><time>2026-05-02T16:15:24Z</time></trkpt><trkpt lat="42.54192406628671" lon="-3.6969594149622926"><ele>936.3999999999999</ele><time>2026-05-02T16:15:25Z</time></trkpt><trkpt lat="42.54181778466829" lon="-3.696917442059606"><ele>936.6</ele><time>2026-05-02T16:15:26Z</time></trkpt><trkpt lat="42.541710714142084" lon="-3.69687985531464"><ele>936.8</ele><time>2026-05-02T16:15:27Z</time></trkpt><trkpt lat="42.541603453555524" lon="-3.6968392885266703"><ele>937.0</ele><time>2026-05-02T16:15:28Z</time></trkpt><trkpt lat="42.54149619764363" lon="-3.6967993687018295"><ele>935.8</ele><time>2026-05-02T16:15:29Z</time></trkpt><trkpt lat="42.54139006673778" lon="-3.696762181602554"><ele>934.6</ele><time>2026-05-02T16:15:30Z</time></trkpt><trkpt lat="42.54128341055201" lon="-3.6967236071568323"><ele>933.3999999999999</ele><time>2026-05-02T16:15:31Z</time></trkpt><trkpt lat="42.541176906965504" lon="-3.696686874386802"><ele>932.1999999999999</ele><time>2026-05-02T16:15:32Z</time></trkpt><trkpt lat="42.54107205673394" lon="-3.69664694862383"><ele>931.0</ele><time>2026-05-02T16:15:33Z</time></trkpt><trkpt lat="42.54096741880276" lon="-3.6966083920423647"><ele>930.5999999999999</ele><time>2026-05-02T16:15:34Z</time></trkpt><trkpt lat="42.54086243297393" lon="-3.696566031755943"><ele>930.1999999999999</ele><time>2026-05-02T16:15:35Z</time></trkpt><trkpt lat="42.540757102003894" lon="-3.69652860616634"><ele>929.8000000000001</ele><time>2026-05-02T16:15:36Z</time></trkpt><trkpt lat="42.540652475924105" lon="-3.696491930554854"><ele>929.4000000000001</ele><time>2026-05-02T16:15:37Z</time></trkpt><trkpt lat="42.54054759723772" lon="-3.696451343318971"><ele>929.0</ele><time>2026-05-02T16:15:38Z</time></trkpt><trkpt lat="42.54044270562403" lon="-3.69641441048968"><ele>929.6</ele><time>2026-05-02T16:15:39Z</time></trkpt><trkpt lat="42.54033776875289" lon="-3.696370059534418"><ele>930.2</ele><time>2026-05-02T16:15:40Z</time></trkpt><trkpt lat="42.54023322946759" lon="-3.6963293520189646"><ele>930.8000000000001</ele><time>2026-05-02T16:15:41Z</time></trkpt><trkpt lat="42.54012758648378" lon="-3.6962907193419547"><ele>931.4000000000001</ele><time>2026-05-02T16:15:42Z</time></trkpt><trkpt lat="42.54002319734698" lon="-3.6962534995425163"><ele>932.0</ele><time>2026-05-02T16:15:43Z</time></trkpt><trkpt lat="42.5399166178048" lon="-3.6962136802626877"><ele>932.0</ele><time>2026-05-02T16:15:44Z</time></trkpt><trkpt lat="42.53981047530831" lon="-3.696177668847018"><ele>932.0</ele><time>2026-05-02T16:15:45Z</time></trkpt><trkpt lat="42.53970444430548" lon="-3.6961437414471954"><ele>932.0</ele><time>2026-05-02T16:15:46Z</time></trkpt><trkpt lat="42.539600299892584" lon="-3.6961023451375157"><ele>932.0</ele><time>2026-05-02T16:15:47Z</time></trkpt><trkpt lat="42.539496294944676" lon="-3.6960637942543464"><ele>932.0</ele><time>2026-05-02T16:15:48Z</time></trkpt><trkpt lat="42.53939410447539" lon="-3.696026625231066"><ele>931.4000000000001</ele><time>2026-05-02T16:15:49Z</time></trkpt><trkpt lat="42.53928940933226" lon="-3.6959920073410104"><ele>930.8000000000001</ele><time>2026-05-02T16:15:50Z</time></trkpt><trkpt lat="42.5391836894368" lon="-3.6959558445192977"><ele>930.2</ele><time>2026-05-02T16:15:51Z</time></trkpt><trkpt lat="42.53907738685053" lon="-3.69591558918462"><ele>929.6</ele><time>2026-05-02T16:15:52Z</time></trkpt><trkpt lat="42.538967476435715" lon="-3.6958708886694773"><ele>929.0</ele><time>2026-05-02T16:15:53Z</time></trkpt><trkpt lat="42.53886381740306" lon="-3.6958371409485804"><ele>929.0</ele><time>2026-05-02T16:15:54Z</time></trkpt><trkpt lat="42.53875367329716" lon="-3.695795574539514"><ele>929.0000000000001</ele><time>2026-05-02T16:15:55Z</time></trkpt><trkpt lat="42.53864866561614" lon="-3.695758031884964"><ele>929.0000000000001</ele><time>2026-05-02T16:15:56Z</time></trkpt><trkpt lat="42.53854351872312" lon="-3.6957172527543425"><ele>929.0</ele><time>2026-05-02T16:15:57Z</time></trkpt><trkpt lat="42.53843669174092" lon="-3.695681205856086"><ele>929.0</ele><time>2026-05-02T16:15:58Z</time></trkpt><trkpt lat="42.538332573356136" lon="-3.695644484954016"><ele>928.6</ele><time>2026-05-02T16:15:59Z</time></trkpt><trkpt lat="42.538226471438726" lon="-3.6956088365844915"><ele>928.2</ele><time>2026-05-02T16:16:00Z</time></trkpt><trkpt lat="42.5381213681345" lon="-3.6955690662691545"><ele>927.8000000000001</ele><time>2026-05-02T16:16:01Z</time></trkpt><trkpt lat="42.53801606958114" lon="-3.6955295775568193"><ele>927.4000000000001</ele><time>2026-05-02T16:16:02Z</time></trkpt><trkpt lat="42.537913603916735" lon="-3.695495011103584"><ele>927.0</ele><time>2026-05-02T16:16:03Z</time></trkpt><trkpt lat="42.53781078726713" lon="-3.6954608096524777"><ele>928.0</ele><time>2026-05-02T16:16:04Z</time></trkpt><trkpt lat="42.5377088104471" lon="-3.695425749434518"><ele>929.0</ele><time>2026-05-02T16:16:05Z</time></trkpt><trkpt lat="42.53760554057377" lon="-3.695389424682866"><ele>930.0</ele><time>2026-05-02T16:16:06Z</time></trkpt><trkpt lat="42.53750301590287" lon="-3.695355241606597"><ele>931.0</ele><time>2026-05-02T16:16:07Z</time></trkpt><trkpt lat="42.53740115513974" lon="-3.6953234778255104"><ele>932.0</ele><time>2026-05-02T16:16:08Z</time></trkpt><trkpt lat="42.53729756220163" lon="-3.6952899158355774"><ele>932.0</ele><time>2026-05-02T16:16:09Z</time></trkpt><trkpt lat="42.53719328225784" lon="-3.6952603687477543"><ele>932.0</ele><time>2026-05-02T16:16:10Z</time></trkpt><trkpt lat="42.537088864798925" lon="-3.6952322565496525"><ele>932.0</ele><time>2026-05-02T16:16:11Z</time></trkpt><trkpt lat="42.53698227856548" lon="-3.695201962200203"><ele>932.0</ele><time>2026-05-02T16:16:12Z</time></trkpt><trkpt lat="42.536876902809446" lon="-3.695168917597574"><ele>932.0</ele><time>2026-05-02T16:16:13Z</time></trkpt><trkpt lat="42.53677011365108" lon="-3.6951324673643553"><ele>930.5</ele><time>2026-05-02T16:16:14Z</time></trkpt><trkpt lat="42.536663847147395" lon="-3.695100346419441"><ele>929.0</ele><time>2026-05-02T16:16:15Z</time></trkpt><trkpt lat="42.536450324559745" lon="-3.6950364272423184"><ele>927.5</ele><time>2026-05-02T16:16:17Z</time></trkpt><trkpt lat="42.53634340581096" lon="-3.6950074778838182"><ele>926.0</ele><time>2026-05-02T16:16:18Z</time></trkpt><trkpt lat="42.536235326682295" lon="-3.6949777713841114"><ele>925.4</ele><time>2026-05-02T16:16:19Z</time></trkpt><trkpt lat="42.53612707625035" lon="-3.694948164635965"><ele>924.8</ele><time>2026-05-02T16:16:20Z</time></trkpt><trkpt lat="42.53601320573495" lon="-3.694901133901624"><ele>924.1999999999999</ele><time>2026-05-02T16:16:21Z</time></trkpt><trkpt lat="42.53591060802992" lon="-3.6948846867696234"><ele>923.5999999999999</ele><time>2026-05-02T16:16:22Z</time></trkpt><trkpt lat="42.535807562153266" lon="-3.694853915534887"><ele>923.0</ele><time>2026-05-02T16:16:23Z</time></trkpt><trkpt lat="42.53568861837538" lon="-3.6948188253332073"><ele>923.0</ele><time>2026-05-02T16:16:24Z</time></trkpt><trkpt lat="42.53557933367319" lon="-3.6947866634318762"><ele>923.0</ele><time>2026-05-02T16:16:25Z</time></trkpt><trkpt lat="42.535464354739865" lon="-3.6947693428500834"><ele>923.0</ele><time>2026-05-02T16:16:26Z</time></trkpt><trkpt lat="42.53534589635996" lon="-3.694769492926703"><ele>923.0</ele><time>2026-05-02T16:16:27Z</time></trkpt><trkpt lat="42.53524174441361" lon="-3.6946882983782317"><ele>922.75</ele><time>2026-05-02T16:16:28Z</time></trkpt><trkpt lat="42.53512914588979" lon="-3.6946561273777694"><ele>922.5</ele><time>2026-05-02T16:16:29Z</time></trkpt><trkpt lat="42.535020650027434" lon="-3.694624993066893"><ele>922.25</ele><time>2026-05-02T16:16:30Z</time></trkpt><trkpt lat="42.53490985826676" lon="-3.69459244254663"><ele>922.0</ele><time>2026-05-02T16:16:31Z</time></trkpt><trkpt lat="42.5347986823186" lon="-3.694559779159193"><ele>922.0</ele><time>2026-05-02T16:16:32Z</time></trkpt><trkpt lat="42.53468784887221" lon="-3.69452721473203"><ele>922.0</ele><time>2026-05-02T16:16:33Z</time></trkpt><trkpt lat="42.53457583157216" lon="-3.6944943041584786"><ele>922.0</ele><time>2026-05-02T16:16:34Z</time></trkpt><trkpt lat="42.5344624923706" lon="-3.694461005211222"><ele>922.0</ele><time>2026-05-02T16:16:35Z</time></trkpt><trkpt lat="42.53435356911152" lon="-3.6944290036570733"><ele>921.2</ele><time>2026-05-02T16:16:36Z</time></trkpt><trkpt lat="42.53424516863461" lon="-3.6943971556947526"><ele>920.4000000000001</ele><time>2026-05-02T16:16:37Z</time></trkpt><trkpt lat="42.534136344395804" lon="-3.694353847000974"><ele>919.5999999999999</ele><time>2026-05-02T16:16:38Z</time></trkpt><trkpt lat="42.534028713752086" lon="-3.6943335614506507"><ele>918.8</ele><time>2026-05-02T16:16:39Z</time></trkpt><trkpt lat="42.53394035070675" lon="-3.694307600478475"><ele>918.0</ele><time>2026-05-02T16:16:40Z</time></trkpt><trkpt lat="42.53386545961228" lon="-3.6942855975566062"><ele>918.25</ele><time>2026-05-02T16:16:41Z</time></trkpt><trkpt lat="42.533701765436085" lon="-3.694237616001316"><ele>918.5</ele><time>2026-05-02T16:16:42Z</time></trkpt><trkpt lat="42.53358668417381" lon="-3.694204013824826"><ele>918.75</ele><time>2026-05-02T16:16:43Z</time></trkpt><trkpt lat="42.53346789582185" lon="-3.694150482421202"><ele>919.0</ele><time>2026-05-02T16:16:44Z</time></trkpt><trkpt lat="42.53328806018083" lon="-3.6941693903978776"><ele>919.0</ele><time>2026-05-02T16:16:45Z</time></trkpt><trkpt lat="42.53310131546715" lon="-3.69415443038844"><ele>919.0</ele><time>2026-05-02T16:16:46Z</time></trkpt><trkpt lat="42.53314316177696" lon="-3.6940639290024375"><ele>919.0</ele><time>2026-05-02T16:16:47Z</time></trkpt><trkpt lat="42.53303777988988" lon="-3.694031539078788"><ele>919.0</ele><time>2026-05-02T16:16:48Z</time></trkpt><trkpt lat="42.53293198438127" lon="-3.694004552096666"><ele>919.0</ele><time>2026-05-02T16:16:49Z</time></trkpt><trkpt lat="42.53282395499247" lon="-3.6939756234014713"><ele>919.0000000000001</ele><time>2026-05-02T16:16:50Z</time></trkpt><trkpt lat="42.532718545577424" lon="-3.693943248611432"><ele>919.0000000000001</ele><time>2026-05-02T16:16:51Z</time></trkpt><trkpt lat="42.53261219224682" lon="-3.693910197931648"><ele>919.0</ele><time>2026-05-02T16:16:52Z</time></trkpt><trkpt lat="42.53250747130208" lon="-3.693882089805166"><ele>919.0</ele><time>2026-05-02T16:16:53Z</time></trkpt><trkpt lat="42.53240068012997" lon="-3.693849049831317"><ele>919.0</ele><time>2026-05-02T16:16:54Z</time></trkpt><trkpt lat="42.53229096193823" lon="-3.6938133159553974"><ele>919.0000000000001</ele><time>2026-05-02T16:16:55Z</time></trkpt><trkpt lat="42.53218669120705" lon="-3.693782469087025"><ele>919.0000000000001</ele><time>2026-05-02T16:16:56Z</time></trkpt><trkpt lat="42.532083614594875" lon="-3.6937522341388394"><ele>919.0</ele><time>2026-05-02T16:16:57Z</time></trkpt><trkpt lat="42.53197556652309" lon="-3.693723712182294"><ele>919.0</ele><time>2026-05-02T16:16:58Z</time></trkpt><trkpt lat="42.53187023298112" lon="-3.6936926795662406"><ele>919.0</ele><time>2026-05-02T16:16:59Z</time></trkpt><trkpt lat="42.53176432143444" lon="-3.6936571464810277"><ele>919.0000000000001</ele><time>2026-05-02T16:17:00Z</time></trkpt><trkpt lat="42.53165724515801" lon="-3.6936235839623546"><ele>919.0000000000001</ele><time>2026-05-02T16:17:01Z</time></trkpt><trkpt lat="42.53155079503697" lon="-3.693595129690426"><ele>919.0</ele><time>2026-05-02T16:17:02Z</time></trkpt><trkpt lat="42.53144414270537" lon="-3.6935656067833254"><ele>919.0</ele><time>2026-05-02T16:17:03Z</time></trkpt><trkpt lat="42.53134060244047" lon="-3.693538853235951"><ele>919.0</ele><time>2026-05-02T16:17:04Z</time></trkpt><trkpt lat="42.531231635218965" lon="-3.693506171147767"><ele>919.0000000000001</ele><time>2026-05-02T16:17:05Z</time></trkpt><trkpt lat="42.53112458988561" lon="-3.6934688579223005"><ele>919.0000000000001</ele><time>2026-05-02T16:17:06Z</time></trkpt><trkpt lat="42.5310167003585" lon="-3.6934377143898476"><ele>919.0</ele><time>2026-05-02T16:17:07Z</time></trkpt><trkpt lat="42.5309115102956" lon="-3.6934092647483814"><ele>919.0</ele><time>2026-05-02T16:17:08Z</time></trkpt><trkpt lat="42.53080369278702" lon="-3.693378603361242"><ele>918.6</ele><time>2026-05-02T16:17:09Z</time></trkpt><trkpt lat="42.53069760713371" lon="-3.693344476388988"><ele>918.2</ele><time>2026-05-02T16:17:10Z</time></trkpt><trkpt lat="42.53059335066502" lon="-3.69331555952676"><ele>917.8000000000001</ele><time>2026-05-02T16:17:11Z</time></trkpt><trkpt lat="42.530488620605446" lon="-3.693285481375985"><ele>917.4000000000001</ele><time>2026-05-02T16:17:12Z</time></trkpt><trkpt lat="42.53038275012599" lon="-3.6932549866040687"><ele>917.0</ele><time>2026-05-02T16:17:13Z</time></trkpt><trkpt lat="42.53027747121847" lon="-3.6932244880643"><ele>916.6</ele><time>2026-05-02T16:17:14Z</time></trkpt><trkpt lat="42.5301711778927" lon="-3.6931937223939024"><ele>916.2</ele><time>2026-05-02T16:17:15Z</time></trkpt><trkpt lat="42.530063940161334" lon="-3.69316135883988"><ele>915.8</ele><time>2026-05-02T16:17:16Z</time></trkpt><trkpt lat="42.52995533276387" lon="-3.6931257219848965"><ele>915.4</ele><time>2026-05-02T16:17:17Z</time></trkpt><trkpt lat="42.529850224399034" lon="-3.6930955022222927"><ele>915.0</ele><time>2026-05-02T16:17:18Z</time></trkpt><trkpt lat="42.52974551341949" lon="-3.6930690489142814"><ele>915.0</ele><time>2026-05-02T16:17:19Z</time></trkpt><trkpt lat="42.529639262173944" lon="-3.6930438738142244"><ele>915.0</ele><time>2026-05-02T16:17:20Z</time></trkpt><trkpt lat="42.52953324319933" lon="-3.693013912852091"><ele>915.0</ele><time>2026-05-02T16:17:21Z</time></trkpt><trkpt lat="42.5294286231427" lon="-3.6929759503323205"><ele>915.0</ele><time>2026-05-02T16:17:22Z</time></trkpt><trkpt lat="42.52932426356967" lon="-3.6929428244660047"><ele>915.0</ele><time>2026-05-02T16:17:23Z</time></trkpt><trkpt lat="42.52921728328015" lon="-3.6929143665911783"><ele>914.8</ele><time>2026-05-02T16:17:24Z</time></trkpt><trkpt lat="42.52911376268502" lon="-3.692884170709442"><ele>914.6</ele><time>2026-05-02T16:17:25Z</time></trkpt><trkpt lat="42.529009379271805" lon="-3.692851372256525"><ele>914.4000000000001</ele><time>2026-05-02T16:17:26Z</time></trkpt><trkpt lat="42.528903675983514" lon="-3.6928183116811537"><ele>914.2</ele><time>2026-05-02T16:17:27Z</time></trkpt><trkpt lat="42.528800428540876" lon="-3.692792610763884"><ele>914.0</ele><time>2026-05-02T16:17:28Z</time></trkpt><trkpt lat="42.52869447007086" lon="-3.69276482266303"><ele>914.4000000000001</ele><time>2026-05-02T16:17:29Z</time></trkpt><trkpt lat="42.528590825004144" lon="-3.692732912711453"><ele>914.8000000000001</ele><time>2026-05-02T16:17:30Z</time></trkpt><trkpt lat="42.528487495497956" lon="-3.6927009465261076"><ele>915.1999999999999</ele><time>2026-05-02T16:17:31Z</time></trkpt><trkpt lat="42.52838531229814" lon="-3.6926699295704446"><ele>915.5999999999999</ele><time>2026-05-02T16:17:32Z</time></trkpt><trkpt lat="42.52828231555634" lon="-3.69264280413731"><ele>916.0</ele><time>2026-05-02T16:17:33Z</time></trkpt><trkpt lat="42.52817850089429" lon="-3.6926105513323852"><ele>916.0</ele><time>2026-05-02T16:17:34Z</time></trkpt><trkpt lat="42.52807891844361" lon="-3.692582364727298"><ele>915.9999999999999</ele><time>2026-05-02T16:17:35Z</time></trkpt><trkpt lat="42.527976633873735" lon="-3.6925519691970052"><ele>915.9999999999999</ele><time>2026-05-02T16:17:36Z</time></trkpt><trkpt lat="42.52787484839241" lon="-3.6925224072445153"><ele>916.0</ele><time>2026-05-02T16:17:37Z</time></trkpt><trkpt lat="42.52777145539023" lon="-3.6924905264306145"><ele>916.0</ele><time>2026-05-02T16:17:38Z</time></trkpt><trkpt lat="42.52766946759673" lon="-3.6924626558534297"><ele>916.1999999999999</ele><time>2026-05-02T16:17:39Z</time></trkpt><trkpt lat="42.52756745756722" lon="-3.6924351838468086"><ele>916.3999999999999</ele><time>2026-05-02T16:17:40Z</time></trkpt><trkpt lat="42.52746454706507" lon="-3.6924028008979843"><ele>916.6</ele><time>2026-05-02T16:17:41Z</time></trkpt><trkpt lat="42.52735946004507" lon="-3.692375435488528"><ele>916.8</ele><time>2026-05-02T16:17:42Z</time></trkpt><trkpt lat="42.52725770029159" lon="-3.6923474155083738"><ele>917.0</ele><time>2026-05-02T16:17:43Z</time></trkpt><trkpt lat="42.527154160602066" lon="-3.692314794288474"><ele>917.2</ele><time>2026-05-02T16:17:44Z</time></trkpt><trkpt lat="42.527055133704415" lon="-3.692288194682462"><ele>917.4000000000001</ele><time>2026-05-02T16:17:45Z</time></trkpt><trkpt lat="42.52695232509725" lon="-3.69225724698691"><ele>917.5999999999999</ele><time>2026-05-02T16:17:46Z</time></trkpt><trkpt lat="42.52684969885711" lon="-3.692227655241938"><ele>917.8</ele><time>2026-05-02T16:17:47Z</time></trkpt><trkpt lat="42.52674668044625" lon="-3.6921988442620046"><ele>918.0</ele><time>2026-05-02T16:17:48Z</time></trkpt><trkpt lat="42.52664784932434" lon="-3.692172002142646"><ele>918.0</ele><time>2026-05-02T16:17:49Z</time></trkpt><trkpt lat="42.526545497873" lon="-3.6921398024327763"><ele>918.0</ele><time>2026-05-02T16:17:50Z</time></trkpt><trkpt lat="42.526442721234936" lon="-3.6921083133330757"><ele>918.0</ele><time>2026-05-02T16:17:51Z</time></trkpt><trkpt lat="42.52633761164017" lon="-3.6920755630251607"><ele>918.0</ele><time>2026-05-02T16:17:52Z</time></trkpt><trkpt lat="42.52623516996351" lon="-3.6920460170251883"><ele>918.0</ele><time>2026-05-02T16:17:53Z</time></trkpt><trkpt lat="42.5261307427177" lon="-3.692012199147245"><ele>917.5999999999999</ele><time>2026-05-02T16:17:54Z</time></trkpt><trkpt lat="42.52602839422834" lon="-3.691984418370635"><ele>917.1999999999999</ele><time>2026-05-02T16:17:55Z</time></trkpt><trkpt lat="42.525922248607266" lon="-3.6919493252894524"><ele>916.8</ele><time>2026-05-02T16:17:56Z</time></trkpt><trkpt lat="42.52581803877117" lon="-3.6919151390486022"><ele>916.4</ele><time>2026-05-02T16:17:57Z</time></trkpt><trkpt lat="42.52571466912422" lon="-3.6918831898304765"><ele>916.0</ele><time>2026-05-02T16:17:58Z</time></trkpt><trkpt lat="42.52561123229317" lon="-3.691850151494394"><ele>915.5999999999999</ele><time>2026-05-02T16:17:59Z</time></trkpt><trkpt lat="42.525504706084845" lon="-3.6918156769682318"><ele>915.1999999999999</ele><time>2026-05-02T16:18:00Z</time></trkpt><trkpt lat="42.525401401051916" lon="-3.691782865695036"><ele>914.8000000000001</ele><time>2026-05-02T16:18:01Z</time></trkpt><trkpt lat="42.52529351271269" lon="-3.6917521143542453"><ele>914.4000000000001</ele><time>2026-05-02T16:18:02Z</time></trkpt><trkpt lat="42.525189146731094" lon="-3.691719846528867"><ele>914.0</ele><time>2026-05-02T16:18:03Z</time></trkpt><trkpt lat="42.525086164986696" lon="-3.691691022059051"><ele>913.6</ele><time>2026-05-02T16:18:04Z</time></trkpt><trkpt lat="42.52498107971356" lon="-3.691656183932139"><ele>913.2</ele><time>2026-05-02T16:18:05Z</time></trkpt><trkpt lat="42.524876324489085" lon="-3.6916237057750836"><ele>912.8000000000001</ele><time>2026-05-02T16:18:06Z</time></trkpt><trkpt lat="42.52477222619849" lon="-3.691590155475588"><ele>912.4000000000001</ele><time>2026-05-02T16:18:07Z</time></trkpt><trkpt lat="42.524668590406336" lon="-3.6915579425410785"><ele>912.0</ele><time>2026-05-02T16:18:08Z</time></trkpt><trkpt lat="42.52456660879502" lon="-3.6915244728570107"><ele>911.4000000000001</ele><time>2026-05-02T16:18:09Z</time></trkpt><trkpt lat="42.52446025499214" lon="-3.691492843624795"><ele>910.8000000000001</ele><time>2026-05-02T16:18:10Z</time></trkpt><trkpt lat="42.52435570217333" lon="-3.6914621964026217"><ele>910.2</ele><time>2026-05-02T16:18:11Z</time></trkpt><trkpt lat="42.52425193809231" lon="-3.6914277421426243"><ele>909.6</ele><time>2026-05-02T16:18:12Z</time></trkpt><trkpt lat="42.52414790665217" lon="-3.691395337662285"><ele>909.0</ele><time>2026-05-02T16:18:13Z</time></trkpt><trkpt lat="42.52404169837099" lon="-3.6913640810009642"><ele>909.0</ele><time>2026-05-02T16:18:14Z</time></trkpt><trkpt lat="42.52393548115123" lon="-3.691331285182497"><ele>909.0000000000001</ele><time>2026-05-02T16:18:15Z</time></trkpt><trkpt lat="42.52383003387517" lon="-3.6912915613061066"><ele>909.0000000000001</ele><time>2026-05-02T16:18:16Z</time></trkpt><trkpt lat="42.52372791371591" lon="-3.6912575147151077"><ele>909.0</ele><time>2026-05-02T16:18:17Z</time></trkpt><trkpt lat="42.523622327723274" lon="-3.6912273490440106"><ele>909.0</ele><time>2026-05-02T16:18:18Z</time></trkpt><trkpt lat="42.52352184591746" lon="-3.691196899536899"><ele>908.8000000000001</ele><time>2026-05-02T16:18:19Z</time></trkpt><trkpt lat="42.523417142160525" lon="-3.6911612126447317"><ele>908.6000000000001</ele><time>2026-05-02T16:18:20Z</time></trkpt><trkpt lat="42.52331054445747" lon="-3.6911298041676184"><ele>908.4</ele><time>2026-05-02T16:18:21Z</time></trkpt><trkpt lat="42.52320829413484" lon="-3.6911002718549395"><ele>908.2</ele><time>2026-05-02T16:18:22Z</time></trkpt><trkpt lat="42.52310198327147" lon="-3.6910634755337037"><ele>908.0</ele><time>2026-05-02T16:18:23Z</time></trkpt><trkpt lat="42.522997841408184" lon="-3.6910352739614063"><ele>907.5999999999999</ele><time>2026-05-02T16:18:24Z</time></trkpt><trkpt lat="42.5228909351101" lon="-3.691001890404376"><ele>907.1999999999999</ele><time>2026-05-02T16:18:25Z</time></trkpt><trkpt lat="42.52278455267885" lon="-3.6909663656002847"><ele>906.8</ele><time>2026-05-02T16:18:26Z</time></trkpt><trkpt lat="42.522678244251274" lon="-3.690935098120727"><ele>906.4</ele><time>2026-05-02T16:18:27Z</time></trkpt><trkpt lat="42.52257265062628" lon="-3.690900709963022"><ele>906.0</ele><time>2026-05-02T16:18:28Z</time></trkpt><trkpt lat="42.52246606955708" lon="-3.6908669811892945"><ele>906.0</ele><time>2026-05-02T16:18:29Z</time></trkpt><trkpt lat="42.522357513449904" lon="-3.6908312904547227"><ele>905.9999999999999</ele><time>2026-05-02T16:18:30Z</time></trkpt><trkpt lat="42.522249402859025" lon="-3.69079378521866"><ele>905.9999999999999</ele><time>2026-05-02T16:18:31Z</time></trkpt><trkpt lat="42.52214471921481" lon="-3.6907623767045075"><ele>906.0</ele><time>2026-05-02T16:18:32Z</time></trkpt><trkpt lat="42.522038358569745" lon="-3.6907328373858648"><ele>906.0</ele><time>2026-05-02T16:18:33Z</time></trkpt><trkpt lat="42.52193380987189" lon="-3.6906972583414297"><ele>906.1999999999999</ele><time>2026-05-02T16:18:34Z</time></trkpt><trkpt lat="42.52182880837493" lon="-3.690664394419126"><ele>906.3999999999999</ele><time>2026-05-02T16:18:35Z</time></trkpt><trkpt lat="42.52172508145941" lon="-3.6906313756839895"><ele>906.6</ele><time>2026-05-02T16:18:36Z</time></trkpt><trkpt lat="42.521621208940736" lon="-3.690594727377891"><ele>906.8</ele><time>2026-05-02T16:18:37Z</time></trkpt><trkpt lat="42.52151739263556" lon="-3.690559366565014"><ele>907.0</ele><time>2026-05-02T16:18:38Z</time></trkpt><trkpt lat="42.52141465224641" lon="-3.6905247269597097"><ele>907.0</ele><time>2026-05-02T16:18:39Z</time></trkpt><trkpt lat="42.521308193182996" lon="-3.6904883289412416"><ele>907.0</ele><time>2026-05-02T16:18:40Z</time></trkpt><trkpt lat="42.52120453218931" lon="-3.6904584614490648"><ele>907.0</ele><time>2026-05-02T16:18:41Z</time></trkpt><trkpt lat="42.521098737477395" lon="-3.6904267786701554"><ele>907.0</ele><time>2026-05-02T16:18:42Z</time></trkpt><trkpt lat="42.52099388668331" lon="-3.6903977864325577"><ele>907.0</ele><time>2026-05-02T16:18:43Z</time></trkpt><trkpt lat="42.52088628315062" lon="-3.690362873152997"><ele>906.8</ele><time>2026-05-02T16:18:44Z</time></trkpt><trkpt lat="42.520779829356215" lon="-3.6903265724222813"><ele>906.6</ele><time>2026-05-02T16:18:45Z</time></trkpt><trkpt lat="42.52067166235653" lon="-3.6902910553603374"><ele>906.3999999999999</ele><time>2026-05-02T16:18:46Z</time></trkpt><trkpt lat="42.52056489464678" lon="-3.690262051377972"><ele>906.1999999999999</ele><time>2026-05-02T16:18:47Z</time></trkpt><trkpt lat="42.520457095139186" lon="-3.690233650973343"><ele>906.0</ele><time>2026-05-02T16:18:48Z</time></trkpt><trkpt lat="42.520349679161036" lon="-3.6902037007233592"><ele>904.4</ele><time>2026-05-02T16:18:49Z</time></trkpt><trkpt lat="42.520243030077765" lon="-3.6901718490124567"><ele>902.8</ele><time>2026-05-02T16:18:50Z</time></trkpt><trkpt lat="42.520133323157395" lon="-3.6901414397993286"><ele>901.1999999999999</ele><time>2026-05-02T16:18:51Z</time></trkpt><trkpt lat="42.5200249007267" lon="-3.6901198866149736"><ele>899.5999999999999</ele><time>2026-05-02T16:18:52Z</time></trkpt><trkpt lat="42.519917932103674" lon="-3.6901048079586074"><ele>898.0</ele><time>2026-05-02T16:18:53Z</time></trkpt><trkpt lat="42.51980759717653" lon="-3.6900998775382186"><ele>898.0</ele><time>2026-05-02T16:18:54Z</time></trkpt><trkpt lat="42.51969768705002" lon="-3.6900960358315413"><ele>898.0</ele><time>2026-05-02T16:18:55Z</time></trkpt><trkpt lat="42.51958823181281" lon="-3.6901074432180048"><ele>898.0</ele><time>2026-05-02T16:18:56Z</time></trkpt><trkpt lat="42.51948023260827" lon="-3.69012255025181"><ele>898.0</ele><time>2026-05-02T16:18:57Z</time></trkpt><trkpt lat="42.51937068805366" lon="-3.690144970615932"><ele>898.0</ele><time>2026-05-02T16:18:58Z</time></trkpt><trkpt lat="42.519260669297154" lon="-3.6901777613479925"><ele>897.8</ele><time>2026-05-02T16:18:59Z</time></trkpt><trkpt lat="42.51915750613291" lon="-3.6902174122631206"><ele>897.5999999999999</ele><time>2026-05-02T16:19:00Z</time></trkpt><trkpt lat="42.519053394664475" lon="-3.690259433603457"><ele>897.4000000000001</ele><time>2026-05-02T16:19:01Z</time></trkpt><trkpt lat="42.51895017810736" lon="-3.6903130211388584"><ele>897.2</ele><time>2026-05-02T16:19:02Z</time></trkpt><trkpt lat="42.51884839761915" lon="-3.6903694100608333"><ele>897.0</ele><time>2026-05-02T16:19:03Z</time></trkpt><trkpt lat="42.51874913157905" lon="-3.6904350473176253"><ele>897.0</ele><time>2026-05-02T16:19:04Z</time></trkpt><trkpt lat="42.5186507394773" lon="-3.6905044407797902"><ele>897.0</ele><time>2026-05-02T16:19:05Z</time></trkpt><trkpt lat="42.51855683839491" lon="-3.6905809121749327"><ele>897.0</ele><time>2026-05-02T16:19:06Z</time></trkpt><trkpt lat="42.51846543145722" lon="-3.690661383648621"><ele>897.0</ele><time>2026-05-02T16:19:07Z</time></trkpt><trkpt lat="42.518377844880504" lon="-3.6907474518846852"><ele>897.0</ele><time>2026-05-02T16:19:08Z</time></trkpt><trkpt lat="42.51829223288268" lon="-3.6908413032520815"><ele>897.0</ele><time>2026-05-02T16:19:09Z</time></trkpt><trkpt lat="42.518214308561184" lon="-3.6909421886350926"><ele>897.0</ele><time>2026-05-02T16:19:10Z</time></trkpt><trkpt lat="42.51813351780438" lon="-3.6910445610163105"><ele>897.0</ele><time>2026-05-02T16:19:11Z</time></trkpt><trkpt lat="42.51805949318378" lon="-3.691152042280143"><ele>897.0</ele><time>2026-05-02T16:19:12Z</time></trkpt><trkpt lat="42.51798679045463" lon="-3.691261559550399"><ele>897.0</ele><time>2026-05-02T16:19:13Z</time></trkpt><trkpt lat="42.51791898093418" lon="-3.691376823606565"><ele>897.0</ele><time>2026-05-02T16:19:14Z</time></trkpt><trkpt lat="42.51784764243" lon="-3.6914890523587705"><ele>897.0</ele><time>2026-05-02T16:19:15Z</time></trkpt><trkpt lat="42.51777410301997" lon="-3.691601247992208"><ele>897.0</ele><time>2026-05-02T16:19:16Z</time></trkpt><trkpt lat="42.5177064334574" lon="-3.6917129351501514"><ele>897.0</ele><time>2026-05-02T16:19:17Z</time></trkpt><trkpt lat="42.51763768575486" lon="-3.6918223308153784"><ele>897.0</ele><time>2026-05-02T16:19:18Z</time></trkpt><trkpt lat="42.51756864034224" lon="-3.6919317727103853"><ele>897.0</ele><time>2026-05-02T16:19:19Z</time></trkpt><trkpt lat="42.517501326658" lon="-3.6920419501785697"><ele>897.0</ele><time>2026-05-02T16:19:20Z</time></trkpt><trkpt lat="42.517430579608906" lon="-3.692150618365793"><ele>897.0</ele><time>2026-05-02T16:19:21Z</time></trkpt><trkpt lat="42.517363857289794" lon="-3.6922607160076004"><ele>897.0</ele><time>2026-05-02T16:19:22Z</time></trkpt><trkpt lat="42.51729548806523" lon="-3.6923694929685387"><ele>897.0</ele><time>2026-05-02T16:19:23Z</time></trkpt><trkpt lat="42.517226034237495" lon="-3.692475898206674"><ele>897.0</ele><time>2026-05-02T16:19:24Z</time></trkpt><trkpt lat="42.517156213820904" lon="-3.692584160566607"><ele>897.0</ele><time>2026-05-02T16:19:25Z</time></trkpt><trkpt lat="42.5170863126652" lon="-3.692693110849918"><ele>897.0</ele><time>2026-05-02T16:19:26Z</time></trkpt><trkpt lat="42.517015993618486" lon="-3.6927987650724345"><ele>897.0</ele><time>2026-05-02T16:19:27Z</time></trkpt><trkpt lat="42.51694489695523" lon="-3.6929025685216925"><ele>897.0</ele><time>2026-05-02T16:19:28Z</time></trkpt><trkpt lat="42.51686713325442" lon="-3.693001696429082"><ele>896.4000000000001</ele><time>2026-05-02T16:19:29Z</time></trkpt><trkpt lat="42.5167852104852" lon="-3.6930994286332854"><ele>895.8000000000001</ele><time>2026-05-02T16:19:30Z</time></trkpt><trkpt lat="42.516699879039976" lon="-3.693185860551692"><ele>895.2</ele><time>2026-05-02T16:19:31Z</time></trkpt><trkpt lat="42.51661329332064" lon="-3.6932719932428264"><ele>894.6</ele><time>2026-05-02T16:19:32Z</time></trkpt><trkpt lat="42.51652165291701" lon="-3.6933521419797835"><ele>894.0</ele><time>2026-05-02T16:19:33Z</time></trkpt><trkpt lat="42.51642969231149" lon="-3.6934206254654085"><ele>894.0</ele><time>2026-05-02T16:19:34Z</time></trkpt><trkpt lat="42.5163335054221" lon="-3.6934830678490154"><ele>894.0000000000001</ele><time>2026-05-02T16:19:35Z</time></trkpt><trkpt lat="42.51623308396231" lon="-3.6935409703945874"><ele>894.0000000000001</ele><time>2026-05-02T16:19:36Z</time></trkpt><trkpt lat="42.516133715134245" lon="-3.6935967045386136"><ele>894.0</ele><time>2026-05-02T16:19:37Z</time></trkpt><trkpt lat="42.51603280078284" lon="-3.6936509265293838"><ele>894.0</ele><time>2026-05-02T16:19:38Z</time></trkpt><trkpt lat="42.5159310833564" lon="-3.693704449881025"><ele>895.6</ele><time>2026-05-02T16:19:39Z</time></trkpt><trkpt lat="42.51583337865558" lon="-3.693759387919727"><ele>897.2</ele><time>2026-05-02T16:19:40Z</time></trkpt><trkpt lat="42.51573140331766" lon="-3.6938078955974247"><ele>898.8000000000001</ele><time>2026-05-02T16:19:41Z</time></trkpt><trkpt lat="42.51563428366507" lon="-3.6938584115243662"><ele>900.4000000000001</ele><time>2026-05-02T16:19:42Z</time></trkpt><trkpt lat="42.51553727886336" lon="-3.6939062761697135"><ele>902.0</ele><time>2026-05-02T16:19:43Z</time></trkpt><trkpt lat="42.51543979851744" lon="-3.6939548594740357"><ele>901.2</ele><time>2026-05-02T16:19:44Z</time></trkpt><trkpt lat="42.51534020956973" lon="-3.6940033519462974"><ele>900.4000000000001</ele><time>2026-05-02T16:19:45Z</time></trkpt><trkpt lat="42.51524302659678" lon="-3.6940508297891412"><ele>899.5999999999999</ele><time>2026-05-02T16:19:46Z</time></trkpt><trkpt lat="42.51514276724773" lon="-3.694103605407639"><ele>898.8</ele><time>2026-05-02T16:19:47Z</time></trkpt><trkpt lat="42.515040464066665" lon="-3.6941515522827473"><ele>898.0</ele><time>2026-05-02T16:19:48Z</time></trkpt><trkpt lat="42.514944632963186" lon="-3.694210533671574"><ele>898.0</ele><time>2026-05-02T16:19:49Z</time></trkpt><trkpt lat="42.51484330366822" lon="-3.6942573474661002"><ele>898.0</ele><time>2026-05-02T16:19:50Z</time></trkpt><trkpt lat="42.5147432632194" lon="-3.694310774508251"><ele>898.0</ele><time>2026-05-02T16:19:51Z</time></trkpt><trkpt lat="42.51464404101208" lon="-3.69436477551872"><ele>898.0</ele><time>2026-05-02T16:19:52Z</time></trkpt><trkpt lat="42.51454518488828" lon="-3.6944171652198614"><ele>898.0</ele><time>2026-05-02T16:19:53Z</time></trkpt><trkpt lat="42.51444467517264" lon="-3.694467143540692"><ele>897.0</ele><time>2026-05-02T16:19:54Z</time></trkpt><trkpt lat="42.51434658786989" lon="-3.6945227548381205"><ele>896.0</ele><time>2026-05-02T16:19:55Z</time></trkpt><trkpt lat="42.514246096451295" lon="-3.6945692372904086"><ele>895.0</ele><time>2026-05-02T16:19:56Z</time></trkpt><trkpt lat="42.51414508967772" lon="-3.694618166820669"><ele>894.0</ele><time>2026-05-02T16:19:57Z</time></trkpt><trkpt lat="42.51404598887711" lon="-3.694670495672973"><ele>893.0</ele><time>2026-05-02T16:19:58Z</time></trkpt><trkpt lat="42.513845903295305" lon="-3.6947732282151846"><ele>893.0</ele><time>2026-05-02T16:19:59.999Z</time></trkpt><trkpt lat="42.51374681703605" lon="-3.6948226968123965"><ele>893.0</ele><time>2026-05-02T16:20:00.999Z</time></trkpt><trkpt lat="42.51364571676616" lon="-3.6948754627402067"><ele>893.0</ele><time>2026-05-02T16:20:01.999Z</time></trkpt><trkpt lat="42.51354336977463" lon="-3.6949262597733914"><ele>893.0</ele><time>2026-05-02T16:20:02.999Z</time></trkpt><trkpt lat="42.51344151507667" lon="-3.6949764849139477"><ele>893.0</ele><time>2026-05-02T16:20:04Z</time></trkpt><trkpt lat="42.51334093269592" lon="-3.6950277167180636"><ele>892.5999999999999</ele><time>2026-05-02T16:20:05Z</time></trkpt><trkpt lat="42.51324004033156" lon="-3.6950788231677647"><ele>892.1999999999999</ele><time>2026-05-02T16:20:06Z</time></trkpt><trkpt lat="42.51313799424808" lon="-3.695129134994312"><ele>891.8</ele><time>2026-05-02T16:20:07Z</time></trkpt><trkpt lat="42.51303615843853" lon="-3.695181285872797"><ele>891.4</ele><time>2026-05-02T16:20:08Z</time></trkpt><trkpt lat="42.51293405899667" lon="-3.6952334958725364"><ele>891.0</ele><time>2026-05-02T16:20:09Z</time></trkpt><trkpt lat="42.512833340472596" lon="-3.695282612599316"><ele>892.5999999999999</ele><time>2026-05-02T16:20:10Z</time></trkpt><trkpt lat="42.512732153989596" lon="-3.695332837709214"><ele>894.1999999999999</ele><time>2026-05-02T16:20:11Z</time></trkpt><trkpt lat="42.51263403788169" lon="-3.695388243522145"><ele>895.8000000000001</ele><time>2026-05-02T16:20:12Z</time></trkpt><trkpt lat="42.512532770663036" lon="-3.6954355704649755"><ele>897.4000000000001</ele><time>2026-05-02T16:20:13Z</time></trkpt><trkpt lat="42.51243370037746" lon="-3.6954829156486975"><ele>899.0</ele><time>2026-05-02T16:20:14Z</time></trkpt><trkpt lat="42.5123316725843" lon="-3.6955350418760555"><ele>899.0</ele><time>2026-05-02T16:20:15Z</time></trkpt><trkpt lat="42.512230780777685" lon="-3.695581291601006"><ele>899.0000000000001</ele><time>2026-05-02T16:20:16Z</time></trkpt><trkpt lat="42.5121324880736" lon="-3.695629831822726"><ele>899.0000000000001</ele><time>2026-05-02T16:20:17Z</time></trkpt><trkpt lat="42.51203655866976" lon="-3.695675234633027"><ele>899.0</ele><time>2026-05-02T16:20:18Z</time></trkpt><trkpt lat="42.51194447915461" lon="-3.695714443653733"><ele>899.0</ele><time>2026-05-02T16:20:19Z</time></trkpt><trkpt lat="42.51185069933166" lon="-3.6957590141855072"><ele>903.0</ele><time>2026-05-02T16:20:20Z</time></trkpt><trkpt lat="42.511772021625305" lon="-3.6958150806985084"><ele>907.0000000000001</ele><time>2026-05-02T16:20:21Z</time></trkpt><trkpt lat="42.51167801100902" lon="-3.695862218473864"><ele>911.0000000000001</ele><time>2026-05-02T16:20:22Z</time></trkpt><trkpt lat="42.5115873042245" lon="-3.6959091664734536"><ele>915.0</ele><time>2026-05-02T16:20:23Z</time></trkpt><trkpt lat="42.51149491475926" lon="-3.6959569854044125"><ele>919.0</ele><time>2026-05-02T16:20:24Z</time></trkpt><trkpt lat="42.51140709031376" lon="-3.696002441583722"><ele>919.0</ele><time>2026-05-02T16:20:25Z</time></trkpt><trkpt lat="42.51131781339739" lon="-3.696025200437472"><ele>919.0</ele><time>2026-05-02T16:20:26Z</time></trkpt><trkpt lat="42.51120324426964" lon="-3.6960845635590016"><ele>919.0</ele><time>2026-05-02T16:20:27Z</time></trkpt><trkpt lat="42.51108356036783" lon="-3.6961707892661306"><ele>919.0</ele><time>2026-05-02T16:20:28Z</time></trkpt><trkpt lat="42.510977674027316" lon="-3.6962248632220285"><ele>915.4000000000001</ele><time>2026-05-02T16:20:29Z</time></trkpt><trkpt lat="42.51086482231966" lon="-3.6962586364206356"><ele>911.8000000000001</ele><time>2026-05-02T16:20:30Z</time></trkpt><trkpt lat="42.510773730930815" lon="-3.6963209710101306"><ele>908.1999999999999</ele><time>2026-05-02T16:20:31Z</time></trkpt><trkpt lat="42.51067538942633" lon="-3.696372956264215"><ele>904.5999999999999</ele><time>2026-05-02T16:20:32Z</time></trkpt><trkpt lat="42.51057223834733" lon="-3.6964295981684447"><ele>901.0</ele><time>2026-05-02T16:20:33Z</time></trkpt><trkpt lat="42.51047176030422" lon="-3.696484211707202"><ele>899.4</ele><time>2026-05-02T16:20:34Z</time></trkpt><trkpt lat="42.51037099583204" lon="-3.696533790862257"><ele>897.8</ele><time>2026-05-02T16:20:35Z</time></trkpt><trkpt lat="42.510274028342366" lon="-3.696579812405187"><ele>896.1999999999999</ele><time>2026-05-02T16:20:36Z</time></trkpt><trkpt lat="42.51017449665038" lon="-3.6966279058953777"><ele>894.5999999999999</ele><time>2026-05-02T16:20:37Z</time></trkpt><trkpt lat="42.51007574641819" lon="-3.696680252256134"><ele>893.0</ele><time>2026-05-02T16:20:38Z</time></trkpt><trkpt lat="42.509975263328336" lon="-3.6967324833353694"><ele>893.0</ele><time>2026-05-02T16:20:39Z</time></trkpt><trkpt lat="42.5098760958252" lon="-3.6967832349228646"><ele>893.0</ele><time>2026-05-02T16:20:40Z</time></trkpt><trkpt lat="42.509775926721495" lon="-3.696836277898512"><ele>893.0</ele><time>2026-05-02T16:20:41Z</time></trkpt><trkpt lat="42.50967708106277" lon="-3.696886894153534"><ele>893.0</ele><time>2026-05-02T16:20:42Z</time></trkpt><trkpt lat="42.509577612337665" lon="-3.696936360057895"><ele>893.0</ele><time>2026-05-02T16:20:43Z</time></trkpt><trkpt lat="42.50948245876675" lon="-3.6969842023541286"><ele>895.0</ele><time>2026-05-02T16:20:44Z</time></trkpt><trkpt lat="42.50938443575166" lon="-3.6970354166098724"><ele>897.0</ele><time>2026-05-02T16:20:45Z</time></trkpt><trkpt lat="42.50928687939503" lon="-3.6970857786645484"><ele>899.0</ele><time>2026-05-02T16:20:46Z</time></trkpt><trkpt lat="42.50919020861921" lon="-3.6971412769847483"><ele>901.0</ele><time>2026-05-02T16:20:47Z</time></trkpt><trkpt lat="42.50909633006735" lon="-3.6972014414096708"><ele>903.0</ele><time>2026-05-02T16:20:48Z</time></trkpt><trkpt lat="42.5090034483216" lon="-3.697266325683213"><ele>903.0</ele><time>2026-05-02T16:20:49Z</time></trkpt><trkpt lat="42.50891646462715" lon="-3.6973408953658766"><ele>903.0</ele><time>2026-05-02T16:20:50Z</time></trkpt><trkpt lat="42.508831552370886" lon="-3.6974318190083464"><ele>903.0</ele><time>2026-05-02T16:20:51Z</time></trkpt><trkpt lat="42.508749875696324" lon="-3.6975245872504976"><ele>903.0</ele><time>2026-05-02T16:20:52Z</time></trkpt><trkpt lat="42.508676622594244" lon="-3.697631129052021"><ele>903.0</ele><time>2026-05-02T16:20:53Z</time></trkpt><trkpt lat="42.50860904348274" lon="-3.6977474799516847"><ele>899.8</ele><time>2026-05-02T16:20:54Z</time></trkpt><trkpt lat="42.50854914286373" lon="-3.6978710548710554"><ele>896.5999999999999</ele><time>2026-05-02T16:20:55Z</time></trkpt><trkpt lat="42.50849939178176" lon="-3.69799580247143"><ele>893.4000000000001</ele><time>2026-05-02T16:20:56Z</time></trkpt><trkpt lat="42.508455491825266" lon="-3.698119332083719"><ele>890.2</ele><time>2026-05-02T16:20:57Z</time></trkpt><trkpt lat="42.5084183775854" lon="-3.69825484170149"><ele>887.0</ele><time>2026-05-02T16:20:58Z</time></trkpt><trkpt lat="42.508388433706045" lon="-3.698390912203421"><ele>887.0</ele><time>2026-05-02T16:20:59Z</time></trkpt><trkpt lat="42.50836505337536" lon="-3.698533353871703"><ele>887.0</ele><time>2026-05-02T16:21:00Z</time></trkpt><trkpt lat="42.508350581519046" lon="-3.698674620340367"><ele>887.0</ele><time>2026-05-02T16:21:01Z</time></trkpt><trkpt lat="42.50834552443558" lon="-3.69882105580437"><ele>887.0</ele><time>2026-05-02T16:21:02Z</time></trkpt><trkpt lat="42.50834762617396" lon="-3.698965377224448"><ele>887.0</ele><time>2026-05-02T16:21:03Z</time></trkpt><trkpt lat="42.50835225900678" lon="-3.699109584646151"><ele>887.0</ele><time>2026-05-02T16:21:04Z</time></trkpt><trkpt lat="42.50835949082242" lon="-3.699252069516997"><ele>887.0</ele><time>2026-05-02T16:21:05Z</time></trkpt><trkpt lat="42.50836869202354" lon="-3.6993944954926987"><ele>887.0</ele><time>2026-05-02T16:21:06Z</time></trkpt><trkpt lat="42.50837657564552" lon="-3.6995364129995174"><ele>887.0</ele><time>2026-05-02T16:21:07Z</time></trkpt><trkpt lat="42.50838226199912" lon="-3.6996807193137915"><ele>887.0</ele><time>2026-05-02T16:21:08Z</time></trkpt><trkpt lat="42.50838930532699" lon="-3.699824261173235"><ele>887.4000000000001</ele><time>2026-05-02T16:21:09Z</time></trkpt><trkpt lat="42.508394274172936" lon="-3.6999700055274434"><ele>887.8000000000001</ele><time>2026-05-02T16:21:10Z</time></trkpt><trkpt lat="42.50840006386784" lon="-3.700113856835836"><ele>888.2</ele><time>2026-05-02T16:21:11Z</time></trkpt><trkpt lat="42.508405332407264" lon="-3.700254914985361"><ele>888.6</ele><time>2026-05-02T16:21:12Z</time></trkpt><trkpt lat="42.508409475818745" lon="-3.700396783365949"><ele>889.0</ele><time>2026-05-02T16:21:13Z</time></trkpt><trkpt lat="42.50841403469863" lon="-3.700543828452399"><ele>889.0</ele><time>2026-05-02T16:21:14Z</time></trkpt><trkpt lat="42.50841690524532" lon="-3.7006878114134563"><ele>889.0000000000001</ele><time>2026-05-02T16:21:15Z</time></trkpt><trkpt lat="42.50841376667849" lon="-3.7008315704251835"><ele>889.0000000000001</ele><time>2026-05-02T16:21:16Z</time></trkpt><trkpt lat="42.50839974665583" lon="-3.7009760450630482"><ele>889.0</ele><time>2026-05-02T16:21:17Z</time></trkpt><trkpt lat="42.508379291050964" lon="-3.701115229498357"><ele>889.0</ele><time>2026-05-02T16:21:18Z</time></trkpt><trkpt lat="42.508349103829005" lon="-3.7012528974729237"><ele>890.2</ele><time>2026-05-02T16:21:19Z</time></trkpt><trkpt lat="42.5083115110792" lon="-3.701382231867222"><ele>891.4000000000001</ele><time>2026-05-02T16:21:20Z</time></trkpt><trkpt lat="42.508263940527705" lon="-3.7015051033736874"><ele>892.6</ele><time>2026-05-02T16:21:21Z</time></trkpt><trkpt lat="42.50820810224759" lon="-3.7016232640344047"><ele>893.8</ele><time>2026-05-02T16:21:22Z</time></trkpt><trkpt lat="42.5081420911006" lon="-3.701730218027629"><ele>895.0</ele><time>2026-05-02T16:21:23Z</time></trkpt><trkpt lat="42.50806889466754" lon="-3.7018241270011782"><ele>895.0</ele><time>2026-05-02T16:21:24Z</time></trkpt><trkpt lat="42.50798609154808" lon="-3.7019119879678497"><ele>895.0</ele><time>2026-05-02T16:21:25Z</time></trkpt><trkpt lat="42.50790298733467" lon="-3.701994431533484"><ele>895.0</ele><time>2026-05-02T16:21:26Z</time></trkpt><trkpt lat="42.50781371205037" lon="-3.702063593777158"><ele>895.0</ele><time>2026-05-02T16:21:27Z</time></trkpt><trkpt lat="42.5077160767395" lon="-3.7021207095147455"><ele>895.0</ele><time>2026-05-02T16:21:28Z</time></trkpt><trkpt lat="42.50761586681107" lon="-3.7021714981031617"><ele>896.0</ele><time>2026-05-02T16:21:29Z</time></trkpt><trkpt lat="42.50751566459267" lon="-3.7022162687862257"><ele>897.0</ele><time>2026-05-02T16:21:30Z</time></trkpt><trkpt lat="42.50741296633004" lon="-3.702259844662328"><ele>898.0</ele><time>2026-05-02T16:21:31Z</time></trkpt><trkpt lat="42.507310113179905" lon="-3.702300202572366"><ele>899.0</ele><time>2026-05-02T16:21:32Z</time></trkpt><trkpt lat="42.50720835262157" lon="-3.7023386398839726"><ele>900.0</ele><time>2026-05-02T16:21:33Z</time></trkpt><trkpt lat="42.50710606186599" lon="-3.702376775148554"><ele>897.6</ele><time>2026-05-02T16:21:34Z</time></trkpt><trkpt lat="42.50700188227114" lon="-3.702414008361224"><ele>895.2</ele><time>2026-05-02T16:21:35Z</time></trkpt><trkpt lat="42.50690286650329" lon="-3.702453276930446"><ele>892.8</ele><time>2026-05-02T16:21:36Z</time></trkpt><trkpt lat="42.50679883225382" lon="-3.7024939503899987"><ele>890.4</ele><time>2026-05-02T16:21:37Z</time></trkpt><trkpt lat="42.50669750566041" lon="-3.702535007562309"><ele>888.0</ele><time>2026-05-02T16:21:38Z</time></trkpt><trkpt lat="42.5065989045308" lon="-3.7025759825627578"><ele>888.0</ele><time>2026-05-02T16:21:39Z</time></trkpt><trkpt lat="42.506497859103185" lon="-3.702615428313799"><ele>888.0</ele><time>2026-05-02T16:21:40Z</time></trkpt><trkpt lat="42.5064000263491" lon="-3.7026621655212155"><ele>888.0</ele><time>2026-05-02T16:21:41Z</time></trkpt><trkpt lat="42.50630605716751" lon="-3.7027069487381055"><ele>888.0</ele><time>2026-05-02T16:21:42Z</time></trkpt><trkpt lat="42.506214864250545" lon="-3.702758138793728"><ele>888.0</ele><time>2026-05-02T16:21:43Z</time></trkpt><trkpt lat="42.50611976305949" lon="-3.702815289850581"><ele>888.8</ele><time>2026-05-02T16:21:44Z</time></trkpt><trkpt lat="42.506035866615385" lon="-3.7028875968474106"><ele>889.5999999999999</ele><time>2026-05-02T16:21:45Z</time></trkpt><trkpt lat="42.50596375090964" lon="-3.7029846082629483"><ele>890.4000000000001</ele><time>2026-05-02T16:21:46Z</time></trkpt><trkpt lat="42.50591021378447" lon="-3.7030997140864534"><ele>891.2</ele><time>2026-05-02T16:21:47Z</time></trkpt><trkpt lat="42.505877540217725" lon="-3.7032131667816137"><ele>892.0</ele><time>2026-05-02T16:21:48Z</time></trkpt><trkpt lat="42.505845957861226" lon="-3.7033182645930642"><ele>891.9999999999999</ele><time>2026-05-02T16:21:49Z</time></trkpt><trkpt lat="42.50582104293502" lon="-3.7034212702336946"><ele>892.0</ele><time>2026-05-02T16:21:50Z</time></trkpt><trkpt lat="42.50579630478251" lon="-3.7035172985965423"><ele>892.0</ele><time>2026-05-02T16:21:51Z</time></trkpt><trkpt lat="42.505767994760205" lon="-3.703612100189668"><ele>892.0</ele><time>2026-05-02T16:21:52Z</time></trkpt><trkpt lat="42.50573891999524" lon="-3.703690833856899"><ele>891.9999999999999</ele><time>2026-05-02T16:21:53Z</time></trkpt><trkpt lat="42.50567627134506" lon="-3.7038227722831274"><ele>892.0</ele><time>2026-05-02T16:21:55Z</time></trkpt><trkpt lat="42.50557645325406" lon="-3.7038995368097525"><ele>890.9999999999999</ele><time>2026-05-02T16:21:57Z</time></trkpt><trkpt lat="42.50550728524221" lon="-3.7039085966768615"><ele>890.0</ele><time>2026-05-02T16:21:58Z</time></trkpt><trkpt lat="42.5054296616202" lon="-3.7039111894558925"><ele>889.0</ele><time>2026-05-02T16:21:59Z</time></trkpt><trkpt lat="42.505354368811744" lon="-3.703910566792439"><ele>888.0</ele><time>2026-05-02T16:22:00Z</time></trkpt><trkpt lat="42.505267189356196" lon="-3.703904409443031"><ele>886.9999999999999</ele><time>2026-05-02T16:22:01Z</time></trkpt><trkpt lat="42.50517510607744" lon="-3.703894660688439"><ele>886.0</ele><time>2026-05-02T16:22:02Z</time></trkpt><trkpt lat="42.505078984926634" lon="-3.703883493726896"><ele>886.0</ele><time>2026-05-02T16:22:03Z</time></trkpt><trkpt lat="42.50498258398364" lon="-3.7038654548285406"><ele>885.9999999999999</ele><time>2026-05-02T16:22:04Z</time></trkpt><trkpt lat="42.504885809376944" lon="-3.7038395299018085"><ele>885.9999999999999</ele><time>2026-05-02T16:22:04.999Z</time></trkpt><trkpt lat="42.504784260864845" lon="-3.703809298639604"><ele>886.0</ele><time>2026-05-02T16:22:05.999Z</time></trkpt><trkpt lat="42.50468266685231" lon="-3.7037758476963676"><ele>886.0</ele><time>2026-05-02T16:22:06.999Z</time></trkpt><trkpt lat="42.50458321465157" lon="-3.70373199826075"><ele>886.0</ele><time>2026-05-02T16:22:07.999Z</time></trkpt><trkpt lat="42.504484294603955" lon="-3.7036833858738767"><ele>885.9999999999999</ele><time>2026-05-02T16:22:08.999Z</time></trkpt><trkpt lat="42.50438396030827" lon="-3.7036233903020794"><ele>885.9999999999999</ele><time>2026-05-02T16:22:09.999Z</time></trkpt><trkpt lat="42.50428849191379" lon="-3.703561981292408"><ele>886.0</ele><time>2026-05-02T16:22:10.999Z</time></trkpt><trkpt lat="42.504195400941086" lon="-3.7034975477254695"><ele>886.0</ele><time>2026-05-02T16:22:11.999Z</time></trkpt><trkpt lat="42.504102442365024" lon="-3.7034288937289066"><ele>885.4</ele><time>2026-05-02T16:22:13Z</time></trkpt><trkpt lat="42.50401216148706" lon="-3.7033496340344922"><ele>884.8</ele><time>2026-05-02T16:22:14Z</time></trkpt><trkpt lat="42.5039253441122" lon="-3.7032637064437433"><ele>884.1999999999999</ele><time>2026-05-02T16:22:15Z</time></trkpt><trkpt lat="42.503841997073415" lon="-3.7031759237641113"><ele>883.5999999999999</ele><time>2026-05-02T16:22:16Z</time></trkpt><trkpt lat="42.503758427299616" lon="-3.7030883841843343"><ele>883.0</ele><time>2026-05-02T16:22:17Z</time></trkpt><trkpt lat="42.50367213417699" lon="-3.702999085298193"><ele>883.0</ele><time>2026-05-02T16:22:18Z</time></trkpt><trkpt lat="42.50358619214585" lon="-3.7029085262550674"><ele>883.0</ele><time>2026-05-02T16:22:19Z</time></trkpt><trkpt lat="42.503500998070436" lon="-3.7028171773972494"><ele>883.0</ele><time>2026-05-02T16:22:20Z</time></trkpt><trkpt lat="42.50341452341104" lon="-3.7027280799827436"><ele>883.0</ele><time>2026-05-02T16:22:21Z</time></trkpt><trkpt lat="42.50332744952117" lon="-3.702635869447733"><ele>883.0</ele><time>2026-05-02T16:22:22Z</time></trkpt><trkpt lat="42.50324386602165" lon="-3.702542238457614"><ele>882.8</ele><time>2026-05-02T16:22:23Z</time></trkpt><trkpt lat="42.503160959128465" lon="-3.702448102576741"><ele>882.5999999999999</ele><time>2026-05-02T16:22:24Z</time></trkpt><trkpt lat="42.50307923429418" lon="-3.7023554690691407"><ele>882.4000000000001</ele><time>2026-05-02T16:22:25Z</time></trkpt><trkpt lat="42.50299590302253" lon="-3.7022653069797746"><ele>882.2</ele><time>2026-05-02T16:22:26Z</time></trkpt><trkpt lat="42.502912754959475" lon="-3.702173589517629"><ele>882.0</ele><time>2026-05-02T16:22:27Z</time></trkpt><trkpt lat="42.50282642586039" lon="-3.702085688590314"><ele>882.0</ele><time>2026-05-02T16:22:28Z</time></trkpt><trkpt lat="42.50274395347197" lon="-3.701994496548729"><ele>882.0</ele><time>2026-05-02T16:22:29Z</time></trkpt><trkpt lat="42.50266255431188" lon="-3.7019033631123515"><ele>882.0</ele><time>2026-05-02T16:22:30Z</time></trkpt><trkpt lat="42.50257822167502" lon="-3.7018123501915685"><ele>882.0</ele><time>2026-05-02T16:22:31Z</time></trkpt><trkpt lat="42.50249180669485" lon="-3.7017222823425198"><ele>882.0</ele><time>2026-05-02T16:22:32Z</time></trkpt><trkpt lat="42.50240688953588" lon="-3.7016291031527966"><ele>881.8</ele><time>2026-05-02T16:22:33Z</time></trkpt><trkpt lat="42.50232216849702" lon="-3.701536371741233"><ele>881.6</ele><time>2026-05-02T16:22:34Z</time></trkpt><trkpt lat="42.5022385120499" lon="-3.7014430700950545"><ele>881.3999999999999</ele><time>2026-05-02T16:22:35Z</time></trkpt><trkpt lat="42.50215285328541" lon="-3.7013519823743812"><ele>881.1999999999999</ele><time>2026-05-02T16:22:36Z</time></trkpt><trkpt lat="42.50206650666036" lon="-3.701262261614359"><ele>881.0</ele><time>2026-05-02T16:22:37Z</time></trkpt><trkpt lat="42.50197899332268" lon="-3.701172739117124"><ele>881.8</ele><time>2026-05-02T16:22:38Z</time></trkpt><trkpt lat="42.50189166891908" lon="-3.7010789750871154"><ele>882.5999999999999</ele><time>2026-05-02T16:22:39Z</time></trkpt><trkpt lat="42.50180608692845" lon="-3.700987827326564"><ele>883.4</ele><time>2026-05-02T16:22:40Z</time></trkpt><trkpt lat="42.50172029034351" lon="-3.700898732598096"><ele>884.2</ele><time>2026-05-02T16:22:41Z</time></trkpt><trkpt lat="42.501637517240106" lon="-3.700806779379455"><ele>885.0</ele><time>2026-05-02T16:22:42Z</time></trkpt><trkpt lat="42.501553532097226" lon="-3.7007168775994836"><ele>885.0</ele><time>2026-05-02T16:22:43Z</time></trkpt><trkpt lat="42.501467455338855" lon="-3.7006277877064764"><ele>885.0</ele><time>2026-05-02T16:22:44Z</time></trkpt><trkpt lat="42.5013813660197" lon="-3.7005390144744377"><ele>885.0</ele><time>2026-05-02T16:22:45Z</time></trkpt><trkpt lat="42.50129503387526" lon="-3.7004509041252938"><ele>885.0</ele><time>2026-05-02T16:22:46Z</time></trkpt><trkpt lat="42.501209448626" lon="-3.7003614893073618"><ele>885.0</ele><time>2026-05-02T16:22:47Z</time></trkpt><trkpt lat="42.50112353257464" lon="-3.7002726132546"><ele>884.4</ele><time>2026-05-02T16:22:48Z</time></trkpt><trkpt lat="42.50103626616468" lon="-3.700186633004236"><ele>883.8</ele><time>2026-05-02T16:22:49Z</time></trkpt><trkpt lat="42.500950676772874" lon="-3.700100682139981"><ele>883.2</ele><time>2026-05-02T16:22:50Z</time></trkpt><trkpt lat="42.50086440941461" lon="-3.7000174956347274"><ele>882.6</ele><time>2026-05-02T16:22:51Z</time></trkpt><trkpt lat="42.50077621004158" lon="-3.699935766586973"><ele>882.0</ele><time>2026-05-02T16:22:52Z</time></trkpt><trkpt lat="42.500685937898695" lon="-3.6998524723500625"><ele>882.0</ele><time>2026-05-02T16:22:53Z</time></trkpt><trkpt lat="42.5005962799429" lon="-3.6997713434411335"><ele>882.0</ele><time>2026-05-02T16:22:54Z</time></trkpt><trkpt lat="42.50050551173019" lon="-3.69969519222125"><ele>882.0</ele><time>2026-05-02T16:22:55Z</time></trkpt><trkpt lat="42.50041663484324" lon="-3.699614054899094"><ele>882.0</ele><time>2026-05-02T16:22:56Z</time></trkpt><trkpt lat="42.5003266383545" lon="-3.6995314130521733"><ele>882.0</ele><time>2026-05-02T16:22:57Z</time></trkpt><trkpt lat="42.500236093259865" lon="-3.6994525246439554"><ele>882.2</ele><time>2026-05-02T16:22:58Z</time></trkpt><trkpt lat="42.50014440279221" lon="-3.699374163995847"><ele>882.4000000000001</ele><time>2026-05-02T16:22:59Z</time></trkpt><trkpt lat="42.50005260111232" lon="-3.699296201305667"><ele>882.5999999999999</ele><time>2026-05-02T16:23:00Z</time></trkpt><trkpt lat="42.499961193019246" lon="-3.699217592229604"><ele>882.8</ele><time>2026-05-02T16:23:01Z</time></trkpt><trkpt lat="42.49986740972289" lon="-3.6991395986177222"><ele>883.0</ele><time>2026-05-02T16:23:02Z</time></trkpt><trkpt lat="42.499775802276126" lon="-3.6990610639432955"><ele>883.0</ele><time>2026-05-02T16:23:03Z</time></trkpt><trkpt lat="42.49968368111924" lon="-3.698981927692393"><ele>883.0</ele><time>2026-05-02T16:23:04Z</time></trkpt><trkpt lat="42.49958974207641" lon="-3.6989041885703995"><ele>883.0</ele><time>2026-05-02T16:23:05Z</time></trkpt><trkpt lat="42.49949646090749" lon="-3.6988255681427114"><ele>883.0</ele><time>2026-05-02T16:23:06Z</time></trkpt><trkpt lat="42.49940463458045" lon="-3.6987440098070814"><ele>883.0</ele><time>2026-05-02T16:23:07Z</time></trkpt><trkpt lat="42.499313847672056" lon="-3.6986640522988474"><ele>883.0</ele><time>2026-05-02T16:23:08Z</time></trkpt><trkpt lat="42.4992225937138" lon="-3.698589764350064"><ele>883.0</ele><time>2026-05-02T16:23:09Z</time></trkpt><trkpt lat="42.499129728938534" lon="-3.6985150195940353"><ele>883.0</ele><time>2026-05-02T16:23:10Z</time></trkpt><trkpt lat="42.499038141461064" lon="-3.6984391899112286"><ele>883.0</ele><time>2026-05-02T16:23:11Z</time></trkpt><trkpt lat="42.49894588535158" lon="-3.69835954953839"><ele>883.0</ele><time>2026-05-02T16:23:12Z</time></trkpt><trkpt lat="42.498854591535725" lon="-3.6982806786638744"><ele>883.0</ele><time>2026-05-02T16:23:13Z</time></trkpt><trkpt lat="42.49876390734879" lon="-3.698202648700512"><ele>883.0</ele><time>2026-05-02T16:23:14Z</time></trkpt><trkpt lat="42.49867388378385" lon="-3.698122525495619"><ele>883.0</ele><time>2026-05-02T16:23:15Z</time></trkpt><trkpt lat="42.49858176470951" lon="-3.6980445250002933"><ele>883.0</ele><time>2026-05-02T16:23:16Z</time></trkpt><trkpt lat="42.498488196175245" lon="-3.697967404984757"><ele>883.0</ele><time>2026-05-02T16:23:17Z</time></trkpt><trkpt lat="42.49839666709452" lon="-3.697888626306736"><ele>883.4</ele><time>2026-05-02T16:23:18Z</time></trkpt><trkpt lat="42.4983075660773" lon="-3.697811801317652"><ele>883.8</ele><time>2026-05-02T16:23:19Z</time></trkpt><trkpt lat="42.49821474497492" lon="-3.6977345959746923"><ele>884.2</ele><time>2026-05-02T16:23:20Z</time></trkpt><trkpt lat="42.49812211115953" lon="-3.697659332035333"><ele>884.6</ele><time>2026-05-02T16:23:21Z</time></trkpt><trkpt lat="42.49802742459563" lon="-3.697582132282977"><ele>885.0</ele><time>2026-05-02T16:23:22Z</time></trkpt><trkpt lat="42.49793586051511" lon="-3.6975021964341375"><ele>884.6</ele><time>2026-05-02T16:23:23Z</time></trkpt><trkpt lat="42.49784576899404" lon="-3.697422406779788"><ele>884.2</ele><time>2026-05-02T16:23:24Z</time></trkpt><trkpt lat="42.49775342849468" lon="-3.697351187009976"><ele>883.8</ele><time>2026-05-02T16:23:25Z</time></trkpt><trkpt lat="42.49766476265637" lon="-3.6972625847100455"><ele>883.4</ele><time>2026-05-02T16:23:26Z</time></trkpt><trkpt lat="42.497573660447486" lon="-3.697184075386893"><ele>883.0</ele><time>2026-05-02T16:23:27Z</time></trkpt><trkpt lat="42.497486818271376" lon="-3.697105003265292"><ele>883.0</ele><time>2026-05-02T16:23:28Z</time></trkpt><trkpt lat="42.497396247457104" lon="-3.6970278820016578"><ele>883.0</ele><time>2026-05-02T16:23:29Z</time></trkpt><trkpt lat="42.49729285601493" lon="-3.6969518521740885"><ele>883.0</ele><time>2026-05-02T16:23:30Z</time></trkpt><trkpt lat="42.49719935566489" lon="-3.69687247001782"><ele>883.0</ele><time>2026-05-02T16:23:31Z</time></trkpt><trkpt lat="42.497106821187636" lon="-3.696791250778809"><ele>883.0</ele><time>2026-05-02T16:23:32Z</time></trkpt><trkpt lat="42.49701452279833" lon="-3.696709387229077"><ele>883.0</ele><time>2026-05-02T16:23:33Z</time></trkpt><trkpt lat="42.49692423894534" lon="-3.696629209308297"><ele>883.0</ele><time>2026-05-02T16:23:34Z</time></trkpt><trkpt lat="42.49683000671155" lon="-3.696553312160347"><ele>883.0</ele><time>2026-05-02T16:23:35Z</time></trkpt><trkpt lat="42.49673674236034" lon="-3.6964778774033027"><ele>883.0</ele><time>2026-05-02T16:23:36Z</time></trkpt><trkpt lat="42.49664454105492" lon="-3.6964010875051043"><ele>883.0</ele><time>2026-05-02T16:23:37Z</time></trkpt><trkpt lat="42.4965552466407" lon="-3.696323050845936"><ele>883.0</ele><time>2026-05-02T16:23:38Z</time></trkpt><trkpt lat="42.49646579334777" lon="-3.6962461597713365"><ele>883.0</ele><time>2026-05-02T16:23:39Z</time></trkpt><trkpt lat="42.49637704398562" lon="-3.696171104553101"><ele>883.0</ele><time>2026-05-02T16:23:40Z</time></trkpt><trkpt lat="42.49628355723234" lon="-3.696096458239408"><ele>883.0</ele><time>2026-05-02T16:23:41Z</time></trkpt><trkpt lat="42.49619219443591" lon="-3.6960233275304017"><ele>883.0</ele><time>2026-05-02T16:23:42Z</time></trkpt><trkpt lat="42.496100351872705" lon="-3.6959486994999295"><ele>883.2</ele><time>2026-05-02T16:23:43Z</time></trkpt><trkpt lat="42.496010590393475" lon="-3.6958707755304427"><ele>883.4</ele><time>2026-05-02T16:23:44Z</time></trkpt><trkpt lat="42.4959183305799" lon="-3.695795568653645"><ele>883.6000000000001</ele><time>2026-05-02T16:23:45Z</time></trkpt><trkpt lat="42.495824989037956" lon="-3.6957214967864487"><ele>883.8000000000001</ele><time>2026-05-02T16:23:46Z</time></trkpt><trkpt lat="42.49573444801689" lon="-3.6956471428951847"><ele>884.0</ele><time>2026-05-02T16:23:47Z</time></trkpt><trkpt lat="42.495643128171004" lon="-3.6955732447926968"><ele>884.0</ele><time>2026-05-02T16:23:48.001Z</time></trkpt><trkpt lat="42.49554471504408" lon="-3.6955033298664755"><ele>884.0000000000001</ele><time>2026-05-02T16:23:49.001Z</time></trkpt><trkpt lat="42.49544560702906" lon="-3.6954398434410933"><ele>884.0000000000001</ele><time>2026-05-02T16:23:50.001Z</time></trkpt><trkpt lat="42.49534546176976" lon="-3.695388333823772"><ele>884.0</ele><time>2026-05-02T16:23:51.001Z</time></trkpt><trkpt lat="42.49524580274702" lon="-3.695340503981982"><ele>884.0</ele><time>2026-05-02T16:23:52.001Z</time></trkpt><trkpt lat="42.49514241813806" lon="-3.6952962221948016"><ele>884.2</ele><time>2026-05-02T16:23:53.001Z</time></trkpt><trkpt lat="42.4950367614114" lon="-3.695257352840665"><ele>884.4000000000001</ele><time>2026-05-02T16:23:54.001Z</time></trkpt><trkpt lat="42.494931103464914" lon="-3.695220406474651"><ele>884.6</ele><time>2026-05-02T16:23:55.001Z</time></trkpt><trkpt lat="42.49482583011626" lon="-3.6951866450054593"><ele>884.8</ele><time>2026-05-02T16:23:56.001Z</time></trkpt><trkpt lat="42.49471895407857" lon="-3.6951633773613906"><ele>885.0</ele><time>2026-05-02T16:23:57.001Z</time></trkpt><trkpt lat="42.49461252606924" lon="-3.6951415896967745"><ele>884.8</ele><time>2026-05-02T16:23:58.001Z</time></trkpt><trkpt lat="42.49450860711944" lon="-3.6951296040880903"><ele>884.6</ele><time>2026-05-02T16:23:59.001Z</time></trkpt><trkpt lat="42.494400894769385" lon="-3.69511371408133"><ele>884.4000000000001</ele><time>2026-05-02T16:24:00.001Z</time></trkpt><trkpt lat="42.49429211714894" lon="-3.6951003243284224"><ele>884.2</ele><time>2026-05-02T16:24:01.001Z</time></trkpt><trkpt lat="42.49418190912792" lon="-3.6950987927348393"><ele>884.0</ele><time>2026-05-02T16:24:02.001Z</time></trkpt><trkpt lat="42.494069846338554" lon="-3.6950989085865324"><ele>884.0</ele><time>2026-05-02T16:24:03.001Z</time></trkpt><trkpt lat="42.493960441121125" lon="-3.6951066689231653"><ele>884.0000000000001</ele><time>2026-05-02T16:24:04.001Z</time></trkpt><trkpt lat="42.49385185294345" lon="-3.69511998348901"><ele>884.0000000000001</ele><time>2026-05-02T16:24:05.001Z</time></trkpt><trkpt lat="42.49374448461035" lon="-3.6951367113559934"><ele>884.0</ele><time>2026-05-02T16:24:06.001Z</time></trkpt><trkpt lat="42.49363955907513" lon="-3.69515736408923"><ele>884.0</ele><time>2026-05-02T16:24:07.001Z</time></trkpt><trkpt lat="42.4935347339786" lon="-3.6951872194250903"><ele>884.0</ele><time>2026-05-02T16:24:08.001Z</time></trkpt><trkpt lat="42.49342990026277" lon="-3.695219231330782"><ele>884.0000000000001</ele><time>2026-05-02T16:24:09.001Z</time></trkpt><trkpt lat="42.49332583828016" lon="-3.6952556580883926"><ele>884.0000000000001</ele><time>2026-05-02T16:24:10.001Z</time></trkpt><trkpt lat="42.49322153996393" lon="-3.695298938323854"><ele>884.0</ele><time>2026-05-02T16:24:11Z</time></trkpt><trkpt lat="42.49312163183947" lon="-3.6953479020311444"><ele>884.0</ele><time>2026-05-02T16:24:12Z</time></trkpt><trkpt lat="42.49302310826085" lon="-3.6954001192349257"><ele>883.4000000000001</ele><time>2026-05-02T16:24:13Z</time></trkpt><trkpt lat="42.492925490669236" lon="-3.695456148210617"><ele>882.8000000000001</ele><time>2026-05-02T16:24:14Z</time></trkpt><trkpt lat="42.4928307658236" lon="-3.6955182729324356"><ele>882.1999999999999</ele><time>2026-05-02T16:24:15Z</time></trkpt><trkpt lat="42.49273705315729" lon="-3.6955843762810074"><ele>881.5999999999999</ele><time>2026-05-02T16:24:16Z</time></trkpt><trkpt lat="42.4926467355572" lon="-3.695652939046811"><ele>881.0</ele><time>2026-05-02T16:24:17Z</time></trkpt><trkpt lat="42.4925570790137" lon="-3.6957260356784807"><ele>881.0</ele><time>2026-05-02T16:24:18Z</time></trkpt><trkpt lat="42.49246800137241" lon="-3.69580404509757"><ele>880.9999999999999</ele><time>2026-05-02T16:24:19Z</time></trkpt><trkpt lat="42.49238055958034" lon="-3.6958839162142416"><ele>880.9999999999999</ele><time>2026-05-02T16:24:20Z</time></trkpt><trkpt lat="42.49229330613933" lon="-3.6959588864252235"><ele>881.0</ele><time>2026-05-02T16:24:21Z</time></trkpt><trkpt lat="42.49220712225318" lon="-3.696038980692685"><ele>881.0</ele><time>2026-05-02T16:24:22Z</time></trkpt><trkpt lat="42.49211839698134" lon="-3.696112699589942"><ele>882.0</ele><time>2026-05-02T16:24:23Z</time></trkpt><trkpt lat="42.49203252949395" lon="-3.696196102183728"><ele>882.9999999999999</ele><time>2026-05-02T16:24:24Z</time></trkpt><trkpt lat="42.491946125591255" lon="-3.6962786618605996"><ele>883.9999999999999</ele><time>2026-05-02T16:24:25Z</time></trkpt><trkpt lat="42.49186115569648" lon="-3.6963600861705777"><ele>885.0</ele><time>2026-05-02T16:24:26Z</time></trkpt><trkpt lat="42.49177692870204" lon="-3.6964457258138435"><ele>886.0</ele><time>2026-05-02T16:24:27Z</time></trkpt><trkpt lat="42.49168973118604" lon="-3.6965258386745763"><ele>886.0</ele><time>2026-05-02T16:24:28Z</time></trkpt><trkpt lat="42.49160432536531" lon="-3.6966030240577643"><ele>885.9999999999999</ele><time>2026-05-02T16:24:29Z</time></trkpt><trkpt lat="42.49152454778256" lon="-3.6966887466046336"><ele>885.9999999999999</ele><time>2026-05-02T16:24:30Z</time></trkpt><trkpt lat="42.49144614386387" lon="-3.6967772557440886"><ele>886.0</ele><time>2026-05-02T16:24:31Z</time></trkpt><trkpt lat="42.49136797076742" lon="-3.696868345937314"><ele>886.0</ele><time>2026-05-02T16:24:32Z</time></trkpt><trkpt lat="42.49128455719041" lon="-3.696967907860791"><ele>884.5</ele><time>2026-05-02T16:24:33Z</time></trkpt><trkpt lat="42.491199948565914" lon="-3.6970634618391"><ele>883.0</ele><time>2026-05-02T16:24:34Z</time></trkpt><trkpt lat="42.491090984903856" lon="-3.6971104595821216"><ele>881.5</ele><time>2026-05-02T16:24:35Z</time></trkpt><trkpt lat="42.490995735910296" lon="-3.6971444940794442"><ele>880.0</ele><time>2026-05-02T16:24:36Z</time></trkpt><trkpt lat="42.490862948368544" lon="-3.6971030292455476"><ele>880.0</ele><time>2026-05-02T16:24:37Z</time></trkpt><trkpt lat="42.4907542233579" lon="-3.697135512726052"><ele>880.0</ele><time>2026-05-02T16:24:38Z</time></trkpt><trkpt lat="42.490640119346764" lon="-3.6971473084129394"><ele>880.0</ele><time>2026-05-02T16:24:39Z</time></trkpt><trkpt lat="42.49053233375777" lon="-3.697155183402277"><ele>880.0</ele><time>2026-05-02T16:24:40Z</time></trkpt><trkpt lat="42.490424905241596" lon="-3.697162425634485"><ele>880.0</ele><time>2026-05-02T16:24:41Z</time></trkpt><trkpt lat="42.49031875117846" lon="-3.6971669296130374"><ele>879.8</ele><time>2026-05-02T16:24:42Z</time></trkpt><trkpt lat="42.490215014231026" lon="-3.6971561865703046"><ele>879.6</ele><time>2026-05-02T16:24:43Z</time></trkpt><trkpt lat="42.490111678781865" lon="-3.6971310526951724"><ele>879.4000000000001</ele><time>2026-05-02T16:24:44Z</time></trkpt><trkpt lat="42.49000929865774" lon="-3.697099567956261"><ele>879.2</ele><time>2026-05-02T16:24:45Z</time></trkpt><trkpt lat="42.48990480136924" lon="-3.697071422371903"><ele>879.0</ele><time>2026-05-02T16:24:46Z</time></trkpt><trkpt lat="42.489803257535236" lon="-3.6970332221605036"><ele>879.0</ele><time>2026-05-02T16:24:47Z</time></trkpt><trkpt lat="42.48970154568711" lon="-3.696994326135305"><ele>879.0000000000001</ele><time>2026-05-02T16:24:48Z</time></trkpt><trkpt lat="42.489597249662566" lon="-3.696956044722017"><ele>879.0000000000001</ele><time>2026-05-02T16:24:49Z</time></trkpt><trkpt lat="42.4894966821963" lon="-3.6969164436884814"><ele>879.0</ele><time>2026-05-02T16:24:50Z</time></trkpt><trkpt lat="42.48939355332841" lon="-3.6968706043343635"><ele>879.0</ele><time>2026-05-02T16:24:51Z</time></trkpt><trkpt lat="42.48929044935977" lon="-3.696829116788497"><ele>880.4000000000001</ele><time>2026-05-02T16:24:52Z</time></trkpt><trkpt lat="42.48919067743238" lon="-3.696785414689979"><ele>881.8000000000001</ele><time>2026-05-02T16:24:53Z</time></trkpt><trkpt lat="42.4890887752216" lon="-3.69674506368399"><ele>883.1999999999999</ele><time>2026-05-02T16:24:54Z</time></trkpt><trkpt lat="42.48898904921103" lon="-3.6967085805258812"><ele>884.5999999999999</ele><time>2026-05-02T16:24:55Z</time></trkpt><trkpt lat="42.488889604829765" lon="-3.696665113476099"><ele>886.0</ele><time>2026-05-02T16:24:56Z</time></trkpt><trkpt lat="42.48878912044633" lon="-3.6966188248265768"><ele>885.5999999999999</ele><time>2026-05-02T16:24:57Z</time></trkpt><trkpt lat="42.48868489381912" lon="-3.6965653299137697"><ele>885.1999999999999</ele><time>2026-05-02T16:24:58Z</time></trkpt><trkpt lat="42.48857776136551" lon="-3.6965415642820196"><ele>884.8000000000001</ele><time>2026-05-02T16:24:59Z</time></trkpt><trkpt lat="42.48847615163299" lon="-3.6964949794811415"><ele>884.4000000000001</ele><time>2026-05-02T16:25:00Z</time></trkpt><trkpt lat="42.48837911638113" lon="-3.69645418866581"><ele>884.0</ele><time>2026-05-02T16:25:01Z</time></trkpt><trkpt lat="42.48827439911709" lon="-3.696415042009921"><ele>884.0</ele><time>2026-05-02T16:25:02Z</time></trkpt><trkpt lat="42.48817038113014" lon="-3.696372261671981"><ele>884.0000000000001</ele><time>2026-05-02T16:25:03Z</time></trkpt><trkpt lat="42.488072754677255" lon="-3.6963334573277042"><ele>884.0000000000001</ele><time>2026-05-02T16:25:04Z</time></trkpt><trkpt lat="42.48796955225216" lon="-3.696289191464982"><ele>884.0</ele><time>2026-05-02T16:25:05Z</time></trkpt><trkpt lat="42.487864288803884" lon="-3.6962497960935474"><ele>884.0</ele><time>2026-05-02T16:25:06Z</time></trkpt><trkpt lat="42.48775821212913" lon="-3.6962099566080573"><ele>884.2</ele><time>2026-05-02T16:25:07Z</time></trkpt><trkpt lat="42.48765348134089" lon="-3.6961694406762824"><ele>884.4000000000001</ele><time>2026-05-02T16:25:08Z</time></trkpt><trkpt lat="42.48754765824089" lon="-3.6961290402501072"><ele>884.6</ele><time>2026-05-02T16:25:09Z</time></trkpt><trkpt lat="42.48744231260836" lon="-3.696090136427674"><ele>884.8</ele><time>2026-05-02T16:25:10Z</time></trkpt><trkpt lat="42.48734076077928" lon="-3.6960454735920614"><ele>885.0</ele><time>2026-05-02T16:25:11Z</time></trkpt><trkpt lat="42.48723501016633" lon="-3.6960055340919236"><ele>885.0</ele><time>2026-05-02T16:25:12Z</time></trkpt><trkpt lat="42.48713072739733" lon="-3.695961943016284"><ele>885.0</ele><time>2026-05-02T16:25:13Z</time></trkpt><trkpt lat="42.487027403795665" lon="-3.695926888090214"><ele>885.0</ele><time>2026-05-02T16:25:14Z</time></trkpt><trkpt lat="42.486923974899604" lon="-3.6958857533366096"><ele>885.0</ele><time>2026-05-02T16:25:15Z</time></trkpt><trkpt lat="42.48682112020334" lon="-3.6958448593898865"><ele>885.0</ele><time>2026-05-02T16:25:16Z</time></trkpt><trkpt lat="42.48671657814318" lon="-3.6958038942767497"><ele>884.8</ele><time>2026-05-02T16:25:17Z</time></trkpt><trkpt lat="42.48661248844189" lon="-3.6957671940124888"><ele>884.6</ele><time>2026-05-02T16:25:18Z</time></trkpt><trkpt lat="42.486509579167894" lon="-3.6957263954309587"><ele>884.4000000000001</ele><time>2026-05-02T16:25:19Z</time></trkpt><trkpt lat="42.48640520431261" lon="-3.6956793653096938"><ele>884.2</ele><time>2026-05-02T16:25:20Z</time></trkpt><trkpt lat="42.48630466653232" lon="-3.6956392594280607"><ele>884.0</ele><time>2026-05-02T16:25:21Z</time></trkpt><trkpt lat="42.48620148355561" lon="-3.695595483180545"><ele>883.6</ele><time>2026-05-02T16:25:22Z</time></trkpt><trkpt lat="42.48609728406114" lon="-3.6955567486128134"><ele>883.2</ele><time>2026-05-02T16:25:23Z</time></trkpt><trkpt lat="42.48599619847782" lon="-3.6955208585593033"><ele>882.8000000000001</ele><time>2026-05-02T16:25:24Z</time></trkpt><trkpt lat="42.485894146811724" lon="-3.6954801368093584"><ele>882.4000000000001</ele><time>2026-05-02T16:25:25Z</time></trkpt><trkpt lat="42.48579084499976" lon="-3.6954396811454977"><ele>882.0</ele><time>2026-05-02T16:25:26Z</time></trkpt><trkpt lat="42.48568970262955" lon="-3.6953999022393687"><ele>882.0</ele><time>2026-05-02T16:25:27Z</time></trkpt><trkpt lat="42.48558866671872" lon="-3.6953602882451957"><ele>882.0</ele><time>2026-05-02T16:25:28Z</time></trkpt><trkpt lat="42.48548540278025" lon="-3.695321079812301"><ele>882.0</ele><time>2026-05-02T16:25:29Z</time></trkpt><trkpt lat="42.485383397017046" lon="-3.695281826930428"><ele>882.0</ele><time>2026-05-02T16:25:30Z</time></trkpt><trkpt lat="42.485280806923356" lon="-3.695239743383851"><ele>882.0</ele><time>2026-05-02T16:25:31Z</time></trkpt><trkpt lat="42.48517418945628" lon="-3.695194941265531"><ele>882.8</ele><time>2026-05-02T16:25:32Z</time></trkpt><trkpt lat="42.48507386752311" lon="-3.6951556440737154"><ele>883.6</ele><time>2026-05-02T16:25:33Z</time></trkpt><trkpt lat="42.484973155775954" lon="-3.6951148551359787"><ele>884.3999999999999</ele><time>2026-05-02T16:25:34Z</time></trkpt><trkpt lat="42.48486810354902" lon="-3.6950739353571342"><ele>885.1999999999999</ele><time>2026-05-02T16:25:35Z</time></trkpt><trkpt lat="42.48476539578299" lon="-3.695035265576337"><ele>886.0</ele><time>2026-05-02T16:25:36Z</time></trkpt><trkpt lat="42.48466043974013" lon="-3.6949963486178308"><ele>885.4</ele><time>2026-05-02T16:25:37Z</time></trkpt><trkpt lat="42.48455860035337" lon="-3.694959071290951"><ele>884.8</ele><time>2026-05-02T16:25:38Z</time></trkpt><trkpt lat="42.48445704204885" lon="-3.6949155212224927"><ele>884.1999999999999</ele><time>2026-05-02T16:25:39Z</time></trkpt><trkpt lat="42.48435599566017" lon="-3.694873125636554"><ele>883.5999999999999</ele><time>2026-05-02T16:25:40Z</time></trkpt><trkpt lat="42.484250767660164" lon="-3.6948338164237806"><ele>883.0</ele><time>2026-05-02T16:25:41Z</time></trkpt><trkpt lat="42.48414674709402" lon="-3.6947932325426596"><ele>883.0</ele><time>2026-05-02T16:25:42Z</time></trkpt><trkpt lat="42.4840443614272" lon="-3.6947501313469457"><ele>883.0</ele><time>2026-05-02T16:25:43Z</time></trkpt><trkpt lat="42.48393998425137" lon="-3.6947099594278145"><ele>883.0</ele><time>2026-05-02T16:25:44Z</time></trkpt><trkpt lat="42.483833982474074" lon="-3.694671659000477"><ele>883.0</ele><time>2026-05-02T16:25:45Z</time></trkpt><trkpt lat="42.48372990906667" lon="-3.6946277322114685"><ele>883.0</ele><time>2026-05-02T16:25:46.001Z</time></trkpt><trkpt lat="42.48362503887834" lon="-3.694588016455658"><ele>883.4</ele><time>2026-05-02T16:25:47.001Z</time></trkpt><trkpt lat="42.48351729019397" lon="-3.6945494492226256"><ele>883.8</ele><time>2026-05-02T16:25:48.001Z</time></trkpt><trkpt lat="42.48341469181175" lon="-3.6945069308291414"><ele>884.2</ele><time>2026-05-02T16:25:49.001Z</time></trkpt><trkpt lat="42.48331070323878" lon="-3.6944661285314804"><ele>884.6</ele><time>2026-05-02T16:25:50.001Z</time></trkpt><trkpt lat="42.48320850755584" lon="-3.6944326488063663"><ele>885.0</ele><time>2026-05-02T16:25:51.001Z</time></trkpt><trkpt lat="42.483096443740344" lon="-3.694393638423703"><ele>885.0</ele><time>2026-05-02T16:25:52.001Z</time></trkpt><trkpt lat="42.483000610246314" lon="-3.6943479251499123"><ele>885.0</ele><time>2026-05-02T16:25:53.001Z</time></trkpt><trkpt lat="42.48293205829463" lon="-3.694334729204657"><ele>885.0</ele><time>2026-05-02T16:25:54.001Z</time></trkpt><trkpt lat="42.48280609696298" lon="-3.6942814817520233"><ele>885.0</ele><time>2026-05-02T16:25:56.001Z</time></trkpt><trkpt lat="42.48266401756493" lon="-3.6942312391445182"><ele>883.6666666666667</ele><time>2026-05-02T16:25:57.001Z</time></trkpt><trkpt lat="42.48249421876554" lon="-3.6941656800575666"><ele>882.3333333333334</ele><time>2026-05-02T16:25:58.001Z</time></trkpt><trkpt lat="42.48233070622915" lon="-3.6941181009244906"><ele>881.0</ele><time>2026-05-02T16:25:59.001Z</time></trkpt><trkpt lat="42.4821642121189" lon="-3.694092501102852"><ele>880.5999999999999</ele><time>2026-05-02T16:26:00.001Z</time></trkpt><trkpt lat="42.482075215181254" lon="-3.6940596913753594"><ele>880.1999999999999</ele><time>2026-05-02T16:26:01.001Z</time></trkpt><trkpt lat="42.48202932831565" lon="-3.693973872611452"><ele>879.8000000000001</ele><time>2026-05-02T16:26:02.001Z</time></trkpt><trkpt lat="42.481926510319475" lon="-3.69394378774883"><ele>879.4000000000001</ele><time>2026-05-02T16:26:03.001Z</time></trkpt><trkpt lat="42.481818839910716" lon="-3.6938958814226623"><ele>879.0</ele><time>2026-05-02T16:26:04.001Z</time></trkpt><trkpt lat="42.48171526673655" lon="-3.693853044852352"><ele>879.0</ele><time>2026-05-02T16:26:05.001Z</time></trkpt><trkpt lat="42.481607798911256" lon="-3.6938192742525704"><ele>879.0000000000001</ele><time>2026-05-02T16:26:06.001Z</time></trkpt><trkpt lat="42.481504983937086" lon="-3.6937785095411493"><ele>879.0000000000001</ele><time>2026-05-02T16:26:07.001Z</time></trkpt><trkpt lat="42.48139919454628" lon="-3.6937383908113977"><ele>879.0</ele><time>2026-05-02T16:26:08.001Z</time></trkpt><trkpt lat="42.48129348348243" lon="-3.693697260602533"><ele>879.0</ele><time>2026-05-02T16:26:09.001Z</time></trkpt><trkpt lat="42.48118580337783" lon="-3.693656646487303"><ele>878.8000000000001</ele><time>2026-05-02T16:26:10.001Z</time></trkpt><trkpt lat="42.48107985825427" lon="-3.693612937338569"><ele>878.6000000000001</ele><time>2026-05-02T16:26:11.001Z</time></trkpt><trkpt lat="42.48097747986412" lon="-3.6935784511681975"><ele>878.4</ele><time>2026-05-02T16:26:12.001Z</time></trkpt><trkpt lat="42.48087396472171" lon="-3.693536545153025"><ele>878.2</ele><time>2026-05-02T16:26:13.001Z</time></trkpt><trkpt lat="42.48076690740655" lon="-3.693493224407412"><ele>878.0</ele><time>2026-05-02T16:26:14.001Z</time></trkpt><trkpt lat="42.48065963625709" lon="-3.6934485873581475"><ele>878.2</ele><time>2026-05-02T16:26:15.001Z</time></trkpt><trkpt lat="42.4805583974" lon="-3.693408798589117"><ele>878.4</ele><time>2026-05-02T16:26:16.001Z</time></trkpt><trkpt lat="42.480454159424646" lon="-3.6933625108397057"><ele>878.6000000000001</ele><time>2026-05-02T16:26:17Z</time></trkpt><trkpt lat="42.48034666497182" lon="-3.6933219168043845"><ele>878.8000000000001</ele><time>2026-05-02T16:26:18Z</time></trkpt><trkpt lat="42.480241626536625" lon="-3.693277930931527"><ele>879.0</ele><time>2026-05-02T16:26:19Z</time></trkpt><trkpt lat="42.48013322196247" lon="-3.69323266034464"><ele>879.0</ele><time>2026-05-02T16:26:20Z</time></trkpt><trkpt lat="42.480024870231986" lon="-3.6931910761181164"><ele>879.0000000000001</ele><time>2026-05-02T16:26:21Z</time></trkpt><trkpt lat="42.479918187753135" lon="-3.693158420607906"><ele>879.0000000000001</ele><time>2026-05-02T16:26:22Z</time></trkpt><trkpt lat="42.47981209186676" lon="-3.6931157539020694"><ele>879.0</ele><time>2026-05-02T16:26:23Z</time></trkpt><trkpt lat="42.47970783908474" lon="-3.693066468294473"><ele>879.0</ele><time>2026-05-02T16:26:24Z</time></trkpt><trkpt lat="42.479604962397254" lon="-3.693040890085889"><ele>878.25</ele><time>2026-05-02T16:26:25Z</time></trkpt><trkpt lat="42.47948798574814" lon="-3.6929953346238813"><ele>877.5</ele><time>2026-05-02T16:26:26Z</time></trkpt><trkpt lat="42.47937788065746" lon="-3.6929729755996505"><ele>876.75</ele><time>2026-05-02T16:26:27Z</time></trkpt><trkpt lat="42.47926756534463" lon="-3.69293061469664"><ele>876.0</ele><time>2026-05-02T16:26:28Z</time></trkpt><trkpt lat="42.4791581752016" lon="-3.692906507908792"><ele>876.0</ele><time>2026-05-02T16:26:29Z</time></trkpt><trkpt lat="42.479052451937825" lon="-3.6929123636817653"><ele>876.0</ele><time>2026-05-02T16:26:30Z</time></trkpt><trkpt lat="42.47893020873452" lon="-3.692905715099662"><ele>876.0</ele><time>2026-05-02T16:26:31Z</time></trkpt><trkpt lat="42.47883549687635" lon="-3.69280764462809"><ele>876.0</ele><time>2026-05-02T16:26:32Z</time></trkpt><trkpt lat="42.47873951069637" lon="-3.692697420309105"><ele>876.4</ele><time>2026-05-02T16:26:33Z</time></trkpt><trkpt lat="42.47863545632068" lon="-3.69264171011194"><ele>876.8</ele><time>2026-05-02T16:26:34Z</time></trkpt><trkpt lat="42.478524626570625" lon="-3.6926076849712586"><ele>877.1999999999999</ele><time>2026-05-02T16:26:35Z</time></trkpt><trkpt lat="42.47841885197566" lon="-3.6925666041785323"><ele>877.5999999999999</ele><time>2026-05-02T16:26:36Z</time></trkpt><trkpt lat="42.47831100006509" lon="-3.692529736587411"><ele>878.0</ele><time>2026-05-02T16:26:37Z</time></trkpt><trkpt lat="42.478203155559804" lon="-3.6924915314625317"><ele>878.0</ele><time>2026-05-02T16:26:38Z</time></trkpt><trkpt lat="42.4780949579734" lon="-3.692448120008309"><ele>878.0</ele><time>2026-05-02T16:26:39Z</time></trkpt><trkpt lat="42.477990537474625" lon="-3.6924013445579975"><ele>878.0</ele><time>2026-05-02T16:26:40Z</time></trkpt><trkpt lat="42.47788295028653" lon="-3.692363263547257"><ele>878.0</ele><time>2026-05-02T16:26:41Z</time></trkpt><trkpt lat="42.47778543985101" lon="-3.6923106114148774"><ele>878.0</ele><time>2026-05-02T16:26:42Z</time></trkpt><trkpt lat="42.47766864423711" lon="-3.6922827078217186"><ele>877.4</ele><time>2026-05-02T16:26:43Z</time></trkpt><trkpt lat="42.47756649601026" lon="-3.6922369085142153"><ele>876.8</ele><time>2026-05-02T16:26:44Z</time></trkpt><trkpt lat="42.47745337056422" lon="-3.6921987100842033"><ele>876.2</ele><time>2026-05-02T16:26:45Z</time></trkpt><trkpt lat="42.47734639498258" lon="-3.6921771882064336"><ele>875.6</ele><time>2026-05-02T16:26:46Z</time></trkpt><trkpt lat="42.47724590709912" lon="-3.692111570468837"><ele>875.0</ele><time>2026-05-02T16:26:47Z</time></trkpt><trkpt lat="42.47713907721774" lon="-3.692073464750552"><ele>874.8</ele><time>2026-05-02T16:26:48Z</time></trkpt><trkpt lat="42.477034241179595" lon="-3.692036483810117"><ele>874.6</ele><time>2026-05-02T16:26:49Z</time></trkpt><trkpt lat="42.47692968045732" lon="-3.6919946806400494"><ele>874.4000000000001</ele><time>2026-05-02T16:26:50Z</time></trkpt><trkpt lat="42.47682299664932" lon="-3.6919491648903344"><ele>874.2</ele><time>2026-05-02T16:26:51Z</time></trkpt><trkpt lat="42.47672036321918" lon="-3.6919050765772834"><ele>874.0</ele><time>2026-05-02T16:26:52Z</time></trkpt><trkpt lat="42.4766118998514" lon="-3.691859064268304"><ele>873.8000000000001</ele><time>2026-05-02T16:26:53Z</time></trkpt><trkpt lat="42.476506403810674" lon="-3.6918116643562713"><ele>873.6000000000001</ele><time>2026-05-02T16:26:54Z</time></trkpt><trkpt lat="42.476397942939776" lon="-3.6917787373351922"><ele>873.4</ele><time>2026-05-02T16:26:55Z</time></trkpt><trkpt lat="42.476293413537775" lon="-3.69173765563853"><ele>873.2</ele><time>2026-05-02T16:26:56Z</time></trkpt><trkpt lat="42.47618609705933" lon="-3.691693774571928"><ele>873.0</ele><time>2026-05-02T16:26:57Z</time></trkpt><trkpt lat="42.47608180482544" lon="-3.6916511170109856"><ele>873.0</ele><time>2026-05-02T16:26:58Z</time></trkpt><trkpt lat="42.47597692939476" lon="-3.6916100003372847"><ele>873.0</ele><time>2026-05-02T16:26:59Z</time></trkpt><trkpt lat="42.4758692260512" lon="-3.691571509575875"><ele>873.0</ele><time>2026-05-02T16:27:00Z</time></trkpt><trkpt lat="42.47576361171922" lon="-3.6915310213414236"><ele>873.0</ele><time>2026-05-02T16:27:01Z</time></trkpt><trkpt lat="42.475660496421355" lon="-3.691492357898301"><ele>873.0</ele><time>2026-05-02T16:27:02Z</time></trkpt><trkpt lat="42.47555314668765" lon="-3.6914522461846806"><ele>873.0</ele><time>2026-05-02T16:27:03Z</time></trkpt><trkpt lat="42.47544487630863" lon="-3.6914145520311754"><ele>873.0</ele><time>2026-05-02T16:27:04Z</time></trkpt><trkpt lat="42.47533705079785" lon="-3.6913693475073"><ele>873.0</ele><time>2026-05-02T16:27:05Z</time></trkpt><trkpt lat="42.47522854937869" lon="-3.691323971128313"><ele>873.0</ele><time>2026-05-02T16:27:06Z</time></trkpt><trkpt lat="42.4751135306233" lon="-3.691293477353765"><ele>873.0</ele><time>2026-05-02T16:27:07Z</time></trkpt><trkpt lat="42.47500694351689" lon="-3.691252017153779"><ele>873.0</ele><time>2026-05-02T16:27:08Z</time></trkpt><trkpt lat="42.474901644495105" lon="-3.691198475942616"><ele>873.0</ele><time>2026-05-02T16:27:09Z</time></trkpt><trkpt lat="42.474794286638435" lon="-3.691157383314415"><ele>873.0</ele><time>2026-05-02T16:27:10Z</time></trkpt><trkpt lat="42.474686432785546" lon="-3.6911152492741235"><ele>873.0</ele><time>2026-05-02T16:27:11Z</time></trkpt><trkpt lat="42.47457821453371" lon="-3.691073061984325"><ele>873.2</ele><time>2026-05-02T16:27:12Z</time></trkpt><trkpt lat="42.474470634213986" lon="-3.691038662006107"><ele>873.4</ele><time>2026-05-02T16:27:13Z</time></trkpt><trkpt lat="42.474363612414756" lon="-3.6910000691963663"><ele>873.6000000000001</ele><time>2026-05-02T16:27:14Z</time></trkpt><trkpt lat="42.47425899222281" lon="-3.6909580670457376"><ele>873.8000000000001</ele><time>2026-05-02T16:27:15Z</time></trkpt><trkpt lat="42.4741561080643" lon="-3.690918170072907"><ele>874.0</ele><time>2026-05-02T16:27:16Z</time></trkpt><trkpt lat="42.47405177037457" lon="-3.6908766302897544"><ele>874.0</ele><time>2026-05-02T16:27:17Z</time></trkpt><trkpt lat="42.473946526605204" lon="-3.690835408557812"><ele>874.0000000000001</ele><time>2026-05-02T16:27:18Z</time></trkpt><trkpt lat="42.47384267404549" lon="-3.690790642123432"><ele>874.0000000000001</ele><time>2026-05-02T16:27:19Z</time></trkpt><trkpt lat="42.47374036412093" lon="-3.6907510628078732"><ele>874.0</ele><time>2026-05-02T16:27:20Z</time></trkpt><trkpt lat="42.47363300403913" lon="-3.6907064710556026"><ele>874.0</ele><time>2026-05-02T16:27:21Z</time></trkpt><trkpt lat="42.47352758885357" lon="-3.6906752660794995"><ele>873.6</ele><time>2026-05-02T16:27:22Z</time></trkpt><trkpt lat="42.473423010048364" lon="-3.6906340753722575"><ele>873.2</ele><time>2026-05-02T16:27:23Z</time></trkpt><trkpt lat="42.473317329533515" lon="-3.6905959009968936"><ele>872.8000000000001</ele><time>2026-05-02T16:27:24Z</time></trkpt><trkpt lat="42.47321137710296" lon="-3.6905545887020526"><ele>872.4000000000001</ele><time>2026-05-02T16:27:25Z</time></trkpt><trkpt lat="42.47310542019622" lon="-3.690513640674666"><ele>872.0</ele><time>2026-05-02T16:27:26Z</time></trkpt><trkpt lat="42.4730019733562" lon="-3.6904717523920603"><ele>871.6</ele><time>2026-05-02T16:27:27Z</time></trkpt><trkpt lat="42.47289609608416" lon="-3.690431573959173"><ele>871.2</ele><time>2026-05-02T16:27:28Z</time></trkpt><trkpt lat="42.47278959521923" lon="-3.690389157864391"><ele>870.8</ele><time>2026-05-02T16:27:29Z</time></trkpt><trkpt lat="42.47268682858668" lon="-3.690355889187908"><ele>870.4</ele><time>2026-05-02T16:27:30Z</time></trkpt><trkpt lat="42.47258332410284" lon="-3.6903195046569937"><ele>870.0</ele><time>2026-05-02T16:27:31Z</time></trkpt><trkpt lat="42.47248660645366" lon="-3.690297192696392"><ele>870.0</ele><time>2026-05-02T16:27:32Z</time></trkpt><trkpt lat="42.47242096843179" lon="-3.6903049197649493"><ele>870.0</ele><time>2026-05-02T16:27:33Z</time></trkpt><trkpt lat="42.47230980211769" lon="-3.690212602514535"><ele>870.0</ele><time>2026-05-02T16:27:34Z</time></trkpt><trkpt lat="42.472167206963334" lon="-3.690163189938301"><ele>870.0</ele><time>2026-05-02T16:27:35Z</time></trkpt><trkpt lat="42.47205901540573" lon="-3.6901170011300346"><ele>870.4</ele><time>2026-05-02T16:27:36Z</time></trkpt><trkpt lat="42.47194447206446" lon="-3.6900751245434336"><ele>870.8</ele><time>2026-05-02T16:27:37Z</time></trkpt><trkpt lat="42.47183869580017" lon="-3.690043532673795"><ele>871.2</ele><time>2026-05-02T16:27:38Z</time></trkpt><trkpt lat="42.471737972354276" lon="-3.690010378195466"><ele>871.6</ele><time>2026-05-02T16:27:39Z</time></trkpt><trkpt lat="42.47163786172305" lon="-3.6899936488237586"><ele>872.0</ele><time>2026-05-02T16:27:40Z</time></trkpt><trkpt lat="42.471518387805006" lon="-3.689931906392305"><ele>872.0</ele><time>2026-05-02T16:27:41Z</time></trkpt><trkpt lat="42.47140986163265" lon="-3.6898873067798803"><ele>872.0</ele><time>2026-05-02T16:27:42.001Z</time></trkpt><trkpt lat="42.47130661334816" lon="-3.6898585048772015"><ele>872.0</ele><time>2026-05-02T16:27:43.001Z</time></trkpt><trkpt lat="42.47120243371266" lon="-3.689821244042638"><ele>872.0</ele><time>2026-05-02T16:27:44.001Z</time></trkpt><trkpt lat="42.47109905401776" lon="-3.6897847147775007"><ele>872.0</ele><time>2026-05-02T16:27:45.001Z</time></trkpt><trkpt lat="42.470996083549835" lon="-3.6897513820907264"><ele>872.0</ele><time>2026-05-02T16:27:46.001Z</time></trkpt><trkpt lat="42.470892518058086" lon="-3.689718405635056"><ele>872.0</ele><time>2026-05-02T16:27:47.001Z</time></trkpt><trkpt lat="42.47078912514213" lon="-3.689680115420876"><ele>872.0</ele><time>2026-05-02T16:27:48.001Z</time></trkpt><trkpt lat="42.47068702413477" lon="-3.6896397278556208"><ele>872.0</ele><time>2026-05-02T16:27:49.001Z</time></trkpt><trkpt lat="42.47058434076162" lon="-3.6895994018632097"><ele>872.0</ele><time>2026-05-02T16:27:50.001Z</time></trkpt><trkpt lat="42.47048223506238" lon="-3.689572293568425"><ele>872.2</ele><time>2026-05-02T16:27:51.001Z</time></trkpt><trkpt lat="42.47038031846291" lon="-3.6895484520630433"><ele>872.4000000000001</ele><time>2026-05-02T16:27:52.001Z</time></trkpt><trkpt lat="42.47027896761173" lon="-3.6895094116938276"><ele>872.5999999999999</ele><time>2026-05-02T16:27:53.001Z</time></trkpt><trkpt lat="42.47017855873245" lon="-3.689471206424953"><ele>872.8</ele><time>2026-05-02T16:27:54.001Z</time></trkpt><trkpt lat="42.47007526729211" lon="-3.689435369757508"><ele>873.0</ele><time>2026-05-02T16:27:55.001Z</time></trkpt><trkpt lat="42.46997445432732" lon="-3.689403308956974"><ele>872.8</ele><time>2026-05-02T16:27:56.001Z</time></trkpt><trkpt lat="42.46987226063869" lon="-3.6893698802966006"><ele>872.5999999999999</ele><time>2026-05-02T16:27:57.001Z</time></trkpt><trkpt lat="42.46976915147777" lon="-3.6893368479401007"><ele>872.4000000000001</ele><time>2026-05-02T16:27:58.001Z</time></trkpt><trkpt lat="42.4696655358784" lon="-3.6892987044564785"><ele>872.2</ele><time>2026-05-02T16:27:59.001Z</time></trkpt><trkpt lat="42.46956001692556" lon="-3.6892580686271033"><ele>872.0</ele><time>2026-05-02T16:28:00.001Z</time></trkpt><trkpt lat="42.46945564732049" lon="-3.6892203594680453"><ele>872.0</ele><time>2026-05-02T16:28:01.001Z</time></trkpt><trkpt lat="42.4693502750002" lon="-3.6891831783678932"><ele>872.0</ele><time>2026-05-02T16:28:02.001Z</time></trkpt><trkpt lat="42.469244557976104" lon="-3.6891576330255593"><ele>872.0</ele><time>2026-05-02T16:28:03.001Z</time></trkpt><trkpt lat="42.46914328896678" lon="-3.6891371213457957"><ele>872.0</ele><time>2026-05-02T16:28:04.001Z</time></trkpt><trkpt lat="42.469070901067326" lon="-3.68914026638121"><ele>872.0</ele><time>2026-05-02T16:28:05.001Z</time></trkpt><trkpt lat="42.46896794907164" lon="-3.6891107477729266"><ele>872.0</ele><time>2026-05-02T16:28:06.001Z</time></trkpt><trkpt lat="42.46882072874082" lon="-3.689020728894575"><ele>872.0</ele><time>2026-05-02T16:28:07.001Z</time></trkpt><trkpt lat="42.46870789313707" lon="-3.6889668617204405"><ele>872.0</ele><time>2026-05-02T16:28:08.001Z</time></trkpt><trkpt lat="42.468595904630504" lon="-3.6889199029044084"><ele>872.0</ele><time>2026-05-02T16:28:09.001Z</time></trkpt><trkpt lat="42.46848839677941" lon="-3.6888881403543903"><ele>871.6</ele><time>2026-05-02T16:28:10.001Z</time></trkpt><trkpt lat="42.46837975214865" lon="-3.6888529537315864"><ele>871.2</ele><time>2026-05-02T16:28:11.001Z</time></trkpt><trkpt lat="42.46826927923685" lon="-3.688823861319372"><ele>870.8</ele><time>2026-05-02T16:28:12.001Z</time></trkpt><trkpt lat="42.468159046924455" lon="-3.6887941540288014"><ele>870.4</ele><time>2026-05-02T16:28:13.001Z</time></trkpt><trkpt lat="42.46805000341238" lon="-3.688763076351956"><ele>870.0</ele><time>2026-05-02T16:28:14.001Z</time></trkpt><trkpt lat="42.46794145965606" lon="-3.6887276580041575"><ele>869.6</ele><time>2026-05-02T16:28:15.001Z</time></trkpt><trkpt lat="42.46783380258896" lon="-3.6886968869130237"><ele>869.2</ele><time>2026-05-02T16:28:16.001Z</time></trkpt><trkpt lat="42.46772754802446" lon="-3.688672926434233"><ele>868.8</ele><time>2026-05-02T16:28:17.001Z</time></trkpt><trkpt lat="42.46761895346015" lon="-3.6886300749311136"><ele>868.4</ele><time>2026-05-02T16:28:18.001Z</time></trkpt><trkpt lat="42.467513202953214" lon="-3.688599791880077"><ele>868.0</ele><time>2026-05-02T16:28:19.001Z</time></trkpt><trkpt lat="42.4674046260538" lon="-3.6885977920636828"><ele>868.0</ele><time>2026-05-02T16:28:20.001Z</time></trkpt><trkpt lat="42.467288725770864" lon="-3.6886465878992385"><ele>868.0</ele><time>2026-05-02T16:28:21.001Z</time></trkpt><trkpt lat="42.467182809070785" lon="-3.6885324195245963"><ele>868.0</ele><time>2026-05-02T16:28:22.001Z</time></trkpt><trkpt lat="42.46707395733578" lon="-3.6885086269194196"><ele>868.0</ele><time>2026-05-02T16:28:23Z</time></trkpt><trkpt lat="42.4669634060366" lon="-3.6884856521346"><ele>868.0</ele><time>2026-05-02T16:28:24Z</time></trkpt><trkpt lat="42.46685766206567" lon="-3.6884629665802886"><ele>868.0</ele><time>2026-05-02T16:28:25Z</time></trkpt><trkpt lat="42.46675088684973" lon="-3.6884397668396334"><ele>868.0</ele><time>2026-05-02T16:28:26Z</time></trkpt><trkpt lat="42.46664064567169" lon="-3.688415627295926"><ele>868.0</ele><time>2026-05-02T16:28:27Z</time></trkpt><trkpt lat="42.46653180843508" lon="-3.688391690281756"><ele>868.0</ele><time>2026-05-02T16:28:28Z</time></trkpt><trkpt lat="42.46642365210705" lon="-3.68837030205002"><ele>868.0</ele><time>2026-05-02T16:28:29Z</time></trkpt><trkpt lat="42.46631402902028" lon="-3.6883534997176173"><ele>868.0</ele><time>2026-05-02T16:28:30Z</time></trkpt><trkpt lat="42.46620411564696" lon="-3.688326622876133"><ele>868.0</ele><time>2026-05-02T16:28:31Z</time></trkpt><trkpt lat="42.46610697037699" lon="-3.688308516691877"><ele>868.0</ele><time>2026-05-02T16:28:32Z</time></trkpt><trkpt lat="42.46601439796796" lon="-3.6882941815916155"><ele>868.0</ele><time>2026-05-02T16:28:33Z</time></trkpt><trkpt lat="42.46592877342217" lon="-3.688283737093867"><ele>867.8333333333333</ele><time>2026-05-02T16:28:34Z</time></trkpt><trkpt lat="42.46584853244869" lon="-3.688275651515887"><ele>867.6666666666666</ele><time>2026-05-02T16:28:35Z</time></trkpt><trkpt lat="42.46577807767827" lon="-3.6882637090275647"><ele>867.5</ele><time>2026-05-02T16:28:36Z</time></trkpt><trkpt lat="42.46571269879382" lon="-3.6882630013981017"><ele>867.3333333333333</ele><time>2026-05-02T16:28:37Z</time></trkpt><trkpt lat="42.46560322675677" lon="-3.688253270474573"><ele>867.1666666666666</ele><time>2026-05-02T16:28:39Z</time></trkpt><trkpt lat="42.46553512632419" lon="-3.688242351912881"><ele>867.0</ele><time>2026-05-02T16:28:40Z</time></trkpt><trkpt lat="42.46545636403052" lon="-3.6882318265346896"><ele>866.6</ele><time>2026-05-02T16:28:41Z</time></trkpt><trkpt lat="42.46537714521052" lon="-3.6882264783765004"><ele>866.2</ele><time>2026-05-02T16:28:42Z</time></trkpt><trkpt lat="42.46529448206102" lon="-3.6882161135119373"><ele>865.8</ele><time>2026-05-02T16:28:43Z</time></trkpt><trkpt lat="42.46520584863904" lon="-3.6882017384388215"><ele>865.4</ele><time>2026-05-02T16:28:44Z</time></trkpt><trkpt lat="42.46510195496085" lon="-3.688184217377928"><ele>865.0</ele><time>2026-05-02T16:28:45Z</time></trkpt><trkpt lat="42.46500539307196" lon="-3.688175253598699"><ele>865.0</ele><time>2026-05-02T16:28:46Z</time></trkpt><trkpt lat="42.46490718152035" lon="-3.6881670076790614"><ele>865.0</ele><time>2026-05-02T16:28:47Z</time></trkpt><trkpt lat="42.464806276140145" lon="-3.688154098012914"><ele>865.0</ele><time>2026-05-02T16:28:48Z</time></trkpt><trkpt lat="42.46470320088579" lon="-3.6881363192266265"><ele>865.0</ele><time>2026-05-02T16:28:49Z</time></trkpt><trkpt lat="42.46459771578817" lon="-3.6881238081027403"><ele>865.0</ele><time>2026-05-02T16:28:50Z</time></trkpt><trkpt lat="42.46449288934519" lon="-3.688116733896813"><ele>864.6</ele><time>2026-05-02T16:28:51Z</time></trkpt><trkpt lat="42.46438705628661" lon="-3.6881139651497126"><ele>864.2</ele><time>2026-05-02T16:28:52Z</time></trkpt><trkpt lat="42.46428207858224" lon="-3.688109052870988"><ele>863.8</ele><time>2026-05-02T16:28:53Z</time></trkpt><trkpt lat="42.46417403877901" lon="-3.6881049275830438"><ele>863.4</ele><time>2026-05-02T16:28:54Z</time></trkpt><trkpt lat="42.46406763944954" lon="-3.6880995228702607"><ele>863.0</ele><time>2026-05-02T16:28:55Z</time></trkpt><trkpt lat="42.463958457612094" lon="-3.6880960296832876"><ele>863.0</ele><time>2026-05-02T16:28:56Z</time></trkpt><trkpt lat="42.463854377600164" lon="-3.6880929979183144"><ele>863.0</ele><time>2026-05-02T16:28:57Z</time></trkpt><trkpt lat="42.46375964323763" lon="-3.688090148286772"><ele>863.0</ele><time>2026-05-02T16:28:58Z</time></trkpt><trkpt lat="42.46366744938038" lon="-3.688088266692066"><ele>863.0</ele><time>2026-05-02T16:28:59Z</time></trkpt><trkpt lat="42.46358061010518" lon="-3.6880875911977236"><ele>863.0</ele><time>2026-05-02T16:29:00Z</time></trkpt><trkpt lat="42.46350112172951" lon="-3.6880888831844474"><ele>863.2857142857143</ele><time>2026-05-02T16:29:01Z</time></trkpt><trkpt lat="42.4634280428753" lon="-3.6880874726697876"><ele>863.5714285714286</ele><time>2026-05-02T16:29:02Z</time></trkpt><trkpt lat="42.46335848127819" lon="-3.688079460501443"><ele>863.8571428571429</ele><time>2026-05-02T16:29:03Z</time></trkpt><trkpt lat="42.46329365038466" lon="-3.6880832438211426"><ele>864.1428571428571</ele><time>2026-05-02T16:29:04Z</time></trkpt><trkpt lat="42.463224883844404" lon="-3.688089850801017"><ele>864.4285714285714</ele><time>2026-05-02T16:29:05Z</time></trkpt><trkpt lat="42.46314838279181" lon="-3.6880921255497796"><ele>864.7142857142858</ele><time>2026-05-02T16:29:06Z</time></trkpt><trkpt lat="42.46306919971502" lon="-3.6880919074294165"><ele>865.0</ele><time>2026-05-02T16:29:07Z</time></trkpt><trkpt lat="42.46298575344275" lon="-3.688094788788469"><ele>865.2</ele><time>2026-05-02T16:29:08Z</time></trkpt><trkpt lat="42.46289705472612" lon="-3.688101041482751"><ele>865.4</ele><time>2026-05-02T16:29:09Z</time></trkpt><trkpt lat="42.462803239673775" lon="-3.688104620964807"><ele>865.5999999999999</ele><time>2026-05-02T16:29:10Z</time></trkpt><trkpt lat="42.46270803817974" lon="-3.6881085963142928"><ele>865.8</ele><time>2026-05-02T16:29:11Z</time></trkpt><trkpt lat="42.46261128870182" lon="-3.6881107526068395"><ele>866.0</ele><time>2026-05-02T16:29:12Z</time></trkpt><trkpt lat="42.4625115739761" lon="-3.6881168909961897"><ele>866.0</ele><time>2026-05-02T16:29:13Z</time></trkpt><trkpt lat="42.46241001898473" lon="-3.6881219446640383"><ele>865.9999999999999</ele><time>2026-05-02T16:29:14Z</time></trkpt><trkpt lat="42.462307579334706" lon="-3.688129201722586"><ele>865.9999999999999</ele><time>2026-05-02T16:29:15Z</time></trkpt><trkpt lat="42.462204219318814" lon="-3.688133493966095"><ele>866.0</ele><time>2026-05-02T16:29:16Z</time></trkpt><trkpt lat="42.46209976123037" lon="-3.688136797134485"><ele>866.0</ele><time>2026-05-02T16:29:17Z</time></trkpt><trkpt lat="42.46199609488137" lon="-3.688146119949362"><ele>865.8</ele><time>2026-05-02T16:29:18Z</time></trkpt><trkpt lat="42.461887847383075" lon="-3.6881558859610224"><ele>865.5999999999999</ele><time>2026-05-02T16:29:19Z</time></trkpt><trkpt lat="42.46178255293269" lon="-3.6881665350973614"><ele>865.4</ele><time>2026-05-02T16:29:20Z</time></trkpt><trkpt lat="42.46167608994082" lon="-3.688174383444736"><ele>865.2</ele><time>2026-05-02T16:29:21Z</time></trkpt><trkpt lat="42.46156840047403" lon="-3.6881864906835258"><ele>865.0</ele><time>2026-05-02T16:29:22Z</time></trkpt><trkpt lat="42.46146319080663" lon="-3.6881989320665647"><ele>865.0</ele><time>2026-05-02T16:29:23Z</time></trkpt><trkpt lat="42.461354355636196" lon="-3.688211301619809"><ele>865.0</ele><time>2026-05-02T16:29:24Z</time></trkpt><trkpt lat="42.4612478003387" lon="-3.6882231645838752"><ele>865.0</ele><time>2026-05-02T16:29:25Z</time></trkpt><trkpt lat="42.46114043938802" lon="-3.6882385868094296"><ele>865.0</ele><time>2026-05-02T16:29:26Z</time></trkpt><trkpt lat="42.46103286968221" lon="-3.688253741384612"><ele>865.0</ele><time>2026-05-02T16:29:27Z</time></trkpt><trkpt lat="42.46092586797991" lon="-3.688269667381919"><ele>865.0</ele><time>2026-05-02T16:29:28Z</time></trkpt><trkpt lat="42.460818396937675" lon="-3.688284453504594"><ele>865.0</ele><time>2026-05-02T16:29:29Z</time></trkpt><trkpt lat="42.46071056875423" lon="-3.688300620805595"><ele>865.0</ele><time>2026-05-02T16:29:30Z</time></trkpt><trkpt lat="42.46060145772548" lon="-3.688320418127433"><ele>865.0</ele><time>2026-05-02T16:29:31Z</time></trkpt><trkpt lat="42.46049891571233" lon="-3.6883338000843287"><ele>865.0</ele><time>2026-05-02T16:29:32Z</time></trkpt><trkpt lat="42.460392352245485" lon="-3.6883468749825363"><ele>864.75</ele><time>2026-05-02T16:29:33Z</time></trkpt><trkpt lat="42.46028752488567" lon="-3.688355193438506"><ele>864.5</ele><time>2026-05-02T16:29:34Z</time></trkpt><trkpt lat="42.460167489449326" lon="-3.6884038768110794"><ele>864.25</ele><time>2026-05-02T16:29:35Z</time></trkpt><trkpt lat="42.460055337737984" lon="-3.688434406760116"><ele>864.0</ele><time>2026-05-02T16:29:36Z</time></trkpt><trkpt lat="42.459947392912916" lon="-3.688463617726374"><ele>864.0</ele><time>2026-05-02T16:29:37.001Z</time></trkpt><trkpt lat="42.4598383223123" lon="-3.688489617338705"><ele>864.0000000000001</ele><time>2026-05-02T16:29:38.001Z</time></trkpt><trkpt lat="42.45972999092335" lon="-3.688513045825481"><ele>864.0000000000001</ele><time>2026-05-02T16:29:39.001Z</time></trkpt><trkpt lat="42.45962111136277" lon="-3.688537107482089"><ele>864.0</ele><time>2026-05-02T16:29:40.001Z</time></trkpt><trkpt lat="42.45951218926304" lon="-3.6885684119961257"><ele>864.0</ele><time>2026-05-02T16:29:41.001Z</time></trkpt><trkpt lat="42.459402500714425" lon="-3.6886035861523205"><ele>864.2</ele><time>2026-05-02T16:29:42.001Z</time></trkpt><trkpt lat="42.45929470426612" lon="-3.688633475727716"><ele>864.4000000000001</ele><time>2026-05-02T16:29:43.001Z</time></trkpt><trkpt lat="42.4591831423847" lon="-3.6886536875597375"><ele>864.6</ele><time>2026-05-02T16:29:44.001Z</time></trkpt><trkpt lat="42.45907214720316" lon="-3.6886800104350828"><ele>864.8</ele><time>2026-05-02T16:29:45.001Z</time></trkpt><trkpt lat="42.45896420649669" lon="-3.6887051917794893"><ele>865.0</ele><time>2026-05-02T16:29:46.001Z</time></trkpt><trkpt lat="42.458855676240304" lon="-3.6887346753506494"><ele>865.4</ele><time>2026-05-02T16:29:47.001Z</time></trkpt><trkpt lat="42.45874743630779" lon="-3.688760886135022"><ele>865.8</ele><time>2026-05-02T16:29:48.001Z</time></trkpt><trkpt lat="42.45863449782839" lon="-3.688794240628864"><ele>866.2</ele><time>2026-05-02T16:29:49.001Z</time></trkpt><trkpt lat="42.458528966683005" lon="-3.6888211927783314"><ele>866.6</ele><time>2026-05-02T16:29:50.001Z</time></trkpt><trkpt lat="42.458420105366585" lon="-3.6888535850571587"><ele>867.0</ele><time>2026-05-02T16:29:51.001Z</time></trkpt><trkpt lat="42.45830901640451" lon="-3.6888825394701965"><ele>867.0</ele><time>2026-05-02T16:29:52.001Z</time></trkpt><trkpt lat="42.458197969895565" lon="-3.6889109530320643"><ele>867.0</ele><time>2026-05-02T16:29:53.001Z</time></trkpt><trkpt lat="42.45808295771493" lon="-3.6889391900706143"><ele>867.0</ele><time>2026-05-02T16:29:54.001Z</time></trkpt><trkpt lat="42.45797585424031" lon="-3.6889744273468446"><ele>867.0</ele><time>2026-05-02T16:29:55.001Z</time></trkpt><trkpt lat="42.45786328849719" lon="-3.6890075475822344"><ele>866.4000000000001</ele><time>2026-05-02T16:29:56.001Z</time></trkpt><trkpt lat="42.45775949956248" lon="-3.689033202363634"><ele>865.8000000000001</ele><time>2026-05-02T16:29:57.001Z</time></trkpt><trkpt lat="42.457655752240335" lon="-3.689070465666946"><ele>865.2</ele><time>2026-05-02T16:29:58.001Z</time></trkpt><trkpt lat="42.457544787502385" lon="-3.689094080828136"><ele>864.6</ele><time>2026-05-02T16:29:59.001Z</time></trkpt><trkpt lat="42.4574391662066" lon="-3.6891320071806826"><ele>864.0</ele><time>2026-05-02T16:30:00.001Z</time></trkpt><trkpt lat="42.457323403055966" lon="-3.689141024255788"><ele>864.0</ele><time>2026-05-02T16:30:01.001Z</time></trkpt><trkpt lat="42.45718166849177" lon="-3.68909284142057"><ele>864.0</ele><time>2026-05-02T16:30:02.001Z</time></trkpt><trkpt lat="42.457028586019305" lon="-3.6890900642559026"><ele>864.0</ele><time>2026-05-02T16:30:03.001Z</time></trkpt><trkpt lat="42.45689199564383" lon="-3.6891363063582383"><ele>864.0</ele><time>2026-05-02T16:30:04.001Z</time></trkpt><trkpt lat="42.456903709298665" lon="-3.6892741635621586"><ele>864.0</ele><time>2026-05-02T16:30:05.001Z</time></trkpt><trkpt lat="42.456799273757746" lon="-3.6893108629592657"><ele>864.0000000000001</ele><time>2026-05-02T16:30:06.001Z</time></trkpt><trkpt lat="42.45669259689086" lon="-3.689338720090122"><ele>864.0000000000001</ele><time>2026-05-02T16:30:07.001Z</time></trkpt><trkpt lat="42.45658646700412" lon="-3.6893630755014244"><ele>864.0</ele><time>2026-05-02T16:30:08.001Z</time></trkpt><trkpt lat="42.456481541100636" lon="-3.689395379276909"><ele>864.0</ele><time>2026-05-02T16:30:09.001Z</time></trkpt><trkpt lat="42.456377206819866" lon="-3.689421661178956"><ele>865.4000000000001</ele><time>2026-05-02T16:30:10.001Z</time></trkpt><trkpt lat="42.45626971648456" lon="-3.689449313810261"><ele>866.8000000000001</ele><time>2026-05-02T16:30:11.001Z</time></trkpt><trkpt lat="42.45616617965137" lon="-3.6894778844372538"><ele>868.1999999999999</ele><time>2026-05-02T16:30:12.001Z</time></trkpt><trkpt lat="42.45606081232055" lon="-3.6895111462651418"><ele>869.5999999999999</ele><time>2026-05-02T16:30:13.001Z</time></trkpt><trkpt lat="42.45595474889039" lon="-3.6895308373505844"><ele>871.0</ele><time>2026-05-02T16:30:14.001Z</time></trkpt><trkpt lat="42.455843719119144" lon="-3.6895489497328144"><ele>871.0</ele><time>2026-05-02T16:30:15.001Z</time></trkpt><trkpt lat="42.455736501498926" lon="-3.6895709198587805"><ele>870.9999999999999</ele><time>2026-05-02T16:30:16.001Z</time></trkpt><trkpt lat="42.455629139230076" lon="-3.689595806120593"><ele>870.9999999999999</ele><time>2026-05-02T16:30:17.001Z</time></trkpt><trkpt lat="42.45552312452634" lon="-3.6896229819081445"><ele>871.0</ele><time>2026-05-02T16:30:18.001Z</time></trkpt><trkpt lat="42.455417763898346" lon="-3.68965085549919"><ele>871.0</ele><time>2026-05-02T16:30:19.001Z</time></trkpt><trkpt lat="42.45531014740653" lon="-3.6896764414220677"><ele>870.1999999999999</ele><time>2026-05-02T16:30:20.001Z</time></trkpt><trkpt lat="42.455202184443785" lon="-3.689700118149707"><ele>869.3999999999999</ele><time>2026-05-02T16:30:21.001Z</time></trkpt><trkpt lat="42.45509270225526" lon="-3.6897272211679697"><ele>868.6</ele><time>2026-05-02T16:30:22.001Z</time></trkpt><trkpt lat="42.45498950377805" lon="-3.6897472934958078"><ele>867.8</ele><time>2026-05-02T16:30:23.001Z</time></trkpt><trkpt lat="42.45487938909651" lon="-3.689775213829581"><ele>867.0</ele><time>2026-05-02T16:30:24.001Z</time></trkpt><trkpt lat="42.45477042763961" lon="-3.6898023244162417"><ele>867.0</ele><time>2026-05-02T16:30:25.001Z</time></trkpt><trkpt lat="42.45466433860056" lon="-3.689826315517607"><ele>867.0</ele><time>2026-05-02T16:30:26.001Z</time></trkpt><trkpt lat="42.45455918447903" lon="-3.689851795001615"><ele>867.0</ele><time>2026-05-02T16:30:27.001Z</time></trkpt><trkpt lat="42.45445446217175" lon="-3.689876338632138"><ele>867.0</ele><time>2026-05-02T16:30:28.001Z</time></trkpt><trkpt lat="42.45434736906238" lon="-3.6899018794552307"><ele>867.0</ele><time>2026-05-02T16:30:29Z</time></trkpt><trkpt lat="42.45424431830019" lon="-3.6899284114687116"><ele>867.0</ele><time>2026-05-02T16:30:30Z</time></trkpt><trkpt lat="42.45414025410047" lon="-3.689953408219888"><ele>867.0</ele><time>2026-05-02T16:30:31Z</time></trkpt><trkpt lat="42.45403264604653" lon="-3.6899721952624316"><ele>867.0</ele><time>2026-05-02T16:30:32Z</time></trkpt><trkpt lat="42.453929337062746" lon="-3.690001799667162"><ele>867.0</ele><time>2026-05-02T16:30:33Z</time></trkpt><trkpt lat="42.45382581410865" lon="-3.690024658385837"><ele>867.0</ele><time>2026-05-02T16:30:34Z</time></trkpt><trkpt lat="42.453721419160516" lon="-3.690046522316457"><ele>867.4000000000001</ele><time>2026-05-02T16:30:35Z</time></trkpt><trkpt lat="42.45361865466156" lon="-3.6900674243388676"><ele>867.8000000000001</ele><time>2026-05-02T16:30:36Z</time></trkpt><trkpt lat="42.45351552596111" lon="-3.690089252941572"><ele>868.2</ele><time>2026-05-02T16:30:37Z</time></trkpt><trkpt lat="42.45341116732365" lon="-3.6901101622120245"><ele>868.6</ele><time>2026-05-02T16:30:38Z</time></trkpt><trkpt lat="42.4533067611898" lon="-3.6901313015707333"><ele>869.0</ele><time>2026-05-02T16:30:39Z</time></trkpt><trkpt lat="42.453201774402636" lon="-3.69015233431752"><ele>869.0</ele><time>2026-05-02T16:30:40Z</time></trkpt><trkpt lat="42.45309649471866" lon="-3.6901740661983347"><ele>869.0000000000001</ele><time>2026-05-02T16:30:41Z</time></trkpt><trkpt lat="42.45299205082743" lon="-3.6901966969195454"><ele>869.0000000000001</ele><time>2026-05-02T16:30:42Z</time></trkpt><trkpt lat="42.45288711258552" lon="-3.6902168294654416"><ele>869.0</ele><time>2026-05-02T16:30:43Z</time></trkpt><trkpt lat="42.45278085318532" lon="-3.6902365796091567"><ele>869.0</ele><time>2026-05-02T16:30:44Z</time></trkpt><trkpt lat="42.45267420983596" lon="-3.690258108251626"><ele>870.2</ele><time>2026-05-02T16:30:45Z</time></trkpt><trkpt lat="42.4525691468201" lon="-3.6902796013685113"><ele>871.4000000000001</ele><time>2026-05-02T16:30:46Z</time></trkpt><trkpt lat="42.45246285515639" lon="-3.6903011571054827"><ele>872.6</ele><time>2026-05-02T16:30:47Z</time></trkpt><trkpt lat="42.45235660984633" lon="-3.6903202292463835"><ele>873.8</ele><time>2026-05-02T16:30:48Z</time></trkpt><trkpt lat="42.452250617803124" lon="-3.690341455828031"><ele>875.0</ele><time>2026-05-02T16:30:49Z</time></trkpt><trkpt lat="42.45214321262566" lon="-3.690359138145308"><ele>876.2</ele><time>2026-05-02T16:30:50Z</time></trkpt><trkpt lat="42.4520355414724" lon="-3.6903770329621683"><ele>877.4</ele><time>2026-05-02T16:30:51Z</time></trkpt><trkpt lat="42.451928278644836" lon="-3.690397958414087"><ele>878.5999999999999</ele><time>2026-05-02T16:30:52Z</time></trkpt><trkpt lat="42.451822635362795" lon="-3.690419690593295"><ele>879.8</ele><time>2026-05-02T16:30:53Z</time></trkpt><trkpt lat="42.451715666630115" lon="-3.6904380074897762"><ele>881.0</ele><time>2026-05-02T16:30:54Z</time></trkpt><trkpt lat="42.45160912612853" lon="-3.690456796551915"><ele>881.0</ele><time>2026-05-02T16:30:55Z</time></trkpt><trkpt lat="42.45150098382115" lon="-3.6904750523055014"><ele>880.9999999999999</ele><time>2026-05-02T16:30:56Z</time></trkpt><trkpt lat="42.45139459071961" lon="-3.690494908332679"><ele>880.9999999999999</ele><time>2026-05-02T16:30:57Z</time></trkpt><trkpt lat="42.45128662856601" lon="-3.6905133667249497"><ele>881.0</ele><time>2026-05-02T16:30:58Z</time></trkpt><trkpt lat="42.45117897926443" lon="-3.6905324793439824"><ele>881.0</ele><time>2026-05-02T16:30:59Z</time></trkpt><trkpt lat="42.45106947969531" lon="-3.690547192926751"><ele>884.8</ele><time>2026-05-02T16:31:00Z</time></trkpt><trkpt lat="42.450963189252036" lon="-3.69057226872775"><ele>888.5999999999999</ele><time>2026-05-02T16:31:01Z</time></trkpt><trkpt lat="42.450859073188944" lon="-3.690597773687662"><ele>892.4</ele><time>2026-05-02T16:31:02Z</time></trkpt><trkpt lat="42.450746292726514" lon="-3.6906109287170232"><ele>896.2</ele><time>2026-05-02T16:31:03Z</time></trkpt><trkpt lat="42.45064080244027" lon="-3.690625568726597"><ele>900.0</ele><time>2026-05-02T16:31:04Z</time></trkpt><trkpt lat="42.45053276702467" lon="-3.690642362949741"><ele>902.6</ele><time>2026-05-02T16:31:05Z</time></trkpt><trkpt lat="42.45042542718408" lon="-3.690660286537967"><ele>905.2</ele><time>2026-05-02T16:31:06Z</time></trkpt><trkpt lat="42.4503176860475" lon="-3.690675416146816"><ele>907.8</ele><time>2026-05-02T16:31:07Z</time></trkpt><trkpt lat="42.45020919257048" lon="-3.690693603702601"><ele>910.4</ele><time>2026-05-02T16:31:08Z</time></trkpt><trkpt lat="42.45010203965744" lon="-3.690709342695608"><ele>913.0</ele><time>2026-05-02T16:31:09Z</time></trkpt><trkpt lat="42.44999469997736" lon="-3.6907270729317214"><ele>913.0</ele><time>2026-05-02T16:31:10Z</time></trkpt><trkpt lat="42.44988551350073" lon="-3.690740588688208"><ele>913.0</ele><time>2026-05-02T16:31:11Z</time></trkpt><trkpt lat="42.449776695617665" lon="-3.6907559004653887"><ele>913.0</ele><time>2026-05-02T16:31:12Z</time></trkpt><trkpt lat="42.449665704568005" lon="-3.690765677334668"><ele>913.0</ele><time>2026-05-02T16:31:13Z</time></trkpt><trkpt lat="42.44956023930414" lon="-3.690792225776532"><ele>913.0</ele><time>2026-05-02T16:31:14Z</time></trkpt><trkpt lat="42.44945460908386" lon="-3.6908117469900112"><ele>910.2</ele><time>2026-05-02T16:31:15Z</time></trkpt><trkpt lat="42.44933668605295" lon="-3.6908077839811337"><ele>907.4</ele><time>2026-05-02T16:31:16Z</time></trkpt><trkpt lat="42.44923187030213" lon="-3.690830751521719"><ele>904.6000000000001</ele><time>2026-05-02T16:31:17Z</time></trkpt><trkpt lat="42.449122615262894" lon="-3.6908399606727373"><ele>901.8000000000001</ele><time>2026-05-02T16:31:18Z</time></trkpt><trkpt lat="42.44901371696431" lon="-3.690853967120719"><ele>899.0</ele><time>2026-05-02T16:31:19Z</time></trkpt><trkpt lat="42.448906841323854" lon="-3.69086848348912"><ele>899.0</ele><time>2026-05-02T16:31:20Z</time></trkpt><trkpt lat="42.448797684955835" lon="-3.6908816962930406"><ele>899.0000000000001</ele><time>2026-05-02T16:31:21Z</time></trkpt><trkpt lat="42.44868930056351" lon="-3.6908939235156137"><ele>899.0000000000001</ele><time>2026-05-02T16:31:22Z</time></trkpt><trkpt lat="42.4485805250679" lon="-3.690905394499101"><ele>899.0</ele><time>2026-05-02T16:31:23Z</time></trkpt><trkpt lat="42.44846890938812" lon="-3.690919171104387"><ele>899.0</ele><time>2026-05-02T16:31:24Z</time></trkpt><trkpt lat="42.44836548697987" lon="-3.690948932979209"><ele>896.2</ele><time>2026-05-02T16:31:25Z</time></trkpt><trkpt lat="42.448305470312945" lon="-3.690979491243405"><ele>893.4000000000001</ele><time>2026-05-02T16:31:26Z</time></trkpt><trkpt lat="42.44823057468814" lon="-3.6909879547270923"><ele>890.6</ele><time>2026-05-02T16:31:27Z</time></trkpt><trkpt lat="42.4480314461232" lon="-3.690955617200115"><ele>887.8</ele><time>2026-05-02T16:31:28Z</time></trkpt><trkpt lat="42.4479269710331" lon="-3.6909672295469997"><ele>885.0</ele><time>2026-05-02T16:31:29Z</time></trkpt><trkpt lat="42.44781946145892" lon="-3.690973202514316"><ele>883.2</ele><time>2026-05-02T16:31:30Z</time></trkpt><trkpt lat="42.44771090173641" lon="-3.6909870809744487"><ele>881.4</ele><time>2026-05-02T16:31:31Z</time></trkpt><trkpt lat="42.4476005352809" lon="-3.691005267947297"><ele>879.5999999999999</ele><time>2026-05-02T16:31:32Z</time></trkpt><trkpt lat="42.447492178278736" lon="-3.6910183259696976"><ele>877.8</ele><time>2026-05-02T16:31:33Z</time></trkpt><trkpt lat="42.447383309796585" lon="-3.691023427317574"><ele>876.0</ele><time>2026-05-02T16:31:34Z</time></trkpt><trkpt lat="42.447273358198615" lon="-3.6910373528415255"><ele>876.0</ele><time>2026-05-02T16:31:35Z</time></trkpt><trkpt lat="42.447163537152385" lon="-3.6910502800198053"><ele>875.9999999999999</ele><time>2026-05-02T16:31:36Z</time></trkpt><trkpt lat="42.447049811937" lon="-3.6910659528722825"><ele>875.9999999999999</ele><time>2026-05-02T16:31:37.001Z</time></trkpt><trkpt lat="42.44693923395" lon="-3.6910847973007406"><ele>876.0</ele><time>2026-05-02T16:31:38.001Z</time></trkpt><trkpt lat="42.4468267246218" lon="-3.6910944772835133"><ele>876.0</ele><time>2026-05-02T16:31:39.001Z</time></trkpt><trkpt lat="42.44671850435133" lon="-3.691107859084607"><ele>875.1999999999999</ele><time>2026-05-02T16:31:40.001Z</time></trkpt><trkpt lat="42.44660642338778" lon="-3.691123405778065"><ele>874.3999999999999</ele><time>2026-05-02T16:31:41.001Z</time></trkpt><trkpt lat="42.44649844832504" lon="-3.6911390899619105"><ele>873.6</ele><time>2026-05-02T16:31:42.001Z</time></trkpt><trkpt lat="42.44638468345772" lon="-3.6911515335062535"><ele>872.8</ele><time>2026-05-02T16:31:43.001Z</time></trkpt><trkpt lat="42.44627522266084" lon="-3.6911642919389394"><ele>872.0</ele><time>2026-05-02T16:31:44.001Z</time></trkpt><trkpt lat="42.446169103481225" lon="-3.6911767843231873"><ele>871.2</ele><time>2026-05-02T16:31:45.001Z</time></trkpt><trkpt lat="42.44605730493749" lon="-3.6911935471859985"><ele>870.4000000000001</ele><time>2026-05-02T16:31:46.001Z</time></trkpt><trkpt lat="42.44594701360595" lon="-3.691208476691222"><ele>869.5999999999999</ele><time>2026-05-02T16:31:47.001Z</time></trkpt><trkpt lat="42.44584098190476" lon="-3.6912242354557585"><ele>868.8</ele><time>2026-05-02T16:31:48.001Z</time></trkpt><trkpt lat="42.445728951635495" lon="-3.69123811297577"><ele>868.0</ele><time>2026-05-02T16:31:49.001Z</time></trkpt><trkpt lat="42.44562068921972" lon="-3.691252039063284"><ele>868.0</ele><time>2026-05-02T16:31:50.001Z</time></trkpt><trkpt lat="42.44551395131663" lon="-3.69127196541029"><ele>868.0</ele><time>2026-05-02T16:31:51.001Z</time></trkpt><trkpt lat="42.44540331534382" lon="-3.6912914148023366"><ele>868.0</ele><time>2026-05-02T16:31:52.001Z</time></trkpt><trkpt lat="42.44529323873878" lon="-3.691305738362913"><ele>868.0</ele><time>2026-05-02T16:31:53.001Z</time></trkpt><trkpt lat="42.44518521092222" lon="-3.691323274256503"><ele>868.0</ele><time>2026-05-02T16:31:54.001Z</time></trkpt><trkpt lat="42.44507323362902" lon="-3.691339441549623"><ele>868.0</ele><time>2026-05-02T16:31:55.001Z</time></trkpt><trkpt lat="42.44496559529345" lon="-3.691354993368865"><ele>868.0</ele><time>2026-05-02T16:31:56.001Z</time></trkpt><trkpt lat="42.44485570422944" lon="-3.691374819813687"><ele>868.0</ele><time>2026-05-02T16:31:57.001Z</time></trkpt><trkpt lat="42.444744975093585" lon="-3.6913948372435255"><ele>868.0</ele><time>2026-05-02T16:31:58.001Z</time></trkpt><trkpt lat="42.444638039196306" lon="-3.6914114915514817"><ele>868.0</ele><time>2026-05-02T16:31:59.001Z</time></trkpt><trkpt lat="42.44453083207031" lon="-3.6914308236715665"><ele>867.5999999999999</ele><time>2026-05-02T16:32:00.001Z</time></trkpt><trkpt lat="42.44441635739557" lon="-3.6914474307919747"><ele>867.1999999999999</ele><time>2026-05-02T16:32:01.001Z</time></trkpt><trkpt lat="42.44430822844628" lon="-3.69146845121703"><ele>866.8</ele><time>2026-05-02T16:32:02.001Z</time></trkpt><trkpt lat="42.444199421518384" lon="-3.691491498024408"><ele>866.4</ele><time>2026-05-02T16:32:03.001Z</time></trkpt><trkpt lat="42.4440924601363" lon="-3.691511759485982"><ele>866.0</ele><time>2026-05-02T16:32:04.001Z</time></trkpt><trkpt lat="42.4439844999043" lon="-3.691528990956836"><ele>866.0</ele><time>2026-05-02T16:32:05.001Z</time></trkpt><trkpt lat="42.44387749774006" lon="-3.691548388853553"><ele>865.9999999999999</ele><time>2026-05-02T16:32:06.001Z</time></trkpt><trkpt lat="42.44377002650796" lon="-3.6915672460608437"><ele>865.9999999999999</ele><time>2026-05-02T16:32:07.001Z</time></trkpt><trkpt lat="42.44366387540161" lon="-3.6915909110751364"><ele>866.0</ele><time>2026-05-02T16:32:08.001Z</time></trkpt><trkpt lat="42.4435537764272" lon="-3.6916049144762226"><ele>866.0</ele><time>2026-05-02T16:32:09.001Z</time></trkpt><trkpt lat="42.44344592552909" lon="-3.6916292258763184"><ele>865.5999999999999</ele><time>2026-05-02T16:32:10.001Z</time></trkpt><trkpt lat="42.443338767180705" lon="-3.691650790943333"><ele>865.1999999999999</ele><time>2026-05-02T16:32:11.001Z</time></trkpt><trkpt lat="42.443231976944844" lon="-3.691669151034276"><ele>864.8000000000001</ele><time>2026-05-02T16:32:12.001Z</time></trkpt><trkpt lat="42.44312388991515" lon="-3.6916905938989517"><ele>864.4000000000001</ele><time>2026-05-02T16:32:13.001Z</time></trkpt><trkpt lat="42.443017311937425" lon="-3.691710460784661"><ele>864.0</ele><time>2026-05-02T16:32:14.001Z</time></trkpt><trkpt lat="42.4429113300215" lon="-3.691732687742412"><ele>864.0</ele><time>2026-05-02T16:32:15.001Z</time></trkpt><trkpt lat="42.44280377706617" lon="-3.691754541437195"><ele>864.0000000000001</ele><time>2026-05-02T16:32:16.001Z</time></trkpt><trkpt lat="42.44269607715895" lon="-3.6917778855671117"><ele>864.0000000000001</ele><time>2026-05-02T16:32:17.001Z</time></trkpt><trkpt lat="42.442589385721355" lon="-3.6917988517013036"><ele>864.0</ele><time>2026-05-02T16:32:18.001Z</time></trkpt><trkpt lat="42.44248170821621" lon="-3.691822371040485"><ele>864.0</ele><time>2026-05-02T16:32:19.001Z</time></trkpt><trkpt lat="42.442375396966426" lon="-3.6918447098781733"><ele>864.0</ele><time>2026-05-02T16:32:20.001Z</time></trkpt><trkpt lat="42.44226948412025" lon="-3.691865924883499"><ele>864.0000000000001</ele><time>2026-05-02T16:32:21.001Z</time></trkpt><trkpt lat="42.442162107743926" lon="-3.6918874338478114"><ele>864.0000000000001</ele><time>2026-05-02T16:32:22.001Z</time></trkpt><trkpt lat="42.44205538078037" lon="-3.6919116929751943"><ele>864.0</ele><time>2026-05-02T16:32:23.001Z</time></trkpt><trkpt lat="42.441947265389416" lon="-3.6919408921978887"><ele>864.0</ele><time>2026-05-02T16:32:24.001Z</time></trkpt><trkpt lat="42.44184129600552" lon="-3.6919674215094616"><ele>865.2</ele><time>2026-05-02T16:32:25.001Z</time></trkpt><trkpt lat="42.44173527655305" lon="-3.6919910485886844"><ele>866.4000000000001</ele><time>2026-05-02T16:32:26.001Z</time></trkpt><trkpt lat="42.441629950082906" lon="-3.692012759780734"><ele>867.6</ele><time>2026-05-02T16:32:27.001Z</time></trkpt><trkpt lat="42.441522155781534" lon="-3.692036109131957"><ele>868.8</ele><time>2026-05-02T16:32:28.001Z</time></trkpt><trkpt lat="42.441414971272536" lon="-3.6920584368144906"><ele>870.0</ele><time>2026-05-02T16:32:29.001Z</time></trkpt><trkpt lat="42.44130858586395" lon="-3.6920848275418248"><ele>870.0</ele><time>2026-05-02T16:32:30.001Z</time></trkpt><trkpt lat="42.441201554639775" lon="-3.6921117519434614"><ele>870.0</ele><time>2026-05-02T16:32:31.001Z</time></trkpt><trkpt lat="42.44109385441112" lon="-3.692139214362984"><ele>870.0</ele><time>2026-05-02T16:32:32.001Z</time></trkpt><trkpt lat="42.44098732092371" lon="-3.692166209391029"><ele>870.0</ele><time>2026-05-02T16:32:33.001Z</time></trkpt><trkpt lat="42.44087878338596" lon="-3.6921926630619657"><ele>870.0</ele><time>2026-05-02T16:32:34.001Z</time></trkpt><trkpt lat="42.44077258084846" lon="-3.6922144815613405"><ele>870.0</ele><time>2026-05-02T16:32:35Z</time></trkpt><trkpt lat="42.44066883066295" lon="-3.692225810882338"><ele>870.0</ele><time>2026-05-02T16:32:36Z</time></trkpt><trkpt lat="42.440599520617" lon="-3.692160098586427"><ele>870.0</ele><time>2026-05-02T16:32:37Z</time></trkpt><trkpt lat="42.44044756893915" lon="-3.6923020413756"><ele>870.0</ele><time>2026-05-02T16:32:38Z</time></trkpt><trkpt lat="42.440337476678906" lon="-3.692327956392539"><ele>870.4</ele><time>2026-05-02T16:32:39Z</time></trkpt><trkpt lat="42.44023195115655" lon="-3.6923532270241526"><ele>870.8</ele><time>2026-05-02T16:32:40Z</time></trkpt><trkpt lat="42.440128346447146" lon="-3.6923800855640163"><ele>871.2</ele><time>2026-05-02T16:32:41Z</time></trkpt><trkpt lat="42.44002064234213" lon="-3.692406857705892"><ele>871.6</ele><time>2026-05-02T16:32:42Z</time></trkpt><trkpt lat="42.43991070121807" lon="-3.6924334575447544"><ele>872.0</ele><time>2026-05-02T16:32:43Z</time></trkpt><trkpt lat="42.43980048007838" lon="-3.692458728091536"><ele>872.0</ele><time>2026-05-02T16:32:44Z</time></trkpt><trkpt lat="42.43969381500029" lon="-3.692484994990253"><ele>872.0</ele><time>2026-05-02T16:32:45Z</time></trkpt><trkpt lat="42.43958469454705" lon="-3.69251214487929"><ele>872.0</ele><time>2026-05-02T16:32:46Z</time></trkpt><trkpt lat="42.43947927707987" lon="-3.6925432337316706"><ele>872.0</ele><time>2026-05-02T16:32:47Z</time></trkpt><trkpt lat="42.439377590397264" lon="-3.692572539469568"><ele>872.0</ele><time>2026-05-02T16:32:48Z</time></trkpt><trkpt lat="42.43927114062685" lon="-3.692599209284552"><ele>872.6</ele><time>2026-05-02T16:32:49Z</time></trkpt><trkpt lat="42.43916586111908" lon="-3.6926294838903155"><ele>873.2</ele><time>2026-05-02T16:32:50Z</time></trkpt><trkpt lat="42.439061941047704" lon="-3.692667014270568"><ele>873.8</ele><time>2026-05-02T16:32:51Z</time></trkpt><trkpt lat="42.43895643901894" lon="-3.6926954428602685"><ele>874.4</ele><time>2026-05-02T16:32:52Z</time></trkpt><trkpt lat="42.43885054221737" lon="-3.6927282243356703"><ele>875.0</ele><time>2026-05-02T16:32:53Z</time></trkpt><trkpt lat="42.43874476829825" lon="-3.692761162651709"><ele>873.4</ele><time>2026-05-02T16:32:54Z</time></trkpt><trkpt lat="42.438638156475456" lon="-3.6927957884936893"><ele>871.8</ele><time>2026-05-02T16:32:55Z</time></trkpt><trkpt lat="42.43853124639926" lon="-3.692827775122602"><ele>870.2</ele><time>2026-05-02T16:32:56Z</time></trkpt><trkpt lat="42.43842339783884" lon="-3.6928594660386556"><ele>868.6</ele><time>2026-05-02T16:32:57Z</time></trkpt><trkpt lat="42.43831751284043" lon="-3.6928930839500254"><ele>867.0</ele><time>2026-05-02T16:32:58Z</time></trkpt><trkpt lat="42.438204912587615" lon="-3.692924559639782"><ele>867.0</ele><time>2026-05-02T16:32:59Z</time></trkpt><trkpt lat="42.43809774706863" lon="-3.6929587122975738"><ele>867.0</ele><time>2026-05-02T16:33:00Z</time></trkpt><trkpt lat="42.4379861908993" lon="-3.693002890372839"><ele>867.0</ele><time>2026-05-02T16:33:01Z</time></trkpt><trkpt lat="42.43788889710318" lon="-3.693045981957139"><ele>867.0</ele><time>2026-05-02T16:33:02Z</time></trkpt><trkpt lat="42.437837670127045" lon="-3.6930982798114846"><ele>867.0</ele><time>2026-05-02T16:33:03Z</time></trkpt><trkpt lat="42.43774333796296" lon="-3.6931039057141457"><ele>866.0</ele><time>2026-05-02T16:33:04Z</time></trkpt><trkpt lat="42.4375875397285" lon="-3.6931404699425943"><ele>865.0</ele><time>2026-05-02T16:33:05Z</time></trkpt><trkpt lat="42.43747707595888" lon="-3.6931662736975537"><ele>864.0</ele><time>2026-05-02T16:33:06Z</time></trkpt><trkpt lat="42.43736175330505" lon="-3.6932015532348825"><ele>863.0</ele><time>2026-05-02T16:33:07Z</time></trkpt><trkpt lat="42.4372417362729" lon="-3.6932306700401307"><ele>862.0</ele><time>2026-05-02T16:33:08Z</time></trkpt><trkpt lat="42.43708519546952" lon="-3.6932513719271105"><ele>861.0</ele><time>2026-05-02T16:33:09Z</time></trkpt><trkpt lat="42.436937644631385" lon="-3.693267484772273"><ele>860.0</ele><time>2026-05-02T16:33:10Z</time></trkpt><trkpt lat="42.436695963640176" lon="-3.693372731522163"><ele>860.0</ele><time>2026-05-02T16:33:13Z</time></trkpt><trkpt lat="42.43658616209705" lon="-3.6934006061974314"><ele>860.0</ele><time>2026-05-02T16:33:14Z</time></trkpt><trkpt lat="42.436477651835744" lon="-3.6934319075381414"><ele>860.0</ele><time>2026-05-02T16:33:15Z</time></trkpt><trkpt lat="42.4363700487361" lon="-3.6934618239185157"><ele>860.0</ele><time>2026-05-02T16:33:16Z</time></trkpt><trkpt lat="42.436262553971034" lon="-3.693489406817627"><ele>860.0</ele><time>2026-05-02T16:33:17Z</time></trkpt><trkpt lat="42.43615499943136" lon="-3.6935150578238387"><ele>859.8</ele><time>2026-05-02T16:33:18Z</time></trkpt><trkpt lat="42.436052239848074" lon="-3.6935399328934517"><ele>859.6</ele><time>2026-05-02T16:33:19Z</time></trkpt><trkpt lat="42.435948321164226" lon="-3.6935592825495274"><ele>859.4000000000001</ele><time>2026-05-02T16:33:20Z</time></trkpt><trkpt lat="42.4358392545354" lon="-3.6935803391624193"><ele>859.2</ele><time>2026-05-02T16:33:21Z</time></trkpt><trkpt lat="42.43573142969008" lon="-3.693610758822666"><ele>859.0</ele><time>2026-05-02T16:33:22Z</time></trkpt><trkpt lat="42.43562075234957" lon="-3.693640660876747"><ele>859.0</ele><time>2026-05-02T16:33:23Z</time></trkpt><trkpt lat="42.43551135170302" lon="-3.693672488305004"><ele>859.0000000000001</ele><time>2026-05-02T16:33:24Z</time></trkpt><trkpt lat="42.435408515540516" lon="-3.6936977411567207"><ele>859.0000000000001</ele><time>2026-05-02T16:33:25Z</time></trkpt><trkpt lat="42.43530003748495" lon="-3.6937250683639364"><ele>859.0</ele><time>2026-05-02T16:33:26Z</time></trkpt><trkpt lat="42.43518932364426" lon="-3.6937561223221596"><ele>859.0</ele><time>2026-05-02T16:33:27Z</time></trkpt><trkpt lat="42.435082204019785" lon="-3.693785564391162"><ele>858.8000000000001</ele><time>2026-05-02T16:33:28Z</time></trkpt><trkpt lat="42.43497627119069" lon="-3.6938096100168956"><ele>858.6000000000001</ele><time>2026-05-02T16:33:29Z</time></trkpt><trkpt lat="42.434874448133925" lon="-3.693833063854292"><ele>858.4</ele><time>2026-05-02T16:33:30Z</time></trkpt><trkpt lat="42.43476847637262" lon="-3.6938610347288003"><ele>858.2</ele><time>2026-05-02T16:33:31Z</time></trkpt><trkpt lat="42.434662927997906" lon="-3.693883800779761"><ele>858.0</ele><time>2026-05-02T16:33:32.001Z</time></trkpt><trkpt lat="42.43455574257698" lon="-3.6939092064143892"><ele>857.4</ele><time>2026-05-02T16:33:33.001Z</time></trkpt><trkpt lat="42.434447280096876" lon="-3.6939321166873316"><ele>856.8</ele><time>2026-05-02T16:33:34.001Z</time></trkpt><trkpt lat="42.43434725953922" lon="-3.6939559953480923"><ele>856.2</ele><time>2026-05-02T16:33:35.001Z</time></trkpt><trkpt lat="42.4342395086421" lon="-3.693979858553121"><ele>855.6</ele><time>2026-05-02T16:33:36.001Z</time></trkpt><trkpt lat="42.434135620136104" lon="-3.694009713756019"><ele>855.0</ele><time>2026-05-02T16:33:37.001Z</time></trkpt><trkpt lat="42.43402884700357" lon="-3.6940366997235703"><ele>855.0</ele><time>2026-05-02T16:33:38.001Z</time></trkpt><trkpt lat="42.433920211997325" lon="-3.694059355739024"><ele>855.0</ele><time>2026-05-02T16:33:39.001Z</time></trkpt><trkpt lat="42.43381189702477" lon="-3.6940823454938605"><ele>855.0</ele><time>2026-05-02T16:33:40.001Z</time></trkpt><trkpt lat="42.43370260594029" lon="-3.6941120498087594"><ele>855.0</ele><time>2026-05-02T16:33:41.001Z</time></trkpt><trkpt lat="42.43359298569228" lon="-3.694127138317405"><ele>855.0</ele><time>2026-05-02T16:33:42.001Z</time></trkpt><trkpt lat="42.43348487275765" lon="-3.694149193364911"><ele>855.2</ele><time>2026-05-02T16:33:43.001Z</time></trkpt><trkpt lat="42.4333801469408" lon="-3.694169647778285"><ele>855.4</ele><time>2026-05-02T16:33:44.001Z</time></trkpt><trkpt lat="42.43327260262553" lon="-3.6942012810842613"><ele>855.5999999999999</ele><time>2026-05-02T16:33:45.001Z</time></trkpt><trkpt lat="42.433164701214416" lon="-3.694220011838217"><ele>855.8</ele><time>2026-05-02T16:33:46.001Z</time></trkpt><trkpt lat="42.43305781662565" lon="-3.694236030630231"><ele>856.0</ele><time>2026-05-02T16:33:47.001Z</time></trkpt><trkpt lat="42.43294895050874" lon="-3.694261279074544"><ele>856.0</ele><time>2026-05-02T16:33:48.001Z</time></trkpt><trkpt lat="42.432840430798855" lon="-3.6942855587623047"><ele>855.9999999999999</ele><time>2026-05-02T16:33:49.001Z</time></trkpt><trkpt lat="42.43273372137427" lon="-3.6943045889907578"><ele>855.9999999999999</ele><time>2026-05-02T16:33:50.001Z</time></trkpt><trkpt lat="42.43262490291786" lon="-3.694323877051561"><ele>856.0</ele><time>2026-05-02T16:33:51.001Z</time></trkpt><trkpt lat="42.43251722408357" lon="-3.6943447478618334"><ele>856.0</ele><time>2026-05-02T16:33:52.001Z</time></trkpt><trkpt lat="42.43241011839867" lon="-3.69436450069412"><ele>856.0</ele><time>2026-05-02T16:33:53.001Z</time></trkpt><trkpt lat="42.432304248069094" lon="-3.694385467892934"><ele>855.9999999999999</ele><time>2026-05-02T16:33:54.001Z</time></trkpt><trkpt lat="42.43219795950824" lon="-3.6944104996246376"><ele>855.9999999999999</ele><time>2026-05-02T16:33:55.001Z</time></trkpt><trkpt lat="42.432089871352886" lon="-3.6944284092626067"><ele>856.0</ele><time>2026-05-02T16:33:56.001Z</time></trkpt><trkpt lat="42.431982805879834" lon="-3.694445842896935"><ele>856.0</ele><time>2026-05-02T16:33:57.001Z</time></trkpt><trkpt lat="42.43187666619038" lon="-3.694466297596433"><ele>855.4</ele><time>2026-05-02T16:33:58.001Z</time></trkpt><trkpt lat="42.43176849544881" lon="-3.6944814982116716"><ele>854.8</ele><time>2026-05-02T16:33:59.001Z</time></trkpt><trkpt lat="42.431660951119305" lon="-3.6945043566380313"><ele>854.1999999999999</ele><time>2026-05-02T16:34:00.001Z</time></trkpt><trkpt lat="42.43155473730415" lon="-3.6945264432036886"><ele>853.5999999999999</ele><time>2026-05-02T16:34:01.001Z</time></trkpt><trkpt lat="42.43144813089622" lon="-3.6945422885584676"><ele>853.0</ele><time>2026-05-02T16:34:02.001Z</time></trkpt><trkpt lat="42.43134387882132" lon="-3.694558456161495"><ele>853.0</ele><time>2026-05-02T16:34:03.001Z</time></trkpt><trkpt lat="42.4312361416138" lon="-3.6945748083184893"><ele>853.0</ele><time>2026-05-02T16:34:04.001Z</time></trkpt><trkpt lat="42.4311286568366" lon="-3.6945930312678725"><ele>853.0</ele><time>2026-05-02T16:34:05.001Z</time></trkpt><trkpt lat="42.43102429281847" lon="-3.694609166042103"><ele>853.0</ele><time>2026-05-02T16:34:06.001Z</time></trkpt><trkpt lat="42.43091771441183" lon="-3.6946305213570576"><ele>853.0</ele><time>2026-05-02T16:34:07.001Z</time></trkpt><trkpt lat="42.430809519468205" lon="-3.6946435494284597"><ele>853.0</ele><time>2026-05-02T16:34:08.001Z</time></trkpt><trkpt lat="42.430702579607505" lon="-3.6946598716051424"><ele>853.0</ele><time>2026-05-02T16:34:09.001Z</time></trkpt><trkpt lat="42.430595208087524" lon="-3.694676554108794"><ele>853.0</ele><time>2026-05-02T16:34:10.001Z</time></trkpt><trkpt lat="42.430484551205346" lon="-3.694685607776555"><ele>853.0</ele><time>2026-05-02T16:34:11.001Z</time></trkpt><trkpt lat="42.430370866382255" lon="-3.6946988207274343"><ele>853.0</ele><time>2026-05-02T16:34:12.001Z</time></trkpt><trkpt lat="42.43025509363529" lon="-3.694723019165074"><ele>853.2</ele><time>2026-05-02T16:34:13.001Z</time></trkpt><trkpt lat="42.43011533522518" lon="-3.6947863900244204"><ele>853.4</ele><time>2026-05-02T16:34:14.001Z</time></trkpt><trkpt lat="42.43004391390735" lon="-3.6947502774386516"><ele>853.6000000000001</ele><time>2026-05-02T16:34:15.001Z</time></trkpt><trkpt lat="42.429930456043195" lon="-3.6947666297050743"><ele>853.8000000000001</ele><time>2026-05-02T16:34:16.001Z</time></trkpt><trkpt lat="42.42982099444409" lon="-3.6947814132354257"><ele>854.0</ele><time>2026-05-02T16:34:17.001Z</time></trkpt><trkpt lat="42.42971091168947" lon="-3.6947997565384427"><ele>853.8000000000001</ele><time>2026-05-02T16:34:18.001Z</time></trkpt><trkpt lat="42.42960152339743" lon="-3.6948106377447427"><ele>853.6000000000001</ele><time>2026-05-02T16:34:19.001Z</time></trkpt><trkpt lat="42.42948984814369" lon="-3.6948252842024396"><ele>853.4</ele><time>2026-05-02T16:34:20.001Z</time></trkpt><trkpt lat="42.42937610284699" lon="-3.694835389184891"><ele>853.2</ele><time>2026-05-02T16:34:21.001Z</time></trkpt><trkpt lat="42.429269183919665" lon="-3.6948481452703357"><ele>853.0</ele><time>2026-05-02T16:34:22.001Z</time></trkpt><trkpt lat="42.42916068763317" lon="-3.6948656503297475"><ele>853.0</ele><time>2026-05-02T16:34:23.001Z</time></trkpt><trkpt lat="42.429052782744265" lon="-3.694879794804197"><ele>853.0</ele><time>2026-05-02T16:34:24.001Z</time></trkpt><trkpt lat="42.42894549044047" lon="-3.694891709668056"><ele>853.0</ele><time>2026-05-02T16:34:25.001Z</time></trkpt><trkpt lat="42.428835385940566" lon="-3.694903743180487"><ele>853.0</ele><time>2026-05-02T16:34:26.001Z</time></trkpt><trkpt lat="42.428728628822235" lon="-3.6949114903321085"><ele>853.0</ele><time>2026-05-02T16:34:27.001Z</time></trkpt><trkpt lat="42.428616116810694" lon="-3.6949279925182545"><ele>853.4</ele><time>2026-05-02T16:34:28.001Z</time></trkpt><trkpt lat="42.42850706739952" lon="-3.694938854051754"><ele>853.8</ele><time>2026-05-02T16:34:29.001Z</time></trkpt><trkpt lat="42.42839839562039" lon="-3.694952543445644"><ele>854.2</ele><time>2026-05-02T16:34:30.001Z</time></trkpt><trkpt lat="42.4282943354511" lon="-3.694958255045925"><ele>854.6</ele><time>2026-05-02T16:34:31.001Z</time></trkpt><trkpt lat="42.42818232492759" lon="-3.6949645601266092"><ele>855.0</ele><time>2026-05-02T16:34:32.001Z</time></trkpt><trkpt lat="42.42807311113717" lon="-3.6949774240885223"><ele>856.0</ele><time>2026-05-02T16:34:33.001Z</time></trkpt><trkpt lat="42.42795702871768" lon="-3.6949916897102253"><ele>857.0</ele><time>2026-05-02T16:34:34.001Z</time></trkpt><trkpt lat="42.42784474115241" lon="-3.695004280411753"><ele>858.0</ele><time>2026-05-02T16:34:35.001Z</time></trkpt><trkpt lat="42.427735131377304" lon="-3.695011283401643"><ele>859.0</ele><time>2026-05-02T16:34:36.001Z</time></trkpt><trkpt lat="42.42762347072267" lon="-3.6950178003235443"><ele>859.0</ele><time>2026-05-02T16:34:37.001Z</time></trkpt><trkpt lat="42.427513552226706" lon="-3.6950265031780822"><ele>859.0000000000001</ele><time>2026-05-02T16:34:38.001Z</time></trkpt><trkpt lat="42.42740027705187" lon="-3.6950367626319727"><ele>859.0000000000001</ele><time>2026-05-02T16:34:39.001Z</time></trkpt><trkpt lat="42.42729328977406" lon="-3.6950428077927104"><ele>859.0</ele><time>2026-05-02T16:34:40.001Z</time></trkpt><trkpt lat="42.42718460087368" lon="-3.6950537294244623"><ele>859.0</ele><time>2026-05-02T16:34:41Z</time></trkpt><trkpt lat="42.42707321619064" lon="-3.6950672562332585"><ele>858.8000000000001</ele><time>2026-05-02T16:34:42Z</time></trkpt><trkpt lat="42.426964346596954" lon="-3.695077398357846"><ele>858.6000000000001</ele><time>2026-05-02T16:34:43Z</time></trkpt><trkpt lat="42.4268498674022" lon="-3.6950853195248983"><ele>858.4</ele><time>2026-05-02T16:34:44Z</time></trkpt><trkpt lat="42.42673985080065" lon="-3.69509700738806"><ele>858.2</ele><time>2026-05-02T16:34:45Z</time></trkpt><trkpt lat="42.426630268316885" lon="-3.6951043391379437"><ele>858.0</ele><time>2026-05-02T16:34:46Z</time></trkpt><trkpt lat="42.42651915068784" lon="-3.6951160372894343"><ele>858.0</ele><time>2026-05-02T16:34:47Z</time></trkpt><trkpt lat="42.426409447755375" lon="-3.6951265147968795"><ele>858.0</ele><time>2026-05-02T16:34:48Z</time></trkpt><trkpt lat="42.42629964571956" lon="-3.69514238849944"><ele>858.0</ele><time>2026-05-02T16:34:49Z</time></trkpt><trkpt lat="42.426187990304044" lon="-3.6951541316930157"><ele>858.0</ele><time>2026-05-02T16:34:50Z</time></trkpt><trkpt lat="42.42607730507759" lon="-3.695164730027274"><ele>858.0</ele><time>2026-05-02T16:34:51Z</time></trkpt><trkpt lat="42.425968281515765" lon="-3.6951751367179346"><ele>857.5</ele><time>2026-05-02T16:34:52Z</time></trkpt><trkpt lat="42.4258571411384" lon="-3.695193468054494"><ele>857.0</ele><time>2026-05-02T16:34:53Z</time></trkpt><trkpt lat="42.425747262072" lon="-3.6951994721035497"><ele>856.5</ele><time>2026-05-02T16:34:54Z</time></trkpt><trkpt lat="42.42563230622178" lon="-3.6952091922977175"><ele>856.0</ele><time>2026-05-02T16:34:55Z</time></trkpt><trkpt lat="42.42551976490222" lon="-3.6952251993064062"><ele>855.8</ele><time>2026-05-02T16:34:56Z</time></trkpt><trkpt lat="42.42540832307509" lon="-3.6952372399290168"><ele>855.5999999999999</ele><time>2026-05-02T16:34:57Z</time></trkpt><trkpt lat="42.42530133299571" lon="-3.6952506976973765"><ele>855.4</ele><time>2026-05-02T16:34:58Z</time></trkpt><trkpt lat="42.42519921113102" lon="-3.6952638520258336"><ele>855.2</ele><time>2026-05-02T16:34:59Z</time></trkpt><trkpt lat="42.42507943333197" lon="-3.695282744026845"><ele>855.0</ele><time>2026-05-02T16:35:00Z</time></trkpt><trkpt lat="42.424982505099265" lon="-3.6953242625558165"><ele>855.0</ele><time>2026-05-02T16:35:01Z</time></trkpt><trkpt lat="42.42488474038347" lon="-3.695333786380992"><ele>855.0</ele><time>2026-05-02T16:35:02Z</time></trkpt><trkpt lat="42.42480482495793" lon="-3.695372028216729"><ele>855.0</ele><time>2026-05-02T16:35:03Z</time></trkpt><trkpt lat="42.42474023624724" lon="-3.6953981950711468"><ele>855.0</ele><time>2026-05-02T16:35:04Z</time></trkpt><trkpt lat="42.42465425865749" lon="-3.695375995790436"><ele>855.0</ele><time>2026-05-02T16:35:05Z</time></trkpt><trkpt lat="42.42442770253032" lon="-3.6953634256481593"><ele>854.4</ele><time>2026-05-02T16:35:06Z</time></trkpt><trkpt lat="42.4243154689234" lon="-3.695383060099615"><ele>853.8</ele><time>2026-05-02T16:35:07Z</time></trkpt><trkpt lat="42.424208075653965" lon="-3.695397154383533"><ele>853.2</ele><time>2026-05-02T16:35:08Z</time></trkpt><trkpt lat="42.42409776805983" lon="-3.6954096787822404"><ele>852.6</ele><time>2026-05-02T16:35:09Z</time></trkpt><trkpt lat="42.42398882002998" lon="-3.6954280175036556"><ele>852.0</ele><time>2026-05-02T16:35:10Z</time></trkpt><trkpt lat="42.42387830191883" lon="-3.695442724521912"><ele>851.8</ele><time>2026-05-02T16:35:11Z</time></trkpt><trkpt lat="42.42376647697541" lon="-3.695460999790439"><ele>851.6</ele><time>2026-05-02T16:35:12Z</time></trkpt><trkpt lat="42.42365740054185" lon="-3.695478150641132"><ele>851.4</ele><time>2026-05-02T16:35:13Z</time></trkpt><trkpt lat="42.42355063515064" lon="-3.6954888377736532"><ele>851.1999999999999</ele><time>2026-05-02T16:35:14Z</time></trkpt><trkpt lat="42.42343941977437" lon="-3.6955054224043664"><ele>851.0</ele><time>2026-05-02T16:35:15Z</time></trkpt><trkpt lat="42.42333117488768" lon="-3.6955236283999953"><ele>851.0</ele><time>2026-05-02T16:35:16Z</time></trkpt><trkpt lat="42.423223919962794" lon="-3.6955386464145654"><ele>851.0</ele><time>2026-05-02T16:35:17Z</time></trkpt><trkpt lat="42.42311601145196" lon="-3.6955561730655826"><ele>851.0</ele><time>2026-05-02T16:35:18Z</time></trkpt><trkpt lat="42.4230096909966" lon="-3.6955728746610084"><ele>851.0</ele><time>2026-05-02T16:35:19Z</time></trkpt><trkpt lat="42.42290152899038" lon="-3.6955969981553434"><ele>851.0</ele><time>2026-05-02T16:35:20Z</time></trkpt><trkpt lat="42.42279294012902" lon="-3.695614018283478"><ele>850.8</ele><time>2026-05-02T16:35:21Z</time></trkpt><trkpt lat="42.422686884389094" lon="-3.6956320870368766"><ele>850.5999999999999</ele><time>2026-05-02T16:35:22Z</time></trkpt><trkpt lat="42.42258293822565" lon="-3.695647283007537"><ele>850.4</ele><time>2026-05-02T16:35:23Z</time></trkpt><trkpt lat="42.422477846307146" lon="-3.6956632477941795"><ele>850.2</ele><time>2026-05-02T16:35:24Z</time></trkpt><trkpt lat="42.422373299584166" lon="-3.6956845289243754"><ele>850.0</ele><time>2026-05-02T16:35:25Z</time></trkpt><trkpt lat="42.42226583047955" lon="-3.695703729731612"><ele>850.0</ele><time>2026-05-02T16:35:26Z</time></trkpt><trkpt lat="42.42216304906118" lon="-3.695724361367666"><ele>850.0</ele><time>2026-05-02T16:35:27Z</time></trkpt><trkpt lat="42.422058487272935" lon="-3.6957418551572494"><ele>850.0</ele><time>2026-05-02T16:35:28Z</time></trkpt><trkpt lat="42.42195566506374" lon="-3.695762357841578"><ele>850.0</ele><time>2026-05-02T16:35:29Z</time></trkpt><trkpt lat="42.42185099155276" lon="-3.6957805093406626"><ele>850.0</ele><time>2026-05-02T16:35:30Z</time></trkpt><trkpt lat="42.42174848612162" lon="-3.6958012333274604"><ele>850.0</ele><time>2026-05-02T16:35:31Z</time></trkpt><trkpt lat="42.42164452015933" lon="-3.6958249473339015"><ele>850.0</ele><time>2026-05-02T16:35:32Z</time></trkpt><trkpt lat="42.421540148486216" lon="-3.695844350790027"><ele>850.0</ele><time>2026-05-02T16:35:33Z</time></trkpt><trkpt lat="42.42143723605191" lon="-3.69586520518992"><ele>850.0</ele><time>2026-05-02T16:35:34Z</time></trkpt><trkpt lat="42.42133157956355" lon="-3.6958829760694285"><ele>850.0</ele><time>2026-05-02T16:35:35Z</time></trkpt><trkpt lat="42.42122780507599" lon="-3.695904540623763"><ele>850.0</ele><time>2026-05-02T16:35:36Z</time></trkpt><trkpt lat="42.421121260243126" lon="-3.6959287828103307"><ele>850.0</ele><time>2026-05-02T16:35:37Z</time></trkpt><trkpt lat="42.42101839844452" lon="-3.695951858857524"><ele>850.0</ele><time>2026-05-02T16:35:38Z</time></trkpt><trkpt lat="42.42091256433003" lon="-3.6959687442891473"><ele>850.0</ele><time>2026-05-02T16:35:39.001Z</time></trkpt><trkpt lat="42.42080758788352" lon="-3.6959932513572866"><ele>850.0</ele><time>2026-05-02T16:35:40.001Z</time></trkpt><trkpt lat="42.42070172089934" lon="-3.6960170397545555"><ele>850.0</ele><time>2026-05-02T16:35:41.001Z</time></trkpt><trkpt lat="42.42059556731056" lon="-3.696040082389334"><ele>850.0</ele><time>2026-05-02T16:35:42.001Z</time></trkpt><trkpt lat="42.420487387025304" lon="-3.6960655949697068"><ele>850.0</ele><time>2026-05-02T16:35:43.001Z</time></trkpt><trkpt lat="42.42038201977422" lon="-3.696089780525714"><ele>850.0</ele><time>2026-05-02T16:35:44.001Z</time></trkpt><trkpt lat="42.42027359463731" lon="-3.696111288034578"><ele>850.0</ele><time>2026-05-02T16:35:45.001Z</time></trkpt><trkpt lat="42.42016396870274" lon="-3.6961344111020473"><ele>849.2</ele><time>2026-05-02T16:35:46.001Z</time></trkpt><trkpt lat="42.42006157644164" lon="-3.696157338243067"><ele>848.4</ele><time>2026-05-02T16:35:47.001Z</time></trkpt><trkpt lat="42.419953532107066" lon="-3.69618084141429"><ele>847.5999999999999</ele><time>2026-05-02T16:35:48.001Z</time></trkpt><trkpt lat="42.41984352820658" lon="-3.6962110498191367"><ele>846.8</ele><time>2026-05-02T16:35:49.001Z</time></trkpt><trkpt lat="42.41974091925986" lon="-3.6962340337074227"><ele>846.0</ele><time>2026-05-02T16:35:50.001Z</time></trkpt><trkpt lat="42.41963761404446" lon="-3.6962577333905156"><ele>846.0</ele><time>2026-05-02T16:35:51.001Z</time></trkpt><trkpt lat="42.419537662250114" lon="-3.69628431399351"><ele>846.0</ele><time>2026-05-02T16:35:52.001Z</time></trkpt><trkpt lat="42.419433932437315" lon="-3.6963111035656606"><ele>846.0</ele><time>2026-05-02T16:35:53.001Z</time></trkpt><trkpt lat="42.41933049513805" lon="-3.6963378068125103"><ele>846.0</ele><time>2026-05-02T16:35:54.001Z</time></trkpt><trkpt lat="42.419225914900046" lon="-3.6963607029916217"><ele>846.0</ele><time>2026-05-02T16:35:55.001Z</time></trkpt><trkpt lat="42.41911988994997" lon="-3.696383871887728"><ele>846.0</ele><time>2026-05-02T16:35:56.001Z</time></trkpt><trkpt lat="42.41901624461019" lon="-3.6964042206745225"><ele>846.0</ele><time>2026-05-02T16:35:57.001Z</time></trkpt><trkpt lat="42.41890975498385" lon="-3.696425572280534"><ele>846.0</ele><time>2026-05-02T16:35:58.001Z</time></trkpt><trkpt lat="42.41880472086194" lon="-3.6964462561686067"><ele>846.0</ele><time>2026-05-02T16:35:59.001Z</time></trkpt><trkpt lat="42.418699007410666" lon="-3.6964724411419625"><ele>846.0</ele><time>2026-05-02T16:36:00.001Z</time></trkpt><trkpt lat="42.41859132726154" lon="-3.696496959464819"><ele>846.0</ele><time>2026-05-02T16:36:01.001Z</time></trkpt><trkpt lat="42.41848405092846" lon="-3.6965198783893065"><ele>846.0</ele><time>2026-05-02T16:36:02.001Z</time></trkpt><trkpt lat="42.41837779442054" lon="-3.6965398646150653"><ele>846.0</ele><time>2026-05-02T16:36:03.001Z</time></trkpt><trkpt lat="42.41827136435714" lon="-3.696559833026977"><ele>846.0</ele><time>2026-05-02T16:36:04.001Z</time></trkpt><trkpt lat="42.418164464431186" lon="-3.696582214929112"><ele>846.0</ele><time>2026-05-02T16:36:05.001Z</time></trkpt><trkpt lat="42.41805802429229" lon="-3.6966026974457025"><ele>846.1999999999999</ele><time>2026-05-02T16:36:06.001Z</time></trkpt><trkpt lat="42.41795384386013" lon="-3.6966263713019423"><ele>846.4</ele><time>2026-05-02T16:36:07.001Z</time></trkpt><trkpt lat="42.41784896682963" lon="-3.696645703548017"><ele>846.6</ele><time>2026-05-02T16:36:08.001Z</time></trkpt><trkpt lat="42.417742797290884" lon="-3.6966641215502607"><ele>846.8</ele><time>2026-05-02T16:36:09.001Z</time></trkpt><trkpt lat="42.41763679794365" lon="-3.696684543697337"><ele>847.0</ele><time>2026-05-02T16:36:10.001Z</time></trkpt><trkpt lat="42.41752859206266" lon="-3.696704145185955"><ele>847.0</ele><time>2026-05-02T16:36:11.001Z</time></trkpt><trkpt lat="42.41741938759799" lon="-3.6967237092743606"><ele>847.0</ele><time>2026-05-02T16:36:12.001Z</time></trkpt><trkpt lat="42.41731240204159" lon="-3.69674469817784"><ele>847.0</ele><time>2026-05-02T16:36:13.001Z</time></trkpt><trkpt lat="42.4172057876576" lon="-3.69676122632517"><ele>847.0</ele><time>2026-05-02T16:36:14.001Z</time></trkpt><trkpt lat="42.41709842289885" lon="-3.6967822542180997"><ele>847.0</ele><time>2026-05-02T16:36:15.001Z</time></trkpt><trkpt lat="42.41699174670029" lon="-3.696802299957436"><ele>846.8</ele><time>2026-05-02T16:36:16.001Z</time></trkpt><trkpt lat="42.416885548954134" lon="-3.69682142009536"><ele>846.6</ele><time>2026-05-02T16:36:17.001Z</time></trkpt><trkpt lat="42.416778753359026" lon="-3.69684069400521"><ele>846.4</ele><time>2026-05-02T16:36:18.001Z</time></trkpt><trkpt lat="42.41667220367241" lon="-3.696857106849441"><ele>846.1999999999999</ele><time>2026-05-02T16:36:19.001Z</time></trkpt><trkpt lat="42.416565715782085" lon="-3.6968744764112755"><ele>846.0</ele><time>2026-05-02T16:36:20.001Z</time></trkpt><trkpt lat="42.416459642387835" lon="-3.696890913141229"><ele>846.0</ele><time>2026-05-02T16:36:21.001Z</time></trkpt><trkpt lat="42.41635493356969" lon="-3.6969080651484187"><ele>846.0</ele><time>2026-05-02T16:36:22.001Z</time></trkpt><trkpt lat="42.41624970439473" lon="-3.696928633773313"><ele>846.0</ele><time>2026-05-02T16:36:23.001Z</time></trkpt><trkpt lat="42.41614409608642" lon="-3.696941697190577"><ele>846.0</ele><time>2026-05-02T16:36:24.001Z</time></trkpt><trkpt lat="42.41603824528285" lon="-3.696963489222602"><ele>846.0</ele><time>2026-05-02T16:36:25.001Z</time></trkpt><trkpt lat="42.415931567707176" lon="-3.696980832006908"><ele>845.8</ele><time>2026-05-02T16:36:26.001Z</time></trkpt><trkpt lat="42.41582509377238" lon="-3.697000582513068"><ele>845.5999999999999</ele><time>2026-05-02T16:36:27.001Z</time></trkpt><trkpt lat="42.41571946379841" lon="-3.6970139792025654"><ele>845.4</ele><time>2026-05-02T16:36:28.001Z</time></trkpt><trkpt lat="42.41561406182447" lon="-3.6970301538940027"><ele>845.2</ele><time>2026-05-02T16:36:29.001Z</time></trkpt><trkpt lat="42.41550702328975" lon="-3.69704625531925"><ele>845.0</ele><time>2026-05-02T16:36:30.001Z</time></trkpt><trkpt lat="42.41540004377225" lon="-3.6970596951638584"><ele>845.4</ele><time>2026-05-02T16:36:31.001Z</time></trkpt><trkpt lat="42.41529289054704" lon="-3.697074215545018"><ele>845.8</ele><time>2026-05-02T16:36:32.001Z</time></trkpt><trkpt lat="42.41518517391473" lon="-3.697088094985108"><ele>846.2</ele><time>2026-05-02T16:36:33.001Z</time></trkpt><trkpt lat="42.415077548760365" lon="-3.6971029539985967"><ele>846.6</ele><time>2026-05-02T16:36:34.001Z</time></trkpt><trkpt lat="42.41497070441771" lon="-3.6971195325022843"><ele>847.0</ele><time>2026-05-02T16:36:35.001Z</time></trkpt><trkpt lat="42.41486344667612" lon="-3.697134501262958"><ele>847.0</ele><time>2026-05-02T16:36:36.001Z</time></trkpt><trkpt lat="42.41475206918888" lon="-3.697145259846286"><ele>847.0</ele><time>2026-05-02T16:36:37.001Z</time></trkpt><trkpt lat="42.41464501851392" lon="-3.697160210758121"><ele>847.0</ele><time>2026-05-02T16:36:38.001Z</time></trkpt><trkpt lat="42.41453544956728" lon="-3.6971789875409664"><ele>847.0</ele><time>2026-05-02T16:36:39.001Z</time></trkpt><trkpt lat="42.41442604594684" lon="-3.6971892213685007"><ele>847.0</ele><time>2026-05-02T16:36:40.001Z</time></trkpt><trkpt lat="42.41431913674441" lon="-3.6972050263349163"><ele>846.8</ele><time>2026-05-02T16:36:41.001Z</time></trkpt><trkpt lat="42.41421188905268" lon="-3.6972194479148746"><ele>846.6</ele><time>2026-05-02T16:36:42.001Z</time></trkpt><trkpt lat="42.4141056676556" lon="-3.697232271044802"><ele>846.4</ele><time>2026-05-02T16:36:43.001Z</time></trkpt><trkpt lat="42.41399808078379" lon="-3.697243621669324"><ele>846.1999999999999</ele><time>2026-05-02T16:36:44.001Z</time></trkpt><trkpt lat="42.41388992254541" lon="-3.6972549580588123"><ele>846.0</ele><time>2026-05-02T16:36:45.001Z</time></trkpt><trkpt lat="42.41378332983701" lon="-3.697269660633933"><ele>846.0</ele><time>2026-05-02T16:36:46.001Z</time></trkpt><trkpt lat="42.41367413293159" lon="-3.697282260475112"><ele>846.0</ele><time>2026-05-02T16:36:47Z</time></trkpt><trkpt lat="42.41356621357435" lon="-3.697292940287797"><ele>846.0</ele><time>2026-05-02T16:36:48Z</time></trkpt><trkpt lat="42.41345858371104" lon="-3.6973048079861432"><ele>846.0</ele><time>2026-05-02T16:36:49Z</time></trkpt><trkpt lat="42.413352214204" lon="-3.6973195350476105"><ele>846.0</ele><time>2026-05-02T16:36:50Z</time></trkpt><trkpt lat="42.41324393273474" lon="-3.6973376662689"><ele>846.0</ele><time>2026-05-02T16:36:51Z</time></trkpt><trkpt lat="42.41313640510378" lon="-3.697345400287381"><ele>846.0</ele><time>2026-05-02T16:36:52Z</time></trkpt><trkpt lat="42.41303024199969" lon="-3.6973525624555563"><ele>846.0</ele><time>2026-05-02T16:36:53Z</time></trkpt><trkpt lat="42.41292438685907" lon="-3.6973636961213607"><ele>846.0</ele><time>2026-05-02T16:36:54Z</time></trkpt><trkpt lat="42.41281652245901" lon="-3.6973736636615007"><ele>846.0</ele><time>2026-05-02T16:36:55Z</time></trkpt><trkpt lat="42.41271005505759" lon="-3.6973790891743072"><ele>846.4</ele><time>2026-05-02T16:36:56Z</time></trkpt><trkpt lat="42.41260354424476" lon="-3.6973854543743694"><ele>846.8</ele><time>2026-05-02T16:36:57Z</time></trkpt><trkpt lat="42.412497313738584" lon="-3.6973885352915143"><ele>847.1999999999999</ele><time>2026-05-02T16:36:58Z</time></trkpt><trkpt lat="42.412387248938856" lon="-3.6974023592523335"><ele>847.5999999999999</ele><time>2026-05-02T16:36:59Z</time></trkpt><trkpt lat="42.412277690100446" lon="-3.6974162342364094"><ele>848.0</ele><time>2026-05-02T16:37:00Z</time></trkpt><trkpt lat="42.4121730721923" lon="-3.697428976554579"><ele>849.5</ele><time>2026-05-02T16:37:01Z</time></trkpt><trkpt lat="42.41206016779015" lon="-3.6974351552607994"><ele>851.0</ele><time>2026-05-02T16:37:02Z</time></trkpt><trkpt lat="42.4119605533017" lon="-3.697445417416078"><ele>852.5</ele><time>2026-05-02T16:37:03Z</time></trkpt><trkpt lat="42.411832562965735" lon="-3.6974783766898227"><ele>854.0</ele><time>2026-05-02T16:37:05Z</time></trkpt><trkpt lat="42.41163090719088" lon="-3.69748649852021"><ele>854.0</ele><time>2026-05-02T16:37:06Z</time></trkpt><trkpt lat="42.411505045862235" lon="-3.6974889116701823"><ele>854.0000000000001</ele><time>2026-05-02T16:37:07Z</time></trkpt><trkpt lat="42.41141090097093" lon="-3.697516063718245"><ele>854.0000000000001</ele><time>2026-05-02T16:37:08Z</time></trkpt><trkpt lat="42.41131145573534" lon="-3.69757206966313"><ele>854.0</ele><time>2026-05-02T16:37:09Z</time></trkpt><trkpt lat="42.411225497916845" lon="-3.697579866217244"><ele>854.0</ele><time>2026-05-02T16:37:10Z</time></trkpt><trkpt lat="42.41107564684151" lon="-3.6975304667399866"><ele>853.0</ele><time>2026-05-02T16:37:11Z</time></trkpt><trkpt lat="42.410967931010966" lon="-3.6975363541850204"><ele>852.0000000000001</ele><time>2026-05-02T16:37:12Z</time></trkpt><trkpt lat="42.41086082929249" lon="-3.6975460831784224"><ele>851.0</ele><time>2026-05-02T16:37:13Z</time></trkpt><trkpt lat="42.41075447375663" lon="-3.69755758616291"><ele>850.0</ele><time>2026-05-02T16:37:14Z</time></trkpt><trkpt lat="42.41065001182811" lon="-3.697567541510624"><ele>849.0</ele><time>2026-05-02T16:37:15Z</time></trkpt><trkpt lat="42.41054449680016" lon="-3.697575305347308"><ele>848.4000000000001</ele><time>2026-05-02T16:37:16Z</time></trkpt><trkpt lat="42.41043818871917" lon="-3.6975807468874806"><ele>847.8</ele><time>2026-05-02T16:37:17Z</time></trkpt><trkpt lat="42.41032691373215" lon="-3.6975894353964907"><ele>847.2</ele><time>2026-05-02T16:37:18Z</time></trkpt><trkpt lat="42.41022048293448" lon="-3.6975992305560497"><ele>846.5999999999999</ele><time>2026-05-02T16:37:19Z</time></trkpt><trkpt lat="42.41011254011528" lon="-3.697607884995821"><ele>846.0</ele><time>2026-05-02T16:37:20Z</time></trkpt><trkpt lat="42.41000490888978" lon="-3.697616425399262"><ele>846.0</ele><time>2026-05-02T16:37:21Z</time></trkpt><trkpt lat="42.40989532865288" lon="-3.6976287247270223"><ele>846.0</ele><time>2026-05-02T16:37:22Z</time></trkpt><trkpt lat="42.40978835649162" lon="-3.6976436488474587"><ele>846.0</ele><time>2026-05-02T16:37:23Z</time></trkpt><trkpt lat="42.40968452024693" lon="-3.6976554253623513"><ele>846.0</ele><time>2026-05-02T16:37:24Z</time></trkpt><trkpt lat="42.40957640461635" lon="-3.6976647880472764"><ele>846.0</ele><time>2026-05-02T16:37:25Z</time></trkpt><trkpt lat="42.40946920956492" lon="-3.697673768488659"><ele>846.0</ele><time>2026-05-02T16:37:26Z</time></trkpt><trkpt lat="42.40936605670008" lon="-3.6976825056584732"><ele>846.0</ele><time>2026-05-02T16:37:27Z</time></trkpt><trkpt lat="42.40925612655126" lon="-3.6976936833036507"><ele>846.0</ele><time>2026-05-02T16:37:28Z</time></trkpt><trkpt lat="42.40914955219833" lon="-3.697703248961301"><ele>846.0</ele><time>2026-05-02T16:37:29Z</time></trkpt><trkpt lat="42.409043436565675" lon="-3.697715139480067"><ele>846.0</ele><time>2026-05-02T16:37:30Z</time></trkpt><trkpt lat="42.40893582462223" lon="-3.697726956314331"><ele>846.0</ele><time>2026-05-02T16:37:31Z</time></trkpt><trkpt lat="42.408834043513444" lon="-3.697736442315845"><ele>846.0</ele><time>2026-05-02T16:37:32Z</time></trkpt><trkpt lat="42.40872938296244" lon="-3.6977460448525137"><ele>846.0</ele><time>2026-05-02T16:37:33Z</time></trkpt><trkpt lat="42.40862414613942" lon="-3.697752923140292"><ele>846.0</ele><time>2026-05-02T16:37:34Z</time></trkpt><trkpt lat="42.40852262740627" lon="-3.6977654642695548"><ele>846.0</ele><time>2026-05-02T16:37:35Z</time></trkpt><trkpt lat="42.40841735321474" lon="-3.6977776427047724"><ele>846.0</ele><time>2026-05-02T16:37:36.001Z</time></trkpt><trkpt lat="42.408314932788905" lon="-3.697792000391329"><ele>846.0</ele><time>2026-05-02T16:37:37.001Z</time></trkpt><trkpt lat="42.408213844806006" lon="-3.6978064542579685"><ele>846.0</ele><time>2026-05-02T16:37:38.001Z</time></trkpt><trkpt lat="42.40811447834782" lon="-3.697817284788004"><ele>846.0</ele><time>2026-05-02T16:37:39.001Z</time></trkpt><trkpt lat="42.4080140721246" lon="-3.697827297769824"><ele>846.0</ele><time>2026-05-02T16:37:40.001Z</time></trkpt><trkpt lat="42.407912083282525" lon="-3.697835855700127"><ele>846.4</ele><time>2026-05-02T16:37:41.001Z</time></trkpt><trkpt lat="42.407811444848" lon="-3.697846454728807"><ele>846.8</ele><time>2026-05-02T16:37:42.001Z</time></trkpt><trkpt lat="42.407710714004054" lon="-3.697858166997567"><ele>847.1999999999999</ele><time>2026-05-02T16:37:43.001Z</time></trkpt><trkpt lat="42.40760723718789" lon="-3.697865912851278"><ele>847.5999999999999</ele><time>2026-05-02T16:37:44.001Z</time></trkpt><trkpt lat="42.40750487073068" lon="-3.6978738598859953"><ele>848.0</ele><time>2026-05-02T16:37:45.001Z</time></trkpt><trkpt lat="42.407404035091844" lon="-3.697884084004256"><ele>848.0</ele><time>2026-05-02T16:37:46.001Z</time></trkpt><trkpt lat="42.407299713891675" lon="-3.697893833823995"><ele>848.0</ele><time>2026-05-02T16:37:47.001Z</time></trkpt><trkpt lat="42.40719831247205" lon="-3.697903945166858"><ele>848.0</ele><time>2026-05-02T16:37:48.001Z</time></trkpt><trkpt lat="42.4070959234638" lon="-3.6979144865332896"><ele>848.0</ele><time>2026-05-02T16:37:49.001Z</time></trkpt><trkpt lat="42.40699177597555" lon="-3.697923848567293"><ele>848.0</ele><time>2026-05-02T16:37:50.001Z</time></trkpt><trkpt lat="42.406887362471096" lon="-3.6979321092717576"><ele>848.4</ele><time>2026-05-02T16:37:51.001Z</time></trkpt><trkpt lat="42.406785518427114" lon="-3.697941192161976"><ele>848.8</ele><time>2026-05-02T16:37:52.001Z</time></trkpt><trkpt lat="42.4066817564661" lon="-3.69795106207182"><ele>849.2</ele><time>2026-05-02T16:37:53.001Z</time></trkpt><trkpt lat="42.40658178936781" lon="-3.6979604405615807"><ele>849.6</ele><time>2026-05-02T16:37:54.001Z</time></trkpt><trkpt lat="42.406476371693216" lon="-3.697970893563038"><ele>850.0</ele><time>2026-05-02T16:37:55.001Z</time></trkpt><trkpt lat="42.40637273895127" lon="-3.6979813236780514"><ele>849.6</ele><time>2026-05-02T16:37:56.001Z</time></trkpt><trkpt lat="42.40626810102176" lon="-3.6979906306704984"><ele>849.2</ele><time>2026-05-02T16:37:57.001Z</time></trkpt><trkpt lat="42.40616484452228" lon="-3.697998668014203"><ele>848.8</ele><time>2026-05-02T16:37:58.001Z</time></trkpt><trkpt lat="42.406060902357034" lon="-3.6980079518082527"><ele>848.4</ele><time>2026-05-02T16:37:59.001Z</time></trkpt><trkpt lat="42.40595600984514" lon="-3.6980190386617227"><ele>848.0</ele><time>2026-05-02T16:38:00.001Z</time></trkpt><trkpt lat="42.405852948788244" lon="-3.698028241990768"><ele>848.0</ele><time>2026-05-02T16:38:01.001Z</time></trkpt><trkpt lat="42.405747717555755" lon="-3.698037938027781"><ele>848.0</ele><time>2026-05-02T16:38:02.001Z</time></trkpt><trkpt lat="42.40564401524271" lon="-3.6980489294830536"><ele>848.0</ele><time>2026-05-02T16:38:03.001Z</time></trkpt><trkpt lat="42.405539196452565" lon="-3.6980599339130484"><ele>848.0</ele><time>2026-05-02T16:38:04.001Z</time></trkpt><trkpt lat="42.405433699845744" lon="-3.6980712744991435"><ele>848.0</ele><time>2026-05-02T16:38:05.001Z</time></trkpt><trkpt lat="42.40532743150137" lon="-3.698079572644584"><ele>848.0</ele><time>2026-05-02T16:38:06.001Z</time></trkpt><trkpt lat="42.405223619530005" lon="-3.6980876031071177"><ele>848.0</ele><time>2026-05-02T16:38:07.001Z</time></trkpt><trkpt lat="42.40511987013185" lon="-3.698099797109215"><ele>848.0</ele><time>2026-05-02T16:38:08.001Z</time></trkpt><trkpt lat="42.40501425308946" lon="-3.698110210987871"><ele>848.0</ele><time>2026-05-02T16:38:09.001Z</time></trkpt><trkpt lat="42.40491073005824" lon="-3.6981205052652935"><ele>848.0</ele><time>2026-05-02T16:38:10.001Z</time></trkpt><trkpt lat="42.404809495885594" lon="-3.698125459297046"><ele>848.0</ele><time>2026-05-02T16:38:11.001Z</time></trkpt><trkpt lat="42.40470847808804" lon="-3.6981328295435163"><ele>848.0</ele><time>2026-05-02T16:38:12.001Z</time></trkpt><trkpt lat="42.404605406806844" lon="-3.6981435374994565"><ele>848.0</ele><time>2026-05-02T16:38:13.001Z</time></trkpt><trkpt lat="42.40450474663351" lon="-3.698154573615136"><ele>848.0</ele><time>2026-05-02T16:38:14.001Z</time></trkpt><trkpt lat="42.404403396718315" lon="-3.6981641007792794"><ele>848.0</ele><time>2026-05-02T16:38:15.001Z</time></trkpt><trkpt lat="42.404302119286534" lon="-3.698175403398943"><ele>849.4</ele><time>2026-05-02T16:38:16.001Z</time></trkpt><trkpt lat="42.40420041986637" lon="-3.6981854665739697"><ele>850.8</ele><time>2026-05-02T16:38:17.001Z</time></trkpt><trkpt lat="42.40409745882782" lon="-3.698192860757354"><ele>852.2</ele><time>2026-05-02T16:38:18.001Z</time></trkpt><trkpt lat="42.403996858518454" lon="-3.698200466203364"><ele>853.6</ele><time>2026-05-02T16:38:19.001Z</time></trkpt><trkpt lat="42.4038949177862" lon="-3.698208149945101"><ele>855.0</ele><time>2026-05-02T16:38:20.001Z</time></trkpt><trkpt lat="42.40379428832955" lon="-3.698218338766579"><ele>855.6</ele><time>2026-05-02T16:38:21.001Z</time></trkpt><trkpt lat="42.403693198690135" lon="-3.698225701937549"><ele>856.2</ele><time>2026-05-02T16:38:22.001Z</time></trkpt><trkpt lat="42.40359188723222" lon="-3.6982340303342935"><ele>856.8</ele><time>2026-05-02T16:38:23.001Z</time></trkpt><trkpt lat="42.403490976790685" lon="-3.6982440426489567"><ele>857.4</ele><time>2026-05-02T16:38:24.001Z</time></trkpt><trkpt lat="42.40339103390901" lon="-3.698255587114746"><ele>858.0</ele><time>2026-05-02T16:38:25.001Z</time></trkpt><trkpt lat="42.40328888653497" lon="-3.698264522434652"><ele>858.0</ele><time>2026-05-02T16:38:26.001Z</time></trkpt><trkpt lat="42.40318563349074" lon="-3.698275130103099"><ele>858.0</ele><time>2026-05-02T16:38:27.001Z</time></trkpt><trkpt lat="42.403082828614146" lon="-3.6982844071937153"><ele>858.0</ele><time>2026-05-02T16:38:28.001Z</time></trkpt><trkpt lat="42.402980632567385" lon="-3.6982934937450254"><ele>858.0</ele><time>2026-05-02T16:38:29.001Z</time></trkpt><trkpt lat="42.40287686960917" lon="-3.6983053915357824"><ele>858.0</ele><time>2026-05-02T16:38:30.001Z</time></trkpt><trkpt lat="42.402775151026184" lon="-3.6983163580340963"><ele>859.0</ele><time>2026-05-02T16:38:31.001Z</time></trkpt><trkpt lat="42.40266826764643" lon="-3.698323809576673"><ele>860.0</ele><time>2026-05-02T16:38:32.001Z</time></trkpt><trkpt lat="42.402567448638855" lon="-3.698331838576135"><ele>861.0</ele><time>2026-05-02T16:38:33.001Z</time></trkpt><trkpt lat="42.40246469708135" lon="-3.698339897909863"><ele>862.0</ele><time>2026-05-02T16:38:34.001Z</time></trkpt><trkpt lat="42.402361334922986" lon="-3.6983471118215157"><ele>863.0</ele><time>2026-05-02T16:38:35.001Z</time></trkpt><trkpt lat="42.40226335860171" lon="-3.698358630259978"><ele>862.8</ele><time>2026-05-02T16:38:36.001Z</time></trkpt><trkpt lat="42.402158163899436" lon="-3.698367341471399"><ele>862.5999999999999</ele><time>2026-05-02T16:38:37.001Z</time></trkpt><trkpt lat="42.40205602875455" lon="-3.6983786353160353"><ele>862.4000000000001</ele><time>2026-05-02T16:38:38.001Z</time></trkpt><trkpt lat="42.40195312558316" lon="-3.698388229103289"><ele>862.2</ele><time>2026-05-02T16:38:39.001Z</time></trkpt><trkpt lat="42.4018503821888" lon="-3.6983992321049857"><ele>862.0</ele><time>2026-05-02T16:38:40.001Z</time></trkpt><trkpt lat="42.40174970748151" lon="-3.6984119379089133"><ele>862.0</ele><time>2026-05-02T16:38:41.001Z</time></trkpt><trkpt lat="42.40165062161622" lon="-3.6984175320824613"><ele>862.0</ele><time>2026-05-02T16:38:42.001Z</time></trkpt><trkpt lat="42.40154577187469" lon="-3.698425232773124"><ele>862.0</ele><time>2026-05-02T16:38:43.001Z</time></trkpt><trkpt lat="42.401447227726855" lon="-3.6984342589074934"><ele>862.0</ele><time>2026-05-02T16:38:44.001Z</time></trkpt><trkpt lat="42.401348746342556" lon="-3.698444493722332"><ele>862.0</ele><time>2026-05-02T16:38:45.001Z</time></trkpt><trkpt lat="42.40125038276599" lon="-3.6984563380753483"><ele>862.0</ele><time>2026-05-02T16:38:46.001Z</time></trkpt><trkpt lat="42.4011520504731" lon="-3.698467767602659"><ele>862.0</ele><time>2026-05-02T16:38:47.001Z</time></trkpt><trkpt lat="42.40105352279734" lon="-3.6984780979758596"><ele>862.0</ele><time>2026-05-02T16:38:48.001Z</time></trkpt><trkpt lat="42.400958333864715" lon="-3.6984853204422388"><ele>862.0</ele><time>2026-05-02T16:38:49.001Z</time></trkpt><trkpt lat="42.400862048338645" lon="-3.698490510585919"><ele>862.0</ele><time>2026-05-02T16:38:50.001Z</time></trkpt><trkpt lat="42.40076611682968" lon="-3.698500099877763"><ele>862.0</ele><time>2026-05-02T16:38:51.001Z</time></trkpt><trkpt lat="42.400670997287115" lon="-3.6985117281298723"><ele>862.0</ele><time>2026-05-02T16:38:52.001Z</time></trkpt><trkpt lat="42.40057334823394" lon="-3.698522517830057"><ele>862.0</ele><time>2026-05-02T16:38:53Z</time></trkpt><trkpt lat="42.40047802629217" lon="-3.6985306455812577"><ele>862.0</ele><time>2026-05-02T16:38:54Z</time></trkpt><trkpt lat="42.40038177729864" lon="-3.698538531735725"><ele>862.0</ele><time>2026-05-02T16:38:55Z</time></trkpt><trkpt lat="42.400286864059" lon="-3.698546204711848"><ele>862.2</ele><time>2026-05-02T16:38:56Z</time></trkpt><trkpt lat="42.40019088506984" lon="-3.6985505643849295"><ele>862.4000000000001</ele><time>2026-05-02T16:38:57Z</time></trkpt><trkpt lat="42.40009533963755" lon="-3.69855471238718"><ele>862.5999999999999</ele><time>2026-05-02T16:38:58Z</time></trkpt><trkpt lat="42.40000197568617" lon="-3.698563833756373"><ele>862.8</ele><time>2026-05-02T16:38:59Z</time></trkpt><trkpt lat="42.39990859095492" lon="-3.698574659073739"><ele>863.0</ele><time>2026-05-02T16:39:00Z</time></trkpt><trkpt lat="42.39981476961478" lon="-3.6985812269988947"><ele>863.0</ele><time>2026-05-02T16:39:01Z</time></trkpt><trkpt lat="42.399724365766126" lon="-3.698592759589097"><ele>863.0</ele><time>2026-05-02T16:39:02Z</time></trkpt><trkpt lat="42.399630579514636" lon="-3.698599293852315"><ele>863.0</ele><time>2026-05-02T16:39:03Z</time></trkpt><trkpt lat="42.39953935732734" lon="-3.6986099636065584"><ele>863.0</ele><time>2026-05-02T16:39:04Z</time></trkpt><trkpt lat="42.39944530120657" lon="-3.698619321411121"><ele>863.0</ele><time>2026-05-02T16:39:05Z</time></trkpt><trkpt lat="42.39935296707523" lon="-3.69862807429319"><ele>863.0</ele><time>2026-05-02T16:39:06Z</time></trkpt><trkpt lat="42.39926005219558" lon="-3.698631518185279"><ele>863.0</ele><time>2026-05-02T16:39:07Z</time></trkpt><trkpt lat="42.39916870056755" lon="-3.6986385840339673"><ele>863.0</ele><time>2026-05-02T16:39:08Z</time></trkpt><trkpt lat="42.39907669118334" lon="-3.6986469857889404"><ele>863.0</ele><time>2026-05-02T16:39:09Z</time></trkpt><trkpt lat="42.398986525881654" lon="-3.6986561159941203"><ele>863.0</ele><time>2026-05-02T16:39:10Z</time></trkpt><trkpt lat="42.39889704051635" lon="-3.6986631872598084"><ele>863.0</ele><time>2026-05-02T16:39:11Z</time></trkpt><trkpt lat="42.398805037626644" lon="-3.698667928364802"><ele>863.0</ele><time>2026-05-02T16:39:12Z</time></trkpt><trkpt lat="42.39871472784463" lon="-3.69867838253011"><ele>863.0</ele><time>2026-05-02T16:39:13Z</time></trkpt><trkpt lat="42.398625887132134" lon="-3.698689065219456"><ele>863.0</ele><time>2026-05-02T16:39:14Z</time></trkpt><trkpt lat="42.398533368706794" lon="-3.698699976681971"><ele>863.0</ele><time>2026-05-02T16:39:15Z</time></trkpt><trkpt lat="42.39844471934496" lon="-3.698706759709879"><ele>863.0</ele><time>2026-05-02T16:39:16Z</time></trkpt><trkpt lat="42.39834894257537" lon="-3.6987156092522433"><ele>863.0</ele><time>2026-05-02T16:39:17Z</time></trkpt><trkpt lat="42.39825799732706" lon="-3.698721695681517"><ele>863.0</ele><time>2026-05-02T16:39:18Z</time></trkpt><trkpt lat="42.398163225784266" lon="-3.698729618237636"><ele>863.0</ele><time>2026-05-02T16:39:19Z</time></trkpt><trkpt lat="42.39806985625948" lon="-3.6987391869213093"><ele>863.0</ele><time>2026-05-02T16:39:20Z</time></trkpt><trkpt lat="42.39797679731729" lon="-3.6987458942720797"><ele>863.8</ele><time>2026-05-02T16:39:21Z</time></trkpt><trkpt lat="42.39788446611278" lon="-3.698751898192244"><ele>864.5999999999999</ele><time>2026-05-02T16:39:22Z</time></trkpt><trkpt lat="42.39779175905987" lon="-3.6987574983341074"><ele>865.4000000000001</ele><time>2026-05-02T16:39:23Z</time></trkpt><trkpt lat="42.39769888103402" lon="-3.698759175906806"><ele>866.2</ele><time>2026-05-02T16:39:24Z</time></trkpt><trkpt lat="42.39760500346704" lon="-3.698761601121323"><ele>867.0</ele><time>2026-05-02T16:39:25Z</time></trkpt><trkpt lat="42.397509528062905" lon="-3.6987672873320823"><ele>867.0</ele><time>2026-05-02T16:39:26Z</time></trkpt><trkpt lat="42.39741690090873" lon="-3.698767869613805"><ele>867.0</ele><time>2026-05-02T16:39:27Z</time></trkpt><trkpt lat="42.39732288782805" lon="-3.698770842261072"><ele>867.0</ele><time>2026-05-02T16:39:28Z</time></trkpt><trkpt lat="42.397230280970916" lon="-3.6987746673259823"><ele>867.0</ele><time>2026-05-02T16:39:29Z</time></trkpt><trkpt lat="42.39713622435709" lon="-3.698773638236268"><ele>867.0</ele><time>2026-05-02T16:39:30Z</time></trkpt><trkpt lat="42.39704182032721" lon="-3.698775954124263"><ele>867.2</ele><time>2026-05-02T16:39:31Z</time></trkpt><trkpt lat="42.39694853400357" lon="-3.6987729326322802"><ele>867.4000000000001</ele><time>2026-05-02T16:39:32Z</time></trkpt><trkpt lat="42.396857175507144" lon="-3.6987657627959067"><ele>867.5999999999999</ele><time>2026-05-02T16:39:33Z</time></trkpt><trkpt lat="42.396766299856246" lon="-3.6987599615382187"><ele>867.8</ele><time>2026-05-02T16:39:34Z</time></trkpt><trkpt lat="42.39667172118427" lon="-3.698757104080956"><ele>868.0</ele><time>2026-05-02T16:39:35Z</time></trkpt><trkpt lat="42.396581910656394" lon="-3.698746838750692"><ele>868.0</ele><time>2026-05-02T16:39:36.001Z</time></trkpt><trkpt lat="42.39648605639985" lon="-3.698745124109761"><ele>868.0</ele><time>2026-05-02T16:39:37.001Z</time></trkpt><trkpt lat="42.39639562743135" lon="-3.698735866707984"><ele>868.0</ele><time>2026-05-02T16:39:38.001Z</time></trkpt><trkpt lat="42.39630282849" lon="-3.6987236972307804"><ele>868.0</ele><time>2026-05-02T16:39:39.001Z</time></trkpt><trkpt lat="42.39621006132197" lon="-3.6987157136512576"><ele>868.0</ele><time>2026-05-02T16:39:40.001Z</time></trkpt><trkpt lat="42.39611476646836" lon="-3.6987036332717147"><ele>869.4</ele><time>2026-05-02T16:39:41.001Z</time></trkpt><trkpt lat="42.396025084960975" lon="-3.698691773244656"><ele>870.8</ele><time>2026-05-02T16:39:42.001Z</time></trkpt><trkpt lat="42.39593281083758" lon="-3.698682319979959"><ele>872.2</ele><time>2026-05-02T16:39:43.001Z</time></trkpt><trkpt lat="42.39583961315001" lon="-3.698671694180132"><ele>873.6</ele><time>2026-05-02T16:39:44.001Z</time></trkpt><trkpt lat="42.39574821742451" lon="-3.6986537573968903"><ele>875.0</ele><time>2026-05-02T16:39:45.001Z</time></trkpt><trkpt lat="42.39565543443498" lon="-3.6986371212836295"><ele>875.0</ele><time>2026-05-02T16:39:46.001Z</time></trkpt><trkpt lat="42.395574229390476" lon="-3.6986176143880907"><ele>875.0</ele><time>2026-05-02T16:39:47.001Z</time></trkpt><trkpt lat="42.39547793961813" lon="-3.6985946557304166"><ele>875.0</ele><time>2026-05-02T16:39:48.001Z</time></trkpt><trkpt lat="42.395382840555875" lon="-3.6985692379488064"><ele>875.0</ele><time>2026-05-02T16:39:49.001Z</time></trkpt><trkpt lat="42.395289384645324" lon="-3.6985495036448"><ele>875.0</ele><time>2026-05-02T16:39:50.001Z</time></trkpt><trkpt lat="42.39519809370364" lon="-3.698526245596329"><ele>876.0</ele><time>2026-05-02T16:39:51.001Z</time></trkpt><trkpt lat="42.395107012906806" lon="-3.6985025117013173"><ele>877.0</ele><time>2026-05-02T16:39:52.001Z</time></trkpt><trkpt lat="42.3950153887198" lon="-3.6984767430309815"><ele>878.0</ele><time>2026-05-02T16:39:53.001Z</time></trkpt><trkpt lat="42.394925527008745" lon="-3.698453787120919"><ele>879.0</ele><time>2026-05-02T16:39:54.001Z</time></trkpt><trkpt lat="42.394834030695755" lon="-3.698428953720056"><ele>880.0</ele><time>2026-05-02T16:39:55.001Z</time></trkpt><trkpt lat="42.39473829033706" lon="-3.6984017660040407"><ele>881.6</ele><time>2026-05-02T16:39:56.001Z</time></trkpt><trkpt lat="42.394644898452846" lon="-3.6983730342561514"><ele>883.2</ele><time>2026-05-02T16:39:57.001Z</time></trkpt><trkpt lat="42.39455264788873" lon="-3.6983418915515993"><ele>884.8</ele><time>2026-05-02T16:39:58.001Z</time></trkpt><trkpt lat="42.394459254741975" lon="-3.698309759020656"><ele>886.4</ele><time>2026-05-02T16:39:59.001Z</time></trkpt><trkpt lat="42.39436739448087" lon="-3.6982775083966404"><ele>888.0</ele><time>2026-05-02T16:40:00.001Z</time></trkpt><trkpt lat="42.39427553065151" lon="-3.6982410076087904"><ele>888.0</ele><time>2026-05-02T16:40:01.001Z</time></trkpt><trkpt lat="42.39418289037856" lon="-3.6982063417826523"><ele>888.0</ele><time>2026-05-02T16:40:02.001Z</time></trkpt><trkpt lat="42.39409014977188" lon="-3.698168591128144"><ele>888.0</ele><time>2026-05-02T16:40:03.001Z</time></trkpt><trkpt lat="42.393996704318255" lon="-3.6981338500931558"><ele>888.0</ele><time>2026-05-02T16:40:04.001Z</time></trkpt><trkpt lat="42.39390241264592" lon="-3.698096317911445"><ele>888.0</ele><time>2026-05-02T16:40:05.001Z</time></trkpt><trkpt lat="42.39381076847406" lon="-3.69805722062869"><ele>889.4</ele><time>2026-05-02T16:40:06.001Z</time></trkpt><trkpt lat="42.393719490764674" lon="-3.6980169211102427"><ele>890.8</ele><time>2026-05-02T16:40:07.001Z</time></trkpt><trkpt lat="42.39362806865926" lon="-3.6979768189723967"><ele>892.2</ele><time>2026-05-02T16:40:08.001Z</time></trkpt><trkpt lat="42.39353712383058" lon="-3.6979376940839264"><ele>893.6</ele><time>2026-05-02T16:40:09.001Z</time></trkpt><trkpt lat="42.39344523698838" lon="-3.697898407965649"><ele>895.0</ele><time>2026-05-02T16:40:10.001Z</time></trkpt><trkpt lat="42.39335774311939" lon="-3.6978558907047403"><ele>895.0</ele><time>2026-05-02T16:40:11.001Z</time></trkpt><trkpt lat="42.3932652725158" lon="-3.697815546509727"><ele>895.0</ele><time>2026-05-02T16:40:12.001Z</time></trkpt><trkpt lat="42.39317444720308" lon="-3.6977743259976075"><ele>895.0</ele><time>2026-05-02T16:40:13.001Z</time></trkpt><trkpt lat="42.39308605436991" lon="-3.697729231440103"><ele>895.0</ele><time>2026-05-02T16:40:14.001Z</time></trkpt><trkpt lat="42.39299684999091" lon="-3.697683126320516"><ele>895.0</ele><time>2026-05-02T16:40:15.001Z</time></trkpt><trkpt lat="42.39290804419269" lon="-3.6976375343525865"><ele>898.0</ele><time>2026-05-02T16:40:16.001Z</time></trkpt><trkpt lat="42.39282055346025" lon="-3.697589982964444"><ele>901.0</ele><time>2026-05-02T16:40:17.001Z</time></trkpt><trkpt lat="42.39273271082447" lon="-3.6975380335318055"><ele>904.0</ele><time>2026-05-02T16:40:18.001Z</time></trkpt><trkpt lat="42.392644988737814" lon="-3.697483358716591"><ele>907.0</ele><time>2026-05-02T16:40:19.001Z</time></trkpt><trkpt lat="42.392557508343174" lon="-3.6974259315652054"><ele>910.0</ele><time>2026-05-02T16:40:20.001Z</time></trkpt><trkpt lat="42.39247050874144" lon="-3.6973703374361273"><ele>910.0</ele><time>2026-05-02T16:40:21.001Z</time></trkpt><trkpt lat="42.39238347084943" lon="-3.697315170921263"><ele>910.0</ele><time>2026-05-02T16:40:22.001Z</time></trkpt><trkpt lat="42.39229550698699" lon="-3.6972590196340254"><ele>910.0</ele><time>2026-05-02T16:40:23.001Z</time></trkpt><trkpt lat="42.392207458919366" lon="-3.697201197324777"><ele>910.0</ele><time>2026-05-02T16:40:24.001Z</time></trkpt><trkpt lat="42.392121021173224" lon="-3.6971413214179143"><ele>910.0</ele><time>2026-05-02T16:40:25.001Z</time></trkpt><trkpt lat="42.392033917745934" lon="-3.697078854467106"><ele>908.6</ele><time>2026-05-02T16:40:26.001Z</time></trkpt><trkpt lat="42.39194717943161" lon="-3.6970163924941954"><ele>907.2</ele><time>2026-05-02T16:40:27.001Z</time></trkpt><trkpt lat="42.39186260458601" lon="-3.696953344583245"><ele>905.8</ele><time>2026-05-02T16:40:28.001Z</time></trkpt><trkpt lat="42.391776765849976" lon="-3.6968881488807903"><ele>904.4</ele><time>2026-05-02T16:40:29.001Z</time></trkpt><trkpt lat="42.39168928415088" lon="-3.6968295389537014"><ele>903.0</ele><time>2026-05-02T16:40:30.001Z</time></trkpt><trkpt lat="42.39160437031733" lon="-3.6967656733330916"><ele>903.0</ele><time>2026-05-02T16:40:31.001Z</time></trkpt><trkpt lat="42.391520434706216" lon="-3.6966968475656263"><ele>903.0</ele><time>2026-05-02T16:40:32.001Z</time></trkpt><trkpt lat="42.391433736271786" lon="-3.696628039593737"><ele>903.0</ele><time>2026-05-02T16:40:33.001Z</time></trkpt><trkpt lat="42.39134704325223" lon="-3.696565749164236"><ele>903.0</ele><time>2026-05-02T16:40:34.001Z</time></trkpt><trkpt lat="42.39125906873179" lon="-3.6965009152050126"><ele>903.0</ele><time>2026-05-02T16:40:35.001Z</time></trkpt><trkpt lat="42.391170733807826" lon="-3.6964342714777665"><ele>900.5999999999999</ele><time>2026-05-02T16:40:36.001Z</time></trkpt><trkpt lat="42.39108393627364" lon="-3.696365704837226"><ele>898.1999999999999</ele><time>2026-05-02T16:40:37.001Z</time></trkpt><trkpt lat="42.39099861362309" lon="-3.6962925025318234"><ele>895.8</ele><time>2026-05-02T16:40:38.001Z</time></trkpt><trkpt lat="42.39091485629119" lon="-3.696224849676747"><ele>893.4</ele><time>2026-05-02T16:40:39.001Z</time></trkpt><trkpt lat="42.39082693259332" lon="-3.6961613654039764"><ele>891.0</ele><time>2026-05-02T16:40:40.001Z</time></trkpt><trkpt lat="42.390740365847854" lon="-3.6960993963177606"><ele>890.5999999999999</ele><time>2026-05-02T16:40:41.001Z</time></trkpt><trkpt lat="42.390652758655115" lon="-3.696035428732777"><ele>890.1999999999999</ele><time>2026-05-02T16:40:42.001Z</time></trkpt><trkpt lat="42.3905622810824" lon="-3.6959713453309377"><ele>889.8000000000001</ele><time>2026-05-02T16:40:43.001Z</time></trkpt><trkpt lat="42.39047123456019" lon="-3.6959066006114427"><ele>889.4000000000001</ele><time>2026-05-02T16:40:44.001Z</time></trkpt><trkpt lat="42.390377922233014" lon="-3.695843506794298"><ele>889.0</ele><time>2026-05-02T16:40:45.001Z</time></trkpt><trkpt lat="42.390282151242786" lon="-3.6957825622657396"><ele>888.4000000000001</ele><time>2026-05-02T16:40:46.001Z</time></trkpt><trkpt lat="42.390186131017735" lon="-3.695725225897589"><ele>887.8000000000001</ele><time>2026-05-02T16:40:47.001Z</time></trkpt><trkpt lat="42.39009017547441" lon="-3.6956738760805337"><ele>887.1999999999999</ele><time>2026-05-02T16:40:48.001Z</time></trkpt><trkpt lat="42.38999274800642" lon="-3.69562343029681"><ele>886.5999999999999</ele><time>2026-05-02T16:40:49.001Z</time></trkpt><trkpt lat="42.389892624201934" lon="-3.6955747197588136"><ele>886.0</ele><time>2026-05-02T16:40:50.001Z</time></trkpt><trkpt lat="42.38979181535893" lon="-3.6955274193547303"><ele>886.0</ele><time>2026-05-02T16:40:51.001Z</time></trkpt><trkpt lat="42.38969234601004" lon="-3.695484030329678"><ele>885.9999999999999</ele><time>2026-05-02T16:40:52.001Z</time></trkpt><trkpt lat="42.38959340456673" lon="-3.695446186125015"><ele>885.9999999999999</ele><time>2026-05-02T16:40:53.001Z</time></trkpt><trkpt lat="42.38949301229523" lon="-3.695413221865349"><ele>886.0</ele><time>2026-05-02T16:40:54.001Z</time></trkpt><trkpt lat="42.389390665951254" lon="-3.6953858786336404"><ele>886.0</ele><time>2026-05-02T16:40:55.001Z</time></trkpt><trkpt lat="42.38928846957546" lon="-3.6953616604205304"><ele>885.4</ele><time>2026-05-02T16:40:56.001Z</time></trkpt><trkpt lat="42.38918310889883" lon="-3.6953385951461026"><ele>884.8</ele><time>2026-05-02T16:40:57.001Z</time></trkpt><trkpt lat="42.3890770750399" lon="-3.695317626434257"><ele>884.1999999999999</ele><time>2026-05-02T16:40:58.001Z</time></trkpt><trkpt lat="42.388971122211544" lon="-3.695301604302011"><ele>883.5999999999999</ele><time>2026-05-02T16:40:59Z</time></trkpt><trkpt lat="42.38886494295815" lon="-3.6952873764466467"><ele>883.0</ele><time>2026-05-02T16:41:00Z</time></trkpt><trkpt lat="42.38875782506002" lon="-3.695278949291256"><ele>882.2</ele><time>2026-05-02T16:41:01Z</time></trkpt><trkpt lat="42.38865006918527" lon="-3.695272812835443"><ele>881.4</ele><time>2026-05-02T16:41:02Z</time></trkpt><trkpt lat="42.3885435394262" lon="-3.6952719534559733"><ele>880.6000000000001</ele><time>2026-05-02T16:41:03Z</time></trkpt><trkpt lat="42.38843638085586" lon="-3.6952734077681755"><ele>879.8000000000001</ele><time>2026-05-02T16:41:04Z</time></trkpt><trkpt lat="42.38832757512253" lon="-3.695277195023326"><ele>879.0</ele><time>2026-05-02T16:41:05Z</time></trkpt><trkpt lat="42.38822033847187" lon="-3.6952819057015738"><ele>879.0</ele><time>2026-05-02T16:41:06Z</time></trkpt><trkpt lat="42.38811395451643" lon="-3.6952951807939076"><ele>879.0000000000001</ele><time>2026-05-02T16:41:07Z</time></trkpt><trkpt lat="42.388007612609584" lon="-3.6953120396098402"><ele>879.0000000000001</ele><time>2026-05-02T16:41:08Z</time></trkpt><trkpt lat="42.38790074788721" lon="-3.695332119136068"><ele>879.0</ele><time>2026-05-02T16:41:09Z</time></trkpt><trkpt lat="42.387794055035634" lon="-3.695353429045718"><ele>879.0</ele><time>2026-05-02T16:41:10Z</time></trkpt><trkpt lat="42.38768638798797" lon="-3.695378618717793"><ele>878.0</ele><time>2026-05-02T16:41:11Z</time></trkpt><trkpt lat="42.387579923531774" lon="-3.6954065299348544"><ele>877.0000000000001</ele><time>2026-05-02T16:41:12Z</time></trkpt><trkpt lat="42.38747513839863" lon="-3.695435303870394"><ele>876.0000000000001</ele><time>2026-05-02T16:41:13Z</time></trkpt><trkpt lat="42.3873708876274" lon="-3.6954667744738794"><ele>875.0</ele><time>2026-05-02T16:41:14Z</time></trkpt><trkpt lat="42.3872698028774" lon="-3.6954989236256757"><ele>874.0</ele><time>2026-05-02T16:41:15Z</time></trkpt><trkpt lat="42.387170158796934" lon="-3.6955293225800707"><ele>873.6</ele><time>2026-05-02T16:41:16Z</time></trkpt><trkpt lat="42.38706875613683" lon="-3.695561183674107"><ele>873.2</ele><time>2026-05-02T16:41:17Z</time></trkpt><trkpt lat="42.38696745917023" lon="-3.695590238882293"><ele>872.8000000000001</ele><time>2026-05-02T16:41:18Z</time></trkpt><trkpt lat="42.386866509674135" lon="-3.6956156209864024"><ele>872.4000000000001</ele><time>2026-05-02T16:41:19Z</time></trkpt><trkpt lat="42.38676668573971" lon="-3.6956364163446964"><ele>872.0</ele><time>2026-05-02T16:41:20Z</time></trkpt><trkpt lat="42.38666742682561" lon="-3.69565398566142"><ele>872.0</ele><time>2026-05-02T16:41:21Z</time></trkpt><trkpt lat="42.38657298284096" lon="-3.6956704656470865"><ele>872.0</ele><time>2026-05-02T16:41:22Z</time></trkpt><trkpt lat="42.38647970665435" lon="-3.695684285674967"><ele>872.0</ele><time>2026-05-02T16:41:23Z</time></trkpt><trkpt lat="42.3863883863995" lon="-3.6956920763915493"><ele>872.0</ele><time>2026-05-02T16:41:24Z</time></trkpt><trkpt lat="42.38630324714658" lon="-3.6956697278004613"><ele>872.0</ele><time>2026-05-02T16:41:25Z</time></trkpt><trkpt lat="42.38621740751806" lon="-3.6956684282342516"><ele>871.8333333333334</ele><time>2026-05-02T16:41:26Z</time></trkpt><trkpt lat="42.386132560627956" lon="-3.695680928972312"><ele>871.6666666666667</ele><time>2026-05-02T16:41:27Z</time></trkpt><trkpt lat="42.38604489952256" lon="-3.69573688452825"><ele>871.5</ele><time>2026-05-02T16:41:29Z</time></trkpt><trkpt lat="42.38598459940349" lon="-3.695796355698658"><ele>871.3333333333333</ele><time>2026-05-02T16:41:31Z</time></trkpt><trkpt lat="42.38594608088955" lon="-3.695863789412228"><ele>871.1666666666666</ele><time>2026-05-02T16:41:32Z</time></trkpt><trkpt lat="42.38585671020951" lon="-3.6959877623978903"><ele>871.0</ele><time>2026-05-02T16:41:34Z</time></trkpt><trkpt lat="42.38579524745158" lon="-3.696044580357082"><ele>871.3333333333333</ele><time>2026-05-02T16:41:35Z</time></trkpt><trkpt lat="42.38573385458098" lon="-3.696111623068395"><ele>871.6666666666666</ele><time>2026-05-02T16:41:36Z</time></trkpt><trkpt lat="42.38565370943666" lon="-3.696144698049791"><ele>872.0</ele><time>2026-05-02T16:41:37Z</time></trkpt><trkpt lat="42.38556902744697" lon="-3.696169096639058"><ele>872.3333333333333</ele><time>2026-05-02T16:41:38Z</time></trkpt><trkpt lat="42.38548425203984" lon="-3.6961649304836723"><ele>872.6666666666666</ele><time>2026-05-02T16:41:39Z</time></trkpt><trkpt lat="42.38540407482452" lon="-3.6961406662130747"><ele>873.0</ele><time>2026-05-02T16:41:40Z</time></trkpt><trkpt lat="42.385333087763996" lon="-3.6960980743915997"><ele>871.6666666666666</ele><time>2026-05-02T16:41:41Z</time></trkpt><trkpt lat="42.385258370647904" lon="-3.6960485436629478"><ele>870.3333333333333</ele><time>2026-05-02T16:41:42Z</time></trkpt><trkpt lat="42.38518398529838" lon="-3.6959903670566305"><ele>869.0</ele><time>2026-05-02T16:41:43Z</time></trkpt><trkpt lat="42.3851231934909" lon="-3.6959193916776445"><ele>867.6666666666666</ele><time>2026-05-02T16:41:44Z</time></trkpt><trkpt lat="42.385076254104995" lon="-3.695840698848897"><ele>866.3333333333333</ele><time>2026-05-02T16:41:45Z</time></trkpt><trkpt lat="42.38503502185341" lon="-3.695756136306892"><ele>865.0</ele><time>2026-05-02T16:41:46.001Z</time></trkpt><trkpt lat="42.38499552259739" lon="-3.6956641497378544"><ele>864.9999999999999</ele><time>2026-05-02T16:41:47.001Z</time></trkpt><trkpt lat="42.38497337416017" lon="-3.69556317499514"><ele>865.0</ele><time>2026-05-02T16:41:48.001Z</time></trkpt><trkpt lat="42.38491915953883" lon="-3.6954657753805313"><ele>865.0</ele><time>2026-05-02T16:41:49.001Z</time></trkpt><trkpt lat="42.38484334787249" lon="-3.695398217215188"><ele>865.0</ele><time>2026-05-02T16:41:50.001Z</time></trkpt><trkpt lat="42.384747485979474" lon="-3.6953897685769466"><ele>864.9999999999999</ele><time>2026-05-02T16:41:51.001Z</time></trkpt><trkpt lat="42.384657473092865" lon="-3.6953761031596057"><ele>865.0</ele><time>2026-05-02T16:41:52.001Z</time></trkpt><trkpt lat="42.38456654502198" lon="-3.6953680615717146"><ele>865.2</ele><time>2026-05-02T16:41:53.001Z</time></trkpt><trkpt lat="42.38447298777291" lon="-3.695358995379916"><ele>865.4</ele><time>2026-05-02T16:41:54.001Z</time></trkpt><trkpt lat="42.38437835660509" lon="-3.6953453038492627"><ele>865.5999999999999</ele><time>2026-05-02T16:41:55.001Z</time></trkpt><trkpt lat="42.38428747043778" lon="-3.6953297953821425"><ele>865.8</ele><time>2026-05-02T16:41:56.001Z</time></trkpt><trkpt lat="42.38419347367173" lon="-3.695312254430756"><ele>866.0</ele><time>2026-05-02T16:41:57.001Z</time></trkpt><trkpt lat="42.38409813017769" lon="-3.695294823705576"><ele>866.0</ele><time>2026-05-02T16:41:58.001Z</time></trkpt><trkpt lat="42.38400283862467" lon="-3.6952777837535478"><ele>865.9999999999999</ele><time>2026-05-02T16:41:59.001Z</time></trkpt><trkpt lat="42.383906855724476" lon="-3.695259417105403"><ele>865.9999999999999</ele><time>2026-05-02T16:42:00.001Z</time></trkpt><trkpt lat="42.38380925005721" lon="-3.695242040281955"><ele>866.0</ele><time>2026-05-02T16:42:01.001Z</time></trkpt><trkpt lat="42.38371238345752" lon="-3.6952258798168707"><ele>866.0</ele><time>2026-05-02T16:42:02.001Z</time></trkpt><trkpt lat="42.38361390100331" lon="-3.695215009172265"><ele>866.0</ele><time>2026-05-02T16:42:03.001Z</time></trkpt><trkpt lat="42.38351313593649" lon="-3.695201373930394"><ele>865.9999999999999</ele><time>2026-05-02T16:42:04.001Z</time></trkpt><trkpt lat="42.383411671762325" lon="-3.695186275753086"><ele>865.9999999999999</ele><time>2026-05-02T16:42:05.001Z</time></trkpt><trkpt lat="42.38330819590661" lon="-3.695170294877162"><ele>866.0</ele><time>2026-05-02T16:42:06.001Z</time></trkpt><trkpt lat="42.38320492747125" lon="-3.6951547364766224"><ele>866.0</ele><time>2026-05-02T16:42:07.001Z</time></trkpt><trkpt lat="42.38310282419954" lon="-3.695139301336529"><ele>865.8</ele><time>2026-05-02T16:42:08.001Z</time></trkpt><trkpt lat="42.383000236378564" lon="-3.6951251101899056"><ele>865.5999999999999</ele><time>2026-05-02T16:42:09.001Z</time></trkpt><trkpt lat="42.38289757792382" lon="-3.6951135248077684"><ele>865.4</ele><time>2026-05-02T16:42:10.001Z</time></trkpt><trkpt lat="42.38279388789771" lon="-3.69510427144415"><ele>865.2</ele><time>2026-05-02T16:42:11.001Z</time></trkpt><trkpt lat="42.3826903930608" lon="-3.6950878849112816"><ele>865.0</ele><time>2026-05-02T16:42:12.001Z</time></trkpt><trkpt lat="42.38258490816444" lon="-3.695076504470309"><ele>865.0</ele><time>2026-05-02T16:42:13.001Z</time></trkpt><trkpt lat="42.38247997508284" lon="-3.6950623849382134"><ele>865.0</ele><time>2026-05-02T16:42:14.001Z</time></trkpt><trkpt lat="42.38237617767506" lon="-3.6950505289881845"><ele>865.0</ele><time>2026-05-02T16:42:15.001Z</time></trkpt><trkpt lat="42.38227552300301" lon="-3.695055444555267"><ele>865.0</ele><time>2026-05-02T16:42:16.001Z</time></trkpt><trkpt lat="42.3821748255498" lon="-3.695066332796428"><ele>865.0</ele><time>2026-05-02T16:42:17.001Z</time></trkpt><trkpt lat="42.382076217011054" lon="-3.6950752081567817"><ele>865.2</ele><time>2026-05-02T16:42:18.001Z</time></trkpt><trkpt lat="42.38197745803486" lon="-3.6950813194339767"><ele>865.4</ele><time>2026-05-02T16:42:19.001Z</time></trkpt><trkpt lat="42.38188147239779" lon="-3.6950904971486804"><ele>865.5999999999999</ele><time>2026-05-02T16:42:20.001Z</time></trkpt><trkpt lat="42.38178424631205" lon="-3.6950978760861384"><ele>865.8</ele><time>2026-05-02T16:42:21.001Z</time></trkpt><trkpt lat="42.38168789956197" lon="-3.69510447587111"><ele>866.0</ele><time>2026-05-02T16:42:22.001Z</time></trkpt><trkpt lat="42.38159294610989" lon="-3.6951128290805877"><ele>866.0</ele><time>2026-05-02T16:42:23.001Z</time></trkpt><trkpt lat="42.38149570619428" lon="-3.69512278761001"><ele>865.9999999999999</ele><time>2026-05-02T16:42:24.001Z</time></trkpt><trkpt lat="42.381402020122856" lon="-3.695131671043181"><ele>865.9999999999999</ele><time>2026-05-02T16:42:25.001Z</time></trkpt><trkpt lat="42.38130918799831" lon="-3.6951437673186702"><ele>866.0</ele><time>2026-05-02T16:42:26.001Z</time></trkpt><trkpt lat="42.38122226257366" lon="-3.6951549758263886"><ele>866.0</ele><time>2026-05-02T16:42:27.001Z</time></trkpt><trkpt lat="42.38113918676989" lon="-3.6951648744422934"><ele>866.3333333333334</ele><time>2026-05-02T16:42:28.001Z</time></trkpt><trkpt lat="42.38106136971668" lon="-3.69517722317029"><ele>866.6666666666667</ele><time>2026-05-02T16:42:29.001Z</time></trkpt><trkpt lat="42.38098560992982" lon="-3.695193965126233"><ele>867.0</ele><time>2026-05-02T16:42:30.001Z</time></trkpt><trkpt lat="42.38091884063294" lon="-3.695231109575388"><ele>867.3333333333333</ele><time>2026-05-02T16:42:31.001Z</time></trkpt><trkpt lat="42.38085903924054" lon="-3.695287465714983"><ele>867.6666666666666</ele><time>2026-05-02T16:42:32.001Z</time></trkpt><trkpt lat="42.380807858715535" lon="-3.695361042888295"><ele>868.0</ele><time>2026-05-02T16:42:33.001Z</time></trkpt><trkpt lat="42.380759838642994" lon="-3.695440380883783"><ele>867.9999999999999</ele><time>2026-05-02T16:42:34.001Z</time></trkpt><trkpt lat="42.38070650405896" lon="-3.6955177707029296"><ele>868.0</ele><time>2026-05-02T16:42:35.001Z</time></trkpt><trkpt lat="42.38064281810453" lon="-3.69558130385389"><ele>868.0</ele><time>2026-05-02T16:42:36.001Z</time></trkpt><trkpt lat="42.38057040266124" lon="-3.6956331969986707"><ele>868.0</ele><time>2026-05-02T16:42:37.001Z</time></trkpt><trkpt lat="42.38049135634441" lon="-3.695673890643859"><ele>867.9999999999999</ele><time>2026-05-02T16:42:38.001Z</time></trkpt><trkpt lat="42.380406330775806" lon="-3.695695204552717"><ele>868.0</ele><time>2026-05-02T16:42:39.001Z</time></trkpt><trkpt lat="42.380320329099774" lon="-3.695713121084521"><ele>868.2</ele><time>2026-05-02T16:42:40.001Z</time></trkpt><trkpt lat="42.38023694722227" lon="-3.6957524585540416"><ele>868.4</ele><time>2026-05-02T16:42:41.001Z</time></trkpt><trkpt lat="42.380162686483246" lon="-3.695821616826909"><ele>868.6000000000001</ele><time>2026-05-02T16:42:42.001Z</time></trkpt><trkpt lat="42.38009802697027" lon="-3.6959127555390694"><ele>868.8000000000001</ele><time>2026-05-02T16:42:43.001Z</time></trkpt><trkpt lat="42.38004047054707" lon="-3.696012599735087"><ele>869.0</ele><time>2026-05-02T16:42:44.001Z</time></trkpt><trkpt lat="42.37998683701789" lon="-3.6961193873650258"><ele>868.4000000000001</ele><time>2026-05-02T16:42:45.001Z</time></trkpt><trkpt lat="42.37993438904429" lon="-3.696226685863366"><ele>867.8000000000001</ele><time>2026-05-02T16:42:46.001Z</time></trkpt><trkpt lat="42.37987921943485" lon="-3.696333418705665"><ele>867.1999999999999</ele><time>2026-05-02T16:42:47.001Z</time></trkpt><trkpt lat="42.379820305967094" lon="-3.6964388412801563"><ele>866.5999999999999</ele><time>2026-05-02T16:42:48.001Z</time></trkpt><trkpt lat="42.379761307961864" lon="-3.6965463145132453"><ele>866.0</ele><time>2026-05-02T16:42:49.001Z</time></trkpt><trkpt lat="42.37969987309816" lon="-3.6966538379970477"><ele>866.0</ele><time>2026-05-02T16:42:50.001Z</time></trkpt><trkpt lat="42.37963558173902" lon="-3.696759569878707"><ele>865.9999999999999</ele><time>2026-05-02T16:42:51.001Z</time></trkpt><trkpt lat="42.379569208185956" lon="-3.696863256162022"><ele>865.9999999999999</ele><time>2026-05-02T16:42:52.001Z</time></trkpt><trkpt lat="42.37950236749261" lon="-3.6969680838222687"><ele>866.0</ele><time>2026-05-02T16:42:53.001Z</time></trkpt><trkpt lat="42.3794336103039" lon="-3.697071143838513"><ele>866.0</ele><time>2026-05-02T16:42:54.001Z</time></trkpt><trkpt lat="42.37936212154044" lon="-3.697171012266414"><ele>866.0</ele><time>2026-05-02T16:42:55.001Z</time></trkpt><trkpt lat="42.3792877416631" lon="-3.6972709024462653"><ele>865.9999999999999</ele><time>2026-05-02T16:42:56.001Z</time></trkpt><trkpt lat="42.37921541555995" lon="-3.697373578357832"><ele>865.9999999999999</ele><time>2026-05-02T16:42:57.001Z</time></trkpt><trkpt lat="42.37914252630611" lon="-3.697475906366242"><ele>866.0</ele><time>2026-05-02T16:42:58.001Z</time></trkpt><trkpt lat="42.3790692142893" lon="-3.6975774156560735"><ele>866.0</ele><time>2026-05-02T16:42:59.001Z</time></trkpt><trkpt lat="42.378993988045295" lon="-3.697677053819627"><ele>865.1999999999999</ele><time>2026-05-02T16:43:00.001Z</time></trkpt><trkpt lat="42.37891865515615" lon="-3.697777412667977"><ele>864.3999999999999</ele><time>2026-05-02T16:43:01.001Z</time></trkpt><trkpt lat="42.37884267291604" lon="-3.6978753552063637"><ele>863.6</ele><time>2026-05-02T16:43:02.001Z</time></trkpt><trkpt lat="42.37876406884453" lon="-3.6979713954276474"><ele>862.8</ele><time>2026-05-02T16:43:03.001Z</time></trkpt><trkpt lat="42.37868281235735" lon="-3.698063507885681"><ele>862.0</ele><time>2026-05-02T16:43:04.001Z</time></trkpt><trkpt lat="42.37860262535286" lon="-3.6981550706346407"><ele>862.0</ele><time>2026-05-02T16:43:05.001Z</time></trkpt><trkpt lat="42.37852115375749" lon="-3.6982454170081596"><ele>862.0</ele><time>2026-05-02T16:43:06.001Z</time></trkpt><trkpt lat="42.37843764406841" lon="-3.6983311523924387"><ele>862.0</ele><time>2026-05-02T16:43:07.001Z</time></trkpt><trkpt lat="42.37835427149999" lon="-3.6984155917244745"><ele>862.0</ele><time>2026-05-02T16:43:08Z</time></trkpt><trkpt lat="42.378270374060385" lon="-3.6984963891472673"><ele>862.0</ele><time>2026-05-02T16:43:09Z</time></trkpt><trkpt lat="42.37818445919695" lon="-3.698572207021553"><ele>862.2</ele><time>2026-05-02T16:43:10Z</time></trkpt><trkpt lat="42.37809721611387" lon="-3.6986482350986702"><ele>862.4000000000001</ele><time>2026-05-02T16:43:11Z</time></trkpt><trkpt lat="42.37800794139426" lon="-3.6987208555213065"><ele>862.5999999999999</ele><time>2026-05-02T16:43:12Z</time></trkpt><trkpt lat="42.37791934727772" lon="-3.6987891903530423"><ele>862.8</ele><time>2026-05-02T16:43:13Z</time></trkpt><trkpt lat="42.37782985057348" lon="-3.6988563739333395"><ele>863.0</ele><time>2026-05-02T16:43:14Z</time></trkpt><trkpt lat="42.37773681759771" lon="-3.6989174953371555"><ele>862.5999999999999</ele><time>2026-05-02T16:43:15Z</time></trkpt><trkpt lat="42.377646224685385" lon="-3.6989808849542922"><ele>862.1999999999999</ele><time>2026-05-02T16:43:16Z</time></trkpt><trkpt lat="42.37755459679312" lon="-3.699039180387541"><ele>861.8</ele><time>2026-05-02T16:43:17Z</time></trkpt><trkpt lat="42.377463221421955" lon="-3.6990926419433925"><ele>861.4</ele><time>2026-05-02T16:43:18Z</time></trkpt><trkpt lat="42.37737247648316" lon="-3.699143252067254"><ele>861.0</ele><time>2026-05-02T16:43:19Z</time></trkpt><trkpt lat="42.37728086795403" lon="-3.699191646376616"><ele>861.0</ele><time>2026-05-02T16:43:20Z</time></trkpt><trkpt lat="42.377188131588575" lon="-3.6992366742526612"><ele>860.9999999999999</ele><time>2026-05-02T16:43:21Z</time></trkpt><trkpt lat="42.37709731901343" lon="-3.6992809783800573"><ele>860.9999999999999</ele><time>2026-05-02T16:43:22Z</time></trkpt><trkpt lat="42.37700685651335" lon="-3.699322278765553"><ele>861.0</ele><time>2026-05-02T16:43:23Z</time></trkpt><trkpt lat="42.3769189791563" lon="-3.699357910647647"><ele>861.0</ele><time>2026-05-02T16:43:24Z</time></trkpt><trkpt lat="42.37683660981289" lon="-3.6993898212360996"><ele>860.8333333333334</ele><time>2026-05-02T16:43:25Z</time></trkpt><trkpt lat="42.3767608970264" lon="-3.6994171588159364"><ele>860.6666666666667</ele><time>2026-05-02T16:43:26Z</time></trkpt><trkpt lat="42.376689867067334" lon="-3.6994441544200267"><ele>860.5</ele><time>2026-05-02T16:43:27Z</time></trkpt><trkpt lat="42.3766230123886" lon="-3.699468200190243"><ele>860.3333333333334</ele><time>2026-05-02T16:43:28Z</time></trkpt><trkpt lat="42.37656095891377" lon="-3.6994958570869145"><ele>860.1666666666667</ele><time>2026-05-02T16:43:29Z</time></trkpt><trkpt lat="42.37647402665914" lon="-3.6995926113070725"><ele>860.0</ele><time>2026-05-02T16:43:31Z</time></trkpt><trkpt lat="42.37641554622555" lon="-3.6997361773762703"><ele>859.6</ele><time>2026-05-02T16:43:33Z</time></trkpt><trkpt lat="42.37632670745668" lon="-3.6998471781058417"><ele>859.2</ele><time>2026-05-02T16:43:35Z</time></trkpt><trkpt lat="42.37620927777563" lon="-3.699903590420326"><ele>858.8</ele><time>2026-05-02T16:43:37Z</time></trkpt><trkpt lat="42.37614022234357" lon="-3.6999095875863564"><ele>858.4</ele><time>2026-05-02T16:43:38Z</time></trkpt><trkpt lat="42.37607107890084" lon="-3.699895744126262"><ele>858.0</ele><time>2026-05-02T16:43:39Z</time></trkpt><trkpt lat="42.376007701287385" lon="-3.699862114171947"><ele>858.0</ele><time>2026-05-02T16:43:40Z</time></trkpt><trkpt lat="42.37594720826876" lon="-3.699811767912484"><ele>858.0</ele><time>2026-05-02T16:43:41Z</time></trkpt><trkpt lat="42.37588380316451" lon="-3.699762074863147"><ele>858.0</ele><time>2026-05-02T16:43:42Z</time></trkpt><trkpt lat="42.37581317577638" lon="-3.6997211906731686"><ele>858.0</ele><time>2026-05-02T16:43:43Z</time></trkpt><trkpt lat="42.37573403231147" lon="-3.699697435114265"><ele>858.0</ele><time>2026-05-02T16:43:44Z</time></trkpt><trkpt lat="42.37564982083912" lon="-3.6996952370623433"><ele>858.0</ele><time>2026-05-02T16:43:45Z</time></trkpt><trkpt lat="42.37556294330816" lon="-3.6997040218389565"><ele>858.6666666666666</ele><time>2026-05-02T16:43:46.001Z</time></trkpt><trkpt lat="42.375476242142234" lon="-3.6997185705083435"><ele>859.3333333333333</ele><time>2026-05-02T16:43:47.001Z</time></trkpt><trkpt lat="42.37538891102742" lon="-3.699728579354524"><ele>860.0</ele><time>2026-05-02T16:43:48.001Z</time></trkpt><trkpt lat="42.375302139869554" lon="-3.699738966576569"><ele>860.6666666666666</ele><time>2026-05-02T16:43:49.001Z</time></trkpt><trkpt lat="42.375212417057334" lon="-3.699743114139737"><ele>861.3333333333333</ele><time>2026-05-02T16:43:50.001Z</time></trkpt><trkpt lat="42.37512284173466" lon="-3.6997496987775977"><ele>862.0</ele><time>2026-05-02T16:43:51.001Z</time></trkpt><trkpt lat="42.37503290223593" lon="-3.699751541111764"><ele>862.0</ele><time>2026-05-02T16:43:52.001Z</time></trkpt><trkpt lat="42.37494188941285" lon="-3.6997493863055086"><ele>862.0</ele><time>2026-05-02T16:43:53.001Z</time></trkpt><trkpt lat="42.374851330622185" lon="-3.6997444624814797"><ele>862.0</ele><time>2026-05-02T16:43:54.001Z</time></trkpt><trkpt lat="42.37475971850818" lon="-3.699736364068488"><ele>862.0</ele><time>2026-05-02T16:43:55.001Z</time></trkpt><trkpt lat="42.37466413816864" lon="-3.6997303140238573"><ele>862.0</ele><time>2026-05-02T16:43:56.001Z</time></trkpt><trkpt lat="42.37457080713848" lon="-3.699721081234199"><ele>862.4000000000001</ele><time>2026-05-02T16:43:57.001Z</time></trkpt><trkpt lat="42.37447786598487" lon="-3.699708763411369"><ele>862.8000000000001</ele><time>2026-05-02T16:43:58.001Z</time></trkpt><trkpt lat="42.374384664013455" lon="-3.6996920925096908"><ele>863.2</ele><time>2026-05-02T16:43:59.001Z</time></trkpt><trkpt lat="42.37428864647556" lon="-3.699674411147277"><ele>863.6</ele><time>2026-05-02T16:44:00.001Z</time></trkpt><trkpt lat="42.374196708999555" lon="-3.6996542820317107"><ele>864.0</ele><time>2026-05-02T16:44:01.001Z</time></trkpt><trkpt lat="42.37410477118651" lon="-3.699628947503193"><ele>864.0</ele><time>2026-05-02T16:44:02.001Z</time></trkpt><trkpt lat="42.374011635070104" lon="-3.6996013734362454"><ele>864.0000000000001</ele><time>2026-05-02T16:44:03.001Z</time></trkpt><trkpt lat="42.373919994810144" lon="-3.699573403725316"><ele>864.0000000000001</ele><time>2026-05-02T16:44:04.001Z</time></trkpt><trkpt lat="42.37382661093415" lon="-3.699539127341114"><ele>864.0</ele><time>2026-05-02T16:44:05.001Z</time></trkpt><trkpt lat="42.37373538504679" lon="-3.6995027280068835"><ele>864.0</ele><time>2026-05-02T16:44:06.001Z</time></trkpt><trkpt lat="42.373642622201864" lon="-3.6994642877229054"><ele>864.0</ele><time>2026-05-02T16:44:07.001Z</time></trkpt><trkpt lat="42.373551647515235" lon="-3.699427530304914"><ele>864.0000000000001</ele><time>2026-05-02T16:44:08.001Z</time></trkpt><trkpt lat="42.37346104423811" lon="-3.6993891897828752"><ele>864.0000000000001</ele><time>2026-05-02T16:44:09.001Z</time></trkpt><trkpt lat="42.37337043759935" lon="-3.699350701201699"><ele>864.0</ele><time>2026-05-02T16:44:10.001Z</time></trkpt><trkpt lat="42.373279124116166" lon="-3.6993129933809765"><ele>864.0</ele><time>2026-05-02T16:44:11.001Z</time></trkpt><trkpt lat="42.37318962097828" lon="-3.6992700198625945"><ele>864.8000000000001</ele><time>2026-05-02T16:44:12.001Z</time></trkpt><trkpt lat="42.37309910808549" lon="-3.6992287263887524"><ele>865.6000000000001</ele><time>2026-05-02T16:44:13.001Z</time></trkpt><trkpt lat="42.3730077903575" lon="-3.699189269852779"><ele>866.4</ele><time>2026-05-02T16:44:14.001Z</time></trkpt><trkpt lat="42.372921020723524" lon="-3.6991465344093406"><ele>867.2</ele><time>2026-05-02T16:44:15.001Z</time></trkpt><trkpt lat="42.372832170634844" lon="-3.699104611774728"><ele>868.0</ele><time>2026-05-02T16:44:16.001Z</time></trkpt><trkpt lat="42.372741433727846" lon="-3.6990615755499183"><ele>868.5999999999999</ele><time>2026-05-02T16:44:17.001Z</time></trkpt><trkpt lat="42.372653477744635" lon="-3.6990186466771493"><ele>869.1999999999999</ele><time>2026-05-02T16:44:18.001Z</time></trkpt><trkpt lat="42.37256325107069" lon="-3.6989719366180243"><ele>869.8</ele><time>2026-05-02T16:44:19.001Z</time></trkpt><trkpt lat="42.37247472395099" lon="-3.6989243180156506"><ele>870.4</ele><time>2026-05-02T16:44:20.001Z</time></trkpt><trkpt lat="42.37238438991929" lon="-3.6988785670673066"><ele>871.0</ele><time>2026-05-02T16:44:21.001Z</time></trkpt><trkpt lat="42.37229720743142" lon="-3.6988314797259014"><ele>871.0</ele><time>2026-05-02T16:44:22.001Z</time></trkpt><trkpt lat="42.37221025645925" lon="-3.6987815345026185"><ele>870.9999999999999</ele><time>2026-05-02T16:44:23.001Z</time></trkpt><trkpt lat="42.37212252281339" lon="-3.698733420398489"><ele>870.9999999999999</ele><time>2026-05-02T16:44:24.001Z</time></trkpt><trkpt lat="42.372032606150796" lon="-3.6986850474750477"><ele>871.0</ele><time>2026-05-02T16:44:25.001Z</time></trkpt><trkpt lat="42.371946052496845" lon="-3.6986352796762194"><ele>871.0</ele><time>2026-05-02T16:44:26.001Z</time></trkpt><trkpt lat="42.371857815155415" lon="-3.6985843191606356"><ele>870.0</ele><time>2026-05-02T16:44:27.001Z</time></trkpt><trkpt lat="42.3717696711438" lon="-3.698532478017307"><ele>868.9999999999999</ele><time>2026-05-02T16:44:28.001Z</time></trkpt><trkpt lat="42.3716816817709" lon="-3.6984804025751847"><ele>867.9999999999999</ele><time>2026-05-02T16:44:29.001Z</time></trkpt><trkpt lat="42.37159400303512" lon="-3.698430308935102"><ele>867.0</ele><time>2026-05-02T16:44:30.001Z</time></trkpt><trkpt lat="42.37150457732045" lon="-3.69838160414895"><ele>866.0</ele><time>2026-05-02T16:44:31.001Z</time></trkpt><trkpt lat="42.37142018143144" lon="-3.698334791370047"><ele>865.7142857142857</ele><time>2026-05-02T16:44:32.001Z</time></trkpt><trkpt lat="42.37134123313898" lon="-3.698289470663516"><ele>865.4285714285714</ele><time>2026-05-02T16:44:33.001Z</time></trkpt><trkpt lat="42.371269522529914" lon="-3.698249244636106"><ele>865.1428571428571</ele><time>2026-05-02T16:44:34.001Z</time></trkpt><trkpt lat="42.37120401605356" lon="-3.698215253859124"><ele>864.8571428571429</ele><time>2026-05-02T16:44:35.001Z</time></trkpt><trkpt lat="42.37114097000743" lon="-3.698183867306783"><ele>864.5714285714286</ele><time>2026-05-02T16:44:36.001Z</time></trkpt><trkpt lat="42.37107171002462" lon="-3.698175341728228"><ele>864.2857142857142</ele><time>2026-05-02T16:44:37.001Z</time></trkpt><trkpt lat="42.371003181697766" lon="-3.6981965025686145"><ele>864.0</ele><time>2026-05-02T16:44:38.001Z</time></trkpt><trkpt lat="42.37093887735813" lon="-3.6982269155567504"><ele>864.0</ele><time>2026-05-02T16:44:39.001Z</time></trkpt><trkpt lat="42.37086588985499" lon="-3.6982518302137817"><ele>864.0</ele><time>2026-05-02T16:44:40.001Z</time></trkpt><trkpt lat="42.37078685973849" lon="-3.6982557538493737"><ele>864.0</ele><time>2026-05-02T16:44:41.001Z</time></trkpt><trkpt lat="42.37070667598528" lon="-3.6982317724271345"><ele>864.0</ele><time>2026-05-02T16:44:42.001Z</time></trkpt><trkpt lat="42.37063137364848" lon="-3.6981820694900844"><ele>864.0</ele><time>2026-05-02T16:44:43.001Z</time></trkpt><trkpt lat="42.370568602995235" lon="-3.6981057101222095"><ele>864.0</ele><time>2026-05-02T16:44:44.001Z</time></trkpt><trkpt lat="42.370523127034886" lon="-3.698012378798354"><ele>865.0</ele><time>2026-05-02T16:44:45.001Z</time></trkpt><trkpt lat="42.37048605871305" lon="-3.6979111357073893"><ele>866.0</ele><time>2026-05-02T16:44:46.001Z</time></trkpt><trkpt lat="42.37044063733063" lon="-3.6978179109967773"><ele>867.0</ele><time>2026-05-02T16:44:47.001Z</time></trkpt><trkpt lat="42.370382988363154" lon="-3.6977320342632445"><ele>868.0</ele><time>2026-05-02T16:44:48.001Z</time></trkpt><trkpt lat="42.37031603651037" lon="-3.6976520210947195"><ele>869.0</ele><time>2026-05-02T16:44:49.001Z</time></trkpt><trkpt lat="42.37024005371647" lon="-3.6975922294480084"><ele>870.0</ele><time>2026-05-02T16:44:50.001Z</time></trkpt><trkpt lat="42.37015813290025" lon="-3.6975477460321913"><ele>870.8333333333334</ele><time>2026-05-02T16:44:51.001Z</time></trkpt><trkpt lat="42.37007599522114" lon="-3.6975095563098956"><ele>871.6666666666667</ele><time>2026-05-02T16:44:52.001Z</time></trkpt><trkpt lat="42.3699947710781" lon="-3.697467284289568"><ele>872.5</ele><time>2026-05-02T16:44:53.001Z</time></trkpt><trkpt lat="42.36991457992961" lon="-3.6974231471599595"><ele>873.3333333333334</ele><time>2026-05-02T16:44:54.001Z</time></trkpt><trkpt lat="42.36983527950677" lon="-3.6973759535541286"><ele>874.1666666666667</ele><time>2026-05-02T16:44:55.001Z</time></trkpt><trkpt lat="42.369754346903285" lon="-3.697329834305946"><ele>875.0</ele><time>2026-05-02T16:44:56.001Z</time></trkpt><trkpt lat="42.369675016564834" lon="-3.6972846046962755"><ele>875.3333333333334</ele><time>2026-05-02T16:44:57.001Z</time></trkpt><trkpt lat="42.36959488709104" lon="-3.697240124410981"><ele>875.6666666666667</ele><time>2026-05-02T16:44:58.001Z</time></trkpt><trkpt lat="42.36951428421581" lon="-3.6971942856319466"><ele>876.0</ele><time>2026-05-02T16:44:59.001Z</time></trkpt><trkpt lat="42.36943474150863" lon="-3.697147094022839"><ele>876.3333333333333</ele><time>2026-05-02T16:45:00.001Z</time></trkpt><trkpt lat="42.36935441770169" lon="-3.697099895712603"><ele>876.6666666666666</ele><time>2026-05-02T16:45:01.001Z</time></trkpt><trkpt lat="42.36927349819496" lon="-3.6970551192173775"><ele>877.0</ele><time>2026-05-02T16:45:02.001Z</time></trkpt><trkpt lat="42.36919279216699" lon="-3.69700868561082"><ele>876.9999999999999</ele><time>2026-05-02T16:45:03.001Z</time></trkpt><trkpt lat="42.36911023118519" lon="-3.696960620642176"><ele>877.0</ele><time>2026-05-02T16:45:04.001Z</time></trkpt><trkpt lat="42.369030048477335" lon="-3.69691411574617"><ele>877.0</ele><time>2026-05-02T16:45:05.001Z</time></trkpt><trkpt lat="42.3689487917517" lon="-3.696866510051666"><ele>877.0</ele><time>2026-05-02T16:45:06.001Z</time></trkpt><trkpt lat="42.368868991804504" lon="-3.696819949959032"><ele>876.9999999999999</ele><time>2026-05-02T16:45:07.001Z</time></trkpt><trkpt lat="42.36878787823059" lon="-3.6967721488299943"><ele>877.0</ele><time>2026-05-02T16:45:08.001Z</time></trkpt><trkpt lat="42.368706472406046" lon="-3.6967245965277247"><ele>876.9999999999999</ele><time>2026-05-02T16:45:09.001Z</time></trkpt><trkpt lat="42.36862491042906" lon="-3.6966799636651104"><ele>877.0</ele><time>2026-05-02T16:45:10.001Z</time></trkpt><trkpt lat="42.36854244833732" lon="-3.6966330023576717"><ele>877.0</ele><time>2026-05-02T16:45:11.001Z</time></trkpt><trkpt lat="42.368459270431444" lon="-3.6965847031042545"><ele>877.0</ele><time>2026-05-02T16:45:12.001Z</time></trkpt><trkpt lat="42.36837589577062" lon="-3.6965361363898355"><ele>876.9999999999999</ele><time>2026-05-02T16:45:13.001Z</time></trkpt><trkpt lat="42.36829210643425" lon="-3.6964888638759206"><ele>877.0</ele><time>2026-05-02T16:45:14.001Z</time></trkpt><trkpt lat="42.36820566064313" lon="-3.6964384036388074"><ele>877.0</ele><time>2026-05-02T16:45:15.001Z</time></trkpt><trkpt lat="42.36811600167351" lon="-3.696387037223378"><ele>877.0</ele><time>2026-05-02T16:45:16.001Z</time></trkpt><trkpt lat="42.368028214854455" lon="-3.6963361491273323"><ele>877.0</ele><time>2026-05-02T16:45:17.001Z</time></trkpt><trkpt lat="42.36794463875352" lon="-3.696287252941549"><ele>877.0</ele><time>2026-05-02T16:45:18.001Z</time></trkpt><trkpt lat="42.36785987741696" lon="-3.696237920145853"><ele>877.0</ele><time>2026-05-02T16:45:19.001Z</time></trkpt><trkpt lat="42.367772939319444" lon="-3.6961893575607987"><ele>877.0</ele><time>2026-05-02T16:45:20.001Z</time></trkpt><trkpt lat="42.36768680440829" lon="-3.6961380649093125"><ele>877.0</ele><time>2026-05-02T16:45:21Z</time></trkpt><trkpt lat="42.36760140435324" lon="-3.696092411413972"><ele>877.0</ele><time>2026-05-02T16:45:22Z</time></trkpt><trkpt lat="42.36751500710562" lon="-3.6960478422821046"><ele>877.0</ele><time>2026-05-02T16:45:23Z</time></trkpt><trkpt lat="42.36742688855306" lon="-3.6959980086962165"><ele>877.0</ele><time>2026-05-02T16:45:24Z</time></trkpt><trkpt lat="42.36734719510331" lon="-3.695941868100988"><ele>877.1666666666666</ele><time>2026-05-02T16:45:25Z</time></trkpt><trkpt lat="42.36726419133326" lon="-3.695892195944096"><ele>877.3333333333333</ele><time>2026-05-02T16:45:26Z</time></trkpt><trkpt lat="42.367180046215104" lon="-3.695843808620593"><ele>877.5</ele><time>2026-05-02T16:45:27Z</time></trkpt><trkpt lat="42.36709789531095" lon="-3.6957945141413906"><ele>877.6666666666667</ele><time>2026-05-02T16:45:28Z</time></trkpt><trkpt lat="42.36701879564656" lon="-3.695742921215247"><ele>877.8333333333334</ele><time>2026-05-02T16:45:29Z</time></trkpt><trkpt lat="42.366942745037875" lon="-3.69569542155318"><ele>878.0</ele><time>2026-05-02T16:45:30Z</time></trkpt><trkpt lat="42.366865366852586" lon="-3.6956694026177046"><ele>878.3333333333334</ele><time>2026-05-02T16:45:31Z</time></trkpt><trkpt lat="42.36679030061784" lon="-3.695667572361312"><ele>878.6666666666667</ele><time>2026-05-02T16:45:32Z</time></trkpt><trkpt lat="42.3667220632851" lon="-3.6956933726646004"><ele>879.0</ele><time>2026-05-02T16:45:33Z</time></trkpt><trkpt lat="42.3666692341575" lon="-3.695742682023524"><ele>879.3333333333333</ele><time>2026-05-02T16:45:34Z</time></trkpt><trkpt lat="42.366605335026414" lon="-3.6957828367331254"><ele>879.6666666666666</ele><time>2026-05-02T16:45:35Z</time></trkpt><trkpt lat="42.36654794744246" lon="-3.6958234521245394"><ele>880.0</ele><time>2026-05-02T16:45:36Z</time></trkpt><trkpt lat="42.36646321244865" lon="-3.695926005366808"><ele>879.9999999999999</ele><time>2026-05-02T16:45:38Z</time></trkpt><trkpt lat="42.36639394769462" lon="-3.6960021461995995"><ele>880.0</ele><time>2026-05-02T16:45:40Z</time></trkpt><trkpt lat="42.36631539688504" lon="-3.6960538091267985"><ele>880.0</ele><time>2026-05-02T16:45:42Z</time></trkpt><trkpt lat="42.3662394697866" lon="-3.696128800557594"><ele>880.0</ele><time>2026-05-02T16:45:44Z</time></trkpt><trkpt lat="42.366149917454834" lon="-3.696144173481449"><ele>879.9999999999999</ele><time>2026-05-02T16:45:46Z</time></trkpt><trkpt lat="42.36608744161219" lon="-3.696093392462984"><ele>880.0</ele><time>2026-05-02T16:45:48Z</time></trkpt><trkpt lat="42.366016601383095" lon="-3.6960494106842763"><ele>880.1666666666666</ele><time>2026-05-02T16:45:50Z</time></trkpt><trkpt lat="42.365976072011634" lon="-3.6959544762587915"><ele>880.3333333333333</ele><time>2026-05-02T16:45:53Z</time></trkpt><trkpt lat="42.366053617938796" lon="-3.6958298679608337"><ele>880.5</ele><time>2026-05-02T16:53:44Z</time></trkpt><trkpt lat="42.365997366980515" lon="-3.695751990417498"><ele>880.6666666666667</ele><time>2026-05-02T16:55:46Z</time></trkpt><trkpt lat="42.36593851598662" lon="-3.695683715318312"><ele>880.8333333333334</ele><time>2026-05-02T16:55:48Z</time></trkpt><trkpt lat="42.36587507945294" lon="-3.69561518273798"><ele>881.0</ele><time>2026-05-02T16:55:50Z</time></trkpt><trkpt lat="42.365792274278775" lon="-3.6955501545218548"><ele>881.0000000000001</ele><time>2026-05-02T16:55:52Z</time></trkpt><trkpt lat="42.36570288100898" lon="-3.695504928260525"><ele>881.0</ele><time>2026-05-02T16:55:54Z</time></trkpt><trkpt lat="42.365619799969885" lon="-3.6954634987597244"><ele>881.0</ele><time>2026-05-02T16:55:56Z</time></trkpt><trkpt lat="42.36553935249585" lon="-3.695422224540971"><ele>881.0</ele><time>2026-05-02T16:55:58Z</time></trkpt><trkpt lat="42.36545858740011" lon="-3.6953705372872228"><ele>881.0000000000001</ele><time>2026-05-02T16:56:00Z</time></trkpt><trkpt lat="42.36540030346379" lon="-3.695311627903299"><ele>881.0</ele><time>2026-05-02T16:56:02Z</time></trkpt><trkpt lat="42.365377587442076" lon="-3.6952007720422633"><ele>882.0</ele><time>2026-05-02T16:56:04Z</time></trkpt><trkpt lat="42.36540015310653" lon="-3.6950725452491895"><ele>882.9999999999999</ele><time>2026-05-02T16:56:06Z</time></trkpt><trkpt lat="42.365427923190424" lon="-3.6949635104175167"><ele>883.9999999999999</ele><time>2026-05-02T16:56:08Z</time></trkpt><trkpt lat="42.36544813868232" lon="-3.694876293255337"><ele>885.0</ele><time>2026-05-02T16:56:15Z</time></trkpt><trkpt lat="42.365387488946595" lon="-3.694794760050988"><ele>886.0</ele><time>2026-05-02T16:56:19Z</time></trkpt><trkpt lat="42.3652769398968" lon="-3.694741432518119"><ele>885.9999999999999</ele><time>2026-05-02T16:56:21Z</time></trkpt><trkpt lat="42.36517240201203" lon="-3.6946834636294468"><ele>886.0</ele><time>2026-05-02T16:56:23Z</time></trkpt><trkpt lat="42.36505989561755" lon="-3.694616718777495"><ele>886.0</ele><time>2026-05-02T16:56:25Z</time></trkpt><trkpt lat="42.365000324674064" lon="-3.6945867906264724"><ele>886.0</ele><time>2026-05-02T16:56:26Z</time></trkpt><trkpt lat="42.36494084955137" lon="-3.6945515151949335"><ele>885.9999999999999</ele><time>2026-05-02T16:56:27Z</time></trkpt><trkpt lat="42.364879421701694" lon="-3.6945142001084106"><ele>886.0</ele><time>2026-05-02T16:56:28Z</time></trkpt><trkpt lat="42.364818230133274" lon="-3.6944783403846464"><ele>886.0</ele><time>2026-05-02T16:56:29Z</time></trkpt><trkpt lat="42.364756434874224" lon="-3.6944436455343386"><ele>886.0</ele><time>2026-05-02T16:56:30Z</time></trkpt><trkpt lat="42.364694208258015" lon="-3.6944113434211743"><ele>886.0</ele><time>2026-05-02T16:56:31Z</time></trkpt><trkpt lat="42.364629920846625" lon="-3.694382169844906"><ele>886.0</ele><time>2026-05-02T16:56:32Z</time></trkpt><trkpt lat="42.36456493400388" lon="-3.6943554199782858"><ele>886.0</ele><time>2026-05-02T16:56:33Z</time></trkpt><trkpt lat="42.36449856394699" lon="-3.69433008500835"><ele>886.0</ele><time>2026-05-02T16:56:34Z</time></trkpt><trkpt lat="42.36443307731839" lon="-3.6943093615776923"><ele>886.0</ele><time>2026-05-02T16:56:35Z</time></trkpt><trkpt lat="42.36436547542969" lon="-3.694286639929853"><ele>887.4285714285714</ele><time>2026-05-02T16:56:36Z</time></trkpt><trkpt lat="42.364297608358285" lon="-3.694265683380993"><ele>888.8571428571429</ele><time>2026-05-02T16:56:37Z</time></trkpt><trkpt lat="42.36422741104146" lon="-3.694246784481308"><ele>890.2857142857142</ele><time>2026-05-02T16:56:38Z</time></trkpt><trkpt lat="42.36415744391412" lon="-3.6942268173642265"><ele>891.7142857142858</ele><time>2026-05-02T16:56:39Z</time></trkpt><trkpt lat="42.364086303353034" lon="-3.6942130036411154"><ele>893.1428571428571</ele><time>2026-05-02T16:56:40Z</time></trkpt><trkpt lat="42.36401603635521" lon="-3.6942043392760104"><ele>894.5714285714286</ele><time>2026-05-02T16:56:41Z</time></trkpt><trkpt lat="42.363946317595826" lon="-3.694197099031173"><ele>896.0</ele><time>2026-05-02T16:56:42Z</time></trkpt><trkpt lat="42.36387379761925" lon="-3.69418858096209"><ele>896.6666666666667</ele><time>2026-05-02T16:56:43Z</time></trkpt><trkpt lat="42.36379788263598" lon="-3.6941809425381402"><ele>897.3333333333334</ele><time>2026-05-02T16:56:44Z</time></trkpt><trkpt lat="42.36372325092166" lon="-3.694176026149685"><ele>898.0</ele><time>2026-05-02T16:56:45Z</time></trkpt><trkpt lat="42.36364684651345" lon="-3.694178729907785"><ele>898.6666666666667</ele><time>2026-05-02T16:56:46Z</time></trkpt><trkpt lat="42.363568463712475" lon="-3.6941857084158563"><ele>899.3333333333334</ele><time>2026-05-02T16:56:47Z</time></trkpt><trkpt lat="42.363490235084555" lon="-3.6941894878103105"><ele>900.0</ele><time>2026-05-02T16:56:48Z</time></trkpt><trkpt lat="42.36341088433367" lon="-3.6941932321240096"><ele>900.0</ele><time>2026-05-02T16:56:49Z</time></trkpt><trkpt lat="42.36332818411594" lon="-3.6942002013603865"><ele>900.0</ele><time>2026-05-02T16:56:50Z</time></trkpt><trkpt lat="42.363247649029475" lon="-3.6942145666122506"><ele>900.0</ele><time>2026-05-02T16:56:51Z</time></trkpt><trkpt lat="42.3631640823561" lon="-3.694230825177744"><ele>900.0</ele><time>2026-05-02T16:56:52Z</time></trkpt><trkpt lat="42.3630822018415" lon="-3.694250302975122"><ele>900.0</ele><time>2026-05-02T16:56:53Z</time></trkpt><trkpt lat="42.36299930604376" lon="-3.694271923891946"><ele>900.0</ele><time>2026-05-02T16:56:54Z</time></trkpt><trkpt lat="42.362915222326" lon="-3.6942919410514405"><ele>901.1666666666666</ele><time>2026-05-02T16:56:55Z</time></trkpt><trkpt lat="42.36283020182702" lon="-3.694312153403916"><ele>902.3333333333333</ele><time>2026-05-02T16:56:56Z</time></trkpt><trkpt lat="42.362744229760374" lon="-3.6943300549258855"><ele>903.5</ele><time>2026-05-02T16:56:57Z</time></trkpt><trkpt lat="42.36265874022764" lon="-3.6943489076902085"><ele>904.6666666666666</ele><time>2026-05-02T16:56:58Z</time></trkpt><trkpt lat="42.3625723437854" lon="-3.6943650844369844"><ele>905.8333333333333</ele><time>2026-05-02T16:56:59Z</time></trkpt><trkpt lat="42.362484054530896" lon="-3.6943808023132814"><ele>907.0</ele><time>2026-05-02T16:57:00Z</time></trkpt><trkpt lat="42.36239842625229" lon="-3.6943971038966197"><ele>907.0</ele><time>2026-05-02T16:57:01Z</time></trkpt><trkpt lat="42.36230995594005" lon="-3.6944103242026727"><ele>907.0</ele><time>2026-05-02T16:57:02Z</time></trkpt><trkpt lat="42.36222272364837" lon="-3.694423226610051"><ele>907.0</ele><time>2026-05-02T16:57:03Z</time></trkpt><trkpt lat="42.362133640195154" lon="-3.6944368978003665"><ele>907.0</ele><time>2026-05-02T16:57:04Z</time></trkpt><trkpt lat="42.36204244763292" lon="-3.694444940290529"><ele>907.0</ele><time>2026-05-02T16:57:05Z</time></trkpt><trkpt lat="42.36194974962278" lon="-3.694451290667842"><ele>906.0</ele><time>2026-05-02T16:57:06Z</time></trkpt><trkpt lat="42.36185531786595" lon="-3.6944568854617446"><ele>905.0</ele><time>2026-05-02T16:57:07Z</time></trkpt><trkpt lat="42.361756343150475" lon="-3.694460653523565"><ele>904.0</ele><time>2026-05-02T16:57:08Z</time></trkpt><trkpt lat="42.36166146049262" lon="-3.694460834035752"><ele>903.0</ele><time>2026-05-02T16:57:09Z</time></trkpt><trkpt lat="42.36156647554791" lon="-3.6944546035042114"><ele>902.0</ele><time>2026-05-02T16:57:10Z</time></trkpt><trkpt lat="42.36147203029128" lon="-3.6944444814968014"><ele>902.0</ele><time>2026-05-02T16:57:11Z</time></trkpt><trkpt lat="42.361380403891786" lon="-3.6944361858166377"><ele>902.0</ele><time>2026-05-02T16:57:12Z</time></trkpt><trkpt lat="42.36128669122709" lon="-3.694429279061967"><ele>902.0</ele><time>2026-05-02T16:57:13Z</time></trkpt><trkpt lat="42.36119384630253" lon="-3.694422115957946"><ele>902.0</ele><time>2026-05-02T16:57:14Z</time></trkpt><trkpt lat="42.36110049756605" lon="-3.6944095860606363"><ele>902.0</ele><time>2026-05-02T16:57:15Z</time></trkpt><trkpt lat="42.36100557581802" lon="-3.694397385856601"><ele>903.8</ele><time>2026-05-02T16:57:16Z</time></trkpt><trkpt lat="42.360910536233895" lon="-3.6943859266627057"><ele>905.6</ele><time>2026-05-02T16:57:17Z</time></trkpt><trkpt lat="42.3608158539122" lon="-3.694372424439915"><ele>907.3999999999999</ele><time>2026-05-02T16:57:18Z</time></trkpt><trkpt lat="42.360722985112176" lon="-3.6943588215360057"><ele>909.1999999999999</ele><time>2026-05-02T16:57:19Z</time></trkpt><trkpt lat="42.36062886231515" lon="-3.694339550011948"><ele>911.0</ele><time>2026-05-02T16:57:20Z</time></trkpt><trkpt lat="42.36053578514983" lon="-3.694317361300549"><ele>910.0</ele><time>2026-05-02T16:57:21Z</time></trkpt><trkpt lat="42.36044319516519" lon="-3.694292177890806"><ele>908.9999999999999</ele><time>2026-05-02T16:57:22Z</time></trkpt><trkpt lat="42.36034950228128" lon="-3.694273234606914"><ele>907.9999999999999</ele><time>2026-05-02T16:57:23Z</time></trkpt><trkpt lat="42.360255902184896" lon="-3.694246627808028"><ele>907.0</ele><time>2026-05-02T16:57:24Z</time></trkpt><trkpt lat="42.36016288616616" lon="-3.694221425538692"><ele>906.0</ele><time>2026-05-02T16:57:25Z</time></trkpt><trkpt lat="42.36006945652714" lon="-3.694195955235841"><ele>906.0</ele><time>2026-05-02T16:57:26Z</time></trkpt><trkpt lat="42.35997602126275" lon="-3.694167548486405"><ele>905.9999999999999</ele><time>2026-05-02T16:57:27Z</time></trkpt><trkpt lat="42.35988374459711" lon="-3.6941386354524464"><ele>905.9999999999999</ele><time>2026-05-02T16:57:28Z</time></trkpt><trkpt lat="42.359791798978016" lon="-3.694111523810668"><ele>906.0</ele><time>2026-05-02T16:57:29Z</time></trkpt><trkpt lat="42.3596996081001" lon="-3.6940834126532214"><ele>906.0</ele><time>2026-05-02T16:57:30Z</time></trkpt><trkpt lat="42.35960715485221" lon="-3.6940582142640443"><ele>905.0</ele><time>2026-05-02T16:57:31Z</time></trkpt><trkpt lat="42.35951776104778" lon="-3.694029505995405"><ele>903.9999999999999</ele><time>2026-05-02T16:57:32Z</time></trkpt><trkpt lat="42.35942640328396" lon="-3.694001434422945"><ele>902.9999999999999</ele><time>2026-05-02T16:57:33Z</time></trkpt><trkpt lat="42.35933544104763" lon="-3.693974860178086"><ele>902.0</ele><time>2026-05-02T16:57:34Z</time></trkpt><trkpt lat="42.35924624543181" lon="-3.6939490163099844"><ele>901.0</ele><time>2026-05-02T16:57:35Z</time></trkpt><trkpt lat="42.359151056914435" lon="-3.6939181406561317"><ele>901.0</ele><time>2026-05-02T16:57:36Z</time></trkpt><trkpt lat="42.359059460098166" lon="-3.6938886952230185"><ele>900.9999999999999</ele><time>2026-05-02T16:57:37Z</time></trkpt><trkpt lat="42.35897033051052" lon="-3.6938610698474417"><ele>900.9999999999999</ele><time>2026-05-02T16:57:38Z</time></trkpt><trkpt lat="42.35888251431471" lon="-3.6938343290695275"><ele>901.0</ele><time>2026-05-02T16:57:39Z</time></trkpt><trkpt lat="42.358794460481924" lon="-3.69380486531858"><ele>901.0</ele><time>2026-05-02T16:57:40Z</time></trkpt><trkpt lat="42.35870538441048" lon="-3.6937771183867745"><ele>900.1999999999999</ele><time>2026-05-02T16:57:41Z</time></trkpt><trkpt lat="42.35861588207565" lon="-3.6937481053476886"><ele>899.3999999999999</ele><time>2026-05-02T16:57:42Z</time></trkpt><trkpt lat="42.358524495507616" lon="-3.6937185380808817"><ele>898.6</ele><time>2026-05-02T16:57:43Z</time></trkpt><trkpt lat="42.358432484901435" lon="-3.6936916626136274"><ele>897.8</ele><time>2026-05-02T16:57:44Z</time></trkpt><trkpt lat="42.35834057306011" lon="-3.693663866364392"><ele>897.0</ele><time>2026-05-02T16:57:45Z</time></trkpt><trkpt lat="42.3582501392819" lon="-3.693636546093315"><ele>897.0</ele><time>2026-05-02T16:57:46Z</time></trkpt><trkpt lat="42.3581617207576" lon="-3.693607832499254"><ele>897.0</ele><time>2026-05-02T16:57:47Z</time></trkpt><trkpt lat="42.358075839177424" lon="-3.6935729990749167"><ele>897.0</ele><time>2026-05-02T16:57:48Z</time></trkpt><trkpt lat="42.35799111683305" lon="-3.69353713563938"><ele>897.0</ele><time>2026-05-02T16:57:49Z</time></trkpt><trkpt lat="42.3579077981641" lon="-3.6935021401047354"><ele>897.0</ele><time>2026-05-02T16:57:50Z</time></trkpt><trkpt lat="42.357827427673946" lon="-3.693462702356465"><ele>897.0</ele><time>2026-05-02T16:57:51Z</time></trkpt><trkpt lat="42.35775455415429" lon="-3.6934252726617767"><ele>894.8333333333334</ele><time>2026-05-02T16:57:52Z</time></trkpt><trkpt lat="42.3576867119276" lon="-3.6933927595256657"><ele>892.6666666666667</ele><time>2026-05-02T16:57:53Z</time></trkpt><trkpt lat="42.35762434083827" lon="-3.6933651995350325"><ele>890.5</ele><time>2026-05-02T16:57:54Z</time></trkpt><trkpt lat="42.35756127125864" lon="-3.693345419878986"><ele>888.3333333333334</ele><time>2026-05-02T16:57:55Z</time></trkpt><trkpt lat="42.35743590867241" lon="-3.6933561753269903"><ele>886.1666666666667</ele><time>2026-05-02T16:57:57Z</time></trkpt><trkpt lat="42.35737148658729" lon="-3.693382245535209"><ele>884.0</ele><time>2026-05-02T16:57:58Z</time></trkpt><trkpt lat="42.357311568645905" lon="-3.6934213029353815"><ele>884.0000000000001</ele><time>2026-05-02T16:57:59Z</time></trkpt><trkpt lat="42.35726112398869" lon="-3.6934855550722414"><ele>884.0</ele><time>2026-05-02T16:58:00Z</time></trkpt><trkpt lat="42.35722329740357" lon="-3.693564161666192"><ele>884.0</ele><time>2026-05-02T16:58:01Z</time></trkpt><trkpt lat="42.35719581896885" lon="-3.693648918744661"><ele>884.0</ele><time>2026-05-02T16:58:02Z</time></trkpt><trkpt lat="42.357179702203936" lon="-3.6937446594806915"><ele>884.0000000000001</ele><time>2026-05-02T16:58:03Z</time></trkpt><trkpt lat="42.35717637223394" lon="-3.693834592923678"><ele>884.0</ele><time>2026-05-02T16:58:04Z</time></trkpt><trkpt lat="42.35718018463736" lon="-3.6939770562011582"><ele>883.8333333333334</ele><time>2026-05-02T16:58:06Z</time></trkpt><trkpt lat="42.357179451513005" lon="-3.6940804437650367"><ele>883.6666666666667</ele><time>2026-05-02T16:58:08Z</time></trkpt><trkpt lat="42.357180331565566" lon="-3.6941712338984924"><ele>883.5</ele><time>2026-05-02T16:58:10Z</time></trkpt><trkpt lat="42.357176298582516" lon="-3.694281562182363"><ele>883.3333333333333</ele><time>2026-05-02T16:58:13Z</time></trkpt><trkpt lat="42.35718257124878" lon="-3.6943704049612123"><ele>883.1666666666666</ele><time>2026-05-02T16:58:15Z</time></trkpt><trkpt lat="42.35718843826172" lon="-3.6944725039152044"><ele>883.0</ele><time>2026-05-02T16:58:17Z</time></trkpt><trkpt lat="42.357196826553775" lon="-3.694596321178202"><ele>884.3333333333333</ele><time>2026-05-02T16:58:19Z</time></trkpt><trkpt lat="42.357208517571436" lon="-3.6947387046651663"><ele>885.6666666666666</ele><time>2026-05-02T16:58:21Z</time></trkpt><trkpt lat="42.357222837238915" lon="-3.6949003582302056"><ele>887.0</ele><time>2026-05-02T16:58:23Z</time></trkpt><trkpt lat="42.35723207778493" lon="-3.694987331833851"><ele>888.3333333333333</ele><time>2026-05-02T16:58:24Z</time></trkpt><trkpt lat="42.35724400350423" lon="-3.695077675954268"><ele>889.6666666666666</ele><time>2026-05-02T16:58:25Z</time></trkpt><trkpt lat="42.35725475318825" lon="-3.6951701060424167"><ele>891.0</ele><time>2026-05-02T16:58:26Z</time></trkpt><trkpt lat="42.35726739333683" lon="-3.695262394996046"><ele>891.0000000000001</ele><time>2026-05-02T16:58:27Z</time></trkpt><trkpt lat="42.357276650679594" lon="-3.695356547282154"><ele>891.0</ele><time>2026-05-02T16:58:28Z</time></trkpt><trkpt lat="42.35728729401404" lon="-3.695451292754241"><ele>891.0</ele><time>2026-05-02T16:58:29Z</time></trkpt><trkpt lat="42.35729694826584" lon="-3.6955495289722724"><ele>891.0</ele><time>2026-05-02T16:58:30Z</time></trkpt><trkpt lat="42.357305536108676" lon="-3.6956485859837853"><ele>891.0</ele><time>2026-05-02T16:58:31Z</time></trkpt><trkpt lat="42.357313669272244" lon="-3.695746305816474"><ele>891.0000000000001</ele><time>2026-05-02T16:58:32Z</time></trkpt><trkpt lat="42.35732311455033" lon="-3.6958467536000654"><ele>891.0</ele><time>2026-05-02T16:58:33Z</time></trkpt><trkpt lat="42.357329963673976" lon="-3.695946148545435"><ele>891.0000000000001</ele><time>2026-05-02T16:58:34Z</time></trkpt><trkpt lat="42.357333167270085" lon="-3.6960470679414286"><ele>891.0</ele><time>2026-05-02T16:58:35Z</time></trkpt><trkpt lat="42.357338707250996" lon="-3.6961456647619206"><ele>891.0</ele><time>2026-05-02T16:58:36Z</time></trkpt><trkpt lat="42.35733994442416" lon="-3.6962455354185435"><ele>891.0</ele><time>2026-05-02T16:58:37Z</time></trkpt><trkpt lat="42.35733907961777" lon="-3.696345450585779"><ele>891.0</ele><time>2026-05-02T16:58:38Z</time></trkpt><trkpt lat="42.35733387018284" lon="-3.6964485134960072"><ele>891.0000000000001</ele><time>2026-05-02T16:58:39Z</time></trkpt><trkpt lat="42.3573315333382" lon="-3.696550046144005"><ele>891.0</ele><time>2026-05-02T16:58:40Z</time></trkpt><trkpt lat="42.35732946114022" lon="-3.696654301309153"><ele>891.5</ele><time>2026-05-02T16:58:41Z</time></trkpt><trkpt lat="42.3573235139985" lon="-3.696759938112251"><ele>892.0</ele><time>2026-05-02T16:58:42Z</time></trkpt><trkpt lat="42.35732101504805" lon="-3.6968677405685004"><ele>892.5</ele><time>2026-05-02T16:58:43Z</time></trkpt><trkpt lat="42.357316498818335" lon="-3.6969788848341305"><ele>893.0</ele><time>2026-05-02T16:58:44Z</time></trkpt><trkpt lat="42.35730381638926" lon="-3.697087817133988"><ele>893.5</ele><time>2026-05-02T16:58:45Z</time></trkpt><trkpt lat="42.357294338298324" lon="-3.6972038046493645"><ele>894.0</ele><time>2026-05-02T16:58:46Z</time></trkpt><trkpt lat="42.35728330028413" lon="-3.697317390726731"><ele>894.0</ele><time>2026-05-02T16:58:47Z</time></trkpt><trkpt lat="42.357267026856626" lon="-3.6974316487294345"><ele>894.0000000000001</ele><time>2026-05-02T16:58:48Z</time></trkpt><trkpt lat="42.35724943315112" lon="-3.697548588173625"><ele>894.0000000000001</ele><time>2026-05-02T16:58:49Z</time></trkpt><trkpt lat="42.357228643722905" lon="-3.6976698091652245"><ele>894.0</ele><time>2026-05-02T16:58:50Z</time></trkpt><trkpt lat="42.35720422873897" lon="-3.697790317343754"><ele>894.0</ele><time>2026-05-02T16:58:51Z</time></trkpt><trkpt lat="42.35717819925895" lon="-3.6979130838850525"><ele>894.6</ele><time>2026-05-02T16:58:52Z</time></trkpt><trkpt lat="42.35715283677256" lon="-3.698036457911434"><ele>895.2</ele><time>2026-05-02T16:58:53Z</time></trkpt><trkpt lat="42.35712116600073" lon="-3.698164572083705"><ele>895.8000000000001</ele><time>2026-05-02T16:58:54Z</time></trkpt><trkpt lat="42.357090575221136" lon="-3.698291517983556"><ele>896.4000000000001</ele><time>2026-05-02T16:58:55Z</time></trkpt><trkpt lat="42.357056975039534" lon="-3.6984203331444103"><ele>897.0</ele><time>2026-05-02T16:58:56Z</time></trkpt><trkpt lat="42.357023859416074" lon="-3.6985493699178695"><ele>895.2</ele><time>2026-05-02T16:58:57Z</time></trkpt><trkpt lat="42.356994385955616" lon="-3.698679931435224"><ele>893.4000000000001</ele><time>2026-05-02T16:58:58Z</time></trkpt><trkpt lat="42.3569614526429" lon="-3.6988138548444347"><ele>891.5999999999999</ele><time>2026-05-02T16:58:59Z</time></trkpt><trkpt lat="42.35692852541371" lon="-3.6989470804173834"><ele>889.8</ele><time>2026-05-02T16:59:00Z</time></trkpt><trkpt lat="42.356897096479535" lon="-3.699078797132686"><ele>888.0</ele><time>2026-05-02T16:59:01Z</time></trkpt><trkpt lat="42.35686091962345" lon="-3.699210549155986"><ele>888.0</ele><time>2026-05-02T16:59:02Z</time></trkpt><trkpt lat="42.35682562127684" lon="-3.699340622927504"><ele>888.0</ele><time>2026-05-02T16:59:03Z</time></trkpt><trkpt lat="42.356788252798694" lon="-3.6994705339865663"><ele>888.0</ele><time>2026-05-02T16:59:04Z</time></trkpt><trkpt lat="42.35675655952311" lon="-3.6996025990963037"><ele>888.0</ele><time>2026-05-02T16:59:05Z</time></trkpt><trkpt lat="42.356719739138995" lon="-3.69973863522758"><ele>888.0</ele><time>2026-05-02T16:59:06Z</time></trkpt><trkpt lat="42.35668452801144" lon="-3.6998730477195507"><ele>888.2</ele><time>2026-05-02T16:59:07Z</time></trkpt><trkpt lat="42.35664707668611" lon="-3.7000091915393787"><ele>888.4</ele><time>2026-05-02T16:59:08Z</time></trkpt><trkpt lat="42.3566132583719" lon="-3.7001438496189225"><ele>888.6000000000001</ele><time>2026-05-02T16:59:09Z</time></trkpt><trkpt lat="42.35657870279675" lon="-3.700279436985385"><ele>888.8000000000001</ele><time>2026-05-02T16:59:10Z</time></trkpt><trkpt lat="42.35654420933277" lon="-3.7004134850322323"><ele>889.0</ele><time>2026-05-02T16:59:11Z</time></trkpt><trkpt lat="42.356512976343176" lon="-3.7005505149481506"><ele>889.0</ele><time>2026-05-02T16:59:12Z</time></trkpt><trkpt lat="42.35647550730311" lon="-3.7006856260381973"><ele>889.0000000000001</ele><time>2026-05-02T16:59:13Z</time></trkpt><trkpt lat="42.3564372126837" lon="-3.700823271092052"><ele>889.0000000000001</ele><time>2026-05-02T16:59:14Z</time></trkpt><trkpt lat="42.35640323552445" lon="-3.7009639889784394"><ele>889.0</ele><time>2026-05-02T16:59:15Z</time></trkpt><trkpt lat="42.35636692286499" lon="-3.7011013491033404"><ele>889.0</ele><time>2026-05-02T16:59:16Z</time></trkpt><trkpt lat="42.356327199667206" lon="-3.7012377532118643"><ele>888.4000000000001</ele><time>2026-05-02T16:59:17Z</time></trkpt><trkpt lat="42.3562969865698" lon="-3.701372258789726"><ele>887.8000000000001</ele><time>2026-05-02T16:59:18Z</time></trkpt><trkpt lat="42.356267460471734" lon="-3.701507481700091"><ele>887.1999999999999</ele><time>2026-05-02T16:59:19Z</time></trkpt><trkpt lat="42.356229959002945" lon="-3.701647007048572"><ele>886.5999999999999</ele><time>2026-05-02T16:59:20Z</time></trkpt><trkpt lat="42.35619557808849" lon="-3.7017855049551947"><ele>886.0</ele><time>2026-05-02T16:59:21Z</time></trkpt><trkpt lat="42.35615975234217" lon="-3.701921599562177"><ele>885.8</ele><time>2026-05-02T16:59:22Z</time></trkpt><trkpt lat="42.356120883953515" lon="-3.702053483760588"><ele>885.5999999999999</ele><time>2026-05-02T16:59:23Z</time></trkpt><trkpt lat="42.35609098611352" lon="-3.7021891689473496"><ele>885.4</ele><time>2026-05-02T16:59:24Z</time></trkpt><trkpt lat="42.356057121765375" lon="-3.7023243779697625"><ele>885.2</ele><time>2026-05-02T16:59:25Z</time></trkpt><trkpt lat="42.356023610136866" lon="-3.702461790459034"><ele>885.0</ele><time>2026-05-02T16:59:26Z</time></trkpt><trkpt lat="42.35598956316124" lon="-3.7026002852020508"><ele>885.0</ele><time>2026-05-02T16:59:27Z</time></trkpt><trkpt lat="42.35595641923999" lon="-3.7027366265563457"><ele>885.0</ele><time>2026-05-02T16:59:28Z</time></trkpt><trkpt lat="42.355922619229894" lon="-3.7028731456458517"><ele>885.0</ele><time>2026-05-02T16:59:29Z</time></trkpt><trkpt lat="42.355886112038576" lon="-3.7030101605020267"><ele>885.0</ele><time>2026-05-02T16:59:30Z</time></trkpt><trkpt lat="42.35584974117586" lon="-3.7031423588807626"><ele>885.0</ele><time>2026-05-02T16:59:31Z</time></trkpt><trkpt lat="42.35581851908836" lon="-3.703280416317442"><ele>884.4</ele><time>2026-05-02T16:59:32Z</time></trkpt><trkpt lat="42.35578144179103" lon="-3.7034186652968355"><ele>883.8</ele><time>2026-05-02T16:59:33Z</time></trkpt><trkpt lat="42.35574094217846" lon="-3.703555681282736"><ele>883.2</ele><time>2026-05-02T16:59:34Z</time></trkpt><trkpt lat="42.355703844496404" lon="-3.703693294613535"><ele>882.6</ele><time>2026-05-02T16:59:35Z</time></trkpt><trkpt lat="42.35566746434076" lon="-3.7038284045569454"><ele>882.0</ele><time>2026-05-02T16:59:36Z</time></trkpt><trkpt lat="42.35563136388739" lon="-3.703965143882753"><ele>881.8</ele><time>2026-05-02T16:59:37Z</time></trkpt><trkpt lat="42.355594595586915" lon="-3.7041072941132165"><ele>881.6</ele><time>2026-05-02T16:59:38Z</time></trkpt><trkpt lat="42.35556266749834" lon="-3.7042495554243557"><ele>881.3999999999999</ele><time>2026-05-02T16:59:39Z</time></trkpt><trkpt lat="42.355526538148915" lon="-3.7043883321473925"><ele>881.1999999999999</ele><time>2026-05-02T16:59:40Z</time></trkpt><trkpt lat="42.355490832644165" lon="-3.70452613960439"><ele>881.0</ele><time>2026-05-02T16:59:41Z</time></trkpt><trkpt lat="42.35545615376851" lon="-3.704665449799284"><ele>880.1999999999999</ele><time>2026-05-02T16:59:42Z</time></trkpt><trkpt lat="42.35542695906954" lon="-3.704805910002607"><ele>879.3999999999999</ele><time>2026-05-02T16:59:43Z</time></trkpt><trkpt lat="42.35539215769803" lon="-3.7049406114125047"><ele>878.6</ele><time>2026-05-02T16:59:44Z</time></trkpt><trkpt lat="42.355353636269776" lon="-3.7050785290991044"><ele>877.8</ele><time>2026-05-02T16:59:45Z</time></trkpt><trkpt lat="42.35531853275247" lon="-3.705220311227573"><ele>877.0</ele><time>2026-05-02T16:59:46Z</time></trkpt><trkpt lat="42.35528309852768" lon="-3.705357087810738"><ele>875.8</ele><time>2026-05-02T16:59:47Z</time></trkpt><trkpt lat="42.35524878063435" lon="-3.70549411676152"><ele>874.6</ele><time>2026-05-02T16:59:48Z</time></trkpt><trkpt lat="42.35521135701888" lon="-3.7056353283698185"><ele>873.3999999999999</ele><time>2026-05-02T16:59:49Z</time></trkpt><trkpt lat="42.355173681028404" lon="-3.705771383549703"><ele>872.1999999999999</ele><time>2026-05-02T16:59:50Z</time></trkpt><trkpt lat="42.355139671729475" lon="-3.7059055874689477"><ele>871.0</ele><time>2026-05-02T16:59:51Z</time></trkpt><trkpt lat="42.35510336065563" lon="-3.7060384706944673"><ele>871.1999999999999</ele><time>2026-05-02T16:59:52Z</time></trkpt><trkpt lat="42.35506416210112" lon="-3.706170861038799"><ele>871.3999999999999</ele><time>2026-05-02T16:59:53Z</time></trkpt><trkpt lat="42.35502597669422" lon="-3.7063052255020494"><ele>871.6</ele><time>2026-05-02T16:59:54Z</time></trkpt><trkpt lat="42.35498642732135" lon="-3.706436241961149"><ele>871.8</ele><time>2026-05-02T16:59:55Z</time></trkpt><trkpt lat="42.35494469066108" lon="-3.7065717206078905"><ele>872.0</ele><time>2026-05-02T16:59:56Z</time></trkpt><trkpt lat="42.35489916018401" lon="-3.7067086709243937"><ele>872.0</ele><time>2026-05-02T16:59:57Z</time></trkpt><trkpt lat="42.354847640821944" lon="-3.706832605583664"><ele>872.0</ele><time>2026-05-02T16:59:58Z</time></trkpt><trkpt lat="42.3547987338624" lon="-3.706951882279172"><ele>872.0</ele><time>2026-05-02T16:59:59Z</time></trkpt><trkpt lat="42.35474641514867" lon="-3.7070750078354733"><ele>872.0</ele><time>2026-05-02T17:00:00Z</time></trkpt><trkpt lat="42.35468916969524" lon="-3.7071976380456615"><ele>872.0</ele><time>2026-05-02T17:00:01Z</time></trkpt><trkpt lat="42.354630712309415" lon="-3.7073173194399103"><ele>870.8</ele><time>2026-05-02T17:00:02Z</time></trkpt><trkpt lat="42.3545684239079" lon="-3.707430625690006"><ele>869.6</ele><time>2026-05-02T17:00:03Z</time></trkpt><trkpt lat="42.354504569274944" lon="-3.7075466963258217"><ele>868.3999999999999</ele><time>2026-05-02T17:00:04Z</time></trkpt><trkpt lat="42.35443770738722" lon="-3.7076585932887602"><ele>867.1999999999999</ele><time>2026-05-02T17:00:05Z</time></trkpt><trkpt lat="42.35436852199751" lon="-3.707768853390159"><ele>866.0</ele><time>2026-05-02T17:00:06Z</time></trkpt><trkpt lat="42.35429861442345" lon="-3.7078790894472955"><ele>865.5999999999999</ele><time>2026-05-02T17:00:07Z</time></trkpt><trkpt lat="42.354227006298856" lon="-3.707986103942093"><ele>865.1999999999999</ele><time>2026-05-02T17:00:08Z</time></trkpt><trkpt lat="42.35415949729988" lon="-3.7080978981670554"><ele>864.8000000000001</ele><time>2026-05-02T17:00:09Z</time></trkpt><trkpt lat="42.354088307788814" lon="-3.7082099443294343"><ele>864.4000000000001</ele><time>2026-05-02T17:00:10Z</time></trkpt><trkpt lat="42.35401493390525" lon="-3.708321854400305"><ele>864.0</ele><time>2026-05-02T17:00:11Z</time></trkpt><trkpt lat="42.353942708130546" lon="-3.7084316637815555"><ele>864.0</ele><time>2026-05-02T17:00:12Z</time></trkpt><trkpt lat="42.353872732619884" lon="-3.7085437938549997"><ele>864.0000000000001</ele><time>2026-05-02T17:00:13Z</time></trkpt><trkpt lat="42.353806998872" lon="-3.7086565542382193"><ele>864.0000000000001</ele><time>2026-05-02T17:00:14Z</time></trkpt><trkpt lat="42.35373733783545" lon="-3.7087608894620776"><ele>864.0</ele><time>2026-05-02T17:00:15Z</time></trkpt><trkpt lat="42.3536705967683" lon="-3.708873312246952"><ele>864.0</ele><time>2026-05-02T17:00:16Z</time></trkpt><trkpt lat="42.3536040704888" lon="-3.708985629091944"><ele>864.4000000000001</ele><time>2026-05-02T17:00:17Z</time></trkpt><trkpt lat="42.353537855607414" lon="-3.70910026662698"><ele>864.8000000000001</ele><time>2026-05-02T17:00:18Z</time></trkpt><trkpt lat="42.3534744089465" lon="-3.70921290035333"><ele>865.1999999999999</ele><time>2026-05-02T17:00:19Z</time></trkpt><trkpt lat="42.353409315231154" lon="-3.7093227214736757"><ele>865.5999999999999</ele><time>2026-05-02T17:00:20Z</time></trkpt><trkpt lat="42.35334343956666" lon="-3.709430644773786"><ele>866.0</ele><time>2026-05-02T17:00:21Z</time></trkpt><trkpt lat="42.35327635325058" lon="-3.7095380810137977"><ele>866.5999999999999</ele><time>2026-05-02T17:00:22Z</time></trkpt><trkpt lat="42.35320733380942" lon="-3.7096523307093197"><ele>867.1999999999999</ele><time>2026-05-02T17:00:23Z</time></trkpt><trkpt lat="42.35314071821972" lon="-3.7097634665174226"><ele>867.8000000000001</ele><time>2026-05-02T17:00:24Z</time></trkpt><trkpt lat="42.35307741770236" lon="-3.7098670625503654"><ele>868.4000000000001</ele><time>2026-05-02T17:00:25Z</time></trkpt><trkpt lat="42.353021056436646" lon="-3.7099717292115133"><ele>869.0</ele><time>2026-05-02T17:00:26Z</time></trkpt><trkpt lat="42.35296814153412" lon="-3.71007034987905"><ele>869.0000000000001</ele><time>2026-05-02T17:00:27Z</time></trkpt><trkpt lat="42.352916036729226" lon="-3.7101698322361707"><ele>869.0</ele><time>2026-05-02T17:00:28Z</time></trkpt><trkpt lat="42.35287276668702" lon="-3.710271139136927"><ele>869.0</ele><time>2026-05-02T17:00:29Z</time></trkpt><trkpt lat="42.35283501731222" lon="-3.710362752397095"><ele>869.0</ele><time>2026-05-02T17:00:30Z</time></trkpt><trkpt lat="42.35280087640006" lon="-3.7104688228961114"><ele>869.0000000000001</ele><time>2026-05-02T17:00:31Z</time></trkpt><trkpt lat="42.352777291641765" lon="-3.710567140097263"><ele>869.0</ele><time>2026-05-02T17:00:32Z</time></trkpt><trkpt lat="42.352900779431074" lon="-3.7108125318056464"><ele>868.1428571428572</ele><time>2026-05-02T17:00:34Z</time></trkpt><trkpt lat="42.35295154346086" lon="-3.7108905984035636"><ele>867.2857142857142</ele><time>2026-05-02T17:00:35Z</time></trkpt><trkpt lat="42.35299438304122" lon="-3.710967861990952"><ele>866.4285714285714</ele><time>2026-05-02T17:00:36Z</time></trkpt><trkpt lat="42.35302939046754" lon="-3.7110560654276865"><ele>865.5714285714287</ele><time>2026-05-02T17:00:37Z</time></trkpt><trkpt lat="42.35304265675121" lon="-3.7111581616841716"><ele>864.7142857142858</ele><time>2026-05-02T17:00:38Z</time></trkpt><trkpt lat="42.353034402519405" lon="-3.7112569478249395"><ele>863.8571428571429</ele><time>2026-05-02T17:00:39Z</time></trkpt><trkpt lat="42.35300651672598" lon="-3.7113449947963946"><ele>863.0</ele><time>2026-05-02T17:00:40Z</time></trkpt><trkpt lat="42.35296067864876" lon="-3.711425198750199"><ele>862.8333333333334</ele><time>2026-05-02T17:00:41Z</time></trkpt><trkpt lat="42.35290258307467" lon="-3.711485109307024"><ele>862.6666666666667</ele><time>2026-05-02T17:00:42Z</time></trkpt><trkpt lat="42.35283448751625" lon="-3.7115089623520436"><ele>862.5</ele><time>2026-05-02T17:00:43Z</time></trkpt><trkpt lat="42.35275585938109" lon="-3.711513735082922"><ele>862.3333333333333</ele><time>2026-05-02T17:00:44Z</time></trkpt><trkpt lat="42.352671319696185" lon="-3.711499254161084"><ele>862.1666666666666</ele><time>2026-05-02T17:00:45Z</time></trkpt><trkpt lat="42.35259046508275" lon="-3.7114656331359717"><ele>862.0</ele><time>2026-05-02T17:00:46Z</time></trkpt><trkpt lat="42.35250905367229" lon="-3.711428710885868"><ele>862.0</ele><time>2026-05-02T17:00:47Z</time></trkpt><trkpt lat="42.352421507398326" lon="-3.711422823718092"><ele>862.0</ele><time>2026-05-02T17:00:48Z</time></trkpt><trkpt lat="42.35233056821484" lon="-3.7114407479416487"><ele>862.0</ele><time>2026-05-02T17:00:49Z</time></trkpt><trkpt lat="42.35224119340636" lon="-3.7114700277320813"><ele>862.0</ele><time>2026-05-02T17:00:50Z</time></trkpt><trkpt lat="42.35215164637027" lon="-3.7115186068873776"><ele>862.0</ele><time>2026-05-02T17:00:51Z</time></trkpt><trkpt lat="42.352061078305546" lon="-3.7115580579122325"><ele>862.4000000000001</ele><time>2026-05-02T17:00:52Z</time></trkpt><trkpt lat="42.351969697108515" lon="-3.7115955819341737"><ele>862.8000000000001</ele><time>2026-05-02T17:00:53Z</time></trkpt><trkpt lat="42.35187079449613" lon="-3.711632599126211"><ele>863.2</ele><time>2026-05-02T17:00:54Z</time></trkpt><trkpt lat="42.3517653708628" lon="-3.7116675224280526"><ele>863.6</ele><time>2026-05-02T17:00:55Z</time></trkpt><trkpt lat="42.35166604862036" lon="-3.711702380953472"><ele>864.0</ele><time>2026-05-02T17:00:56Z</time></trkpt><trkpt lat="42.35156025100996" lon="-3.7117449217334704"><ele>864.0</ele><time>2026-05-02T17:00:57Z</time></trkpt><trkpt lat="42.35146158792434" lon="-3.711782458519423"><ele>864.0000000000001</ele><time>2026-05-02T17:00:58Z</time></trkpt><trkpt lat="42.35136032372317" lon="-3.711818020150759"><ele>864.0000000000001</ele><time>2026-05-02T17:00:59Z</time></trkpt><trkpt lat="42.35125807901227" lon="-3.7118534590056993"><ele>864.0</ele><time>2026-05-02T17:01:00Z</time></trkpt><trkpt lat="42.35115669782785" lon="-3.7118883928278494"><ele>864.0</ele><time>2026-05-02T17:01:01Z</time></trkpt><trkpt lat="42.35105572062367" lon="-3.711922975008349"><ele>863.2</ele><time>2026-05-02T17:01:02Z</time></trkpt><trkpt lat="42.35095495188828" lon="-3.71195536669039"><ele>862.4000000000001</ele><time>2026-05-02T17:01:03Z</time></trkpt><trkpt lat="42.35085413940776" lon="-3.7119880020976184"><ele>861.6</ele><time>2026-05-02T17:01:04Z</time></trkpt><trkpt lat="42.350752789190146" lon="-3.7120125216604594"><ele>860.8</ele><time>2026-05-02T17:01:05Z</time></trkpt><trkpt lat="42.350652387887614" lon="-3.712049327630526"><ele>860.0</ele><time>2026-05-02T17:01:06Z</time></trkpt><trkpt lat="42.350554374376266" lon="-3.712088639164976"><ele>859.4</ele><time>2026-05-02T17:01:07Z</time></trkpt><trkpt lat="42.35045683338184" lon="-3.7121225881699655"><ele>858.8</ele><time>2026-05-02T17:01:08Z</time></trkpt><trkpt lat="42.35035545799173" lon="-3.712153233236137"><ele>858.2</ele><time>2026-05-02T17:01:09Z</time></trkpt><trkpt lat="42.350254872886254" lon="-3.712184093661142"><ele>857.6</ele><time>2026-05-02T17:01:10Z</time></trkpt><trkpt lat="42.35015485550046" lon="-3.7122163403341384"><ele>857.0</ele><time>2026-05-02T17:01:11Z</time></trkpt><trkpt lat="42.350056315310894" lon="-3.7122466153477256"><ele>857.0</ele><time>2026-05-02T17:01:12Z</time></trkpt><trkpt lat="42.34995667245998" lon="-3.712275062724605"><ele>857.0</ele><time>2026-05-02T17:01:13Z</time></trkpt><trkpt lat="42.349856716961696" lon="-3.712305401090536"><ele>857.0</ele><time>2026-05-02T17:01:14Z</time></trkpt><trkpt lat="42.349757067621724" lon="-3.7123345998135866"><ele>857.0</ele><time>2026-05-02T17:01:15Z</time></trkpt><trkpt lat="42.34965811600679" lon="-3.7123673488837943"><ele>857.0</ele><time>2026-05-02T17:01:16Z</time></trkpt><trkpt lat="42.349558270777145" lon="-3.712398778777237"><ele>857.8</ele><time>2026-05-02T17:01:17Z</time></trkpt><trkpt lat="42.34946454426718" lon="-3.7124315922526177"><ele>858.6</ele><time>2026-05-02T17:01:18Z</time></trkpt><trkpt lat="42.349367967004774" lon="-3.7124565443056112"><ele>859.3999999999999</ele><time>2026-05-02T17:01:19Z</time></trkpt><trkpt lat="42.34927169739555" lon="-3.712488331835521"><ele>860.1999999999999</ele><time>2026-05-02T17:01:20Z</time></trkpt><trkpt lat="42.34917626712841" lon="-3.712518854691118"><ele>861.0</ele><time>2026-05-02T17:01:21Z</time></trkpt><trkpt lat="42.34908220839783" lon="-3.7125522550348533"><ele>861.0</ele><time>2026-05-02T17:01:22Z</time></trkpt><trkpt lat="42.3489854666097" lon="-3.712584510858975"><ele>860.9999999999999</ele><time>2026-05-02T17:01:23Z</time></trkpt><trkpt lat="42.34889259862805" lon="-3.7126091055186805"><ele>860.9999999999999</ele><time>2026-05-02T17:01:24Z</time></trkpt><trkpt lat="42.34880043027738" lon="-3.7126352218815692"><ele>861.0</ele><time>2026-05-02T17:01:25Z</time></trkpt><trkpt lat="42.34871349185399" lon="-3.71266390149052"><ele>861.0</ele><time>2026-05-02T17:01:26Z</time></trkpt><trkpt lat="42.34862734157395" lon="-3.7126885312761466"><ele>860.8333333333334</ele><time>2026-05-02T17:01:27Z</time></trkpt><trkpt lat="42.348545962013716" lon="-3.712725548109889"><ele>860.6666666666667</ele><time>2026-05-02T17:01:28Z</time></trkpt><trkpt lat="42.34847067081103" lon="-3.7127791553076372"><ele>860.5</ele><time>2026-05-02T17:01:29Z</time></trkpt><trkpt lat="42.34840303261365" lon="-3.7128386693800244"><ele>860.3333333333334</ele><time>2026-05-02T17:01:30Z</time></trkpt><trkpt lat="42.34833310011588" lon="-3.7128854567450023"><ele>860.1666666666667</ele><time>2026-05-02T17:01:31Z</time></trkpt><trkpt lat="42.34826375536817" lon="-3.712925151844992"><ele>860.0</ele><time>2026-05-02T17:01:32Z</time></trkpt><trkpt lat="42.348195278819254" lon="-3.71293837144989"><ele>860.0000000000001</ele><time>2026-05-02T17:01:33Z</time></trkpt><trkpt lat="42.348129786835585" lon="-3.712928090992088"><ele>860.0</ele><time>2026-05-02T17:01:34Z</time></trkpt><trkpt lat="42.34807003290244" lon="-3.712886525804936"><ele>860.0</ele><time>2026-05-02T17:01:35Z</time></trkpt><trkpt lat="42.34799059971494" lon="-3.7127284851381575"><ele>860.0</ele><time>2026-05-02T17:01:37Z</time></trkpt><trkpt lat="42.34796336665669" lon="-3.712642069551458"><ele>860.0000000000001</ele><time>2026-05-02T17:01:38Z</time></trkpt><trkpt lat="42.34792749873319" lon="-3.712561913441609"><ele>860.0</ele><time>2026-05-02T17:01:39Z</time></trkpt><trkpt lat="42.347872252621606" lon="-3.7125036615653038"><ele>861.1428571428571</ele><time>2026-05-02T17:01:40Z</time></trkpt><trkpt lat="42.34780755364382" lon="-3.7124601659490453"><ele>862.2857142857143</ele><time>2026-05-02T17:01:41Z</time></trkpt><trkpt lat="42.34773720705261" lon="-3.712441776232645"><ele>863.4285714285714</ele><time>2026-05-02T17:01:42Z</time></trkpt><trkpt lat="42.34766544096967" lon="-3.712446492725596"><ele>864.5714285714286</ele><time>2026-05-02T17:01:43Z</time></trkpt><trkpt lat="42.34759098463037" lon="-3.7124568609434307"><ele>865.7142857142858</ele><time>2026-05-02T17:01:44Z</time></trkpt><trkpt lat="42.34751410575581" lon="-3.712458206024444"><ele>866.8571428571429</ele><time>2026-05-02T17:01:45Z</time></trkpt><trkpt lat="42.34744183543085" lon="-3.7124553109585112"><ele>868.0</ele><time>2026-05-02T17:01:46Z</time></trkpt><trkpt lat="42.347365679977095" lon="-3.7124448636543756"><ele>867.9999999999999</ele><time>2026-05-02T17:01:47Z</time></trkpt><trkpt lat="42.34728791883828" lon="-3.7124317788302066"><ele>868.0</ele><time>2026-05-02T17:01:48Z</time></trkpt><trkpt lat="42.34720974030907" lon="-3.712422391961816"><ele>868.0</ele><time>2026-05-02T17:01:49Z</time></trkpt><trkpt lat="42.347133032237025" lon="-3.7124037218232635"><ele>868.0</ele><time>2026-05-02T17:01:50Z</time></trkpt><trkpt lat="42.34705013329132" lon="-3.7123947933645947"><ele>867.9999999999999</ele><time>2026-05-02T17:01:51Z</time></trkpt><trkpt lat="42.34696539229904" lon="-3.7123855592736943"><ele>868.0</ele><time>2026-05-02T17:01:52Z</time></trkpt><trkpt lat="42.34687899963293" lon="-3.7123827422018256"><ele>868.2</ele><time>2026-05-02T17:01:53Z</time></trkpt><trkpt lat="42.34679134498803" lon="-3.7123769556577826"><ele>868.4</ele><time>2026-05-02T17:01:54Z</time></trkpt><trkpt lat="42.3466999039414" lon="-3.7123756483099744"><ele>868.6000000000001</ele><time>2026-05-02T17:01:55Z</time></trkpt><trkpt lat="42.346609128008765" lon="-3.712370679764436"><ele>868.8000000000001</ele><time>2026-05-02T17:01:56Z</time></trkpt><trkpt lat="42.34651216723691" lon="-3.712364198831543"><ele>869.0</ele><time>2026-05-02T17:01:57Z</time></trkpt><trkpt lat="42.34641652348389" lon="-3.7123574254142673"><ele>868.6</ele><time>2026-05-02T17:01:58Z</time></trkpt><trkpt lat="42.346318601507214" lon="-3.7123549715246327"><ele>868.2</ele><time>2026-05-02T17:01:59Z</time></trkpt><trkpt lat="42.34621919809943" lon="-3.7123548248807796"><ele>867.8000000000001</ele><time>2026-05-02T17:02:00Z</time></trkpt><trkpt lat="42.346122364753434" lon="-3.7123559615470723"><ele>867.4000000000001</ele><time>2026-05-02T17:02:01Z</time></trkpt><trkpt lat="42.34602728337824" lon="-3.712357698536821"><ele>867.0</ele><time>2026-05-02T17:02:02Z</time></trkpt><trkpt lat="42.34593317306921" lon="-3.7123642845162546"><ele>867.0</ele><time>2026-05-02T17:02:03Z</time></trkpt><trkpt lat="42.34574183073448" lon="-3.7123713292582248"><ele>867.0</ele><time>2026-05-02T17:02:05Z</time></trkpt><trkpt lat="42.345648286045886" lon="-3.712375948410102"><ele>867.0</ele><time>2026-05-02T17:02:06Z</time></trkpt><trkpt lat="42.345560059140986" lon="-3.712383283139081"><ele>867.0</ele><time>2026-05-02T17:02:07Z</time></trkpt><trkpt lat="42.34547115713447" lon="-3.7123863584850847"><ele>867.3333333333334</ele><time>2026-05-02T17:02:08Z</time></trkpt><trkpt lat="42.34538846440532" lon="-3.7123877932512257"><ele>867.6666666666667</ele><time>2026-05-02T17:02:09Z</time></trkpt><trkpt lat="42.34531013820726" lon="-3.7123910783016347"><ele>868.0</ele><time>2026-05-02T17:02:10Z</time></trkpt><trkpt lat="42.345227694333204" lon="-3.7124005392527604"><ele>868.3333333333334</ele><time>2026-05-02T17:02:11Z</time></trkpt><trkpt lat="42.34515447485805" lon="-3.7123949432505032"><ele>868.6666666666667</ele><time>2026-05-02T17:02:12Z</time></trkpt><trkpt lat="42.34508650107494" lon="-3.7124063344286347"><ele>869.0</ele><time>2026-05-02T17:02:13Z</time></trkpt><trkpt lat="42.345022808688235" lon="-3.7124134226577525"><ele>869.0</ele><time>2026-05-02T17:02:14Z</time></trkpt><trkpt lat="42.344910049105295" lon="-3.71241236578084"><ele>869.0000000000001</ele><time>2026-05-02T17:02:16Z</time></trkpt><trkpt lat="42.34482528191301" lon="-3.712426246055674"><ele>869.0000000000001</ele><time>2026-05-02T17:02:18Z</time></trkpt><trkpt lat="42.34475171246656" lon="-3.7124283757657386"><ele>869.0</ele><time>2026-05-02T17:02:21Z</time></trkpt><trkpt lat="42.34467230101307" lon="-3.7124741554255962"><ele>869.0</ele><time>2026-05-02T17:02:45Z</time></trkpt><trkpt lat="42.34457574272416" lon="-3.7124880397361686"><ele>869.3333333333334</ele><time>2026-05-02T17:02:47Z</time></trkpt><trkpt lat="42.34451189063327" lon="-3.712489658633926"><ele>869.6666666666667</ele><time>2026-05-02T17:02:48Z</time></trkpt><trkpt lat="42.344382798036726" lon="-3.71249765273228"><ele>870.0</ele><time>2026-05-02T17:02:50Z</time></trkpt><trkpt lat="42.34430185797183" lon="-3.712502363649134"><ele>870.3333333333333</ele><time>2026-05-02T17:02:51Z</time></trkpt><trkpt lat="42.344220189407736" lon="-3.712503794054724"><ele>870.6666666666666</ele><time>2026-05-02T17:02:52Z</time></trkpt><trkpt lat="42.34414492060518" lon="-3.712496298644257"><ele>871.0</ele><time>2026-05-02T17:02:53Z</time></trkpt><trkpt lat="42.34407452531028" lon="-3.7124907387314043"><ele>871.0</ele><time>2026-05-02T17:02:54Z</time></trkpt><trkpt lat="42.34400000637476" lon="-3.712483862109077"><ele>871.0</ele><time>2026-05-02T17:02:55Z</time></trkpt><trkpt lat="42.343930462486036" lon="-3.7124602990793076"><ele>871.0</ele><time>2026-05-02T17:02:56Z</time></trkpt><trkpt lat="42.343867593833046" lon="-3.712432602693358"><ele>871.0</ele><time>2026-05-02T17:02:57Z</time></trkpt><trkpt lat="42.34379575061448" lon="-3.7124015161249937"><ele>871.0</ele><time>2026-05-02T17:02:58Z</time></trkpt><trkpt lat="42.34371391619494" lon="-3.71238460919524"><ele>871.0</ele><time>2026-05-02T17:02:59Z</time></trkpt><trkpt lat="42.34363800338213" lon="-3.712364693571169"><ele>871.0</ele><time>2026-05-02T17:03:00Z</time></trkpt><trkpt lat="42.34356423310006" lon="-3.7123469279094725"><ele>871.9999999999999</ele><time>2026-05-02T17:03:01Z</time></trkpt><trkpt lat="42.34348654988907" lon="-3.7123138701497114"><ele>873.0</ele><time>2026-05-02T17:03:02Z</time></trkpt><trkpt lat="42.343415118716194" lon="-3.712294920343878"><ele>874.0</ele><time>2026-05-02T17:03:03Z</time></trkpt><trkpt lat="42.34335323641972" lon="-3.7122734627634655"><ele>875.0</ele><time>2026-05-02T17:03:04Z</time></trkpt><trkpt lat="42.34323378415883" lon="-3.712264114316811"><ele>875.9999999999999</ele><time>2026-05-02T17:03:06Z</time></trkpt><trkpt lat="42.34315246857647" lon="-3.712292326185063"><ele>877.0</ele><time>2026-05-02T17:03:07Z</time></trkpt><trkpt lat="42.34309654037618" lon="-3.712341529491812"><ele>876.4999999999999</ele><time>2026-05-02T17:03:08Z</time></trkpt><trkpt lat="42.342997512615625" lon="-3.7123601708060066"><ele>876.0</ele><time>2026-05-02T17:03:11Z</time></trkpt><trkpt lat="42.342951966826355" lon="-3.712280616235781"><ele>875.5</ele><time>2026-05-02T17:03:12Z</time></trkpt><trkpt lat="42.34290123946208" lon="-3.7122214872520343"><ele>875.0</ele><time>2026-05-02T17:03:13Z</time></trkpt><trkpt lat="42.34283925582347" lon="-3.712183696989206"><ele>874.4999999999999</ele><time>2026-05-02T17:03:14Z</time></trkpt><trkpt lat="42.34273388275809" lon="-3.7121004629697274"><ele>874.0</ele><time>2026-05-02T17:03:16Z</time></trkpt><trkpt lat="42.34267529936462" lon="-3.7120512324259294"><ele>874.0</ele><time>2026-05-02T17:03:17Z</time></trkpt><trkpt lat="42.342615127891854" lon="-3.712006954963073"><ele>874.0</ele><time>2026-05-02T17:03:18Z</time></trkpt><trkpt lat="42.34254994781533" lon="-3.711953956807404"><ele>874.0</ele><time>2026-05-02T17:03:19Z</time></trkpt><trkpt lat="42.34248582725451" lon="-3.711903106222451"><ele>874.0</ele><time>2026-05-02T17:03:20Z</time></trkpt><trkpt lat="42.34241811139564" lon="-3.7118485642457606"><ele>874.0</ele><time>2026-05-02T17:03:21Z</time></trkpt><trkpt lat="42.342355874974835" lon="-3.711789941043586"><ele>874.0</ele><time>2026-05-02T17:03:22Z</time></trkpt><trkpt lat="42.34229599707439" lon="-3.7117322625931157"><ele>874.0</ele><time>2026-05-02T17:03:23Z</time></trkpt><trkpt lat="42.34223427875601" lon="-3.711679098683121"><ele>873.4999999999999</ele><time>2026-05-02T17:03:24Z</time></trkpt><trkpt lat="42.34217119668507" lon="-3.7116322378757975"><ele>873.0</ele><time>2026-05-02T17:03:25Z</time></trkpt><trkpt lat="42.34210113471725" lon="-3.711597667950457"><ele>872.5</ele><time>2026-05-02T17:03:26Z</time></trkpt><trkpt lat="42.3420259941399" lon="-3.711571455151141"><ele>872.0</ele><time>2026-05-02T17:03:27Z</time></trkpt><trkpt lat="42.341948343487324" lon="-3.711555733178082"><ele>871.4999999999999</ele><time>2026-05-02T17:03:28Z</time></trkpt><trkpt lat="42.34186812439733" lon="-3.7115441619501395"><ele>871.0</ele><time>2026-05-02T17:03:29Z</time></trkpt><trkpt lat="42.341787518589186" lon="-3.7115337633963428"><ele>870.9999999999999</ele><time>2026-05-02T17:03:30Z</time></trkpt><trkpt lat="42.34170329418045" lon="-3.7115281974941823"><ele>871.0</ele><time>2026-05-02T17:03:31Z</time></trkpt><trkpt lat="42.34162208670478" lon="-3.711532137621215"><ele>871.0</ele><time>2026-05-02T17:03:32Z</time></trkpt><trkpt lat="42.34154006988232" lon="-3.711544612787926"><ele>871.0</ele><time>2026-05-02T17:03:33Z</time></trkpt><trkpt lat="42.341456320649826" lon="-3.7115672915854714"><ele>870.9999999999999</ele><time>2026-05-02T17:03:34Z</time></trkpt><trkpt lat="42.3413693273056" lon="-3.7115949154629178"><ele>871.0</ele><time>2026-05-02T17:03:35Z</time></trkpt><trkpt lat="42.341286725181746" lon="-3.7116301502657842"><ele>870.1666666666666</ele><time>2026-05-02T17:03:36Z</time></trkpt><trkpt lat="42.341206170281716" lon="-3.71166928489453"><ele>869.3333333333333</ele><time>2026-05-02T17:03:37Z</time></trkpt><trkpt lat="42.341125205606644" lon="-3.711711243964792"><ele>868.5</ele><time>2026-05-02T17:03:38Z</time></trkpt><trkpt lat="42.341041423399176" lon="-3.711751983190036"><ele>867.6666666666667</ele><time>2026-05-02T17:03:39Z</time></trkpt><trkpt lat="42.340963252465166" lon="-3.7117889727943973"><ele>866.8333333333334</ele><time>2026-05-02T17:03:40Z</time></trkpt><trkpt lat="42.34088741312286" lon="-3.7118265226415095"><ele>866.0</ele><time>2026-05-02T17:03:41Z</time></trkpt><trkpt lat="42.340816660094106" lon="-3.711862190626912"><ele>866.0000000000001</ele><time>2026-05-02T17:03:42Z</time></trkpt><trkpt lat="42.34074536829737" lon="-3.7119020478467792"><ele>866.0</ele><time>2026-05-02T17:03:43Z</time></trkpt><trkpt lat="42.34068371446176" lon="-3.7119366134005825"><ele>866.0</ele><time>2026-05-02T17:03:44Z</time></trkpt><trkpt lat="42.34057337391434" lon="-3.7119463765205674"><ele>866.0</ele><time>2026-05-02T17:03:46Z</time></trkpt><trkpt lat="42.340489184884966" lon="-3.7118385752207863"><ele>866.0000000000001</ele><time>2026-05-02T17:03:48Z</time></trkpt><trkpt lat="42.340454216203234" lon="-3.711759131625908"><ele>866.0</ele><time>2026-05-02T17:03:49Z</time></trkpt><trkpt lat="42.340416828482205" lon="-3.7116666894349555"><ele>864.6666666666667</ele><time>2026-05-02T17:03:50Z</time></trkpt><trkpt lat="42.34037416911821" lon="-3.711574869744769"><ele>863.3333333333334</ele><time>2026-05-02T17:03:51Z</time></trkpt><trkpt lat="42.340330801937114" lon="-3.7114811840056077"><ele>862.0</ele><time>2026-05-02T17:03:52Z</time></trkpt><trkpt lat="42.34029017921641" lon="-3.7113831101444035"><ele>860.6666666666667</ele><time>2026-05-02T17:03:53Z</time></trkpt><trkpt lat="42.34024720885771" lon="-3.7112787420071665"><ele>859.3333333333334</ele><time>2026-05-02T17:03:54Z</time></trkpt><trkpt lat="42.34020485796484" lon="-3.711172213021111"><ele>858.0</ele><time>2026-05-02T17:03:55Z</time></trkpt><trkpt lat="42.34016280223794" lon="-3.711068310161907"><ele>858.0</ele><time>2026-05-02T17:03:56Z</time></trkpt><trkpt lat="42.34012709172108" lon="-3.710959363826691"><ele>858.0</ele><time>2026-05-02T17:03:57Z</time></trkpt><trkpt lat="42.34009890017478" lon="-3.710848564381885"><ele>858.0</ele><time>2026-05-02T17:03:58Z</time></trkpt><trkpt lat="42.34006742237451" lon="-3.7107382027194746"><ele>858.0</ele><time>2026-05-02T17:03:59Z</time></trkpt><trkpt lat="42.34003650057375" lon="-3.7106280191463266"><ele>858.0</ele><time>2026-05-02T17:04:00Z</time></trkpt><trkpt lat="42.34000792803731" lon="-3.710516786347632"><ele>858.0</ele><time>2026-05-02T17:04:01Z</time></trkpt><trkpt lat="42.33998550111201" lon="-3.710407783278934"><ele>858.0</ele><time>2026-05-02T17:04:02Z</time></trkpt><trkpt lat="42.339970444517974" lon="-3.7102993485830957"><ele>858.0</ele><time>2026-05-02T17:04:03Z</time></trkpt><trkpt lat="42.33996048539789" lon="-3.71018669844409"><ele>858.0</ele><time>2026-05-02T17:04:04Z</time></trkpt><trkpt lat="42.33994996788962" lon="-3.7100767544170536"><ele>858.0</ele><time>2026-05-02T17:04:05Z</time></trkpt><trkpt lat="42.339942343388806" lon="-3.7099626799768775"><ele>858.0</ele><time>2026-05-02T17:04:06Z</time></trkpt><trkpt lat="42.33993102741074" lon="-3.7098498649700304"><ele>858.0</ele><time>2026-05-02T17:04:07Z</time></trkpt><trkpt lat="42.33992729150172" lon="-3.70973878010339"><ele>858.6666666666666</ele><time>2026-05-02T17:04:08Z</time></trkpt><trkpt lat="42.339914963410294" lon="-3.70962680958094"><ele>859.3333333333333</ele><time>2026-05-02T17:04:09Z</time></trkpt><trkpt lat="42.339908963674404" lon="-3.7095035222190336"><ele>860.0</ele><time>2026-05-02T17:04:10Z</time></trkpt><trkpt lat="42.339919461465044" lon="-3.709394296662723"><ele>860.6666666666666</ele><time>2026-05-02T17:04:11Z</time></trkpt><trkpt lat="42.33992700279872" lon="-3.7092850894410043"><ele>861.3333333333333</ele><time>2026-05-02T17:04:12Z</time></trkpt><trkpt lat="42.33993323716878" lon="-3.7091748778842626"><ele>862.0</ele><time>2026-05-02T17:04:13Z</time></trkpt><trkpt lat="42.33993145802807" lon="-3.7090622674198777"><ele>862.4999999999999</ele><time>2026-05-02T17:04:14Z</time></trkpt><trkpt lat="42.339910114066676" lon="-3.708952806216033"><ele>863.0</ele><time>2026-05-02T17:04:15Z</time></trkpt><trkpt lat="42.33988341754559" lon="-3.708846660426606"><ele>863.5</ele><time>2026-05-02T17:04:16Z</time></trkpt><trkpt lat="42.33985119210989" lon="-3.708745766602566"><ele>864.0</ele><time>2026-05-02T17:04:17Z</time></trkpt><trkpt lat="42.33979699292084" lon="-3.708660811123858"><ele>864.4999999999999</ele><time>2026-05-02T17:04:18Z</time></trkpt><trkpt lat="42.33973284310102" lon="-3.7086027214725155"><ele>865.0</ele><time>2026-05-02T17:04:19Z</time></trkpt><trkpt lat="42.33966441221656" lon="-3.708552335059594"><ele>864.1428571428571</ele><time>2026-05-02T17:04:20Z</time></trkpt><trkpt lat="42.33960265013935" lon="-3.7084977978834943"><ele>863.2857142857143</ele><time>2026-05-02T17:04:21Z</time></trkpt><trkpt lat="42.33954099271353" lon="-3.708447981624632"><ele>862.4285714285713</ele><time>2026-05-02T17:04:22Z</time></trkpt><trkpt lat="42.33949780369464" lon="-3.7083723491632"><ele>861.5714285714286</ele><time>2026-05-02T17:04:23Z</time></trkpt><trkpt lat="42.33944949739242" lon="-3.708295618983489"><ele>860.7142857142857</ele><time>2026-05-02T17:04:24Z</time></trkpt><trkpt lat="42.33942467002823" lon="-3.708204471979479"><ele>859.8571428571428</ele><time>2026-05-02T17:04:25Z</time></trkpt><trkpt lat="42.33940637002141" lon="-3.7081085557562337"><ele>859.0</ele><time>2026-05-02T17:04:26Z</time></trkpt><trkpt lat="42.33939293392578" lon="-3.7080158564890917"><ele>858.9999999999999</ele><time>2026-05-02T17:04:27Z</time></trkpt><trkpt lat="42.339385293008625" lon="-3.7079285614487034"><ele>859.0</ele><time>2026-05-02T17:04:28Z</time></trkpt><trkpt lat="42.339330876423475" lon="-3.7077987592386887"><ele>859.0</ele><time>2026-05-02T17:04:30Z</time></trkpt><trkpt lat="42.339243490176706" lon="-3.707742354083149"><ele>859.0</ele><time>2026-05-02T17:04:32Z</time></trkpt><trkpt lat="42.3391368444299" lon="-3.7077629677679043"><ele>858.9999999999999</ele><time>2026-05-02T17:04:34Z</time></trkpt><trkpt lat="42.33907408130236" lon="-3.7077933461508517"><ele>859.0</ele><time>2026-05-02T17:04:35Z</time></trkpt><trkpt lat="42.339007913637026" lon="-3.707830295858626"><ele>858.9999999999999</ele><time>2026-05-02T17:04:36Z</time></trkpt><trkpt lat="42.33894354996947" lon="-3.7078744203576943"><ele>859.0</ele><time>2026-05-02T17:04:37Z</time></trkpt><trkpt lat="42.33887866659959" lon="-3.707927413370886"><ele>859.0</ele><time>2026-05-02T17:04:38Z</time></trkpt><trkpt lat="42.338811567233606" lon="-3.7079831633733624"><ele>859.0</ele><time>2026-05-02T17:04:39Z</time></trkpt><trkpt lat="42.3387419417847" lon="-3.708038733552069"><ele>858.9999999999999</ele><time>2026-05-02T17:04:40Z</time></trkpt><trkpt lat="42.33867129961197" lon="-3.7081000277548304"><ele>859.0</ele><time>2026-05-02T17:04:41Z</time></trkpt><trkpt lat="42.33860118316045" lon="-3.7081638059377493"><ele>858.9999999999999</ele><time>2026-05-02T17:04:42Z</time></trkpt><trkpt lat="42.33851564720293" lon="-3.7082223348799483"><ele>859.0</ele><time>2026-05-02T17:04:43Z</time></trkpt><trkpt lat="42.338441346782915" lon="-3.708274321190342"><ele>859.0</ele><time>2026-05-02T17:04:44Z</time></trkpt><trkpt lat="42.33837376143727" lon="-3.7083408145311183"><ele>859.0</ele><time>2026-05-02T17:04:45Z</time></trkpt><trkpt lat="42.33829846390487" lon="-3.708387239503579"><ele>858.9999999999999</ele><time>2026-05-02T17:04:46Z</time></trkpt><trkpt lat="42.338233275599066" lon="-3.708449094846659"><ele>859.0</ele><time>2026-05-02T17:04:47Z</time></trkpt><trkpt lat="42.33816567706768" lon="-3.708497873774084"><ele>859.0</ele><time>2026-05-02T17:04:48Z</time></trkpt><trkpt lat="42.33810476494003" lon="-3.7085452966786163"><ele>859.0000000000001</ele><time>2026-05-02T17:04:49Z</time></trkpt><trkpt lat="42.33804623677143" lon="-3.7085890866390594"><ele>859.0000000000001</ele><time>2026-05-02T17:04:50Z</time></trkpt><trkpt lat="42.337949091585536" lon="-3.708678786023058"><ele>859.0</ele><time>2026-05-02T17:04:52Z</time></trkpt><trkpt lat="42.33786299630226" lon="-3.7087974390733343"><ele>859.0</ele><time>2026-05-02T17:04:54Z</time></trkpt><trkpt lat="42.33778211078564" lon="-3.708929570903555"><ele>858.5714285714286</ele><time>2026-05-02T17:04:56Z</time></trkpt><trkpt lat="42.33772696716281" lon="-3.708978118055608"><ele>858.1428571428571</ele><time>2026-05-02T17:04:57Z</time></trkpt><trkpt lat="42.33762201472789" lon="-3.7090363764519094"><ele>857.7142857142858</ele><time>2026-05-02T17:04:59Z</time></trkpt><trkpt lat="42.33755768381169" lon="-3.7090208912621345"><ele>857.2857142857142</ele><time>2026-05-02T17:05:00Z</time></trkpt><trkpt lat="42.337499047949485" lon="-3.708974701148559"><ele>856.8571428571429</ele><time>2026-05-02T17:05:01Z</time></trkpt><trkpt lat="42.33745234753076" lon="-3.7089110873182585"><ele>856.4285714285714</ele><time>2026-05-02T17:05:02Z</time></trkpt><trkpt lat="42.33741884172698" lon="-3.708836773177916"><ele>856.0</ele><time>2026-05-02T17:05:03Z</time></trkpt><trkpt lat="42.337378889615955" lon="-3.7087623306028052"><ele>855.9999999999999</ele><time>2026-05-02T17:05:04Z</time></trkpt><trkpt lat="42.33731187679224" lon="-3.7087090515649748"><ele>856.0</ele><time>2026-05-02T17:05:05Z</time></trkpt><trkpt lat="42.33724429456173" lon="-3.7086723048609818"><ele>856.0</ele><time>2026-05-02T17:05:06Z</time></trkpt><trkpt lat="42.3371756392201" lon="-3.7086468371503662"><ele>856.0</ele><time>2026-05-02T17:05:07Z</time></trkpt><trkpt lat="42.33705913226603" lon="-3.708616306149555"><ele>855.9999999999999</ele><time>2026-05-02T17:05:09Z</time></trkpt><trkpt lat="42.336958636998666" lon="-3.7085871554584666"><ele>856.0</ele><time>2026-05-02T17:05:11Z</time></trkpt><trkpt lat="42.33687026604762" lon="-3.7085743208274398"><ele>855.6666666666666</ele><time>2026-05-02T17:05:13Z</time></trkpt><trkpt lat="42.33678307892369" lon="-3.708589690172192"><ele>855.3333333333333</ele><time>2026-05-02T17:05:16Z</time></trkpt><trkpt lat="42.33672965895776" lon="-3.708656542453302"><ele>855.0</ele><time>2026-05-02T17:05:18Z</time></trkpt><trkpt lat="42.33673035102292" lon="-3.7088188196669027"><ele>854.6666666666667</ele><time>2026-05-02T17:05:20Z</time></trkpt><trkpt lat="42.33674533615357" lon="-3.7089022291822342"><ele>854.3333333333334</ele><time>2026-05-02T17:05:21Z</time></trkpt><trkpt lat="42.33675748695835" lon="-3.7089880836855853"><ele>854.0</ele><time>2026-05-02T17:05:22Z</time></trkpt><trkpt lat="42.33676807082821" lon="-3.7090802935209015"><ele>854.0000000000001</ele><time>2026-05-02T17:05:23Z</time></trkpt><trkpt lat="42.336780810382166" lon="-3.7091764671471164"><ele>854.0</ele><time>2026-05-02T17:05:24Z</time></trkpt><trkpt lat="42.336793457092796" lon="-3.7092769208278917"><ele>854.0</ele><time>2026-05-02T17:05:25Z</time></trkpt><trkpt lat="42.336801087774994" lon="-3.7093842535018915"><ele>854.0</ele><time>2026-05-02T17:05:26Z</time></trkpt><trkpt lat="42.33680969931198" lon="-3.7094909153476685"><ele>854.0000000000001</ele><time>2026-05-02T17:05:27Z</time></trkpt><trkpt lat="42.33682425804711" lon="-3.709602158092995"><ele>854.0</ele><time>2026-05-02T17:05:28Z</time></trkpt><trkpt lat="42.336844263885425" lon="-3.709711633148328"><ele>854.6666666666667</ele><time>2026-05-02T17:05:29Z</time></trkpt><trkpt lat="42.336882851691136" lon="-3.7098216023165995"><ele>855.3333333333334</ele><time>2026-05-02T17:05:30Z</time></trkpt><trkpt lat="42.33691923509822" lon="-3.7099276929696603"><ele>856.0</ele><time>2026-05-02T17:05:31Z</time></trkpt><trkpt lat="42.33696105490261" lon="-3.7100275287431272"><ele>856.6666666666667</ele><time>2026-05-02T17:05:32Z</time></trkpt><trkpt lat="42.33699958437011" lon="-3.7101384782934397"><ele>857.3333333333334</ele><time>2026-05-02T17:05:33Z</time></trkpt><trkpt lat="42.33703289815946" lon="-3.710243830316383"><ele>858.0</ele><time>2026-05-02T17:05:34Z</time></trkpt><trkpt lat="42.337066832229254" lon="-3.7103485979100146"><ele>858.1666666666666</ele><time>2026-05-02T17:05:35Z</time></trkpt><trkpt lat="42.33709544669153" lon="-3.710455222396228"><ele>858.3333333333333</ele><time>2026-05-02T17:05:36Z</time></trkpt><trkpt lat="42.337128915343996" lon="-3.7105596057566133"><ele>858.5</ele><time>2026-05-02T17:05:37Z</time></trkpt><trkpt lat="42.33715700771777" lon="-3.7106582448913845"><ele>858.6666666666666</ele><time>2026-05-02T17:05:38Z</time></trkpt><trkpt lat="42.337179666721674" lon="-3.7107413278757897"><ele>858.8333333333333</ele><time>2026-05-02T17:05:39Z</time></trkpt><trkpt lat="42.33721084937006" lon="-3.710830042665438"><ele>859.0</ele><time>2026-05-02T17:05:40Z</time></trkpt><trkpt lat="42.33724778706343" lon="-3.710918931283622"><ele>858.0</ele><time>2026-05-02T17:05:41Z</time></trkpt><trkpt lat="42.337274774085856" lon="-3.7109981816059308"><ele>857.0000000000001</ele><time>2026-05-02T17:05:42Z</time></trkpt><trkpt lat="42.33730084743413" lon="-3.71113182181584"><ele>856.0000000000001</ele><time>2026-05-02T17:05:44Z</time></trkpt><trkpt lat="42.33725096571647" lon="-3.7112383006817367"><ele>855.0</ele><time>2026-05-02T17:05:46Z</time></trkpt><trkpt lat="42.337154064284825" lon="-3.7113111392054154"><ele>854.0</ele><time>2026-05-02T17:05:48Z</time></trkpt><trkpt lat="42.337043714782155" lon="-3.7113708727923123"><ele>854.0</ele><time>2026-05-02T17:05:50Z</time></trkpt><trkpt lat="42.33698217980826" lon="-3.7113997318840006"><ele>854.0</ele><time>2026-05-02T17:05:51Z</time></trkpt><trkpt lat="42.336919332579136" lon="-3.7114484506958783"><ele>854.0</ele><time>2026-05-02T17:05:52Z</time></trkpt><trkpt lat="42.33685860345585" lon="-3.7114794488119527"><ele>854.0</ele><time>2026-05-02T17:05:53Z</time></trkpt><trkpt lat="42.33680096001161" lon="-3.711517168975801"><ele>854.0</ele><time>2026-05-02T17:05:54Z</time></trkpt><trkpt lat="42.33672247616443" lon="-3.7115398019174677"><ele>854.0</ele><time>2026-05-02T17:05:55Z</time></trkpt><trkpt lat="42.336653671575476" lon="-3.711573276047299"><ele>854.0</ele><time>2026-05-02T17:05:56Z</time></trkpt><trkpt lat="42.336575479061345" lon="-3.711609959802387"><ele>854.0000000000001</ele><time>2026-05-02T17:05:57Z</time></trkpt><trkpt lat="42.336494174665305" lon="-3.7116463589937934"><ele>854.0</ele><time>2026-05-02T17:05:58Z</time></trkpt><trkpt lat="42.33641732097355" lon="-3.7116898301031647"><ele>854.0</ele><time>2026-05-02T17:05:59Z</time></trkpt><trkpt lat="42.336342149248814" lon="-3.711731541463428"><ele>854.0</ele><time>2026-05-02T17:06:00Z</time></trkpt><trkpt lat="42.33626255421232" lon="-3.7117708365985624"><ele>854.0000000000001</ele><time>2026-05-02T17:06:01Z</time></trkpt><trkpt lat="42.33619159397734" lon="-3.711799633073559"><ele>854.0</ele><time>2026-05-02T17:06:02Z</time></trkpt><trkpt lat="42.33608328581407" lon="-3.711844545957128"><ele>854.0</ele><time>2026-05-02T17:06:04Z</time></trkpt><trkpt lat="42.33600507319251" lon="-3.7119020445704605"><ele>854.0000000000001</ele><time>2026-05-02T17:06:06Z</time></trkpt><trkpt lat="42.335927929276274" lon="-3.7120131714402786"><ele>854.0000000000001</ele><time>2026-05-02T17:06:08Z</time></trkpt><trkpt lat="42.3358471619855" lon="-3.7120945963665744"><ele>854.0</ele><time>2026-05-02T17:06:10Z</time></trkpt><trkpt lat="42.33575789507392" lon="-3.712061245864997"><ele>854.0</ele><time>2026-05-02T17:06:12Z</time></trkpt><trkpt lat="42.335685277762735" lon="-3.7119487145389267"><ele>854.0</ele><time>2026-05-02T17:06:14Z</time></trkpt><trkpt lat="42.33559673900745" lon="-3.7118432331648643"><ele>854.0000000000001</ele><time>2026-05-02T17:06:16Z</time></trkpt><trkpt lat="42.335501364434386" lon="-3.7117821904169888"><ele>854.0000000000001</ele><time>2026-05-02T17:06:18Z</time></trkpt><trkpt lat="42.335416801149556" lon="-3.711755512540122"><ele>854.0</ele><time>2026-05-02T17:06:20Z</time></trkpt><trkpt lat="42.33535415719573" lon="-3.7117342936839157"><ele>854.0</ele><time>2026-05-02T17:06:22Z</time></trkpt><trkpt lat="42.335258521449525" lon="-3.711692888102753"><ele>853.2</ele><time>2026-05-02T17:06:25Z</time></trkpt><trkpt lat="42.33517182552944" lon="-3.711657396262425"><ele>852.4000000000001</ele><time>2026-05-02T17:06:27Z</time></trkpt><trkpt lat="42.33507560161118" lon="-3.7116238802425605"><ele>851.6</ele><time>2026-05-02T17:06:29Z</time></trkpt><trkpt lat="42.33499133106854" lon="-3.7115942617159083"><ele>850.8</ele><time>2026-05-02T17:06:31Z</time></trkpt><trkpt lat="42.334900676635655" lon="-3.7115670738270343"><ele>850.0</ele><time>2026-05-02T17:06:33Z</time></trkpt><trkpt lat="42.33481135980391" lon="-3.7115335477363094"><ele>849.9999999999999</ele><time>2026-05-02T17:06:35Z</time></trkpt><trkpt lat="42.33473219504225" lon="-3.711497656053938"><ele>850.0</ele><time>2026-05-02T17:06:37Z</time></trkpt><trkpt lat="42.334664182507495" lon="-3.711472295431941"><ele>850.0</ele><time>2026-05-02T17:06:39Z</time></trkpt><trkpt lat="42.334588233563295" lon="-3.7114567415514195"><ele>850.0</ele><time>2026-05-02T17:06:42Z</time></trkpt><trkpt lat="42.334509866151635" lon="-3.7114522124671643"><ele>849.9999999999999</ele><time>2026-05-02T17:06:44Z</time></trkpt><trkpt lat="42.33442773142754" lon="-3.7114041509016977"><ele>850.0</ele><time>2026-05-02T17:06:46Z</time></trkpt><trkpt lat="42.33432952546923" lon="-3.71136301504156"><ele>851.0</ele><time>2026-05-02T17:06:48Z</time></trkpt><trkpt lat="42.33422213400388" lon="-3.7113218621824027"><ele>852.0</ele><time>2026-05-02T17:06:50Z</time></trkpt><trkpt lat="42.33411122236407" lon="-3.7112768237104854"><ele>853.0</ele><time>2026-05-02T17:06:52Z</time></trkpt><trkpt lat="42.33398862739426" lon="-3.7112399772404117"><ele>854.0</ele><time>2026-05-02T17:06:54Z</time></trkpt><trkpt lat="42.33386771481131" lon="-3.7111960698115256"><ele>854.0</ele><time>2026-05-02T17:06:56Z</time></trkpt><trkpt lat="42.33374651924466" lon="-3.711160604634861"><ele>854.0000000000001</ele><time>2026-05-02T17:06:58Z</time></trkpt><trkpt lat="42.33363508128214" lon="-3.7111284598254124"><ele>854.0000000000001</ele><time>2026-05-02T17:07:00Z</time></trkpt><trkpt lat="42.33354101275707" lon="-3.711100433174668"><ele>854.0</ele><time>2026-05-02T17:07:02Z</time></trkpt><trkpt lat="42.333472300976666" lon="-3.7110771501340394"><ele>854.0</ele><time>2026-05-02T17:07:04Z</time></trkpt><trkpt lat="42.33338885097682" lon="-3.7110456182510667"><ele>853.8333333333334</ele><time>2026-05-02T17:07:12Z</time></trkpt><trkpt lat="42.333313441431415" lon="-3.711017265296791"><ele>853.6666666666667</ele><time>2026-05-02T17:07:14Z</time></trkpt><trkpt lat="42.33321188532892" lon="-3.7109841190287165"><ele>853.5</ele><time>2026-05-02T17:07:16Z</time></trkpt><trkpt lat="42.33309269685829" lon="-3.7109554209363256"><ele>853.3333333333333</ele><time>2026-05-02T17:07:18Z</time></trkpt><trkpt lat="42.333028942522716" lon="-3.7109403133773218"><ele>853.1666666666666</ele><time>2026-05-02T17:07:19Z</time></trkpt><trkpt lat="42.332960663862046" lon="-3.7109201628182893"><ele>853.0</ele><time>2026-05-02T17:07:20Z</time></trkpt><trkpt lat="42.332893806148725" lon="-3.7108959922674525"><ele>853.3333333333333</ele><time>2026-05-02T17:07:21Z</time></trkpt><trkpt lat="42.33281739451258" lon="-3.710873839931812"><ele>853.6666666666666</ele><time>2026-05-02T17:07:22Z</time></trkpt><trkpt lat="42.33274159398243" lon="-3.710847419442318"><ele>854.0</ele><time>2026-05-02T17:07:23Z</time></trkpt><trkpt lat="42.33266322250345" lon="-3.710821560927034"><ele>854.3333333333333</ele><time>2026-05-02T17:07:24Z</time></trkpt><trkpt lat="42.3325840010858" lon="-3.710795856997834"><ele>854.6666666666666</ele><time>2026-05-02T17:07:25Z</time></trkpt><trkpt lat="42.33250282733024" lon="-3.710768348148973"><ele>855.0</ele><time>2026-05-02T17:07:26Z</time></trkpt><trkpt lat="42.33242310485911" lon="-3.710740476309583"><ele>855.0</ele><time>2026-05-02T17:07:27Z</time></trkpt><trkpt lat="42.33234516833633" lon="-3.71071302004986"><ele>855.0</ele><time>2026-05-02T17:07:28Z</time></trkpt><trkpt lat="42.33226814091829" lon="-3.7106823413428067"><ele>855.0</ele><time>2026-05-02T17:07:29Z</time></trkpt><trkpt lat="42.33219204637064" lon="-3.710653627613268"><ele>855.0</ele><time>2026-05-02T17:07:30Z</time></trkpt><trkpt lat="42.33211792827598" lon="-3.7106283364585813"><ele>855.0</ele><time>2026-05-02T17:07:31Z</time></trkpt><trkpt lat="42.33204469837022" lon="-3.7106095458148793"><ele>855.0</ele><time>2026-05-02T17:07:32Z</time></trkpt><trkpt lat="42.3319758327926" lon="-3.7105907269096225"><ele>855.0</ele><time>2026-05-02T17:07:33Z</time></trkpt><trkpt lat="42.33186408258547" lon="-3.7105610754132687"><ele>855.0</ele><time>2026-05-02T17:07:35Z</time></trkpt><trkpt lat="42.33180320895724" lon="-3.710531146564692"><ele>855.0</ele><time>2026-05-02T17:07:37Z</time></trkpt><trkpt lat="42.33173634790445" lon="-3.7104988896834654"><ele>855.0</ele><time>2026-05-02T17:07:40Z</time></trkpt><trkpt lat="42.33165027493245" lon="-3.7104446678517657"><ele>855.0</ele><time>2026-05-02T17:07:42Z</time></trkpt><trkpt lat="42.33157540803564" lon="-3.7103113982618177"><ele>854.8571428571429</ele><time>2026-05-02T17:07:44Z</time></trkpt><trkpt lat="42.33153997961503" lon="-3.7102375295979697"><ele>854.7142857142857</ele><time>2026-05-02T17:07:45Z</time></trkpt><trkpt lat="42.331500330553624" lon="-3.710158919843495"><ele>854.5714285714286</ele><time>2026-05-02T17:07:46Z</time></trkpt><trkpt lat="42.331457264069414" lon="-3.710086692601207"><ele>854.4285714285714</ele><time>2026-05-02T17:07:47Z</time></trkpt><trkpt lat="42.3314111118635" lon="-3.710018548140878"><ele>854.2857142857142</ele><time>2026-05-02T17:07:48Z</time></trkpt><trkpt lat="42.33136195017319" lon="-3.7099603171029645"><ele>854.1428571428571</ele><time>2026-05-02T17:07:49Z</time></trkpt><trkpt lat="42.331309019359416" lon="-3.7099107785056997"><ele>854.0</ele><time>2026-05-02T17:07:50Z</time></trkpt><trkpt lat="42.33120749881993" lon="-3.7098182632350976"><ele>855.2</ele><time>2026-05-02T17:07:52Z</time></trkpt><trkpt lat="42.331112412672056" lon="-3.709755862549386"><ele>856.4000000000001</ele><time>2026-05-02T17:07:54Z</time></trkpt><trkpt lat="42.33100263487848" lon="-3.709696664076637"><ele>857.6</ele><time>2026-05-02T17:07:56Z</time></trkpt><trkpt lat="42.330899524621024" lon="-3.709660582276086"><ele>858.8</ele><time>2026-05-02T17:07:58Z</time></trkpt><trkpt lat="42.330810706279024" lon="-3.7095877440887817"><ele>860.0</ele><time>2026-05-02T17:08:00Z</time></trkpt><trkpt lat="42.330748571821765" lon="-3.7094472441028095"><ele>860.6666666666667</ele><time>2026-05-02T17:08:02Z</time></trkpt><trkpt lat="42.33071360253203" lon="-3.709366078934435"><ele>861.3333333333334</ele><time>2026-05-02T17:08:03Z</time></trkpt><trkpt lat="42.33066340763858" lon="-3.709290994819578"><ele>862.0</ele><time>2026-05-02T17:08:04Z</time></trkpt><trkpt lat="42.33060476915576" lon="-3.709224188338368"><ele>862.6666666666667</ele><time>2026-05-02T17:08:05Z</time></trkpt><trkpt lat="42.33054262875747" lon="-3.7091656842156513"><ele>863.3333333333334</ele><time>2026-05-02T17:08:06Z</time></trkpt><trkpt lat="42.33048521354999" lon="-3.7090953803144804"><ele>864.0</ele><time>2026-05-02T17:08:07Z</time></trkpt><trkpt lat="42.330428015974384" lon="-3.709028604975689"><ele>864.5</ele><time>2026-05-02T17:08:08Z</time></trkpt><trkpt lat="42.33037729970631" lon="-3.7089519001891125"><ele>865.0</ele><time>2026-05-02T17:08:09Z</time></trkpt><trkpt lat="42.330341077826915" lon="-3.7088629999761267"><ele>865.5</ele><time>2026-05-02T17:08:10Z</time></trkpt><trkpt lat="42.330283779781304" lon="-3.708795471144755"><ele>866.0</ele><time>2026-05-02T17:08:11Z</time></trkpt><trkpt lat="42.33022176887078" lon="-3.708735472646327"><ele>866.5</ele><time>2026-05-02T17:08:12Z</time></trkpt><trkpt lat="42.330154384023984" lon="-3.7086736304757664"><ele>867.0</ele><time>2026-05-02T17:08:13Z</time></trkpt><trkpt lat="42.33010343587109" lon="-3.7085971624585032"><ele>867.0</ele><time>2026-05-02T17:08:14Z</time></trkpt><trkpt lat="42.33003574379252" lon="-3.708521998027078"><ele>867.0</ele><time>2026-05-02T17:08:15Z</time></trkpt><trkpt lat="42.329960073049946" lon="-3.7084589991314645"><ele>867.0</ele><time>2026-05-02T17:08:16Z</time></trkpt><trkpt lat="42.32989370022198" lon="-3.7083849149145984"><ele>867.0</ele><time>2026-05-02T17:08:17Z</time></trkpt><trkpt lat="42.329847434452766" lon="-3.708297209621465"><ele>867.0</ele><time>2026-05-02T17:08:18Z</time></trkpt><trkpt lat="42.329787498999295" lon="-3.7082282935052326"><ele>867.0</ele><time>2026-05-02T17:08:19Z</time></trkpt><trkpt lat="42.329718428384986" lon="-3.7081732518613175"><ele>868.0</ele><time>2026-05-02T17:08:20Z</time></trkpt><trkpt lat="42.329659266143494" lon="-3.7081132469938938"><ele>869.0</ele><time>2026-05-02T17:08:21Z</time></trkpt><trkpt lat="42.329607820687215" lon="-3.708035637673535"><ele>870.0</ele><time>2026-05-02T17:08:22Z</time></trkpt><trkpt lat="42.32955247296351" lon="-3.707973694451249"><ele>871.0</ele><time>2026-05-02T17:08:23Z</time></trkpt><trkpt lat="42.32949313666682" lon="-3.707901354037848"><ele>872.0</ele><time>2026-05-02T17:08:24Z</time></trkpt><trkpt lat="42.32944184492666" lon="-3.7078338685193044"><ele>873.0</ele><time>2026-05-02T17:08:25Z</time></trkpt><trkpt lat="42.329410244113085" lon="-3.70773354770354"><ele>873.5</ele><time>2026-05-02T17:08:26Z</time></trkpt><trkpt lat="42.329335909590846" lon="-3.707694342378187"><ele>874.0</ele><time>2026-05-02T17:08:27Z</time></trkpt><trkpt lat="42.32927699430497" lon="-3.707632308620256"><ele>874.5</ele><time>2026-05-02T17:08:28Z</time></trkpt><trkpt lat="42.32921558337273" lon="-3.707572020457688"><ele>875.0</ele><time>2026-05-02T17:08:29Z</time></trkpt><trkpt lat="42.32915256889469" lon="-3.7075079779716282"><ele>875.5</ele><time>2026-05-02T17:08:30Z</time></trkpt><trkpt lat="42.32908213277606" lon="-3.7074474883848967"><ele>876.0</ele><time>2026-05-02T17:08:31Z</time></trkpt><trkpt lat="42.32902035033282" lon="-3.7073792451305736"><ele>876.0</ele><time>2026-05-02T17:08:32Z</time></trkpt><trkpt lat="42.328958511164636" lon="-3.7073142547279425"><ele>876.0</ele><time>2026-05-02T17:08:33Z</time></trkpt><trkpt lat="42.32889413771323" lon="-3.707252789894317"><ele>876.0</ele><time>2026-05-02T17:08:34Z</time></trkpt><trkpt lat="42.32881664049493" lon="-3.707208163858816"><ele>876.0</ele><time>2026-05-02T17:08:35Z</time></trkpt><trkpt lat="42.32874455983013" lon="-3.707151499156346"><ele>876.0</ele><time>2026-05-02T17:08:36Z</time></trkpt><trkpt lat="42.328659166118065" lon="-3.707113131156927"><ele>876.0</ele><time>2026-05-02T17:08:37Z</time></trkpt><trkpt lat="42.328569669720714" lon="-3.7070743425669166"><ele>875.8</ele><time>2026-05-02T17:08:38Z</time></trkpt><trkpt lat="42.32848009696215" lon="-3.7070294846932286"><ele>875.5999999999999</ele><time>2026-05-02T17:08:39Z</time></trkpt><trkpt lat="42.32839053442219" lon="-3.7069845022637318"><ele>875.4</ele><time>2026-05-02T17:08:40Z</time></trkpt><trkpt lat="42.3282999399898" lon="-3.7069351209285974"><ele>875.2</ele><time>2026-05-02T17:08:41Z</time></trkpt><trkpt lat="42.328208308724065" lon="-3.706886782517649"><ele>875.0</ele><time>2026-05-02T17:08:42Z</time></trkpt><trkpt lat="42.32811897329165" lon="-3.7068359973357654"><ele>874.6</ele><time>2026-05-02T17:08:43Z</time></trkpt><trkpt lat="42.32803054757243" lon="-3.7067863453227003"><ele>874.2</ele><time>2026-05-02T17:08:44Z</time></trkpt><trkpt lat="42.327941828441766" lon="-3.7067377487511006"><ele>873.8</ele><time>2026-05-02T17:08:45Z</time></trkpt><trkpt lat="42.32785610021485" lon="-3.706691986440505"><ele>873.4</ele><time>2026-05-02T17:08:46Z</time></trkpt><trkpt lat="42.327772051385615" lon="-3.7066519802424724"><ele>873.0</ele><time>2026-05-02T17:08:47Z</time></trkpt><trkpt lat="42.32768834106406" lon="-3.7066260120292447"><ele>873.0</ele><time>2026-05-02T17:08:48Z</time></trkpt><trkpt lat="42.32760133406222" lon="-3.706613320431705"><ele>873.0</ele><time>2026-05-02T17:08:49Z</time></trkpt><trkpt lat="42.32751535674605" lon="-3.706608632235593"><ele>873.0</ele><time>2026-05-02T17:08:50Z</time></trkpt><trkpt lat="42.327426896458206" lon="-3.706612273096581"><ele>873.0</ele><time>2026-05-02T17:08:51Z</time></trkpt><trkpt lat="42.32733989281697" lon="-3.706617617632339"><ele>873.0</ele><time>2026-05-02T17:08:52Z</time></trkpt><trkpt lat="42.32724909150498" lon="-3.7066204564316982"><ele>873.0</ele><time>2026-05-02T17:08:53Z</time></trkpt><trkpt lat="42.327158059846376" lon="-3.706618161737455"><ele>873.4</ele><time>2026-05-02T17:08:54Z</time></trkpt><trkpt lat="42.327065844769145" lon="-3.7066105121587594"><ele>873.8</ele><time>2026-05-02T17:08:55Z</time></trkpt><trkpt lat="42.32697150319658" lon="-3.7066000850266074"><ele>874.2</ele><time>2026-05-02T17:08:56Z</time></trkpt><trkpt lat="42.32687634340782" lon="-3.706589441130354"><ele>874.6</ele><time>2026-05-02T17:08:57Z</time></trkpt><trkpt lat="42.32677601344365" lon="-3.706578197023962"><ele>875.0</ele><time>2026-05-02T17:08:58Z</time></trkpt><trkpt lat="42.32667669099938" lon="-3.7065663277226246"><ele>875.0</ele><time>2026-05-02T17:08:59Z</time></trkpt><trkpt lat="42.326584183250745" lon="-3.7065441370576218"><ele>875.0</ele><time>2026-05-02T17:09:00Z</time></trkpt><trkpt lat="42.32648918254653" lon="-3.7065099968936983"><ele>875.0</ele><time>2026-05-02T17:09:01Z</time></trkpt><trkpt lat="42.32639696319347" lon="-3.7064611211060017"><ele>875.0</ele><time>2026-05-02T17:09:02Z</time></trkpt><trkpt lat="42.326306548285274" lon="-3.7064047709111576"><ele>875.0</ele><time>2026-05-02T17:09:03Z</time></trkpt><trkpt lat="42.326215724752416" lon="-3.706346709901847"><ele>876.8</ele><time>2026-05-02T17:09:04Z</time></trkpt><trkpt lat="42.32612540129326" lon="-3.706287669630597"><ele>878.6</ele><time>2026-05-02T17:09:05Z</time></trkpt><trkpt lat="42.32603761568458" lon="-3.7062257636251936"><ele>880.4000000000001</ele><time>2026-05-02T17:09:06Z</time></trkpt><trkpt lat="42.32594362353987" lon="-3.706182418764613"><ele>882.2</ele><time>2026-05-02T17:09:07Z</time></trkpt><trkpt lat="42.32585207777173" lon="-3.7061545680163688"><ele>884.0</ele><time>2026-05-02T17:09:08Z</time></trkpt><trkpt lat="42.32576589423594" lon="-3.706136586306983"><ele>884.0000000000001</ele><time>2026-05-02T17:09:09Z</time></trkpt><trkpt lat="42.325681653016005" lon="-3.7061270785240668"><ele>884.0</ele><time>2026-05-02T17:09:10Z</time></trkpt><trkpt lat="42.325597844771536" lon="-3.706117670287324"><ele>884.0</ele><time>2026-05-02T17:09:11Z</time></trkpt><trkpt lat="42.325516241088664" lon="-3.7061105017392064"><ele>884.0</ele><time>2026-05-02T17:09:12Z</time></trkpt><trkpt lat="42.32543806386491" lon="-3.7061038707495135"><ele>884.0000000000001</ele><time>2026-05-02T17:09:13Z</time></trkpt><trkpt lat="42.32536500310047" lon="-3.706097888216529"><ele>884.0</ele><time>2026-05-02T17:09:14Z</time></trkpt><trkpt lat="42.32529328468622" lon="-3.7060976289618655"><ele>884.1428571428572</ele><time>2026-05-02T17:09:15Z</time></trkpt><trkpt lat="42.32522130848343" lon="-3.7061029130078387"><ele>884.2857142857143</ele><time>2026-05-02T17:09:16Z</time></trkpt><trkpt lat="42.32514619819887" lon="-3.706119678790564"><ele>884.4285714285714</ele><time>2026-05-02T17:09:17Z</time></trkpt><trkpt lat="42.32507693219526" lon="-3.706159741348594"><ele>884.5714285714287</ele><time>2026-05-02T17:09:18Z</time></trkpt><trkpt lat="42.32501131314766" lon="-3.70619118428546"><ele>884.7142857142857</ele><time>2026-05-02T17:09:19Z</time></trkpt><trkpt lat="42.3249467305595" lon="-3.7062207076828018"><ele>884.8571428571429</ele><time>2026-05-02T17:09:20Z</time></trkpt><trkpt lat="42.32487449428287" lon="-3.7062457111744886"><ele>885.0</ele><time>2026-05-02T17:09:21Z</time></trkpt><trkpt lat="42.32480114226595" lon="-3.7062637406757"><ele>886.1666666666666</ele><time>2026-05-02T17:09:22Z</time></trkpt><trkpt lat="42.324719857297346" lon="-3.7062808850415068"><ele>887.3333333333333</ele><time>2026-05-02T17:09:23Z</time></trkpt><trkpt lat="42.32463876028795" lon="-3.7062874938063066"><ele>888.5</ele><time>2026-05-02T17:09:24Z</time></trkpt><trkpt lat="42.32455634078332" lon="-3.7062865110012027"><ele>889.6666666666666</ele><time>2026-05-02T17:09:25Z</time></trkpt><trkpt lat="42.32447827315799" lon="-3.7062746076974618"><ele>890.8333333333333</ele><time>2026-05-02T17:09:26Z</time></trkpt><trkpt lat="42.32440139171188" lon="-3.706260020509343"><ele>892.0</ele><time>2026-05-02T17:09:27Z</time></trkpt><trkpt lat="42.324323199309525" lon="-3.7062424181429123"><ele>891.9999999999999</ele><time>2026-05-02T17:09:28Z</time></trkpt><trkpt lat="42.32424750273874" lon="-3.706225316854621"><ele>892.0</ele><time>2026-05-02T17:09:29Z</time></trkpt><trkpt lat="42.324170359843585" lon="-3.7062073049959787"><ele>892.0</ele><time>2026-05-02T17:09:30Z</time></trkpt><trkpt lat="42.324090471860316" lon="-3.706192931107913"><ele>892.0</ele><time>2026-05-02T17:09:31Z</time></trkpt><trkpt lat="42.3240097415671" lon="-3.7061821214631956"><ele>891.9999999999999</ele><time>2026-05-02T17:09:32Z</time></trkpt><trkpt lat="42.323928335127384" lon="-3.706176613955761"><ele>892.0</ele><time>2026-05-02T17:09:33Z</time></trkpt><trkpt lat="42.323850487188544" lon="-3.7061674932189055"><ele>891.8333333333333</ele><time>2026-05-02T17:09:34Z</time></trkpt><trkpt lat="42.323773218613375" lon="-3.7061468040264622"><ele>891.6666666666666</ele><time>2026-05-02T17:09:35Z</time></trkpt><trkpt lat="42.32369968550794" lon="-3.7061136522536873"><ele>891.5</ele><time>2026-05-02T17:09:36Z</time></trkpt><trkpt lat="42.323625644656175" lon="-3.7060739429483256"><ele>891.3333333333333</ele><time>2026-05-02T17:09:37Z</time></trkpt><trkpt lat="42.32355343818081" lon="-3.7060225924054304"><ele>891.1666666666666</ele><time>2026-05-02T17:09:38Z</time></trkpt><trkpt lat="42.3234867446259" lon="-3.705964219564881"><ele>891.0</ele><time>2026-05-02T17:09:39Z</time></trkpt><trkpt lat="42.32342352116349" lon="-3.7059033455324704"><ele>891.0</ele><time>2026-05-02T17:09:40Z</time></trkpt><trkpt lat="42.32336234904475" lon="-3.705837185938119"><ele>891.0</ele><time>2026-05-02T17:09:41Z</time></trkpt><trkpt lat="42.323303701884754" lon="-3.7057710772749872"><ele>891.0</ele><time>2026-05-02T17:09:42Z</time></trkpt><trkpt lat="42.32324754785622" lon="-3.7057048767464944"><ele>891.0</ele><time>2026-05-02T17:09:43Z</time></trkpt><trkpt lat="42.32318919401074" lon="-3.7056368344011013"><ele>891.0</ele><time>2026-05-02T17:09:44Z</time></trkpt><trkpt lat="42.32313280502544" lon="-3.7055709286703955"><ele>891.0</ele><time>2026-05-02T17:09:45Z</time></trkpt><trkpt lat="42.323076102371694" lon="-3.7055013555055774"><ele>891.5714285714287</ele><time>2026-05-02T17:09:46Z</time></trkpt><trkpt lat="42.32302093311306" lon="-3.7054323111869722"><ele>892.1428571428571</ele><time>2026-05-02T17:09:47Z</time></trkpt><trkpt lat="42.32296543594106" lon="-3.7053617654659856"><ele>892.7142857142858</ele><time>2026-05-02T17:09:48Z</time></trkpt><trkpt lat="42.322909814019205" lon="-3.705294648792906"><ele>893.2857142857143</ele><time>2026-05-02T17:09:49Z</time></trkpt><trkpt lat="42.3228502744711" lon="-3.7052374910247834"><ele>893.8571428571429</ele><time>2026-05-02T17:09:50Z</time></trkpt><trkpt lat="42.3227899281209" lon="-3.705191891329236"><ele>894.4285714285714</ele><time>2026-05-02T17:09:51Z</time></trkpt><trkpt lat="42.32273003378125" lon="-3.705148830952887"><ele>895.0</ele><time>2026-05-02T17:09:52Z</time></trkpt><trkpt lat="42.32266905243071" lon="-3.705108841107286"><ele>895.0</ele><time>2026-05-02T17:09:53Z</time></trkpt><trkpt lat="42.32260856757401" lon="-3.7050682598333635"><ele>895.0</ele><time>2026-05-02T17:09:54Z</time></trkpt><trkpt lat="42.32255023656443" lon="-3.705033576708031"><ele>895.0</ele><time>2026-05-02T17:09:55Z</time></trkpt><trkpt lat="42.32249196083559" lon="-3.7049973593940266"><ele>895.0</ele><time>2026-05-02T17:09:56Z</time></trkpt><trkpt lat="42.32243074191918" lon="-3.704958711784345"><ele>895.0</ele><time>2026-05-02T17:09:57Z</time></trkpt><trkpt lat="42.322372958614004" lon="-3.7049200568586156"><ele>895.0</ele><time>2026-05-02T17:09:58Z</time></trkpt><trkpt lat="42.32231605157684" lon="-3.704881165578222"><ele>895.0</ele><time>2026-05-02T17:09:59Z</time></trkpt><trkpt lat="42.32225687550204" lon="-3.704838793620713"><ele>895.5714285714286</ele><time>2026-05-02T17:10:00Z</time></trkpt><trkpt lat="42.322197546716176" lon="-3.704797994504749"><ele>896.1428571428571</ele><time>2026-05-02T17:10:01Z</time></trkpt><trkpt lat="42.322137123715684" lon="-3.704754957060446"><ele>896.7142857142857</ele><time>2026-05-02T17:10:02Z</time></trkpt><trkpt lat="42.32207414783847" lon="-3.704715065958526"><ele>897.2857142857142</ele><time>2026-05-02T17:10:03Z</time></trkpt><trkpt lat="42.32200821486893" lon="-3.7046764604949725"><ele>897.8571428571429</ele><time>2026-05-02T17:10:04Z</time></trkpt><trkpt lat="42.32193926577164" lon="-3.7046372110484946"><ele>898.4285714285713</ele><time>2026-05-02T17:10:05Z</time></trkpt><trkpt lat="42.321868768435394" lon="-3.704598218254941"><ele>898.9999999999999</ele><time>2026-05-02T17:10:06Z</time></trkpt><trkpt lat="42.32179232981423" lon="-3.7045590796764007"><ele>899.0000000000001</ele><time>2026-05-02T17:10:07Z</time></trkpt><trkpt lat="42.32171546762717" lon="-3.7045197776284104"><ele>899.0</ele><time>2026-05-02T17:10:08Z</time></trkpt><trkpt lat="42.32163598612212" lon="-3.7044812276411383"><ele>899.0</ele><time>2026-05-02T17:10:09Z</time></trkpt><trkpt lat="42.321556308602524" lon="-3.7044405902540816"><ele>899.0</ele><time>2026-05-02T17:10:10Z</time></trkpt><trkpt lat="42.32147720868573" lon="-3.704400350173749"><ele>899.0000000000001</ele><time>2026-05-02T17:10:11Z</time></trkpt><trkpt lat="42.32139683593819" lon="-3.704358280615806"><ele>899.0</ele><time>2026-05-02T17:10:12Z</time></trkpt><trkpt lat="42.32131562618755" lon="-3.704315224889334"><ele>900.5000000000001</ele><time>2026-05-02T17:10:13Z</time></trkpt><trkpt lat="42.32123420255456" lon="-3.70427165369742"><ele>902.0</ele><time>2026-05-02T17:10:14Z</time></trkpt><trkpt lat="42.32115299130131" lon="-3.7042282669583075"><ele>903.5</ele><time>2026-05-02T17:10:15Z</time></trkpt><trkpt lat="42.32107224292864" lon="-3.704184592070421"><ele>905.0</ele><time>2026-05-02T17:10:16Z</time></trkpt><trkpt lat="42.32099089863444" lon="-3.7041433167194593"><ele>906.5000000000001</ele><time>2026-05-02T17:10:17Z</time></trkpt><trkpt lat="42.320911266958255" lon="-3.7040998972487036"><ele>908.0</ele><time>2026-05-02T17:10:18Z</time></trkpt><trkpt lat="42.320831433746754" lon="-3.704057539251319"><ele>908.0000000000001</ele><time>2026-05-02T17:10:19Z</time></trkpt><trkpt lat="42.320746701260205" lon="-3.70402241593853"><ele>908.0</ele><time>2026-05-02T17:10:20Z</time></trkpt><trkpt lat="42.32066225730759" lon="-3.703992286622863"><ele>908.0</ele><time>2026-05-02T17:10:21Z</time></trkpt><trkpt lat="42.320577270665254" lon="-3.70397260888336"><ele>908.0</ele><time>2026-05-02T17:10:22Z</time></trkpt><trkpt lat="42.320494951786976" lon="-3.703955051727819"><ele>908.0000000000001</ele><time>2026-05-02T17:10:23Z</time></trkpt><trkpt lat="42.320415524288876" lon="-3.7039381829307882"><ele>908.0</ele><time>2026-05-02T17:10:24Z</time></trkpt><trkpt lat="42.32034262677794" lon="-3.7039256268033056"><ele>908.5000000000001</ele><time>2026-05-02T17:10:25Z</time></trkpt><trkpt lat="42.320272143952664" lon="-3.7039246314235004"><ele>909.0</ele><time>2026-05-02T17:10:26Z</time></trkpt><trkpt lat="42.32020129225747" lon="-3.7039241914484657"><ele>909.5</ele><time>2026-05-02T17:10:27Z</time></trkpt><trkpt lat="42.320132054328376" lon="-3.703924781878045"><ele>910.0</ele><time>2026-05-02T17:10:28Z</time></trkpt><trkpt lat="42.32006770380656" lon="-3.7039259223622163"><ele>910.5000000000001</ele><time>2026-05-02T17:10:29Z</time></trkpt><trkpt lat="42.31994872005753" lon="-3.7039268370465783"><ele>911.0</ele><time>2026-05-02T17:10:31Z</time></trkpt><trkpt lat="42.319850035952236" lon="-3.7038913321339137"><ele>911.0</ele><time>2026-05-02T17:10:33Z</time></trkpt><trkpt lat="42.31978045905501" lon="-3.7038694070379687"><ele>911.0</ele><time>2026-05-02T17:10:35Z</time></trkpt><trkpt lat="42.3197209136071" lon="-3.7039635757268132"><ele>909.0</ele><time>2026-05-02T17:10:38Z</time></trkpt><trkpt lat="42.31969803828289" lon="-3.704072939170048"><ele>909.0</ele><time>2026-05-02T17:10:40Z</time></trkpt><trkpt lat="42.31971675138987" lon="-3.7041635100817443"><ele>909.0</ele><time>2026-05-02T17:10:44Z</time></trkpt></trkseg></trk></gpx>